<?xml version="1.0" encoding="UTF-8"?>
<gpx version="1.1" creator="https://www.youtrack.es" xsi:schemaLocation="http://www.topografix.com/GPX/1/1 http://www.topografix.com/GPX/1/1/gpx.xsd http://www.garmin.com/xmlschemas/GpxExtensions/v3 http://www.garmin.com/xmlschemas/GpxExtensionsv3.xsd http://www.garmin.com/xmlschemas/TrackPointExtension/v1 http://www.garmin.com/xmlschemas/TrackPointExtensionv1.xsd" xmlns:gpxtpx="http://www.garmin.com/xmlschemas/TrackPointExtension/v1" xmlns:gpxx="http://www.garmin.com/xmlschemas/GpxExtensions/v3" xmlns:xsi="http://www.w3.org/2001/XMLSchema-instance">
  <metadata>
    <link href="https://www.youtrack.es">
      <text>YouTrack.es</text>
    </link>
    <time>2026-05-10T16:58:12Z</time>
  </metadata>
  <trk>
    <src>https://www.youtrack.es</src>
    <link href="https://www.youtrack.es/ruta/20705-canal-del-midi">
      <text>YouTrack.es</text>
    </link>
    <trkseg>
      <trkpt lat="44.0144091379" lon="1.3425159361">
        <ele>90.98</ele>
        <time>2017-07-29T09:20:35Z</time>
      </trkpt>
      <trkpt lat="44.0144119877" lon="1.3425090630">
        <ele>90.50</ele>
        <time>2017-07-29T09:20:53Z</time>
      </trkpt>
      <trkpt lat="44.0144108143" lon="1.3424894493">
        <ele>90.50</ele>
        <time>2017-07-29T09:21:18Z</time>
      </trkpt>
      <trkpt lat="44.0144088026" lon="1.3424847554">
        <ele>90.50</ele>
        <time>2017-07-29T09:21:48Z</time>
      </trkpt>
      <trkpt lat="44.0144054499" lon="1.3424838334">
        <ele>90.50</ele>
        <time>2017-07-29T09:22:14Z</time>
      </trkpt>
      <trkpt lat="44.0144042764" lon="1.3424895331">
        <ele>90.50</ele>
        <time>2017-07-29T09:22:40Z</time>
      </trkpt>
      <trkpt lat="44.0144065395" lon="1.3424895331">
        <ele>90.50</ele>
        <time>2017-07-29T09:23:04Z</time>
      </trkpt>
      <trkpt lat="44.0144085512" lon="1.3424795587">
        <ele>90.50</ele>
        <time>2017-07-29T09:23:24Z</time>
      </trkpt>
      <trkpt lat="44.0144129936" lon="1.3424826600">
        <ele>90.02</ele>
        <time>2017-07-29T09:23:48Z</time>
      </trkpt>
      <trkpt lat="44.0144169331" lon="1.3424947299">
        <ele>90.02</ele>
        <time>2017-07-29T09:24:01Z</time>
      </trkpt>
      <trkpt lat="44.0144150890" lon="1.3425024413">
        <ele>90.02</ele>
        <time>2017-07-29T09:24:21Z</time>
      </trkpt>
      <trkpt lat="44.0144110657" lon="1.3424969930">
        <ele>90.02</ele>
        <time>2017-07-29T09:24:35Z</time>
      </trkpt>
      <trkpt lat="44.0144083835" lon="1.3424899522">
        <ele>90.02</ele>
        <time>2017-07-29T09:24:54Z</time>
      </trkpt>
      <trkpt lat="44.0144068748" lon="1.3424941432">
        <ele>90.50</ele>
        <time>2017-07-29T09:25:15Z</time>
      </trkpt>
      <trkpt lat="44.0144051984" lon="1.3424932212">
        <ele>90.02</ele>
        <time>2017-07-29T09:25:31Z</time>
      </trkpt>
      <trkpt lat="44.0143970679" lon="1.3424974959">
        <ele>89.54</ele>
        <time>2017-07-29T09:25:49Z</time>
      </trkpt>
      <trkpt lat="44.0143998340" lon="1.3424806483">
        <ele>89.54</ele>
        <time>2017-07-29T09:26:08Z</time>
      </trkpt>
      <trkpt lat="44.0144016780" lon="1.3424432650">
        <ele>89.54</ele>
        <time>2017-07-29T09:26:10Z</time>
      </trkpt>
      <trkpt lat="44.0143990796" lon="1.3424135931">
        <ele>89.54</ele>
        <time>2017-07-29T09:26:12Z</time>
      </trkpt>
      <trkpt lat="44.0144122392" lon="1.3423366472">
        <ele>89.54</ele>
        <time>2017-07-29T09:26:17Z</time>
      </trkpt>
      <trkpt lat="44.0144325234" lon="1.3423676603">
        <ele>89.54</ele>
        <time>2017-07-29T09:26:22Z</time>
      </trkpt>
      <trkpt lat="44.0144453477" lon="1.3425584324">
        <ele>89.54</ele>
        <time>2017-07-29T09:26:32Z</time>
      </trkpt>
      <trkpt lat="44.0144524723" lon="1.3426300976">
        <ele>89.54</ele>
        <time>2017-07-29T09:26:36Z</time>
      </trkpt>
      <trkpt lat="44.0144398995" lon="1.3427558262">
        <ele>89.54</ele>
        <time>2017-07-29T09:26:45Z</time>
      </trkpt>
      <trkpt lat="44.0144356247" lon="1.3427480310">
        <ele>89.54</ele>
        <time>2017-07-29T09:26:54Z</time>
      </trkpt>
      <trkpt lat="44.0144270752" lon="1.3427492045">
        <ele>89.54</ele>
        <time>2017-07-29T09:27:06Z</time>
      </trkpt>
      <trkpt lat="44.0144196153" lon="1.3427449297">
        <ele>89.54</ele>
        <time>2017-07-29T09:27:19Z</time>
      </trkpt>
      <trkpt lat="44.0144102275" lon="1.3427531440">
        <ele>89.54</ele>
        <time>2017-07-29T09:27:31Z</time>
      </trkpt>
      <trkpt lat="44.0144114010" lon="1.3427749369">
        <ele>89.06</ele>
        <time>2017-07-29T09:27:49Z</time>
      </trkpt>
      <trkpt lat="44.0144219622" lon="1.3427823130">
        <ele>89.06</ele>
        <time>2017-07-29T09:28:10Z</time>
      </trkpt>
      <trkpt lat="44.0144196991" lon="1.3427770324">
        <ele>89.06</ele>
        <time>2017-07-29T09:28:34Z</time>
      </trkpt>
      <trkpt lat="44.0144226328" lon="1.3427763619">
        <ele>89.06</ele>
        <time>2017-07-29T09:28:55Z</time>
      </trkpt>
      <trkpt lat="44.0144251473" lon="1.3427808881">
        <ele>89.06</ele>
        <time>2017-07-29T09:29:14Z</time>
      </trkpt>
      <trkpt lat="44.0144380555" lon="1.3427833188">
        <ele>89.06</ele>
        <time>2017-07-29T09:29:38Z</time>
      </trkpt>
      <trkpt lat="44.0144433361" lon="1.3427756913">
        <ele>89.06</ele>
        <time>2017-07-29T09:30:00Z</time>
      </trkpt>
      <trkpt lat="44.0144411568" lon="1.3427671418">
        <ele>89.06</ele>
        <time>2017-07-29T09:30:26Z</time>
      </trkpt>
      <trkpt lat="44.0144444257" lon="1.3427650463">
        <ele>89.54</ele>
        <time>2017-07-29T09:30:48Z</time>
      </trkpt>
      <trkpt lat="44.0144535620" lon="1.3427759428">
        <ele>89.54</ele>
        <time>2017-07-29T09:31:11Z</time>
      </trkpt>
      <trkpt lat="44.0144568309" lon="1.3427765295">
        <ele>89.54</ele>
        <time>2017-07-29T09:31:35Z</time>
      </trkpt>
      <trkpt lat="44.0144554898" lon="1.3427744340">
        <ele>89.54</ele>
        <time>2017-07-29T09:32:01Z</time>
      </trkpt>
      <trkpt lat="44.0144476108" lon="1.3427894376">
        <ele>89.54</ele>
        <time>2017-07-29T09:32:28Z</time>
      </trkpt>
      <trkpt lat="44.0144464374" lon="1.3427892700">
        <ele>89.54</ele>
        <time>2017-07-29T09:32:51Z</time>
      </trkpt>
      <trkpt lat="44.0144467726" lon="1.3427875098">
        <ele>90.02</ele>
        <time>2017-07-29T09:33:08Z</time>
      </trkpt>
      <trkpt lat="44.0144460183" lon="1.3427854143">
        <ele>90.02</ele>
        <time>2017-07-29T09:33:21Z</time>
      </trkpt>
      <trkpt lat="44.0144454315" lon="1.3427834865">
        <ele>90.02</ele>
        <time>2017-07-29T09:33:26Z</time>
      </trkpt>
      <trkpt lat="44.0144622792" lon="1.3428385556">
        <ele>89.54</ele>
        <time>2017-07-29T09:33:36Z</time>
      </trkpt>
      <trkpt lat="44.0144528914" lon="1.3428798784">
        <ele>90.02</ele>
        <time>2017-07-29T09:33:49Z</time>
      </trkpt>
      <trkpt lat="44.0144611057" lon="1.3430413138">
        <ele>90.02</ele>
        <time>2017-07-29T09:33:54Z</time>
      </trkpt>
      <trkpt lat="44.0144825634" lon="1.3433560543">
        <ele>90.02</ele>
        <time>2017-07-29T09:34:01Z</time>
      </trkpt>
      <trkpt lat="44.0145165939" lon="1.3440070767">
        <ele>90.02</ele>
        <time>2017-07-29T09:34:13Z</time>
      </trkpt>
      <trkpt lat="44.0145461820" lon="1.3444334641">
        <ele>89.54</ele>
        <time>2017-07-29T09:34:21Z</time>
      </trkpt>
      <trkpt lat="44.0145733394" lon="1.3448847458">
        <ele>90.02</ele>
        <time>2017-07-29T09:34:29Z</time>
      </trkpt>
      <trkpt lat="44.0145768598" lon="1.3449419942">
        <ele>89.54</ele>
        <time>2017-07-29T09:34:30Z</time>
      </trkpt>
      <trkpt lat="44.0145782009" lon="1.3450000808">
        <ele>89.54</ele>
        <time>2017-07-29T09:34:31Z</time>
      </trkpt>
      <trkpt lat="44.0145717468" lon="1.3452418149">
        <ele>89.54</ele>
        <time>2017-07-29T09:34:35Z</time>
      </trkpt>
      <trkpt lat="44.0145921987" lon="1.3458247762">
        <ele>90.02</ele>
        <time>2017-07-29T09:34:45Z</time>
      </trkpt>
      <trkpt lat="44.0145955514" lon="1.3460781612">
        <ele>89.54</ele>
        <time>2017-07-29T09:34:49Z</time>
      </trkpt>
      <trkpt lat="44.0146091301" lon="1.3463255111">
        <ele>90.02</ele>
        <time>2017-07-29T09:34:53Z</time>
      </trkpt>
      <trkpt lat="44.0146183502" lon="1.3463795744">
        <ele>90.02</ele>
        <time>2017-07-29T09:34:54Z</time>
      </trkpt>
      <trkpt lat="44.0146284923" lon="1.3464333862">
        <ele>90.02</ele>
        <time>2017-07-29T09:34:55Z</time>
      </trkpt>
      <trkpt lat="44.0146335214" lon="1.3464912213">
        <ele>90.02</ele>
        <time>2017-07-29T09:34:56Z</time>
      </trkpt>
      <trkpt lat="44.0146355331" lon="1.3465506490">
        <ele>90.02</ele>
        <time>2017-07-29T09:34:57Z</time>
      </trkpt>
      <trkpt lat="44.0146382991" lon="1.3466114178">
        <ele>90.02</ele>
        <time>2017-07-29T09:34:58Z</time>
      </trkpt>
      <trkpt lat="44.0146393050" lon="1.3466720190">
        <ele>90.02</ele>
        <time>2017-07-29T09:34:59Z</time>
      </trkpt>
      <trkpt lat="44.0146354493" lon="1.3467310276">
        <ele>90.02</ele>
        <time>2017-07-29T09:35:00Z</time>
      </trkpt>
      <trkpt lat="44.0146285761" lon="1.3467893656">
        <ele>90.02</ele>
        <time>2017-07-29T09:35:01Z</time>
      </trkpt>
      <trkpt lat="44.0146206133" lon="1.3468482904">
        <ele>89.54</ele>
        <time>2017-07-29T09:35:02Z</time>
      </trkpt>
      <trkpt lat="44.0146027599" lon="1.3469658047">
        <ele>90.02</ele>
        <time>2017-07-29T09:35:04Z</time>
      </trkpt>
      <trkpt lat="44.0145600960" lon="1.3470882643">
        <ele>89.54</ele>
        <time>2017-07-29T09:35:06Z</time>
      </trkpt>
      <trkpt lat="44.0145258978" lon="1.3472126517">
        <ele>89.54</ele>
        <time>2017-07-29T09:35:08Z</time>
      </trkpt>
      <trkpt lat="44.0145119000" lon="1.3472687267">
        <ele>89.54</ele>
        <time>2017-07-29T09:35:09Z</time>
      </trkpt>
      <trkpt lat="44.0144870896" lon="1.3473064452">
        <ele>89.54</ele>
        <time>2017-07-29T09:35:10Z</time>
      </trkpt>
      <trkpt lat="44.0144502930" lon="1.3473227061">
        <ele>89.54</ele>
        <time>2017-07-29T09:35:11Z</time>
      </trkpt>
      <trkpt lat="44.0144124068" lon="1.3473157492">
        <ele>89.54</ele>
        <time>2017-07-29T09:35:12Z</time>
      </trkpt>
      <trkpt lat="44.0143750235" lon="1.3472958002">
        <ele>89.54</ele>
        <time>2017-07-29T09:35:13Z</time>
      </trkpt>
      <trkpt lat="44.0143370535" lon="1.3472699001">
        <ele>89.54</ele>
        <time>2017-07-29T09:35:14Z</time>
      </trkpt>
      <trkpt lat="44.0142989997" lon="1.3472407311">
        <ele>89.54</ele>
        <time>2017-07-29T09:35:15Z</time>
      </trkpt>
      <trkpt lat="44.0140669048" lon="1.3470723387">
        <ele>90.02</ele>
        <time>2017-07-29T09:35:21Z</time>
      </trkpt>
      <trkpt lat="44.0139837563" lon="1.3470248971">
        <ele>90.02</ele>
        <time>2017-07-29T09:35:23Z</time>
      </trkpt>
      <trkpt lat="44.0139390808" lon="1.3470006734">
        <ele>90.02</ele>
        <time>2017-07-29T09:35:24Z</time>
      </trkpt>
      <trkpt lat="44.0134862904" lon="1.3467342965">
        <ele>90.02</ele>
        <time>2017-07-29T09:35:35Z</time>
      </trkpt>
      <trkpt lat="44.0129764192" lon="1.3464039657">
        <ele>90.02</ele>
        <time>2017-07-29T09:35:47Z</time>
      </trkpt>
      <trkpt lat="44.0128472541" lon="1.3463300373">
        <ele>90.02</ele>
        <time>2017-07-29T09:35:54Z</time>
      </trkpt>
      <trkpt lat="44.0128351003" lon="1.3463329710">
        <ele>90.02</ele>
        <time>2017-07-29T09:36:08Z</time>
      </trkpt>
      <trkpt lat="44.0128297359" lon="1.3463259302">
        <ele>90.02</ele>
        <time>2017-07-29T09:36:29Z</time>
      </trkpt>
      <trkpt lat="44.0127807856" lon="1.3462885469">
        <ele>90.02</ele>
        <time>2017-07-29T09:36:32Z</time>
      </trkpt>
      <trkpt lat="44.0125509538" lon="1.3461379241">
        <ele>90.02</ele>
        <time>2017-07-29T09:36:39Z</time>
      </trkpt>
      <trkpt lat="44.0125094634" lon="1.3461100962">
        <ele>90.02</ele>
        <time>2017-07-29T09:36:40Z</time>
      </trkpt>
      <trkpt lat="44.0124683082" lon="1.3460888900">
        <ele>90.02</ele>
        <time>2017-07-29T09:36:41Z</time>
      </trkpt>
      <trkpt lat="44.0124256443" lon="1.3460670970">
        <ele>90.02</ele>
        <time>2017-07-29T09:36:42Z</time>
      </trkpt>
      <trkpt lat="44.0123810526" lon="1.3460421190">
        <ele>90.02</ele>
        <time>2017-07-29T09:36:43Z</time>
      </trkpt>
      <trkpt lat="44.0118707623" lon="1.3457179070">
        <ele>90.02</ele>
        <time>2017-07-29T09:36:54Z</time>
      </trkpt>
      <trkpt lat="44.0112874657" lon="1.3453664538">
        <ele>90.02</ele>
        <time>2017-07-29T09:37:07Z</time>
      </trkpt>
      <trkpt lat="44.0106691327" lon="1.3449828979">
        <ele>90.02</ele>
        <time>2017-07-29T09:37:20Z</time>
      </trkpt>
      <trkpt lat="44.0104755107" lon="1.3448779564">
        <ele>90.02</ele>
        <time>2017-07-29T09:37:24Z</time>
      </trkpt>
      <trkpt lat="44.0104264766" lon="1.3448444288">
        <ele>90.02</ele>
        <time>2017-07-29T09:37:25Z</time>
      </trkpt>
      <trkpt lat="44.0097800642" lon="1.3444387447">
        <ele>90.02</ele>
        <time>2017-07-29T09:37:38Z</time>
      </trkpt>
      <trkpt lat="44.0091174748" lon="1.3440319709">
        <ele>90.50</ele>
        <time>2017-07-29T09:37:51Z</time>
      </trkpt>
      <trkpt lat="44.0083897579" lon="1.3435952738">
        <ele>90.02</ele>
        <time>2017-07-29T09:38:05Z</time>
      </trkpt>
      <trkpt lat="44.0076706745" lon="1.3431361970">
        <ele>90.50</ele>
        <time>2017-07-29T09:38:19Z</time>
      </trkpt>
      <trkpt lat="44.0070593823" lon="1.3427491207">
        <ele>90.98</ele>
        <time>2017-07-29T09:38:31Z</time>
      </trkpt>
      <trkpt lat="44.0063945297" lon="1.3423393294">
        <ele>91.46</ele>
        <time>2017-07-29T09:38:45Z</time>
      </trkpt>
      <trkpt lat="44.0057963133" lon="1.3419629820">
        <ele>90.98</ele>
        <time>2017-07-29T09:38:57Z</time>
      </trkpt>
      <trkpt lat="44.0051887091" lon="1.3416500855">
        <ele>91.46</ele>
        <time>2017-07-29T09:39:09Z</time>
      </trkpt>
      <trkpt lat="44.0043567214" lon="1.3413449004">
        <ele>90.98</ele>
        <time>2017-07-29T09:39:25Z</time>
      </trkpt>
      <trkpt lat="44.0036149230" lon="1.3410745002">
        <ele>90.98</ele>
        <time>2017-07-29T09:39:39Z</time>
      </trkpt>
      <trkpt lat="44.0029337257" lon="1.3407992385">
        <ele>90.98</ele>
        <time>2017-07-29T09:39:52Z</time>
      </trkpt>
      <trkpt lat="44.0021694638" lon="1.3405055366">
        <ele>90.98</ele>
        <time>2017-07-29T09:40:06Z</time>
      </trkpt>
      <trkpt lat="44.0021185018" lon="1.3404777087">
        <ele>90.98</ele>
        <time>2017-07-29T09:40:07Z</time>
      </trkpt>
      <trkpt lat="44.0020287316" lon="1.3404124137">
        <ele>91.46</ele>
        <time>2017-07-29T09:40:09Z</time>
      </trkpt>
      <trkpt lat="44.0019847266" lon="1.3403932191">
        <ele>90.98</ele>
        <time>2017-07-29T09:40:10Z</time>
      </trkpt>
      <trkpt lat="44.0015503764" lon="1.3402446918">
        <ele>91.46</ele>
        <time>2017-07-29T09:40:20Z</time>
      </trkpt>
      <trkpt lat="44.0012233146" lon="1.3401536644">
        <ele>91.46</ele>
        <time>2017-07-29T09:40:28Z</time>
      </trkpt>
      <trkpt lat="44.0006484836" lon="1.3399078231">
        <ele>91.46</ele>
        <time>2017-07-29T09:40:40Z</time>
      </trkpt>
      <trkpt lat="44.0000443999" lon="1.3396865409">
        <ele>91.94</ele>
        <time>2017-07-29T09:40:52Z</time>
      </trkpt>
      <trkpt lat="43.9995645359" lon="1.3395087607">
        <ele>91.46</ele>
        <time>2017-07-29T09:41:02Z</time>
      </trkpt>
      <trkpt lat="43.9993361291" lon="1.3394231815">
        <ele>91.46</ele>
        <time>2017-07-29T09:41:07Z</time>
      </trkpt>
      <trkpt lat="43.9992029406" lon="1.3393544499">
        <ele>91.46</ele>
        <time>2017-07-29T09:41:10Z</time>
      </trkpt>
      <trkpt lat="43.9986964222" lon="1.3391769212">
        <ele>91.46</ele>
        <time>2017-07-29T09:41:21Z</time>
      </trkpt>
      <trkpt lat="43.9982202463" lon="1.3389756717">
        <ele>91.94</ele>
        <time>2017-07-29T09:41:30Z</time>
      </trkpt>
      <trkpt lat="43.9979899116" lon="1.3388860691">
        <ele>91.94</ele>
        <time>2017-07-29T09:41:34Z</time>
      </trkpt>
      <trkpt lat="43.9974930324" lon="1.3387096301">
        <ele>91.94</ele>
        <time>2017-07-29T09:41:43Z</time>
      </trkpt>
      <trkpt lat="43.9970521443" lon="1.3385015074">
        <ele>91.46</ele>
        <time>2017-07-29T09:41:51Z</time>
      </trkpt>
      <trkpt lat="43.9970135037" lon="1.3384556584">
        <ele>91.46</ele>
        <time>2017-07-29T09:41:52Z</time>
      </trkpt>
      <trkpt lat="43.9969836641" lon="1.3384011760">
        <ele>91.46</ele>
        <time>2017-07-29T09:41:53Z</time>
      </trkpt>
      <trkpt lat="43.9967720211" lon="1.3378542569">
        <ele>90.02</ele>
        <time>2017-07-29T09:42:03Z</time>
      </trkpt>
      <trkpt lat="43.9967540000" lon="1.3378302846">
        <ele>90.02</ele>
        <time>2017-07-29T09:42:04Z</time>
      </trkpt>
      <trkpt lat="43.9967296924" lon="1.3378158677">
        <ele>89.54</ele>
        <time>2017-07-29T09:42:05Z</time>
      </trkpt>
      <trkpt lat="43.9967013616" lon="1.3378130179">
        <ele>89.54</ele>
        <time>2017-07-29T09:42:06Z</time>
      </trkpt>
      <trkpt lat="43.9966691751" lon="1.3378267642">
        <ele>89.54</ele>
        <time>2017-07-29T09:42:07Z</time>
      </trkpt>
      <trkpt lat="43.9966399223" lon="1.3378495630">
        <ele>90.02</ele>
        <time>2017-07-29T09:42:08Z</time>
      </trkpt>
      <trkpt lat="43.9966180455" lon="1.3378737029">
        <ele>90.02</ele>
        <time>2017-07-29T09:42:09Z</time>
      </trkpt>
      <trkpt lat="43.9965945762" lon="1.3378976751">
        <ele>90.02</ele>
        <time>2017-07-29T09:42:10Z</time>
      </trkpt>
      <trkpt lat="43.9965660777" lon="1.3379188813">
        <ele>90.50</ele>
        <time>2017-07-29T09:42:11Z</time>
      </trkpt>
      <trkpt lat="43.9962813444" lon="1.3381790556">
        <ele>91.46</ele>
        <time>2017-07-29T09:42:21Z</time>
      </trkpt>
      <trkpt lat="43.9959692024" lon="1.3381219748">
        <ele>91.46</ele>
        <time>2017-07-29T09:42:29Z</time>
      </trkpt>
      <trkpt lat="43.9955388755" lon="1.3380042929">
        <ele>91.46</ele>
        <time>2017-07-29T09:42:39Z</time>
      </trkpt>
      <trkpt lat="43.9954387955" lon="1.3379948214">
        <ele>91.46</ele>
        <time>2017-07-29T09:42:41Z</time>
      </trkpt>
      <trkpt lat="43.9953886718" lon="1.3379742019">
        <ele>91.46</ele>
        <time>2017-07-29T09:42:42Z</time>
      </trkpt>
      <trkpt lat="43.9952897653" lon="1.3379312865">
        <ele>91.94</ele>
        <time>2017-07-29T09:42:44Z</time>
      </trkpt>
      <trkpt lat="43.9952409826" lon="1.3379208092">
        <ele>91.46</ele>
        <time>2017-07-29T09:42:45Z</time>
      </trkpt>
      <trkpt lat="43.9951895177" lon="1.3379057217">
        <ele>90.98</ele>
        <time>2017-07-29T09:42:46Z</time>
      </trkpt>
      <trkpt lat="43.9945853502" lon="1.3377639838">
        <ele>90.98</ele>
        <time>2017-07-29T09:42:57Z</time>
      </trkpt>
      <trkpt lat="43.9941871259" lon="1.3376810867">
        <ele>90.98</ele>
        <time>2017-07-29T09:43:04Z</time>
      </trkpt>
      <trkpt lat="43.9941293746" lon="1.3376699388">
        <ele>90.98</ele>
        <time>2017-07-29T09:43:05Z</time>
      </trkpt>
      <trkpt lat="43.9937461540" lon="1.3376022130">
        <ele>90.98</ele>
        <time>2017-07-29T09:43:12Z</time>
      </trkpt>
      <trkpt lat="43.9937013108" lon="1.3375853654">
        <ele>90.98</ele>
        <time>2017-07-29T09:43:13Z</time>
      </trkpt>
      <trkpt lat="43.9936500974" lon="1.3375753071">
        <ele>91.46</ele>
        <time>2017-07-29T09:43:14Z</time>
      </trkpt>
      <trkpt lat="43.9934858121" lon="1.3375585433">
        <ele>90.98</ele>
        <time>2017-07-29T09:43:17Z</time>
      </trkpt>
      <trkpt lat="43.9932881668" lon="1.3375450484">
        <ele>90.98</ele>
        <time>2017-07-29T09:43:21Z</time>
      </trkpt>
      <trkpt lat="43.9931967203" lon="1.3375204895">
        <ele>90.98</ele>
        <time>2017-07-29T09:43:23Z</time>
      </trkpt>
      <trkpt lat="43.9931486920" lon="1.3375103474">
        <ele>91.46</ele>
        <time>2017-07-29T09:43:24Z</time>
      </trkpt>
      <trkpt lat="43.9931020886" lon="1.3375020493">
        <ele>90.98</ele>
        <time>2017-07-29T09:43:25Z</time>
      </trkpt>
      <trkpt lat="43.9928760286" lon="1.3374582119">
        <ele>91.46</ele>
        <time>2017-07-29T09:43:30Z</time>
      </trkpt>
      <trkpt lat="43.9928343706" lon="1.3374474831">
        <ele>91.46</ele>
        <time>2017-07-29T09:43:31Z</time>
      </trkpt>
      <trkpt lat="43.9927501325" lon="1.3374349941">
        <ele>90.98</ele>
        <time>2017-07-29T09:43:33Z</time>
      </trkpt>
      <trkpt lat="43.9925042074" lon="1.3374094293">
        <ele>91.46</ele>
        <time>2017-07-29T09:43:42Z</time>
      </trkpt>
      <trkpt lat="43.9924929757" lon="1.3374156319">
        <ele>91.46</ele>
        <time>2017-07-29T09:43:48Z</time>
      </trkpt>
      <trkpt lat="43.9924773853" lon="1.3374112733">
        <ele>91.46</ele>
        <time>2017-07-29T09:43:49Z</time>
      </trkpt>
      <trkpt lat="43.9924315363" lon="1.3373823557">
        <ele>91.46</ele>
        <time>2017-07-29T09:43:51Z</time>
      </trkpt>
      <trkpt lat="43.9920959249" lon="1.3372990396">
        <ele>91.46</ele>
        <time>2017-07-29T09:44:00Z</time>
      </trkpt>
      <trkpt lat="43.9915378578" lon="1.3371552899">
        <ele>91.46</ele>
        <time>2017-07-29T09:44:11Z</time>
      </trkpt>
      <trkpt lat="43.9910931978" lon="1.3370350096">
        <ele>91.46</ele>
        <time>2017-07-29T09:44:21Z</time>
      </trkpt>
      <trkpt lat="43.9908254799" lon="1.3368941098">
        <ele>91.46</ele>
        <time>2017-07-29T09:44:27Z</time>
      </trkpt>
      <trkpt lat="43.9902580250" lon="1.3363491185">
        <ele>91.46</ele>
        <time>2017-07-29T09:44:40Z</time>
      </trkpt>
      <trkpt lat="43.9898157120" lon="1.3359653950">
        <ele>91.46</ele>
        <time>2017-07-29T09:44:49Z</time>
      </trkpt>
      <trkpt lat="43.9890278969" lon="1.3354851119">
        <ele>91.46</ele>
        <time>2017-07-29T09:45:03Z</time>
      </trkpt>
      <trkpt lat="43.9882921334" lon="1.3352121972">
        <ele>91.46</ele>
        <time>2017-07-29T09:45:16Z</time>
      </trkpt>
      <trkpt lat="43.9879986830" lon="1.3351287972">
        <ele>91.46</ele>
        <time>2017-07-29T09:45:21Z</time>
      </trkpt>
      <trkpt lat="43.9879501518" lon="1.3350822777">
        <ele>91.46</ele>
        <time>2017-07-29T09:45:22Z</time>
      </trkpt>
      <trkpt lat="43.9879111759" lon="1.3350189105">
        <ele>91.46</ele>
        <time>2017-07-29T09:45:23Z</time>
      </trkpt>
      <trkpt lat="43.9878842700" lon="1.3349438086">
        <ele>91.46</ele>
        <time>2017-07-29T09:45:24Z</time>
      </trkpt>
      <trkpt lat="43.9878721163" lon="1.3348620012">
        <ele>91.46</ele>
        <time>2017-07-29T09:45:25Z</time>
      </trkpt>
      <trkpt lat="43.9878742956" lon="1.3347758353">
        <ele>91.46</ele>
        <time>2017-07-29T09:45:26Z</time>
      </trkpt>
      <trkpt lat="43.9878849406" lon="1.3346915133">
        <ele>90.98</ele>
        <time>2017-07-29T09:45:27Z</time>
      </trkpt>
      <trkpt lat="43.9878971782" lon="1.3346074428">
        <ele>90.98</ele>
        <time>2017-07-29T09:45:28Z</time>
      </trkpt>
      <trkpt lat="43.9879649878" lon="1.3342972286">
        <ele>90.98</ele>
        <time>2017-07-29T09:45:32Z</time>
      </trkpt>
      <trkpt lat="43.9879876189" lon="1.3342397287">
        <ele>90.50</ele>
        <time>2017-07-29T09:45:33Z</time>
      </trkpt>
      <trkpt lat="43.9879963361" lon="1.3341768645">
        <ele>90.50</ele>
        <time>2017-07-29T09:45:34Z</time>
      </trkpt>
      <trkpt lat="43.9879852720" lon="1.3341163471">
        <ele>90.50</ele>
        <time>2017-07-29T09:45:35Z</time>
      </trkpt>
      <trkpt lat="43.9879559353" lon="1.3340710849">
        <ele>90.98</ele>
        <time>2017-07-29T09:45:36Z</time>
      </trkpt>
      <trkpt lat="43.9879166242" lon="1.3340528961">
        <ele>90.98</ele>
        <time>2017-07-29T09:45:37Z</time>
      </trkpt>
      <trkpt lat="43.9878747147" lon="1.3340601884">
        <ele>90.98</ele>
        <time>2017-07-29T09:45:38Z</time>
      </trkpt>
      <trkpt lat="43.9878349844" lon="1.3340828195">
        <ele>90.50</ele>
        <time>2017-07-29T09:45:39Z</time>
      </trkpt>
      <trkpt lat="43.9877926558" lon="1.3340978231">
        <ele>90.50</ele>
        <time>2017-07-29T09:45:40Z</time>
      </trkpt>
      <trkpt lat="43.9877474774" lon="1.3340929616">
        <ele>90.50</ele>
        <time>2017-07-29T09:45:41Z</time>
      </trkpt>
      <trkpt lat="43.9877022151" lon="1.3340788800">
        <ele>90.50</ele>
        <time>2017-07-29T09:45:42Z</time>
      </trkpt>
      <trkpt lat="43.9869971294" lon="1.3338854257">
        <ele>90.98</ele>
        <time>2017-07-29T09:45:57Z</time>
      </trkpt>
      <trkpt lat="43.9866087958" lon="1.3337848429">
        <ele>91.46</ele>
        <time>2017-07-29T09:46:05Z</time>
      </trkpt>
      <trkpt lat="43.9859303646" lon="1.3338618726">
        <ele>91.94</ele>
        <time>2017-07-29T09:46:18Z</time>
      </trkpt>
      <trkpt lat="43.9858812466" lon="1.3338443544">
        <ele>91.46</ele>
        <time>2017-07-29T09:46:19Z</time>
      </trkpt>
      <trkpt lat="43.9856566954" lon="1.3337276783">
        <ele>91.46</ele>
        <time>2017-07-29T09:46:24Z</time>
      </trkpt>
      <trkpt lat="43.9855609741" lon="1.3336591143">
        <ele>91.46</ele>
        <time>2017-07-29T09:46:26Z</time>
      </trkpt>
      <trkpt lat="43.9855107665" lon="1.3336297777">
        <ele>91.46</ele>
        <time>2017-07-29T09:46:27Z</time>
      </trkpt>
      <trkpt lat="43.9854630735" lon="1.3336005248">
        <ele>91.46</ele>
        <time>2017-07-29T09:46:28Z</time>
      </trkpt>
      <trkpt lat="43.9852427132" lon="1.3334559370">
        <ele>91.46</ele>
        <time>2017-07-29T09:46:34Z</time>
      </trkpt>
      <trkpt lat="43.9852349181" lon="1.3334163744">
        <ele>91.46</ele>
        <time>2017-07-29T09:46:35Z</time>
      </trkpt>
      <trkpt lat="43.9851081837" lon="1.3330432121">
        <ele>91.46</ele>
        <time>2017-07-29T09:46:44Z</time>
      </trkpt>
      <trkpt lat="43.9850369375" lon="1.3329486642">
        <ele>91.46</ele>
        <time>2017-07-29T09:46:47Z</time>
      </trkpt>
      <trkpt lat="43.9850279689" lon="1.3329035696">
        <ele>91.46</ele>
        <time>2017-07-29T09:46:48Z</time>
      </trkpt>
      <trkpt lat="43.9850252029" lon="1.3328546192">
        <ele>91.46</ele>
        <time>2017-07-29T09:46:49Z</time>
      </trkpt>
      <trkpt lat="43.9850231912" lon="1.3328053337">
        <ele>91.46</ele>
        <time>2017-07-29T09:46:50Z</time>
      </trkpt>
      <trkpt lat="43.9850248676" lon="1.3327614963">
        <ele>91.46</ele>
        <time>2017-07-29T09:46:51Z</time>
      </trkpt>
      <trkpt lat="43.9850257896" lon="1.3324658666">
        <ele>91.46</ele>
        <time>2017-07-29T09:46:57Z</time>
      </trkpt>
      <trkpt lat="43.9850257058" lon="1.3324059360">
        <ele>91.46</ele>
        <time>2017-07-29T09:46:58Z</time>
      </trkpt>
      <trkpt lat="43.9850184135" lon="1.3317078911">
        <ele>91.46</ele>
        <time>2017-07-29T09:47:09Z</time>
      </trkpt>
      <trkpt lat="43.9849895798" lon="1.3309863769">
        <ele>90.98</ele>
        <time>2017-07-29T09:47:21Z</time>
      </trkpt>
      <trkpt lat="43.9849921782" lon="1.3309228420">
        <ele>90.50</ele>
        <time>2017-07-29T09:47:30Z</time>
      </trkpt>
      <trkpt lat="43.9849932678" lon="1.3309165556">
        <ele>90.50</ele>
        <time>2017-07-29T09:47:32Z</time>
      </trkpt>
      <trkpt lat="43.9849929325" lon="1.3308340777">
        <ele>90.50</ele>
        <time>2017-07-29T09:47:35Z</time>
      </trkpt>
      <trkpt lat="43.9849913400" lon="1.3307966106">
        <ele>90.50</ele>
        <time>2017-07-29T09:47:36Z</time>
      </trkpt>
      <trkpt lat="43.9849827066" lon="1.3307547010">
        <ele>90.50</ele>
        <time>2017-07-29T09:47:37Z</time>
      </trkpt>
      <trkpt lat="43.9849735703" lon="1.3307084329">
        <ele>90.50</ele>
        <time>2017-07-29T09:47:38Z</time>
      </trkpt>
      <trkpt lat="43.9849692956" lon="1.3306604885">
        <ele>90.98</ele>
        <time>2017-07-29T09:47:39Z</time>
      </trkpt>
      <trkpt lat="43.9849656913" lon="1.3306118734">
        <ele>90.98</ele>
        <time>2017-07-29T09:47:40Z</time>
      </trkpt>
      <trkpt lat="43.9849621709" lon="1.3305646833">
        <ele>90.98</ele>
        <time>2017-07-29T09:47:41Z</time>
      </trkpt>
      <trkpt lat="43.9849578124" lon="1.3305153139">
        <ele>90.98</ele>
        <time>2017-07-29T09:47:42Z</time>
      </trkpt>
      <trkpt lat="43.9849534538" lon="1.3304623403">
        <ele>90.98</ele>
        <time>2017-07-29T09:47:43Z</time>
      </trkpt>
      <trkpt lat="43.9849505201" lon="1.3304086123">
        <ele>90.98</ele>
        <time>2017-07-29T09:47:44Z</time>
      </trkpt>
      <trkpt lat="43.9849141426" lon="1.3299351186">
        <ele>90.98</ele>
        <time>2017-07-29T09:47:52Z</time>
      </trkpt>
      <trkpt lat="43.9849112928" lon="1.3298734277">
        <ele>90.98</ele>
        <time>2017-07-29T09:47:53Z</time>
      </trkpt>
      <trkpt lat="43.9848323353" lon="1.3290309627">
        <ele>91.46</ele>
        <time>2017-07-29T09:48:06Z</time>
      </trkpt>
      <trkpt lat="43.9847922698" lon="1.3288458064">
        <ele>91.46</ele>
        <time>2017-07-29T09:48:09Z</time>
      </trkpt>
      <trkpt lat="43.9847744163" lon="1.3287889771">
        <ele>91.46</ele>
        <time>2017-07-29T09:48:10Z</time>
      </trkpt>
      <trkpt lat="43.9847009070" lon="1.3285567146">
        <ele>91.46</ele>
        <time>2017-07-29T09:48:14Z</time>
      </trkpt>
      <trkpt lat="43.9846756775" lon="1.3285033219">
        <ele>91.46</ele>
        <time>2017-07-29T09:48:15Z</time>
      </trkpt>
      <trkpt lat="43.9845125657" lon="1.3281943649">
        <ele>91.46</ele>
        <time>2017-07-29T09:48:21Z</time>
      </trkpt>
      <trkpt lat="43.9841707516" lon="1.3275866769">
        <ele>91.46</ele>
        <time>2017-07-29T09:48:33Z</time>
      </trkpt>
      <trkpt lat="43.9840961527" lon="1.3274373952">
        <ele>91.46</ele>
        <time>2017-07-29T09:48:36Z</time>
      </trkpt>
      <trkpt lat="43.9840850048" lon="1.3273809012">
        <ele>91.94</ele>
        <time>2017-07-29T09:48:37Z</time>
      </trkpt>
      <trkpt lat="43.9840902854" lon="1.3273229823">
        <ele>91.46</ele>
        <time>2017-07-29T09:48:38Z</time>
      </trkpt>
      <trkpt lat="43.9841138385" lon="1.3272711821">
        <ele>91.94</ele>
        <time>2017-07-29T09:48:39Z</time>
      </trkpt>
      <trkpt lat="43.9841508865" lon="1.3272348046">
        <ele>91.94</ele>
        <time>2017-07-29T09:48:40Z</time>
      </trkpt>
      <trkpt lat="43.9841944724" lon="1.3272112515">
        <ele>91.46</ele>
        <time>2017-07-29T09:48:41Z</time>
      </trkpt>
      <trkpt lat="43.9842380583" lon="1.3271897100">
        <ele>91.46</ele>
        <time>2017-07-29T09:48:42Z</time>
      </trkpt>
      <trkpt lat="43.9843199495" lon="1.3271437772">
        <ele>91.46</ele>
        <time>2017-07-29T09:48:44Z</time>
      </trkpt>
      <trkpt lat="43.9844379667" lon="1.3270840142">
        <ele>91.94</ele>
        <time>2017-07-29T09:48:47Z</time>
      </trkpt>
      <trkpt lat="43.9844767749" lon="1.3270571921">
        <ele>91.46</ele>
        <time>2017-07-29T09:48:48Z</time>
      </trkpt>
      <trkpt lat="43.9846784435" lon="1.3269528374">
        <ele>91.46</ele>
        <time>2017-07-29T09:48:53Z</time>
      </trkpt>
      <trkpt lat="43.9847183414" lon="1.3269322179">
        <ele>91.46</ele>
        <time>2017-07-29T09:48:54Z</time>
      </trkpt>
      <trkpt lat="43.9847584907" lon="1.3269167114">
        <ele>91.94</ele>
        <time>2017-07-29T09:48:55Z</time>
      </trkpt>
      <trkpt lat="43.9847978018" lon="1.3269025460">
        <ele>91.94</ele>
        <time>2017-07-29T09:48:56Z</time>
      </trkpt>
      <trkpt lat="43.9848340955" lon="1.3268846925">
        <ele>91.46</ele>
        <time>2017-07-29T09:48:57Z</time>
      </trkpt>
      <trkpt lat="43.9848695509" lon="1.3268644083">
        <ele>91.46</ele>
        <time>2017-07-29T09:48:58Z</time>
      </trkpt>
      <trkpt lat="43.9849996381" lon="1.3267147914">
        <ele>90.50</ele>
        <time>2017-07-29T09:49:03Z</time>
      </trkpt>
      <trkpt lat="43.9850005601" lon="1.3266629074">
        <ele>90.50</ele>
        <time>2017-07-29T09:49:04Z</time>
      </trkpt>
      <trkpt lat="43.9849952795" lon="1.3266126160">
        <ele>90.50</ele>
        <time>2017-07-29T09:49:05Z</time>
      </trkpt>
      <trkpt lat="43.9848985523" lon="1.3263717201">
        <ele>90.98</ele>
        <time>2017-07-29T09:49:11Z</time>
      </trkpt>
      <trkpt lat="43.9846766833" lon="1.3260593265">
        <ele>90.98</ele>
        <time>2017-07-29T09:49:22Z</time>
      </trkpt>
      <trkpt lat="43.9846255537" lon="1.3259586599">
        <ele>90.98</ele>
        <time>2017-07-29T09:49:31Z</time>
      </trkpt>
      <trkpt lat="43.9846249670" lon="1.3259548042">
        <ele>90.98</ele>
        <time>2017-07-29T09:49:46Z</time>
      </trkpt>
      <trkpt lat="43.9846263919" lon="1.3259512000">
        <ele>90.50</ele>
        <time>2017-07-29T09:50:12Z</time>
      </trkpt>
      <trkpt lat="43.9846219495" lon="1.3259553071">
        <ele>90.98</ele>
        <time>2017-07-29T09:50:34Z</time>
      </trkpt>
      <trkpt lat="43.9846104663" lon="1.3259453326">
        <ele>90.50</ele>
        <time>2017-07-29T09:50:41Z</time>
      </trkpt>
      <trkpt lat="43.9845983963" lon="1.3259313349">
        <ele>90.50</ele>
        <time>2017-07-29T09:50:42Z</time>
      </trkpt>
      <trkpt lat="43.9845849015" lon="1.3259169180">
        <ele>90.50</ele>
        <time>2017-07-29T09:50:43Z</time>
      </trkpt>
      <trkpt lat="43.9844931196" lon="1.3257717434">
        <ele>90.98</ele>
        <time>2017-07-29T09:50:49Z</time>
      </trkpt>
      <trkpt lat="43.9844003320" lon="1.3256343640">
        <ele>91.46</ele>
        <time>2017-07-29T09:50:55Z</time>
      </trkpt>
      <trkpt lat="43.9842269942" lon="1.3253513910">
        <ele>94.35</ele>
        <time>2017-07-29T09:51:07Z</time>
      </trkpt>
      <trkpt lat="43.9840918779" lon="1.3251798134">
        <ele>97.23</ele>
        <time>2017-07-29T09:51:17Z</time>
      </trkpt>
      <trkpt lat="43.9840910397" lon="1.3251738623">
        <ele>97.23</ele>
        <time>2017-07-29T09:51:24Z</time>
      </trkpt>
      <trkpt lat="43.9840767905" lon="1.3251586910">
        <ele>97.71</ele>
        <time>2017-07-29T09:51:26Z</time>
      </trkpt>
      <trkpt lat="43.9839797281" lon="1.3250812422">
        <ele>98.19</ele>
        <time>2017-07-29T09:51:32Z</time>
      </trkpt>
      <trkpt lat="43.9838655666" lon="1.3248496503">
        <ele>98.67</ele>
        <time>2017-07-29T09:51:41Z</time>
      </trkpt>
      <trkpt lat="43.9838070609" lon="1.3247836847">
        <ele>98.67</ele>
        <time>2017-07-29T09:51:44Z</time>
      </trkpt>
      <trkpt lat="43.9836773090" lon="1.3246637397">
        <ele>98.67</ele>
        <time>2017-07-29T09:51:50Z</time>
      </trkpt>
      <trkpt lat="43.9836219046" lon="1.3245778251">
        <ele>99.15</ele>
        <time>2017-07-29T09:51:53Z</time>
      </trkpt>
      <trkpt lat="43.9834356587" lon="1.3243658468">
        <ele>98.67</ele>
        <time>2017-07-29T09:52:01Z</time>
      </trkpt>
      <trkpt lat="43.9831603132" lon="1.3240111247">
        <ele>98.67</ele>
        <time>2017-07-29T09:52:10Z</time>
      </trkpt>
      <trkpt lat="43.9828321617" lon="1.3236106373">
        <ele>98.19</ele>
        <time>2017-07-29T09:52:19Z</time>
      </trkpt>
      <trkpt lat="43.9823781140" lon="1.3230248261">
        <ele>98.19</ele>
        <time>2017-07-29T09:52:31Z</time>
      </trkpt>
      <trkpt lat="43.9820493758" lon="1.3225100096">
        <ele>98.19</ele>
        <time>2017-07-29T09:52:41Z</time>
      </trkpt>
      <trkpt lat="43.9816441108" lon="1.3217755035">
        <ele>97.71</ele>
        <time>2017-07-29T09:52:54Z</time>
      </trkpt>
      <trkpt lat="43.9815078210" lon="1.3214487769">
        <ele>97.71</ele>
        <time>2017-07-29T09:52:59Z</time>
      </trkpt>
      <trkpt lat="43.9813630655" lon="1.3209669851">
        <ele>97.71</ele>
        <time>2017-07-29T09:53:06Z</time>
      </trkpt>
      <trkpt lat="43.9813348185" lon="1.3209016062">
        <ele>97.71</ele>
        <time>2017-07-29T09:53:07Z</time>
      </trkpt>
      <trkpt lat="43.9813030511" lon="1.3208406698">
        <ele>97.71</ele>
        <time>2017-07-29T09:53:08Z</time>
      </trkpt>
      <trkpt lat="43.9811384305" lon="1.3205633126">
        <ele>98.19</ele>
        <time>2017-07-29T09:53:13Z</time>
      </trkpt>
      <trkpt lat="43.9809723012" lon="1.3202969357">
        <ele>98.19</ele>
        <time>2017-07-29T09:53:18Z</time>
      </trkpt>
      <trkpt lat="43.9809360914" lon="1.3202489074">
        <ele>98.19</ele>
        <time>2017-07-29T09:53:19Z</time>
      </trkpt>
      <trkpt lat="43.9808635041" lon="1.3201527670">
        <ele>98.19</ele>
        <time>2017-07-29T09:53:21Z</time>
      </trkpt>
      <trkpt lat="43.9808324911" lon="1.3201029785">
        <ele>98.19</ele>
        <time>2017-07-29T09:53:22Z</time>
      </trkpt>
      <trkpt lat="43.9808011428" lon="1.3200502563">
        <ele>98.19</ele>
        <time>2017-07-29T09:53:23Z</time>
      </trkpt>
      <trkpt lat="43.9807683695" lon="1.3200007193">
        <ele>98.19</ele>
        <time>2017-07-29T09:53:24Z</time>
      </trkpt>
      <trkpt lat="43.9807355963" lon="1.3199557085">
        <ele>98.67</ele>
        <time>2017-07-29T09:53:25Z</time>
      </trkpt>
      <trkpt lat="43.9806750789" lon="1.3198602386">
        <ele>98.67</ele>
        <time>2017-07-29T09:53:27Z</time>
      </trkpt>
      <trkpt lat="43.9803149924" lon="1.3192566577">
        <ele>99.15</ele>
        <time>2017-07-29T09:53:39Z</time>
      </trkpt>
      <trkpt lat="43.9798120782" lon="1.3184469659">
        <ele>99.15</ele>
        <time>2017-07-29T09:53:53Z</time>
      </trkpt>
      <trkpt lat="43.9794488903" lon="1.3179137092">
        <ele>98.19</ele>
        <time>2017-07-29T09:54:03Z</time>
      </trkpt>
      <trkpt lat="43.9793509059" lon="1.3177796826">
        <ele>98.19</ele>
        <time>2017-07-29T09:54:06Z</time>
      </trkpt>
      <trkpt lat="43.9793304540" lon="1.3177325763">
        <ele>97.71</ele>
        <time>2017-07-29T09:54:07Z</time>
      </trkpt>
      <trkpt lat="43.9793214016" lon="1.3176825363">
        <ele>97.71</ele>
        <time>2017-07-29T09:54:08Z</time>
      </trkpt>
      <trkpt lat="43.9793240000" lon="1.3176309876">
        <ele>97.71</ele>
        <time>2017-07-29T09:54:09Z</time>
      </trkpt>
      <trkpt lat="43.9793317113" lon="1.3175836299">
        <ele>97.71</ele>
        <time>2017-07-29T09:54:10Z</time>
      </trkpt>
      <trkpt lat="43.9793275204" lon="1.3174356893">
        <ele>98.19</ele>
        <time>2017-07-29T09:54:13Z</time>
      </trkpt>
      <trkpt lat="43.9793015365" lon="1.3173945341">
        <ele>97.71</ele>
        <time>2017-07-29T09:54:14Z</time>
      </trkpt>
      <trkpt lat="43.9792665839" lon="1.3173646107">
        <ele>97.71</ele>
        <time>2017-07-29T09:54:15Z</time>
      </trkpt>
      <trkpt lat="43.9789213333" lon="1.3170420751">
        <ele>99.15</ele>
        <time>2017-07-29T09:54:26Z</time>
      </trkpt>
      <trkpt lat="43.9785351790" lon="1.3163964171">
        <ele>98.67</ele>
        <time>2017-07-29T09:54:39Z</time>
      </trkpt>
      <trkpt lat="43.9781009965" lon="1.3157194946">
        <ele>98.19</ele>
        <time>2017-07-29T09:54:52Z</time>
      </trkpt>
      <trkpt lat="43.9776229765" lon="1.3150569052">
        <ele>98.19</ele>
        <time>2017-07-29T09:55:05Z</time>
      </trkpt>
      <trkpt lat="43.9773129299" lon="1.3147875946">
        <ele>98.19</ele>
        <time>2017-07-29T09:55:12Z</time>
      </trkpt>
      <trkpt lat="43.9772729483" lon="1.3147374708">
        <ele>98.19</ele>
        <time>2017-07-29T09:55:13Z</time>
      </trkpt>
      <trkpt lat="43.9769280329" lon="1.3141490612">
        <ele>98.19</ele>
        <time>2017-07-29T09:55:23Z</time>
      </trkpt>
      <trkpt lat="43.9768928289" lon="1.3140918128">
        <ele>98.19</ele>
        <time>2017-07-29T09:55:24Z</time>
      </trkpt>
      <trkpt lat="43.9764480852" lon="1.3133369386">
        <ele>98.19</ele>
        <time>2017-07-29T09:55:37Z</time>
      </trkpt>
      <trkpt lat="43.9760425687" lon="1.3124270830">
        <ele>98.67</ele>
        <time>2017-07-29T09:55:51Z</time>
      </trkpt>
      <trkpt lat="43.9758176822" lon="1.3116459735">
        <ele>99.15</ele>
        <time>2017-07-29T09:56:03Z</time>
      </trkpt>
      <trkpt lat="43.9757799637" lon="1.3113348372">
        <ele>99.63</ele>
        <time>2017-07-29T09:56:08Z</time>
      </trkpt>
      <trkpt lat="43.9757594280" lon="1.3112814445">
        <ele>99.63</ele>
        <time>2017-07-29T09:56:09Z</time>
      </trkpt>
      <trkpt lat="43.9757282473" lon="1.3112371042">
        <ele>99.15</ele>
        <time>2017-07-29T09:56:10Z</time>
      </trkpt>
      <trkpt lat="43.9756909478" lon="1.3112038281">
        <ele>98.19</ele>
        <time>2017-07-29T09:56:11Z</time>
      </trkpt>
      <trkpt lat="43.9756495412" lon="1.3111841306">
        <ele>99.63</ele>
        <time>2017-07-29T09:56:12Z</time>
      </trkpt>
      <trkpt lat="43.9756048657" lon="1.3111782633">
        <ele>98.19</ele>
        <time>2017-07-29T09:56:13Z</time>
      </trkpt>
      <trkpt lat="43.9755591005" lon="1.3111756649">
        <ele>101.56</ele>
        <time>2017-07-29T09:56:14Z</time>
      </trkpt>
      <trkpt lat="43.9755119104" lon="1.3111792691">
        <ele>99.15</ele>
        <time>2017-07-29T09:56:15Z</time>
      </trkpt>
      <trkpt lat="43.9753706753" lon="1.3112047501">
        <ele>93.87</ele>
        <time>2017-07-29T09:56:18Z</time>
      </trkpt>
      <trkpt lat="43.9753234852" lon="1.3112135511">
        <ele>103.48</ele>
        <time>2017-07-29T09:56:19Z</time>
      </trkpt>
      <trkpt lat="43.9752756245" lon="1.3112224359">
        <ele>99.15</ele>
        <time>2017-07-29T09:56:20Z</time>
      </trkpt>
      <trkpt lat="43.9752290212" lon="1.3112267945">
        <ele>99.15</ele>
        <time>2017-07-29T09:56:21Z</time>
      </trkpt>
      <trkpt lat="43.9751832560" lon="1.3112298958">
        <ele>98.19</ele>
        <time>2017-07-29T09:56:22Z</time>
      </trkpt>
      <trkpt lat="43.9749945793" lon="1.3112566341">
        <ele>100.60</ele>
        <time>2017-07-29T09:56:26Z</time>
      </trkpt>
      <trkpt lat="43.9743823651" lon="1.3113416266">
        <ele>98.67</ele>
        <time>2017-07-29T09:56:39Z</time>
      </trkpt>
      <trkpt lat="43.9738296624" lon="1.3114650920">
        <ele>99.15</ele>
        <time>2017-07-29T09:56:51Z</time>
      </trkpt>
      <trkpt lat="43.9732285962" lon="1.3116142899">
        <ele>98.67</ele>
        <time>2017-07-29T09:57:03Z</time>
      </trkpt>
      <trkpt lat="43.9730773866" lon="1.3116273656">
        <ele>99.63</ele>
        <time>2017-07-29T09:57:06Z</time>
      </trkpt>
      <trkpt lat="43.9730281848" lon="1.3116213307">
        <ele>99.15</ele>
        <time>2017-07-29T09:57:07Z</time>
      </trkpt>
      <trkpt lat="43.9729840960" lon="1.3116018008">
        <ele>100.11</ele>
        <time>2017-07-29T09:57:08Z</time>
      </trkpt>
      <trkpt lat="43.9729455393" lon="1.3115696982">
        <ele>99.63</ele>
        <time>2017-07-29T09:57:09Z</time>
      </trkpt>
      <trkpt lat="43.9729167894" lon="1.3115262799">
        <ele>99.15</ele>
        <time>2017-07-29T09:57:10Z</time>
      </trkpt>
      <trkpt lat="43.9728965051" lon="1.3114752341">
        <ele>99.15</ele>
        <time>2017-07-29T09:57:11Z</time>
      </trkpt>
      <trkpt lat="43.9728851896" lon="1.3114197459">
        <ele>99.15</ele>
        <time>2017-07-29T09:57:12Z</time>
      </trkpt>
      <trkpt lat="43.9728780650" lon="1.3113626651">
        <ele>99.15</ele>
        <time>2017-07-29T09:57:13Z</time>
      </trkpt>
      <trkpt lat="43.9728516620" lon="1.3112329971">
        <ele>99.15</ele>
        <time>2017-07-29T09:57:17Z</time>
      </trkpt>
      <trkpt lat="43.9728410169" lon="1.3112246990">
        <ele>99.63</ele>
        <time>2017-07-29T09:57:18Z</time>
      </trkpt>
      <trkpt lat="43.9728270192" lon="1.3112275489">
        <ele>99.63</ele>
        <time>2017-07-29T09:57:19Z</time>
      </trkpt>
      <trkpt lat="43.9726716187" lon="1.3112674467">
        <ele>99.63</ele>
        <time>2017-07-29T09:57:27Z</time>
      </trkpt>
      <trkpt lat="43.9723677747" lon="1.3112261239">
        <ele>100.60</ele>
        <time>2017-07-29T09:57:37Z</time>
      </trkpt>
      <trkpt lat="43.9719731547" lon="1.3111666963">
        <ele>100.60</ele>
        <time>2017-07-29T09:57:48Z</time>
      </trkpt>
      <trkpt lat="43.9718533773" lon="1.3111414667">
        <ele>100.60</ele>
        <time>2017-07-29T09:57:51Z</time>
      </trkpt>
      <trkpt lat="43.9714724198" lon="1.3108771853">
        <ele>101.08</ele>
        <time>2017-07-29T09:58:02Z</time>
      </trkpt>
      <trkpt lat="43.9713805541" lon="1.3107787818">
        <ele>101.56</ele>
        <time>2017-07-29T09:58:05Z</time>
      </trkpt>
      <trkpt lat="43.9713167679" lon="1.3107021712">
        <ele>101.56</ele>
        <time>2017-07-29T09:58:07Z</time>
      </trkpt>
      <trkpt lat="43.9708653186" lon="1.3101792242">
        <ele>101.56</ele>
        <time>2017-07-29T09:58:20Z</time>
      </trkpt>
      <trkpt lat="43.9704712015" lon="1.3096768130">
        <ele>101.08</ele>
        <time>2017-07-29T09:58:32Z</time>
      </trkpt>
      <trkpt lat="43.9699940197" lon="1.3090596534">
        <ele>102.04</ele>
        <time>2017-07-29T09:58:46Z</time>
      </trkpt>
      <trkpt lat="43.9697835501" lon="1.3087720703">
        <ele>101.56</ele>
        <time>2017-07-29T09:58:52Z</time>
      </trkpt>
      <trkpt lat="43.9693278261" lon="1.3081337884">
        <ele>102.04</ele>
        <time>2017-07-29T09:59:05Z</time>
      </trkpt>
      <trkpt lat="43.9691948052" lon="1.3079504762">
        <ele>102.04</ele>
        <time>2017-07-29T09:59:09Z</time>
      </trkpt>
      <trkpt lat="43.9690948091" lon="1.3078169525">
        <ele>102.52</ele>
        <time>2017-07-29T09:59:12Z</time>
      </trkpt>
      <trkpt lat="43.9690596052" lon="1.3077722769">
        <ele>102.04</ele>
        <time>2017-07-29T09:59:13Z</time>
      </trkpt>
      <trkpt lat="43.9689585194" lon="1.3076300360">
        <ele>102.04</ele>
        <time>2017-07-29T09:59:16Z</time>
      </trkpt>
      <trkpt lat="43.9689275064" lon="1.3075797446">
        <ele>102.04</ele>
        <time>2017-07-29T09:59:17Z</time>
      </trkpt>
      <trkpt lat="43.9684597123" lon="1.3069254532">
        <ele>102.04</ele>
        <time>2017-07-29T09:59:30Z</time>
      </trkpt>
      <trkpt lat="43.9682088420" lon="1.3064324297">
        <ele>102.52</ele>
        <time>2017-07-29T09:59:40Z</time>
      </trkpt>
      <trkpt lat="43.9681941736" lon="1.3064069487">
        <ele>98.19</ele>
        <time>2017-07-29T09:59:41Z</time>
      </trkpt>
      <trkpt lat="43.9681795053" lon="1.3063852396">
        <ele>103.96</ele>
        <time>2017-07-29T09:59:42Z</time>
      </trkpt>
      <trkpt lat="43.9681186527" lon="1.3063460961">
        <ele>102.52</ele>
        <time>2017-07-29T09:59:46Z</time>
      </trkpt>
      <trkpt lat="43.9681002963" lon="1.3063644525">
        <ele>102.52</ele>
        <time>2017-07-29T09:59:47Z</time>
      </trkpt>
      <trkpt lat="43.9680873882" lon="1.3063958008">
        <ele>102.04</ele>
        <time>2017-07-29T09:59:48Z</time>
      </trkpt>
      <trkpt lat="43.9680845384" lon="1.3064391352">
        <ele>102.52</ele>
        <time>2017-07-29T09:59:49Z</time>
      </trkpt>
      <trkpt lat="43.9680858795" lon="1.3064847328">
        <ele>102.04</ele>
        <time>2017-07-29T09:59:50Z</time>
      </trkpt>
      <trkpt lat="43.9680871367" lon="1.3065330964">
        <ele>102.52</ele>
        <time>2017-07-29T09:59:51Z</time>
      </trkpt>
      <trkpt lat="43.9680888131" lon="1.3065824658">
        <ele>102.52</ele>
        <time>2017-07-29T09:59:52Z</time>
      </trkpt>
      <trkpt lat="43.9680913277" lon="1.3066303264">
        <ele>102.52</ele>
        <time>2017-07-29T09:59:53Z</time>
      </trkpt>
      <trkpt lat="43.9680793416" lon="1.3067063503">
        <ele>102.52</ele>
        <time>2017-07-29T09:59:55Z</time>
      </trkpt>
      <trkpt lat="43.9680558722" lon="1.3067211024">
        <ele>102.52</ele>
        <time>2017-07-29T09:59:56Z</time>
      </trkpt>
      <trkpt lat="43.9680293854" lon="1.3067072723">
        <ele>102.52</ele>
        <time>2017-07-29T09:59:57Z</time>
      </trkpt>
      <trkpt lat="43.9680080116" lon="1.3066765945">
        <ele>102.52</ele>
        <time>2017-07-29T09:59:58Z</time>
      </trkpt>
      <trkpt lat="43.9679870568" lon="1.3066467550">
        <ele>102.52</ele>
        <time>2017-07-29T09:59:59Z</time>
      </trkpt>
      <trkpt lat="43.9679666050" lon="1.3066172507">
        <ele>102.52</ele>
        <time>2017-07-29T10:00:00Z</time>
      </trkpt>
      <trkpt lat="43.9679460693" lon="1.3065843936">
        <ele>102.52</ele>
        <time>2017-07-29T10:00:01Z</time>
      </trkpt>
      <trkpt lat="43.9676946122" lon="1.3062046934">
        <ele>102.52</ele>
        <time>2017-07-29T10:00:11Z</time>
      </trkpt>
      <trkpt lat="43.9674337674" lon="1.3058366440">
        <ele>102.52</ele>
        <time>2017-07-29T10:00:21Z</time>
      </trkpt>
      <trkpt lat="43.9670335315" lon="1.3052801695">
        <ele>102.52</ele>
        <time>2017-07-29T10:00:34Z</time>
      </trkpt>
      <trkpt lat="43.9666081499" lon="1.3046778459">
        <ele>103.00</ele>
        <time>2017-07-29T10:00:46Z</time>
      </trkpt>
      <trkpt lat="43.9665717725" lon="1.3046270516">
        <ele>102.04</ele>
        <time>2017-07-29T10:00:47Z</time>
      </trkpt>
      <trkpt lat="43.9660870470" lon="1.3039453514">
        <ele>102.04</ele>
        <time>2017-07-29T10:01:00Z</time>
      </trkpt>
      <trkpt lat="43.9656873979" lon="1.3033769745">
        <ele>102.04</ele>
        <time>2017-07-29T10:01:11Z</time>
      </trkpt>
      <trkpt lat="43.9655120485" lon="1.3031336479">
        <ele>102.04</ele>
        <time>2017-07-29T10:01:16Z</time>
      </trkpt>
      <trkpt lat="43.9654381201" lon="1.3030593004">
        <ele>102.04</ele>
        <time>2017-07-29T10:01:18Z</time>
      </trkpt>
      <trkpt lat="43.9654007368" lon="1.3030344062">
        <ele>102.04</ele>
        <time>2017-07-29T10:01:19Z</time>
      </trkpt>
      <trkpt lat="43.9653641917" lon="1.3030178938">
        <ele>102.04</ele>
        <time>2017-07-29T10:01:20Z</time>
      </trkpt>
      <trkpt lat="43.9653316699" lon="1.3030137029">
        <ele>102.04</ele>
        <time>2017-07-29T10:01:21Z</time>
      </trkpt>
      <trkpt lat="43.9653013274" lon="1.3030184805">
        <ele>102.04</ele>
        <time>2017-07-29T10:01:22Z</time>
      </trkpt>
      <trkpt lat="43.9652725775" lon="1.3030294608">
        <ele>102.04</ele>
        <time>2017-07-29T10:01:23Z</time>
      </trkpt>
      <trkpt lat="43.9652464259" lon="1.3030436262">
        <ele>102.04</ele>
        <time>2017-07-29T10:01:24Z</time>
      </trkpt>
      <trkpt lat="43.9650859125" lon="1.3031301275">
        <ele>101.56</ele>
        <time>2017-07-29T10:01:34Z</time>
      </trkpt>
      <trkpt lat="43.9650813024" lon="1.3031298760">
        <ele>101.56</ele>
        <time>2017-07-29T10:01:55Z</time>
      </trkpt>
      <trkpt lat="43.9650731720" lon="1.3031238411">
        <ele>101.56</ele>
        <time>2017-07-29T10:02:17Z</time>
      </trkpt>
      <trkpt lat="43.9650750998" lon="1.3031292055">
        <ele>101.56</ele>
        <time>2017-07-29T10:02:45Z</time>
      </trkpt>
      <trkpt lat="43.9650763571" lon="1.3031307980">
        <ele>101.56</ele>
        <time>2017-07-29T10:03:13Z</time>
      </trkpt>
      <trkpt lat="43.9650761895" lon="1.3031297922">
        <ele>101.56</ele>
        <time>2017-07-29T10:03:32Z</time>
      </trkpt>
      <trkpt lat="43.9650776982" lon="1.3031197339">
        <ele>101.08</ele>
        <time>2017-07-29T10:03:55Z</time>
      </trkpt>
      <trkpt lat="43.9650764409" lon="1.3031158783">
        <ele>101.56</ele>
        <time>2017-07-29T10:04:17Z</time>
      </trkpt>
      <trkpt lat="43.9650763571" lon="1.3031240087">
        <ele>101.08</ele>
        <time>2017-07-29T10:04:38Z</time>
      </trkpt>
      <trkpt lat="43.9650776982" lon="1.3031254336">
        <ele>101.56</ele>
        <time>2017-07-29T10:04:49Z</time>
      </trkpt>
      <trkpt lat="43.9650807157" lon="1.3031284511">
        <ele>101.56</ele>
        <time>2017-07-29T10:05:04Z</time>
      </trkpt>
      <trkpt lat="43.9650502894" lon="1.3031515013">
        <ele>101.08</ele>
        <time>2017-07-29T10:05:07Z</time>
      </trkpt>
      <trkpt lat="43.9647461940" lon="1.3033445366">
        <ele>101.08</ele>
        <time>2017-07-29T10:05:18Z</time>
      </trkpt>
      <trkpt lat="43.9643604588" lon="1.3035529945">
        <ele>101.08</ele>
        <time>2017-07-29T10:05:29Z</time>
      </trkpt>
      <trkpt lat="43.9639713708" lon="1.3036931399">
        <ele>101.08</ele>
        <time>2017-07-29T10:05:42Z</time>
      </trkpt>
      <trkpt lat="43.9636568818" lon="1.3038464449">
        <ele>101.56</ele>
        <time>2017-07-29T10:05:52Z</time>
      </trkpt>
      <trkpt lat="43.9633856434" lon="1.3039605226">
        <ele>102.04</ele>
        <time>2017-07-29T10:06:01Z</time>
      </trkpt>
      <trkpt lat="43.9633506909" lon="1.3039579242">
        <ele>102.04</ele>
        <time>2017-07-29T10:06:03Z</time>
      </trkpt>
      <trkpt lat="43.9633352682" lon="1.3039482851">
        <ele>102.04</ele>
        <time>2017-07-29T10:06:04Z</time>
      </trkpt>
      <trkpt lat="43.9633215219" lon="1.3039328624">
        <ele>102.04</ele>
        <time>2017-07-29T10:06:05Z</time>
      </trkpt>
      <trkpt lat="43.9633107930" lon="1.3039096445">
        <ele>102.04</ele>
        <time>2017-07-29T10:06:06Z</time>
      </trkpt>
      <trkpt lat="43.9632995613" lon="1.3038816489">
        <ele>102.04</ele>
        <time>2017-07-29T10:06:07Z</time>
      </trkpt>
      <trkpt lat="43.9632877428" lon="1.3038505521">
        <ele>102.04</ele>
        <time>2017-07-29T10:06:08Z</time>
      </trkpt>
      <trkpt lat="43.9631372876" lon="1.3037565071">
        <ele>102.52</ele>
        <time>2017-07-29T10:06:15Z</time>
      </trkpt>
      <trkpt lat="43.9629100543" lon="1.3040037733">
        <ele>102.52</ele>
        <time>2017-07-29T10:06:24Z</time>
      </trkpt>
      <trkpt lat="43.9626308531" lon="1.3043098804">
        <ele>103.00</ele>
        <time>2017-07-29T10:06:33Z</time>
      </trkpt>
      <trkpt lat="43.9622609597" lon="1.3046697993">
        <ele>103.96</ele>
        <time>2017-07-29T10:06:44Z</time>
      </trkpt>
      <trkpt lat="43.9619856980" lon="1.3048919197">
        <ele>103.48</ele>
        <time>2017-07-29T10:06:51Z</time>
      </trkpt>
      <trkpt lat="43.9617642481" lon="1.3050056621">
        <ele>103.48</ele>
        <time>2017-07-29T10:06:56Z</time>
      </trkpt>
      <trkpt lat="43.9617189020" lon="1.3050153013">
        <ele>103.48</ele>
        <time>2017-07-29T10:06:57Z</time>
      </trkpt>
      <trkpt lat="43.9616267849" lon="1.3050292991">
        <ele>103.48</ele>
        <time>2017-07-29T10:06:59Z</time>
      </trkpt>
      <trkpt lat="43.9611691330" lon="1.3050319813">
        <ele>103.48</ele>
        <time>2017-07-29T10:07:09Z</time>
      </trkpt>
      <trkpt lat="43.9611243736" lon="1.3050257787">
        <ele>103.00</ele>
        <time>2017-07-29T10:07:10Z</time>
      </trkpt>
      <trkpt lat="43.9610810392" lon="1.3050255273">
        <ele>103.48</ele>
        <time>2017-07-29T10:07:11Z</time>
      </trkpt>
      <trkpt lat="43.9606694877" lon="1.3050038181">
        <ele>103.48</ele>
        <time>2017-07-29T10:07:20Z</time>
      </trkpt>
      <trkpt lat="43.9603042882" lon="1.3049455639">
        <ele>103.00</ele>
        <time>2017-07-29T10:07:30Z</time>
      </trkpt>
      <trkpt lat="43.9602891169" lon="1.3049162272">
        <ele>103.00</ele>
        <time>2017-07-29T10:07:31Z</time>
      </trkpt>
      <trkpt lat="43.9602760412" lon="1.3048797660">
        <ele>103.00</ele>
        <time>2017-07-29T10:07:32Z</time>
      </trkpt>
      <trkpt lat="43.9602658991" lon="1.3048392814">
        <ele>103.48</ele>
        <time>2017-07-29T10:07:33Z</time>
      </trkpt>
      <trkpt lat="43.9602594450" lon="1.3047972880">
        <ele>103.48</ele>
        <time>2017-07-29T10:07:34Z</time>
      </trkpt>
      <trkpt lat="43.9602594450" lon="1.3047505170">
        <ele>103.48</ele>
        <time>2017-07-29T10:07:35Z</time>
      </trkpt>
      <trkpt lat="43.9602642227" lon="1.3047001418">
        <ele>103.48</ele>
        <time>2017-07-29T10:07:36Z</time>
      </trkpt>
      <trkpt lat="43.9602730237" lon="1.3046500180">
        <ele>103.48</ele>
        <time>2017-07-29T10:07:37Z</time>
      </trkpt>
      <trkpt lat="43.9602819085" lon="1.3046060968">
        <ele>103.48</ele>
        <time>2017-07-29T10:07:38Z</time>
      </trkpt>
      <trkpt lat="43.9602872729" lon="1.3044740818">
        <ele>103.48</ele>
        <time>2017-07-29T10:07:42Z</time>
      </trkpt>
      <trkpt lat="43.9602709282" lon="1.3044453319">
        <ele>103.48</ele>
        <time>2017-07-29T10:07:43Z</time>
      </trkpt>
      <trkpt lat="43.9602450281" lon="1.3044236228">
        <ele>103.48</ele>
        <time>2017-07-29T10:07:44Z</time>
      </trkpt>
      <trkpt lat="43.9602152724" lon="1.3044107985">
        <ele>103.00</ele>
        <time>2017-07-29T10:07:45Z</time>
      </trkpt>
      <trkpt lat="43.9601820800" lon="1.3044129778">
        <ele>103.48</ele>
        <time>2017-07-29T10:07:46Z</time>
      </trkpt>
      <trkpt lat="43.9601474628" lon="1.3044184260">
        <ele>103.48</ele>
        <time>2017-07-29T10:07:47Z</time>
      </trkpt>
      <trkpt lat="43.9596332330" lon="1.3044529594">
        <ele>103.48</ele>
        <time>2017-07-29T10:08:00Z</time>
      </trkpt>
      <trkpt lat="43.9594483282" lon="1.3044790272">
        <ele>103.48</ele>
        <time>2017-07-29T10:08:04Z</time>
      </trkpt>
      <trkpt lat="43.9594028983" lon="1.3044873253">
        <ele>103.00</ele>
        <time>2017-07-29T10:08:05Z</time>
      </trkpt>
      <trkpt lat="43.9588120580" lon="1.3045596611">
        <ele>103.00</ele>
        <time>2017-07-29T10:08:18Z</time>
      </trkpt>
      <trkpt lat="43.9587159175" lon="1.3045503572">
        <ele>103.48</ele>
        <time>2017-07-29T10:08:20Z</time>
      </trkpt>
      <trkpt lat="43.9584274963" lon="1.3044799492">
        <ele>103.48</ele>
        <time>2017-07-29T10:08:26Z</time>
      </trkpt>
      <trkpt lat="43.9576517511" lon="1.3041848224">
        <ele>103.96</ele>
        <time>2017-07-29T10:08:42Z</time>
      </trkpt>
      <trkpt lat="43.9570300654" lon="1.3039816450">
        <ele>103.96</ele>
        <time>2017-07-29T10:08:54Z</time>
      </trkpt>
      <trkpt lat="43.9563782047" lon="1.3038414158">
        <ele>103.96</ele>
        <time>2017-07-29T10:09:06Z</time>
      </trkpt>
      <trkpt lat="43.9555818401" lon="1.3035740331">
        <ele>103.96</ele>
        <time>2017-07-29T10:09:21Z</time>
      </trkpt>
      <trkpt lat="43.9548607450" lon="1.3031659182">
        <ele>103.96</ele>
        <time>2017-07-29T10:09:35Z</time>
      </trkpt>
      <trkpt lat="43.9541889355" lon="1.3029207475">
        <ele>104.44</ele>
        <time>2017-07-29T10:09:48Z</time>
      </trkpt>
      <trkpt lat="43.9540895261" lon="1.3028932549">
        <ele>104.44</ele>
        <time>2017-07-29T10:09:50Z</time>
      </trkpt>
      <trkpt lat="43.9537337981" lon="1.3027943484">
        <ele>104.44</ele>
        <time>2017-07-29T10:09:57Z</time>
      </trkpt>
      <trkpt lat="43.9530839492" lon="1.3026977051">
        <ele>104.92</ele>
        <time>2017-07-29T10:10:10Z</time>
      </trkpt>
      <trkpt lat="43.9528752398" lon="1.3027163967">
        <ele>104.92</ele>
        <time>2017-07-29T10:10:15Z</time>
      </trkpt>
      <trkpt lat="43.9523221180" lon="1.3028275408">
        <ele>105.40</ele>
        <time>2017-07-29T10:10:27Z</time>
      </trkpt>
      <trkpt lat="43.9517025277" lon="1.3030586299">
        <ele>105.40</ele>
        <time>2017-07-29T10:10:40Z</time>
      </trkpt>
      <trkpt lat="43.9509997051" lon="1.3033625577">
        <ele>105.40</ele>
        <time>2017-07-29T10:10:55Z</time>
      </trkpt>
      <trkpt lat="43.9509528503" lon="1.3033845183">
        <ele>105.40</ele>
        <time>2017-07-29T10:10:56Z</time>
      </trkpt>
      <trkpt lat="43.9503435697" lon="1.3036815729">
        <ele>105.40</ele>
        <time>2017-07-29T10:11:09Z</time>
      </trkpt>
      <trkpt lat="43.9498290885" lon="1.3038957305">
        <ele>105.40</ele>
        <time>2017-07-29T10:11:20Z</time>
      </trkpt>
      <trkpt lat="43.9493705146" lon="1.3040549029">
        <ele>105.40</ele>
        <time>2017-07-29T10:11:31Z</time>
      </trkpt>
      <trkpt lat="43.9493403398" lon="1.3040253986">
        <ele>105.40</ele>
        <time>2017-07-29T10:11:32Z</time>
      </trkpt>
      <trkpt lat="43.9493152779" lon="1.3039849978">
        <ele>105.40</ele>
        <time>2017-07-29T10:11:33Z</time>
      </trkpt>
      <trkpt lat="43.9492945746" lon="1.3039376400">
        <ele>105.40</ele>
        <time>2017-07-29T10:11:34Z</time>
      </trkpt>
      <trkpt lat="43.9492798224" lon="1.3038855884">
        <ele>105.40</ele>
        <time>2017-07-29T10:11:35Z</time>
      </trkpt>
      <trkpt lat="43.9492668305" lon="1.3038306870">
        <ele>105.40</ele>
        <time>2017-07-29T10:11:36Z</time>
      </trkpt>
      <trkpt lat="43.9490605518" lon="1.3030228391">
        <ele>105.40</ele>
        <time>2017-07-29T10:11:49Z</time>
      </trkpt>
      <trkpt lat="43.9490124397" lon="1.3028472383">
        <ele>106.36</ele>
        <time>2017-07-29T10:11:52Z</time>
      </trkpt>
      <trkpt lat="43.9489585441" lon="1.3026187476">
        <ele>105.40</ele>
        <time>2017-07-29T10:11:56Z</time>
      </trkpt>
      <trkpt lat="43.9489399362" lon="1.3025629241">
        <ele>106.84</ele>
        <time>2017-07-29T10:11:57Z</time>
      </trkpt>
      <trkpt lat="43.9489251003" lon="1.3025068492">
        <ele>106.84</ele>
        <time>2017-07-29T10:11:58Z</time>
      </trkpt>
      <trkpt lat="43.9488729648" lon="1.3022859022">
        <ele>110.69</ele>
        <time>2017-07-29T10:12:02Z</time>
      </trkpt>
      <trkpt lat="43.9488620684" lon="1.3022278156">
        <ele>106.84</ele>
        <time>2017-07-29T10:12:03Z</time>
      </trkpt>
      <trkpt lat="43.9487709571" lon="1.3018228859">
        <ele>107.81</ele>
        <time>2017-07-29T10:12:10Z</time>
      </trkpt>
      <trkpt lat="43.9486671053" lon="1.3013208099">
        <ele>107.32</ele>
        <time>2017-07-29T10:12:18Z</time>
      </trkpt>
      <trkpt lat="43.9485143870" lon="1.3007131219">
        <ele>107.32</ele>
        <time>2017-07-29T10:12:28Z</time>
      </trkpt>
      <trkpt lat="43.9485034067" lon="1.3006527722">
        <ele>107.32</ele>
        <time>2017-07-29T10:12:29Z</time>
      </trkpt>
      <trkpt lat="43.9484593179" lon="1.3004659396">
        <ele>107.32</ele>
        <time>2017-07-29T10:12:32Z</time>
      </trkpt>
      <trkpt lat="43.9484486729" lon="1.3004037458">
        <ele>107.32</ele>
        <time>2017-07-29T10:12:33Z</time>
      </trkpt>
      <trkpt lat="43.9484376088" lon="1.3003407139">
        <ele>107.32</ele>
        <time>2017-07-29T10:12:34Z</time>
      </trkpt>
      <trkpt lat="43.9482142311" lon="1.2995797209">
        <ele>107.32</ele>
        <time>2017-07-29T10:12:46Z</time>
      </trkpt>
      <trkpt lat="43.9481418114" lon="1.2994182855">
        <ele>107.32</ele>
        <time>2017-07-29T10:12:49Z</time>
      </trkpt>
      <trkpt lat="43.9481240418" lon="1.2993653957">
        <ele>107.32</ele>
        <time>2017-07-29T10:12:50Z</time>
      </trkpt>
      <trkpt lat="43.9480794501" lon="1.2992644776">
        <ele>107.32</ele>
        <time>2017-07-29T10:12:52Z</time>
      </trkpt>
      <trkpt lat="43.9479715750" lon="1.2990968395">
        <ele>107.81</ele>
        <time>2017-07-29T10:12:56Z</time>
      </trkpt>
      <trkpt lat="43.9479174279" lon="1.2990079075">
        <ele>107.32</ele>
        <time>2017-07-29T10:12:58Z</time>
      </trkpt>
      <trkpt lat="43.9478875045" lon="1.2989626452">
        <ele>107.32</ele>
        <time>2017-07-29T10:12:59Z</time>
      </trkpt>
      <trkpt lat="43.9475084748" lon="1.2983260397">
        <ele>107.32</ele>
        <time>2017-07-29T10:13:11Z</time>
      </trkpt>
      <trkpt lat="43.9470623061" lon="1.2975303456">
        <ele>107.32</ele>
        <time>2017-07-29T10:13:26Z</time>
      </trkpt>
      <trkpt lat="43.9469694346" lon="1.2973826565">
        <ele>107.32</ele>
        <time>2017-07-29T10:13:29Z</time>
      </trkpt>
      <trkpt lat="43.9469437022" lon="1.2973272521">
        <ele>107.81</ele>
        <time>2017-07-29T10:13:30Z</time>
      </trkpt>
      <trkpt lat="43.9468511660" lon="1.2971638888">
        <ele>107.32</ele>
        <time>2017-07-29T10:13:33Z</time>
      </trkpt>
      <trkpt lat="43.9468213264" lon="1.2971073110">
        <ele>107.81</ele>
        <time>2017-07-29T10:13:34Z</time>
      </trkpt>
      <trkpt lat="43.9464399498" lon="1.2963777501">
        <ele>107.81</ele>
        <time>2017-07-29T10:13:47Z</time>
      </trkpt>
      <trkpt lat="43.9461335912" lon="1.2956548948">
        <ele>109.73</ele>
        <time>2017-07-29T10:14:02Z</time>
      </trkpt>
      <trkpt lat="43.9459830523" lon="1.2952950597">
        <ele>111.17</ele>
        <time>2017-07-29T10:14:12Z</time>
      </trkpt>
      <trkpt lat="43.9458336029" lon="1.2949522398">
        <ele>113.09</ele>
        <time>2017-07-29T10:14:22Z</time>
      </trkpt>
      <trkpt lat="43.9456634503" lon="1.2945659179">
        <ele>114.53</ele>
        <time>2017-07-29T10:14:33Z</time>
      </trkpt>
      <trkpt lat="43.9455099776" lon="1.2941825297">
        <ele>116.46</ele>
        <time>2017-07-29T10:14:44Z</time>
      </trkpt>
      <trkpt lat="43.9453448541" lon="1.2937823776">
        <ele>116.94</ele>
        <time>2017-07-29T10:14:54Z</time>
      </trkpt>
      <trkpt lat="43.9451139327" lon="1.2932378892">
        <ele>116.46</ele>
        <time>2017-07-29T10:15:06Z</time>
      </trkpt>
      <trkpt lat="43.9449359849" lon="1.2928037066">
        <ele>115.50</ele>
        <time>2017-07-29T10:15:13Z</time>
      </trkpt>
      <trkpt lat="43.9446172211" lon="1.2920386903">
        <ele>112.61</ele>
        <time>2017-07-29T10:15:23Z</time>
      </trkpt>
      <trkpt lat="43.9442935120" lon="1.2909781281">
        <ele>109.73</ele>
        <time>2017-07-29T10:15:34Z</time>
      </trkpt>
      <trkpt lat="43.9440841321" lon="1.2900590524">
        <ele>109.25</ele>
        <time>2017-07-29T10:15:44Z</time>
      </trkpt>
      <trkpt lat="43.9438884147" lon="1.2891905196">
        <ele>108.77</ele>
        <time>2017-07-29T10:15:55Z</time>
      </trkpt>
      <trkpt lat="43.9436923619" lon="1.2882784009">
        <ele>108.77</ele>
        <time>2017-07-29T10:16:07Z</time>
      </trkpt>
      <trkpt lat="43.9436250553" lon="1.2879820168">
        <ele>108.77</ele>
        <time>2017-07-29T10:16:11Z</time>
      </trkpt>
      <trkpt lat="43.9436068665" lon="1.2879107706">
        <ele>108.77</ele>
        <time>2017-07-29T10:16:12Z</time>
      </trkpt>
      <trkpt lat="43.9435873367" lon="1.2878383510">
        <ele>108.77</ele>
        <time>2017-07-29T10:16:13Z</time>
      </trkpt>
      <trkpt lat="43.9434637874" lon="1.2872502767">
        <ele>109.73</ele>
        <time>2017-07-29T10:16:22Z</time>
      </trkpt>
      <trkpt lat="43.9433283359" lon="1.2866333686">
        <ele>110.21</ele>
        <time>2017-07-29T10:16:32Z</time>
      </trkpt>
      <trkpt lat="43.9432140067" lon="1.2861401774">
        <ele>109.25</ele>
        <time>2017-07-29T10:16:38Z</time>
      </trkpt>
      <trkpt lat="43.9431982487" lon="1.2860531732">
        <ele>109.25</ele>
        <time>2017-07-29T10:16:39Z</time>
      </trkpt>
      <trkpt lat="43.9431072213" lon="1.2856448069">
        <ele>108.77</ele>
        <time>2017-07-29T10:16:44Z</time>
      </trkpt>
      <trkpt lat="43.9429335482" lon="1.2848553155">
        <ele>108.77</ele>
        <time>2017-07-29T10:16:54Z</time>
      </trkpt>
      <trkpt lat="43.9427514933" lon="1.2840012833">
        <ele>109.73</ele>
        <time>2017-07-29T10:17:04Z</time>
      </trkpt>
      <trkpt lat="43.9425556920" lon="1.2831140589">
        <ele>110.21</ele>
        <time>2017-07-29T10:17:16Z</time>
      </trkpt>
      <trkpt lat="43.9425389282" lon="1.2830469199">
        <ele>110.21</ele>
        <time>2017-07-29T10:17:17Z</time>
      </trkpt>
      <trkpt lat="43.9423838630" lon="1.2823521439">
        <ele>111.65</ele>
        <time>2017-07-29T10:17:28Z</time>
      </trkpt>
      <trkpt lat="43.9422557876" lon="1.2817337271">
        <ele>113.09</ele>
        <time>2017-07-29T10:17:40Z</time>
      </trkpt>
      <trkpt lat="43.9421412908" lon="1.2812086847">
        <ele>113.09</ele>
        <time>2017-07-29T10:17:50Z</time>
      </trkpt>
      <trkpt lat="43.9421262033" lon="1.2811539508">
        <ele>113.57</ele>
        <time>2017-07-29T10:17:51Z</time>
      </trkpt>
      <trkpt lat="43.9421109483" lon="1.2810976245">
        <ele>113.57</ele>
        <time>2017-07-29T10:17:52Z</time>
      </trkpt>
      <trkpt lat="43.9419861417" lon="1.2804600969">
        <ele>113.09</ele>
        <time>2017-07-29T10:18:03Z</time>
      </trkpt>
      <trkpt lat="43.9418447390" lon="1.2798477150">
        <ele>113.57</ele>
        <time>2017-07-29T10:18:13Z</time>
      </trkpt>
      <trkpt lat="43.9418342616" lon="1.2797886226">
        <ele>113.57</ele>
        <time>2017-07-29T10:18:14Z</time>
      </trkpt>
      <trkpt lat="43.9417901728" lon="1.2795610540">
        <ele>114.05</ele>
        <time>2017-07-29T10:18:18Z</time>
      </trkpt>
      <trkpt lat="43.9417373668" lon="1.2793283723">
        <ele>113.57</ele>
        <time>2017-07-29T10:18:22Z</time>
      </trkpt>
      <trkpt lat="43.9417269733" lon="1.2792719621">
        <ele>113.57</ele>
        <time>2017-07-29T10:18:23Z</time>
      </trkpt>
      <trkpt lat="43.9416684676" lon="1.2789854687">
        <ele>114.05</ele>
        <time>2017-07-29T10:18:28Z</time>
      </trkpt>
      <trkpt lat="43.9416577388" lon="1.2789267953">
        <ele>113.57</ele>
        <time>2017-07-29T10:18:29Z</time>
      </trkpt>
      <trkpt lat="43.9415216167" lon="1.2782992423">
        <ele>114.05</ele>
        <time>2017-07-29T10:18:39Z</time>
      </trkpt>
      <trkpt lat="43.9413539786" lon="1.2775716931">
        <ele>114.05</ele>
        <time>2017-07-29T10:18:50Z</time>
      </trkpt>
      <trkpt lat="43.9411862567" lon="1.2767812796">
        <ele>114.05</ele>
        <time>2017-07-29T10:19:02Z</time>
      </trkpt>
      <trkpt lat="43.9410751965" lon="1.2764378730">
        <ele>114.05</ele>
        <time>2017-07-29T10:19:08Z</time>
      </trkpt>
      <trkpt lat="43.9410207141" lon="1.2760879286">
        <ele>114.05</ele>
        <time>2017-07-29T10:19:16Z</time>
      </trkpt>
      <trkpt lat="43.9410625398" lon="1.2760080490">
        <ele>111.65</ele>
        <time>2017-07-29T10:19:19Z</time>
      </trkpt>
      <trkpt lat="43.9410725143" lon="1.2759730965">
        <ele>112.13</ele>
        <time>2017-07-29T10:19:20Z</time>
      </trkpt>
      <trkpt lat="43.9410769567" lon="1.2759312708">
        <ele>117.42</ele>
        <time>2017-07-29T10:19:21Z</time>
      </trkpt>
      <trkpt lat="43.9410716761" lon="1.2758828234">
        <ele>113.57</ele>
        <time>2017-07-29T10:19:22Z</time>
      </trkpt>
      <trkpt lat="43.9410595223" lon="1.2758349627">
        <ele>113.57</ele>
        <time>2017-07-29T10:19:23Z</time>
      </trkpt>
      <trkpt lat="43.9410403278" lon="1.2757918797">
        <ele>113.57</ele>
        <time>2017-07-29T10:19:24Z</time>
      </trkpt>
      <trkpt lat="43.9410177805" lon="1.2757513113">
        <ele>113.09</ele>
        <time>2017-07-29T10:19:25Z</time>
      </trkpt>
      <trkpt lat="43.9409290999" lon="1.2755700946">
        <ele>113.57</ele>
        <time>2017-07-29T10:19:29Z</time>
      </trkpt>
      <trkpt lat="43.9408434369" lon="1.2752318848">
        <ele>113.09</ele>
        <time>2017-07-29T10:19:35Z</time>
      </trkpt>
      <trkpt lat="43.9408344682" lon="1.2751758099">
        <ele>113.09</ele>
        <time>2017-07-29T10:19:36Z</time>
      </trkpt>
      <trkpt lat="43.9407978393" lon="1.2749928329">
        <ele>113.57</ele>
        <time>2017-07-29T10:19:39Z</time>
      </trkpt>
      <trkpt lat="43.9407830033" lon="1.2749331538">
        <ele>113.57</ele>
        <time>2017-07-29T10:19:40Z</time>
      </trkpt>
      <trkpt lat="43.9407687541" lon="1.2748765759">
        <ele>113.57</ele>
        <time>2017-07-29T10:19:41Z</time>
      </trkpt>
      <trkpt lat="43.9407553431" lon="1.2748183217">
        <ele>113.57</ele>
        <time>2017-07-29T10:19:42Z</time>
      </trkpt>
      <trkpt lat="43.9407435246" lon="1.2747579720">
        <ele>113.57</ele>
        <time>2017-07-29T10:19:43Z</time>
      </trkpt>
      <trkpt lat="43.9405992720" lon="1.2740852404">
        <ele>113.57</ele>
        <time>2017-07-29T10:19:54Z</time>
      </trkpt>
      <trkpt lat="43.9404496551" lon="1.2733889557">
        <ele>113.57</ele>
        <time>2017-07-29T10:20:05Z</time>
      </trkpt>
      <trkpt lat="43.9402919915" lon="1.2726451457">
        <ele>113.57</ele>
        <time>2017-07-29T10:20:16Z</time>
      </trkpt>
      <trkpt lat="43.9401677717" lon="1.2720817979">
        <ele>113.57</ele>
        <time>2017-07-29T10:20:24Z</time>
      </trkpt>
      <trkpt lat="43.9400611538" lon="1.2716002576">
        <ele>113.57</ele>
        <time>2017-07-29T10:20:31Z</time>
      </trkpt>
      <trkpt lat="43.9400487486" lon="1.2715358008">
        <ele>113.57</ele>
        <time>2017-07-29T10:20:32Z</time>
      </trkpt>
      <trkpt lat="43.9400365949" lon="1.2714700028">
        <ele>113.57</ele>
        <time>2017-07-29T10:20:33Z</time>
      </trkpt>
      <trkpt lat="43.9400253631" lon="1.2714029476">
        <ele>113.57</ele>
        <time>2017-07-29T10:20:34Z</time>
      </trkpt>
      <trkpt lat="43.9400124550" lon="1.2713342998">
        <ele>113.57</ele>
        <time>2017-07-29T10:20:35Z</time>
      </trkpt>
      <trkpt lat="43.9398348425" lon="1.2705091853">
        <ele>114.05</ele>
        <time>2017-07-29T10:20:47Z</time>
      </trkpt>
      <trkpt lat="43.9396475907" lon="1.2697585020">
        <ele>114.05</ele>
        <time>2017-07-29T10:20:58Z</time>
      </trkpt>
      <trkpt lat="43.9394213632" lon="1.2691137660">
        <ele>114.05</ele>
        <time>2017-07-29T10:21:08Z</time>
      </trkpt>
      <trkpt lat="43.9394005761" lon="1.2690485548">
        <ele>114.05</ele>
        <time>2017-07-29T10:21:09Z</time>
      </trkpt>
      <trkpt lat="43.9391279966" lon="1.2683088519">
        <ele>114.05</ele>
        <time>2017-07-29T10:21:20Z</time>
      </trkpt>
      <trkpt lat="43.9388285950" lon="1.2674992438">
        <ele>114.53</ele>
        <time>2017-07-29T10:21:32Z</time>
      </trkpt>
      <trkpt lat="43.9385353122" lon="1.2667333055">
        <ele>115.98</ele>
        <time>2017-07-29T10:21:45Z</time>
      </trkpt>
      <trkpt lat="43.9382240083" lon="1.2658936065">
        <ele>114.05</ele>
        <time>2017-07-29T10:21:56Z</time>
      </trkpt>
      <trkpt lat="43.9377557952" lon="1.2645683438">
        <ele>112.61</ele>
        <time>2017-07-29T10:22:10Z</time>
      </trkpt>
      <trkpt lat="43.9373846445" lon="1.2635305803">
        <ele>112.13</ele>
        <time>2017-07-29T10:22:22Z</time>
      </trkpt>
      <trkpt lat="43.9370797947" lon="1.2626959942">
        <ele>111.65</ele>
        <time>2017-07-29T10:22:33Z</time>
      </trkpt>
      <trkpt lat="43.9369717520" lon="1.2624084111">
        <ele>111.65</ele>
        <time>2017-07-29T10:22:37Z</time>
      </trkpt>
      <trkpt lat="43.9367139246" lon="1.2616942730">
        <ele>111.17</ele>
        <time>2017-07-29T10:22:47Z</time>
      </trkpt>
      <trkpt lat="43.9366488811" lon="1.2614935264">
        <ele>111.17</ele>
        <time>2017-07-29T10:22:50Z</time>
      </trkpt>
      <trkpt lat="43.9363720268" lon="1.2607322820">
        <ele>110.69</ele>
        <time>2017-07-29T10:23:01Z</time>
      </trkpt>
      <trkpt lat="43.9360489044" lon="1.2598246057">
        <ele>110.69</ele>
        <time>2017-07-29T10:23:14Z</time>
      </trkpt>
      <trkpt lat="43.9356931765" lon="1.2588414922">
        <ele>110.21</ele>
        <time>2017-07-29T10:23:28Z</time>
      </trkpt>
      <trkpt lat="43.9354184177" lon="1.2580535095">
        <ele>109.25</ele>
        <time>2017-07-29T10:23:38Z</time>
      </trkpt>
      <trkpt lat="43.9353569783" lon="1.2578825187">
        <ele>109.25</ele>
        <time>2017-07-29T10:23:40Z</time>
      </trkpt>
      <trkpt lat="43.9352815412" lon="1.2577158026">
        <ele>108.77</ele>
        <time>2017-07-29T10:23:42Z</time>
      </trkpt>
      <trkpt lat="43.9352407213" lon="1.2576360069">
        <ele>108.29</ele>
        <time>2017-07-29T10:23:43Z</time>
      </trkpt>
      <trkpt lat="43.9352048468" lon="1.2575537805">
        <ele>107.81</ele>
        <time>2017-07-29T10:23:44Z</time>
      </trkpt>
      <trkpt lat="43.9351752587" lon="1.2574682012">
        <ele>107.81</ele>
        <time>2017-07-29T10:23:45Z</time>
      </trkpt>
      <trkpt lat="43.9351496939" lon="1.2573807780">
        <ele>107.81</ele>
        <time>2017-07-29T10:23:46Z</time>
      </trkpt>
      <trkpt lat="43.9348051138" lon="1.2563576829">
        <ele>107.81</ele>
        <time>2017-07-29T10:23:58Z</time>
      </trkpt>
      <trkpt lat="43.9345689956" lon="1.2556313071">
        <ele>108.29</ele>
        <time>2017-07-29T10:24:08Z</time>
      </trkpt>
      <trkpt lat="43.9344198816" lon="1.2551864795">
        <ele>110.21</ele>
        <time>2017-07-29T10:24:18Z</time>
      </trkpt>
      <trkpt lat="43.9343123417" lon="1.2548789475">
        <ele>111.65</ele>
        <time>2017-07-29T10:24:27Z</time>
      </trkpt>
      <trkpt lat="43.9342674986" lon="1.2546225451">
        <ele>112.61</ele>
        <time>2017-07-29T10:24:35Z</time>
      </trkpt>
      <trkpt lat="43.9342434425" lon="1.2544534821">
        <ele>113.09</ele>
        <time>2017-07-29T10:24:45Z</time>
      </trkpt>
      <trkpt lat="43.9342415985" lon="1.2544369698">
        <ele>113.09</ele>
        <time>2017-07-29T10:24:55Z</time>
      </trkpt>
      <trkpt lat="43.9342349768" lon="1.2544456869">
        <ele>112.61</ele>
        <time>2017-07-29T10:25:17Z</time>
      </trkpt>
      <trkpt lat="43.9342498127" lon="1.2544593494">
        <ele>112.61</ele>
        <time>2017-07-29T10:25:44Z</time>
      </trkpt>
      <trkpt lat="43.9342316240" lon="1.2544435915">
        <ele>112.61</ele>
        <time>2017-07-29T10:26:12Z</time>
      </trkpt>
      <trkpt lat="43.9342330489" lon="1.2544290069">
        <ele>112.61</ele>
        <time>2017-07-29T10:26:34Z</time>
      </trkpt>
      <trkpt lat="43.9342404250" lon="1.2544526439">
        <ele>112.13</ele>
        <time>2017-07-29T10:27:01Z</time>
      </trkpt>
      <trkpt lat="43.9342467953" lon="1.2544434238">
        <ele>112.13</ele>
        <time>2017-07-29T10:27:25Z</time>
      </trkpt>
      <trkpt lat="43.9342352282" lon="1.2544354610">
        <ele>112.13</ele>
        <time>2017-07-29T10:27:54Z</time>
      </trkpt>
      <trkpt lat="43.9342347253" lon="1.2544345390">
        <ele>112.13</ele>
        <time>2017-07-29T10:28:14Z</time>
      </trkpt>
      <trkpt lat="43.9342308696" lon="1.2544144224">
        <ele>111.65</ele>
        <time>2017-07-29T10:28:23Z</time>
      </trkpt>
      <trkpt lat="43.9342085738" lon="1.2543506362">
        <ele>112.13</ele>
        <time>2017-07-29T10:28:26Z</time>
      </trkpt>
      <trkpt lat="43.9341608807" lon="1.2542193756">
        <ele>111.65</ele>
        <time>2017-07-29T10:28:31Z</time>
      </trkpt>
      <trkpt lat="43.9341435302" lon="1.2542206328">
        <ele>111.17</ele>
        <time>2017-07-29T10:28:32Z</time>
      </trkpt>
      <trkpt lat="43.9340374153" lon="1.2543038651">
        <ele>110.21</ele>
        <time>2017-07-29T10:28:36Z</time>
      </trkpt>
      <trkpt lat="43.9339946676" lon="1.2543337885">
        <ele>110.21</ele>
        <time>2017-07-29T10:28:37Z</time>
      </trkpt>
      <trkpt lat="43.9338958450" lon="1.2544019334">
        <ele>109.25</ele>
        <time>2017-07-29T10:28:39Z</time>
      </trkpt>
      <trkpt lat="43.9337862097" lon="1.2544622831">
        <ele>108.77</ele>
        <time>2017-07-29T10:28:41Z</time>
      </trkpt>
      <trkpt lat="43.9337303862" lon="1.2544833217">
        <ele>108.77</ele>
        <time>2017-07-29T10:28:42Z</time>
      </trkpt>
      <trkpt lat="43.9333433099" lon="1.2546364591">
        <ele>109.25</ele>
        <time>2017-07-29T10:28:50Z</time>
      </trkpt>
      <trkpt lat="43.9329675492" lon="1.2547778618">
        <ele>108.77</ele>
        <time>2017-07-29T10:29:00Z</time>
      </trkpt>
      <trkpt lat="43.9326326922" lon="1.2549025845">
        <ele>108.29</ele>
        <time>2017-07-29T10:29:09Z</time>
      </trkpt>
      <trkpt lat="43.9322105795" lon="1.2550667860">
        <ele>108.29</ele>
        <time>2017-07-29T10:29:20Z</time>
      </trkpt>
      <trkpt lat="43.9317493234" lon="1.2552503496">
        <ele>108.77</ele>
        <time>2017-07-29T10:29:32Z</time>
      </trkpt>
      <trkpt lat="43.9316292945" lon="1.2552991323">
        <ele>108.77</ele>
        <time>2017-07-29T10:29:35Z</time>
      </trkpt>
      <trkpt lat="43.9315067511" lon="1.2553386949">
        <ele>108.29</ele>
        <time>2017-07-29T10:29:38Z</time>
      </trkpt>
      <trkpt lat="43.9310004842" lon="1.2555426266">
        <ele>108.29</ele>
        <time>2017-07-29T10:29:50Z</time>
      </trkpt>
      <trkpt lat="43.9307761006" lon="1.2556329835">
        <ele>108.77</ele>
        <time>2017-07-29T10:29:56Z</time>
      </trkpt>
      <trkpt lat="43.9307328500" lon="1.2556503341">
        <ele>108.77</ele>
        <time>2017-07-29T10:29:57Z</time>
      </trkpt>
      <trkpt lat="43.9304445963" lon="1.2557595503">
        <ele>109.25</ele>
        <time>2017-07-29T10:30:04Z</time>
      </trkpt>
      <trkpt lat="43.9304020163" lon="1.2557698600">
        <ele>109.25</ele>
        <time>2017-07-29T10:30:05Z</time>
      </trkpt>
      <trkpt lat="43.9299415983" lon="1.2559380848">
        <ele>109.73</ele>
        <time>2017-07-29T10:30:16Z</time>
      </trkpt>
      <trkpt lat="43.9297628123" lon="1.2560015358">
        <ele>109.73</ele>
        <time>2017-07-29T10:30:20Z</time>
      </trkpt>
      <trkpt lat="43.9297169633" lon="1.2560152821">
        <ele>110.21</ele>
        <time>2017-07-29T10:30:21Z</time>
      </trkpt>
      <trkpt lat="43.9293011371" lon="1.2561781425">
        <ele>110.21</ele>
        <time>2017-07-29T10:30:31Z</time>
      </trkpt>
      <trkpt lat="43.9290185831" lon="1.2562995125">
        <ele>110.21</ele>
        <time>2017-07-29T10:30:37Z</time>
      </trkpt>
      <trkpt lat="43.9284644555" lon="1.2565667275">
        <ele>110.21</ele>
        <time>2017-07-29T10:30:49Z</time>
      </trkpt>
      <trkpt lat="43.9279365633" lon="1.2568375468">
        <ele>110.69</ele>
        <time>2017-07-29T10:31:00Z</time>
      </trkpt>
      <trkpt lat="43.9273823518" lon="1.2571341824">
        <ele>110.21</ele>
        <time>2017-07-29T10:31:12Z</time>
      </trkpt>
      <trkpt lat="43.9268537052" lon="1.2574204244">
        <ele>110.21</ele>
        <time>2017-07-29T10:31:24Z</time>
      </trkpt>
      <trkpt lat="43.9264943730" lon="1.2576210033">
        <ele>110.21</ele>
        <time>2017-07-29T10:31:32Z</time>
      </trkpt>
      <trkpt lat="43.9260484558" lon="1.2578589655">
        <ele>110.69</ele>
        <time>2017-07-29T10:31:42Z</time>
      </trkpt>
      <trkpt lat="43.9259078912" lon="1.2579352409">
        <ele>110.69</ele>
        <time>2017-07-29T10:31:45Z</time>
      </trkpt>
      <trkpt lat="43.9256822504" lon="1.2580765598">
        <ele>107.81</ele>
        <time>2017-07-29T10:31:50Z</time>
      </trkpt>
      <trkpt lat="43.9256397542" lon="1.2581013702">
        <ele>113.09</ele>
        <time>2017-07-29T10:31:51Z</time>
      </trkpt>
      <trkpt lat="43.9254134428" lon="1.2582457904">
        <ele>110.69</ele>
        <time>2017-07-29T10:31:57Z</time>
      </trkpt>
      <trkpt lat="43.9252827689" lon="1.2583489716">
        <ele>110.21</ele>
        <time>2017-07-29T10:32:00Z</time>
      </trkpt>
      <trkpt lat="43.9250211697" lon="1.2584477942">
        <ele>110.21</ele>
        <time>2017-07-29T10:32:05Z</time>
      </trkpt>
      <trkpt lat="43.9244818781" lon="1.2586831581">
        <ele>111.17</ele>
        <time>2017-07-29T10:32:16Z</time>
      </trkpt>
      <trkpt lat="43.9238395728" lon="1.2588003371">
        <ele>111.17</ele>
        <time>2017-07-29T10:32:28Z</time>
      </trkpt>
      <trkpt lat="43.9234050550" lon="1.2587813940">
        <ele>111.17</ele>
        <time>2017-07-29T10:32:36Z</time>
      </trkpt>
      <trkpt lat="43.9227365144" lon="1.2586506363">
        <ele>111.65</ele>
        <time>2017-07-29T10:32:49Z</time>
      </trkpt>
      <trkpt lat="43.9226326626" lon="1.2586246524">
        <ele>112.13</ele>
        <time>2017-07-29T10:32:51Z</time>
      </trkpt>
      <trkpt lat="43.9225793537" lon="1.2586068828">
        <ele>111.17</ele>
        <time>2017-07-29T10:32:52Z</time>
      </trkpt>
      <trkpt lat="43.9225252066" lon="1.2585955672">
        <ele>111.17</ele>
        <time>2017-07-29T10:32:53Z</time>
      </trkpt>
      <trkpt lat="43.9216561709" lon="1.2584429327">
        <ele>111.17</ele>
        <time>2017-07-29T10:33:09Z</time>
      </trkpt>
      <trkpt lat="43.9208805934" lon="1.2583243288">
        <ele>111.17</ele>
        <time>2017-07-29T10:33:23Z</time>
      </trkpt>
      <trkpt lat="43.9201915171" lon="1.2582058925">
        <ele>111.17</ele>
        <time>2017-07-29T10:33:35Z</time>
      </trkpt>
      <trkpt lat="43.9194775466" lon="1.2580666691">
        <ele>111.65</ele>
        <time>2017-07-29T10:33:48Z</time>
      </trkpt>
      <trkpt lat="43.9188572858" lon="1.2579408567">
        <ele>111.17</ele>
        <time>2017-07-29T10:34:00Z</time>
      </trkpt>
      <trkpt lat="43.9181868173" lon="1.2578367535">
        <ele>111.17</ele>
        <time>2017-07-29T10:34:13Z</time>
      </trkpt>
      <trkpt lat="43.9175229706" lon="1.2577269506">
        <ele>111.17</ele>
        <time>2017-07-29T10:34:25Z</time>
      </trkpt>
      <trkpt lat="43.9169576950" lon="1.2576638348">
        <ele>110.69</ele>
        <time>2017-07-29T10:34:36Z</time>
      </trkpt>
      <trkpt lat="43.9162599854" lon="1.2576825265">
        <ele>110.21</ele>
        <time>2017-07-29T10:34:48Z</time>
      </trkpt>
      <trkpt lat="43.9156481065" lon="1.2578000408">
        <ele>110.21</ele>
        <time>2017-07-29T10:34:59Z</time>
      </trkpt>
      <trkpt lat="43.9153184462" lon="1.2578834407">
        <ele>110.69</ele>
        <time>2017-07-29T10:35:05Z</time>
      </trkpt>
      <trkpt lat="43.9147782326" lon="1.2581181340">
        <ele>110.21</ele>
        <time>2017-07-29T10:35:15Z</time>
      </trkpt>
      <trkpt lat="43.9141989592" lon="1.2584280968">
        <ele>110.69</ele>
        <time>2017-07-29T10:35:27Z</time>
      </trkpt>
      <trkpt lat="43.9137827139" lon="1.2586484570">
        <ele>110.21</ele>
        <time>2017-07-29T10:35:36Z</time>
      </trkpt>
      <trkpt lat="43.9135434106" lon="1.2587627862">
        <ele>110.69</ele>
        <time>2017-07-29T10:35:41Z</time>
      </trkpt>
      <trkpt lat="43.9131300151" lon="1.2589678075">
        <ele>110.69</ele>
        <time>2017-07-29T10:35:49Z</time>
      </trkpt>
      <trkpt lat="43.9130853396" lon="1.2589939591">
        <ele>110.69</ele>
        <time>2017-07-29T10:35:50Z</time>
      </trkpt>
      <trkpt lat="43.9125892147" lon="1.2592516188">
        <ele>110.21</ele>
        <time>2017-07-29T10:36:00Z</time>
      </trkpt>
      <trkpt lat="43.9121945947" lon="1.2594589032">
        <ele>110.21</ele>
        <time>2017-07-29T10:36:10Z</time>
      </trkpt>
      <trkpt lat="43.9119153097" lon="1.2595895771">
        <ele>110.21</ele>
        <time>2017-07-29T10:36:19Z</time>
      </trkpt>
      <trkpt lat="43.9118934330" lon="1.2595848832">
        <ele>110.21</ele>
        <time>2017-07-29T10:36:20Z</time>
      </trkpt>
      <trkpt lat="43.9118695445" lon="1.2595785968">
        <ele>110.21</ele>
        <time>2017-07-29T10:36:21Z</time>
      </trkpt>
      <trkpt lat="43.9118431415" lon="1.2595785130">
        <ele>110.21</ele>
        <time>2017-07-29T10:36:22Z</time>
      </trkpt>
      <trkpt lat="43.9118181635" lon="1.2595848832">
        <ele>110.69</ele>
        <time>2017-07-29T10:36:23Z</time>
      </trkpt>
      <trkpt lat="43.9117930178" lon="1.2595974561">
        <ele>110.69</ele>
        <time>2017-07-29T10:36:24Z</time>
      </trkpt>
      <trkpt lat="43.9117695484" lon="1.2596155610">
        <ele>110.69</ele>
        <time>2017-07-29T10:36:25Z</time>
      </trkpt>
      <trkpt lat="43.9117456600" lon="1.2596310675">
        <ele>110.69</ele>
        <time>2017-07-29T10:36:26Z</time>
      </trkpt>
      <trkpt lat="43.9117156528" lon="1.2596433051">
        <ele>111.17</ele>
        <time>2017-07-29T10:36:27Z</time>
      </trkpt>
      <trkpt lat="43.9114432409" lon="1.2597736437">
        <ele>112.61</ele>
        <time>2017-07-29T10:36:36Z</time>
      </trkpt>
      <trkpt lat="43.9114294108" lon="1.2597999629">
        <ele>113.09</ele>
        <time>2017-07-29T10:36:37Z</time>
      </trkpt>
      <trkpt lat="43.9114263933" lon="1.2598334905">
        <ele>113.57</ele>
        <time>2017-07-29T10:36:38Z</time>
      </trkpt>
      <trkpt lat="43.9114310034" lon="1.2598681916">
        <ele>113.57</ele>
        <time>2017-07-29T10:36:39Z</time>
      </trkpt>
      <trkpt lat="43.9114383794" lon="1.2599029765">
        <ele>113.57</ele>
        <time>2017-07-29T10:36:40Z</time>
      </trkpt>
      <trkpt lat="43.9115082007" lon="1.2601942476">
        <ele>114.05</ele>
        <time>2017-07-29T10:36:50Z</time>
      </trkpt>
      <trkpt lat="43.9115470089" lon="1.2602654938">
        <ele>113.57</ele>
        <time>2017-07-29T10:36:58Z</time>
      </trkpt>
      <trkpt lat="43.9115097094" lon="1.2601749692">
        <ele>114.05</ele>
        <time>2017-07-29T10:37:08Z</time>
      </trkpt>
      <trkpt lat="43.9115012437" lon="1.2601478118">
        <ele>114.05</ele>
        <time>2017-07-29T10:37:19Z</time>
      </trkpt>
      <trkpt lat="43.9115046803" lon="1.2601634860">
        <ele>114.05</ele>
        <time>2017-07-29T10:37:39Z</time>
      </trkpt>
      <trkpt lat="43.9114958793" lon="1.2601237558">
        <ele>114.05</ele>
        <time>2017-07-29T10:38:02Z</time>
      </trkpt>
      <trkpt lat="43.9114885032" lon="1.2601017114">
        <ele>114.05</ele>
        <time>2017-07-29T10:38:03Z</time>
      </trkpt>
      <trkpt lat="43.9114776067" lon="1.2600803375">
        <ele>114.05</ele>
        <time>2017-07-29T10:38:04Z</time>
      </trkpt>
      <trkpt lat="43.9114695601" lon="1.2600550242">
        <ele>114.05</ele>
        <time>2017-07-29T10:38:05Z</time>
      </trkpt>
      <trkpt lat="43.9114617649" lon="1.2600220833">
        <ele>114.53</ele>
        <time>2017-07-29T10:38:06Z</time>
      </trkpt>
      <trkpt lat="43.9114517067" lon="1.2599825207">
        <ele>114.05</ele>
        <time>2017-07-29T10:38:07Z</time>
      </trkpt>
      <trkpt lat="43.9114414807" lon="1.2599390186">
        <ele>114.05</ele>
        <time>2017-07-29T10:38:08Z</time>
      </trkpt>
      <trkpt lat="43.9114255551" lon="1.2598971929">
        <ele>114.05</ele>
        <time>2017-07-29T10:38:09Z</time>
      </trkpt>
      <trkpt lat="43.9113999065" lon="1.2598657608">
        <ele>113.57</ele>
        <time>2017-07-29T10:38:10Z</time>
      </trkpt>
      <trkpt lat="43.9113633614" lon="1.2598522659">
        <ele>113.09</ele>
        <time>2017-07-29T10:38:11Z</time>
      </trkpt>
      <trkpt lat="43.9113222063" lon="1.2598650064">
        <ele>113.09</ele>
        <time>2017-07-29T10:38:12Z</time>
      </trkpt>
      <trkpt lat="43.9112777822" lon="1.2598928344">
        <ele>112.61</ele>
        <time>2017-07-29T10:38:13Z</time>
      </trkpt>
      <trkpt lat="43.9110607747" lon="1.2600319739">
        <ele>111.65</ele>
        <time>2017-07-29T10:38:17Z</time>
      </trkpt>
      <trkpt lat="43.9109464455" lon="1.2601272762">
        <ele>110.69</ele>
        <time>2017-07-29T10:38:19Z</time>
      </trkpt>
      <trkpt lat="43.9108865988" lon="1.2601641566">
        <ele>110.69</ele>
        <time>2017-07-29T10:38:20Z</time>
      </trkpt>
      <trkpt lat="43.9108275063" lon="1.2601950020">
        <ele>110.69</ele>
        <time>2017-07-29T10:38:21Z</time>
      </trkpt>
      <trkpt lat="43.9102644939" lon="1.2604579423">
        <ele>111.17</ele>
        <time>2017-07-29T10:38:32Z</time>
      </trkpt>
      <trkpt lat="43.9100329857" lon="1.2605715171">
        <ele>112.13</ele>
        <time>2017-07-29T10:38:37Z</time>
      </trkpt>
      <trkpt lat="43.9094720688" lon="1.2608280871">
        <ele>111.65</ele>
        <time>2017-07-29T10:38:49Z</time>
      </trkpt>
      <trkpt lat="43.9091799594" lon="1.2609810568">
        <ele>111.65</ele>
        <time>2017-07-29T10:38:55Z</time>
      </trkpt>
      <trkpt lat="43.9091299195" lon="1.2610056996">
        <ele>111.65</ele>
        <time>2017-07-29T10:38:56Z</time>
      </trkpt>
      <trkpt lat="43.9090801310" lon="1.2610293366">
        <ele>111.65</ele>
        <time>2017-07-29T10:38:57Z</time>
      </trkpt>
      <trkpt lat="43.9086204674" lon="1.2612658739">
        <ele>111.65</ele>
        <time>2017-07-29T10:39:06Z</time>
      </trkpt>
      <trkpt lat="43.9081290364" lon="1.2615252100">
        <ele>111.65</ele>
        <time>2017-07-29T10:39:16Z</time>
      </trkpt>
      <trkpt lat="43.9078503381" lon="1.2616662774">
        <ele>111.65</ele>
        <time>2017-07-29T10:39:22Z</time>
      </trkpt>
      <trkpt lat="43.9078089315" lon="1.2616881542">
        <ele>111.65</ele>
        <time>2017-07-29T10:39:23Z</time>
      </trkpt>
      <trkpt lat="43.9077644236" lon="1.2617107015">
        <ele>111.65</ele>
        <time>2017-07-29T10:39:24Z</time>
      </trkpt>
      <trkpt lat="43.9074169938" lon="1.2618889008">
        <ele>111.65</ele>
        <time>2017-07-29T10:39:31Z</time>
      </trkpt>
      <trkpt lat="43.9067729283" lon="1.2622385938">
        <ele>112.13</ele>
        <time>2017-07-29T10:39:44Z</time>
      </trkpt>
      <trkpt lat="43.9063047990" lon="1.2624936551">
        <ele>112.13</ele>
        <time>2017-07-29T10:39:53Z</time>
      </trkpt>
      <trkpt lat="43.9060301241" lon="1.2626182940">
        <ele>111.65</ele>
        <time>2017-07-29T10:39:58Z</time>
      </trkpt>
      <trkpt lat="43.9054585621" lon="1.2629224733">
        <ele>111.65</ele>
        <time>2017-07-29T10:40:09Z</time>
      </trkpt>
      <trkpt lat="43.9050486870" lon="1.2631352898">
        <ele>112.13</ele>
        <time>2017-07-29T10:40:17Z</time>
      </trkpt>
      <trkpt lat="43.9049983956" lon="1.2631574180">
        <ele>111.65</ele>
        <time>2017-07-29T10:40:18Z</time>
      </trkpt>
      <trkpt lat="43.9043795597" lon="1.2634797860">
        <ele>111.65</ele>
        <time>2017-07-29T10:40:30Z</time>
      </trkpt>
      <trkpt lat="43.9037493244" lon="1.2638205104">
        <ele>111.17</ele>
        <time>2017-07-29T10:40:42Z</time>
      </trkpt>
      <trkpt lat="43.9031594899" lon="1.2641026452">
        <ele>110.69</ele>
        <time>2017-07-29T10:40:53Z</time>
      </trkpt>
      <trkpt lat="43.9028146584" lon="1.2642779108">
        <ele>110.69</ele>
        <time>2017-07-29T10:41:00Z</time>
      </trkpt>
      <trkpt lat="43.9027661271" lon="1.2642966025">
        <ele>110.69</ele>
        <time>2017-07-29T10:41:01Z</time>
      </trkpt>
      <trkpt lat="43.9027194399" lon="1.2643201556">
        <ele>110.69</ele>
        <time>2017-07-29T10:41:02Z</time>
      </trkpt>
      <trkpt lat="43.9023449365" lon="1.2645128556">
        <ele>110.69</ele>
        <time>2017-07-29T10:41:10Z</time>
      </trkpt>
      <trkpt lat="43.9019057248" lon="1.2647302821">
        <ele>110.69</ele>
        <time>2017-07-29T10:41:19Z</time>
      </trkpt>
      <trkpt lat="43.9018561877" lon="1.2647564337">
        <ele>110.69</ele>
        <time>2017-07-29T10:41:20Z</time>
      </trkpt>
      <trkpt lat="43.9012661856" lon="1.2650663126">
        <ele>110.69</ele>
        <time>2017-07-29T10:41:32Z</time>
      </trkpt>
      <trkpt lat="43.9010483399" lon="1.2651899457">
        <ele>111.17</ele>
        <time>2017-07-29T10:41:37Z</time>
      </trkpt>
      <trkpt lat="43.9010092802" lon="1.2652121577">
        <ele>111.17</ele>
        <time>2017-07-29T10:41:38Z</time>
      </trkpt>
      <trkpt lat="43.9004916139" lon="1.2654514611">
        <ele>110.69</ele>
        <time>2017-07-29T10:41:49Z</time>
      </trkpt>
      <trkpt lat="43.8999543339" lon="1.2657027505">
        <ele>110.69</ele>
        <time>2017-07-29T10:42:00Z</time>
      </trkpt>
      <trkpt lat="43.8992940914" lon="1.2660428882">
        <ele>110.69</ele>
        <time>2017-07-29T10:42:13Z</time>
      </trkpt>
      <trkpt lat="43.8991604000" lon="1.2661266234">
        <ele>110.69</ele>
        <time>2017-07-29T10:42:16Z</time>
      </trkpt>
      <trkpt lat="43.8986403868" lon="1.2663890608">
        <ele>110.69</ele>
        <time>2017-07-29T10:42:27Z</time>
      </trkpt>
      <trkpt lat="43.8984478544" lon="1.2664821837">
        <ele>110.69</ele>
        <time>2017-07-29T10:42:31Z</time>
      </trkpt>
      <trkpt lat="43.8978998456" lon="1.2667545956">
        <ele>110.69</ele>
        <time>2017-07-29T10:42:42Z</time>
      </trkpt>
      <trkpt lat="43.8975110929" lon="1.2669378240">
        <ele>110.69</ele>
        <time>2017-07-29T10:42:50Z</time>
      </trkpt>
      <trkpt lat="43.8971688598" lon="1.2671202142">
        <ele>114.05</ele>
        <time>2017-07-29T10:42:57Z</time>
      </trkpt>
      <trkpt lat="43.8971203286" lon="1.2671435997">
        <ele>110.69</ele>
        <time>2017-07-29T10:42:58Z</time>
      </trkpt>
      <trkpt lat="43.8967355993" lon="1.2673201226">
        <ele>110.69</ele>
        <time>2017-07-29T10:43:06Z</time>
      </trkpt>
      <trkpt lat="43.8963058591" lon="1.2675499544">
        <ele>110.21</ele>
        <time>2017-07-29T10:43:15Z</time>
      </trkpt>
      <trkpt lat="43.8962578308" lon="1.2675790396">
        <ele>110.69</ele>
        <time>2017-07-29T10:43:16Z</time>
      </trkpt>
      <trkpt lat="43.8957720995" lon="1.2678263057">
        <ele>110.21</ele>
        <time>2017-07-29T10:43:26Z</time>
      </trkpt>
      <trkpt lat="43.8953847717" lon="1.2680192571">
        <ele>110.21</ele>
        <time>2017-07-29T10:43:34Z</time>
      </trkpt>
      <trkpt lat="43.8953423593" lon="1.2680458277">
        <ele>110.21</ele>
        <time>2017-07-29T10:43:35Z</time>
      </trkpt>
      <trkpt lat="43.8950115256" lon="1.2682166509">
        <ele>110.21</ele>
        <time>2017-07-29T10:43:42Z</time>
      </trkpt>
      <trkpt lat="43.8944176678" lon="1.2684980314">
        <ele>110.21</ele>
        <time>2017-07-29T10:43:54Z</time>
      </trkpt>
      <trkpt lat="43.8940963894" lon="1.2686677650">
        <ele>110.21</ele>
        <time>2017-07-29T10:44:01Z</time>
      </trkpt>
      <trkpt lat="43.8934341352" lon="1.2689050566">
        <ele>110.69</ele>
        <time>2017-07-29T10:44:14Z</time>
      </trkpt>
      <trkpt lat="43.8933479693" lon="1.2689359859">
        <ele>110.21</ele>
        <time>2017-07-29T10:44:16Z</time>
      </trkpt>
      <trkpt lat="43.8933032937" lon="1.2689449545">
        <ele>110.21</ele>
        <time>2017-07-29T10:44:17Z</time>
      </trkpt>
      <trkpt lat="43.8927147165" lon="1.2690540031">
        <ele>110.69</ele>
        <time>2017-07-29T10:44:29Z</time>
      </trkpt>
      <trkpt lat="43.8922447432" lon="1.2690580264">
        <ele>110.69</ele>
        <time>2017-07-29T10:44:40Z</time>
      </trkpt>
      <trkpt lat="43.8916446827" lon="1.2690571044">
        <ele>110.69</ele>
        <time>2017-07-29T10:44:53Z</time>
      </trkpt>
      <trkpt lat="43.8911632262" lon="1.2690690905">
        <ele>110.21</ele>
        <time>2017-07-29T10:45:03Z</time>
      </trkpt>
      <trkpt lat="43.8906030636" lon="1.2690882850">
        <ele>110.21</ele>
        <time>2017-07-29T10:45:15Z</time>
      </trkpt>
      <trkpt lat="43.8899678830" lon="1.2691037077">
        <ele>110.21</ele>
        <time>2017-07-29T10:45:28Z</time>
      </trkpt>
      <trkpt lat="43.8896762766" lon="1.2691123411">
        <ele>110.21</ele>
        <time>2017-07-29T10:45:34Z</time>
      </trkpt>
      <trkpt lat="43.8891895395" lon="1.2691115029">
        <ele>110.21</ele>
        <time>2017-07-29T10:45:44Z</time>
      </trkpt>
      <trkpt lat="43.8886865415" lon="1.2691399176">
        <ele>110.69</ele>
        <time>2017-07-29T10:45:54Z</time>
      </trkpt>
      <trkpt lat="43.8886398543" lon="1.2691389956">
        <ele>110.69</ele>
        <time>2017-07-29T10:45:55Z</time>
      </trkpt>
      <trkpt lat="43.8885956816" lon="1.2691355590">
        <ele>110.69</ele>
        <time>2017-07-29T10:45:56Z</time>
      </trkpt>
      <trkpt lat="43.8880714774" lon="1.2691471260">
        <ele>110.69</ele>
        <time>2017-07-29T10:46:07Z</time>
      </trkpt>
      <trkpt lat="43.8875425793" lon="1.2691533286">
        <ele>110.21</ele>
        <time>2017-07-29T10:46:18Z</time>
      </trkpt>
      <trkpt lat="43.8873449340" lon="1.2691603694">
        <ele>110.21</ele>
        <time>2017-07-29T10:46:22Z</time>
      </trkpt>
      <trkpt lat="43.8867126871" lon="1.2691716850">
        <ele>110.21</ele>
        <time>2017-07-29T10:46:34Z</time>
      </trkpt>
      <trkpt lat="43.8861174881" lon="1.2691932265">
        <ele>110.21</ele>
        <time>2017-07-29T10:46:45Z</time>
      </trkpt>
      <trkpt lat="43.8857388776" lon="1.2692092359">
        <ele>111.17</ele>
        <time>2017-07-29T10:46:52Z</time>
      </trkpt>
      <trkpt lat="43.8856895920" lon="1.2692059670">
        <ele>110.69</ele>
        <time>2017-07-29T10:46:53Z</time>
      </trkpt>
      <trkpt lat="43.8849261682" lon="1.2692403328">
        <ele>110.21</ele>
        <time>2017-07-29T10:47:07Z</time>
      </trkpt>
      <trkpt lat="43.8844232541" lon="1.2692543305">
        <ele>110.69</ele>
        <time>2017-07-29T10:47:17Z</time>
      </trkpt>
      <trkpt lat="43.8843800034" lon="1.2692533247">
        <ele>110.69</ele>
        <time>2017-07-29T10:47:18Z</time>
      </trkpt>
      <trkpt lat="43.8843390997" lon="1.2692565098">
        <ele>110.69</ele>
        <time>2017-07-29T10:47:19Z</time>
      </trkpt>
      <trkpt lat="43.8841480762" lon="1.2692596950">
        <ele>110.69</ele>
        <time>2017-07-29T10:47:24Z</time>
      </trkpt>
      <trkpt lat="43.8837990537" lon="1.2692855112">
        <ele>110.69</ele>
        <time>2017-07-29T10:47:33Z</time>
      </trkpt>
      <trkpt lat="43.8837116305" lon="1.2693041191">
        <ele>110.69</ele>
        <time>2017-07-29T10:47:35Z</time>
      </trkpt>
      <trkpt lat="43.8832893502" lon="1.2693802267">
        <ele>110.69</ele>
        <time>2017-07-29T10:47:46Z</time>
      </trkpt>
      <trkpt lat="43.8830599375" lon="1.2693709228">
        <ele>113.09</ele>
        <time>2017-07-29T10:47:54Z</time>
      </trkpt>
      <trkpt lat="43.8829699159" lon="1.2691560108">
        <ele>112.13</ele>
        <time>2017-07-29T10:48:00Z</time>
      </trkpt>
      <trkpt lat="43.8828014396" lon="1.2685297150">
        <ele>109.25</ele>
        <time>2017-07-29T10:48:08Z</time>
      </trkpt>
      <trkpt lat="43.8827069756" lon="1.2680104561">
        <ele>107.32</ele>
        <time>2017-07-29T10:48:13Z</time>
      </trkpt>
      <trkpt lat="43.8825884555" lon="1.2671705894">
        <ele>105.40</ele>
        <time>2017-07-29T10:48:21Z</time>
      </trkpt>
      <trkpt lat="43.8824607991" lon="1.2662381027">
        <ele>105.40</ele>
        <time>2017-07-29T10:48:31Z</time>
      </trkpt>
      <trkpt lat="43.8822890539" lon="1.2649083976">
        <ele>104.92</ele>
        <time>2017-07-29T10:48:46Z</time>
      </trkpt>
      <trkpt lat="43.8821542729" lon="1.2639095262">
        <ele>104.44</ele>
        <time>2017-07-29T10:48:58Z</time>
      </trkpt>
      <trkpt lat="43.8820004649" lon="1.2626627181">
        <ele>104.44</ele>
        <time>2017-07-29T10:49:14Z</time>
      </trkpt>
      <trkpt lat="43.8819303084" lon="1.2622702774">
        <ele>104.92</ele>
        <time>2017-07-29T10:49:20Z</time>
      </trkpt>
      <trkpt lat="43.8816557173" lon="1.2615597434">
        <ele>103.96</ele>
        <time>2017-07-29T10:49:32Z</time>
      </trkpt>
      <trkpt lat="43.8813797850" lon="1.2607856747">
        <ele>103.96</ele>
        <time>2017-07-29T10:49:44Z</time>
      </trkpt>
      <trkpt lat="43.8813586626" lon="1.2607241515">
        <ele>103.96</ele>
        <time>2017-07-29T10:49:45Z</time>
      </trkpt>
      <trkpt lat="43.8812889252" lon="1.2605398335">
        <ele>103.96</ele>
        <time>2017-07-29T10:49:48Z</time>
      </trkpt>
      <trkpt lat="43.8811947126" lon="1.2602900527">
        <ele>103.96</ele>
        <time>2017-07-29T10:49:52Z</time>
      </trkpt>
      <trkpt lat="43.8811735902" lon="1.2602259312">
        <ele>103.96</ele>
        <time>2017-07-29T10:49:53Z</time>
      </trkpt>
      <trkpt lat="43.8811370451" lon="1.2600950059">
        <ele>103.96</ele>
        <time>2017-07-29T10:49:55Z</time>
      </trkpt>
      <trkpt lat="43.8808990829" lon="1.2593975477">
        <ele>103.96</ele>
        <time>2017-07-29T10:50:06Z</time>
      </trkpt>
      <trkpt lat="43.8806603663" lon="1.2586127501">
        <ele>104.44</ele>
        <time>2017-07-29T10:50:18Z</time>
      </trkpt>
      <trkpt lat="43.8804685045" lon="1.2579166330">
        <ele>104.44</ele>
        <time>2017-07-29T10:50:31Z</time>
      </trkpt>
      <trkpt lat="43.8803495653" lon="1.2573796883">
        <ele>103.96</ele>
        <time>2017-07-29T10:50:44Z</time>
      </trkpt>
      <trkpt lat="43.8803594559" lon="1.2573445681">
        <ele>104.44</ele>
        <time>2017-07-29T10:50:45Z</time>
      </trkpt>
      <trkpt lat="43.8803747110" lon="1.2573122978">
        <ele>103.96</ele>
        <time>2017-07-29T10:50:46Z</time>
      </trkpt>
      <trkpt lat="43.8804903813" lon="1.2572364416">
        <ele>103.96</ele>
        <time>2017-07-29T10:50:51Z</time>
      </trkpt>
      <trkpt lat="43.8806595281" lon="1.2571323384">
        <ele>103.96</ele>
        <time>2017-07-29T10:50:59Z</time>
      </trkpt>
      <trkpt lat="43.8807244040" lon="1.2573094480">
        <ele>103.96</ele>
        <time>2017-07-29T10:51:05Z</time>
      </trkpt>
      <trkpt lat="43.8807151001" lon="1.2574231904">
        <ele>103.96</ele>
        <time>2017-07-29T10:51:11Z</time>
      </trkpt>
      <trkpt lat="43.8807290979" lon="1.2574210111">
        <ele>103.96</ele>
        <time>2017-07-29T10:51:21Z</time>
      </trkpt>
      <trkpt lat="43.8807347137" lon="1.2574225198">
        <ele>103.96</ele>
        <time>2017-07-29T10:51:31Z</time>
      </trkpt>
      <trkpt lat="43.8807409164" lon="1.2574159820">
        <ele>104.44</ele>
        <time>2017-07-29T10:51:45Z</time>
      </trkpt>
      <trkpt lat="43.8807368092" lon="1.2574000563">
        <ele>103.96</ele>
        <time>2017-07-29T10:52:01Z</time>
      </trkpt>
      <trkpt lat="43.8807367254" lon="1.2573823705">
        <ele>104.44</ele>
        <time>2017-07-29T10:52:23Z</time>
      </trkpt>
      <trkpt lat="43.8807455264" lon="1.2573752459">
        <ele>104.44</ele>
        <time>2017-07-29T10:52:46Z</time>
      </trkpt>
      <trkpt lat="43.8807456102" lon="1.2573703006">
        <ele>104.44</ele>
        <time>2017-07-29T10:52:59Z</time>
      </trkpt>
      <trkpt lat="43.8807406649" lon="1.2573658582">
        <ele>104.44</ele>
        <time>2017-07-29T10:53:12Z</time>
      </trkpt>
      <trkpt lat="43.8806772977" lon="1.2573506031">
        <ele>104.44</ele>
        <time>2017-07-29T10:53:18Z</time>
      </trkpt>
      <trkpt lat="43.8806437701" lon="1.2573994696">
        <ele>104.44</ele>
        <time>2017-07-29T10:53:27Z</time>
      </trkpt>
      <trkpt lat="43.8806582708" lon="1.2574683689">
        <ele>104.44</ele>
        <time>2017-07-29T10:53:32Z</time>
      </trkpt>
      <trkpt lat="43.8807326183" lon="1.2576887291">
        <ele>104.92</ele>
        <time>2017-07-29T10:53:46Z</time>
      </trkpt>
      <trkpt lat="43.8807444368" lon="1.2577273697">
        <ele>104.92</ele>
        <time>2017-07-29T10:53:58Z</time>
      </trkpt>
      <trkpt lat="43.8807367254" lon="1.2576604821">
        <ele>104.92</ele>
        <time>2017-07-29T10:54:08Z</time>
      </trkpt>
      <trkpt lat="43.8807307743" lon="1.2576552015">
        <ele>102.52</ele>
        <time>2017-07-29T10:54:24Z</time>
      </trkpt>
      <trkpt lat="43.8807201292" lon="1.2577357516">
        <ele>105.40</ele>
        <time>2017-07-29T11:13:37Z</time>
      </trkpt>
      <trkpt lat="43.8807285111" lon="1.2577515934">
        <ele>105.40</ele>
        <time>2017-07-29T11:13:38Z</time>
      </trkpt>
      <trkpt lat="43.8807069696" lon="1.2577810138">
        <ele>104.92</ele>
        <time>2017-07-29T11:13:45Z</time>
      </trkpt>
      <trkpt lat="43.8806739450" lon="1.2578729633">
        <ele>104.92</ele>
        <time>2017-07-29T11:13:56Z</time>
      </trkpt>
      <trkpt lat="43.8806658145" lon="1.2578884698">
        <ele>104.92</ele>
        <time>2017-07-29T11:14:07Z</time>
      </trkpt>
      <trkpt lat="43.8806325383" lon="1.2579423655">
        <ele>104.44</ele>
        <time>2017-07-29T11:14:15Z</time>
      </trkpt>
      <trkpt lat="43.8804888725" lon="1.2580049783">
        <ele>105.40</ele>
        <time>2017-07-29T11:14:29Z</time>
      </trkpt>
      <trkpt lat="43.8804686721" lon="1.2580338120">
        <ele>105.40</ele>
        <time>2017-07-29T11:14:39Z</time>
      </trkpt>
      <trkpt lat="43.8804726116" lon="1.2580423616">
        <ele>104.92</ele>
        <time>2017-07-29T11:14:56Z</time>
      </trkpt>
      <trkpt lat="43.8804739527" lon="1.2580421939">
        <ele>104.92</ele>
        <time>2017-07-29T11:14:57Z</time>
      </trkpt>
      <trkpt lat="43.8804785628" lon="1.2580494862">
        <ele>105.40</ele>
        <time>2017-07-29T11:15:04Z</time>
      </trkpt>
      <trkpt lat="43.8805235736" lon="1.2581826746">
        <ele>105.40</ele>
        <time>2017-07-29T11:15:10Z</time>
      </trkpt>
      <trkpt lat="43.8806746993" lon="1.2586802244">
        <ele>105.40</ele>
        <time>2017-07-29T11:15:22Z</time>
      </trkpt>
      <trkpt lat="43.8808958977" lon="1.2593418080">
        <ele>105.40</ele>
        <time>2017-07-29T11:15:35Z</time>
      </trkpt>
      <trkpt lat="43.8810927048" lon="1.2599562854">
        <ele>104.92</ele>
        <time>2017-07-29T11:15:47Z</time>
      </trkpt>
      <trkpt lat="43.8811091334" lon="1.2600100972">
        <ele>104.92</ele>
        <time>2017-07-29T11:15:48Z</time>
      </trkpt>
      <trkpt lat="43.8811422419" lon="1.2601175532">
        <ele>104.92</ele>
        <time>2017-07-29T11:15:50Z</time>
      </trkpt>
      <trkpt lat="43.8811768591" lon="1.2602317985">
        <ele>104.92</ele>
        <time>2017-07-29T11:15:52Z</time>
      </trkpt>
      <trkpt lat="43.8813936990" lon="1.2608351279">
        <ele>104.92</ele>
        <time>2017-07-29T11:16:03Z</time>
      </trkpt>
      <trkpt lat="43.8814339321" lon="1.2609424163">
        <ele>104.92</ele>
        <time>2017-07-29T11:16:05Z</time>
      </trkpt>
      <trkpt lat="43.8814481813" lon="1.2609985750">
        <ele>105.40</ele>
        <time>2017-07-29T11:16:06Z</time>
      </trkpt>
      <trkpt lat="43.8814660348" lon="1.2610556558">
        <ele>105.40</ele>
        <time>2017-07-29T11:16:07Z</time>
      </trkpt>
      <trkpt lat="43.8817172404" lon="1.2617205083">
        <ele>105.40</ele>
        <time>2017-07-29T11:16:19Z</time>
      </trkpt>
      <trkpt lat="43.8817797694" lon="1.2618761603">
        <ele>105.88</ele>
        <time>2017-07-29T11:16:22Z</time>
      </trkpt>
      <trkpt lat="43.8819645066" lon="1.2625029590">
        <ele>105.88</ele>
        <time>2017-07-29T11:16:34Z</time>
      </trkpt>
      <trkpt lat="43.8820799254" lon="1.2633455917">
        <ele>105.88</ele>
        <time>2017-07-29T11:16:47Z</time>
      </trkpt>
      <trkpt lat="43.8821530156" lon="1.2638421357">
        <ele>105.88</ele>
        <time>2017-07-29T11:16:55Z</time>
      </trkpt>
      <trkpt lat="43.8822613936" lon="1.2647079863">
        <ele>105.88</ele>
        <time>2017-07-29T11:17:09Z</time>
      </trkpt>
      <trkpt lat="43.8822691049" lon="1.2647691742">
        <ele>105.88</ele>
        <time>2017-07-29T11:17:10Z</time>
      </trkpt>
      <trkpt lat="43.8823578693" lon="1.2654888444">
        <ele>105.88</ele>
        <time>2017-07-29T11:17:23Z</time>
      </trkpt>
      <trkpt lat="43.8824297022" lon="1.2660969514">
        <ele>106.36</ele>
        <time>2017-07-29T11:17:35Z</time>
      </trkpt>
      <trkpt lat="43.8825211488" lon="1.2667417713">
        <ele>107.32</ele>
        <time>2017-07-29T11:17:47Z</time>
      </trkpt>
      <trkpt lat="43.8826131821" lon="1.2673866749">
        <ele>107.81</ele>
        <time>2017-07-29T11:17:59Z</time>
      </trkpt>
      <trkpt lat="43.8827251643" lon="1.2681304850">
        <ele>108.77</ele>
        <time>2017-07-29T11:18:13Z</time>
      </trkpt>
      <trkpt lat="43.8828005176" lon="1.2685349956">
        <ele>110.21</ele>
        <time>2017-07-29T11:18:23Z</time>
      </trkpt>
      <trkpt lat="43.8828863483" lon="1.2688559387">
        <ele>112.13</ele>
        <time>2017-07-29T11:18:33Z</time>
      </trkpt>
      <trkpt lat="43.8829777949" lon="1.2692222279">
        <ele>114.05</ele>
        <time>2017-07-29T11:18:45Z</time>
      </trkpt>
      <trkpt lat="43.8830361329" lon="1.2693814840">
        <ele>115.01</ele>
        <time>2017-07-29T11:18:52Z</time>
      </trkpt>
      <trkpt lat="43.8830523100" lon="1.2693901174">
        <ele>115.01</ele>
        <time>2017-07-29T11:18:53Z</time>
      </trkpt>
      <trkpt lat="43.8830685709" lon="1.2694000918">
        <ele>115.50</ele>
        <time>2017-07-29T11:18:54Z</time>
      </trkpt>
      <trkpt lat="43.8832530566" lon="1.2693822384">
        <ele>113.57</ele>
        <time>2017-07-29T11:19:00Z</time>
      </trkpt>
      <trkpt lat="43.8833320979" lon="1.2693819031">
        <ele>112.61</ele>
        <time>2017-07-29T11:19:05Z</time>
      </trkpt>
      <trkpt lat="43.8833381329" lon="1.2693995889">
        <ele>112.61</ele>
        <time>2017-07-29T11:19:06Z</time>
      </trkpt>
      <trkpt lat="43.8833306730" lon="1.2694148440">
        <ele>112.61</ele>
        <time>2017-07-29T11:19:07Z</time>
      </trkpt>
      <trkpt lat="43.8832599297" lon="1.2694396544">
        <ele>112.61</ele>
        <time>2017-07-29T11:19:11Z</time>
      </trkpt>
      <trkpt lat="43.8830341212" lon="1.2695635390">
        <ele>112.61</ele>
        <time>2017-07-29T11:19:21Z</time>
      </trkpt>
      <trkpt lat="43.8828978315" lon="1.2696170993">
        <ele>112.13</ele>
        <time>2017-07-29T11:19:24Z</time>
      </trkpt>
      <trkpt lat="43.8828531560" lon="1.2696419936">
        <ele>112.13</ele>
        <time>2017-07-29T11:19:25Z</time>
      </trkpt>
      <trkpt lat="43.8824971765" lon="1.2698722444">
        <ele>113.09</ele>
        <time>2017-07-29T11:19:34Z</time>
      </trkpt>
      <trkpt lat="43.8822151255" lon="1.2701105420">
        <ele>112.61</ele>
        <time>2017-07-29T11:19:42Z</time>
      </trkpt>
      <trkpt lat="43.8818697911" lon="1.2703065109">
        <ele>112.13</ele>
        <time>2017-07-29T11:19:50Z</time>
      </trkpt>
      <trkpt lat="43.8812597562" lon="1.2704495899">
        <ele>112.61</ele>
        <time>2017-07-29T11:20:03Z</time>
      </trkpt>
      <trkpt lat="43.8808716740" lon="1.2704199180">
        <ele>112.61</ele>
        <time>2017-07-29T11:20:11Z</time>
      </trkpt>
      <trkpt lat="43.8805286866" lon="1.2703022361">
        <ele>112.61</ele>
        <time>2017-07-29T11:20:19Z</time>
      </trkpt>
      <trkpt lat="43.8802016247" lon="1.2701991387">
        <ele>112.61</ele>
        <time>2017-07-29T11:20:26Z</time>
      </trkpt>
      <trkpt lat="43.8799328171" lon="1.2700952031">
        <ele>112.13</ele>
        <time>2017-07-29T11:20:32Z</time>
      </trkpt>
      <trkpt lat="43.8798438851" lon="1.2700646091">
        <ele>112.13</ele>
        <time>2017-07-29T11:20:34Z</time>
      </trkpt>
      <trkpt lat="43.8797978684" lon="1.2700459175">
        <ele>112.13</ele>
        <time>2017-07-29T11:20:35Z</time>
      </trkpt>
      <trkpt lat="43.8792916853" lon="1.2698695622">
        <ele>112.61</ele>
        <time>2017-07-29T11:20:46Z</time>
      </trkpt>
      <trkpt lat="43.8788607717" lon="1.2697194424">
        <ele>112.61</ele>
        <time>2017-07-29T11:20:55Z</time>
      </trkpt>
      <trkpt lat="43.8783781417" lon="1.2695466913">
        <ele>112.61</ele>
        <time>2017-07-29T11:21:05Z</time>
      </trkpt>
      <trkpt lat="43.8783338014" lon="1.2695269100">
        <ele>112.61</ele>
        <time>2017-07-29T11:21:06Z</time>
      </trkpt>
      <trkpt lat="43.8782866951" lon="1.2695109006">
        <ele>112.61</ele>
        <time>2017-07-29T11:21:07Z</time>
      </trkpt>
      <trkpt lat="43.8777453080" lon="1.2694038637">
        <ele>112.61</ele>
        <time>2017-07-29T11:21:18Z</time>
      </trkpt>
      <trkpt lat="43.8774454035" lon="1.2693802267">
        <ele>112.61</ele>
        <time>2017-07-29T11:21:24Z</time>
      </trkpt>
      <trkpt lat="43.8773937710" lon="1.2693797238">
        <ele>112.61</ele>
        <time>2017-07-29T11:21:25Z</time>
      </trkpt>
      <trkpt lat="43.8768320158" lon="1.2693959009">
        <ele>112.61</ele>
        <time>2017-07-29T11:21:36Z</time>
      </trkpt>
      <trkpt lat="43.8766856678" lon="1.2693984155">
        <ele>112.61</ele>
        <time>2017-07-29T11:21:39Z</time>
      </trkpt>
      <trkpt lat="43.8760146964" lon="1.2694188673">
        <ele>112.13</ele>
        <time>2017-07-29T11:21:52Z</time>
      </trkpt>
      <trkpt lat="43.8759644888" lon="1.2694226392">
        <ele>112.61</ele>
        <time>2017-07-29T11:21:53Z</time>
      </trkpt>
      <trkpt lat="43.8759147003" lon="1.2694233935">
        <ele>112.13</ele>
        <time>2017-07-29T11:21:54Z</time>
      </trkpt>
      <trkpt lat="43.8758630678" lon="1.2694224715">
        <ele>112.61</ele>
        <time>2017-07-29T11:21:55Z</time>
      </trkpt>
      <trkpt lat="43.8753197528" lon="1.2694440130">
        <ele>112.13</ele>
        <time>2017-07-29T11:22:06Z</time>
      </trkpt>
      <trkpt lat="43.8747364562" lon="1.2694869284">
        <ele>112.13</ele>
        <time>2017-07-29T11:22:18Z</time>
      </trkpt>
      <trkpt lat="43.8744585123" lon="1.2695264071">
        <ele>112.13</ele>
        <time>2017-07-29T11:22:25Z</time>
      </trkpt>
      <trkpt lat="43.8740260899" lon="1.2695844099">
        <ele>112.61</ele>
        <time>2017-07-29T11:22:35Z</time>
      </trkpt>
      <trkpt lat="43.8737572823" lon="1.2696228828">
        <ele>112.61</ele>
        <time>2017-07-29T11:22:41Z</time>
      </trkpt>
      <trkpt lat="43.8737071585" lon="1.2696416583">
        <ele>112.13</ele>
        <time>2017-07-29T11:22:42Z</time>
      </trkpt>
      <trkpt lat="43.8732903264" lon="1.2697761040">
        <ele>112.13</ele>
        <time>2017-07-29T11:22:51Z</time>
      </trkpt>
      <trkpt lat="43.8728256337" lon="1.2699372042">
        <ele>112.13</ele>
        <time>2017-07-29T11:23:01Z</time>
      </trkpt>
      <trkpt lat="43.8724279962" lon="1.2701056805">
        <ele>112.61</ele>
        <time>2017-07-29T11:23:10Z</time>
      </trkpt>
      <trkpt lat="43.8722223882" lon="1.2702034134">
        <ele>112.13</ele>
        <time>2017-07-29T11:23:14Z</time>
      </trkpt>
      <trkpt lat="43.8721684925" lon="1.2702339236">
        <ele>112.13</ele>
        <time>2017-07-29T11:23:15Z</time>
      </trkpt>
      <trkpt lat="43.8721155189" lon="1.2702632602">
        <ele>112.61</ele>
        <time>2017-07-29T11:23:16Z</time>
      </trkpt>
      <trkpt lat="43.8720663171" lon="1.2702896632">
        <ele>112.61</ele>
        <time>2017-07-29T11:23:17Z</time>
      </trkpt>
      <trkpt lat="43.8720213901" lon="1.2703153957">
        <ele>112.61</ele>
        <time>2017-07-29T11:23:18Z</time>
      </trkpt>
      <trkpt lat="43.8719177060" lon="1.2703625020">
        <ele>112.13</ele>
        <time>2017-07-29T11:23:20Z</time>
      </trkpt>
      <trkpt lat="43.8718682528" lon="1.2703819480">
        <ele>112.61</ele>
        <time>2017-07-29T11:23:21Z</time>
      </trkpt>
      <trkpt lat="43.8713464793" lon="1.2706627417">
        <ele>112.61</ele>
        <time>2017-07-29T11:23:32Z</time>
      </trkpt>
      <trkpt lat="43.8709371909" lon="1.2709285319">
        <ele>112.13</ele>
        <time>2017-07-29T11:23:41Z</time>
      </trkpt>
      <trkpt lat="43.8705198560" lon="1.2712269276">
        <ele>112.61</ele>
        <time>2017-07-29T11:23:51Z</time>
      </trkpt>
      <trkpt lat="43.8702114858" lon="1.2714688294">
        <ele>112.61</ele>
        <time>2017-07-29T11:23:59Z</time>
      </trkpt>
      <trkpt lat="43.8700706698" lon="1.2715793867">
        <ele>112.61</ele>
        <time>2017-07-29T11:24:02Z</time>
      </trkpt>
      <trkpt lat="43.8697277661" lon="1.2718696520">
        <ele>112.61</ele>
        <time>2017-07-29T11:24:09Z</time>
      </trkpt>
      <trkpt lat="43.8695188891" lon="1.2720273994">
        <ele>112.61</ele>
        <time>2017-07-29T11:24:14Z</time>
      </trkpt>
      <trkpt lat="43.8694714475" lon="1.2720670458">
        <ele>112.61</ele>
        <time>2017-07-29T11:24:15Z</time>
      </trkpt>
      <trkpt lat="43.8689595647" lon="1.2724795192">
        <ele>112.61</ele>
        <time>2017-07-29T11:24:27Z</time>
      </trkpt>
      <trkpt lat="43.8688746560" lon="1.2725442275">
        <ele>112.61</ele>
        <time>2017-07-29T11:24:29Z</time>
      </trkpt>
      <trkpt lat="43.8688313216" lon="1.2725747377">
        <ele>112.61</ele>
        <time>2017-07-29T11:24:30Z</time>
      </trkpt>
      <trkpt lat="43.8684264757" lon="1.2729131151">
        <ele>112.13</ele>
        <time>2017-07-29T11:24:40Z</time>
      </trkpt>
      <trkpt lat="43.8682134915" lon="1.2730565295">
        <ele>112.61</ele>
        <time>2017-07-29T11:24:46Z</time>
      </trkpt>
      <trkpt lat="43.8677379861" lon="1.2734527420">
        <ele>112.13</ele>
        <time>2017-07-29T11:24:56Z</time>
      </trkpt>
      <trkpt lat="43.8672820106" lon="1.2738297600">
        <ele>112.61</ele>
        <time>2017-07-29T11:25:06Z</time>
      </trkpt>
      <trkpt lat="43.8669441361" lon="1.2741170917">
        <ele>112.61</ele>
        <time>2017-07-29T11:25:14Z</time>
      </trkpt>
      <trkpt lat="43.8665082771" lon="1.2744107097">
        <ele>112.61</ele>
        <time>2017-07-29T11:25:23Z</time>
      </trkpt>
      <trkpt lat="43.8664025813" lon="1.2744549662">
        <ele>112.61</ele>
        <time>2017-07-29T11:25:25Z</time>
      </trkpt>
      <trkpt lat="43.8658828195" lon="1.2748554535">
        <ele>113.09</ele>
        <time>2017-07-29T11:25:36Z</time>
      </trkpt>
      <trkpt lat="43.8654110022" lon="1.2752250116">
        <ele>113.09</ele>
        <time>2017-07-29T11:25:47Z</time>
      </trkpt>
      <trkpt lat="43.8649513386" lon="1.2755960785">
        <ele>113.09</ele>
        <time>2017-07-29T11:25:59Z</time>
      </trkpt>
      <trkpt lat="43.8648702856" lon="1.2756598648">
        <ele>113.09</ele>
        <time>2017-07-29T11:26:01Z</time>
      </trkpt>
      <trkpt lat="43.8648334052" lon="1.2756988406">
        <ele>113.09</ele>
        <time>2017-07-29T11:26:02Z</time>
      </trkpt>
      <trkpt lat="43.8647261169" lon="1.2758208811">
        <ele>113.57</ele>
        <time>2017-07-29T11:26:05Z</time>
      </trkpt>
      <trkpt lat="43.8646923378" lon="1.2758608628">
        <ele>113.09</ele>
        <time>2017-07-29T11:26:06Z</time>
      </trkpt>
      <trkpt lat="43.8644982129" lon="1.2761993241">
        <ele>112.61</ele>
        <time>2017-07-29T11:26:14Z</time>
      </trkpt>
      <trkpt lat="43.8644435629" lon="1.2762372103">
        <ele>112.61</ele>
        <time>2017-07-29T11:26:16Z</time>
      </trkpt>
      <trkpt lat="43.8643992227" lon="1.2762429938">
        <ele>112.61</ele>
        <time>2017-07-29T11:26:17Z</time>
      </trkpt>
      <trkpt lat="43.8643077761" lon="1.2762562372">
        <ele>113.09</ele>
        <time>2017-07-29T11:26:19Z</time>
      </trkpt>
      <trkpt lat="43.8642216101" lon="1.2763025891">
        <ele>113.09</ele>
        <time>2017-07-29T11:26:21Z</time>
      </trkpt>
      <trkpt lat="43.8637364656" lon="1.2766885757">
        <ele>112.61</ele>
        <time>2017-07-29T11:26:33Z</time>
      </trkpt>
      <trkpt lat="43.8633791450" lon="1.2769748177">
        <ele>113.09</ele>
        <time>2017-07-29T11:26:42Z</time>
      </trkpt>
      <trkpt lat="43.8631461281" lon="1.2771754805">
        <ele>113.09</ele>
        <time>2017-07-29T11:26:48Z</time>
      </trkpt>
      <trkpt lat="43.8631088287" lon="1.2772066612">
        <ele>113.09</ele>
        <time>2017-07-29T11:26:49Z</time>
      </trkpt>
      <trkpt lat="43.8628644962" lon="1.2773989420">
        <ele>113.09</ele>
        <time>2017-07-29T11:26:55Z</time>
      </trkpt>
      <trkpt lat="43.8628219999" lon="1.2774294522">
        <ele>113.09</ele>
        <time>2017-07-29T11:26:56Z</time>
      </trkpt>
      <trkpt lat="43.8627802581" lon="1.2774639856">
        <ele>113.09</ele>
        <time>2017-07-29T11:26:57Z</time>
      </trkpt>
      <trkpt lat="43.8627409469" lon="1.2774964236">
        <ele>113.09</ele>
        <time>2017-07-29T11:26:58Z</time>
      </trkpt>
      <trkpt lat="43.8626994565" lon="1.2775261793">
        <ele>113.09</ele>
        <time>2017-07-29T11:26:59Z</time>
      </trkpt>
      <trkpt lat="43.8623516075" lon="1.2778224796">
        <ele>113.09</ele>
        <time>2017-07-29T11:27:08Z</time>
      </trkpt>
      <trkpt lat="43.8618843164" lon="1.2781891879">
        <ele>113.09</ele>
        <time>2017-07-29T11:27:19Z</time>
      </trkpt>
      <trkpt lat="43.8614020217" lon="1.2785348576">
        <ele>113.09</ele>
        <time>2017-07-29T11:27:30Z</time>
      </trkpt>
      <trkpt lat="43.8611418474" lon="1.2787125539">
        <ele>113.09</ele>
        <time>2017-07-29T11:27:36Z</time>
      </trkpt>
      <trkpt lat="43.8611034583" lon="1.2787419744">
        <ele>113.09</ele>
        <time>2017-07-29T11:27:37Z</time>
      </trkpt>
      <trkpt lat="43.8609772269" lon="1.2788191717">
        <ele>113.09</ele>
        <time>2017-07-29T11:27:40Z</time>
      </trkpt>
      <trkpt lat="43.8609360717" lon="1.2788440660">
        <ele>113.09</ele>
        <time>2017-07-29T11:27:41Z</time>
      </trkpt>
      <trkpt lat="43.8608513307" lon="1.2789001409">
        <ele>113.09</ele>
        <time>2017-07-29T11:27:43Z</time>
      </trkpt>
      <trkpt lat="43.8608079962" lon="1.2789266277">
        <ele>113.09</ele>
        <time>2017-07-29T11:27:44Z</time>
      </trkpt>
      <trkpt lat="43.8602945209" lon="1.2792589702">
        <ele>113.09</ele>
        <time>2017-07-29T11:27:56Z</time>
      </trkpt>
      <trkpt lat="43.8602471631" lon="1.2792888097">
        <ele>113.09</ele>
        <time>2017-07-29T11:27:57Z</time>
      </trkpt>
      <trkpt lat="43.8598683011" lon="1.2795426138">
        <ele>113.09</ele>
        <time>2017-07-29T11:28:06Z</time>
      </trkpt>
      <trkpt lat="43.8598311692" lon="1.2795703579">
        <ele>113.57</ele>
        <time>2017-07-29T11:28:07Z</time>
      </trkpt>
      <trkpt lat="43.8593429234" lon="1.2798856851">
        <ele>113.57</ele>
        <time>2017-07-29T11:28:18Z</time>
      </trkpt>
      <trkpt lat="43.8589971699" lon="1.2801228929">
        <ele>113.09</ele>
        <time>2017-07-29T11:28:26Z</time>
      </trkpt>
      <trkpt lat="43.8585094269" lon="1.2804358732">
        <ele>113.09</ele>
        <time>2017-07-29T11:28:37Z</time>
      </trkpt>
      <trkpt lat="43.8581217639" lon="1.2807011604">
        <ele>113.09</ele>
        <time>2017-07-29T11:28:46Z</time>
      </trkpt>
      <trkpt lat="43.8578082807" lon="1.2809100375">
        <ele>113.09</ele>
        <time>2017-07-29T11:28:53Z</time>
      </trkpt>
      <trkpt lat="43.8577620964" lon="1.2809402123">
        <ele>113.09</ele>
        <time>2017-07-29T11:28:54Z</time>
      </trkpt>
      <trkpt lat="43.8573497906" lon="1.2812136300">
        <ele>113.09</ele>
        <time>2017-07-29T11:29:03Z</time>
      </trkpt>
      <trkpt lat="43.8573041931" lon="1.2812392786">
        <ele>113.09</ele>
        <time>2017-07-29T11:29:04Z</time>
      </trkpt>
      <trkpt lat="43.8568300288" lon="1.2815407757">
        <ele>113.09</ele>
        <time>2017-07-29T11:29:15Z</time>
      </trkpt>
      <trkpt lat="43.8567885384" lon="1.2815696094">
        <ele>113.09</ele>
        <time>2017-07-29T11:29:16Z</time>
      </trkpt>
      <trkpt lat="43.8564810064" lon="1.2817663327">
        <ele>113.57</ele>
        <time>2017-07-29T11:29:23Z</time>
      </trkpt>
      <trkpt lat="43.8562662620" lon="1.2819119263">
        <ele>113.09</ele>
        <time>2017-07-29T11:29:28Z</time>
      </trkpt>
      <trkpt lat="43.8557943609" lon="1.2822275888">
        <ele>113.57</ele>
        <time>2017-07-29T11:29:39Z</time>
      </trkpt>
      <trkpt lat="43.8554158341" lon="1.2824689876">
        <ele>113.09</ele>
        <time>2017-07-29T11:29:48Z</time>
      </trkpt>
      <trkpt lat="43.8553743437" lon="1.2824911997">
        <ele>113.09</ele>
        <time>2017-07-29T11:29:49Z</time>
      </trkpt>
      <trkpt lat="43.8548906241" lon="1.2828088738">
        <ele>113.09</ele>
        <time>2017-07-29T11:30:00Z</time>
      </trkpt>
      <trkpt lat="43.8544563577" lon="1.2830845546">
        <ele>113.09</ele>
        <time>2017-07-29T11:30:10Z</time>
      </trkpt>
      <trkpt lat="43.8542753085" lon="1.2832024042">
        <ele>113.09</ele>
        <time>2017-07-29T11:30:14Z</time>
      </trkpt>
      <trkpt lat="43.8542314712" lon="1.2832296453">
        <ele>113.09</ele>
        <time>2017-07-29T11:30:15Z</time>
      </trkpt>
      <trkpt lat="43.8537609950" lon="1.2835491635">
        <ele>113.09</ele>
        <time>2017-07-29T11:30:26Z</time>
      </trkpt>
      <trkpt lat="43.8533196878" lon="1.2838377524">
        <ele>113.09</ele>
        <time>2017-07-29T11:30:36Z</time>
      </trkpt>
      <trkpt lat="43.8532300014" lon="1.2838922348">
        <ele>113.09</ele>
        <time>2017-07-29T11:30:38Z</time>
      </trkpt>
      <trkpt lat="43.8528235629" lon="1.2841780577">
        <ele>113.09</ele>
        <time>2017-07-29T11:30:48Z</time>
      </trkpt>
      <trkpt lat="43.8527492993" lon="1.2842402514">
        <ele>113.09</ele>
        <time>2017-07-29T11:30:50Z</time>
      </trkpt>
      <trkpt lat="43.8522937428" lon="1.2845342886">
        <ele>113.09</ele>
        <time>2017-07-29T11:31:00Z</time>
      </trkpt>
      <trkpt lat="43.8522481453" lon="1.2845661398">
        <ele>113.09</ele>
        <time>2017-07-29T11:31:01Z</time>
      </trkpt>
      <trkpt lat="43.8518040720" lon="1.2848538905">
        <ele>113.09</ele>
        <time>2017-07-29T11:31:11Z</time>
      </trkpt>
      <trkpt lat="43.8512602542" lon="1.2851931062">
        <ele>113.57</ele>
        <time>2017-07-29T11:31:23Z</time>
      </trkpt>
      <trkpt lat="43.8508778717" lon="1.2854345050">
        <ele>113.57</ele>
        <time>2017-07-29T11:31:32Z</time>
      </trkpt>
      <trkpt lat="43.8508406561" lon="1.2854625005">
        <ele>113.57</ele>
        <time>2017-07-29T11:31:33Z</time>
      </trkpt>
      <trkpt lat="43.8504327927" lon="1.2857423723">
        <ele>113.57</ele>
        <time>2017-07-29T11:31:44Z</time>
      </trkpt>
      <trkpt lat="43.8502905518" lon="1.2858643290">
        <ele>113.57</ele>
        <time>2017-07-29T11:31:48Z</time>
      </trkpt>
      <trkpt lat="43.8502515759" lon="1.2858851999">
        <ele>113.57</ele>
        <time>2017-07-29T11:31:49Z</time>
      </trkpt>
      <trkpt lat="43.8498807605" lon="1.2860773969">
        <ele>113.57</ele>
        <time>2017-07-29T11:31:59Z</time>
      </trkpt>
      <trkpt lat="43.8498068321" lon="1.2861419376">
        <ele>113.57</ele>
        <time>2017-07-29T11:32:01Z</time>
      </trkpt>
      <trkpt lat="43.8497666828" lon="1.2861663289">
        <ele>113.57</ele>
        <time>2017-07-29T11:32:02Z</time>
      </trkpt>
      <trkpt lat="43.8497255277" lon="1.2861934025">
        <ele>113.57</ele>
        <time>2017-07-29T11:32:03Z</time>
      </trkpt>
      <trkpt lat="43.8492660318" lon="1.2864891998">
        <ele>114.53</ele>
        <time>2017-07-29T11:32:14Z</time>
      </trkpt>
      <trkpt lat="43.8489371259" lon="1.2867032737">
        <ele>114.53</ele>
        <time>2017-07-29T11:32:23Z</time>
      </trkpt>
      <trkpt lat="43.8486502972" lon="1.2868967280">
        <ele>114.53</ele>
        <time>2017-07-29T11:32:29Z</time>
      </trkpt>
      <trkpt lat="43.8485998381" lon="1.2869295850">
        <ele>114.53</ele>
        <time>2017-07-29T11:32:30Z</time>
      </trkpt>
      <trkpt lat="43.8485488761" lon="1.2869559880">
        <ele>114.53</ele>
        <time>2017-07-29T11:32:31Z</time>
      </trkpt>
      <trkpt lat="43.8484993391" lon="1.2869829778">
        <ele>114.53</ele>
        <time>2017-07-29T11:32:32Z</time>
      </trkpt>
      <trkpt lat="43.8484516460" lon="1.2870139908">
        <ele>114.53</ele>
        <time>2017-07-29T11:32:33Z</time>
      </trkpt>
      <trkpt lat="43.8484036177" lon="1.2870490272">
        <ele>114.53</ele>
        <time>2017-07-29T11:32:34Z</time>
      </trkpt>
      <trkpt lat="43.8483169489" lon="1.2871018331">
        <ele>114.53</ele>
        <time>2017-07-29T11:32:36Z</time>
      </trkpt>
      <trkpt lat="43.8479530066" lon="1.2873429805">
        <ele>114.53</ele>
        <time>2017-07-29T11:32:44Z</time>
      </trkpt>
      <trkpt lat="43.8475309778" lon="1.2876252830">
        <ele>114.53</ele>
        <time>2017-07-29T11:32:53Z</time>
      </trkpt>
      <trkpt lat="43.8473500963" lon="1.2877371814">
        <ele>114.53</ele>
        <time>2017-07-29T11:32:57Z</time>
      </trkpt>
      <trkpt lat="43.8471315801" lon="1.2878852896">
        <ele>114.53</ele>
        <time>2017-07-29T11:33:02Z</time>
      </trkpt>
      <trkpt lat="43.8468389679" lon="1.2880955078">
        <ele>114.53</ele>
        <time>2017-07-29T11:33:09Z</time>
      </trkpt>
      <trkpt lat="43.8464050367" lon="1.2883808278">
        <ele>115.01</ele>
        <time>2017-07-29T11:33:19Z</time>
      </trkpt>
      <trkpt lat="43.8463559188" lon="1.2884110026">
        <ele>115.01</ele>
        <time>2017-07-29T11:33:20Z</time>
      </trkpt>
      <trkpt lat="43.8463073876" lon="1.2884431053">
        <ele>115.01</ele>
        <time>2017-07-29T11:33:21Z</time>
      </trkpt>
      <trkpt lat="43.8458168786" lon="1.2887585163">
        <ele>115.01</ele>
        <time>2017-07-29T11:33:32Z</time>
      </trkpt>
      <trkpt lat="43.8454593904" lon="1.2890031002">
        <ele>115.01</ele>
        <time>2017-07-29T11:33:41Z</time>
      </trkpt>
      <trkpt lat="43.8450370263" lon="1.2892850675">
        <ele>115.01</ele>
        <time>2017-07-29T11:33:51Z</time>
      </trkpt>
      <trkpt lat="43.8449527044" lon="1.2893294916">
        <ele>114.53</ele>
        <time>2017-07-29T11:33:53Z</time>
      </trkpt>
      <trkpt lat="43.8445892651" lon="1.2895432301">
        <ele>115.01</ele>
        <time>2017-07-29T11:34:02Z</time>
      </trkpt>
      <trkpt lat="43.8441017736" lon="1.2898622453">
        <ele>115.01</ele>
        <time>2017-07-29T11:34:13Z</time>
      </trkpt>
      <trkpt lat="43.8437466323" lon="1.2901051529">
        <ele>115.01</ele>
        <time>2017-07-29T11:34:21Z</time>
      </trkpt>
      <trkpt lat="43.8437029626" lon="1.2901337352">
        <ele>115.01</ele>
        <time>2017-07-29T11:34:22Z</time>
      </trkpt>
      <trkpt lat="43.8431103621" lon="1.2905415148">
        <ele>115.01</ele>
        <time>2017-07-29T11:34:36Z</time>
      </trkpt>
      <trkpt lat="43.8427552208" lon="1.2907783035">
        <ele>115.01</ele>
        <time>2017-07-29T11:34:45Z</time>
      </trkpt>
      <trkpt lat="43.8426709827" lon="1.2908318639">
        <ele>115.01</ele>
        <time>2017-07-29T11:34:47Z</time>
      </trkpt>
      <trkpt lat="43.8426308334" lon="1.2908544950">
        <ele>114.53</ele>
        <time>2017-07-29T11:34:48Z</time>
      </trkpt>
      <trkpt lat="43.8421436772" lon="1.2911844067">
        <ele>114.53</ele>
        <time>2017-07-29T11:35:00Z</time>
      </trkpt>
      <trkpt lat="43.8421056233" lon="1.2912146654">
        <ele>114.53</ele>
        <time>2017-07-29T11:35:01Z</time>
      </trkpt>
      <trkpt lat="43.8420681562" lon="1.2912391406">
        <ele>114.53</ele>
        <time>2017-07-29T11:35:02Z</time>
      </trkpt>
      <trkpt lat="43.8420311082" lon="1.2912614364">
        <ele>114.53</ele>
        <time>2017-07-29T11:35:03Z</time>
      </trkpt>
      <trkpt lat="43.8419933058" lon="1.2912890129">
        <ele>114.53</ele>
        <time>2017-07-29T11:35:04Z</time>
      </trkpt>
      <trkpt lat="43.8419523183" lon="1.2913156673">
        <ele>114.53</ele>
        <time>2017-07-29T11:35:05Z</time>
      </trkpt>
      <trkpt lat="43.8419104088" lon="1.2913402263">
        <ele>114.53</ele>
        <time>2017-07-29T11:35:06Z</time>
      </trkpt>
      <trkpt lat="43.8418705110" lon="1.2913684733">
        <ele>115.01</ele>
        <time>2017-07-29T11:35:07Z</time>
      </trkpt>
      <trkpt lat="43.8418299425" lon="1.2913992349">
        <ele>115.01</ele>
        <time>2017-07-29T11:35:08Z</time>
      </trkpt>
      <trkpt lat="43.8417882007" lon="1.2914274819">
        <ele>114.53</ele>
        <time>2017-07-29T11:35:09Z</time>
      </trkpt>
      <trkpt lat="43.8417092431" lon="1.2914837245">
        <ele>114.53</ele>
        <time>2017-07-29T11:35:11Z</time>
      </trkpt>
      <trkpt lat="43.8416742068" lon="1.2915092055">
        <ele>114.53</ele>
        <time>2017-07-29T11:35:12Z</time>
      </trkpt>
      <trkpt lat="43.8416394219" lon="1.2915349379">
        <ele>114.53</ele>
        <time>2017-07-29T11:35:13Z</time>
      </trkpt>
      <trkpt lat="43.8415965904" lon="1.2915566470">
        <ele>115.01</ele>
        <time>2017-07-29T11:35:14Z</time>
      </trkpt>
      <trkpt lat="43.8415526692" lon="1.2915829662">
        <ele>115.01</ele>
        <time>2017-07-29T11:35:15Z</time>
      </trkpt>
      <trkpt lat="43.8412081730" lon="1.2917961180">
        <ele>114.53</ele>
        <time>2017-07-29T11:35:24Z</time>
      </trkpt>
      <trkpt lat="43.8411737233" lon="1.2918220181">
        <ele>114.05</ele>
        <time>2017-07-29T11:35:25Z</time>
      </trkpt>
      <trkpt lat="43.8411389384" lon="1.2918458227">
        <ele>114.05</ele>
        <time>2017-07-29T11:35:26Z</time>
      </trkpt>
      <trkpt lat="43.8407344278" lon="1.2921064161">
        <ele>114.53</ele>
        <time>2017-07-29T11:35:37Z</time>
      </trkpt>
      <trkpt lat="43.8406167459" lon="1.2921940070">
        <ele>114.53</ele>
        <time>2017-07-29T11:35:40Z</time>
      </trkpt>
      <trkpt lat="43.8405786920" lon="1.2922241818">
        <ele>114.53</ele>
        <time>2017-07-29T11:35:41Z</time>
      </trkpt>
      <trkpt lat="43.8404995669" lon="1.2922740541">
        <ele>114.53</ele>
        <time>2017-07-29T11:35:43Z</time>
      </trkpt>
      <trkpt lat="43.8404562324" lon="1.2922992837">
        <ele>114.53</ele>
        <time>2017-07-29T11:35:44Z</time>
      </trkpt>
      <trkpt lat="43.8400857523" lon="1.2925333064">
        <ele>114.53</ele>
        <time>2017-07-29T11:35:53Z</time>
      </trkpt>
      <trkpt lat="43.8400046993" lon="1.2925878726">
        <ele>114.53</ele>
        <time>2017-07-29T11:35:55Z</time>
      </trkpt>
      <trkpt lat="43.8399307709" lon="1.2926450372">
        <ele>114.53</ele>
        <time>2017-07-29T11:35:57Z</time>
      </trkpt>
      <trkpt lat="43.8397249114" lon="1.2927801535">
        <ele>114.05</ele>
        <time>2017-07-29T11:36:02Z</time>
      </trkpt>
      <trkpt lat="43.8393105101" lon="1.2930760346">
        <ele>113.57</ele>
        <time>2017-07-29T11:36:13Z</time>
      </trkpt>
      <trkpt lat="43.8389760721" lon="1.2934030965">
        <ele>113.57</ele>
        <time>2017-07-29T11:36:24Z</time>
      </trkpt>
      <trkpt lat="43.8388996292" lon="1.2934438325">
        <ele>113.09</ele>
        <time>2017-07-29T11:36:27Z</time>
      </trkpt>
      <trkpt lat="43.8388655987" lon="1.2934447546">
        <ele>113.09</ele>
        <time>2017-07-29T11:36:28Z</time>
      </trkpt>
      <trkpt lat="43.8388298918" lon="1.2934440002">
        <ele>113.09</ele>
        <time>2017-07-29T11:36:29Z</time>
      </trkpt>
      <trkpt lat="43.8387936819" lon="1.2934540585">
        <ele>113.09</ele>
        <time>2017-07-29T11:36:30Z</time>
      </trkpt>
      <trkpt lat="43.8387568854" lon="1.2934716605">
        <ele>113.09</ele>
        <time>2017-07-29T11:36:31Z</time>
      </trkpt>
      <trkpt lat="43.8383763470" lon="1.2936761789">
        <ele>114.05</ele>
        <time>2017-07-29T11:36:42Z</time>
      </trkpt>
      <trkpt lat="43.8380538952" lon="1.2938941922">
        <ele>114.53</ele>
        <time>2017-07-29T11:36:52Z</time>
      </trkpt>
      <trkpt lat="43.8377817348" lon="1.2940702960">
        <ele>115.01</ele>
        <time>2017-07-29T11:37:00Z</time>
      </trkpt>
      <trkpt lat="43.8375095744" lon="1.2942563742">
        <ele>115.01</ele>
        <time>2017-07-29T11:37:07Z</time>
      </trkpt>
      <trkpt lat="43.8374740351" lon="1.2942832801">
        <ele>115.01</ele>
        <time>2017-07-29T11:37:08Z</time>
      </trkpt>
      <trkpt lat="43.8371917326" lon="1.2944699451">
        <ele>114.53</ele>
        <time>2017-07-29T11:37:15Z</time>
      </trkpt>
      <trkpt lat="43.8371501584" lon="1.2944918219">
        <ele>115.01</ele>
        <time>2017-07-29T11:37:16Z</time>
      </trkpt>
      <trkpt lat="43.8367032353" lon="1.2947940733">
        <ele>115.01</ele>
        <time>2017-07-29T11:37:26Z</time>
      </trkpt>
      <trkpt lat="43.8364663627" lon="1.2949379906">
        <ele>115.01</ele>
        <time>2017-07-29T11:37:31Z</time>
      </trkpt>
      <trkpt lat="43.8363441546" lon="1.2950645573">
        <ele>115.01</ele>
        <time>2017-07-29T11:37:34Z</time>
      </trkpt>
      <trkpt lat="43.8363032509" lon="1.2951132562">
        <ele>114.53</ele>
        <time>2017-07-29T11:37:35Z</time>
      </trkpt>
      <trkpt lat="43.8362557255" lon="1.2951537408">
        <ele>115.01</ele>
        <time>2017-07-29T11:37:36Z</time>
      </trkpt>
      <trkpt lat="43.8362069428" lon="1.2951855082">
        <ele>114.05</ele>
        <time>2017-07-29T11:37:37Z</time>
      </trkpt>
      <trkpt lat="43.8361642789" lon="1.2952106539">
        <ele>114.53</ele>
        <time>2017-07-29T11:37:38Z</time>
      </trkpt>
      <trkpt lat="43.8361280691" lon="1.2952284236">
        <ele>114.05</ele>
        <time>2017-07-29T11:37:39Z</time>
      </trkpt>
      <trkpt lat="43.8360879198" lon="1.2952301838">
        <ele>114.53</ele>
        <time>2017-07-29T11:37:40Z</time>
      </trkpt>
      <trkpt lat="43.8360520452" lon="1.2952371407">
        <ele>114.53</ele>
        <time>2017-07-29T11:37:41Z</time>
      </trkpt>
      <trkpt lat="43.8360168412" lon="1.2952544075">
        <ele>115.01</ele>
        <time>2017-07-29T11:37:42Z</time>
      </trkpt>
      <trkpt lat="43.8356120791" lon="1.2955212034">
        <ele>115.01</ele>
        <time>2017-07-29T11:37:52Z</time>
      </trkpt>
      <trkpt lat="43.8355337083" lon="1.2955773622">
        <ele>115.01</ele>
        <time>2017-07-29T11:37:54Z</time>
      </trkpt>
      <trkpt lat="43.8354909606" lon="1.2956081238">
        <ele>115.01</ele>
        <time>2017-07-29T11:37:55Z</time>
      </trkpt>
      <trkpt lat="43.8349364977" lon="1.2959729042">
        <ele>115.01</ele>
        <time>2017-07-29T11:38:07Z</time>
      </trkpt>
      <trkpt lat="43.8345156424" lon="1.2962466571">
        <ele>115.01</ele>
        <time>2017-07-29T11:38:16Z</time>
      </trkpt>
      <trkpt lat="43.8344707992" lon="1.2962830346">
        <ele>115.01</ele>
        <time>2017-07-29T11:38:17Z</time>
      </trkpt>
      <trkpt lat="43.8339667115" lon="1.2966259383">
        <ele>115.01</ele>
        <time>2017-07-29T11:38:28Z</time>
      </trkpt>
      <trkpt lat="43.8334676530" lon="1.2969571073">
        <ele>115.01</ele>
        <time>2017-07-29T11:38:39Z</time>
      </trkpt>
      <trkpt lat="43.8328711968" lon="1.2973585166">
        <ele>115.01</ele>
        <time>2017-07-29T11:38:52Z</time>
      </trkpt>
      <trkpt lat="43.8326404430" lon="1.2975098100">
        <ele>114.53</ele>
        <time>2017-07-29T11:38:57Z</time>
      </trkpt>
      <trkpt lat="43.8325944263" lon="1.2975373864">
        <ele>114.53</ele>
        <time>2017-07-29T11:38:58Z</time>
      </trkpt>
      <trkpt lat="43.8324469049" lon="1.2976313476">
        <ele>114.53</ele>
        <time>2017-07-29T11:39:01Z</time>
      </trkpt>
      <trkpt lat="43.8323982060" lon="1.2976588402">
        <ele>114.53</ele>
        <time>2017-07-29T11:39:02Z</time>
      </trkpt>
      <trkpt lat="43.8317996543" lon="1.2980405521">
        <ele>114.05</ele>
        <time>2017-07-29T11:39:14Z</time>
      </trkpt>
      <trkpt lat="43.8312524837" lon="1.2984236050">
        <ele>114.05</ele>
        <time>2017-07-29T11:39:25Z</time>
      </trkpt>
      <trkpt lat="43.8307418581" lon="1.2987687718">
        <ele>114.05</ele>
        <time>2017-07-29T11:39:35Z</time>
      </trkpt>
      <trkpt lat="43.8300622534" lon="1.2992322911">
        <ele>114.05</ele>
        <time>2017-07-29T11:39:49Z</time>
      </trkpt>
      <trkpt lat="43.8294750173" lon="1.2996418308">
        <ele>114.05</ele>
        <time>2017-07-29T11:40:02Z</time>
      </trkpt>
      <trkpt lat="43.8289567642" lon="1.3000050187">
        <ele>114.05</ele>
        <time>2017-07-29T11:40:14Z</time>
      </trkpt>
      <trkpt lat="43.8287227415" lon="1.3001373690">
        <ele>114.05</ele>
        <time>2017-07-29T11:40:19Z</time>
      </trkpt>
      <trkpt lat="43.8286804128" lon="1.3001734111">
        <ele>114.05</ele>
        <time>2017-07-29T11:40:20Z</time>
      </trkpt>
      <trkpt lat="43.8286389224" lon="1.3002128899">
        <ele>114.05</ele>
        <time>2017-07-29T11:40:21Z</time>
      </trkpt>
      <trkpt lat="43.8285529241" lon="1.3002931047">
        <ele>114.05</ele>
        <time>2017-07-29T11:40:23Z</time>
      </trkpt>
      <trkpt lat="43.8284235075" lon="1.3004267123">
        <ele>114.05</ele>
        <time>2017-07-29T11:40:26Z</time>
      </trkpt>
      <trkpt lat="43.8283778261" lon="1.3004547916">
        <ele>114.05</ele>
        <time>2017-07-29T11:40:27Z</time>
      </trkpt>
      <trkpt lat="43.8279845472" lon="1.3006354216">
        <ele>114.53</ele>
        <time>2017-07-29T11:40:36Z</time>
      </trkpt>
      <trkpt lat="43.8275428209" lon="1.3009167183">
        <ele>114.53</ele>
        <time>2017-07-29T11:40:46Z</time>
      </trkpt>
      <trkpt lat="43.8274941221" lon="1.3009260222">
        <ele>114.53</ele>
        <time>2017-07-29T11:40:47Z</time>
      </trkpt>
      <trkpt lat="43.8274476025" lon="1.3009235915">
        <ele>114.53</ele>
        <time>2017-07-29T11:40:48Z</time>
      </trkpt>
      <trkpt lat="43.8274038490" lon="1.3009103481">
        <ele>114.53</ele>
        <time>2017-07-29T11:40:49Z</time>
      </trkpt>
      <trkpt lat="43.8273636997" lon="1.3009004574">
        <ele>114.53</ele>
        <time>2017-07-29T11:40:50Z</time>
      </trkpt>
      <trkpt lat="43.8273258135" lon="1.3008965179">
        <ele>114.53</ele>
        <time>2017-07-29T11:40:51Z</time>
      </trkpt>
      <trkpt lat="43.8272909448" lon="1.3009061571">
        <ele>114.53</ele>
        <time>2017-07-29T11:40:52Z</time>
      </trkpt>
      <trkpt lat="43.8272557408" lon="1.3009245973">
        <ele>114.53</ele>
        <time>2017-07-29T11:40:53Z</time>
      </trkpt>
      <trkpt lat="43.8271501288" lon="1.3009919040">
        <ele>114.53</ele>
        <time>2017-07-29T11:40:56Z</time>
      </trkpt>
      <trkpt lat="43.8269452751" lon="1.3011229970">
        <ele>114.53</ele>
        <time>2017-07-29T11:41:01Z</time>
      </trkpt>
      <trkpt lat="43.8269048743" lon="1.3011524174">
        <ele>114.53</ele>
        <time>2017-07-29T11:41:02Z</time>
      </trkpt>
      <trkpt lat="43.8264851086" lon="1.3014068920">
        <ele>114.05</ele>
        <time>2017-07-29T11:41:13Z</time>
      </trkpt>
      <trkpt lat="43.8262317237" lon="1.3015399128">
        <ele>114.53</ele>
        <time>2017-07-29T11:41:20Z</time>
      </trkpt>
      <trkpt lat="43.8258707151" lon="1.3017480355">
        <ele>114.53</ele>
        <time>2017-07-29T11:41:29Z</time>
      </trkpt>
      <trkpt lat="43.8258273806" lon="1.3017616142">
        <ele>114.53</ele>
        <time>2017-07-29T11:41:30Z</time>
      </trkpt>
      <trkpt lat="43.8257873151" lon="1.3017813955">
        <ele>114.53</ele>
        <time>2017-07-29T11:41:31Z</time>
      </trkpt>
      <trkpt lat="43.8257508539" lon="1.3018098939">
        <ele>114.53</ele>
        <time>2017-07-29T11:41:32Z</time>
      </trkpt>
      <trkpt lat="43.8257188350" lon="1.3018472772">
        <ele>114.53</ele>
        <time>2017-07-29T11:41:33Z</time>
      </trkpt>
      <trkpt lat="43.8256941922" lon="1.3018961437">
        <ele>114.53</ele>
        <time>2017-07-29T11:41:34Z</time>
      </trkpt>
      <trkpt lat="43.8256755006" lon="1.3019500393">
        <ele>114.53</ele>
        <time>2017-07-29T11:41:35Z</time>
      </trkpt>
      <trkpt lat="43.8256579824" lon="1.3020056114">
        <ele>114.53</ele>
        <time>2017-07-29T11:41:36Z</time>
      </trkpt>
      <trkpt lat="43.8256366923" lon="1.3020598423">
        <ele>115.01</ele>
        <time>2017-07-29T11:41:37Z</time>
      </trkpt>
      <trkpt lat="43.8256120495" lon="1.3021129835">
        <ele>114.53</ele>
        <time>2017-07-29T11:41:38Z</time>
      </trkpt>
      <trkpt lat="43.8255838025" lon="1.3021626882">
        <ele>114.05</ele>
        <time>2017-07-29T11:41:39Z</time>
      </trkpt>
      <trkpt lat="43.8255498558" lon="1.3022075314">
        <ele>114.05</ele>
        <time>2017-07-29T11:41:40Z</time>
      </trkpt>
      <trkpt lat="43.8255112991" lon="1.3022457529">
        <ele>114.05</ele>
        <time>2017-07-29T11:41:41Z</time>
      </trkpt>
      <trkpt lat="43.8254696410" lon="1.3022781909">
        <ele>114.05</ele>
        <time>2017-07-29T11:41:42Z</time>
      </trkpt>
      <trkpt lat="43.8250818942" lon="1.3024920132">
        <ele>114.05</ele>
        <time>2017-07-29T11:41:52Z</time>
      </trkpt>
      <trkpt lat="43.8245830033" lon="1.3027793448">
        <ele>113.57</ele>
        <time>2017-07-29T11:42:04Z</time>
      </trkpt>
      <trkpt lat="43.8240142912" lon="1.3031130284">
        <ele>114.05</ele>
        <time>2017-07-29T11:42:17Z</time>
      </trkpt>
      <trkpt lat="43.8239282090" lon="1.3031613082">
        <ele>114.05</ele>
        <time>2017-07-29T11:42:19Z</time>
      </trkpt>
      <trkpt lat="43.8237909973" lon="1.3032396790">
        <ele>113.57</ele>
        <time>2017-07-29T11:42:22Z</time>
      </trkpt>
      <trkpt lat="43.8237453159" lon="1.3032673392">
        <ele>114.05</ele>
        <time>2017-07-29T11:42:23Z</time>
      </trkpt>
      <trkpt lat="43.8232564833" lon="1.3035450317">
        <ele>114.05</ele>
        <time>2017-07-29T11:42:34Z</time>
      </trkpt>
      <trkpt lat="43.8232123107" lon="1.3035693392">
        <ele>114.05</ele>
        <time>2017-07-29T11:42:35Z</time>
      </trkpt>
      <trkpt lat="43.8231676351" lon="1.3035955746">
        <ele>113.57</ele>
        <time>2017-07-29T11:42:36Z</time>
      </trkpt>
      <trkpt lat="43.8229859155" lon="1.3036908768">
        <ele>114.05</ele>
        <time>2017-07-29T11:42:40Z</time>
      </trkpt>
      <trkpt lat="43.8225325383" lon="1.3039425854">
        <ele>114.05</ele>
        <time>2017-07-29T11:42:50Z</time>
      </trkpt>
      <trkpt lat="43.8224864379" lon="1.3039672282">
        <ele>114.05</ele>
        <time>2017-07-29T11:42:51Z</time>
      </trkpt>
      <trkpt lat="43.8222693466" lon="1.3041034341">
        <ele>114.05</ele>
        <time>2017-07-29T11:42:56Z</time>
      </trkpt>
      <trkpt lat="43.8222285267" lon="1.3041383866">
        <ele>114.05</ele>
        <time>2017-07-29T11:42:57Z</time>
      </trkpt>
      <trkpt lat="43.8221903052" lon="1.3041785359">
        <ele>113.57</ele>
        <time>2017-07-29T11:42:58Z</time>
      </trkpt>
      <trkpt lat="43.8220822625" lon="1.3043038454">
        <ele>113.57</ele>
        <time>2017-07-29T11:43:01Z</time>
      </trkpt>
      <trkpt lat="43.8220035564" lon="1.3043545559">
        <ele>113.57</ele>
        <time>2017-07-29T11:43:03Z</time>
      </trkpt>
      <trkpt lat="43.8219597191" lon="1.3043588307">
        <ele>113.57</ele>
        <time>2017-07-29T11:43:04Z</time>
      </trkpt>
      <trkpt lat="43.8218715414" lon="1.3043662906">
        <ele>113.57</ele>
        <time>2017-07-29T11:43:06Z</time>
      </trkpt>
      <trkpt lat="43.8218281232" lon="1.3043842278">
        <ele>113.57</ele>
        <time>2017-07-29T11:43:07Z</time>
      </trkpt>
      <trkpt lat="43.8217852917" lon="1.3044053502">
        <ele>113.57</ele>
        <time>2017-07-29T11:43:08Z</time>
      </trkpt>
      <trkpt lat="43.8217422087" lon="1.3044263888">
        <ele>113.57</ele>
        <time>2017-07-29T11:43:09Z</time>
      </trkpt>
      <trkpt lat="43.8217012212" lon="1.3044491038">
        <ele>113.57</ele>
        <time>2017-07-29T11:43:10Z</time>
      </trkpt>
      <trkpt lat="43.8216590602" lon="1.3044686336">
        <ele>114.05</ele>
        <time>2017-07-29T11:43:11Z</time>
      </trkpt>
      <trkpt lat="43.8216147199" lon="1.3044933602">
        <ele>113.57</ele>
        <time>2017-07-29T11:43:12Z</time>
      </trkpt>
      <trkpt lat="43.8215689547" lon="1.3045206852">
        <ele>113.57</ele>
        <time>2017-07-29T11:43:13Z</time>
      </trkpt>
      <trkpt lat="43.8212955371" lon="1.3046759181">
        <ele>114.05</ele>
        <time>2017-07-29T11:43:19Z</time>
      </trkpt>
      <trkpt lat="43.8212534599" lon="1.3047074340">
        <ele>114.05</ele>
        <time>2017-07-29T11:43:20Z</time>
      </trkpt>
      <trkpt lat="43.8206679001" lon="1.3050131220">
        <ele>113.57</ele>
        <time>2017-07-29T11:43:32Z</time>
      </trkpt>
      <trkpt lat="43.8201540057" lon="1.3054796588">
        <ele>113.57</ele>
        <time>2017-07-29T11:43:44Z</time>
      </trkpt>
      <trkpt lat="43.8199775666" lon="1.3057236560">
        <ele>114.05</ele>
        <time>2017-07-29T11:43:49Z</time>
      </trkpt>
      <trkpt lat="43.8196359202" lon="1.3062361255">
        <ele>113.57</ele>
        <time>2017-07-29T11:43:59Z</time>
      </trkpt>
      <trkpt lat="43.8192425575" lon="1.3068428077">
        <ele>113.57</ele>
        <time>2017-07-29T11:44:11Z</time>
      </trkpt>
      <trkpt lat="43.8188878354" lon="1.3073930796">
        <ele>113.57</ele>
        <time>2017-07-29T11:44:22Z</time>
      </trkpt>
      <trkpt lat="43.8184732664" lon="1.3080244046">
        <ele>113.57</ele>
        <time>2017-07-29T11:44:34Z</time>
      </trkpt>
      <trkpt lat="43.8180634752" lon="1.3086372055">
        <ele>113.57</ele>
        <time>2017-07-29T11:44:46Z</time>
      </trkpt>
      <trkpt lat="43.8179932348" lon="1.3087366987">
        <ele>113.57</ele>
        <time>2017-07-29T11:44:48Z</time>
      </trkpt>
      <trkpt lat="43.8175941724" lon="1.3093426265">
        <ele>113.57</ele>
        <time>2017-07-29T11:45:00Z</time>
      </trkpt>
      <trkpt lat="43.8173070084" lon="1.3097485621">
        <ele>113.57</ele>
        <time>2017-07-29T11:45:09Z</time>
      </trkpt>
      <trkpt lat="43.8168194331" lon="1.3103685714">
        <ele>113.57</ele>
        <time>2017-07-29T11:45:22Z</time>
      </trkpt>
      <trkpt lat="43.8162808120" lon="1.3109610043">
        <ele>113.57</ele>
        <time>2017-07-29T11:45:36Z</time>
      </trkpt>
      <trkpt lat="43.8157759700" lon="1.3114820234">
        <ele>113.57</ele>
        <time>2017-07-29T11:45:49Z</time>
      </trkpt>
      <trkpt lat="43.8152413722" lon="1.3120405935">
        <ele>114.05</ele>
        <time>2017-07-29T11:46:03Z</time>
      </trkpt>
      <trkpt lat="43.8150069304" lon="1.3122879434">
        <ele>114.05</ele>
        <time>2017-07-29T11:46:09Z</time>
      </trkpt>
      <trkpt lat="43.8148697186" lon="1.3124518935">
        <ele>113.57</ele>
        <time>2017-07-29T11:46:13Z</time>
      </trkpt>
      <trkpt lat="43.8147133123" lon="1.3125974033">
        <ele>113.57</ele>
        <time>2017-07-29T11:46:17Z</time>
      </trkpt>
      <trkpt lat="43.8146742526" lon="1.3126297574">
        <ele>113.57</ele>
        <time>2017-07-29T11:46:18Z</time>
      </trkpt>
      <trkpt lat="43.8146365341" lon="1.3126663864">
        <ele>114.05</ele>
        <time>2017-07-29T11:46:19Z</time>
      </trkpt>
      <trkpt lat="43.8144175150" lon="1.3128937874">
        <ele>113.57</ele>
        <time>2017-07-29T11:46:25Z</time>
      </trkpt>
      <trkpt lat="43.8142684009" lon="1.3130473439">
        <ele>113.57</ele>
        <time>2017-07-29T11:46:29Z</time>
      </trkpt>
      <trkpt lat="43.8142321911" lon="1.3130827155">
        <ele>113.57</ele>
        <time>2017-07-29T11:46:30Z</time>
      </trkpt>
      <trkpt lat="43.8141966518" lon="1.3131246250">
        <ele>114.05</ele>
        <time>2017-07-29T11:46:31Z</time>
      </trkpt>
      <trkpt lat="43.8141605258" lon="1.3131677918">
        <ele>113.57</ele>
        <time>2017-07-29T11:46:32Z</time>
      </trkpt>
      <trkpt lat="43.8141202088" lon="1.3132045045">
        <ele>113.57</ele>
        <time>2017-07-29T11:46:33Z</time>
      </trkpt>
      <trkpt lat="43.8137133513" lon="1.3136317302">
        <ele>113.57</ele>
        <time>2017-07-29T11:46:44Z</time>
      </trkpt>
      <trkpt lat="43.8131884765" lon="1.3141606282">
        <ele>113.57</ele>
        <time>2017-07-29T11:46:58Z</time>
      </trkpt>
      <trkpt lat="43.8128988817" lon="1.3144708425">
        <ele>113.57</ele>
        <time>2017-07-29T11:47:06Z</time>
      </trkpt>
      <trkpt lat="43.8124610111" lon="1.3149292488">
        <ele>113.09</ele>
        <time>2017-07-29T11:47:19Z</time>
      </trkpt>
      <trkpt lat="43.8120994158" lon="1.3153001480">
        <ele>113.57</ele>
        <time>2017-07-29T11:47:29Z</time>
      </trkpt>
      <trkpt lat="43.8120632898" lon="1.3153426442">
        <ele>113.57</ele>
        <time>2017-07-29T11:47:30Z</time>
      </trkpt>
      <trkpt lat="43.8118331227" lon="1.3155820314">
        <ele>113.57</ele>
        <time>2017-07-29T11:47:36Z</time>
      </trkpt>
      <trkpt lat="43.8113874570" lon="1.3160580397">
        <ele>113.57</ele>
        <time>2017-07-29T11:47:48Z</time>
      </trkpt>
      <trkpt lat="43.8112128619" lon="1.3162415195">
        <ele>113.57</ele>
        <time>2017-07-29T11:47:53Z</time>
      </trkpt>
      <trkpt lat="43.8111751433" lon="1.3162858598">
        <ele>113.57</ele>
        <time>2017-07-29T11:47:54Z</time>
      </trkpt>
      <trkpt lat="43.8110945094" lon="1.3163770549">
        <ele>113.57</ele>
        <time>2017-07-29T11:47:56Z</time>
      </trkpt>
      <trkpt lat="43.8106030785" lon="1.3168909494">
        <ele>113.57</ele>
        <time>2017-07-29T11:48:07Z</time>
      </trkpt>
      <trkpt lat="43.8101701532" lon="1.3173487689">
        <ele>113.57</ele>
        <time>2017-07-29T11:48:17Z</time>
      </trkpt>
      <trkpt lat="43.8096529059" lon="1.3178824447">
        <ele>114.05</ele>
        <time>2017-07-29T11:48:29Z</time>
      </trkpt>
      <trkpt lat="43.8091799151" lon="1.3183721155">
        <ele>113.57</ele>
        <time>2017-07-29T11:48:41Z</time>
      </trkpt>
      <trkpt lat="43.8091419451" lon="1.3184090797">
        <ele>113.57</ele>
        <time>2017-07-29T11:48:42Z</time>
      </trkpt>
      <trkpt lat="43.8089068327" lon="1.3186503947">
        <ele>113.57</ele>
        <time>2017-07-29T11:48:48Z</time>
      </trkpt>
      <trkpt lat="43.8088681921" lon="1.3186984230">
        <ele>113.57</ele>
        <time>2017-07-29T11:48:49Z</time>
      </trkpt>
      <trkpt lat="43.8082882483" lon="1.3193196058">
        <ele>113.57</ele>
        <time>2017-07-29T11:49:03Z</time>
      </trkpt>
      <trkpt lat="43.8076827396" lon="1.3199323229">
        <ele>114.05</ele>
        <time>2017-07-29T11:49:17Z</time>
      </trkpt>
      <trkpt lat="43.8075558376" lon="1.3200736418">
        <ele>113.57</ele>
        <time>2017-07-29T11:49:20Z</time>
      </trkpt>
      <trkpt lat="43.8071003649" lon="1.3205462135">
        <ele>113.57</ele>
        <time>2017-07-29T11:49:31Z</time>
      </trkpt>
      <trkpt lat="43.8066023961" lon="1.3210597727">
        <ele>113.57</ele>
        <time>2017-07-29T11:49:44Z</time>
      </trkpt>
      <trkpt lat="43.8063672837" lon="1.3213316817">
        <ele>114.05</ele>
        <time>2017-07-29T11:49:51Z</time>
      </trkpt>
      <trkpt lat="43.8061086182" lon="1.3215779420">
        <ele>113.57</ele>
        <time>2017-07-29T11:49:58Z</time>
      </trkpt>
      <trkpt lat="43.8057241403" lon="1.3219363522">
        <ele>113.57</ele>
        <time>2017-07-29T11:50:08Z</time>
      </trkpt>
      <trkpt lat="43.8053746149" lon="1.3222650904">
        <ele>113.57</ele>
        <time>2017-07-29T11:50:18Z</time>
      </trkpt>
      <trkpt lat="43.8049616385" lon="1.3226609677">
        <ele>113.57</ele>
        <time>2017-07-29T11:50:29Z</time>
      </trkpt>
      <trkpt lat="43.8045928348" lon="1.3230064698">
        <ele>114.05</ele>
        <time>2017-07-29T11:50:38Z</time>
      </trkpt>
      <trkpt lat="43.8043098617" lon="1.3232776243">
        <ele>114.05</ele>
        <time>2017-07-29T11:50:46Z</time>
      </trkpt>
      <trkpt lat="43.8041188382" lon="1.3234774489">
        <ele>113.57</ele>
        <time>2017-07-29T11:50:51Z</time>
      </trkpt>
      <trkpt lat="43.8037229609" lon="1.3238834683">
        <ele>113.57</ele>
        <time>2017-07-29T11:51:00Z</time>
      </trkpt>
      <trkpt lat="43.8033536542" lon="1.3242492545">
        <ele>113.57</ele>
        <time>2017-07-29T11:51:09Z</time>
      </trkpt>
      <trkpt lat="43.8032698352" lon="1.3243315648">
        <ele>113.57</ele>
        <time>2017-07-29T11:51:11Z</time>
      </trkpt>
      <trkpt lat="43.8028012868" lon="1.3247782364">
        <ele>113.57</ele>
        <time>2017-07-29T11:51:22Z</time>
      </trkpt>
      <trkpt lat="43.8027588744" lon="1.3248214033">
        <ele>113.57</ele>
        <time>2017-07-29T11:51:23Z</time>
      </trkpt>
      <trkpt lat="43.8027141150" lon="1.3248644862">
        <ele>113.57</ele>
        <time>2017-07-29T11:51:24Z</time>
      </trkpt>
      <trkpt lat="43.8023010548" lon="1.3252586033">
        <ele>113.57</ele>
        <time>2017-07-29T11:51:33Z</time>
      </trkpt>
      <trkpt lat="43.8017154112" lon="1.3258501142">
        <ele>113.57</ele>
        <time>2017-07-29T11:51:45Z</time>
      </trkpt>
      <trkpt lat="43.8012026064" lon="1.3263612427">
        <ele>113.57</ele>
        <time>2017-07-29T11:51:56Z</time>
      </trkpt>
      <trkpt lat="43.8008260075" lon="1.3267349917">
        <ele>113.57</ele>
        <time>2017-07-29T11:52:04Z</time>
      </trkpt>
      <trkpt lat="43.8003216684" lon="1.3272155263">
        <ele>113.57</ele>
        <time>2017-07-29T11:52:15Z</time>
      </trkpt>
      <trkpt lat="43.7998348475" lon="1.3276808895">
        <ele>113.57</ele>
        <time>2017-07-29T11:52:26Z</time>
      </trkpt>
      <trkpt lat="43.7993975636" lon="1.3281004876">
        <ele>113.57</ele>
        <time>2017-07-29T11:52:36Z</time>
      </trkpt>
      <trkpt lat="43.7990008481" lon="1.3284941856">
        <ele>113.57</ele>
        <time>2017-07-29T11:52:46Z</time>
      </trkpt>
      <trkpt lat="43.7985408492" lon="1.3289542682">
        <ele>113.57</ele>
        <time>2017-07-29T11:52:58Z</time>
      </trkpt>
      <trkpt lat="43.7982136197" lon="1.3292376604">
        <ele>114.53</ele>
        <time>2017-07-29T11:53:08Z</time>
      </trkpt>
      <trkpt lat="43.7979939301" lon="1.3294394128">
        <ele>116.94</ele>
        <time>2017-07-29T11:53:18Z</time>
      </trkpt>
      <trkpt lat="43.7978957780" lon="1.3295788877">
        <ele>116.46</ele>
        <time>2017-07-29T11:53:25Z</time>
      </trkpt>
      <trkpt lat="43.7978935987" lon="1.3295980822">
        <ele>115.98</ele>
        <time>2017-07-29T11:53:26Z</time>
      </trkpt>
      <trkpt lat="43.7979015615" lon="1.3296180312">
        <ele>115.98</ele>
        <time>2017-07-29T11:53:27Z</time>
      </trkpt>
      <trkpt lat="43.7979055848" lon="1.3296394050">
        <ele>115.98</ele>
        <time>2017-07-29T11:53:28Z</time>
      </trkpt>
      <trkpt lat="43.7979087699" lon="1.3296608627">
        <ele>115.98</ele>
        <time>2017-07-29T11:53:29Z</time>
      </trkpt>
      <trkpt lat="43.7978897430" lon="1.3297088072">
        <ele>116.46</ele>
        <time>2017-07-29T11:53:38Z</time>
      </trkpt>
      <trkpt lat="43.7978588976" lon="1.3297491241">
        <ele>115.98</ele>
        <time>2017-07-29T11:53:59Z</time>
      </trkpt>
      <trkpt lat="43.7978296448" lon="1.3297513872">
        <ele>115.98</ele>
        <time>2017-07-29T11:54:10Z</time>
      </trkpt>
      <trkpt lat="43.7978184968" lon="1.3297574222">
        <ele>115.98</ele>
        <time>2017-07-29T11:54:11Z</time>
      </trkpt>
      <trkpt lat="43.7978086900" lon="1.3297659718">
        <ele>115.98</ele>
        <time>2017-07-29T11:54:12Z</time>
      </trkpt>
      <trkpt lat="43.7977945246" lon="1.3297727611">
        <ele>115.98</ele>
        <time>2017-07-29T11:54:13Z</time>
      </trkpt>
      <trkpt lat="43.7977787666" lon="1.3297826517">
        <ele>115.98</ele>
        <time>2017-07-29T11:54:14Z</time>
      </trkpt>
      <trkpt lat="43.7977640983" lon="1.3297979906">
        <ele>115.98</ele>
        <time>2017-07-29T11:54:15Z</time>
      </trkpt>
      <trkpt lat="43.7977516931" lon="1.3298161794">
        <ele>115.98</ele>
        <time>2017-07-29T11:54:16Z</time>
      </trkpt>
      <trkpt lat="43.7977391202" lon="1.3298339490">
        <ele>115.98</ele>
        <time>2017-07-29T11:54:17Z</time>
      </trkpt>
      <trkpt lat="43.7977259606" lon="1.3298505452">
        <ele>115.98</ele>
        <time>2017-07-29T11:54:18Z</time>
      </trkpt>
      <trkpt lat="43.7977140583" lon="1.3298663870">
        <ele>115.98</ele>
        <time>2017-07-29T11:54:19Z</time>
      </trkpt>
      <trkpt lat="43.7976744119" lon="1.3299183547">
        <ele>116.46</ele>
        <time>2017-07-29T11:54:28Z</time>
      </trkpt>
      <trkpt lat="43.7976966240" lon="1.3299134932">
        <ele>115.98</ele>
        <time>2017-07-29T11:54:43Z</time>
      </trkpt>
      <trkpt lat="43.7977142259" lon="1.3299108949">
        <ele>115.98</ele>
        <time>2017-07-29T11:55:03Z</time>
      </trkpt>
      <trkpt lat="43.7977152318" lon="1.3299094699">
        <ele>115.98</ele>
        <time>2017-07-29T11:55:18Z</time>
      </trkpt>
      <trkpt lat="43.7977128848" lon="1.3299015909">
        <ele>115.98</ele>
        <time>2017-07-29T11:55:27Z</time>
      </trkpt>
      <trkpt lat="43.7976949476" lon="1.3298796304">
        <ele>115.98</ele>
        <time>2017-07-29T11:55:47Z</time>
      </trkpt>
      <trkpt lat="43.7976806983" lon="1.3298805524">
        <ele>115.98</ele>
        <time>2017-07-29T11:55:58Z</time>
      </trkpt>
      <trkpt lat="43.7976801116" lon="1.3298744336">
        <ele>115.98</ele>
        <time>2017-07-29T11:56:16Z</time>
      </trkpt>
      <trkpt lat="43.7976797763" lon="1.3298743498">
        <ele>115.98</ele>
        <time>2017-07-29T11:56:17Z</time>
      </trkpt>
      <trkpt lat="43.7976508588" lon="1.3298799656">
        <ele>115.98</ele>
        <time>2017-07-29T11:56:19Z</time>
      </trkpt>
      <trkpt lat="43.7976356875" lon="1.3298797980">
        <ele>115.98</ele>
        <time>2017-07-29T11:56:20Z</time>
      </trkpt>
      <trkpt lat="43.7976250425" lon="1.3298732601">
        <ele>116.46</ele>
        <time>2017-07-29T11:56:21Z</time>
      </trkpt>
      <trkpt lat="43.7975994777" lon="1.3298605196">
        <ele>116.46</ele>
        <time>2017-07-29T11:56:24Z</time>
      </trkpt>
      <trkpt lat="43.7975680456" lon="1.3298945501">
        <ele>116.46</ele>
        <time>2017-07-29T11:56:28Z</time>
      </trkpt>
      <trkpt lat="43.7975573167" lon="1.3299085479">
        <ele>116.46</ele>
        <time>2017-07-29T11:56:29Z</time>
      </trkpt>
      <trkpt lat="43.7975439057" lon="1.3299206179">
        <ele>116.46</ele>
        <time>2017-07-29T11:56:30Z</time>
      </trkpt>
      <trkpt lat="43.7975305784" lon="1.3299272396">
        <ele>116.46</ele>
        <time>2017-07-29T11:56:31Z</time>
      </trkpt>
      <trkpt lat="43.7975193467" lon="1.3299320173">
        <ele>116.46</ele>
        <time>2017-07-29T11:56:32Z</time>
      </trkpt>
      <trkpt lat="43.7975079473" lon="1.3299441710">
        <ele>116.46</ele>
        <time>2017-07-29T11:56:33Z</time>
      </trkpt>
      <trkpt lat="43.7974992301" lon="1.3299578335">
        <ele>116.46</ele>
        <time>2017-07-29T11:56:34Z</time>
      </trkpt>
      <trkpt lat="43.7974876631" lon="1.3299708255">
        <ele>116.46</ele>
        <time>2017-07-29T11:56:35Z</time>
      </trkpt>
      <trkpt lat="43.7974659540" lon="1.3299842365">
        <ele>116.46</ele>
        <time>2017-07-29T11:56:37Z</time>
      </trkpt>
      <trkpt lat="43.7974525429" lon="1.3299940433">
        <ele>116.46</ele>
        <time>2017-07-29T11:56:38Z</time>
      </trkpt>
      <trkpt lat="43.7974343542" lon="1.3300109748">
        <ele>116.46</ele>
        <time>2017-07-29T11:56:39Z</time>
      </trkpt>
      <trkpt lat="43.7972353678" lon="1.3302107994">
        <ele>116.46</ele>
        <time>2017-07-29T11:56:49Z</time>
      </trkpt>
      <trkpt lat="43.7970186956" lon="1.3304422237">
        <ele>116.46</ele>
        <time>2017-07-29T11:56:57Z</time>
      </trkpt>
      <trkpt lat="43.7966312841" lon="1.3308232650">
        <ele>116.46</ele>
        <time>2017-07-29T11:57:09Z</time>
      </trkpt>
      <trkpt lat="43.7962358259" lon="1.3311944157">
        <ele>116.46</ele>
        <time>2017-07-29T11:57:20Z</time>
      </trkpt>
      <trkpt lat="43.7958590593" lon="1.3315446116">
        <ele>116.46</ele>
        <time>2017-07-29T11:57:30Z</time>
      </trkpt>
      <trkpt lat="43.7958205864" lon="1.3315769657">
        <ele>115.98</ele>
        <time>2017-07-29T11:57:31Z</time>
      </trkpt>
      <trkpt lat="43.7957097776" lon="1.3316879421">
        <ele>116.46</ele>
        <time>2017-07-29T11:57:34Z</time>
      </trkpt>
      <trkpt lat="43.7956419680" lon="1.3317628764">
        <ele>116.46</ele>
        <time>2017-07-29T11:57:36Z</time>
      </trkpt>
      <trkpt lat="43.7951325998" lon="1.3322527986">
        <ele>116.46</ele>
        <time>2017-07-29T11:57:50Z</time>
      </trkpt>
      <trkpt lat="43.7947515585" lon="1.3326157350">
        <ele>115.98</ele>
        <time>2017-07-29T11:58:00Z</time>
      </trkpt>
      <trkpt lat="43.7947127502" lon="1.3326492626">
        <ele>115.98</ele>
        <time>2017-07-29T11:58:01Z</time>
      </trkpt>
      <trkpt lat="43.7946787197" lon="1.3326853886">
        <ele>115.98</ele>
        <time>2017-07-29T11:58:02Z</time>
      </trkpt>
      <trkpt lat="43.7943778094" lon="1.3329920825">
        <ele>115.98</ele>
        <time>2017-07-29T11:58:10Z</time>
      </trkpt>
      <trkpt lat="43.7939852010" lon="1.3333825953">
        <ele>115.98</ele>
        <time>2017-07-29T11:58:20Z</time>
      </trkpt>
      <trkpt lat="43.7935873959" lon="1.3337710127">
        <ele>115.98</ele>
        <time>2017-07-29T11:58:30Z</time>
      </trkpt>
      <trkpt lat="43.7931868248" lon="1.3341663033">
        <ele>115.98</ele>
        <time>2017-07-29T11:58:40Z</time>
      </trkpt>
      <trkpt lat="43.7931510340" lon="1.3342063688">
        <ele>115.98</ele>
        <time>2017-07-29T11:58:41Z</time>
      </trkpt>
      <trkpt lat="43.7929368764" lon="1.3344127312">
        <ele>116.46</ele>
        <time>2017-07-29T11:58:47Z</time>
      </trkpt>
      <trkpt lat="43.7925413344" lon="1.3347865641">
        <ele>115.98</ele>
        <time>2017-07-29T11:58:57Z</time>
      </trkpt>
      <trkpt lat="43.7923027854" lon="1.3350141328">
        <ele>115.98</ele>
        <time>2017-07-29T11:59:03Z</time>
      </trkpt>
      <trkpt lat="43.7922240794" lon="1.3350823615">
        <ele>115.98</ele>
        <time>2017-07-29T11:59:05Z</time>
      </trkpt>
      <trkpt lat="43.7921842653" lon="1.3351211697">
        <ele>115.98</ele>
        <time>2017-07-29T11:59:06Z</time>
      </trkpt>
      <trkpt lat="43.7917120289" lon="1.3355850242">
        <ele>115.98</ele>
        <time>2017-07-29T11:59:18Z</time>
      </trkpt>
      <trkpt lat="43.7915536948" lon="1.3357508183">
        <ele>115.98</ele>
        <time>2017-07-29T11:59:22Z</time>
      </trkpt>
      <trkpt lat="43.7914713006" lon="1.3358198013">
        <ele>115.98</ele>
        <time>2017-07-29T11:59:24Z</time>
      </trkpt>
      <trkpt lat="43.7913144752" lon="1.3359791413">
        <ele>115.98</ele>
        <time>2017-07-29T11:59:28Z</time>
      </trkpt>
      <trkpt lat="43.7912742421" lon="1.3360125851">
        <ele>116.46</ele>
        <time>2017-07-29T11:59:29Z</time>
      </trkpt>
      <trkpt lat="43.7910071947" lon="1.3362817280">
        <ele>115.98</ele>
        <time>2017-07-29T11:59:36Z</time>
      </trkpt>
      <trkpt lat="43.7909659557" lon="1.3363209553">
        <ele>115.98</ele>
        <time>2017-07-29T11:59:37Z</time>
      </trkpt>
      <trkpt lat="43.7906260695" lon="1.3366592489">
        <ele>115.98</ele>
        <time>2017-07-29T11:59:46Z</time>
      </trkpt>
      <trkpt lat="43.7905011792" lon="1.3367743324">
        <ele>115.98</ele>
        <time>2017-07-29T11:59:49Z</time>
      </trkpt>
      <trkpt lat="43.7899762206" lon="1.3372937590">
        <ele>115.98</ele>
        <time>2017-07-29T12:00:02Z</time>
      </trkpt>
      <trkpt lat="43.7897391804" lon="1.3375332300">
        <ele>115.98</ele>
        <time>2017-07-29T12:00:08Z</time>
      </trkpt>
      <trkpt lat="43.7897030544" lon="1.3375730440">
        <ele>115.98</ele>
        <time>2017-07-29T12:00:09Z</time>
      </trkpt>
      <trkpt lat="43.7892630883" lon="1.3379841764">
        <ele>115.98</ele>
        <time>2017-07-29T12:00:20Z</time>
      </trkpt>
      <trkpt lat="43.7887677178" lon="1.3384606037">
        <ele>116.46</ele>
        <time>2017-07-29T12:00:32Z</time>
      </trkpt>
      <trkpt lat="43.7881889474" lon="1.3390293997">
        <ele>116.46</ele>
        <time>2017-07-29T12:00:46Z</time>
      </trkpt>
      <trkpt lat="43.7881437689" lon="1.3390691299">
        <ele>116.46</ele>
        <time>2017-07-29T12:00:47Z</time>
      </trkpt>
      <trkpt lat="43.7880974170" lon="1.3391098659">
        <ele>115.98</ele>
        <time>2017-07-29T12:00:48Z</time>
      </trkpt>
      <trkpt lat="43.7876329757" lon="1.3395943400">
        <ele>116.46</ele>
        <time>2017-07-29T12:01:00Z</time>
      </trkpt>
      <trkpt lat="43.7875164673" lon="1.3397034723">
        <ele>116.46</ele>
        <time>2017-07-29T12:01:03Z</time>
      </trkpt>
      <trkpt lat="43.7874676008" lon="1.3397291210">
        <ele>116.46</ele>
        <time>2017-07-29T12:01:04Z</time>
      </trkpt>
      <trkpt lat="43.7874334026" lon="1.3397583738">
        <ele>116.46</ele>
        <time>2017-07-29T12:01:05Z</time>
      </trkpt>
      <trkpt lat="43.7870880682" lon="1.3400516566">
        <ele>116.46</ele>
        <time>2017-07-29T12:01:14Z</time>
      </trkpt>
      <trkpt lat="43.7870531995" lon="1.3400891237">
        <ele>115.98</ele>
        <time>2017-07-29T12:01:15Z</time>
      </trkpt>
      <trkpt lat="43.7870166544" lon="1.3401222322">
        <ele>115.50</ele>
        <time>2017-07-29T12:01:16Z</time>
      </trkpt>
      <trkpt lat="43.7869076896" lon="1.3402275089">
        <ele>115.50</ele>
        <time>2017-07-29T12:01:19Z</time>
      </trkpt>
      <trkpt lat="43.7868333422" lon="1.3403030299">
        <ele>115.98</ele>
        <time>2017-07-29T12:01:21Z</time>
      </trkpt>
      <trkpt lat="43.7867905106" lon="1.3403342105">
        <ele>115.98</ele>
        <time>2017-07-29T12:01:22Z</time>
      </trkpt>
      <trkpt lat="43.7863245606" lon="1.3407608494">
        <ele>115.98</ele>
        <time>2017-07-29T12:01:34Z</time>
      </trkpt>
      <trkpt lat="43.7859550864" lon="1.3410839718">
        <ele>115.98</ele>
        <time>2017-07-29T12:01:44Z</time>
      </trkpt>
      <trkpt lat="43.7859135121" lon="1.3411162421">
        <ele>115.50</ele>
        <time>2017-07-29T12:01:45Z</time>
      </trkpt>
      <trkpt lat="43.7858338002" lon="1.3411874883">
        <ele>115.50</ele>
        <time>2017-07-29T12:01:47Z</time>
      </trkpt>
      <trkpt lat="43.7853593845" lon="1.3416179828">
        <ele>115.98</ele>
        <time>2017-07-29T12:01:59Z</time>
      </trkpt>
      <trkpt lat="43.7853215821" lon="1.3416508399">
        <ele>115.98</ele>
        <time>2017-07-29T12:02:00Z</time>
      </trkpt>
      <trkpt lat="43.7852869648" lon="1.3416827749">
        <ele>115.50</ele>
        <time>2017-07-29T12:02:01Z</time>
      </trkpt>
      <trkpt lat="43.7852537725" lon="1.3417138718">
        <ele>115.98</ele>
        <time>2017-07-29T12:02:02Z</time>
      </trkpt>
      <trkpt lat="43.7850080989" lon="1.3419446256">
        <ele>115.98</ele>
        <time>2017-07-29T12:02:09Z</time>
      </trkpt>
      <trkpt lat="43.7845758442" lon="1.3423094060">
        <ele>115.98</ele>
        <time>2017-07-29T12:02:21Z</time>
      </trkpt>
      <trkpt lat="43.7843258958" lon="1.3425461948">
        <ele>115.50</ele>
        <time>2017-07-29T12:02:28Z</time>
      </trkpt>
      <trkpt lat="43.7842868362" lon="1.3425798062">
        <ele>115.50</ele>
        <time>2017-07-29T12:02:29Z</time>
      </trkpt>
      <trkpt lat="43.7842120696" lon="1.3426446822">
        <ele>115.98</ele>
        <time>2017-07-29T12:02:31Z</time>
      </trkpt>
      <trkpt lat="43.7841751054" lon="1.3426746894">
        <ele>115.98</ele>
        <time>2017-07-29T12:02:32Z</time>
      </trkpt>
      <trkpt lat="43.7841388956" lon="1.3427079655">
        <ele>115.50</ele>
        <time>2017-07-29T12:02:33Z</time>
      </trkpt>
      <trkpt lat="43.7840651348" lon="1.3427740149">
        <ele>115.50</ele>
        <time>2017-07-29T12:02:35Z</time>
      </trkpt>
      <trkpt lat="43.7835794874" lon="1.3432121370">
        <ele>115.50</ele>
        <time>2017-07-29T12:02:47Z</time>
      </trkpt>
      <trkpt lat="43.7833131105" lon="1.3434484228">
        <ele>115.98</ele>
        <time>2017-07-29T12:02:54Z</time>
      </trkpt>
      <trkpt lat="43.7832773197" lon="1.3434871472">
        <ele>115.50</ele>
        <time>2017-07-29T12:02:55Z</time>
      </trkpt>
      <trkpt lat="43.7832400203" lon="1.3435261231">
        <ele>115.98</ele>
        <time>2017-07-29T12:02:56Z</time>
      </trkpt>
      <trkpt lat="43.7827530317" lon="1.3439600542">
        <ele>115.98</ele>
        <time>2017-07-29T12:03:08Z</time>
      </trkpt>
      <trkpt lat="43.7825086154" lon="1.3441729546">
        <ele>115.50</ele>
        <time>2017-07-29T12:03:14Z</time>
      </trkpt>
      <trkpt lat="43.7820560765" lon="1.3445890322">
        <ele>115.98</ele>
        <time>2017-07-29T12:03:25Z</time>
      </trkpt>
      <trkpt lat="43.7820186932" lon="1.3446216378">
        <ele>115.50</ele>
        <time>2017-07-29T12:03:26Z</time>
      </trkpt>
      <trkpt lat="43.7816912960" lon="1.3449028507">
        <ele>115.50</ele>
        <time>2017-07-29T12:03:35Z</time>
      </trkpt>
      <trkpt lat="43.7812701892" lon="1.3452931121">
        <ele>115.98</ele>
        <time>2017-07-29T12:03:45Z</time>
      </trkpt>
      <trkpt lat="43.7812255137" lon="1.3453242090">
        <ele>115.98</ele>
        <time>2017-07-29T12:03:46Z</time>
      </trkpt>
      <trkpt lat="43.7808294687" lon="1.3456743211">
        <ele>115.98</ele>
        <time>2017-07-29T12:03:56Z</time>
      </trkpt>
      <trkpt lat="43.7807918340" lon="1.3457110338">
        <ele>115.98</ele>
        <time>2017-07-29T12:03:57Z</time>
      </trkpt>
      <trkpt lat="43.7807535287" lon="1.3457451481">
        <ele>115.50</ele>
        <time>2017-07-29T12:03:58Z</time>
      </trkpt>
      <trkpt lat="43.7806022353" lon="1.3458862994">
        <ele>115.50</ele>
        <time>2017-07-29T12:04:02Z</time>
      </trkpt>
      <trkpt lat="43.7805660255" lon="1.3459213357">
        <ele>115.50</ele>
        <time>2017-07-29T12:04:03Z</time>
      </trkpt>
      <trkpt lat="43.7803379539" lon="1.3461337332">
        <ele>115.50</ele>
        <time>2017-07-29T12:04:09Z</time>
      </trkpt>
      <trkpt lat="43.7798524741" lon="1.3465601206">
        <ele>115.98</ele>
        <time>2017-07-29T12:04:21Z</time>
      </trkpt>
      <trkpt lat="43.7794631347" lon="1.3468977436">
        <ele>115.98</ele>
        <time>2017-07-29T12:04:31Z</time>
      </trkpt>
      <trkpt lat="43.7789695244" lon="1.3473589160">
        <ele>115.98</ele>
        <time>2017-07-29T12:04:43Z</time>
      </trkpt>
      <trkpt lat="43.7785532791" lon="1.3477240317">
        <ele>115.98</ele>
        <time>2017-07-29T12:04:53Z</time>
      </trkpt>
      <trkpt lat="43.7781010754" lon="1.3481347449">
        <ele>115.98</ele>
        <time>2017-07-29T12:05:04Z</time>
      </trkpt>
      <trkpt lat="43.7776485365" lon="1.3485420216">
        <ele>115.98</ele>
        <time>2017-07-29T12:05:15Z</time>
      </trkpt>
      <trkpt lat="43.7776109017" lon="1.3485759683">
        <ele>115.98</ele>
        <time>2017-07-29T12:05:16Z</time>
      </trkpt>
      <trkpt lat="43.7775369734" lon="1.3486341387">
        <ele>115.98</ele>
        <time>2017-07-29T12:05:18Z</time>
      </trkpt>
      <trkpt lat="43.7775018532" lon="1.3486629725">
        <ele>115.98</ele>
        <time>2017-07-29T12:05:19Z</time>
      </trkpt>
      <trkpt lat="43.7774663977" lon="1.3486902136">
        <ele>115.98</ele>
        <time>2017-07-29T12:05:20Z</time>
      </trkpt>
      <trkpt lat="43.7771571893" lon="1.3489609491">
        <ele>115.98</ele>
        <time>2017-07-29T12:05:28Z</time>
      </trkpt>
      <trkpt lat="43.7771197222" lon="1.3489932194">
        <ele>115.98</ele>
        <time>2017-07-29T12:05:29Z</time>
      </trkpt>
      <trkpt lat="43.7770432793" lon="1.3490603585">
        <ele>115.98</ele>
        <time>2017-07-29T12:05:31Z</time>
      </trkpt>
      <trkpt lat="43.7769673392" lon="1.3491336163">
        <ele>115.98</ele>
        <time>2017-07-29T12:05:33Z</time>
      </trkpt>
      <trkpt lat="43.7769328058" lon="1.3491684850">
        <ele>115.98</ele>
        <time>2017-07-29T12:05:34Z</time>
      </trkpt>
      <trkpt lat="43.7768984400" lon="1.3491924573">
        <ele>115.98</ele>
        <time>2017-07-29T12:05:35Z</time>
      </trkpt>
      <trkpt lat="43.7768565305" lon="1.3492240570">
        <ele>115.98</ele>
        <time>2017-07-29T12:05:36Z</time>
      </trkpt>
      <trkpt lat="43.7768147886" lon="1.3492639549">
        <ele>115.98</ele>
        <time>2017-07-29T12:05:37Z</time>
      </trkpt>
      <trkpt lat="43.7767734658" lon="1.3493045233">
        <ele>115.98</ele>
        <time>2017-07-29T12:05:38Z</time>
      </trkpt>
      <trkpt lat="43.7766943406" lon="1.3493776973">
        <ele>116.94</ele>
        <time>2017-07-29T12:05:40Z</time>
      </trkpt>
      <trkpt lat="43.7761814520" lon="1.3498414680">
        <ele>116.46</ele>
        <time>2017-07-29T12:05:52Z</time>
      </trkpt>
      <trkpt lat="43.7758859061" lon="1.3501003850">
        <ele>116.46</ele>
        <time>2017-07-29T12:05:59Z</time>
      </trkpt>
      <trkpt lat="43.7758415658" lon="1.3501275424">
        <ele>116.46</ele>
        <time>2017-07-29T12:06:00Z</time>
      </trkpt>
      <trkpt lat="43.7757994048" lon="1.3501624949">
        <ele>116.46</ele>
        <time>2017-07-29T12:06:01Z</time>
      </trkpt>
      <trkpt lat="43.7752985023" lon="1.3506312948">
        <ele>116.46</ele>
        <time>2017-07-29T12:06:13Z</time>
      </trkpt>
      <trkpt lat="43.7750532478" lon="1.3508585282">
        <ele>115.98</ele>
        <time>2017-07-29T12:06:19Z</time>
      </trkpt>
      <trkpt lat="43.7750135176" lon="1.3508958276">
        <ele>115.98</ele>
        <time>2017-07-29T12:06:20Z</time>
      </trkpt>
      <trkpt lat="43.7749309558" lon="1.3509660680">
        <ele>115.98</ele>
        <time>2017-07-29T12:06:22Z</time>
      </trkpt>
      <trkpt lat="43.7748946622" lon="1.3509999309">
        <ele>116.46</ele>
        <time>2017-07-29T12:06:23Z</time>
      </trkpt>
      <trkpt lat="43.7746012956" lon="1.3512419164">
        <ele>118.38</ele>
        <time>2017-07-29T12:06:33Z</time>
      </trkpt>
      <trkpt lat="43.7744707894" lon="1.3513734285">
        <ele>118.38</ele>
        <time>2017-07-29T12:06:41Z</time>
      </trkpt>
      <trkpt lat="43.7742559612" lon="1.3515329361">
        <ele>118.38</ele>
        <time>2017-07-29T12:06:50Z</time>
      </trkpt>
      <trkpt lat="43.7740594894" lon="1.3517051004">
        <ele>118.38</ele>
        <time>2017-07-29T12:07:00Z</time>
      </trkpt>
      <trkpt lat="43.7738225330" lon="1.3519079424">
        <ele>117.90</ele>
        <time>2017-07-29T12:07:10Z</time>
      </trkpt>
      <trkpt lat="43.7735471874" lon="1.3521440607">
        <ele>117.90</ele>
        <time>2017-07-29T12:07:19Z</time>
      </trkpt>
      <trkpt lat="43.7732335366" lon="1.3524121977">
        <ele>117.90</ele>
        <time>2017-07-29T12:07:28Z</time>
      </trkpt>
      <trkpt lat="43.7729686685" lon="1.3526478969">
        <ele>118.38</ele>
        <time>2017-07-29T12:07:35Z</time>
      </trkpt>
      <trkpt lat="43.7729220651" lon="1.3526802510">
        <ele>118.38</ele>
        <time>2017-07-29T12:07:36Z</time>
      </trkpt>
      <trkpt lat="43.7725002039" lon="1.3530483842">
        <ele>117.90</ele>
        <time>2017-07-29T12:07:46Z</time>
      </trkpt>
      <trkpt lat="43.7720614113" lon="1.3534466922">
        <ele>117.90</ele>
        <time>2017-07-29T12:07:57Z</time>
      </trkpt>
      <trkpt lat="43.7716307491" lon="1.3538459223">
        <ele>118.38</ele>
        <time>2017-07-29T12:08:07Z</time>
      </trkpt>
      <trkpt lat="43.7711344566" lon="1.3542749919">
        <ele>118.38</ele>
        <time>2017-07-29T12:08:19Z</time>
      </trkpt>
      <trkpt lat="43.7710922956" lon="1.3543032389">
        <ele>118.38</ele>
        <time>2017-07-29T12:08:20Z</time>
      </trkpt>
      <trkpt lat="43.7710525654" lon="1.3543356769">
        <ele>118.38</ele>
        <time>2017-07-29T12:08:21Z</time>
      </trkpt>
      <trkpt lat="43.7708632182" lon="1.3545137923">
        <ele>118.38</ele>
        <time>2017-07-29T12:08:26Z</time>
      </trkpt>
      <trkpt lat="43.7703996152" lon="1.3549499866">
        <ele>117.90</ele>
        <time>2017-07-29T12:08:38Z</time>
      </trkpt>
      <trkpt lat="43.7703622319" lon="1.3549826760">
        <ele>117.42</ele>
        <time>2017-07-29T12:08:39Z</time>
      </trkpt>
      <trkpt lat="43.7702834420" lon="1.3550438639">
        <ele>117.90</ele>
        <time>2017-07-29T12:08:41Z</time>
      </trkpt>
      <trkpt lat="43.7699310668" lon="1.3553616218">
        <ele>117.90</ele>
        <time>2017-07-29T12:08:50Z</time>
      </trkpt>
      <trkpt lat="43.7695938628" lon="1.3556663878">
        <ele>117.90</ele>
        <time>2017-07-29T12:08:59Z</time>
      </trkpt>
      <trkpt lat="43.7695110496" lon="1.3557382207">
        <ele>117.42</ele>
        <time>2017-07-29T12:09:01Z</time>
      </trkpt>
      <trkpt lat="43.7692079600" lon="1.3560374547">
        <ele>117.90</ele>
        <time>2017-07-29T12:09:09Z</time>
      </trkpt>
      <trkpt lat="43.7691710796" lon="1.3560742512">
        <ele>117.90</ele>
        <time>2017-07-29T12:09:10Z</time>
      </trkpt>
      <trkpt lat="43.7690132484" lon="1.3562049251">
        <ele>117.90</ele>
        <time>2017-07-29T12:09:14Z</time>
      </trkpt>
      <trkpt lat="43.7689723447" lon="1.3562254608">
        <ele>117.90</ele>
        <time>2017-07-29T12:09:15Z</time>
      </trkpt>
      <trkpt lat="43.7687204685" lon="1.3563257921">
        <ele>117.90</ele>
        <time>2017-07-29T12:09:21Z</time>
      </trkpt>
      <trkpt lat="43.7686804030" lon="1.3563549612">
        <ele>117.90</ele>
        <time>2017-07-29T12:09:22Z</time>
      </trkpt>
      <trkpt lat="43.7686410919" lon="1.3563849684">
        <ele>118.38</ele>
        <time>2017-07-29T12:09:23Z</time>
      </trkpt>
      <trkpt lat="43.7685604580" lon="1.3564357627">
        <ele>118.38</ele>
        <time>2017-07-29T12:09:25Z</time>
      </trkpt>
      <trkpt lat="43.7684271019" lon="1.3564872276">
        <ele>118.38</ele>
        <time>2017-07-29T12:09:28Z</time>
      </trkpt>
      <trkpt lat="43.7681113556" lon="1.3566233497">
        <ele>120.30</ele>
        <time>2017-07-29T12:09:36Z</time>
      </trkpt>
      <trkpt lat="43.7679330725" lon="1.3566201646">
        <ele>120.30</ele>
        <time>2017-07-29T12:09:45Z</time>
      </trkpt>
      <trkpt lat="43.7677460723" lon="1.3566051610">
        <ele>120.30</ele>
        <time>2017-07-29T12:09:53Z</time>
      </trkpt>
      <trkpt lat="43.7674687989" lon="1.3564867247">
        <ele>119.82</ele>
        <time>2017-07-29T12:10:02Z</time>
      </trkpt>
      <trkpt lat="43.7672211975" lon="1.3564428035">
        <ele>119.82</ele>
        <time>2017-07-29T12:10:09Z</time>
      </trkpt>
      <trkpt lat="43.7669850793" lon="1.3563174941">
        <ele>119.82</ele>
        <time>2017-07-29T12:10:19Z</time>
      </trkpt>
      <trkpt lat="43.7667957321" lon="1.3561768457">
        <ele>119.82</ele>
        <time>2017-07-29T12:10:29Z</time>
      </trkpt>
      <trkpt lat="43.7667867634" lon="1.3561503589">
        <ele>119.82</ele>
        <time>2017-07-29T12:10:30Z</time>
      </trkpt>
      <trkpt lat="43.7667747773" lon="1.3561249617">
        <ele>119.82</ele>
        <time>2017-07-29T12:10:31Z</time>
      </trkpt>
      <trkpt lat="43.7667621206" lon="1.3561073598">
        <ele>119.82</ele>
        <time>2017-07-29T12:10:32Z</time>
      </trkpt>
      <trkpt lat="43.7667482067" lon="1.3560921885">
        <ele>119.82</ele>
        <time>2017-07-29T12:10:33Z</time>
      </trkpt>
      <trkpt lat="43.7667337898" lon="1.3560739998">
        <ele>119.82</ele>
        <time>2017-07-29T12:10:34Z</time>
      </trkpt>
      <trkpt lat="43.7667196244" lon="1.3560497761">
        <ele>119.82</ele>
        <time>2017-07-29T12:10:35Z</time>
      </trkpt>
      <trkpt lat="43.7667026930" lon="1.3560270611">
        <ele>119.82</ele>
        <time>2017-07-29T12:10:36Z</time>
      </trkpt>
      <trkpt lat="43.7666803133" lon="1.3560054358">
        <ele>119.82</ele>
        <time>2017-07-29T12:10:37Z</time>
      </trkpt>
      <trkpt lat="43.7664633896" lon="1.3558441680">
        <ele>119.82</ele>
        <time>2017-07-29T12:10:47Z</time>
      </trkpt>
      <trkpt lat="43.7662473042" lon="1.3558080420">
        <ele>120.30</ele>
        <time>2017-07-29T12:10:55Z</time>
      </trkpt>
      <trkpt lat="43.7660545204" lon="1.3557699043">
        <ele>120.30</ele>
        <time>2017-07-29T12:11:02Z</time>
      </trkpt>
      <trkpt lat="43.7657967769" lon="1.3557614386">
        <ele>120.30</ele>
        <time>2017-07-29T12:11:12Z</time>
      </trkpt>
      <trkpt lat="43.7655328307" lon="1.3558422402">
        <ele>119.82</ele>
        <time>2017-07-29T12:11:22Z</time>
      </trkpt>
      <trkpt lat="43.7652347703" lon="1.3559734169">
        <ele>119.82</ele>
        <time>2017-07-29T12:11:33Z</time>
      </trkpt>
      <trkpt lat="43.7649465166" lon="1.3561030012">
        <ele>119.82</ele>
        <time>2017-07-29T12:11:42Z</time>
      </trkpt>
      <trkpt lat="43.7647317722" lon="1.3562009856">
        <ele>120.30</ele>
        <time>2017-07-29T12:11:49Z</time>
      </trkpt>
      <trkpt lat="43.7644438539" lon="1.3563373592">
        <ele>119.82</ele>
        <time>2017-07-29T12:11:57Z</time>
      </trkpt>
      <trkpt lat="43.7640927359" lon="1.3564888202">
        <ele>120.30</ele>
        <time>2017-07-29T12:12:06Z</time>
      </trkpt>
      <trkpt lat="43.7637049053" lon="1.3566595595">
        <ele>119.82</ele>
        <time>2017-07-29T12:12:17Z</time>
      </trkpt>
      <trkpt lat="43.7633686233" lon="1.3568069134">
        <ele>119.82</ele>
        <time>2017-07-29T12:12:27Z</time>
      </trkpt>
      <trkpt lat="43.7630460039" lon="1.3569612242">
        <ele>119.82</ele>
        <time>2017-07-29T12:12:37Z</time>
      </trkpt>
      <trkpt lat="43.7627399806" lon="1.3570920657">
        <ele>119.82</ele>
        <time>2017-07-29T12:12:46Z</time>
      </trkpt>
      <trkpt lat="43.7624242343" lon="1.3572384976">
        <ele>120.30</ele>
        <time>2017-07-29T12:12:56Z</time>
      </trkpt>
      <trkpt lat="43.7621493079" lon="1.3573658187">
        <ele>119.82</ele>
        <time>2017-07-29T12:13:04Z</time>
      </trkpt>
      <trkpt lat="43.7620348111" lon="1.3574076444">
        <ele>119.82</ele>
        <time>2017-07-29T12:13:07Z</time>
      </trkpt>
      <trkpt lat="43.7616235949" lon="1.3575919624">
        <ele>120.30</ele>
        <time>2017-07-29T12:13:18Z</time>
      </trkpt>
      <trkpt lat="43.7611866463" lon="1.3577753585">
        <ele>120.30</ele>
        <time>2017-07-29T12:13:29Z</time>
      </trkpt>
      <trkpt lat="43.7611454073" lon="1.3577954751">
        <ele>120.30</ele>
        <time>2017-07-29T12:13:30Z</time>
      </trkpt>
      <trkpt lat="43.7611040007" lon="1.3578166813">
        <ele>120.30</ele>
        <time>2017-07-29T12:13:31Z</time>
      </trkpt>
      <trkpt lat="43.7610626779" lon="1.3578397315">
        <ele>119.82</ele>
        <time>2017-07-29T12:13:32Z</time>
      </trkpt>
      <trkpt lat="43.7605239730" lon="1.3580901828">
        <ele>120.30</ele>
        <time>2017-07-29T12:13:44Z</time>
      </trkpt>
      <trkpt lat="43.7601423450" lon="1.3582629338">
        <ele>120.30</ele>
        <time>2017-07-29T12:13:52Z</time>
      </trkpt>
      <trkpt lat="43.7595202401" lon="1.3585315738">
        <ele>119.82</ele>
        <time>2017-07-29T12:14:04Z</time>
      </trkpt>
      <trkpt lat="43.7591984589" lon="1.3586771674">
        <ele>119.82</ele>
        <time>2017-07-29T12:14:10Z</time>
      </trkpt>
      <trkpt lat="43.7590372749" lon="1.3587407861">
        <ele>119.82</ele>
        <time>2017-07-29T12:14:13Z</time>
      </trkpt>
      <trkpt lat="43.7588874064" lon="1.3588223420">
        <ele>120.30</ele>
        <time>2017-07-29T12:14:16Z</time>
      </trkpt>
      <trkpt lat="43.7586895935" lon="1.3589059934">
        <ele>119.82</ele>
        <time>2017-07-29T12:14:20Z</time>
      </trkpt>
      <trkpt lat="43.7586411461" lon="1.3589200750">
        <ele>119.82</ele>
        <time>2017-07-29T12:14:21Z</time>
      </trkpt>
      <trkpt lat="43.7585959677" lon="1.3589353301">
        <ele>119.82</ele>
        <time>2017-07-29T12:14:22Z</time>
      </trkpt>
      <trkpt lat="43.7583026011" lon="1.3590593822">
        <ele>119.82</ele>
        <time>2017-07-29T12:14:28Z</time>
      </trkpt>
      <trkpt lat="43.7582497951" lon="1.3590800855">
        <ele>119.82</ele>
        <time>2017-07-29T12:14:29Z</time>
      </trkpt>
      <trkpt lat="43.7577415165" lon="1.3593094144">
        <ele>119.82</ele>
        <time>2017-07-29T12:14:39Z</time>
      </trkpt>
      <trkpt lat="43.7571873888" lon="1.3595621288">
        <ele>119.82</ele>
        <time>2017-07-29T12:14:50Z</time>
      </trkpt>
      <trkpt lat="43.7569846306" lon="1.3596680760">
        <ele>119.82</ele>
        <time>2017-07-29T12:14:54Z</time>
      </trkpt>
      <trkpt lat="43.7566400506" lon="1.3598015159">
        <ele>119.82</ele>
        <time>2017-07-29T12:15:01Z</time>
      </trkpt>
      <trkpt lat="43.7564006634" lon="1.3599179406">
        <ele>119.82</ele>
        <time>2017-07-29T12:15:06Z</time>
      </trkpt>
      <trkpt lat="43.7563550659" lon="1.3599368837">
        <ele>119.82</ele>
        <time>2017-07-29T12:15:07Z</time>
      </trkpt>
      <trkpt lat="43.7558782194" lon="1.3601646200">
        <ele>119.82</ele>
        <time>2017-07-29T12:15:17Z</time>
      </trkpt>
      <trkpt lat="43.7557287700" lon="1.3602104690">
        <ele>120.30</ele>
        <time>2017-07-29T12:15:20Z</time>
      </trkpt>
      <trkpt lat="43.7556775566" lon="1.3602197729">
        <ele>119.82</ele>
        <time>2017-07-29T12:15:21Z</time>
      </trkpt>
      <trkpt lat="43.7556282710" lon="1.3602345251">
        <ele>119.82</ele>
        <time>2017-07-29T12:15:22Z</time>
      </trkpt>
      <trkpt lat="43.7551409472" lon="1.3604546338">
        <ele>119.82</ele>
        <time>2017-07-29T12:15:32Z</time>
      </trkpt>
      <trkpt lat="43.7550460640" lon="1.3604936935">
        <ele>119.82</ele>
        <time>2017-07-29T12:15:34Z</time>
      </trkpt>
      <trkpt lat="43.7549989577" lon="1.3605203480">
        <ele>119.82</ele>
        <time>2017-07-29T12:15:35Z</time>
      </trkpt>
      <trkpt lat="43.7549517676" lon="1.3605452422">
        <ele>119.82</ele>
        <time>2017-07-29T12:15:36Z</time>
      </trkpt>
      <trkpt lat="43.7545650266" lon="1.3607257046">
        <ele>119.82</ele>
        <time>2017-07-29T12:15:44Z</time>
      </trkpt>
      <trkpt lat="43.7541376334" lon="1.3609316479">
        <ele>119.82</ele>
        <time>2017-07-29T12:15:53Z</time>
      </trkpt>
      <trkpt lat="43.7540397327" lon="1.3609697856">
        <ele>119.82</ele>
        <time>2017-07-29T12:15:55Z</time>
      </trkpt>
      <trkpt lat="43.7535812426" lon="1.3611634914">
        <ele>119.82</ele>
        <time>2017-07-29T12:16:04Z</time>
      </trkpt>
      <trkpt lat="43.7534305360" lon="1.3612218294">
        <ele>119.82</ele>
        <time>2017-07-29T12:16:07Z</time>
      </trkpt>
      <trkpt lat="43.7532250118" lon="1.3613165449">
        <ele>119.82</ele>
        <time>2017-07-29T12:16:11Z</time>
      </trkpt>
      <trkpt lat="43.7531718705" lon="1.3613364939">
        <ele>119.82</ele>
        <time>2017-07-29T12:16:12Z</time>
      </trkpt>
      <trkpt lat="43.7531221658" lon="1.3613627292">
        <ele>119.82</ele>
        <time>2017-07-29T12:16:13Z</time>
      </trkpt>
      <trkpt lat="43.7529673520" lon="1.3614444528">
        <ele>119.82</ele>
        <time>2017-07-29T12:16:16Z</time>
      </trkpt>
      <trkpt lat="43.7529163901" lon="1.3614742924">
        <ele>119.82</ele>
        <time>2017-07-29T12:16:17Z</time>
      </trkpt>
      <trkpt lat="43.7528637517" lon="1.3614980970">
        <ele>119.82</ele>
        <time>2017-07-29T12:16:18Z</time>
      </trkpt>
      <trkpt lat="43.7520870008" lon="1.3618683256">
        <ele>119.82</ele>
        <time>2017-07-29T12:16:32Z</time>
      </trkpt>
      <trkpt lat="43.7518599350" lon="1.3619651366">
        <ele>120.30</ele>
        <time>2017-07-29T12:16:36Z</time>
      </trkpt>
      <trkpt lat="43.7512443680" lon="1.3622362074">
        <ele>120.30</ele>
        <time>2017-07-29T12:16:47Z</time>
      </trkpt>
      <trkpt lat="43.7506486662" lon="1.3625151571">
        <ele>120.30</ele>
        <time>2017-07-29T12:16:58Z</time>
      </trkpt>
      <trkpt lat="43.7502276432" lon="1.3627157360">
        <ele>120.30</ele>
        <time>2017-07-29T12:17:06Z</time>
      </trkpt>
      <trkpt lat="43.7497778703" lon="1.3629098609">
        <ele>120.30</ele>
        <time>2017-07-29T12:17:14Z</time>
      </trkpt>
      <trkpt lat="43.7492776383" lon="1.3631309755">
        <ele>120.30</ele>
        <time>2017-07-29T12:17:23Z</time>
      </trkpt>
      <trkpt lat="43.7488879636" lon="1.3632970210">
        <ele>120.30</ele>
        <time>2017-07-29T12:17:30Z</time>
      </trkpt>
      <trkpt lat="43.7488319725" lon="1.3633167185">
        <ele>120.30</ele>
        <time>2017-07-29T12:17:31Z</time>
      </trkpt>
      <trkpt lat="43.7487758975" lon="1.3633439597">
        <ele>120.30</ele>
        <time>2017-07-29T12:17:32Z</time>
      </trkpt>
      <trkpt lat="43.7481257133" lon="1.3636307046">
        <ele>120.30</ele>
        <time>2017-07-29T12:17:44Z</time>
      </trkpt>
      <trkpt lat="43.7476281635" lon="1.3638592791">
        <ele>120.30</ele>
        <time>2017-07-29T12:17:53Z</time>
      </trkpt>
      <trkpt lat="43.7470421847" lon="1.3641223870">
        <ele>120.78</ele>
        <time>2017-07-29T12:18:03Z</time>
      </trkpt>
      <trkpt lat="43.7469843496" lon="1.3641481195">
        <ele>120.30</ele>
        <time>2017-07-29T12:18:04Z</time>
      </trkpt>
      <trkpt lat="43.7469248381" lon="1.3641761150">
        <ele>120.30</ele>
        <time>2017-07-29T12:18:05Z</time>
      </trkpt>
      <trkpt lat="43.7462681998" lon="1.3644689787">
        <ele>120.30</ele>
        <time>2017-07-29T12:18:16Z</time>
      </trkpt>
      <trkpt lat="43.7459659483" lon="1.3646142371">
        <ele>120.78</ele>
        <time>2017-07-29T12:18:21Z</time>
      </trkpt>
      <trkpt lat="43.7454329431" lon="1.3648528699">
        <ele>120.78</ele>
        <time>2017-07-29T12:18:30Z</time>
      </trkpt>
      <trkpt lat="43.7452591024" lon="1.3649300672">
        <ele>120.30</ele>
        <time>2017-07-29T12:18:33Z</time>
      </trkpt>
      <trkpt lat="43.7452062964" lon="1.3649621699">
        <ele>120.78</ele>
        <time>2017-07-29T12:18:34Z</time>
      </trkpt>
      <trkpt lat="43.7448007800" lon="1.3651652634">
        <ele>120.30</ele>
        <time>2017-07-29T12:18:41Z</time>
      </trkpt>
      <trkpt lat="43.7447432801" lon="1.3652013056">
        <ele>120.30</ele>
        <time>2017-07-29T12:18:42Z</time>
      </trkpt>
      <trkpt lat="43.7446343154" lon="1.3652709592">
        <ele>120.30</ele>
        <time>2017-07-29T12:18:44Z</time>
      </trkpt>
      <trkpt lat="43.7439747434" lon="1.3656380028">
        <ele>120.78</ele>
        <time>2017-07-29T12:18:56Z</time>
      </trkpt>
      <trkpt lat="43.7431569211" lon="1.3661417551">
        <ele>120.30</ele>
        <time>2017-07-29T12:19:11Z</time>
      </trkpt>
      <trkpt lat="43.7423210777" lon="1.3667522930">
        <ele>120.78</ele>
        <time>2017-07-29T12:19:27Z</time>
      </trkpt>
      <trkpt lat="43.7415428180" lon="1.3673963584">
        <ele>120.78</ele>
        <time>2017-07-29T12:19:42Z</time>
      </trkpt>
      <trkpt lat="43.7408008520" lon="1.3680941518">
        <ele>120.78</ele>
        <time>2017-07-29T12:19:56Z</time>
      </trkpt>
      <trkpt lat="43.7404084951" lon="1.3684229739">
        <ele>121.26</ele>
        <time>2017-07-29T12:20:04Z</time>
      </trkpt>
      <trkpt lat="43.7403628137" lon="1.3684668113">
        <ele>120.78</ele>
        <time>2017-07-29T12:20:05Z</time>
      </trkpt>
      <trkpt lat="43.7402206566" lon="1.3685761113">
        <ele>120.78</ele>
        <time>2017-07-29T12:20:08Z</time>
      </trkpt>
      <trkpt lat="43.7401733827" lon="1.3686051965">
        <ele>120.78</ele>
        <time>2017-07-29T12:20:09Z</time>
      </trkpt>
      <trkpt lat="43.7401313055" lon="1.3686402328">
        <ele>120.78</ele>
        <time>2017-07-29T12:20:10Z</time>
      </trkpt>
      <trkpt lat="43.7399456464" lon="1.3688545581">
        <ele>122.71</ele>
        <time>2017-07-29T12:20:16Z</time>
      </trkpt>
      <trkpt lat="43.7398609053" lon="1.3689428195">
        <ele>123.19</ele>
        <time>2017-07-29T12:20:21Z</time>
      </trkpt>
      <trkpt lat="43.7398478296" lon="1.3689739164">
        <ele>123.19</ele>
        <time>2017-07-29T12:20:22Z</time>
      </trkpt>
      <trkpt lat="43.7398335803" lon="1.3690024987">
        <ele>122.71</ele>
        <time>2017-07-29T12:20:23Z</time>
      </trkpt>
      <trkpt lat="43.7398143858" lon="1.3690262195">
        <ele>122.71</ele>
        <time>2017-07-29T12:20:24Z</time>
      </trkpt>
      <trkpt lat="43.7397948559" lon="1.3690465875">
        <ele>123.19</ele>
        <time>2017-07-29T12:20:25Z</time>
      </trkpt>
      <trkpt lat="43.7396189198" lon="1.3692045864">
        <ele>122.71</ele>
        <time>2017-07-29T12:20:35Z</time>
      </trkpt>
      <trkpt lat="43.7394180894" lon="1.3693819474">
        <ele>123.19</ele>
        <time>2017-07-29T12:20:45Z</time>
      </trkpt>
      <trkpt lat="43.7390731741" lon="1.3697145414">
        <ele>122.71</ele>
        <time>2017-07-29T12:20:57Z</time>
      </trkpt>
      <trkpt lat="43.7386911269" lon="1.3700882066">
        <ele>122.71</ele>
        <time>2017-07-29T12:21:09Z</time>
      </trkpt>
      <trkpt lat="43.7386236526" lon="1.3701583631">
        <ele>122.71</ele>
        <time>2017-07-29T12:21:11Z</time>
      </trkpt>
      <trkpt lat="43.7385451142" lon="1.3702239934">
        <ele>122.71</ele>
        <time>2017-07-29T12:21:13Z</time>
      </trkpt>
      <trkpt lat="43.7381292880" lon="1.3706381433">
        <ele>123.19</ele>
        <time>2017-07-29T12:21:25Z</time>
      </trkpt>
      <trkpt lat="43.7380939163" lon="1.3706685696">
        <ele>123.19</ele>
        <time>2017-07-29T12:21:26Z</time>
      </trkpt>
      <trkpt lat="43.7380582932" lon="1.3706981577">
        <ele>123.19</ele>
        <time>2017-07-29T12:21:27Z</time>
      </trkpt>
      <trkpt lat="43.7380226701" lon="1.3707341161">
        <ele>123.19</ele>
        <time>2017-07-29T12:21:28Z</time>
      </trkpt>
      <trkpt lat="43.7377744820" lon="1.3709800411">
        <ele>122.71</ele>
        <time>2017-07-29T12:21:35Z</time>
      </trkpt>
      <trkpt lat="43.7377402838" lon="1.3710141554">
        <ele>123.67</ele>
        <time>2017-07-29T12:21:36Z</time>
      </trkpt>
      <trkpt lat="43.7377037387" lon="1.3710494433">
        <ele>122.71</ele>
        <time>2017-07-29T12:21:37Z</time>
      </trkpt>
      <trkpt lat="43.7372320052" lon="1.3714972045">
        <ele>123.19</ele>
        <time>2017-07-29T12:21:49Z</time>
      </trkpt>
      <trkpt lat="43.7367919553" lon="1.3719337340">
        <ele>123.19</ele>
        <time>2017-07-29T12:22:00Z</time>
      </trkpt>
      <trkpt lat="43.7363042962" lon="1.3724150229">
        <ele>123.19</ele>
        <time>2017-07-29T12:22:12Z</time>
      </trkpt>
      <trkpt lat="43.7358595524" lon="1.3728498761">
        <ele>123.67</ele>
        <time>2017-07-29T12:22:23Z</time>
      </trkpt>
      <trkpt lat="43.7357324827" lon="1.3729763590">
        <ele>123.19</ele>
        <time>2017-07-29T12:22:26Z</time>
      </trkpt>
      <trkpt lat="43.7356869690" lon="1.3730146643">
        <ele>123.67</ele>
        <time>2017-07-29T12:22:27Z</time>
      </trkpt>
      <trkpt lat="43.7352599949" lon="1.3734242041">
        <ele>123.67</ele>
        <time>2017-07-29T12:22:37Z</time>
      </trkpt>
      <trkpt lat="43.7347217090" lon="1.3738626614">
        <ele>123.67</ele>
        <time>2017-07-29T12:22:49Z</time>
      </trkpt>
      <trkpt lat="43.7345850840" lon="1.3739786670">
        <ele>123.67</ele>
        <time>2017-07-29T12:22:52Z</time>
      </trkpt>
      <trkpt lat="43.7344940566" lon="1.3740357477">
        <ele>123.67</ele>
        <time>2017-07-29T12:22:54Z</time>
      </trkpt>
      <trkpt lat="43.7344480399" lon="1.3740599714">
        <ele>123.67</ele>
        <time>2017-07-29T12:22:55Z</time>
      </trkpt>
      <trkpt lat="43.7339211535" lon="1.3744077366">
        <ele>123.67</ele>
        <time>2017-07-29T12:23:06Z</time>
      </trkpt>
      <trkpt lat="43.7333090231" lon="1.3747312780">
        <ele>123.67</ele>
        <time>2017-07-29T12:23:18Z</time>
      </trkpt>
      <trkpt lat="43.7327381317" lon="1.3750289194">
        <ele>123.67</ele>
        <time>2017-07-29T12:23:29Z</time>
      </trkpt>
      <trkpt lat="43.7321819924" lon="1.3752892613">
        <ele>123.67</ele>
        <time>2017-07-29T12:23:40Z</time>
      </trkpt>
      <trkpt lat="43.7316573691" lon="1.3755355217">
        <ele>123.67</ele>
        <time>2017-07-29T12:23:50Z</time>
      </trkpt>
      <trkpt lat="43.7316038925" lon="1.3755623437">
        <ele>123.19</ele>
        <time>2017-07-29T12:23:51Z</time>
      </trkpt>
      <trkpt lat="43.7315488234" lon="1.3755898364">
        <ele>123.67</ele>
        <time>2017-07-29T12:23:52Z</time>
      </trkpt>
      <trkpt lat="43.7309059314" lon="1.3759163953">
        <ele>123.67</ele>
        <time>2017-07-29T12:24:03Z</time>
      </trkpt>
      <trkpt lat="43.7307399698" lon="1.3760138769">
        <ele>124.15</ele>
        <time>2017-07-29T12:24:06Z</time>
      </trkpt>
      <trkpt lat="43.7304641213" lon="1.3761604764">
        <ele>123.67</ele>
        <time>2017-07-29T12:24:11Z</time>
      </trkpt>
      <trkpt lat="43.7304112315" lon="1.3761825208">
        <ele>124.15</ele>
        <time>2017-07-29T12:24:12Z</time>
      </trkpt>
      <trkpt lat="43.7303067092" lon="1.3762310520">
        <ele>123.67</ele>
        <time>2017-07-29T12:24:14Z</time>
      </trkpt>
      <trkpt lat="43.7296989374" lon="1.3765214011">
        <ele>123.67</ele>
        <time>2017-07-29T12:24:26Z</time>
      </trkpt>
      <trkpt lat="43.7290437240" lon="1.3768384047">
        <ele>124.15</ele>
        <time>2017-07-29T12:24:40Z</time>
      </trkpt>
      <trkpt lat="43.7285142392" lon="1.3770849165">
        <ele>124.15</ele>
        <time>2017-07-29T12:24:51Z</time>
      </trkpt>
      <trkpt lat="43.7279285118" lon="1.3773482759">
        <ele>124.15</ele>
        <time>2017-07-29T12:25:03Z</time>
      </trkpt>
      <trkpt lat="43.7276630569" lon="1.3774880022">
        <ele>123.67</ele>
        <time>2017-07-29T12:25:09Z</time>
      </trkpt>
      <trkpt lat="43.7276198063" lon="1.3775117230">
        <ele>123.67</ele>
        <time>2017-07-29T12:25:10Z</time>
      </trkpt>
      <trkpt lat="43.7273494061" lon="1.3776597474">
        <ele>123.67</ele>
        <time>2017-07-29T12:25:16Z</time>
      </trkpt>
      <trkpt lat="43.7273016293" lon="1.3776833843">
        <ele>123.67</ele>
        <time>2017-07-29T12:25:17Z</time>
      </trkpt>
      <trkpt lat="43.7271656748" lon="1.3777532056">
        <ele>123.67</ele>
        <time>2017-07-29T12:25:20Z</time>
      </trkpt>
      <trkpt lat="43.7271268666" lon="1.3777791895">
        <ele>123.67</ele>
        <time>2017-07-29T12:25:21Z</time>
      </trkpt>
      <trkpt lat="43.7270893995" lon="1.3778040837">
        <ele>123.67</ele>
        <time>2017-07-29T12:25:22Z</time>
      </trkpt>
      <trkpt lat="43.7270489149" lon="1.3778246194">
        <ele>124.15</ele>
        <time>2017-07-29T12:25:23Z</time>
      </trkpt>
      <trkpt lat="43.7270051613" lon="1.3778446522">
        <ele>123.67</ele>
        <time>2017-07-29T12:25:24Z</time>
      </trkpt>
      <trkpt lat="43.7269630842" lon="1.3778693788">
        <ele>123.67</ele>
        <time>2017-07-29T12:25:25Z</time>
      </trkpt>
      <trkpt lat="43.7266047578" lon="1.3780366816">
        <ele>123.19</ele>
        <time>2017-07-29T12:25:35Z</time>
      </trkpt>
      <trkpt lat="43.7265641894" lon="1.3780495897">
        <ele>123.67</ele>
        <time>2017-07-29T12:25:36Z</time>
      </trkpt>
      <trkpt lat="43.7265258003" lon="1.3780623302">
        <ele>123.67</ele>
        <time>2017-07-29T12:25:37Z</time>
      </trkpt>
      <trkpt lat="43.7262222078" lon="1.3781920820">
        <ele>123.67</ele>
        <time>2017-07-29T12:25:46Z</time>
      </trkpt>
      <trkpt lat="43.7259233091" lon="1.3783639949">
        <ele>123.67</ele>
        <time>2017-07-29T12:25:54Z</time>
      </trkpt>
      <trkpt lat="43.7255784776" lon="1.3785532583">
        <ele>124.15</ele>
        <time>2017-07-29T12:26:03Z</time>
      </trkpt>
      <trkpt lat="43.7252562772" lon="1.3786943257">
        <ele>123.67</ele>
        <time>2017-07-29T12:26:11Z</time>
      </trkpt>
      <trkpt lat="43.7251711171" lon="1.3787432760">
        <ele>124.15</ele>
        <time>2017-07-29T12:26:13Z</time>
      </trkpt>
      <trkpt lat="43.7248377688" lon="1.3788770512">
        <ele>124.15</ele>
        <time>2017-07-29T12:26:20Z</time>
      </trkpt>
      <trkpt lat="43.7245928496" lon="1.3790003490">
        <ele>124.15</ele>
        <time>2017-07-29T12:26:25Z</time>
      </trkpt>
      <trkpt lat="43.7242993992" lon="1.3791399077">
        <ele>125.59</ele>
        <time>2017-07-29T12:26:33Z</time>
      </trkpt>
      <trkpt lat="43.7239196151" lon="1.3793422468">
        <ele>126.07</ele>
        <time>2017-07-29T12:26:45Z</time>
      </trkpt>
      <trkpt lat="43.7237280048" lon="1.3794354536">
        <ele>126.55</ele>
        <time>2017-07-29T12:26:50Z</time>
      </trkpt>
      <trkpt lat="43.7234498933" lon="1.3795572426">
        <ele>126.07</ele>
        <time>2017-07-29T12:26:58Z</time>
      </trkpt>
      <trkpt lat="43.7231092528" lon="1.3797133137">
        <ele>126.07</ele>
        <time>2017-07-29T12:27:07Z</time>
      </trkpt>
      <trkpt lat="43.7226510141" lon="1.3799610827">
        <ele>126.07</ele>
        <time>2017-07-29T12:27:18Z</time>
      </trkpt>
      <trkpt lat="43.7223288976" lon="1.3801020663">
        <ele>126.07</ele>
        <time>2017-07-29T12:27:26Z</time>
      </trkpt>
      <trkpt lat="43.7222041748" lon="1.3801535312">
        <ele>126.55</ele>
        <time>2017-07-29T12:27:29Z</time>
      </trkpt>
      <trkpt lat="43.7218973972" lon="1.3803204987">
        <ele>126.55</ele>
        <time>2017-07-29T12:27:36Z</time>
      </trkpt>
      <trkpt lat="43.7218523026" lon="1.3803447224">
        <ele>126.55</ele>
        <time>2017-07-29T12:27:37Z</time>
      </trkpt>
      <trkpt lat="43.7217658013" lon="1.3803932536">
        <ele>126.55</ele>
        <time>2017-07-29T12:27:39Z</time>
      </trkpt>
      <trkpt lat="43.7214649748" lon="1.3805427030">
        <ele>126.07</ele>
        <time>2017-07-29T12:27:46Z</time>
      </trkpt>
      <trkpt lat="43.7212026212" lon="1.3806600496">
        <ele>126.55</ele>
        <time>2017-07-29T12:27:52Z</time>
      </trkpt>
      <trkpt lat="43.7211620528" lon="1.3806831837">
        <ele>126.07</ele>
        <time>2017-07-29T12:27:53Z</time>
      </trkpt>
      <trkpt lat="43.7211198919" lon="1.3806986064">
        <ele>126.07</ele>
        <time>2017-07-29T12:27:54Z</time>
      </trkpt>
      <trkpt lat="43.7205758225" lon="1.3809660729">
        <ele>126.55</ele>
        <time>2017-07-29T12:28:06Z</time>
      </trkpt>
      <trkpt lat="43.7205319013" lon="1.3809813280">
        <ele>126.55</ele>
        <time>2017-07-29T12:28:07Z</time>
      </trkpt>
      <trkpt lat="43.7204879802" lon="1.3809993491">
        <ele>126.55</ele>
        <time>2017-07-29T12:28:08Z</time>
      </trkpt>
      <trkpt lat="43.7202563882" lon="1.3811110798">
        <ele>126.55</ele>
        <time>2017-07-29T12:28:13Z</time>
      </trkpt>
      <trkpt lat="43.7196378876" lon="1.3814187795">
        <ele>126.07</ele>
        <time>2017-07-29T12:28:26Z</time>
      </trkpt>
      <trkpt lat="43.7192061357" lon="1.3816388883">
        <ele>126.07</ele>
        <time>2017-07-29T12:28:35Z</time>
      </trkpt>
      <trkpt lat="43.7191573530" lon="1.3816632796">
        <ele>126.07</ele>
        <time>2017-07-29T12:28:36Z</time>
      </trkpt>
      <trkpt lat="43.7191094086" lon="1.3816915266">
        <ele>126.07</ele>
        <time>2017-07-29T12:28:37Z</time>
      </trkpt>
      <trkpt lat="43.7189737055" lon="1.3817735855">
        <ele>126.07</ele>
        <time>2017-07-29T12:28:40Z</time>
      </trkpt>
      <trkpt lat="43.7183424644" lon="1.3820933551">
        <ele>126.55</ele>
        <time>2017-07-29T12:28:54Z</time>
      </trkpt>
      <trkpt lat="43.7182050850" lon="1.3821661938">
        <ele>126.07</ele>
        <time>2017-07-29T12:28:57Z</time>
      </trkpt>
      <trkpt lat="43.7181545421" lon="1.3821889088">
        <ele>126.07</ele>
        <time>2017-07-29T12:28:58Z</time>
      </trkpt>
      <trkpt lat="43.7175724190" lon="1.3824799284">
        <ele>126.55</ele>
        <time>2017-07-29T12:29:10Z</time>
      </trkpt>
      <trkpt lat="43.7174329441" lon="1.3825472351">
        <ele>126.07</ele>
        <time>2017-07-29T12:29:13Z</time>
      </trkpt>
      <trkpt lat="43.7173863407" lon="1.3825686928">
        <ele>126.55</ele>
        <time>2017-07-29T12:29:14Z</time>
      </trkpt>
      <trkpt lat="43.7171994243" lon="1.3826665934">
        <ele>126.55</ele>
        <time>2017-07-29T12:29:18Z</time>
      </trkpt>
      <trkpt lat="43.7165174726" lon="1.3830115087">
        <ele>126.55</ele>
        <time>2017-07-29T12:29:32Z</time>
      </trkpt>
      <trkpt lat="43.7158247922" lon="1.3833479583">
        <ele>126.55</ele>
        <time>2017-07-29T12:29:46Z</time>
      </trkpt>
      <trkpt lat="43.7151912041" lon="1.3836607710">
        <ele>126.55</ele>
        <time>2017-07-29T12:29:59Z</time>
      </trkpt>
      <trkpt lat="43.7146222405" lon="1.3839456718">
        <ele>126.55</ele>
        <time>2017-07-29T12:30:11Z</time>
      </trkpt>
      <trkpt lat="43.7145744637" lon="1.3839699794">
        <ele>126.55</ele>
        <time>2017-07-29T12:30:12Z</time>
      </trkpt>
      <trkpt lat="43.7144779880" lon="1.3840133976">
        <ele>126.07</ele>
        <time>2017-07-29T12:30:14Z</time>
      </trkpt>
      <trkpt lat="43.7139143888" lon="1.3842974603">
        <ele>126.07</ele>
        <time>2017-07-29T12:30:26Z</time>
      </trkpt>
      <trkpt lat="43.7134485226" lon="1.3845272921">
        <ele>126.55</ele>
        <time>2017-07-29T12:30:36Z</time>
      </trkpt>
      <trkpt lat="43.7128792237" lon="1.3848024700">
        <ele>126.55</ele>
        <time>2017-07-29T12:30:48Z</time>
      </trkpt>
      <trkpt lat="43.7128348835" lon="1.3848252688">
        <ele>126.55</ele>
        <time>2017-07-29T12:30:49Z</time>
      </trkpt>
      <trkpt lat="43.7127021980" lon="1.3848981075">
        <ele>126.55</ele>
        <time>2017-07-29T12:30:52Z</time>
      </trkpt>
      <trkpt lat="43.7124203984" lon="1.3850060664">
        <ele>126.55</ele>
        <time>2017-07-29T12:30:58Z</time>
      </trkpt>
      <trkpt lat="43.7118907459" lon="1.3852684200">
        <ele>126.55</ele>
        <time>2017-07-29T12:31:09Z</time>
      </trkpt>
      <trkpt lat="43.7112485245" lon="1.3855954818">
        <ele>126.55</ele>
        <time>2017-07-29T12:31:22Z</time>
      </trkpt>
      <trkpt lat="43.7105374876" lon="1.3859554008">
        <ele>126.07</ele>
        <time>2017-07-29T12:31:36Z</time>
      </trkpt>
      <trkpt lat="43.7103487272" lon="1.3860470988">
        <ele>126.07</ele>
        <time>2017-07-29T12:31:40Z</time>
      </trkpt>
      <trkpt lat="43.7103018723" lon="1.3860669639">
        <ele>126.07</ele>
        <time>2017-07-29T12:31:41Z</time>
      </trkpt>
      <trkpt lat="43.7102564424" lon="1.3860870805">
        <ele>126.07</ele>
        <time>2017-07-29T12:31:42Z</time>
      </trkpt>
      <trkpt lat="43.7100775726" lon="1.3861577399">
        <ele>126.55</ele>
        <time>2017-07-29T12:31:46Z</time>
      </trkpt>
      <trkpt lat="43.7098465674" lon="1.3862905093">
        <ele>126.07</ele>
        <time>2017-07-29T12:31:51Z</time>
      </trkpt>
      <trkpt lat="43.7098010536" lon="1.3863114640">
        <ele>126.07</ele>
        <time>2017-07-29T12:31:52Z</time>
      </trkpt>
      <trkpt lat="43.7097544502" lon="1.3863330893">
        <ele>126.55</ele>
        <time>2017-07-29T12:31:53Z</time>
      </trkpt>
      <trkpt lat="43.7090996560" lon="1.3866437227">
        <ele>126.55</ele>
        <time>2017-07-29T12:32:06Z</time>
      </trkpt>
      <trkpt lat="43.7090041861" lon="1.3866930921">
        <ele>126.55</ele>
        <time>2017-07-29T12:32:08Z</time>
      </trkpt>
      <trkpt lat="43.7085667346" lon="1.3868953474">
        <ele>127.99</ele>
        <time>2017-07-29T12:32:19Z</time>
      </trkpt>
      <trkpt lat="43.7083395012" lon="1.3870152086">
        <ele>129.92</ele>
        <time>2017-07-29T12:32:30Z</time>
      </trkpt>
      <trkpt lat="43.7080400996" lon="1.3872012030">
        <ele>128.47</ele>
        <time>2017-07-29T12:32:38Z</time>
      </trkpt>
      <trkpt lat="43.7077255268" lon="1.3873332180">
        <ele>128.47</ele>
        <time>2017-07-29T12:32:45Z</time>
      </trkpt>
      <trkpt lat="43.7073858082" lon="1.3875029515">
        <ele>127.99</ele>
        <time>2017-07-29T12:32:54Z</time>
      </trkpt>
      <trkpt lat="43.7069475185" lon="1.3877089787">
        <ele>128.47</ele>
        <time>2017-07-29T12:33:05Z</time>
      </trkpt>
      <trkpt lat="43.7069070339" lon="1.3877274189">
        <ele>128.95</ele>
        <time>2017-07-29T12:33:06Z</time>
      </trkpt>
      <trkpt lat="43.7068639509" lon="1.3877466135">
        <ele>128.95</ele>
        <time>2017-07-29T12:33:07Z</time>
      </trkpt>
      <trkpt lat="43.7064056285" lon="1.3879664708">
        <ele>128.95</ele>
        <time>2017-07-29T12:33:18Z</time>
      </trkpt>
      <trkpt lat="43.7058660854" lon="1.3882809598">
        <ele>128.95</ele>
        <time>2017-07-29T12:33:30Z</time>
      </trkpt>
      <trkpt lat="43.7057311367" lon="1.3883569837">
        <ele>128.95</ele>
        <time>2017-07-29T12:33:33Z</time>
      </trkpt>
      <trkpt lat="43.7056880537" lon="1.3883844763">
        <ele>128.95</ele>
        <time>2017-07-29T12:33:34Z</time>
      </trkpt>
      <trkpt lat="43.7056411151" lon="1.3884102926">
        <ele>128.95</ele>
        <time>2017-07-29T12:33:35Z</time>
      </trkpt>
      <trkpt lat="43.7052257918" lon="1.3886239473">
        <ele>128.95</ele>
        <time>2017-07-29T12:33:44Z</time>
      </trkpt>
      <trkpt lat="43.7051827926" lon="1.3886429742">
        <ele>128.47</ele>
        <time>2017-07-29T12:33:45Z</time>
      </trkpt>
      <trkpt lat="43.7049480155" lon="1.3887682837">
        <ele>128.47</ele>
        <time>2017-07-29T12:33:50Z</time>
      </trkpt>
      <trkpt lat="43.7049026694" lon="1.3887912501">
        <ele>128.47</ele>
        <time>2017-07-29T12:33:51Z</time>
      </trkpt>
      <trkpt lat="43.7046062015" lon="1.3889552839">
        <ele>128.47</ele>
        <time>2017-07-29T12:33:57Z</time>
      </trkpt>
      <trkpt lat="43.7045614421" lon="1.3889871351">
        <ele>128.95</ele>
        <time>2017-07-29T12:33:58Z</time>
      </trkpt>
      <trkpt lat="43.7039908860" lon="1.3893615548">
        <ele>128.95</ele>
        <time>2017-07-29T12:34:09Z</time>
      </trkpt>
      <trkpt lat="43.7033795938" lon="1.3897042070">
        <ele>128.95</ele>
        <time>2017-07-29T12:34:21Z</time>
      </trkpt>
      <trkpt lat="43.7030299008" lon="1.3898964878">
        <ele>128.95</ele>
        <time>2017-07-29T12:34:28Z</time>
      </trkpt>
      <trkpt lat="43.7027649488" lon="1.3900302630">
        <ele>128.95</ele>
        <time>2017-07-29T12:34:33Z</time>
      </trkpt>
      <trkpt lat="43.7027123943" lon="1.3900683168">
        <ele>128.47</ele>
        <time>2017-07-29T12:34:34Z</time>
      </trkpt>
      <trkpt lat="43.7026585825" lon="1.3900974859">
        <ele>128.95</ele>
        <time>2017-07-29T12:34:35Z</time>
      </trkpt>
      <trkpt lat="43.7026048545" lon="1.3901288342">
        <ele>128.95</ele>
        <time>2017-07-29T12:34:36Z</time>
      </trkpt>
      <trkpt lat="43.7025488634" lon="1.3901637029">
        <ele>128.95</ele>
        <time>2017-07-29T12:34:37Z</time>
      </trkpt>
      <trkpt lat="43.7018907163" lon="1.3905207720">
        <ele>128.95</ele>
        <time>2017-07-29T12:34:49Z</time>
      </trkpt>
      <trkpt lat="43.7013220880" lon="1.3908360153">
        <ele>128.47</ele>
        <time>2017-07-29T12:35:00Z</time>
      </trkpt>
      <trkpt lat="43.7006799504" lon="1.3911881391">
        <ele>128.95</ele>
        <time>2017-07-29T12:35:12Z</time>
      </trkpt>
      <trkpt lat="43.7001826521" lon="1.3914380036">
        <ele>128.95</ele>
        <time>2017-07-29T12:35:22Z</time>
      </trkpt>
      <trkpt lat="43.6995607149" lon="1.3918172009">
        <ele>128.47</ele>
        <time>2017-07-29T12:35:34Z</time>
      </trkpt>
      <trkpt lat="43.6992057413" lon="1.3920093980">
        <ele>128.95</ele>
        <time>2017-07-29T12:35:41Z</time>
      </trkpt>
      <trkpt lat="43.6987340078" lon="1.3922743499">
        <ele>128.95</ele>
        <time>2017-07-29T12:35:50Z</time>
      </trkpt>
      <trkpt lat="43.6980073806" lon="1.3926901761">
        <ele>128.95</ele>
        <time>2017-07-29T12:36:04Z</time>
      </trkpt>
      <trkpt lat="43.6974307895" lon="1.3929899130">
        <ele>128.95</ele>
        <time>2017-07-29T12:36:15Z</time>
      </trkpt>
      <trkpt lat="43.6967749055" lon="1.3933750615">
        <ele>128.95</ele>
        <time>2017-07-29T12:36:28Z</time>
      </trkpt>
      <trkpt lat="43.6962386314" lon="1.3936669193">
        <ele>128.47</ele>
        <time>2017-07-29T12:36:39Z</time>
      </trkpt>
      <trkpt lat="43.6957193725" lon="1.3939615432">
        <ele>127.99</ele>
        <time>2017-07-29T12:36:50Z</time>
      </trkpt>
      <trkpt lat="43.6954233237" lon="1.3941403292">
        <ele>127.99</ele>
        <time>2017-07-29T12:36:57Z</time>
      </trkpt>
      <trkpt lat="43.6953839287" lon="1.3941601105">
        <ele>127.99</ele>
        <time>2017-07-29T12:36:58Z</time>
      </trkpt>
      <trkpt lat="43.6953421868" lon="1.3941835798">
        <ele>127.99</ele>
        <time>2017-07-29T12:36:59Z</time>
      </trkpt>
      <trkpt lat="43.6950546037" lon="1.3943380583">
        <ele>128.47</ele>
        <time>2017-07-29T12:37:05Z</time>
      </trkpt>
      <trkpt lat="43.6950059887" lon="1.3943580911">
        <ele>128.47</ele>
        <time>2017-07-29T12:37:06Z</time>
      </trkpt>
      <trkpt lat="43.6949566193" lon="1.3943836559">
        <ele>128.95</ele>
        <time>2017-07-29T12:37:07Z</time>
      </trkpt>
      <trkpt lat="43.6945331655" lon="1.3946302515">
        <ele>128.95</ele>
        <time>2017-07-29T12:37:16Z</time>
      </trkpt>
      <trkpt lat="43.6943402980" lon="1.3947316725">
        <ele>125.11</ele>
        <time>2017-07-29T12:37:20Z</time>
      </trkpt>
      <trkpt lat="43.6942924373" lon="1.3947592489">
        <ele>131.36</ele>
        <time>2017-07-29T12:37:21Z</time>
      </trkpt>
      <trkpt lat="43.6942463368" lon="1.3947863225">
        <ele>128.95</ele>
        <time>2017-07-29T12:37:22Z</time>
      </trkpt>
      <trkpt lat="43.6936705001" lon="1.3951003924">
        <ele>128.47</ele>
        <time>2017-07-29T12:37:34Z</time>
      </trkpt>
      <trkpt lat="43.6931545939" lon="1.3953875564">
        <ele>128.47</ele>
        <time>2017-07-29T12:37:44Z</time>
      </trkpt>
      <trkpt lat="43.6931031290" lon="1.3954202458">
        <ele>128.47</ele>
        <time>2017-07-29T12:37:45Z</time>
      </trkpt>
      <trkpt lat="43.6928519234" lon="1.3955663424">
        <ele>128.47</ele>
        <time>2017-07-29T12:37:50Z</time>
      </trkpt>
      <trkpt lat="43.6921376176" lon="1.3959680032">
        <ele>128.47</ele>
        <time>2017-07-29T12:38:04Z</time>
      </trkpt>
      <trkpt lat="43.6915722582" lon="1.3963056263">
        <ele>128.47</ele>
        <time>2017-07-29T12:38:15Z</time>
      </trkpt>
      <trkpt lat="43.6913799774" lon="1.3964114897">
        <ele>128.47</ele>
        <time>2017-07-29T12:38:19Z</time>
      </trkpt>
      <trkpt lat="43.6913348828" lon="1.3964404911">
        <ele>128.47</ele>
        <time>2017-07-29T12:38:20Z</time>
      </trkpt>
      <trkpt lat="43.6912482139" lon="1.3964912854">
        <ele>128.47</ele>
        <time>2017-07-29T12:38:22Z</time>
      </trkpt>
      <trkpt lat="43.6906738859" lon="1.3967999071">
        <ele>128.95</ele>
        <time>2017-07-29T12:38:34Z</time>
      </trkpt>
      <trkpt lat="43.6903422978" lon="1.3969761785">
        <ele>128.47</ele>
        <time>2017-07-29T12:38:41Z</time>
      </trkpt>
      <trkpt lat="43.6902954429" lon="1.3970047608">
        <ele>128.47</ele>
        <time>2017-07-29T12:38:42Z</time>
      </trkpt>
      <trkpt lat="43.6896254774" lon="1.3973806892">
        <ele>128.95</ele>
        <time>2017-07-29T12:38:56Z</time>
      </trkpt>
      <trkpt lat="43.6893393192" lon="1.3975460641">
        <ele>128.95</ele>
        <time>2017-07-29T12:39:02Z</time>
      </trkpt>
      <trkpt lat="43.6892899498" lon="1.3975669350">
        <ele>128.95</ele>
        <time>2017-07-29T12:39:03Z</time>
      </trkpt>
      <trkpt lat="43.6892412510" lon="1.3975912426">
        <ele>128.95</ele>
        <time>2017-07-29T12:39:04Z</time>
      </trkpt>
      <trkpt lat="43.6886360776" lon="1.3979255967">
        <ele>129.43</ele>
        <time>2017-07-29T12:39:16Z</time>
      </trkpt>
      <trkpt lat="43.6879745778" lon="1.3982933946">
        <ele>128.95</ele>
        <time>2017-07-29T12:39:29Z</time>
      </trkpt>
      <trkpt lat="43.6873799656" lon="1.3986285031">
        <ele>129.43</ele>
        <time>2017-07-29T12:39:41Z</time>
      </trkpt>
      <trkpt lat="43.6867229920" lon="1.3990116399">
        <ele>128.95</ele>
        <time>2017-07-29T12:39:54Z</time>
      </trkpt>
      <trkpt lat="43.6860543676" lon="1.3993861433">
        <ele>128.95</ele>
        <time>2017-07-29T12:40:07Z</time>
      </trkpt>
      <trkpt lat="43.6854059435" lon="1.3997386862">
        <ele>128.95</ele>
        <time>2017-07-29T12:40:20Z</time>
      </trkpt>
      <trkpt lat="43.6847712658" lon="1.4001157042">
        <ele>128.47</ele>
        <time>2017-07-29T12:40:34Z</time>
      </trkpt>
      <trkpt lat="43.6843165476" lon="1.4003799856">
        <ele>128.47</ele>
        <time>2017-07-29T12:40:44Z</time>
      </trkpt>
      <trkpt lat="43.6842730455" lon="1.4004007727">
        <ele>128.47</ele>
        <time>2017-07-29T12:40:45Z</time>
      </trkpt>
      <trkpt lat="43.6842276994" lon="1.4004233200">
        <ele>128.47</ele>
        <time>2017-07-29T12:40:46Z</time>
      </trkpt>
      <trkpt lat="43.6840003822" lon="1.4005641360">
        <ele>128.47</ele>
        <time>2017-07-29T12:40:51Z</time>
      </trkpt>
      <trkpt lat="43.6839541979" lon="1.4005896170">
        <ele>128.47</ele>
        <time>2017-07-29T12:40:52Z</time>
      </trkpt>
      <trkpt lat="43.6839111149" lon="1.4006143436">
        <ele>128.47</ele>
        <time>2017-07-29T12:40:53Z</time>
      </trkpt>
      <trkpt lat="43.6833159160" lon="1.4009606000">
        <ele>128.47</ele>
        <time>2017-07-29T12:41:06Z</time>
      </trkpt>
      <trkpt lat="43.6826693360" lon="1.4013524540">
        <ele>128.47</ele>
        <time>2017-07-29T12:41:20Z</time>
      </trkpt>
      <trkpt lat="43.6825744528" lon="1.4014035836">
        <ele>128.47</ele>
        <time>2017-07-29T12:41:22Z</time>
      </trkpt>
      <trkpt lat="43.6820005439" lon="1.4017293043">
        <ele>128.47</ele>
        <time>2017-07-29T12:41:34Z</time>
      </trkpt>
      <trkpt lat="43.6814780999" lon="1.4020291250">
        <ele>128.95</ele>
        <time>2017-07-29T12:41:45Z</time>
      </trkpt>
      <trkpt lat="43.6814297363" lon="1.4020551089">
        <ele>128.47</ele>
        <time>2017-07-29T12:41:46Z</time>
      </trkpt>
      <trkpt lat="43.6808559950" lon="1.4024141897">
        <ele>128.47</ele>
        <time>2017-07-29T12:41:58Z</time>
      </trkpt>
      <trkpt lat="43.6802660767" lon="1.4027591050">
        <ele>128.47</ele>
        <time>2017-07-29T12:42:10Z</time>
      </trkpt>
      <trkpt lat="43.6796245258" lon="1.4031604305">
        <ele>128.47</ele>
        <time>2017-07-29T12:42:23Z</time>
      </trkpt>
      <trkpt lat="43.6790432408" lon="1.4034997299">
        <ele>128.47</ele>
        <time>2017-07-29T12:42:35Z</time>
      </trkpt>
      <trkpt lat="43.6786459386" lon="1.4037340041">
        <ele>128.47</ele>
        <time>2017-07-29T12:42:43Z</time>
      </trkpt>
      <trkpt lat="43.6781560164" lon="1.4040195756">
        <ele>128.47</ele>
        <time>2017-07-29T12:42:53Z</time>
      </trkpt>
      <trkpt lat="43.6781105027" lon="1.4040535223">
        <ele>127.99</ele>
        <time>2017-07-29T12:42:54Z</time>
      </trkpt>
      <trkpt lat="43.6780192237" lon="1.4041107707">
        <ele>128.47</ele>
        <time>2017-07-29T12:42:56Z</time>
      </trkpt>
      <trkpt lat="43.6777240969" lon="1.4042815100">
        <ele>128.47</ele>
        <time>2017-07-29T12:43:02Z</time>
      </trkpt>
      <trkpt lat="43.6776737217" lon="1.4043069072">
        <ele>128.47</ele>
        <time>2017-07-29T12:43:03Z</time>
      </trkpt>
      <trkpt lat="43.6772758327" lon="1.4045343082">
        <ele>127.99</ele>
        <time>2017-07-29T12:43:11Z</time>
      </trkpt>
      <trkpt lat="43.6772278883" lon="1.4045612980">
        <ele>127.99</ele>
        <time>2017-07-29T12:43:12Z</time>
      </trkpt>
      <trkpt lat="43.6767682247" lon="1.4048222266">
        <ele>129.43</ele>
        <time>2017-07-29T12:43:23Z</time>
      </trkpt>
      <trkpt lat="43.6765388958" lon="1.4049798902">
        <ele>131.36</ele>
        <time>2017-07-29T12:43:35Z</time>
      </trkpt>
      <trkpt lat="43.6763393227" lon="1.4050846640">
        <ele>129.92</ele>
        <time>2017-07-29T12:43:42Z</time>
      </trkpt>
      <trkpt lat="43.6759599578" lon="1.4052946307">
        <ele>129.92</ele>
        <time>2017-07-29T12:43:53Z</time>
      </trkpt>
      <trkpt lat="43.6758500710" lon="1.4053787012">
        <ele>129.92</ele>
        <time>2017-07-29T12:43:56Z</time>
      </trkpt>
      <trkpt lat="43.6756199878" lon="1.4055030048">
        <ele>129.92</ele>
        <time>2017-07-29T12:44:01Z</time>
      </trkpt>
      <trkpt lat="43.6752935965" lon="1.4057171624">
        <ele>129.92</ele>
        <time>2017-07-29T12:44:08Z</time>
      </trkpt>
      <trkpt lat="43.6751558818" lon="1.4058027416">
        <ele>130.40</ele>
        <time>2017-07-29T12:44:11Z</time>
      </trkpt>
      <trkpt lat="43.6751119606" lon="1.4058334194">
        <ele>130.40</ele>
        <time>2017-07-29T12:44:12Z</time>
      </trkpt>
      <trkpt lat="43.6746684741" lon="1.4060865529">
        <ele>130.40</ele>
        <time>2017-07-29T12:44:22Z</time>
      </trkpt>
      <trkpt lat="43.6741847545" lon="1.4063755609">
        <ele>129.92</ele>
        <time>2017-07-29T12:44:34Z</time>
      </trkpt>
      <trkpt lat="43.6741192918" lon="1.4064242598">
        <ele>130.40</ele>
        <time>2017-07-29T12:44:36Z</time>
      </trkpt>
      <trkpt lat="43.6740043759" lon="1.4064915664">
        <ele>130.40</ele>
        <time>2017-07-29T12:44:39Z</time>
      </trkpt>
      <trkpt lat="43.6739638913" lon="1.4065177180">
        <ele>130.40</ele>
        <time>2017-07-29T12:44:40Z</time>
      </trkpt>
      <trkpt lat="43.6734801717" lon="1.4068078995">
        <ele>130.40</ele>
        <time>2017-07-29T12:44:51Z</time>
      </trkpt>
      <trkpt lat="43.6730003078" lon="1.4070822392">
        <ele>129.92</ele>
        <time>2017-07-29T12:45:03Z</time>
      </trkpt>
      <trkpt lat="43.6726653669" lon="1.4072829857">
        <ele>129.92</ele>
        <time>2017-07-29T12:45:14Z</time>
      </trkpt>
      <trkpt lat="43.6725576594" lon="1.4073430002">
        <ele>129.92</ele>
        <time>2017-07-29T12:45:17Z</time>
      </trkpt>
      <trkpt lat="43.6725198571" lon="1.4073647093">
        <ele>129.92</ele>
        <time>2017-07-29T12:45:18Z</time>
      </trkpt>
      <trkpt lat="43.6721160170" lon="1.4075950440">
        <ele>129.92</ele>
        <time>2017-07-29T12:45:28Z</time>
      </trkpt>
      <trkpt lat="43.6720074713" lon="1.4076546393">
        <ele>129.92</ele>
        <time>2017-07-29T12:45:31Z</time>
      </trkpt>
      <trkpt lat="43.6718828324" lon="1.4077431522">
        <ele>129.92</ele>
        <time>2017-07-29T12:45:34Z</time>
      </trkpt>
      <trkpt lat="43.6718432698" lon="1.4077689685">
        <ele>129.92</ele>
        <time>2017-07-29T12:45:35Z</time>
      </trkpt>
      <trkpt lat="43.6718081497" lon="1.4077941980">
        <ele>130.40</ele>
        <time>2017-07-29T12:45:36Z</time>
      </trkpt>
      <trkpt lat="43.6716884561" lon="1.4078657795">
        <ele>130.40</ele>
        <time>2017-07-29T12:45:39Z</time>
      </trkpt>
      <trkpt lat="43.6715367436" lon="1.4079723973">
        <ele>130.40</ele>
        <time>2017-07-29T12:45:43Z</time>
      </trkpt>
      <trkpt lat="43.6714986060" lon="1.4079888258">
        <ele>131.36</ele>
        <time>2017-07-29T12:45:44Z</time>
      </trkpt>
      <trkpt lat="43.6711111106" lon="1.4082117844">
        <ele>130.40</ele>
        <time>2017-07-29T12:45:54Z</time>
      </trkpt>
      <trkpt lat="43.6709982902" lon="1.4082804322">
        <ele>130.40</ele>
        <time>2017-07-29T12:45:57Z</time>
      </trkpt>
      <trkpt lat="43.6709590629" lon="1.4083081763">
        <ele>130.40</ele>
        <time>2017-07-29T12:45:58Z</time>
      </trkpt>
      <trkpt lat="43.6706454959" lon="1.4084914047">
        <ele>130.40</ele>
        <time>2017-07-29T12:46:07Z</time>
      </trkpt>
      <trkpt lat="43.6703581642" lon="1.4086547680">
        <ele>130.40</ele>
        <time>2017-07-29T12:46:16Z</time>
      </trkpt>
      <trkpt lat="43.6699741893" lon="1.4088695962">
        <ele>130.88</ele>
        <time>2017-07-29T12:46:29Z</time>
      </trkpt>
      <trkpt lat="43.6698009353" lon="1.4089789800">
        <ele>130.88</ele>
        <time>2017-07-29T12:46:39Z</time>
      </trkpt>
      <trkpt lat="43.6697485484" lon="1.4089976717">
        <ele>130.88</ele>
        <time>2017-07-29T12:46:42Z</time>
      </trkpt>
      <trkpt lat="43.6697312817" lon="1.4090077300">
        <ele>130.88</ele>
        <time>2017-07-29T12:46:43Z</time>
      </trkpt>
      <trkpt lat="43.6697152723" lon="1.4090187103">
        <ele>130.88</ele>
        <time>2017-07-29T12:46:44Z</time>
      </trkpt>
      <trkpt lat="43.6697021127" lon="1.4090296067">
        <ele>130.88</ele>
        <time>2017-07-29T12:46:45Z</time>
      </trkpt>
      <trkpt lat="43.6696885340" lon="1.4090410061">
        <ele>130.88</ele>
        <time>2017-07-29T12:46:46Z</time>
      </trkpt>
      <trkpt lat="43.6696746200" lon="1.4090492204">
        <ele>130.88</ele>
        <time>2017-07-29T12:46:47Z</time>
      </trkpt>
      <trkpt lat="43.6695094965" lon="1.4091206342">
        <ele>131.36</ele>
        <time>2017-07-29T12:46:58Z</time>
      </trkpt>
      <trkpt lat="43.6693215743" lon="1.4092380647">
        <ele>130.88</ele>
        <time>2017-07-29T12:47:09Z</time>
      </trkpt>
      <trkpt lat="43.6692177225" lon="1.4092966542">
        <ele>130.88</ele>
        <time>2017-07-29T12:47:17Z</time>
      </trkpt>
      <trkpt lat="43.6692092568" lon="1.4093069639">
        <ele>130.88</ele>
        <time>2017-07-29T12:47:18Z</time>
      </trkpt>
      <trkpt lat="43.6691980250" lon="1.4093186986">
        <ele>130.88</ele>
        <time>2017-07-29T12:47:19Z</time>
      </trkpt>
      <trkpt lat="43.6691835243" lon="1.4093217161">
        <ele>130.88</ele>
        <time>2017-07-29T12:47:20Z</time>
      </trkpt>
      <trkpt lat="43.6691685207" lon="1.4093230572">
        <ele>130.88</ele>
        <time>2017-07-29T12:47:21Z</time>
      </trkpt>
      <trkpt lat="43.6691537686" lon="1.4093278348">
        <ele>130.88</ele>
        <time>2017-07-29T12:47:22Z</time>
      </trkpt>
      <trkpt lat="43.6691401899" lon="1.4093343727">
        <ele>130.88</ele>
        <time>2017-07-29T12:47:23Z</time>
      </trkpt>
      <trkpt lat="43.6690810975" lon="1.4093684871">
        <ele>130.88</ele>
        <time>2017-07-29T12:47:28Z</time>
      </trkpt>
      <trkpt lat="43.6690291297" lon="1.4093969017">
        <ele>130.88</ele>
        <time>2017-07-29T12:47:31Z</time>
      </trkpt>
      <trkpt lat="43.6690130364" lon="1.4094123244">
        <ele>130.88</ele>
        <time>2017-07-29T12:47:32Z</time>
      </trkpt>
      <trkpt lat="43.6689966079" lon="1.4094264060">
        <ele>130.40</ele>
        <time>2017-07-29T12:47:33Z</time>
      </trkpt>
      <trkpt lat="43.6689765751" lon="1.4094378054">
        <ele>130.88</ele>
        <time>2017-07-29T12:47:34Z</time>
      </trkpt>
      <trkpt lat="43.6689549498" lon="1.4094469417">
        <ele>130.88</ele>
        <time>2017-07-29T12:47:35Z</time>
      </trkpt>
      <trkpt lat="43.6689339112" lon="1.4094551560">
        <ele>130.88</ele>
        <time>2017-07-29T12:47:36Z</time>
      </trkpt>
      <trkpt lat="43.6689149681" lon="1.4094677288">
        <ele>130.88</ele>
        <time>2017-07-29T12:47:37Z</time>
      </trkpt>
      <trkpt lat="43.6688969471" lon="1.4094822295">
        <ele>130.88</ele>
        <time>2017-07-29T12:47:38Z</time>
      </trkpt>
      <trkpt lat="43.6686832085" lon="1.4096170943">
        <ele>130.40</ele>
        <time>2017-07-29T12:47:49Z</time>
      </trkpt>
      <trkpt lat="43.6683710665" lon="1.4097972214">
        <ele>130.40</ele>
        <time>2017-07-29T12:48:00Z</time>
      </trkpt>
      <trkpt lat="43.6680078786" lon="1.4100174978">
        <ele>129.43</ele>
        <time>2017-07-29T12:48:13Z</time>
      </trkpt>
      <trkpt lat="43.6679780390" lon="1.4100465830">
        <ele>129.43</ele>
        <time>2017-07-29T12:48:18Z</time>
      </trkpt>
      <trkpt lat="43.6679664720" lon="1.4100578148">
        <ele>129.43</ele>
        <time>2017-07-29T12:48:26Z</time>
      </trkpt>
      <trkpt lat="43.6679629516" lon="1.4100747462">
        <ele>129.43</ele>
        <time>2017-07-29T12:48:37Z</time>
      </trkpt>
      <trkpt lat="43.6679616943" lon="1.4100862294">
        <ele>129.43</ele>
        <time>2017-07-29T12:48:56Z</time>
      </trkpt>
      <trkpt lat="43.6679626163" lon="1.4100947790">
        <ele>129.43</ele>
        <time>2017-07-29T12:49:16Z</time>
      </trkpt>
      <trkpt lat="43.6679550726" lon="1.4101102017">
        <ele>129.43</ele>
        <time>2017-07-29T12:49:35Z</time>
      </trkpt>
      <trkpt lat="43.6679442599" lon="1.4101173263">
        <ele>129.43</ele>
        <time>2017-07-29T12:49:36Z</time>
      </trkpt>
      <trkpt lat="43.6679298431" lon="1.4101245347">
        <ele>129.43</ele>
        <time>2017-07-29T12:49:37Z</time>
      </trkpt>
      <trkpt lat="43.6679078825" lon="1.4101295639">
        <ele>129.43</ele>
        <time>2017-07-29T12:49:38Z</time>
      </trkpt>
      <trkpt lat="43.6678851675" lon="1.4101371076">
        <ele>129.92</ele>
        <time>2017-07-29T12:49:39Z</time>
      </trkpt>
      <trkpt lat="43.6678630393" lon="1.4101495128">
        <ele>129.92</ele>
        <time>2017-07-29T12:49:40Z</time>
      </trkpt>
      <trkpt lat="43.6675757915" lon="1.4102916699">
        <ele>131.84</ele>
        <time>2017-07-29T12:49:50Z</time>
      </trkpt>
      <trkpt lat="43.6674259230" lon="1.4103718847">
        <ele>132.32</ele>
        <time>2017-07-29T12:49:59Z</time>
      </trkpt>
      <trkpt lat="43.6674126796" lon="1.4104209188">
        <ele>131.84</ele>
        <time>2017-07-29T12:50:01Z</time>
      </trkpt>
      <trkpt lat="43.6674102489" lon="1.4104606491">
        <ele>131.84</ele>
        <time>2017-07-29T12:50:03Z</time>
      </trkpt>
      <trkpt lat="43.6673903838" lon="1.4104918297">
        <ele>131.36</ele>
        <time>2017-07-29T12:50:06Z</time>
      </trkpt>
      <trkpt lat="43.6673811637" lon="1.4104984514">
        <ele>131.36</ele>
        <time>2017-07-29T12:50:07Z</time>
      </trkpt>
      <trkpt lat="43.6673706025" lon="1.4105050731">
        <ele>131.36</ele>
        <time>2017-07-29T12:50:08Z</time>
      </trkpt>
      <trkpt lat="43.6673567723" lon="1.4105104376">
        <ele>131.36</ele>
        <time>2017-07-29T12:50:09Z</time>
      </trkpt>
      <trkpt lat="43.6673437804" lon="1.4105157182">
        <ele>131.36</ele>
        <time>2017-07-29T12:50:10Z</time>
      </trkpt>
      <trkpt lat="43.6673315428" lon="1.4105219208">
        <ele>131.36</ele>
        <time>2017-07-29T12:50:11Z</time>
      </trkpt>
      <trkpt lat="43.6673204787" lon="1.4105312247">
        <ele>131.36</ele>
        <time>2017-07-29T12:50:12Z</time>
      </trkpt>
      <trkpt lat="43.6673110072" lon="1.4105426241">
        <ele>131.36</ele>
        <time>2017-07-29T12:50:13Z</time>
      </trkpt>
      <trkpt lat="43.6672965903" lon="1.4105517603">
        <ele>131.84</ele>
        <time>2017-07-29T12:50:22Z</time>
      </trkpt>
      <trkpt lat="43.6672986019" lon="1.4105519280">
        <ele>131.84</ele>
        <time>2017-07-29T12:50:44Z</time>
      </trkpt>
      <trkpt lat="43.6672944110" lon="1.4105493296">
        <ele>131.84</ele>
        <time>2017-07-29T12:50:59Z</time>
      </trkpt>
      <trkpt lat="43.6672960874" lon="1.4105616510">
        <ele>131.36</ele>
        <time>2017-07-29T12:51:29Z</time>
      </trkpt>
      <trkpt lat="43.6673067324" lon="1.4105640817">
        <ele>131.36</ele>
        <time>2017-07-29T12:51:52Z</time>
      </trkpt>
      <trkpt lat="43.6673044693" lon="1.4105517603">
        <ele>131.36</ele>
        <time>2017-07-29T12:52:09Z</time>
      </trkpt>
      <trkpt lat="43.6673075706" lon="1.4105546102">
        <ele>131.36</ele>
        <time>2017-07-29T12:52:34Z</time>
      </trkpt>
      <trkpt lat="43.6673124321" lon="1.4105581306">
        <ele>131.36</ele>
        <time>2017-07-29T12:53:01Z</time>
      </trkpt>
      <trkpt lat="43.6673027929" lon="1.4105610643">
        <ele>131.36</ele>
        <time>2017-07-29T12:53:23Z</time>
      </trkpt>
      <trkpt lat="43.6672969256" lon="1.4105615672">
        <ele>131.36</ele>
        <time>2017-07-29T12:53:47Z</time>
      </trkpt>
      <trkpt lat="43.6673075706" lon="1.4105598908">
        <ele>131.36</ele>
        <time>2017-07-29T12:54:13Z</time>
      </trkpt>
      <trkpt lat="43.6672955006" lon="1.4105654228">
        <ele>131.36</ele>
        <time>2017-07-29T12:54:38Z</time>
      </trkpt>
      <trkpt lat="43.6673120968" lon="1.4105769899">
        <ele>131.36</ele>
        <time>2017-07-29T12:55:03Z</time>
      </trkpt>
      <trkpt lat="43.6673100851" lon="1.4105702005">
        <ele>131.36</ele>
        <time>2017-07-29T12:55:29Z</time>
      </trkpt>
      <trkpt lat="43.6673007812" lon="1.4105439652">
        <ele>131.36</ele>
        <time>2017-07-29T12:55:57Z</time>
      </trkpt>
      <trkpt lat="43.6672882922" lon="1.4105540235">
        <ele>131.36</ele>
        <time>2017-07-29T12:56:30Z</time>
      </trkpt>
      <trkpt lat="43.6672763899" lon="1.4105644170">
        <ele>131.36</ele>
        <time>2017-07-29T12:56:56Z</time>
      </trkpt>
      <trkpt lat="43.6672841851" lon="1.4105696976">
        <ele>131.36</ele>
        <time>2017-07-29T12:57:24Z</time>
      </trkpt>
      <trkpt lat="43.6672886275" lon="1.4105859585">
        <ele>131.36</ele>
        <time>2017-07-29T12:57:55Z</time>
      </trkpt>
      <trkpt lat="43.6672932375" lon="1.4105833601">
        <ele>131.36</ele>
        <time>2017-07-29T12:58:16Z</time>
      </trkpt>
      <trkpt lat="43.6672887113" lon="1.4105629083">
        <ele>131.36</ele>
        <time>2017-07-29T12:58:37Z</time>
      </trkpt>
      <trkpt lat="43.6673004460" lon="1.4105588850">
        <ele>131.36</ele>
        <time>2017-07-29T12:59:04Z</time>
      </trkpt>
      <trkpt lat="43.6672923993" lon="1.4105691947">
        <ele>131.36</ele>
        <time>2017-07-29T12:59:06Z</time>
      </trkpt>
      <trkpt lat="43.6672438681" lon="1.4105862100">
        <ele>131.36</ele>
        <time>2017-07-29T12:59:09Z</time>
      </trkpt>
      <trkpt lat="43.6672167107" lon="1.4105922449">
        <ele>131.36</ele>
        <time>2017-07-29T12:59:10Z</time>
      </trkpt>
      <trkpt lat="43.6671844404" lon="1.4105922449">
        <ele>131.36</ele>
        <time>2017-07-29T12:59:11Z</time>
      </trkpt>
      <trkpt lat="43.6671502423" lon="1.4105862100">
        <ele>131.84</ele>
        <time>2017-07-29T12:59:12Z</time>
      </trkpt>
      <trkpt lat="43.6671171337" lon="1.4105850365">
        <ele>131.84</ele>
        <time>2017-07-29T12:59:13Z</time>
      </trkpt>
      <trkpt lat="43.6670867074" lon="1.4105919935">
        <ele>131.84</ele>
        <time>2017-07-29T12:59:14Z</time>
      </trkpt>
      <trkpt lat="43.6668541934" lon="1.4107267745">
        <ele>131.84</ele>
        <time>2017-07-29T12:59:22Z</time>
      </trkpt>
      <trkpt lat="43.6668396927" lon="1.4107444603">
        <ele>131.84</ele>
        <time>2017-07-29T12:59:30Z</time>
      </trkpt>
      <trkpt lat="43.6668427102" lon="1.4107483998">
        <ele>131.84</ele>
        <time>2017-07-29T12:59:45Z</time>
      </trkpt>
      <trkpt lat="43.6668385193" lon="1.4107577037">
        <ele>131.84</ele>
        <time>2017-07-29T13:00:00Z</time>
      </trkpt>
      <trkpt lat="43.6668355856" lon="1.4107676782">
        <ele>131.36</ele>
        <time>2017-07-29T13:00:23Z</time>
      </trkpt>
      <trkpt lat="43.6668316461" lon="1.4107647445">
        <ele>131.36</ele>
        <time>2017-07-29T13:00:39Z</time>
      </trkpt>
      <trkpt lat="43.6668314785" lon="1.4107654151">
        <ele>131.84</ele>
        <time>2017-07-29T13:00:57Z</time>
      </trkpt>
      <trkpt lat="43.6668297183" lon="1.4107648283">
        <ele>131.84</ele>
        <time>2017-07-29T13:01:18Z</time>
      </trkpt>
      <trkpt lat="43.6668249406" lon="1.4107690193">
        <ele>131.84</ele>
        <time>2017-07-29T13:01:44Z</time>
      </trkpt>
      <trkpt lat="43.6668251920" lon="1.4107775688">
        <ele>131.84</ele>
        <time>2017-07-29T13:02:04Z</time>
      </trkpt>
      <trkpt lat="43.6668247730" lon="1.4107780717">
        <ele>131.84</ele>
        <time>2017-07-29T13:02:08Z</time>
      </trkpt>
      <trkpt lat="43.6668006331" lon="1.4108046424">
        <ele>131.36</ele>
        <time>2017-07-29T13:02:11Z</time>
      </trkpt>
      <trkpt lat="43.6666112021" lon="1.4109618030">
        <ele>131.84</ele>
        <time>2017-07-29T13:02:19Z</time>
      </trkpt>
      <trkpt lat="43.6665763333" lon="1.4109882899">
        <ele>131.84</ele>
        <time>2017-07-29T13:02:20Z</time>
      </trkpt>
      <trkpt lat="43.6662473436" lon="1.4112853445">
        <ele>131.84</ele>
        <time>2017-07-29T13:02:31Z</time>
      </trkpt>
      <trkpt lat="43.6659502052" lon="1.4115248155">
        <ele>131.84</ele>
        <time>2017-07-29T13:02:40Z</time>
      </trkpt>
      <trkpt lat="43.6656856723" lon="1.4117768593">
        <ele>131.84</ele>
        <time>2017-07-29T13:02:48Z</time>
      </trkpt>
      <trkpt lat="43.6652976740" lon="1.4120852295">
        <ele>131.84</ele>
        <time>2017-07-29T13:02:57Z</time>
      </trkpt>
      <trkpt lat="43.6650966760" lon="1.4122696314">
        <ele>131.84</ele>
        <time>2017-07-29T13:03:02Z</time>
      </trkpt>
      <trkpt lat="43.6647645850" lon="1.4125792589">
        <ele>132.32</ele>
        <time>2017-07-29T13:03:12Z</time>
      </trkpt>
      <trkpt lat="43.6647353321" lon="1.4126185700">
        <ele>132.32</ele>
        <time>2017-07-29T13:03:13Z</time>
      </trkpt>
      <trkpt lat="43.6647011340" lon="1.4126549475">
        <ele>132.32</ele>
        <time>2017-07-29T13:03:14Z</time>
      </trkpt>
      <trkpt lat="43.6644634232" lon="1.4128350746">
        <ele>132.32</ele>
        <time>2017-07-29T13:03:20Z</time>
      </trkpt>
      <trkpt lat="43.6644239444" lon="1.4128708653">
        <ele>132.32</ele>
        <time>2017-07-29T13:03:21Z</time>
      </trkpt>
      <trkpt lat="43.6638954654" lon="1.4133213926">
        <ele>132.32</ele>
        <time>2017-07-29T13:03:33Z</time>
      </trkpt>
      <trkpt lat="43.6638170108" lon="1.4133960754">
        <ele>132.80</ele>
        <time>2017-07-29T13:03:35Z</time>
      </trkpt>
      <trkpt lat="43.6633340456" lon="1.4138001669">
        <ele>132.80</ele>
        <time>2017-07-29T13:03:47Z</time>
      </trkpt>
      <trkpt lat="43.6629420239" lon="1.4141171705">
        <ele>132.80</ele>
        <time>2017-07-29T13:03:59Z</time>
      </trkpt>
      <trkpt lat="43.6626458075" lon="1.4143704716">
        <ele>132.80</ele>
        <time>2017-07-29T13:04:08Z</time>
      </trkpt>
      <trkpt lat="43.6622335017" lon="1.4147474896">
        <ele>132.80</ele>
        <time>2017-07-29T13:04:20Z</time>
      </trkpt>
      <trkpt lat="43.6618631892" lon="1.4150613919">
        <ele>132.80</ele>
        <time>2017-07-29T13:04:31Z</time>
      </trkpt>
      <trkpt lat="43.6614730954" lon="1.4153814968">
        <ele>132.80</ele>
        <time>2017-07-29T13:04:42Z</time>
      </trkpt>
      <trkpt lat="43.6611234862" lon="1.4156896155">
        <ele>132.80</ele>
        <time>2017-07-29T13:04:53Z</time>
      </trkpt>
      <trkpt lat="43.6610837560" lon="1.4157210477">
        <ele>132.80</ele>
        <time>2017-07-29T13:04:54Z</time>
      </trkpt>
      <trkpt lat="43.6608569417" lon="1.4159050304">
        <ele>132.80</ele>
        <time>2017-07-29T13:05:00Z</time>
      </trkpt>
      <trkpt lat="43.6607131083" lon="1.4160384703">
        <ele>133.28</ele>
        <time>2017-07-29T13:05:04Z</time>
      </trkpt>
      <trkpt lat="43.6603221763" lon="1.4163723215">
        <ele>133.28</ele>
        <time>2017-07-29T13:05:14Z</time>
      </trkpt>
      <trkpt lat="43.6600105371" lon="1.4166587312">
        <ele>133.28</ele>
        <time>2017-07-29T13:05:23Z</time>
      </trkpt>
      <trkpt lat="43.6596362013" lon="1.4169720467">
        <ele>133.28</ele>
        <time>2017-07-29T13:05:33Z</time>
      </trkpt>
      <trkpt lat="43.6594460160" lon="1.4171357453">
        <ele>133.28</ele>
        <time>2017-07-29T13:05:38Z</time>
      </trkpt>
      <trkpt lat="43.6594088841" lon="1.4171733800">
        <ele>133.28</ele>
        <time>2017-07-29T13:05:39Z</time>
      </trkpt>
      <trkpt lat="43.6590907909" lon="1.4174594544">
        <ele>133.28</ele>
        <time>2017-07-29T13:05:48Z</time>
      </trkpt>
      <trkpt lat="43.6588315386" lon="1.4176983386">
        <ele>133.76</ele>
        <time>2017-07-29T13:05:55Z</time>
      </trkpt>
      <trkpt lat="43.6587908026" lon="1.4177251607">
        <ele>133.76</ele>
        <time>2017-07-29T13:05:56Z</time>
      </trkpt>
      <trkpt lat="43.6587101687" lon="1.4177904557">
        <ele>133.76</ele>
        <time>2017-07-29T13:05:58Z</time>
      </trkpt>
      <trkpt lat="43.6586670857" lon="1.4178285096">
        <ele>133.76</ele>
        <time>2017-07-29T13:05:59Z</time>
      </trkpt>
      <trkpt lat="43.6586218234" lon="1.4178651385">
        <ele>133.76</ele>
        <time>2017-07-29T13:06:00Z</time>
      </trkpt>
      <trkpt lat="43.6580737308" lon="1.4183175098">
        <ele>134.24</ele>
        <time>2017-07-29T13:06:13Z</time>
      </trkpt>
      <trkpt lat="43.6577241216" lon="1.4186153188">
        <ele>133.76</ele>
        <time>2017-07-29T13:06:23Z</time>
      </trkpt>
      <trkpt lat="43.6576144025" lon="1.4187022392">
        <ele>133.76</ele>
        <time>2017-07-29T13:06:26Z</time>
      </trkpt>
      <trkpt lat="43.6575793661" lon="1.4187289774">
        <ele>134.24</ele>
        <time>2017-07-29T13:06:27Z</time>
      </trkpt>
      <trkpt lat="43.6574341077" lon="1.4188420493">
        <ele>134.24</ele>
        <time>2017-07-29T13:06:31Z</time>
      </trkpt>
      <trkpt lat="43.6573866662" lon="1.4188831206">
        <ele>134.24</ele>
        <time>2017-07-29T13:06:32Z</time>
      </trkpt>
      <trkpt lat="43.6572347023" lon="1.4190356713">
        <ele>134.24</ele>
        <time>2017-07-29T13:06:36Z</time>
      </trkpt>
      <trkpt lat="43.6571985763" lon="1.4190645050">
        <ele>134.24</ele>
        <time>2017-07-29T13:06:37Z</time>
      </trkpt>
      <trkpt lat="43.6567327939" lon="1.4194824267">
        <ele>134.72</ele>
        <time>2017-07-29T13:06:49Z</time>
      </trkpt>
      <trkpt lat="43.6566895433" lon="1.4195133559">
        <ele>134.24</ele>
        <time>2017-07-29T13:06:50Z</time>
      </trkpt>
      <trkpt lat="43.6562157143" lon="1.4198912121">
        <ele>134.24</ele>
        <time>2017-07-29T13:07:02Z</time>
      </trkpt>
      <trkpt lat="43.6561026424" lon="1.4199830778">
        <ele>134.72</ele>
        <time>2017-07-29T13:07:05Z</time>
      </trkpt>
      <trkpt lat="43.6557124648" lon="1.4203285798">
        <ele>135.20</ele>
        <time>2017-07-29T13:07:15Z</time>
      </trkpt>
      <trkpt lat="43.6555342656" lon="1.4204772748">
        <ele>135.20</ele>
        <time>2017-07-29T13:07:19Z</time>
      </trkpt>
      <trkpt lat="43.6554903444" lon="1.4205160830">
        <ele>135.20</ele>
        <time>2017-07-29T13:07:20Z</time>
      </trkpt>
      <trkpt lat="43.6552678887" lon="1.4207200985">
        <ele>135.20</ele>
        <time>2017-07-29T13:07:26Z</time>
      </trkpt>
      <trkpt lat="43.6548085604" lon="1.4210877288">
        <ele>135.68</ele>
        <time>2017-07-29T13:07:38Z</time>
      </trkpt>
      <trkpt lat="43.6546370666" lon="1.4212360047">
        <ele>135.68</ele>
        <time>2017-07-29T13:07:43Z</time>
      </trkpt>
      <trkpt lat="43.6541343201" lon="1.4216544293">
        <ele>135.68</ele>
        <time>2017-07-29T13:07:56Z</time>
      </trkpt>
      <trkpt lat="43.6536335014" lon="1.4220832475">
        <ele>135.68</ele>
        <time>2017-07-29T13:08:08Z</time>
      </trkpt>
      <trkpt lat="43.6533354409" lon="1.4223322738">
        <ele>135.68</ele>
        <time>2017-07-29T13:08:15Z</time>
      </trkpt>
      <trkpt lat="43.6532908492" lon="1.4223681483">
        <ele>135.68</ele>
        <time>2017-07-29T13:08:16Z</time>
      </trkpt>
      <trkpt lat="43.6532041803" lon="1.4224438369">
        <ele>135.68</ele>
        <time>2017-07-29T13:08:18Z</time>
      </trkpt>
      <trkpt lat="43.6531610973" lon="1.4224791247">
        <ele>135.68</ele>
        <time>2017-07-29T13:08:19Z</time>
      </trkpt>
      <trkpt lat="43.6530322675" lon="1.4225854073">
        <ele>136.16</ele>
        <time>2017-07-29T13:08:22Z</time>
      </trkpt>
      <trkpt lat="43.6527010147" lon="1.4228539634">
        <ele>136.16</ele>
        <time>2017-07-29T13:08:30Z</time>
      </trkpt>
      <trkpt lat="43.6526572611" lon="1.4228805341">
        <ele>136.16</ele>
        <time>2017-07-29T13:08:31Z</time>
      </trkpt>
      <trkpt lat="43.6523089930" lon="1.4231043309">
        <ele>136.16</ele>
        <time>2017-07-29T13:08:39Z</time>
      </trkpt>
      <trkpt lat="43.6522696819" lon="1.4231290575">
        <ele>136.16</ele>
        <time>2017-07-29T13:08:40Z</time>
      </trkpt>
      <trkpt lat="43.6521904729" lon="1.4231805224">
        <ele>136.16</ele>
        <time>2017-07-29T13:08:42Z</time>
      </trkpt>
      <trkpt lat="43.6520575359" lon="1.4232521039">
        <ele>136.16</ele>
        <time>2017-07-29T13:08:45Z</time>
      </trkpt>
      <trkpt lat="43.6519651674" lon="1.4232864697">
        <ele>136.16</ele>
        <time>2017-07-29T13:08:47Z</time>
      </trkpt>
      <trkpt lat="43.6514308210" lon="1.4234619867">
        <ele>136.16</ele>
        <time>2017-07-29T13:08:59Z</time>
      </trkpt>
      <trkpt lat="43.6511142366" lon="1.4234828576">
        <ele>136.16</ele>
        <time>2017-07-29T13:09:06Z</time>
      </trkpt>
      <trkpt lat="43.6509021744" lon="1.4235038962">
        <ele>136.16</ele>
        <time>2017-07-29T13:09:11Z</time>
      </trkpt>
      <trkpt lat="43.6504424270" lon="1.4234334044">
        <ele>136.16</ele>
        <time>2017-07-29T13:09:22Z</time>
      </trkpt>
      <trkpt lat="43.6503987573" lon="1.4234165568">
        <ele>136.16</ele>
        <time>2017-07-29T13:09:23Z</time>
      </trkpt>
      <trkpt lat="43.6503508966" lon="1.4234095160">
        <ele>136.64</ele>
        <time>2017-07-29T13:09:24Z</time>
      </trkpt>
      <trkpt lat="43.6503036227" lon="1.4234014694">
        <ele>136.64</ele>
        <time>2017-07-29T13:09:25Z</time>
      </trkpt>
      <trkpt lat="43.6502542533" lon="1.4233949315">
        <ele>136.16</ele>
        <time>2017-07-29T13:09:26Z</time>
      </trkpt>
      <trkpt lat="43.6502043810" lon="1.4233911596">
        <ele>136.16</ele>
        <time>2017-07-29T13:09:27Z</time>
      </trkpt>
      <trkpt lat="43.6497370061" lon="1.4233201649">
        <ele>136.16</ele>
        <time>2017-07-29T13:09:37Z</time>
      </trkpt>
      <trkpt lat="43.6491877399" lon="1.4232442249">
        <ele>136.16</ele>
        <time>2017-07-29T13:09:49Z</time>
      </trkpt>
      <trkpt lat="43.6487647891" lon="1.4231841266">
        <ele>136.64</ele>
        <time>2017-07-29T13:09:58Z</time>
      </trkpt>
      <trkpt lat="43.6487194430" lon="1.4231749065">
        <ele>134.72</ele>
        <time>2017-07-29T13:09:59Z</time>
      </trkpt>
      <trkpt lat="43.6486739293" lon="1.4231697097">
        <ele>138.09</ele>
        <time>2017-07-29T13:10:00Z</time>
      </trkpt>
      <trkpt lat="43.6483304389" lon="1.4231115393">
        <ele>136.64</ele>
        <time>2017-07-29T13:10:08Z</time>
      </trkpt>
      <trkpt lat="43.6478581186" lon="1.4230462443">
        <ele>136.64</ele>
        <time>2017-07-29T13:10:18Z</time>
      </trkpt>
      <trkpt lat="43.6477815080" lon="1.4229521994">
        <ele>136.64</ele>
        <time>2017-07-29T13:10:24Z</time>
      </trkpt>
      <trkpt lat="43.6477663368" lon="1.4229482599">
        <ele>136.64</ele>
        <time>2017-07-29T13:10:25Z</time>
      </trkpt>
      <trkpt lat="43.6477521714" lon="1.4229507744">
        <ele>136.64</ele>
        <time>2017-07-29T13:10:26Z</time>
      </trkpt>
      <trkpt lat="43.6477400176" lon="1.4229593240">
        <ele>136.64</ele>
        <time>2017-07-29T13:10:27Z</time>
      </trkpt>
      <trkpt lat="43.6477330606" lon="1.4229787700">
        <ele>136.64</ele>
        <time>2017-07-29T13:10:28Z</time>
      </trkpt>
      <trkpt lat="43.6477227509" lon="1.4229985513">
        <ele>136.64</ele>
        <time>2017-07-29T13:10:29Z</time>
      </trkpt>
      <trkpt lat="43.6477057356" lon="1.4230159856">
        <ele>136.64</ele>
        <time>2017-07-29T13:10:30Z</time>
      </trkpt>
      <trkpt lat="43.6476835236" lon="1.4230237808">
        <ele>136.64</ele>
        <time>2017-07-29T13:10:31Z</time>
      </trkpt>
      <trkpt lat="43.6476579588" lon="1.4230224397">
        <ele>136.64</ele>
        <time>2017-07-29T13:10:32Z</time>
      </trkpt>
      <trkpt lat="43.6476316396" lon="1.4230145607">
        <ele>136.64</ele>
        <time>2017-07-29T13:10:33Z</time>
      </trkpt>
      <trkpt lat="43.6476039793" lon="1.4230102859">
        <ele>136.64</ele>
        <time>2017-07-29T13:10:34Z</time>
      </trkpt>
      <trkpt lat="43.6475753970" lon="1.4230079390">
        <ele>136.64</ele>
        <time>2017-07-29T13:10:35Z</time>
      </trkpt>
      <trkpt lat="43.6475452222" lon="1.4230059274">
        <ele>136.64</ele>
        <time>2017-07-29T13:10:36Z</time>
      </trkpt>
      <trkpt lat="43.6475155503" lon="1.4230024908">
        <ele>136.64</ele>
        <time>2017-07-29T13:10:37Z</time>
      </trkpt>
      <trkpt lat="43.6470587365" lon="1.4229168277">
        <ele>136.64</ele>
        <time>2017-07-29T13:10:49Z</time>
      </trkpt>
      <trkpt lat="43.6467887554" lon="1.4228556398">
        <ele>139.05</ele>
        <time>2017-07-29T13:10:59Z</time>
      </trkpt>
      <trkpt lat="43.6467599217" lon="1.4228310809">
        <ele>139.53</ele>
        <time>2017-07-29T13:11:01Z</time>
      </trkpt>
      <trkpt lat="43.6467571557" lon="1.4228022471">
        <ele>139.53</ele>
        <time>2017-07-29T13:11:02Z</time>
      </trkpt>
      <trkpt lat="43.6467599217" lon="1.4227668755">
        <ele>139.53</ele>
        <time>2017-07-29T13:11:03Z</time>
      </trkpt>
      <trkpt lat="43.6468095426" lon="1.4222591836">
        <ele>138.09</ele>
        <time>2017-07-29T13:11:13Z</time>
      </trkpt>
      <trkpt lat="43.6468082853" lon="1.4219752885">
        <ele>136.64</ele>
        <time>2017-07-29T13:11:19Z</time>
      </trkpt>
      <trkpt lat="43.6467821337" lon="1.4219328761">
        <ele>136.64</ele>
        <time>2017-07-29T13:11:20Z</time>
      </trkpt>
      <trkpt lat="43.6467481032" lon="1.4219037909">
        <ele>136.16</ele>
        <time>2017-07-29T13:11:21Z</time>
      </trkpt>
      <trkpt lat="43.6467118934" lon="1.4218891226">
        <ele>136.64</ele>
        <time>2017-07-29T13:11:22Z</time>
      </trkpt>
      <trkpt lat="43.6466787849" lon="1.4218835067">
        <ele>136.64</ele>
        <time>2017-07-29T13:11:23Z</time>
      </trkpt>
      <trkpt lat="43.6466476042" lon="1.4218777232">
        <ele>136.64</ele>
        <time>2017-07-29T13:11:24Z</time>
      </trkpt>
      <trkpt lat="43.6466184352" lon="1.4218799863">
        <ele>136.64</ele>
        <time>2017-07-29T13:11:25Z</time>
      </trkpt>
      <trkpt lat="43.6461982504" lon="1.4218729455">
        <ele>137.61</ele>
        <time>2017-07-29T13:11:38Z</time>
      </trkpt>
      <trkpt lat="43.6458619684" lon="1.4218638092">
        <ele>137.61</ele>
        <time>2017-07-29T13:11:47Z</time>
      </trkpt>
      <trkpt lat="43.6454307195" lon="1.4218665753">
        <ele>135.68</ele>
        <time>2017-07-29T13:11:55Z</time>
      </trkpt>
      <trkpt lat="43.6453371774" lon="1.4218542539">
        <ele>136.16</ele>
        <time>2017-07-29T13:11:57Z</time>
      </trkpt>
      <trkpt lat="43.6452951003" lon="1.4218521584">
        <ele>136.64</ele>
        <time>2017-07-29T13:11:58Z</time>
      </trkpt>
      <trkpt lat="43.6448640190" lon="1.4218504820">
        <ele>138.09</ele>
        <time>2017-07-29T13:12:10Z</time>
      </trkpt>
      <trkpt lat="43.6444875877" lon="1.4218509849">
        <ele>138.09</ele>
        <time>2017-07-29T13:12:20Z</time>
      </trkpt>
      <trkpt lat="43.6440616194" lon="1.4218856860">
        <ele>138.57</ele>
        <time>2017-07-29T13:12:31Z</time>
      </trkpt>
      <trkpt lat="43.6439081468" lon="1.4219299424">
        <ele>138.57</ele>
        <time>2017-07-29T13:12:35Z</time>
      </trkpt>
      <trkpt lat="43.6434753891" lon="1.4220163599">
        <ele>139.05</ele>
        <time>2017-07-29T13:12:45Z</time>
      </trkpt>
      <trkpt lat="43.6433488224" lon="1.4220465347">
        <ele>139.05</ele>
        <time>2017-07-29T13:12:48Z</time>
      </trkpt>
      <trkpt lat="43.6433082540" lon="1.4220451936">
        <ele>139.05</ele>
        <time>2017-07-29T13:12:49Z</time>
      </trkpt>
      <trkpt lat="43.6432656739" lon="1.4220439363">
        <ele>139.05</ele>
        <time>2017-07-29T13:12:50Z</time>
      </trkpt>
      <trkpt lat="43.6432221718" lon="1.4220442716">
        <ele>139.05</ele>
        <time>2017-07-29T13:12:51Z</time>
      </trkpt>
      <trkpt lat="43.6431786697" lon="1.4220479596">
        <ele>139.05</ele>
        <time>2017-07-29T13:12:52Z</time>
      </trkpt>
      <trkpt lat="43.6430915818" lon="1.4220607001">
        <ele>139.05</ele>
        <time>2017-07-29T13:12:54Z</time>
      </trkpt>
      <trkpt lat="43.6430500075" lon="1.4220781345">
        <ele>139.05</ele>
        <time>2017-07-29T13:12:55Z</time>
      </trkpt>
      <trkpt lat="43.6430111993" lon="1.4221021906">
        <ele>139.05</ele>
        <time>2017-07-29T13:12:56Z</time>
      </trkpt>
      <trkpt lat="43.6429713015" lon="1.4221261628">
        <ele>139.05</ele>
        <time>2017-07-29T13:12:57Z</time>
      </trkpt>
      <trkpt lat="43.6429287214" lon="1.4221512247">
        <ele>139.05</ele>
        <time>2017-07-29T13:12:58Z</time>
      </trkpt>
      <trkpt lat="43.6428464111" lon="1.4222052041">
        <ele>139.05</ele>
        <time>2017-07-29T13:13:00Z</time>
      </trkpt>
      <trkpt lat="43.6428048369" lon="1.4222311880">
        <ele>139.05</ele>
        <time>2017-07-29T13:13:01Z</time>
      </trkpt>
      <trkpt lat="43.6427646875" lon="1.4222559147">
        <ele>139.05</ele>
        <time>2017-07-29T13:13:02Z</time>
      </trkpt>
      <trkpt lat="43.6425986420" lon="1.4223006740">
        <ele>139.05</ele>
        <time>2017-07-29T13:13:06Z</time>
      </trkpt>
      <trkpt lat="43.6422341969" lon="1.4222501311">
        <ele>139.05</ele>
        <time>2017-07-29T13:13:14Z</time>
      </trkpt>
      <trkpt lat="43.6421899404" lon="1.4222433418">
        <ele>139.05</ele>
        <time>2017-07-29T13:13:15Z</time>
      </trkpt>
      <trkpt lat="43.6421476956" lon="1.4222363010">
        <ele>138.57</ele>
        <time>2017-07-29T13:13:16Z</time>
      </trkpt>
      <trkpt lat="43.6418812349" lon="1.4222005941">
        <ele>139.05</ele>
        <time>2017-07-29T13:13:22Z</time>
      </trkpt>
      <trkpt lat="43.6418361403" lon="1.4221925475">
        <ele>139.05</ele>
        <time>2017-07-29T13:13:23Z</time>
      </trkpt>
      <trkpt lat="43.6414576974" lon="1.4221335389">
        <ele>139.05</ele>
        <time>2017-07-29T13:13:31Z</time>
      </trkpt>
      <trkpt lat="43.6408804357" lon="1.4220581017">
        <ele>139.05</ele>
        <time>2017-07-29T13:13:43Z</time>
      </trkpt>
      <trkpt lat="43.6403222848" lon="1.4219836704">
        <ele>139.53</ele>
        <time>2017-07-29T13:13:54Z</time>
      </trkpt>
      <trkpt lat="43.6398307700" lon="1.4219086524">
        <ele>139.53</ele>
        <time>2017-07-29T13:14:04Z</time>
      </trkpt>
      <trkpt lat="43.6392431147" lon="1.4218332153">
        <ele>139.53</ele>
        <time>2017-07-29T13:14:16Z</time>
      </trkpt>
      <trkpt lat="43.6386029888" lon="1.4217405953">
        <ele>139.53</ele>
        <time>2017-07-29T13:14:29Z</time>
      </trkpt>
      <trkpt lat="43.6379243061" lon="1.4216418564">
        <ele>140.01</ele>
        <time>2017-07-29T13:14:42Z</time>
      </trkpt>
      <trkpt lat="43.6377164349" lon="1.4216109272">
        <ele>139.53</ele>
        <time>2017-07-29T13:14:46Z</time>
      </trkpt>
      <trkpt lat="43.6376720946" lon="1.4215996955">
        <ele>140.01</ele>
        <time>2017-07-29T13:14:47Z</time>
      </trkpt>
      <trkpt lat="43.6376249883" lon="1.4215943310">
        <ele>139.53</ele>
        <time>2017-07-29T13:14:48Z</time>
      </trkpt>
      <trkpt lat="43.6370122712" lon="1.4215188101">
        <ele>139.53</ele>
        <time>2017-07-29T13:15:00Z</time>
      </trkpt>
      <trkpt lat="43.6363664456" lon="1.4214104321">
        <ele>139.53</ele>
        <time>2017-07-29T13:15:12Z</time>
      </trkpt>
      <trkpt lat="43.6357528903" lon="1.4213334024">
        <ele>139.53</ele>
        <time>2017-07-29T13:15:23Z</time>
      </trkpt>
      <trkpt lat="43.6356953066" lon="1.4213295467">
        <ele>139.53</ele>
        <time>2017-07-29T13:15:24Z</time>
      </trkpt>
      <trkpt lat="43.6352939811" lon="1.4212694485">
        <ele>139.53</ele>
        <time>2017-07-29T13:15:31Z</time>
      </trkpt>
      <trkpt lat="43.6352427676" lon="1.4212495834">
        <ele>139.53</ele>
        <time>2017-07-29T13:15:32Z</time>
      </trkpt>
      <trkpt lat="43.6351937335" lon="1.4212291315">
        <ele>140.01</ele>
        <time>2017-07-29T13:15:33Z</time>
      </trkpt>
      <trkpt lat="43.6351480521" lon="1.4212145470">
        <ele>140.01</ele>
        <time>2017-07-29T13:15:34Z</time>
      </trkpt>
      <trkpt lat="43.6351083219" lon="1.4212051593">
        <ele>140.01</ele>
        <time>2017-07-29T13:15:35Z</time>
      </trkpt>
      <trkpt lat="43.6350692622" lon="1.4212011360">
        <ele>140.49</ele>
        <time>2017-07-29T13:15:36Z</time>
      </trkpt>
      <trkpt lat="43.6348879617" lon="1.4211856294">
        <ele>144.82</ele>
        <time>2017-07-29T13:15:42Z</time>
      </trkpt>
      <trkpt lat="43.6348689348" lon="1.4211981185">
        <ele>141.93</ele>
        <time>2017-07-29T13:15:43Z</time>
      </trkpt>
      <trkpt lat="43.6348564457" lon="1.4212200791">
        <ele>141.93</ele>
        <time>2017-07-29T13:15:44Z</time>
      </trkpt>
      <trkpt lat="43.6348335631" lon="1.4215245936">
        <ele>142.41</ele>
        <time>2017-07-29T13:15:52Z</time>
      </trkpt>
      <trkpt lat="43.6348380055" lon="1.4216369111">
        <ele>142.41</ele>
        <time>2017-07-29T13:15:55Z</time>
      </trkpt>
      <trkpt lat="43.6348599661" lon="1.4216630626">
        <ele>141.93</ele>
        <time>2017-07-29T13:15:56Z</time>
      </trkpt>
      <trkpt lat="43.6348929070" lon="1.4216775633">
        <ele>141.93</ele>
        <time>2017-07-29T13:15:57Z</time>
      </trkpt>
      <trkpt lat="43.6352921370" lon="1.4217886236">
        <ele>140.01</ele>
        <time>2017-07-29T13:16:06Z</time>
      </trkpt>
      <trkpt lat="43.6353554204" lon="1.4217844326">
        <ele>139.53</ele>
        <time>2017-07-29T13:16:08Z</time>
      </trkpt>
      <trkpt lat="43.6353748664" lon="1.4217602089">
        <ele>139.05</ele>
        <time>2017-07-29T13:16:09Z</time>
      </trkpt>
      <trkpt lat="43.6353762913" lon="1.4217286929">
        <ele>139.05</ele>
        <time>2017-07-29T13:16:10Z</time>
      </trkpt>
      <trkpt lat="43.6353628803" lon="1.4217052236">
        <ele>139.05</ele>
        <time>2017-07-29T13:16:11Z</time>
      </trkpt>
      <trkpt lat="43.6353390757" lon="1.4216991886">
        <ele>139.05</ele>
        <time>2017-07-29T13:16:12Z</time>
      </trkpt>
      <trkpt lat="43.6353114992" lon="1.4217017870">
        <ele>139.05</ele>
        <time>2017-07-29T13:16:13Z</time>
      </trkpt>
      <trkpt lat="43.6349279433" lon="1.4216039702">
        <ele>138.57</ele>
        <time>2017-07-29T13:16:23Z</time>
      </trkpt>
      <trkpt lat="43.6347806733" lon="1.4215711970">
        <ele>138.57</ele>
        <time>2017-07-29T13:16:26Z</time>
      </trkpt>
      <trkpt lat="43.6347307172" lon="1.4215782378">
        <ele>138.57</ele>
        <time>2017-07-29T13:16:27Z</time>
      </trkpt>
      <trkpt lat="43.6346835271" lon="1.4215849433">
        <ele>139.05</ele>
        <time>2017-07-29T13:16:28Z</time>
      </trkpt>
      <trkpt lat="43.6346372589" lon="1.4215857815">
        <ele>139.05</ele>
        <time>2017-07-29T13:16:29Z</time>
      </trkpt>
      <trkpt lat="43.6345915776" lon="1.4215832669">
        <ele>139.05</ele>
        <time>2017-07-29T13:16:30Z</time>
      </trkpt>
      <trkpt lat="43.6345022265" lon="1.4215734601">
        <ele>139.05</ele>
        <time>2017-07-29T13:16:32Z</time>
      </trkpt>
      <trkpt lat="43.6344595626" lon="1.4215636533">
        <ele>139.05</ele>
        <time>2017-07-29T13:16:33Z</time>
      </trkpt>
      <trkpt lat="43.6344169825" lon="1.4215551037">
        <ele>139.05</ele>
        <time>2017-07-29T13:16:34Z</time>
      </trkpt>
      <trkpt lat="43.6341010686" lon="1.4215147030">
        <ele>139.05</ele>
        <time>2017-07-29T13:16:41Z</time>
      </trkpt>
      <trkpt lat="43.6337210331" lon="1.4214533474">
        <ele>139.53</ele>
        <time>2017-07-29T13:16:49Z</time>
      </trkpt>
      <trkpt lat="43.6334395688" lon="1.4214209933">
        <ele>139.53</ele>
        <time>2017-07-29T13:16:55Z</time>
      </trkpt>
      <trkpt lat="43.6333880201" lon="1.4214198198">
        <ele>139.53</ele>
        <time>2017-07-29T13:16:56Z</time>
      </trkpt>
      <trkpt lat="43.6333359685" lon="1.4214157965">
        <ele>139.53</ele>
        <time>2017-07-29T13:16:57Z</time>
      </trkpt>
      <trkpt lat="43.6327335611" lon="1.4213841967">
        <ele>139.53</ele>
        <time>2017-07-29T13:17:08Z</time>
      </trkpt>
      <trkpt lat="43.6325951759" lon="1.4213473164">
        <ele>139.53</ele>
        <time>2017-07-29T13:17:11Z</time>
      </trkpt>
      <trkpt lat="43.6325491592" lon="1.4213450532">
        <ele>139.53</ele>
        <time>2017-07-29T13:17:12Z</time>
      </trkpt>
      <trkpt lat="43.6321642622" lon="1.4212846197">
        <ele>139.53</ele>
        <time>2017-07-29T13:17:20Z</time>
      </trkpt>
      <trkpt lat="43.6316872481" lon="1.4212237671">
        <ele>139.53</ele>
        <time>2017-07-29T13:17:29Z</time>
      </trkpt>
      <trkpt lat="43.6315315124" lon="1.4211852103">
        <ele>139.53</ele>
        <time>2017-07-29T13:17:32Z</time>
      </trkpt>
      <trkpt lat="43.6314758565" lon="1.4211789239">
        <ele>139.53</ele>
        <time>2017-07-29T13:17:33Z</time>
      </trkpt>
      <trkpt lat="43.6309613753" lon="1.4211155567">
        <ele>139.05</ele>
        <time>2017-07-29T13:17:43Z</time>
      </trkpt>
      <trkpt lat="43.6304917373" lon="1.4210490044">
        <ele>139.05</ele>
        <time>2017-07-29T13:17:52Z</time>
      </trkpt>
      <trkpt lat="43.6299994681" lon="1.4209936000">
        <ele>139.53</ele>
        <time>2017-07-29T13:18:02Z</time>
      </trkpt>
      <trkpt lat="43.6298951134" lon="1.4209807757">
        <ele>139.05</ele>
        <time>2017-07-29T13:18:04Z</time>
      </trkpt>
      <trkpt lat="43.6298455764" lon="1.4209754113">
        <ele>139.05</ele>
        <time>2017-07-29T13:18:05Z</time>
      </trkpt>
      <trkpt lat="43.6297937762" lon="1.4209647663">
        <ele>139.05</ele>
        <time>2017-07-29T13:18:06Z</time>
      </trkpt>
      <trkpt lat="43.6297369469" lon="1.4209533669">
        <ele>139.53</ele>
        <time>2017-07-29T13:18:07Z</time>
      </trkpt>
      <trkpt lat="43.6296812911" lon="1.4209469128">
        <ele>139.05</ele>
        <time>2017-07-29T13:18:08Z</time>
      </trkpt>
      <trkpt lat="43.6295237113" lon="1.4209300652">
        <ele>139.53</ele>
        <time>2017-07-29T13:18:11Z</time>
      </trkpt>
      <trkpt lat="43.6290089786" lon="1.4208848868">
        <ele>139.53</ele>
        <time>2017-07-29T13:18:21Z</time>
      </trkpt>
      <trkpt lat="43.6289112456" lon="1.4208770916">
        <ele>139.53</ele>
        <time>2017-07-29T13:18:23Z</time>
      </trkpt>
      <trkpt lat="43.6284569465" lon="1.4207984693">
        <ele>139.05</ele>
        <time>2017-07-29T13:18:32Z</time>
      </trkpt>
      <trkpt lat="43.6284125224" lon="1.4207921829">
        <ele>139.05</ele>
        <time>2017-07-29T13:18:33Z</time>
      </trkpt>
      <trkpt lat="43.6279132962" lon="1.4207211882">
        <ele>139.53</ele>
        <time>2017-07-29T13:18:43Z</time>
      </trkpt>
      <trkpt lat="43.6275118031" lon="1.4206731599">
        <ele>139.53</ele>
        <time>2017-07-29T13:18:51Z</time>
      </trkpt>
      <trkpt lat="43.6274667922" lon="1.4206647780">
        <ele>139.53</ele>
        <time>2017-07-29T13:18:52Z</time>
      </trkpt>
      <trkpt lat="43.6274248827" lon="1.4206619281">
        <ele>137.61</ele>
        <time>2017-07-29T13:18:53Z</time>
      </trkpt>
      <trkpt lat="43.6273843143" lon="1.4206639398">
        <ele>140.97</ele>
        <time>2017-07-29T13:18:54Z</time>
      </trkpt>
      <trkpt lat="43.6270876788" lon="1.4206419792">
        <ele>140.01</ele>
        <time>2017-07-29T13:19:02Z</time>
      </trkpt>
      <trkpt lat="43.6269998364" lon="1.4206103794">
        <ele>140.01</ele>
        <time>2017-07-29T13:19:04Z</time>
      </trkpt>
      <trkpt lat="43.6269543227" lon="1.4206039254">
        <ele>139.53</ele>
        <time>2017-07-29T13:19:05Z</time>
      </trkpt>
      <trkpt lat="43.6269035283" lon="1.4206004050">
        <ele>140.01</ele>
        <time>2017-07-29T13:19:06Z</time>
      </trkpt>
      <trkpt lat="43.6266691703" lon="1.4205549750">
        <ele>139.05</ele>
        <time>2017-07-29T13:19:11Z</time>
      </trkpt>
      <trkpt lat="43.6266275961" lon="1.4205460902">
        <ele>140.97</ele>
        <time>2017-07-29T13:19:12Z</time>
      </trkpt>
      <trkpt lat="43.6265879497" lon="1.4205396362">
        <ele>139.53</ele>
        <time>2017-07-29T13:19:13Z</time>
      </trkpt>
      <trkpt lat="43.6265110876" lon="1.4205187652">
        <ele>140.01</ele>
        <time>2017-07-29T13:19:15Z</time>
      </trkpt>
      <trkpt lat="43.6261439603" lon="1.4204647020">
        <ele>139.53</ele>
        <time>2017-07-29T13:19:24Z</time>
      </trkpt>
      <trkpt lat="43.6258008052" lon="1.4203951322">
        <ele>139.53</ele>
        <time>2017-07-29T13:19:33Z</time>
      </trkpt>
      <trkpt lat="43.6255019903" lon="1.4203524683">
        <ele>139.53</ele>
        <time>2017-07-29T13:19:41Z</time>
      </trkpt>
      <trkpt lat="43.6252400558" lon="1.4203343634">
        <ele>140.01</ele>
        <time>2017-07-29T13:19:46Z</time>
      </trkpt>
      <trkpt lat="43.6251966376" lon="1.4203269035">
        <ele>140.01</ele>
        <time>2017-07-29T13:19:47Z</time>
      </trkpt>
      <trkpt lat="43.6251569912" lon="1.4203169290">
        <ele>140.97</ele>
        <time>2017-07-29T13:19:48Z</time>
      </trkpt>
      <trkpt lat="43.6247834098" lon="1.4202576689">
        <ele>140.49</ele>
        <time>2017-07-29T13:19:56Z</time>
      </trkpt>
      <trkpt lat="43.6247370578" lon="1.4202519692">
        <ele>140.01</ele>
        <time>2017-07-29T13:19:57Z</time>
      </trkpt>
      <trkpt lat="43.6246515624" lon="1.4202315174">
        <ele>140.01</ele>
        <time>2017-07-29T13:19:59Z</time>
      </trkpt>
      <trkpt lat="43.6246094014" lon="1.4202195313">
        <ele>140.01</ele>
        <time>2017-07-29T13:20:00Z</time>
      </trkpt>
      <trkpt lat="43.6240815092" lon="1.4201875124">
        <ele>140.49</ele>
        <time>2017-07-29T13:20:10Z</time>
      </trkpt>
      <trkpt lat="43.6239735503" lon="1.4201803878">
        <ele>140.49</ele>
        <time>2017-07-29T13:20:12Z</time>
      </trkpt>
      <trkpt lat="43.6239215825" lon="1.4201782085">
        <ele>140.49</ele>
        <time>2017-07-29T13:20:13Z</time>
      </trkpt>
      <trkpt lat="43.6238730513" lon="1.4201736823">
        <ele>140.49</ele>
        <time>2017-07-29T13:20:14Z</time>
      </trkpt>
      <trkpt lat="43.6238214187" lon="1.4201640431">
        <ele>140.49</ele>
        <time>2017-07-29T13:20:15Z</time>
      </trkpt>
      <trkpt lat="43.6237677746" lon="1.4201523084">
        <ele>140.49</ele>
        <time>2017-07-29T13:20:16Z</time>
      </trkpt>
      <trkpt lat="43.6237189919" lon="1.4201422501">
        <ele>140.49</ele>
        <time>2017-07-29T13:20:17Z</time>
      </trkpt>
      <trkpt lat="43.6232081987" lon="1.4200953115">
        <ele>140.97</ele>
        <time>2017-07-29T13:20:28Z</time>
      </trkpt>
      <trkpt lat="43.6230741721" lon="1.4200808946">
        <ele>140.97</ele>
        <time>2017-07-29T13:20:31Z</time>
      </trkpt>
      <trkpt lat="43.6230289936" lon="1.4200751949">
        <ele>140.97</ele>
        <time>2017-07-29T13:20:32Z</time>
      </trkpt>
      <trkpt lat="43.6225319467" lon="1.4200020209">
        <ele>140.97</ele>
        <time>2017-07-29T13:20:42Z</time>
      </trkpt>
      <trkpt lat="43.6223809887" lon="1.4199810661">
        <ele>140.49</ele>
        <time>2017-07-29T13:20:45Z</time>
      </trkpt>
      <trkpt lat="43.6223342177" lon="1.4199731033">
        <ele>140.97</ele>
        <time>2017-07-29T13:20:46Z</time>
      </trkpt>
      <trkpt lat="43.6220148671" lon="1.4199125860">
        <ele>140.49</ele>
        <time>2017-07-29T13:20:53Z</time>
      </trkpt>
      <trkpt lat="43.6219693534" lon="1.4199070539">
        <ele>140.49</ele>
        <time>2017-07-29T13:20:54Z</time>
      </trkpt>
      <trkpt lat="43.6214770842" lon="1.4198454469">
        <ele>140.97</ele>
        <time>2017-07-29T13:21:05Z</time>
      </trkpt>
      <trkpt lat="43.6210176721" lon="1.4197619632">
        <ele>140.49</ele>
        <time>2017-07-29T13:21:15Z</time>
      </trkpt>
      <trkpt lat="43.6204442661" lon="1.4196914714">
        <ele>140.49</ele>
        <time>2017-07-29T13:21:25Z</time>
      </trkpt>
      <trkpt lat="43.6197891366" lon="1.4195990190">
        <ele>140.97</ele>
        <time>2017-07-29T13:21:36Z</time>
      </trkpt>
      <trkpt lat="43.6191537045" lon="1.4195274375">
        <ele>141.45</ele>
        <time>2017-07-29T13:21:47Z</time>
      </trkpt>
      <trkpt lat="43.6186395586" lon="1.4194513299">
        <ele>141.45</ele>
        <time>2017-07-29T13:21:57Z</time>
      </trkpt>
      <trkpt lat="43.6185006704" lon="1.4194172993">
        <ele>141.45</ele>
        <time>2017-07-29T13:22:00Z</time>
      </trkpt>
      <trkpt lat="43.6184512172" lon="1.4193996135">
        <ele>141.45</ele>
        <time>2017-07-29T13:22:01Z</time>
      </trkpt>
      <trkpt lat="43.6183990818" lon="1.4193863701">
        <ele>141.45</ele>
        <time>2017-07-29T13:22:02Z</time>
      </trkpt>
      <trkpt lat="43.6181891151" lon="1.4193619788">
        <ele>140.97</ele>
        <time>2017-07-29T13:22:06Z</time>
      </trkpt>
      <trkpt lat="43.6179785617" lon="1.4193233382">
        <ele>140.97</ele>
        <time>2017-07-29T13:22:10Z</time>
      </trkpt>
      <trkpt lat="43.6174517591" lon="1.4192775730">
        <ele>140.97</ele>
        <time>2017-07-29T13:22:20Z</time>
      </trkpt>
      <trkpt lat="43.6168724019" lon="1.4191944245">
        <ele>141.45</ele>
        <time>2017-07-29T13:22:30Z</time>
      </trkpt>
      <trkpt lat="43.6162228044" lon="1.4191425405">
        <ele>140.97</ele>
        <time>2017-07-29T13:22:41Z</time>
      </trkpt>
      <trkpt lat="43.6156487279" lon="1.4190606494">
        <ele>140.97</ele>
        <time>2017-07-29T13:22:52Z</time>
      </trkpt>
      <trkpt lat="43.6153510027" lon="1.4190119505">
        <ele>140.97</ele>
        <time>2017-07-29T13:22:58Z</time>
      </trkpt>
      <trkpt lat="43.6151358392" lon="1.4189655147">
        <ele>140.97</ele>
        <time>2017-07-29T13:23:03Z</time>
      </trkpt>
      <trkpt lat="43.6146398820" lon="1.4188827015">
        <ele>140.97</ele>
        <time>2017-07-29T13:23:14Z</time>
      </trkpt>
      <trkpt lat="43.6140621174" lon="1.4187993016">
        <ele>140.97</ele>
        <time>2017-07-29T13:23:26Z</time>
      </trkpt>
      <trkpt lat="43.6140131671" lon="1.4187991340">
        <ele>140.97</ele>
        <time>2017-07-29T13:23:27Z</time>
      </trkpt>
      <trkpt lat="43.6139626242" lon="1.4188005589">
        <ele>140.97</ele>
        <time>2017-07-29T13:23:28Z</time>
      </trkpt>
      <trkpt lat="43.6139116623" lon="1.4187952783">
        <ele>140.97</ele>
        <time>2017-07-29T13:23:29Z</time>
      </trkpt>
      <trkpt lat="43.6138619576" lon="1.4187866449">
        <ele>140.97</ele>
        <time>2017-07-29T13:23:30Z</time>
      </trkpt>
      <trkpt lat="43.6133675091" lon="1.4187417179">
        <ele>140.97</ele>
        <time>2017-07-29T13:23:40Z</time>
      </trkpt>
      <trkpt lat="43.6131314747" lon="1.4187115431">
        <ele>140.97</ele>
        <time>2017-07-29T13:23:45Z</time>
      </trkpt>
      <trkpt lat="43.6130837817" lon="1.4186983835">
        <ele>140.97</ele>
        <time>2017-07-29T13:23:46Z</time>
      </trkpt>
      <trkpt lat="43.6129847914" lon="1.4186788537">
        <ele>141.45</ele>
        <time>2017-07-29T13:23:48Z</time>
      </trkpt>
      <trkpt lat="43.6125765927" lon="1.4186521992">
        <ele>141.93</ele>
        <time>2017-07-29T13:23:57Z</time>
      </trkpt>
      <trkpt lat="43.6124920193" lon="1.4186428953">
        <ele>141.93</ele>
        <time>2017-07-29T13:23:59Z</time>
      </trkpt>
      <trkpt lat="43.6124449968" lon="1.4186431468">
        <ele>141.93</ele>
        <time>2017-07-29T13:24:00Z</time>
      </trkpt>
      <trkpt lat="43.6119476147" lon="1.4185985550">
        <ele>142.89</ele>
        <time>2017-07-29T13:24:12Z</time>
      </trkpt>
      <trkpt lat="43.6115343031" lon="1.4185978007">
        <ele>143.85</ele>
        <time>2017-07-29T13:24:24Z</time>
      </trkpt>
      <trkpt lat="43.6114965007" lon="1.4186378662">
        <ele>143.85</ele>
        <time>2017-07-29T13:24:26Z</time>
      </trkpt>
      <trkpt lat="43.6114874482" lon="1.4186792728">
        <ele>143.85</ele>
        <time>2017-07-29T13:24:27Z</time>
      </trkpt>
      <trkpt lat="43.6114769708" lon="1.4187248703">
        <ele>143.85</ele>
        <time>2017-07-29T13:24:28Z</time>
      </trkpt>
      <trkpt lat="43.6114640627" lon="1.4187668636">
        <ele>143.85</ele>
        <time>2017-07-29T13:24:29Z</time>
      </trkpt>
      <trkpt lat="43.6114518251" lon="1.4188005589">
        <ele>143.85</ele>
        <time>2017-07-29T13:24:30Z</time>
      </trkpt>
      <trkpt lat="43.6114284396" lon="1.4188386127">
        <ele>143.85</ele>
        <time>2017-07-29T13:24:32Z</time>
      </trkpt>
      <trkpt lat="43.6114089936" lon="1.4188463241">
        <ele>143.85</ele>
        <time>2017-07-29T13:24:41Z</time>
      </trkpt>
      <trkpt lat="43.6113991868" lon="1.4188537840">
        <ele>143.85</ele>
        <time>2017-07-29T13:25:01Z</time>
      </trkpt>
      <trkpt lat="43.6113809980" lon="1.4188463241">
        <ele>143.85</ele>
        <time>2017-07-29T13:25:02Z</time>
      </trkpt>
      <trkpt lat="43.6113572773" lon="1.4188367687">
        <ele>143.85</ele>
        <time>2017-07-29T13:25:03Z</time>
      </trkpt>
      <trkpt lat="43.6113312934" lon="1.4188260399">
        <ele>143.85</ele>
        <time>2017-07-29T13:25:04Z</time>
      </trkpt>
      <trkpt lat="43.6113058124" lon="1.4188138861">
        <ele>143.85</ele>
        <time>2017-07-29T13:25:05Z</time>
      </trkpt>
      <trkpt lat="43.6112823430" lon="1.4188057557">
        <ele>144.34</ele>
        <time>2017-07-29T13:25:06Z</time>
      </trkpt>
      <trkpt lat="43.6111276969" lon="1.4187118784">
        <ele>144.34</ele>
        <time>2017-07-29T13:25:13Z</time>
      </trkpt>
      <trkpt lat="43.6108693667" lon="1.4187998045">
        <ele>144.34</ele>
        <time>2017-07-29T13:25:23Z</time>
      </trkpt>
      <trkpt lat="43.6108547822" lon="1.4188069291">
        <ele>144.34</ele>
        <time>2017-07-29T13:25:25Z</time>
      </trkpt>
      <trkpt lat="43.6108388565" lon="1.4188158978">
        <ele>144.34</ele>
        <time>2017-07-29T13:25:26Z</time>
      </trkpt>
      <trkpt lat="43.6108263675" lon="1.4188317396">
        <ele>144.34</ele>
        <time>2017-07-29T13:25:27Z</time>
      </trkpt>
      <trkpt lat="43.6108150519" lon="1.4188562986">
        <ele>144.34</ele>
        <time>2017-07-29T13:25:28Z</time>
      </trkpt>
      <trkpt lat="43.6108067539" lon="1.4188824501">
        <ele>143.85</ele>
        <time>2017-07-29T13:25:29Z</time>
      </trkpt>
      <trkpt lat="43.6108012218" lon="1.4189094398">
        <ele>143.85</ele>
        <time>2017-07-29T13:25:30Z</time>
      </trkpt>
      <trkpt lat="43.6107925884" lon="1.4189318195">
        <ele>143.85</ele>
        <time>2017-07-29T13:25:31Z</time>
      </trkpt>
      <trkpt lat="43.6107825302" lon="1.4189557079">
        <ele>143.85</ele>
        <time>2017-07-29T13:25:32Z</time>
      </trkpt>
      <trkpt lat="43.6107559595" lon="1.4190076757">
        <ele>143.85</ele>
        <time>2017-07-29T13:25:40Z</time>
      </trkpt>
      <trkpt lat="43.6107544508" lon="1.4190072566">
        <ele>143.37</ele>
        <time>2017-07-29T13:25:46Z</time>
      </trkpt>
      <trkpt lat="43.6107738968" lon="1.4190468192">
        <ele>143.85</ele>
        <time>2017-07-29T13:25:51Z</time>
      </trkpt>
      <trkpt lat="43.6107722204" lon="1.4190290496">
        <ele>143.85</ele>
        <time>2017-07-29T13:26:08Z</time>
      </trkpt>
      <trkpt lat="43.6107654311" lon="1.4190378506">
        <ele>143.85</ele>
        <time>2017-07-29T13:26:25Z</time>
      </trkpt>
      <trkpt lat="43.6107599828" lon="1.4190427121">
        <ele>143.85</ele>
        <time>2017-07-29T13:26:41Z</time>
      </trkpt>
      <trkpt lat="43.6107541993" lon="1.4190539438">
        <ele>143.37</ele>
        <time>2017-07-29T13:27:04Z</time>
      </trkpt>
      <trkpt lat="43.6107507627" lon="1.4190395270">
        <ele>143.37</ele>
        <time>2017-07-29T13:27:25Z</time>
      </trkpt>
      <trkpt lat="43.6107474938" lon="1.4190282952">
        <ele>144.34</ele>
        <time>2017-07-29T13:27:49Z</time>
      </trkpt>
      <trkpt lat="43.6107480805" lon="1.4190162253">
        <ele>143.37</ele>
        <time>2017-07-29T13:28:13Z</time>
      </trkpt>
      <trkpt lat="43.6107547022" lon="1.4190158900">
        <ele>143.85</ele>
        <time>2017-07-29T13:28:28Z</time>
      </trkpt>
      <trkpt lat="43.6107572168" lon="1.4190162253">
        <ele>143.37</ele>
        <time>2017-07-29T13:28:49Z</time>
      </trkpt>
      <trkpt lat="43.6107598152" lon="1.4190168958">
        <ele>143.85</ele>
        <time>2017-07-29T13:29:04Z</time>
      </trkpt>
      <trkpt lat="43.6107632518" lon="1.4190146327">
        <ele>143.85</ele>
        <time>2017-07-29T13:29:23Z</time>
      </trkpt>
      <trkpt lat="43.6107702088" lon="1.4190102741">
        <ele>143.85</ele>
        <time>2017-07-29T13:29:48Z</time>
      </trkpt>
      <trkpt lat="43.6107697058" lon="1.4190184046">
        <ele>143.85</ele>
        <time>2017-07-29T13:30:07Z</time>
      </trkpt>
      <trkpt lat="43.6107639223" lon="1.4190085139">
        <ele>143.85</ele>
        <time>2017-07-29T13:30:21Z</time>
      </trkpt>
      <trkpt lat="43.6107427161" lon="1.4190151356">
        <ele>143.85</ele>
        <time>2017-07-29T13:30:49Z</time>
      </trkpt>
      <trkpt lat="43.6107417941" lon="1.4190195780">
        <ele>143.85</ele>
        <time>2017-07-29T13:31:16Z</time>
      </trkpt>
      <trkpt lat="43.6107367650" lon="1.4190178178">
        <ele>143.85</ele>
        <time>2017-07-29T13:31:40Z</time>
      </trkpt>
      <trkpt lat="43.6107179895" lon="1.4190171473">
        <ele>143.85</ele>
        <time>2017-07-29T13:32:03Z</time>
      </trkpt>
      <trkpt lat="43.6107181571" lon="1.4190242719">
        <ele>143.85</ele>
        <time>2017-07-29T13:32:27Z</time>
      </trkpt>
      <trkpt lat="43.6107232701" lon="1.4190308098">
        <ele>143.85</ele>
        <time>2017-07-29T13:32:47Z</time>
      </trkpt>
      <trkpt lat="43.6107139662" lon="1.4190570451">
        <ele>143.85</ele>
        <time>2017-07-29T13:33:12Z</time>
      </trkpt>
      <trkpt lat="43.6107174028" lon="1.4190538600">
        <ele>143.85</ele>
        <time>2017-07-29T13:33:35Z</time>
      </trkpt>
      <trkpt lat="43.6107188277" lon="1.4190559555">
        <ele>143.85</ele>
        <time>2017-07-29T13:33:55Z</time>
      </trkpt>
      <trkpt lat="43.6107253656" lon="1.4190542791">
        <ele>143.85</ele>
        <time>2017-07-29T13:34:16Z</time>
      </trkpt>
      <trkpt lat="43.6107314005" lon="1.4190517645">
        <ele>143.85</ele>
        <time>2017-07-29T13:34:30Z</time>
      </trkpt>
      <trkpt lat="43.6107324064" lon="1.4190582186">
        <ele>143.37</ele>
        <time>2017-07-29T13:34:41Z</time>
      </trkpt>
      <trkpt lat="43.6107163131" lon="1.4191188198">
        <ele>143.37</ele>
        <time>2017-07-29T13:34:49Z</time>
      </trkpt>
      <trkpt lat="43.6107090209" lon="1.4191470668">
        <ele>143.37</ele>
        <time>2017-07-29T13:34:50Z</time>
      </trkpt>
      <trkpt lat="43.6107023992" lon="1.4191764034">
        <ele>143.37</ele>
        <time>2017-07-29T13:34:51Z</time>
      </trkpt>
      <trkpt lat="43.6106939334" lon="1.4192043990">
        <ele>143.37</ele>
        <time>2017-07-29T13:34:52Z</time>
      </trkpt>
      <trkpt lat="43.6106863059" lon="1.4192354120">
        <ele>143.37</ele>
        <time>2017-07-29T13:34:53Z</time>
      </trkpt>
      <trkpt lat="43.6106769182" lon="1.4192664251">
        <ele>143.37</ele>
        <time>2017-07-29T13:34:54Z</time>
      </trkpt>
      <trkpt lat="43.6106093600" lon="1.4194967598">
        <ele>142.89</ele>
        <time>2017-07-29T13:35:02Z</time>
      </trkpt>
      <trkpt lat="43.6105990503" lon="1.4194897190">
        <ele>142.41</ele>
        <time>2017-07-29T13:35:03Z</time>
      </trkpt>
      <trkpt lat="43.6105922610" lon="1.4194737934">
        <ele>142.89</ele>
        <time>2017-07-29T13:35:04Z</time>
      </trkpt>
      <trkpt lat="43.6105836276" lon="1.4194095880">
        <ele>142.41</ele>
        <time>2017-07-29T13:35:08Z</time>
      </trkpt>
      <trkpt lat="43.6105710547" lon="1.4193906449">
        <ele>142.41</ele>
        <time>2017-07-29T13:35:09Z</time>
      </trkpt>
      <trkpt lat="43.6105526146" lon="1.4193784073">
        <ele>142.89</ele>
        <time>2017-07-29T13:35:10Z</time>
      </trkpt>
      <trkpt lat="43.6105324142" lon="1.4193697739">
        <ele>142.89</ele>
        <time>2017-07-29T13:35:11Z</time>
      </trkpt>
      <trkpt lat="43.6105113756" lon="1.4193576202">
        <ele>142.89</ele>
        <time>2017-07-29T13:35:12Z</time>
      </trkpt>
      <trkpt lat="43.6104885768" lon="1.4193447959">
        <ele>143.37</ele>
        <time>2017-07-29T13:35:13Z</time>
      </trkpt>
      <trkpt lat="43.6104672030" lon="1.4193289541">
        <ele>143.37</ele>
        <time>2017-07-29T13:35:14Z</time>
      </trkpt>
      <trkpt lat="43.6104440689" lon="1.4193133637">
        <ele>143.37</ele>
        <time>2017-07-29T13:35:15Z</time>
      </trkpt>
      <trkpt lat="43.6103208549" lon="1.4192617312">
        <ele>142.89</ele>
        <time>2017-07-29T13:35:21Z</time>
      </trkpt>
      <trkpt lat="43.6103075277" lon="1.4192789141">
        <ele>142.89</ele>
        <time>2017-07-29T13:35:22Z</time>
      </trkpt>
      <trkpt lat="43.6102991458" lon="1.4193006232">
        <ele>142.89</ele>
        <time>2017-07-29T13:35:23Z</time>
      </trkpt>
      <trkpt lat="43.6102909315" lon="1.4193219971">
        <ele>142.41</ele>
        <time>2017-07-29T13:35:24Z</time>
      </trkpt>
      <trkpt lat="43.6102805380" lon="1.4193469752">
        <ele>142.41</ele>
        <time>2017-07-29T13:35:25Z</time>
      </trkpt>
      <trkpt lat="43.6102679651" lon="1.4193748031">
        <ele>142.41</ele>
        <time>2017-07-29T13:35:26Z</time>
      </trkpt>
      <trkpt lat="43.6102559790" lon="1.4194027148">
        <ele>141.93</ele>
        <time>2017-07-29T13:35:27Z</time>
      </trkpt>
      <trkpt lat="43.6102440767" lon="1.4194328059">
        <ele>141.93</ele>
        <time>2017-07-29T13:35:28Z</time>
      </trkpt>
      <trkpt lat="43.6102319229" lon="1.4194613881">
        <ele>142.41</ele>
        <time>2017-07-29T13:35:29Z</time>
      </trkpt>
      <trkpt lat="43.6102215294" lon="1.4194968436">
        <ele>141.93</ele>
        <time>2017-07-29T13:35:30Z</time>
      </trkpt>
      <trkpt lat="43.6102088727" lon="1.4195353165">
        <ele>141.93</ele>
        <time>2017-07-29T13:35:31Z</time>
      </trkpt>
      <trkpt lat="43.6101886723" lon="1.4195832610">
        <ele>141.93</ele>
        <time>2017-07-29T13:35:32Z</time>
      </trkpt>
      <trkpt lat="43.6101674661" lon="1.4196275175">
        <ele>141.93</ele>
        <time>2017-07-29T13:35:33Z</time>
      </trkpt>
      <trkpt lat="43.6100559030" lon="1.4199606143">
        <ele>141.45</ele>
        <time>2017-07-29T13:35:40Z</time>
      </trkpt>
      <trkpt lat="43.6099353712" lon="1.4202690683">
        <ele>142.41</ele>
        <time>2017-07-29T13:35:49Z</time>
      </trkpt>
      <trkpt lat="43.6098376382" lon="1.4206056856">
        <ele>140.97</ele>
        <time>2017-07-29T13:35:56Z</time>
      </trkpt>
      <trkpt lat="43.6096987501" lon="1.4209946059">
        <ele>140.97</ele>
        <time>2017-07-29T13:36:03Z</time>
      </trkpt>
      <trkpt lat="43.6095513962" lon="1.4214031398">
        <ele>140.97</ele>
        <time>2017-07-29T13:36:10Z</time>
      </trkpt>
      <trkpt lat="43.6093913019" lon="1.4218577743">
        <ele>140.49</ele>
        <time>2017-07-29T13:36:19Z</time>
      </trkpt>
      <trkpt lat="43.6092861090" lon="1.4221107401">
        <ele>140.49</ele>
        <time>2017-07-29T13:36:24Z</time>
      </trkpt>
      <trkpt lat="43.6092691775" lon="1.4221610315">
        <ele>140.49</ele>
        <time>2017-07-29T13:36:25Z</time>
      </trkpt>
      <trkpt lat="43.6092472170" lon="1.4222061262">
        <ele>140.49</ele>
        <time>2017-07-29T13:36:26Z</time>
      </trkpt>
      <trkpt lat="43.6091992725" lon="1.4223083854">
        <ele>140.49</ele>
        <time>2017-07-29T13:36:28Z</time>
      </trkpt>
      <trkpt lat="43.6091833469" lon="1.4223665558">
        <ele>140.49</ele>
        <time>2017-07-29T13:36:29Z</time>
      </trkpt>
      <trkpt lat="43.6091372464" lon="1.4225688111">
        <ele>140.49</ele>
        <time>2017-07-29T13:36:33Z</time>
      </trkpt>
      <trkpt lat="43.6089895573" lon="1.4229640178">
        <ele>140.49</ele>
        <time>2017-07-29T13:36:40Z</time>
      </trkpt>
      <trkpt lat="43.6088505853" lon="1.4233273733">
        <ele>140.01</ele>
        <time>2017-07-29T13:36:47Z</time>
      </trkpt>
      <trkpt lat="43.6088002939" lon="1.4234727155">
        <ele>139.53</ele>
        <time>2017-07-29T13:36:50Z</time>
      </trkpt>
      <trkpt lat="43.6086749844" lon="1.4237323869">
        <ele>140.01</ele>
        <time>2017-07-29T13:36:56Z</time>
      </trkpt>
      <trkpt lat="43.6085689534" lon="1.4240272623">
        <ele>140.01</ele>
        <time>2017-07-29T13:37:03Z</time>
      </trkpt>
      <trkpt lat="43.6084428057" lon="1.4243753627">
        <ele>140.01</ele>
        <time>2017-07-29T13:37:11Z</time>
      </trkpt>
      <trkpt lat="43.6084194202" lon="1.4244226366">
        <ele>140.01</ele>
        <time>2017-07-29T13:37:12Z</time>
      </trkpt>
      <trkpt lat="43.6083998065" lon="1.4244747721">
        <ele>140.01</ele>
        <time>2017-07-29T13:37:13Z</time>
      </trkpt>
      <trkpt lat="43.6083782651" lon="1.4245347027">
        <ele>140.01</ele>
        <time>2017-07-29T13:37:14Z</time>
      </trkpt>
      <trkpt lat="43.6083564721" lon="1.4245921187">
        <ele>140.01</ele>
        <time>2017-07-29T13:37:15Z</time>
      </trkpt>
      <trkpt lat="43.6081935279" lon="1.4250643551">
        <ele>140.01</ele>
        <time>2017-07-29T13:37:24Z</time>
      </trkpt>
      <trkpt lat="43.6080800369" lon="1.4253480826">
        <ele>140.01</ele>
        <time>2017-07-29T13:37:31Z</time>
      </trkpt>
      <trkpt lat="43.6079939548" lon="1.4255635813">
        <ele>140.01</ele>
        <time>2017-07-29T13:37:37Z</time>
      </trkpt>
      <trkpt lat="43.6078630295" lon="1.4259328879">
        <ele>139.53</ele>
        <time>2017-07-29T13:37:46Z</time>
      </trkpt>
      <trkpt lat="43.6077507958" lon="1.4262855984">
        <ele>139.53</ele>
        <time>2017-07-29T13:37:53Z</time>
      </trkpt>
      <trkpt lat="43.6076448485" lon="1.4266525581">
        <ele>139.53</ele>
        <time>2017-07-29T13:38:01Z</time>
      </trkpt>
      <trkpt lat="43.6074825749" lon="1.4270528778">
        <ele>139.53</ele>
        <time>2017-07-29T13:38:10Z</time>
      </trkpt>
      <trkpt lat="43.6073524877" lon="1.4274827857">
        <ele>139.53</ele>
        <time>2017-07-29T13:38:18Z</time>
      </trkpt>
      <trkpt lat="43.6072888691" lon="1.4276649244">
        <ele>138.57</ele>
        <time>2017-07-29T13:38:21Z</time>
      </trkpt>
      <trkpt lat="43.6072746199" lon="1.4277418703">
        <ele>138.57</ele>
        <time>2017-07-29T13:38:22Z</time>
      </trkpt>
      <trkpt lat="43.6072659865" lon="1.4278242644">
        <ele>138.09</ele>
        <time>2017-07-29T13:38:23Z</time>
      </trkpt>
      <trkpt lat="43.6072537489" lon="1.4279131126">
        <ele>138.09</ele>
        <time>2017-07-29T13:38:24Z</time>
      </trkpt>
      <trkpt lat="43.6072425172" lon="1.4279805031">
        <ele>138.09</ele>
        <time>2017-07-29T13:38:25Z</time>
      </trkpt>
      <trkpt lat="43.6072311178" lon="1.4280357398">
        <ele>137.61</ele>
        <time>2017-07-29T13:38:26Z</time>
      </trkpt>
      <trkpt lat="43.6071720254" lon="1.4282869454">
        <ele>137.61</ele>
        <time>2017-07-29T13:38:31Z</time>
      </trkpt>
      <trkpt lat="43.6071484722" lon="1.4283209760">
        <ele>137.61</ele>
        <time>2017-07-29T13:38:32Z</time>
      </trkpt>
      <trkpt lat="43.6071155313" lon="1.4283622149">
        <ele>137.61</ele>
        <time>2017-07-29T13:38:33Z</time>
      </trkpt>
      <trkpt lat="43.6068798322" lon="1.4287937991">
        <ele>138.57</ele>
        <time>2017-07-29T13:38:43Z</time>
      </trkpt>
      <trkpt lat="43.6067436263" lon="1.4291606750">
        <ele>138.57</ele>
        <time>2017-07-29T13:38:52Z</time>
      </trkpt>
      <trkpt lat="43.6067011300" lon="1.4293013234">
        <ele>139.05</ele>
        <time>2017-07-29T13:38:55Z</time>
      </trkpt>
      <trkpt lat="43.6065400299" lon="1.4297378529">
        <ele>138.57</ele>
        <time>2017-07-29T13:39:05Z</time>
      </trkpt>
      <trkpt lat="43.6064782552" lon="1.4300617296">
        <ele>137.61</ele>
        <time>2017-07-29T13:39:12Z</time>
      </trkpt>
      <trkpt lat="43.6064497568" lon="1.4303016197">
        <ele>137.61</ele>
        <time>2017-07-29T13:39:18Z</time>
      </trkpt>
      <trkpt lat="43.6064210907" lon="1.4303165395">
        <ele>137.61</ele>
        <time>2017-07-29T13:39:19Z</time>
      </trkpt>
      <trkpt lat="43.6063852161" lon="1.4303294476">
        <ele>137.61</ele>
        <time>2017-07-29T13:39:20Z</time>
      </trkpt>
      <trkpt lat="43.6063619982" lon="1.4303458761">
        <ele>137.61</ele>
        <time>2017-07-29T13:39:21Z</time>
      </trkpt>
      <trkpt lat="43.6063388642" lon="1.4303604607">
        <ele>137.61</ele>
        <time>2017-07-29T13:39:22Z</time>
      </trkpt>
      <trkpt lat="43.6063226033" lon="1.4303792361">
        <ele>137.61</ele>
        <time>2017-07-29T13:39:23Z</time>
      </trkpt>
      <trkpt lat="43.6063090246" lon="1.4304052200">
        <ele>138.09</ele>
        <time>2017-07-29T13:39:24Z</time>
      </trkpt>
      <trkpt lat="43.6062920094" lon="1.4304373227">
        <ele>138.09</ele>
        <time>2017-07-29T13:39:25Z</time>
      </trkpt>
      <trkpt lat="43.6062024068" lon="1.4307052083">
        <ele>139.05</ele>
        <time>2017-07-29T13:39:33Z</time>
      </trkpt>
      <trkpt lat="43.6061518639" lon="1.4308137540">
        <ele>139.53</ele>
        <time>2017-07-29T13:39:40Z</time>
      </trkpt>
      <trkpt lat="43.6061330047" lon="1.4308232255">
        <ele>140.49</ele>
        <time>2017-07-29T13:39:51Z</time>
      </trkpt>
      <trkpt lat="43.6060962081" lon="1.4307599422">
        <ele>140.97</ele>
        <time>2017-07-29T13:40:00Z</time>
      </trkpt>
      <trkpt lat="43.6060817074" lon="1.4307606127">
        <ele>140.49</ele>
        <time>2017-07-29T13:40:01Z</time>
      </trkpt>
      <trkpt lat="43.6060668714" lon="1.4307599422">
        <ele>140.49</ele>
        <time>2017-07-29T13:40:02Z</time>
      </trkpt>
      <trkpt lat="43.6060539633" lon="1.4307525661">
        <ele>140.49</ele>
        <time>2017-07-29T13:40:03Z</time>
      </trkpt>
      <trkpt lat="43.6060409714" lon="1.4307444356">
        <ele>140.49</ele>
        <time>2017-07-29T13:40:04Z</time>
      </trkpt>
      <trkpt lat="43.6060269736" lon="1.4307385683">
        <ele>140.49</ele>
        <time>2017-07-29T13:40:05Z</time>
      </trkpt>
      <trkpt lat="43.6060129758" lon="1.4307282586">
        <ele>140.49</ele>
        <time>2017-07-29T13:40:06Z</time>
      </trkpt>
      <trkpt lat="43.6060013250" lon="1.4307172783">
        <ele>140.49</ele>
        <time>2017-07-29T13:40:07Z</time>
      </trkpt>
      <trkpt lat="43.6059983913" lon="1.4306608681">
        <ele>140.49</ele>
        <time>2017-07-29T13:40:16Z</time>
      </trkpt>
      <trkpt lat="43.6059999000" lon="1.4306692500">
        <ele>140.97</ele>
        <time>2017-07-29T13:40:29Z</time>
      </trkpt>
      <trkpt lat="43.6060005706" lon="1.4306575991">
        <ele>141.45</ele>
        <time>2017-07-29T13:40:46Z</time>
      </trkpt>
      <trkpt lat="43.6060024146" lon="1.4306496363">
        <ele>140.97</ele>
        <time>2017-07-29T13:41:12Z</time>
      </trkpt>
      <trkpt lat="43.6060051806" lon="1.4306457806">
        <ele>140.01</ele>
        <time>2017-07-29T13:41:17Z</time>
      </trkpt>
      <trkpt lat="43.6063481681" lon="1.4300071634">
        <ele>91.46</ele>
        <time>2017-07-30T06:25:39Z</time>
      </trkpt>
      <trkpt lat="43.6063458212" lon="1.4300060738">
        <ele>91.46</ele>
        <time>2017-07-30T06:25:40Z</time>
      </trkpt>
      <trkpt lat="43.6063890718" lon="1.4300266095">
        <ele>91.94</ele>
        <time>2017-07-30T06:25:59Z</time>
      </trkpt>
      <trkpt lat="43.6064110324" lon="1.4299525972">
        <ele>97.23</ele>
        <time>2017-07-30T06:26:06Z</time>
      </trkpt>
      <trkpt lat="43.6064180732" lon="1.4299481548">
        <ele>96.27</ele>
        <time>2017-07-30T06:26:07Z</time>
      </trkpt>
      <trkpt lat="43.6064230185" lon="1.4299458917">
        <ele>100.60</ele>
        <time>2017-07-30T06:26:08Z</time>
      </trkpt>
      <trkpt lat="43.6064304784" lon="1.4299564529">
        <ele>105.88</ele>
        <time>2017-07-30T06:26:11Z</time>
      </trkpt>
      <trkpt lat="43.6064225156" lon="1.4299670141">
        <ele>109.73</ele>
        <time>2017-07-30T06:26:14Z</time>
      </trkpt>
      <trkpt lat="43.6064142175" lon="1.4299593866">
        <ele>115.50</ele>
        <time>2017-07-30T06:26:17Z</time>
      </trkpt>
      <trkpt lat="43.6064040754" lon="1.4299610630">
        <ele>118.86</ele>
        <time>2017-07-30T06:26:20Z</time>
      </trkpt>
      <trkpt lat="43.6063863058" lon="1.4299652539">
        <ele>123.19</ele>
        <time>2017-07-30T06:26:24Z</time>
      </trkpt>
      <trkpt lat="43.6063777562" lon="1.4299619012">
        <ele>128.47</ele>
        <time>2017-07-30T06:26:28Z</time>
      </trkpt>
      <trkpt lat="43.6063770857" lon="1.4299636614">
        <ele>128.47</ele>
        <time>2017-07-30T06:26:29Z</time>
      </trkpt>
      <trkpt lat="43.6063709669" lon="1.4299500827">
        <ele>131.36</ele>
        <time>2017-07-30T06:26:33Z</time>
      </trkpt>
      <trkpt lat="43.6063697096" lon="1.4299441315">
        <ele>135.20</ele>
        <time>2017-07-30T06:26:36Z</time>
      </trkpt>
      <trkpt lat="43.6063706316" lon="1.4299412817">
        <ele>134.72</ele>
        <time>2017-07-30T06:26:37Z</time>
      </trkpt>
      <trkpt lat="43.6063686199" lon="1.4299318939">
        <ele>138.09</ele>
        <time>2017-07-30T06:26:41Z</time>
      </trkpt>
      <trkpt lat="43.6063676141" lon="1.4299282059">
        <ele>137.61</ele>
        <time>2017-07-30T06:26:42Z</time>
      </trkpt>
      <trkpt lat="43.6063652672" lon="1.4299201593">
        <ele>140.49</ele>
        <time>2017-07-30T06:26:49Z</time>
      </trkpt>
      <trkpt lat="43.6063744035" lon="1.4299319778">
        <ele>142.41</ele>
        <time>2017-07-30T06:26:53Z</time>
      </trkpt>
      <trkpt lat="43.6063303985" lon="1.4300251845">
        <ele>143.85</ele>
        <time>2017-07-30T06:26:58Z</time>
      </trkpt>
      <trkpt lat="43.6063036602" lon="1.4300780743">
        <ele>144.82</ele>
        <time>2017-07-30T06:27:00Z</time>
      </trkpt>
      <trkpt lat="43.6062245350" lon="1.4302621409">
        <ele>146.26</ele>
        <time>2017-07-30T06:27:08Z</time>
      </trkpt>
      <trkpt lat="43.6062455736" lon="1.4302875381">
        <ele>147.70</ele>
        <time>2017-07-30T06:27:17Z</time>
      </trkpt>
      <trkpt lat="43.6063469108" lon="1.4302470535">
        <ele>149.14</ele>
        <time>2017-07-30T06:27:24Z</time>
      </trkpt>
      <trkpt lat="43.6065774970" lon="1.4304287732">
        <ele>150.10</ele>
        <time>2017-07-30T06:27:35Z</time>
      </trkpt>
      <trkpt lat="43.6067464761" lon="1.4305962436">
        <ele>149.62</ele>
        <time>2017-07-30T06:27:41Z</time>
      </trkpt>
      <trkpt lat="43.6068540998" lon="1.4306736924">
        <ele>149.14</ele>
        <time>2017-07-30T06:27:44Z</time>
      </trkpt>
      <trkpt lat="43.6072390806" lon="1.4309336152">
        <ele>149.14</ele>
        <time>2017-07-30T06:27:53Z</time>
      </trkpt>
      <trkpt lat="43.6073922180" lon="1.4310553204">
        <ele>149.14</ele>
        <time>2017-07-30T06:27:57Z</time>
      </trkpt>
      <trkpt lat="43.6074309424" lon="1.4310859144">
        <ele>146.74</ele>
        <time>2017-07-30T06:27:58Z</time>
      </trkpt>
      <trkpt lat="43.6075833254" lon="1.4312034287">
        <ele>148.66</ele>
        <time>2017-07-30T06:28:02Z</time>
      </trkpt>
      <trkpt lat="43.6076582596" lon="1.4312504511">
        <ele>148.66</ele>
        <time>2017-07-30T06:28:04Z</time>
      </trkpt>
      <trkpt lat="43.6078830622" lon="1.4314183407">
        <ele>148.66</ele>
        <time>2017-07-30T06:28:10Z</time>
      </trkpt>
      <trkpt lat="43.6079213675" lon="1.4314531256">
        <ele>148.66</ele>
        <time>2017-07-30T06:28:11Z</time>
      </trkpt>
      <trkpt lat="43.6082589906" lon="1.4316887408">
        <ele>148.66</ele>
        <time>2017-07-30T06:28:20Z</time>
      </trkpt>
      <trkpt lat="43.6083315779" lon="1.4317573886">
        <ele>149.14</ele>
        <time>2017-07-30T06:28:22Z</time>
      </trkpt>
      <trkpt lat="43.6087105237" lon="1.4320287947">
        <ele>148.66</ele>
        <time>2017-07-30T06:28:32Z</time>
      </trkpt>
      <trkpt lat="43.6088885553" lon="1.4321537688">
        <ele>149.14</ele>
        <time>2017-07-30T06:28:37Z</time>
      </trkpt>
      <trkpt lat="43.6091216560" lon="1.4323131926">
        <ele>149.14</ele>
        <time>2017-07-30T06:28:43Z</time>
      </trkpt>
      <trkpt lat="43.6091592908" lon="1.4323390927">
        <ele>149.14</ele>
        <time>2017-07-30T06:28:44Z</time>
      </trkpt>
      <trkpt lat="43.6094545014" lon="1.4325506520">
        <ele>149.14</ele>
        <time>2017-07-30T06:28:53Z</time>
      </trkpt>
      <trkpt lat="43.6095426790" lon="1.4326223172">
        <ele>149.62</ele>
        <time>2017-07-30T06:29:00Z</time>
      </trkpt>
      <trkpt lat="43.6095477920" lon="1.4326214790">
        <ele>149.14</ele>
        <time>2017-07-30T06:29:02Z</time>
      </trkpt>
      <trkpt lat="43.6095642205" lon="1.4326379076">
        <ele>149.62</ele>
        <time>2017-07-30T06:29:03Z</time>
      </trkpt>
      <trkpt lat="43.6095789727" lon="1.4326572698">
        <ele>149.62</ele>
        <time>2017-07-30T06:29:04Z</time>
      </trkpt>
      <trkpt lat="43.6096239835" lon="1.4327605348">
        <ele>149.62</ele>
        <time>2017-07-30T06:29:08Z</time>
      </trkpt>
      <trkpt lat="43.6096627079" lon="1.4328746963">
        <ele>149.62</ele>
        <time>2017-07-30T06:29:11Z</time>
      </trkpt>
      <trkpt lat="43.6096823215" lon="1.4329145942">
        <ele>149.62</ele>
        <time>2017-07-30T06:29:12Z</time>
      </trkpt>
      <trkpt lat="43.6098227184" lon="1.4334646147">
        <ele>150.10</ele>
        <time>2017-07-30T06:29:24Z</time>
      </trkpt>
      <trkpt lat="43.6099740118" lon="1.4339667745">
        <ele>150.10</ele>
        <time>2017-07-30T06:29:34Z</time>
      </trkpt>
      <trkpt lat="43.6101567373" lon="1.4345287811">
        <ele>151.06</ele>
        <time>2017-07-30T06:29:45Z</time>
      </trkpt>
      <trkpt lat="43.6103630997" lon="1.4352012612">
        <ele>152.03</ele>
        <time>2017-07-30T06:29:58Z</time>
      </trkpt>
      <trkpt lat="43.6103852279" lon="1.4352573361">
        <ele>148.66</ele>
        <time>2017-07-30T06:29:59Z</time>
      </trkpt>
      <trkpt lat="43.6104061827" lon="1.4353092201">
        <ele>153.47</ele>
        <time>2017-07-30T06:30:00Z</time>
      </trkpt>
      <trkpt lat="43.6104719806" lon="1.4354496170">
        <ele>152.03</ele>
        <time>2017-07-30T06:30:03Z</time>
      </trkpt>
      <trkpt lat="43.6106119584" lon="1.4357701410">
        <ele>152.03</ele>
        <time>2017-07-30T06:30:14Z</time>
      </trkpt>
      <trkpt lat="43.6107665207" lon="1.4361511823">
        <ele>152.03</ele>
        <time>2017-07-30T06:30:24Z</time>
      </trkpt>
      <trkpt lat="43.6109397747" lon="1.4366266876">
        <ele>152.51</ele>
        <time>2017-07-30T06:30:34Z</time>
      </trkpt>
      <trkpt lat="43.6109716259" lon="1.4367261808">
        <ele>152.51</ele>
        <time>2017-07-30T06:30:36Z</time>
      </trkpt>
      <trkpt lat="43.6109901499" lon="1.4367743768">
        <ele>152.51</ele>
        <time>2017-07-30T06:30:37Z</time>
      </trkpt>
      <trkpt lat="43.6110068299" lon="1.4368146937">
        <ele>152.51</ele>
        <time>2017-07-30T06:30:38Z</time>
      </trkpt>
      <trkpt lat="43.6111724563" lon="1.4372539055">
        <ele>152.99</ele>
        <time>2017-07-30T06:30:46Z</time>
      </trkpt>
      <trkpt lat="43.6112032179" lon="1.4373591822">
        <ele>152.99</ele>
        <time>2017-07-30T06:30:48Z</time>
      </trkpt>
      <trkpt lat="43.6113529187" lon="1.4377778582">
        <ele>154.43</ele>
        <time>2017-07-30T06:30:57Z</time>
      </trkpt>
      <trkpt lat="43.6114372406" lon="1.4382573869">
        <ele>154.43</ele>
        <time>2017-07-30T06:31:07Z</time>
      </trkpt>
      <trkpt lat="43.6114425212" lon="1.4387341496">
        <ele>154.91</ele>
        <time>2017-07-30T06:31:16Z</time>
      </trkpt>
      <trkpt lat="43.6113931518" lon="1.4393729344">
        <ele>154.91</ele>
        <time>2017-07-30T06:31:28Z</time>
      </trkpt>
      <trkpt lat="43.6113734543" lon="1.4394748583">
        <ele>151.06</ele>
        <time>2017-07-30T06:31:30Z</time>
      </trkpt>
      <trkpt lat="43.6113654077" lon="1.4395256527">
        <ele>155.39</ele>
        <time>2017-07-30T06:31:31Z</time>
      </trkpt>
      <trkpt lat="43.6112069059" lon="1.4410695992">
        <ele>154.91</ele>
        <time>2017-07-30T06:31:59Z</time>
      </trkpt>
      <trkpt lat="43.6111746356" lon="1.4411068987">
        <ele>154.91</ele>
        <time>2017-07-30T06:32:00Z</time>
      </trkpt>
      <trkpt lat="43.6110314727" lon="1.4414806478">
        <ele>154.91</ele>
        <time>2017-07-30T06:32:08Z</time>
      </trkpt>
      <trkpt lat="43.6108735576" lon="1.4418686461">
        <ele>157.79</ele>
        <time>2017-07-30T06:32:16Z</time>
      </trkpt>
      <trkpt lat="43.6108235177" lon="1.4421265572">
        <ele>161.16</ele>
        <time>2017-07-30T06:32:21Z</time>
      </trkpt>
      <trkpt lat="43.6107949354" lon="1.4422856458">
        <ele>163.08</ele>
        <time>2017-07-30T06:32:24Z</time>
      </trkpt>
      <trkpt lat="43.6107386090" lon="1.4424998872">
        <ele>165.96</ele>
        <time>2017-07-30T06:32:28Z</time>
      </trkpt>
      <trkpt lat="43.6106454860" lon="1.4427531883">
        <ele>168.85</ele>
        <time>2017-07-30T06:32:33Z</time>
      </trkpt>
      <trkpt lat="43.6105407123" lon="1.4429520909">
        <ele>171.73</ele>
        <time>2017-07-30T06:32:37Z</time>
      </trkpt>
      <trkpt lat="43.6104092002" lon="1.4432841819">
        <ele>174.62</ele>
        <time>2017-07-30T06:32:43Z</time>
      </trkpt>
      <trkpt lat="43.6103724875" lon="1.4433317911">
        <ele>175.10</ele>
        <time>2017-07-30T06:32:44Z</time>
      </trkpt>
      <trkpt lat="43.6103313323" lon="1.4433702640">
        <ele>175.58</ele>
        <time>2017-07-30T06:32:45Z</time>
      </trkpt>
      <trkpt lat="43.6100465991" lon="1.4437196217">
        <ele>178.46</ele>
        <time>2017-07-30T06:32:54Z</time>
      </trkpt>
      <trkpt lat="43.6099502072" lon="1.4439192787">
        <ele>179.90</ele>
        <time>2017-07-30T06:32:58Z</time>
      </trkpt>
      <trkpt lat="43.6098702438" lon="1.4440769423">
        <ele>180.38</ele>
        <time>2017-07-30T06:33:01Z</time>
      </trkpt>
      <trkpt lat="43.6098356266" lon="1.4441189356">
        <ele>180.38</ele>
        <time>2017-07-30T06:33:02Z</time>
      </trkpt>
      <trkpt lat="43.6096944753" lon="1.4442721568">
        <ele>181.35</ele>
        <time>2017-07-30T06:33:06Z</time>
      </trkpt>
      <trkpt lat="43.6096577626" lon="1.4443075284">
        <ele>181.83</ele>
        <time>2017-07-30T06:33:07Z</time>
      </trkpt>
      <trkpt lat="43.6096243188" lon="1.4443450794">
        <ele>181.83</ele>
        <time>2017-07-30T06:33:08Z</time>
      </trkpt>
      <trkpt lat="43.6095560901" lon="1.4444141462">
        <ele>182.79</ele>
        <time>2017-07-30T06:33:10Z</time>
      </trkpt>
      <trkpt lat="43.6093099974" lon="1.4447241090">
        <ele>182.31</ele>
        <time>2017-07-30T06:33:19Z</time>
      </trkpt>
      <trkpt lat="43.6091331393" lon="1.4449311420">
        <ele>183.27</ele>
        <time>2017-07-30T06:33:25Z</time>
      </trkpt>
      <trkpt lat="43.6090665869" lon="1.4450249355">
        <ele>182.79</ele>
        <time>2017-07-30T06:33:27Z</time>
      </trkpt>
      <trkpt lat="43.6090309639" lon="1.4450668450">
        <ele>182.79</ele>
        <time>2017-07-30T06:33:28Z</time>
      </trkpt>
      <trkpt lat="43.6089975201" lon="1.4451093413">
        <ele>182.79</ele>
        <time>2017-07-30T06:33:29Z</time>
      </trkpt>
      <trkpt lat="43.6089240946" lon="1.4451806713">
        <ele>182.79</ele>
        <time>2017-07-30T06:33:31Z</time>
      </trkpt>
      <trkpt lat="43.6088913213" lon="1.4452128578">
        <ele>182.79</ele>
        <time>2017-07-30T06:33:32Z</time>
      </trkpt>
      <trkpt lat="43.6088589672" lon="1.4452422783">
        <ele>182.79</ele>
        <time>2017-07-30T06:33:33Z</time>
      </trkpt>
      <trkpt lat="43.6085848790" lon="1.4455265924">
        <ele>182.79</ele>
        <time>2017-07-30T06:33:42Z</time>
      </trkpt>
      <trkpt lat="43.6085235234" lon="1.4455780573">
        <ele>182.79</ele>
        <time>2017-07-30T06:33:44Z</time>
      </trkpt>
      <trkpt lat="43.6084932648" lon="1.4455984253">
        <ele>182.31</ele>
        <time>2017-07-30T06:33:45Z</time>
      </trkpt>
      <trkpt lat="43.6084620841" lon="1.4456244931">
        <ele>182.31</ele>
        <time>2017-07-30T06:33:46Z</time>
      </trkpt>
      <trkpt lat="43.6084287241" lon="1.4456522372">
        <ele>182.79</ele>
        <time>2017-07-30T06:33:47Z</time>
      </trkpt>
      <trkpt lat="43.6083975434" lon="1.4456873573">
        <ele>182.79</ele>
        <time>2017-07-30T06:33:48Z</time>
      </trkpt>
      <trkpt lat="43.6080421507" lon="1.4460422471">
        <ele>182.79</ele>
        <time>2017-07-30T06:33:59Z</time>
      </trkpt>
      <trkpt lat="43.6077062879" lon="1.4463729970">
        <ele>182.79</ele>
        <time>2017-07-30T06:34:09Z</time>
      </trkpt>
      <trkpt lat="43.6076698266" lon="1.4464014117">
        <ele>182.79</ele>
        <time>2017-07-30T06:34:10Z</time>
      </trkpt>
      <trkpt lat="43.6076009274" lon="1.4464726578">
        <ele>183.27</ele>
        <time>2017-07-30T06:34:12Z</time>
      </trkpt>
      <trkpt lat="43.6075347103" lon="1.4465428144">
        <ele>183.27</ele>
        <time>2017-07-30T06:34:14Z</time>
      </trkpt>
      <trkpt lat="43.6073321197" lon="1.4466514438">
        <ele>183.27</ele>
        <time>2017-07-30T06:34:19Z</time>
      </trkpt>
      <trkpt lat="43.6072898749" lon="1.4466791879">
        <ele>183.27</ele>
        <time>2017-07-30T06:34:20Z</time>
      </trkpt>
      <trkpt lat="43.6072529107" lon="1.4467166550">
        <ele>183.27</ele>
        <time>2017-07-30T06:34:21Z</time>
      </trkpt>
      <trkpt lat="43.6072218977" lon="1.4467586484">
        <ele>183.27</ele>
        <time>2017-07-30T06:34:22Z</time>
      </trkpt>
      <trkpt lat="43.6071918067" lon="1.4467964508">
        <ele>183.75</ele>
        <time>2017-07-30T06:34:23Z</time>
      </trkpt>
      <trkpt lat="43.6071637273" lon="1.4468364324">
        <ele>183.75</ele>
        <time>2017-07-30T06:34:24Z</time>
      </trkpt>
      <trkpt lat="43.6070695985" lon="1.4469699562">
        <ele>183.75</ele>
        <time>2017-07-30T06:34:27Z</time>
      </trkpt>
      <trkpt lat="43.6070326343" lon="1.4470072556">
        <ele>183.75</ele>
        <time>2017-07-30T06:34:28Z</time>
      </trkpt>
      <trkpt lat="43.6068731267" lon="1.4471520949">
        <ele>183.75</ele>
        <time>2017-07-30T06:34:32Z</time>
      </trkpt>
      <trkpt lat="43.6068318039" lon="1.4471862093">
        <ele>183.75</ele>
        <time>2017-07-30T06:34:33Z</time>
      </trkpt>
      <trkpt lat="43.6067880504" lon="1.4472185634">
        <ele>183.75</ele>
        <time>2017-07-30T06:34:34Z</time>
      </trkpt>
      <trkpt lat="43.6067421176" lon="1.4472403564">
        <ele>183.75</ele>
        <time>2017-07-30T06:34:35Z</time>
      </trkpt>
      <trkpt lat="43.6066969391" lon="1.4472582098">
        <ele>183.75</ele>
        <time>2017-07-30T06:34:36Z</time>
      </trkpt>
      <trkpt lat="43.6066551134" lon="1.4472823497">
        <ele>183.75</ele>
        <time>2017-07-30T06:34:37Z</time>
      </trkpt>
      <trkpt lat="43.6065535247" lon="1.4473929070">
        <ele>184.23</ele>
        <time>2017-07-30T06:34:40Z</time>
      </trkpt>
      <trkpt lat="43.6062701326" lon="1.4477547538">
        <ele>184.23</ele>
        <time>2017-07-30T06:34:48Z</time>
      </trkpt>
      <trkpt lat="43.6062397063" lon="1.4478042908">
        <ele>184.23</ele>
        <time>2017-07-30T06:34:49Z</time>
      </trkpt>
      <trkpt lat="43.6061431468" lon="1.4479470346">
        <ele>184.23</ele>
        <time>2017-07-30T06:34:52Z</time>
      </trkpt>
      <trkpt lat="43.6061115470" lon="1.4480000921">
        <ele>184.71</ele>
        <time>2017-07-30T06:34:53Z</time>
      </trkpt>
      <trkpt lat="43.6060474254" lon="1.4480862580">
        <ele>184.23</ele>
        <time>2017-07-30T06:34:55Z</time>
      </trkpt>
      <trkpt lat="43.6060102098" lon="1.4481166843">
        <ele>184.71</ele>
        <time>2017-07-30T06:34:56Z</time>
      </trkpt>
      <trkpt lat="43.6059746705" lon="1.4481554925">
        <ele>184.71</ele>
        <time>2017-07-30T06:34:57Z</time>
      </trkpt>
      <trkpt lat="43.6059384607" lon="1.4482025150">
        <ele>184.71</ele>
        <time>2017-07-30T06:34:58Z</time>
      </trkpt>
      <trkpt lat="43.6058988143" lon="1.4482465200">
        <ele>184.71</ele>
        <time>2017-07-30T06:34:59Z</time>
      </trkpt>
      <trkpt lat="43.6058599222" lon="1.4482925367">
        <ele>184.71</ele>
        <time>2017-07-30T06:35:00Z</time>
      </trkpt>
      <trkpt lat="43.6058281548" lon="1.4483491145">
        <ele>184.23</ele>
        <time>2017-07-30T06:35:01Z</time>
      </trkpt>
      <trkpt lat="43.6058006622" lon="1.4484133199">
        <ele>184.71</ele>
        <time>2017-07-30T06:35:02Z</time>
      </trkpt>
      <trkpt lat="43.6056623608" lon="1.4486154076">
        <ele>184.71</ele>
        <time>2017-07-30T06:35:06Z</time>
      </trkpt>
      <trkpt lat="43.6056321859" lon="1.4486504439">
        <ele>184.71</ele>
        <time>2017-07-30T06:35:07Z</time>
      </trkpt>
      <trkpt lat="43.6056133267" lon="1.4486933593">
        <ele>184.71</ele>
        <time>2017-07-30T06:35:08Z</time>
      </trkpt>
      <trkpt lat="43.6055984907" lon="1.4487407170">
        <ele>184.71</ele>
        <time>2017-07-30T06:35:09Z</time>
      </trkpt>
      <trkpt lat="43.6055911984" lon="1.4487924334">
        <ele>184.71</ele>
        <time>2017-07-30T06:35:10Z</time>
      </trkpt>
      <trkpt lat="43.6055928748" lon="1.4488463290">
        <ele>184.71</ele>
        <time>2017-07-30T06:35:11Z</time>
      </trkpt>
      <trkpt lat="43.6056025978" lon="1.4488884900">
        <ele>184.71</ele>
        <time>2017-07-30T06:35:12Z</time>
      </trkpt>
      <trkpt lat="43.6056283303" lon="1.4489192516">
        <ele>184.71</ele>
        <time>2017-07-30T06:35:13Z</time>
      </trkpt>
      <trkpt lat="43.6056622770" lon="1.4489463251">
        <ele>184.71</ele>
        <time>2017-07-30T06:35:14Z</time>
      </trkpt>
      <trkpt lat="43.6057015881" lon="1.4489842113">
        <ele>184.71</ele>
        <time>2017-07-30T06:35:15Z</time>
      </trkpt>
      <trkpt lat="43.6057410669" lon="1.4490263723">
        <ele>184.23</ele>
        <time>2017-07-30T06:35:16Z</time>
      </trkpt>
      <trkpt lat="43.6060957052" lon="1.4494426176">
        <ele>184.23</ele>
        <time>2017-07-30T06:35:28Z</time>
      </trkpt>
      <trkpt lat="43.6063218489" lon="1.4497406781">
        <ele>183.75</ele>
        <time>2017-07-30T06:35:37Z</time>
      </trkpt>
      <trkpt lat="43.6066165566" lon="1.4501788002">
        <ele>183.75</ele>
        <time>2017-07-30T06:35:49Z</time>
      </trkpt>
      <trkpt lat="43.6068950035" lon="1.4505922794">
        <ele>183.75</ele>
        <time>2017-07-30T06:36:00Z</time>
      </trkpt>
      <trkpt lat="43.6071445327" lon="1.4509690460">
        <ele>183.75</ele>
        <time>2017-07-30T06:36:10Z</time>
      </trkpt>
      <trkpt lat="43.6071680859" lon="1.4510071836">
        <ele>178.94</ele>
        <time>2017-07-30T06:36:11Z</time>
      </trkpt>
      <trkpt lat="43.6071906332" lon="1.4510439802">
        <ele>189.04</ele>
        <time>2017-07-30T06:36:12Z</time>
      </trkpt>
      <trkpt lat="43.6072138511" lon="1.4510770049">
        <ele>183.75</ele>
        <time>2017-07-30T06:36:13Z</time>
      </trkpt>
      <trkpt lat="43.6074606143" lon="1.4514364209">
        <ele>183.75</ele>
        <time>2017-07-30T06:36:23Z</time>
      </trkpt>
      <trkpt lat="43.6077249795" lon="1.4518055599">
        <ele>184.23</ele>
        <time>2017-07-30T06:36:33Z</time>
      </trkpt>
      <trkpt lat="43.6077578366" lon="1.4518370759">
        <ele>184.23</ele>
        <time>2017-07-30T06:36:34Z</time>
      </trkpt>
      <trkpt lat="43.6077914480" lon="1.4518635627">
        <ele>184.23</ele>
        <time>2017-07-30T06:36:35Z</time>
      </trkpt>
      <trkpt lat="43.6078273226" lon="1.4518834278">
        <ele>184.71</ele>
        <time>2017-07-30T06:36:36Z</time>
      </trkpt>
      <trkpt lat="43.6078641191" lon="1.4518996049">
        <ele>184.71</ele>
        <time>2017-07-30T06:36:37Z</time>
      </trkpt>
      <trkpt lat="43.6081480980" lon="1.4520851802">
        <ele>184.71</ele>
        <time>2017-07-30T06:36:45Z</time>
      </trkpt>
      <trkpt lat="43.6081782728" lon="1.4521237370">
        <ele>184.71</ele>
        <time>2017-07-30T06:36:46Z</time>
      </trkpt>
      <trkpt lat="43.6085214280" lon="1.4526578318">
        <ele>185.19</ele>
        <time>2017-07-30T06:36:59Z</time>
      </trkpt>
      <trkpt lat="43.6088142917" lon="1.4530555531">
        <ele>185.67</ele>
        <time>2017-07-30T06:37:10Z</time>
      </trkpt>
      <trkpt lat="43.6090587080" lon="1.4535003807">
        <ele>186.63</ele>
        <time>2017-07-30T06:37:22Z</time>
      </trkpt>
      <trkpt lat="43.6091318820" lon="1.4538002852">
        <ele>187.59</ele>
        <time>2017-07-30T06:37:32Z</time>
      </trkpt>
      <trkpt lat="43.6091734562" lon="1.4538933244">
        <ele>187.59</ele>
        <time>2017-07-30T06:37:41Z</time>
      </trkpt>
      <trkpt lat="43.6091861129" lon="1.4539421070">
        <ele>187.59</ele>
        <time>2017-07-30T06:37:54Z</time>
      </trkpt>
      <trkpt lat="43.6093168706" lon="1.4542309474">
        <ele>188.56</ele>
        <time>2017-07-30T06:38:05Z</time>
      </trkpt>
      <trkpt lat="43.6093978398" lon="1.4543780498">
        <ele>188.56</ele>
        <time>2017-07-30T06:38:10Z</time>
      </trkpt>
      <trkpt lat="43.6093925592" lon="1.4544153493">
        <ele>189.04</ele>
        <time>2017-07-30T06:38:11Z</time>
      </trkpt>
      <trkpt lat="43.6093786452" lon="1.4544482902">
        <ele>189.04</ele>
        <time>2017-07-30T06:38:12Z</time>
      </trkpt>
      <trkpt lat="43.6091009527" lon="1.4547943790">
        <ele>187.59</ele>
        <time>2017-07-30T06:38:22Z</time>
      </trkpt>
      <trkpt lat="43.6089995317" lon="1.4549046848">
        <ele>188.08</ele>
        <time>2017-07-30T06:38:25Z</time>
      </trkpt>
      <trkpt lat="43.6089286208" lon="1.4549724944">
        <ele>186.63</ele>
        <time>2017-07-30T06:38:27Z</time>
      </trkpt>
      <trkpt lat="43.6085629184" lon="1.4552165754">
        <ele>186.15</ele>
        <time>2017-07-30T06:38:37Z</time>
      </trkpt>
      <trkpt lat="43.6082681268" lon="1.4553937688">
        <ele>186.15</ele>
        <time>2017-07-30T06:38:46Z</time>
      </trkpt>
      <trkpt lat="43.6082419753" lon="1.4554235246">
        <ele>185.67</ele>
        <time>2017-07-30T06:38:47Z</time>
      </trkpt>
      <trkpt lat="43.6082077771" lon="1.4554443955">
        <ele>185.67</ele>
        <time>2017-07-30T06:38:48Z</time>
      </trkpt>
      <trkpt lat="43.6081735790" lon="1.4554646797">
        <ele>185.67</ele>
        <time>2017-07-30T06:38:49Z</time>
      </trkpt>
      <trkpt lat="43.6081428174" lon="1.4554847963">
        <ele>185.67</ele>
        <time>2017-07-30T06:38:50Z</time>
      </trkpt>
      <trkpt lat="43.6081095412" lon="1.4554995485">
        <ele>186.15</ele>
        <time>2017-07-30T06:38:51Z</time>
      </trkpt>
      <trkpt lat="43.6080755945" lon="1.4555134624">
        <ele>185.67</ele>
        <time>2017-07-30T06:38:52Z</time>
      </trkpt>
      <trkpt lat="43.6080434918" lon="1.4555285498">
        <ele>185.67</ele>
        <time>2017-07-30T06:38:53Z</time>
      </trkpt>
      <trkpt lat="43.6078490317" lon="1.4556584693">
        <ele>185.67</ele>
        <time>2017-07-30T06:39:00Z</time>
      </trkpt>
      <trkpt lat="43.6075251549" lon="1.4558314718">
        <ele>185.67</ele>
        <time>2017-07-30T06:39:10Z</time>
      </trkpt>
      <trkpt lat="43.6072358955" lon="1.4559975173">
        <ele>186.15</ele>
        <time>2017-07-30T06:39:19Z</time>
      </trkpt>
      <trkpt lat="43.6069602147" lon="1.4561274368">
        <ele>186.15</ele>
        <time>2017-07-30T06:39:27Z</time>
      </trkpt>
      <trkpt lat="43.6066611484" lon="1.4563017804">
        <ele>186.15</ele>
        <time>2017-07-30T06:39:36Z</time>
      </trkpt>
      <trkpt lat="43.6065247748" lon="1.4563803189">
        <ele>186.63</ele>
        <time>2017-07-30T06:39:41Z</time>
      </trkpt>
      <trkpt lat="43.6065318994" lon="1.4563807379">
        <ele>186.63</ele>
        <time>2017-07-30T06:39:51Z</time>
      </trkpt>
      <trkpt lat="43.6065358389" lon="1.4563798159">
        <ele>186.15</ele>
        <time>2017-07-30T06:40:07Z</time>
      </trkpt>
      <trkpt lat="43.6064940970" lon="1.4563967474">
        <ele>186.15</ele>
        <time>2017-07-30T06:40:09Z</time>
      </trkpt>
      <trkpt lat="43.6064686161" lon="1.4564088173">
        <ele>186.63</ele>
        <time>2017-07-30T06:40:10Z</time>
      </trkpt>
      <trkpt lat="43.6064426322" lon="1.4564231504">
        <ele>186.15</ele>
        <time>2017-07-30T06:40:11Z</time>
      </trkpt>
      <trkpt lat="43.6064143851" lon="1.4564414229">
        <ele>186.63</ele>
        <time>2017-07-30T06:40:12Z</time>
      </trkpt>
      <trkpt lat="43.6063857190" lon="1.4564630482">
        <ele>186.15</ele>
        <time>2017-07-30T06:40:13Z</time>
      </trkpt>
      <trkpt lat="43.6063542031" lon="1.4564811531">
        <ele>186.15</ele>
        <time>2017-07-30T06:40:14Z</time>
      </trkpt>
      <trkpt lat="43.6063191667" lon="1.4564987551">
        <ele>186.15</ele>
        <time>2017-07-30T06:40:15Z</time>
      </trkpt>
      <trkpt lat="43.6061045900" lon="1.4564764593">
        <ele>185.67</ele>
        <time>2017-07-30T06:40:22Z</time>
      </trkpt>
      <trkpt lat="43.6060672067" lon="1.4565042872">
        <ele>186.15</ele>
        <time>2017-07-30T06:40:23Z</time>
      </trkpt>
      <trkpt lat="43.6060339306" lon="1.4565490466">
        <ele>185.67</ele>
        <time>2017-07-30T06:40:24Z</time>
      </trkpt>
      <trkpt lat="43.6060022470" lon="1.4565893635">
        <ele>185.67</ele>
        <time>2017-07-30T06:40:25Z</time>
      </trkpt>
      <trkpt lat="43.6059625167" lon="1.4566231426">
        <ele>185.67</ele>
        <time>2017-07-30T06:40:26Z</time>
      </trkpt>
      <trkpt lat="43.6055889353" lon="1.4568973985">
        <ele>185.67</ele>
        <time>2017-07-30T06:40:35Z</time>
      </trkpt>
      <trkpt lat="43.6052945629" lon="1.4570911042">
        <ele>186.15</ele>
        <time>2017-07-30T06:40:44Z</time>
      </trkpt>
      <trkpt lat="43.6052824091" lon="1.4570975583">
        <ele>185.67</ele>
        <time>2017-07-30T06:41:04Z</time>
      </trkpt>
      <trkpt lat="43.6052817386" lon="1.4570986480">
        <ele>185.67</ele>
        <time>2017-07-30T06:41:05Z</time>
      </trkpt>
      <trkpt lat="43.6052603647" lon="1.4571088739">
        <ele>185.67</ele>
        <time>2017-07-30T06:41:06Z</time>
      </trkpt>
      <trkpt lat="43.6052323692" lon="1.4571193513">
        <ele>185.67</ele>
        <time>2017-07-30T06:41:07Z</time>
      </trkpt>
      <trkpt lat="43.6051975843" lon="1.4571306668">
        <ele>185.67</ele>
        <time>2017-07-30T06:41:08Z</time>
      </trkpt>
      <trkpt lat="43.6051597819" lon="1.4571401384">
        <ele>185.67</ele>
        <time>2017-07-30T06:41:09Z</time>
      </trkpt>
      <trkpt lat="43.6047119368" lon="1.4572529588">
        <ele>185.67</ele>
        <time>2017-07-30T06:41:19Z</time>
      </trkpt>
      <trkpt lat="43.6046681833" lon="1.4572549704">
        <ele>185.67</ele>
        <time>2017-07-30T06:41:20Z</time>
      </trkpt>
      <trkpt lat="43.6045320611" lon="1.4572558925">
        <ele>185.67</ele>
        <time>2017-07-30T06:41:23Z</time>
      </trkpt>
      <trkpt lat="43.6042706296" lon="1.4572420623">
        <ele>185.67</ele>
        <time>2017-07-30T06:41:29Z</time>
      </trkpt>
      <trkpt lat="43.6041771714" lon="1.4572444092">
        <ele>185.19</ele>
        <time>2017-07-30T06:41:31Z</time>
      </trkpt>
      <trkpt lat="43.6040276382" lon="1.4572428167">
        <ele>185.67</ele>
        <time>2017-07-30T06:41:34Z</time>
      </trkpt>
      <trkpt lat="43.6039796937" lon="1.4572460856">
        <ele>185.67</ele>
        <time>2017-07-30T06:41:35Z</time>
      </trkpt>
      <trkpt lat="43.6036894284" lon="1.4572428167">
        <ele>185.67</ele>
        <time>2017-07-30T06:41:41Z</time>
      </trkpt>
      <trkpt lat="43.6036444176" lon="1.4572382066">
        <ele>185.19</ele>
        <time>2017-07-30T06:41:42Z</time>
      </trkpt>
      <trkpt lat="43.6036036815" lon="1.4572336804">
        <ele>185.67</ele>
        <time>2017-07-30T06:41:43Z</time>
      </trkpt>
      <trkpt lat="43.6032943893" lon="1.4572279807">
        <ele>185.67</ele>
        <time>2017-07-30T06:41:50Z</time>
      </trkpt>
      <trkpt lat="43.6032489594" lon="1.4572136477">
        <ele>185.67</ele>
        <time>2017-07-30T06:41:51Z</time>
      </trkpt>
      <trkpt lat="43.6030753702" lon="1.4571682177">
        <ele>185.67</ele>
        <time>2017-07-30T06:41:55Z</time>
      </trkpt>
      <trkpt lat="43.6030271742" lon="1.4571559802">
        <ele>186.63</ele>
        <time>2017-07-30T06:41:56Z</time>
      </trkpt>
      <trkpt lat="43.6029733624" lon="1.4571530465">
        <ele>185.67</ele>
        <time>2017-07-30T06:41:57Z</time>
      </trkpt>
      <trkpt lat="43.6029170360" lon="1.4571460895">
        <ele>185.67</ele>
        <time>2017-07-30T06:41:58Z</time>
      </trkpt>
      <trkpt lat="43.6028656550" lon="1.4571390487">
        <ele>185.67</ele>
        <time>2017-07-30T06:41:59Z</time>
      </trkpt>
      <trkpt lat="43.6028105021" lon="1.4571434911">
        <ele>185.67</ele>
        <time>2017-07-30T06:42:00Z</time>
      </trkpt>
      <trkpt lat="43.6025885493" lon="1.4571560640">
        <ele>185.67</ele>
        <time>2017-07-30T06:42:04Z</time>
      </trkpt>
      <trkpt lat="43.6019325815" lon="1.4570269827">
        <ele>185.67</ele>
        <time>2017-07-30T06:42:18Z</time>
      </trkpt>
      <trkpt lat="43.6012927070" lon="1.4568073768">
        <ele>185.67</ele>
        <time>2017-07-30T06:42:32Z</time>
      </trkpt>
      <trkpt lat="43.6010468658" lon="1.4567777887">
        <ele>184.71</ele>
        <time>2017-07-30T06:42:39Z</time>
      </trkpt>
      <trkpt lat="43.6009949818" lon="1.4568367973">
        <ele>184.71</ele>
        <time>2017-07-30T06:42:42Z</time>
      </trkpt>
      <trkpt lat="43.6009824928" lon="1.4568371326">
        <ele>184.71</ele>
        <time>2017-07-30T06:42:43Z</time>
      </trkpt>
      <trkpt lat="43.6009759549" lon="1.4568444248">
        <ele>184.71</ele>
        <time>2017-07-30T06:42:44Z</time>
      </trkpt>
      <trkpt lat="43.6009648070" lon="1.4568352047">
        <ele>184.23</ele>
        <time>2017-07-30T06:42:45Z</time>
      </trkpt>
      <trkpt lat="43.6009487975" lon="1.4568129089">
        <ele>184.71</ele>
        <time>2017-07-30T06:42:46Z</time>
      </trkpt>
      <trkpt lat="43.6009308603" lon="1.4567810576">
        <ele>184.23</ele>
        <time>2017-07-30T06:42:47Z</time>
      </trkpt>
      <trkpt lat="43.6009200476" lon="1.4567481168">
        <ele>184.71</ele>
        <time>2017-07-30T06:42:48Z</time>
      </trkpt>
      <trkpt lat="43.6009063013" lon="1.4567201212">
        <ele>184.23</ele>
        <time>2017-07-30T06:42:49Z</time>
      </trkpt>
      <trkpt lat="43.6009033676" lon="1.4566926286">
        <ele>184.71</ele>
        <time>2017-07-30T06:42:50Z</time>
      </trkpt>
      <trkpt lat="43.6008052994" lon="1.4566151798">
        <ele>184.23</ele>
        <time>2017-07-30T06:42:55Z</time>
      </trkpt>
      <trkpt lat="43.6008047964" lon="1.4565530699">
        <ele>184.71</ele>
        <time>2017-07-30T06:42:58Z</time>
      </trkpt>
      <trkpt lat="43.6007959116" lon="1.4565130044">
        <ele>184.23</ele>
        <time>2017-07-30T06:42:59Z</time>
      </trkpt>
      <trkpt lat="43.6007778067" lon="1.4564733580">
        <ele>184.23</ele>
        <time>2017-07-30T06:43:00Z</time>
      </trkpt>
      <trkpt lat="43.6007341370" lon="1.4564256649">
        <ele>184.71</ele>
        <time>2017-07-30T06:43:02Z</time>
      </trkpt>
      <trkpt lat="43.6007153615" lon="1.4564274251">
        <ele>184.23</ele>
        <time>2017-07-30T06:43:03Z</time>
      </trkpt>
      <trkpt lat="43.6006817501" lon="1.4564513136">
        <ele>184.23</ele>
        <time>2017-07-30T06:43:10Z</time>
      </trkpt>
      <trkpt lat="43.6006757990" lon="1.4564714301">
        <ele>184.23</ele>
        <time>2017-07-30T06:43:11Z</time>
      </trkpt>
      <trkpt lat="43.6006005295" lon="1.4565088972">
        <ele>184.23</ele>
        <time>2017-07-30T06:43:15Z</time>
      </trkpt>
      <trkpt lat="43.6003223341" lon="1.4565182850">
        <ele>184.23</ele>
        <time>2017-07-30T06:43:24Z</time>
      </trkpt>
      <trkpt lat="43.6000099406" lon="1.4565182850">
        <ele>183.75</ele>
        <time>2017-07-30T06:43:33Z</time>
      </trkpt>
      <trkpt lat="43.5997039173" lon="1.4565262478">
        <ele>183.75</ele>
        <time>2017-07-30T06:43:41Z</time>
      </trkpt>
      <trkpt lat="43.5993297491" lon="1.4565331209">
        <ele>183.27</ele>
        <time>2017-07-30T06:43:51Z</time>
      </trkpt>
      <trkpt lat="43.5986344703" lon="1.4563742001">
        <ele>190.48</ele>
        <time>2017-07-30T06:44:26Z</time>
      </trkpt>
      <trkpt lat="43.5986964963" lon="1.4564635511">
        <ele>190.48</ele>
        <time>2017-07-30T06:44:28Z</time>
      </trkpt>
      <trkpt lat="43.5988235660" lon="1.4566177782">
        <ele>190.96</ele>
        <time>2017-07-30T06:44:35Z</time>
      </trkpt>
      <trkpt lat="43.5988237336" lon="1.4566199575">
        <ele>190.00</ele>
        <time>2017-07-30T06:44:37Z</time>
      </trkpt>
      <trkpt lat="43.5987944808" lon="1.4566170238">
        <ele>186.15</ele>
        <time>2017-07-30T06:44:43Z</time>
      </trkpt>
      <trkpt lat="43.5987850092" lon="1.4566138387">
        <ele>183.27</ele>
        <time>2017-07-30T06:44:45Z</time>
      </trkpt>
      <trkpt lat="43.5987783037" lon="1.4566125814">
        <ele>179.90</ele>
        <time>2017-07-30T06:44:47Z</time>
      </trkpt>
      <trkpt lat="43.5987759568" lon="1.4566046186">
        <ele>175.58</ele>
        <time>2017-07-30T06:44:50Z</time>
      </trkpt>
      <trkpt lat="43.5987803992" lon="1.4565953985">
        <ele>171.73</ele>
        <time>2017-07-30T06:44:53Z</time>
      </trkpt>
      <trkpt lat="43.5987814050" lon="1.4565811493">
        <ele>168.37</ele>
        <time>2017-07-30T06:44:56Z</time>
      </trkpt>
      <trkpt lat="43.5987746995" lon="1.4565806463">
        <ele>165.96</ele>
        <time>2017-07-30T06:44:59Z</time>
      </trkpt>
      <trkpt lat="43.5987404175" lon="1.4565789700">
        <ele>164.04</ele>
        <time>2017-07-30T06:45:01Z</time>
      </trkpt>
      <trkpt lat="43.5986394156" lon="1.4566130005">
        <ele>160.20</ele>
        <time>2017-07-30T06:45:07Z</time>
      </trkpt>
      <trkpt lat="43.5985150281" lon="1.4566225559">
        <ele>156.83</ele>
        <time>2017-07-30T06:45:14Z</time>
      </trkpt>
      <trkpt lat="43.5982955061" lon="1.4566383138">
        <ele>155.39</ele>
        <time>2017-07-30T06:45:22Z</time>
      </trkpt>
      <trkpt lat="43.5980236810" lon="1.4566742722">
        <ele>153.47</ele>
        <time>2017-07-30T06:45:30Z</time>
      </trkpt>
      <trkpt lat="43.5979779158" lon="1.4566783793">
        <ele>152.99</ele>
        <time>2017-07-30T06:45:31Z</time>
      </trkpt>
      <trkpt lat="43.5979303066" lon="1.4566767868">
        <ele>152.99</ele>
        <time>2017-07-30T06:45:32Z</time>
      </trkpt>
      <trkpt lat="43.5978309810" lon="1.4566683210">
        <ele>152.99</ele>
        <time>2017-07-30T06:45:34Z</time>
      </trkpt>
      <trkpt lat="43.5975321662" lon="1.4566756971">
        <ele>152.51</ele>
        <time>2017-07-30T06:45:40Z</time>
      </trkpt>
      <trkpt lat="43.5974436533" lon="1.4566661417">
        <ele>152.51</ele>
        <time>2017-07-30T06:45:42Z</time>
      </trkpt>
      <trkpt lat="43.5974014085" lon="1.4566699974">
        <ele>152.51</ele>
        <time>2017-07-30T06:45:43Z</time>
      </trkpt>
      <trkpt lat="43.5973647796" lon="1.4566735178">
        <ele>152.51</ele>
        <time>2017-07-30T06:45:44Z</time>
      </trkpt>
      <trkpt lat="43.5973328445" lon="1.4566725120">
        <ele>152.51</ele>
        <time>2017-07-30T06:45:45Z</time>
      </trkpt>
      <trkpt lat="43.5973106325" lon="1.4566516411">
        <ele>152.03</ele>
        <time>2017-07-30T06:45:46Z</time>
      </trkpt>
      <trkpt lat="43.5972940363" lon="1.4566179458">
        <ele>152.51</ele>
        <time>2017-07-30T06:45:47Z</time>
      </trkpt>
      <trkpt lat="43.5972703993" lon="1.4565972425">
        <ele>152.03</ele>
        <time>2017-07-30T06:45:48Z</time>
      </trkpt>
      <trkpt lat="43.5972408950" lon="1.4565891959">
        <ele>152.03</ele>
        <time>2017-07-30T06:45:49Z</time>
      </trkpt>
      <trkpt lat="43.5972104687" lon="1.4565845020">
        <ele>152.03</ele>
        <time>2017-07-30T06:45:50Z</time>
      </trkpt>
      <trkpt lat="43.5971822217" lon="1.4565833285">
        <ele>152.03</ele>
        <time>2017-07-30T06:45:51Z</time>
      </trkpt>
      <trkpt lat="43.5968766175" lon="1.4565808978">
        <ele>152.03</ele>
        <time>2017-07-30T06:46:01Z</time>
      </trkpt>
      <trkpt lat="43.5965881124" lon="1.4565935545">
        <ele>152.03</ele>
        <time>2017-07-30T06:46:10Z</time>
      </trkpt>
      <trkpt lat="43.5961930733" lon="1.4565902855">
        <ele>152.03</ele>
        <time>2017-07-30T06:46:22Z</time>
      </trkpt>
      <trkpt lat="43.5957955196" lon="1.4565924648">
        <ele>152.03</ele>
        <time>2017-07-30T06:46:34Z</time>
      </trkpt>
      <trkpt lat="43.5955644306" lon="1.4565749466">
        <ele>152.03</ele>
        <time>2017-07-30T06:46:43Z</time>
      </trkpt>
      <trkpt lat="43.5953825433" lon="1.4566461928">
        <ele>152.03</ele>
        <time>2017-07-30T06:46:50Z</time>
      </trkpt>
      <trkpt lat="43.5953686293" lon="1.4566729311">
        <ele>152.03</ele>
        <time>2017-07-30T06:46:51Z</time>
      </trkpt>
      <trkpt lat="43.5953532904" lon="1.4566912036">
        <ele>152.03</ele>
        <time>2017-07-30T06:46:52Z</time>
      </trkpt>
      <trkpt lat="43.5953298211" lon="1.4566929638">
        <ele>152.03</ele>
        <time>2017-07-30T06:46:53Z</time>
      </trkpt>
      <trkpt lat="43.5953032505" lon="1.4566897787">
        <ele>152.03</ele>
        <time>2017-07-30T06:46:54Z</time>
      </trkpt>
      <trkpt lat="43.5948878434" lon="1.4567029383">
        <ele>152.03</ele>
        <time>2017-07-30T06:47:06Z</time>
      </trkpt>
      <trkpt lat="43.5945856757" lon="1.4568413235">
        <ele>152.03</ele>
        <time>2017-07-30T06:47:15Z</time>
      </trkpt>
      <trkpt lat="43.5943527427" lon="1.4569953829">
        <ele>152.03</ele>
        <time>2017-07-30T06:47:24Z</time>
      </trkpt>
      <trkpt lat="43.5943174548" lon="1.4570095483">
        <ele>152.03</ele>
        <time>2017-07-30T06:47:26Z</time>
      </trkpt>
      <trkpt lat="43.5943074804" lon="1.4570010826">
        <ele>151.54</ele>
        <time>2017-07-30T06:47:27Z</time>
      </trkpt>
      <trkpt lat="43.5942840111" lon="1.4569721650">
        <ele>151.06</ele>
        <time>2017-07-30T06:47:30Z</time>
      </trkpt>
      <trkpt lat="43.5942690913" lon="1.4569623582">
        <ele>151.06</ele>
        <time>2017-07-30T06:47:31Z</time>
      </trkpt>
      <trkpt lat="43.5942537524" lon="1.4569595084">
        <ele>150.58</ele>
        <time>2017-07-30T06:47:32Z</time>
      </trkpt>
      <trkpt lat="43.5942370724" lon="1.4569675550">
        <ele>150.58</ele>
        <time>2017-07-30T06:47:33Z</time>
      </trkpt>
      <trkpt lat="43.5942199733" lon="1.4569799602">
        <ele>151.06</ele>
        <time>2017-07-30T06:47:34Z</time>
      </trkpt>
      <trkpt lat="43.5941988509" lon="1.4569979813">
        <ele>150.58</ele>
        <time>2017-07-30T06:47:35Z</time>
      </trkpt>
      <trkpt lat="43.5939997807" lon="1.4571375400">
        <ele>151.06</ele>
        <time>2017-07-30T06:47:44Z</time>
      </trkpt>
      <trkpt lat="43.5938411951" lon="1.4573000651">
        <ele>151.06</ele>
        <time>2017-07-30T06:47:53Z</time>
      </trkpt>
      <trkpt lat="43.5938213300" lon="1.4573189244">
        <ele>150.58</ele>
        <time>2017-07-30T06:47:54Z</time>
      </trkpt>
      <trkpt lat="43.5938050691" lon="1.4573362749">
        <ele>151.06</ele>
        <time>2017-07-30T06:47:55Z</time>
      </trkpt>
      <trkpt lat="43.5937887244" lon="1.4573551342">
        <ele>150.10</ele>
        <time>2017-07-30T06:47:56Z</time>
      </trkpt>
      <trkpt lat="43.5937683564" lon="1.4573744126">
        <ele>152.03</ele>
        <time>2017-07-30T06:47:57Z</time>
      </trkpt>
      <trkpt lat="43.5937489104" lon="1.4573905896">
        <ele>151.06</ele>
        <time>2017-07-30T06:47:58Z</time>
      </trkpt>
      <trkpt lat="43.5937323142" lon="1.4574047551">
        <ele>151.06</ele>
        <time>2017-07-30T06:47:59Z</time>
      </trkpt>
      <trkpt lat="43.5937123653" lon="1.4574234467">
        <ele>150.58</ele>
        <time>2017-07-30T06:48:00Z</time>
      </trkpt>
      <trkpt lat="43.5936889797" lon="1.4574413840">
        <ele>151.06</ele>
        <time>2017-07-30T06:48:01Z</time>
      </trkpt>
      <trkpt lat="43.5936655942" lon="1.4574604109">
        <ele>151.06</ele>
        <time>2017-07-30T06:48:02Z</time>
      </trkpt>
      <trkpt lat="43.5936483275" lon="1.4574827068">
        <ele>150.58</ele>
        <time>2017-07-30T06:48:03Z</time>
      </trkpt>
      <trkpt lat="43.5936282109" lon="1.4575066790">
        <ele>150.58</ele>
        <time>2017-07-30T06:48:04Z</time>
      </trkpt>
      <trkpt lat="43.5936063342" lon="1.4575296454">
        <ele>150.58</ele>
        <time>2017-07-30T06:48:05Z</time>
      </trkpt>
      <trkpt lat="43.5933873150" lon="1.4577625785">
        <ele>150.58</ele>
        <time>2017-07-30T06:48:16Z</time>
      </trkpt>
      <trkpt lat="43.5931946151" lon="1.4579530992">
        <ele>150.58</ele>
        <time>2017-07-30T06:48:25Z</time>
      </trkpt>
      <trkpt lat="43.5931746662" lon="1.4579703659">
        <ele>150.58</ele>
        <time>2017-07-30T06:48:26Z</time>
      </trkpt>
      <trkpt lat="43.5931525379" lon="1.4579844475">
        <ele>150.10</ele>
        <time>2017-07-30T06:48:27Z</time>
      </trkpt>
      <trkpt lat="43.5931340978" lon="1.4579994511">
        <ele>150.58</ele>
        <time>2017-07-30T06:48:28Z</time>
      </trkpt>
      <trkpt lat="43.5931191780" lon="1.4580129460">
        <ele>150.58</ele>
        <time>2017-07-30T06:48:29Z</time>
      </trkpt>
      <trkpt lat="43.5931055155" lon="1.4580235071">
        <ele>150.58</ele>
        <time>2017-07-30T06:48:30Z</time>
      </trkpt>
      <trkpt lat="43.5929803737" lon="1.4581183903">
        <ele>150.58</ele>
        <time>2017-07-30T06:48:37Z</time>
      </trkpt>
      <trkpt lat="43.5928738397" lon="1.4582386706">
        <ele>150.10</ele>
        <time>2017-07-30T06:48:44Z</time>
      </trkpt>
      <trkpt lat="43.5928346124" lon="1.4582991041">
        <ele>150.58</ele>
        <time>2017-07-30T06:49:04Z</time>
      </trkpt>
      <trkpt lat="43.5927988216" lon="1.4583125152">
        <ele>150.10</ele>
        <time>2017-07-30T06:49:25Z</time>
      </trkpt>
      <trkpt lat="43.5927767772" lon="1.4583296981">
        <ele>150.10</ele>
        <time>2017-07-30T06:49:27Z</time>
      </trkpt>
      <trkpt lat="43.5927657969" lon="1.4583392534">
        <ele>150.58</ele>
        <time>2017-07-30T06:49:28Z</time>
      </trkpt>
      <trkpt lat="43.5927507095" lon="1.4583482221">
        <ele>150.58</ele>
        <time>2017-07-30T06:49:29Z</time>
      </trkpt>
      <trkpt lat="43.5927327722" lon="1.4583611302">
        <ele>150.58</ele>
        <time>2017-07-30T06:49:30Z</time>
      </trkpt>
      <trkpt lat="43.5927157570" lon="1.4583756309">
        <ele>150.58</ele>
        <time>2017-07-30T06:49:31Z</time>
      </trkpt>
      <trkpt lat="43.5925554112" lon="1.4585138485">
        <ele>150.58</ele>
        <time>2017-07-30T06:49:39Z</time>
      </trkpt>
      <trkpt lat="43.5924324486" lon="1.4586342126">
        <ele>150.58</ele>
        <time>2017-07-30T06:49:45Z</time>
      </trkpt>
      <trkpt lat="43.5924034473" lon="1.4586560056">
        <ele>150.58</ele>
        <time>2017-07-30T06:49:46Z</time>
      </trkpt>
      <trkpt lat="43.5923795588" lon="1.4586802293">
        <ele>150.58</ele>
        <time>2017-07-30T06:49:47Z</time>
      </trkpt>
      <trkpt lat="43.5921877809" lon="1.4588530641">
        <ele>150.58</ele>
        <time>2017-07-30T06:49:56Z</time>
      </trkpt>
      <trkpt lat="43.5919963382" lon="1.4590502065">
        <ele>150.58</ele>
        <time>2017-07-30T06:50:05Z</time>
      </trkpt>
      <trkpt lat="43.5916908178" lon="1.4593403041">
        <ele>151.06</ele>
        <time>2017-07-30T06:50:16Z</time>
      </trkpt>
      <trkpt lat="43.5914536938" lon="1.4595359378">
        <ele>151.06</ele>
        <time>2017-07-30T06:50:25Z</time>
      </trkpt>
      <trkpt lat="43.5913037416" lon="1.4597378578">
        <ele>151.06</ele>
        <time>2017-07-30T06:50:33Z</time>
      </trkpt>
      <trkpt lat="43.5912598204" lon="1.4597745705">
        <ele>151.06</ele>
        <time>2017-07-30T06:50:35Z</time>
      </trkpt>
      <trkpt lat="43.5912348423" lon="1.4597886521">
        <ele>151.06</ele>
        <time>2017-07-30T06:50:36Z</time>
      </trkpt>
      <trkpt lat="43.5912143067" lon="1.4598095231">
        <ele>151.06</ele>
        <time>2017-07-30T06:50:37Z</time>
      </trkpt>
      <trkpt lat="43.5911958665" lon="1.4598329086">
        <ele>151.06</ele>
        <time>2017-07-30T06:50:38Z</time>
      </trkpt>
      <trkpt lat="43.5911787674" lon="1.4598548692">
        <ele>151.06</ele>
        <time>2017-07-30T06:50:39Z</time>
      </trkpt>
      <trkpt lat="43.5911604110" lon="1.4598700404">
        <ele>151.06</ele>
        <time>2017-07-30T06:50:40Z</time>
      </trkpt>
      <trkpt lat="43.5911411326" lon="1.4598852117">
        <ele>151.06</ele>
        <time>2017-07-30T06:50:41Z</time>
      </trkpt>
      <trkpt lat="43.5911237821" lon="1.4599059988">
        <ele>151.06</ele>
        <time>2017-07-30T06:50:42Z</time>
      </trkpt>
      <trkpt lat="43.5911062639" lon="1.4599256963">
        <ele>151.06</ele>
        <time>2017-07-30T06:50:43Z</time>
      </trkpt>
      <trkpt lat="43.5910866503" lon="1.4599414542">
        <ele>151.06</ele>
        <time>2017-07-30T06:50:44Z</time>
      </trkpt>
      <trkpt lat="43.5910692997" lon="1.4599562902">
        <ele>151.06</ele>
        <time>2017-07-30T06:50:45Z</time>
      </trkpt>
      <trkpt lat="43.5910557210" lon="1.4599679410">
        <ele>151.06</ele>
        <time>2017-07-30T06:50:46Z</time>
      </trkpt>
      <trkpt lat="43.5910411365" lon="1.4599974453">
        <ele>151.06</ele>
        <time>2017-07-30T06:50:56Z</time>
      </trkpt>
      <trkpt lat="43.5910387058" lon="1.4600189030">
        <ele>151.06</ele>
        <time>2017-07-30T06:51:19Z</time>
      </trkpt>
      <trkpt lat="43.5910459980" lon="1.4600123651">
        <ele>151.06</ele>
        <time>2017-07-30T06:51:36Z</time>
      </trkpt>
      <trkpt lat="43.5910426453" lon="1.4600104373">
        <ele>151.06</ele>
        <time>2017-07-30T06:51:44Z</time>
      </trkpt>
      <trkpt lat="43.5910289828" lon="1.4600223396">
        <ele>151.06</ele>
        <time>2017-07-30T06:51:45Z</time>
      </trkpt>
      <trkpt lat="43.5909961257" lon="1.4600417856">
        <ele>151.06</ele>
        <time>2017-07-30T06:51:47Z</time>
      </trkpt>
      <trkpt lat="43.5909739975" lon="1.4600491617">
        <ele>151.06</ele>
        <time>2017-07-30T06:51:48Z</time>
      </trkpt>
      <trkpt lat="43.5909312498" lon="1.4600607287">
        <ele>151.54</ele>
        <time>2017-07-30T06:51:50Z</time>
      </trkpt>
      <trkpt lat="43.5909119714" lon="1.4600699488">
        <ele>151.54</ele>
        <time>2017-07-30T06:51:51Z</time>
      </trkpt>
      <trkpt lat="43.5908887535" lon="1.4600779954">
        <ele>151.54</ele>
        <time>2017-07-30T06:51:52Z</time>
      </trkpt>
      <trkpt lat="43.5908647813" lon="1.4600864612">
        <ele>151.54</ele>
        <time>2017-07-30T06:51:53Z</time>
      </trkpt>
      <trkpt lat="43.5908375401" lon="1.4600914903">
        <ele>151.54</ele>
        <time>2017-07-30T06:51:54Z</time>
      </trkpt>
      <trkpt lat="43.5906027630" lon="1.4601494931">
        <ele>151.54</ele>
        <time>2017-07-30T06:52:03Z</time>
      </trkpt>
      <trkpt lat="43.5903596878" lon="1.4601724595">
        <ele>151.54</ele>
        <time>2017-07-30T06:52:12Z</time>
      </trkpt>
      <trkpt lat="43.5901440214" lon="1.4602204040">
        <ele>151.54</ele>
        <time>2017-07-30T06:52:20Z</time>
      </trkpt>
      <trkpt lat="43.5901223961" lon="1.4602278639">
        <ele>151.54</ele>
        <time>2017-07-30T06:52:21Z</time>
      </trkpt>
      <trkpt lat="43.5900964960" lon="1.4602370840">
        <ele>151.54</ele>
        <time>2017-07-30T06:52:22Z</time>
      </trkpt>
      <trkpt lat="43.5900702607" lon="1.4602462202">
        <ele>151.54</ele>
        <time>2017-07-30T06:52:23Z</time>
      </trkpt>
      <trkpt lat="43.5898516607" lon="1.4602816757">
        <ele>151.54</ele>
        <time>2017-07-30T06:52:32Z</time>
      </trkpt>
      <trkpt lat="43.5895763990" lon="1.4603390917">
        <ele>152.03</ele>
        <time>2017-07-30T06:52:43Z</time>
      </trkpt>
      <trkpt lat="43.5893272888" lon="1.4603691828">
        <ele>152.03</ele>
        <time>2017-07-30T06:52:53Z</time>
      </trkpt>
      <trkpt lat="43.5892324895" lon="1.4603913948">
        <ele>152.03</ele>
        <time>2017-07-30T06:53:01Z</time>
      </trkpt>
      <trkpt lat="43.5892227665" lon="1.4604090806">
        <ele>152.03</ele>
        <time>2017-07-30T06:53:17Z</time>
      </trkpt>
      <trkpt lat="43.5892272089" lon="1.4604100026">
        <ele>152.03</ele>
        <time>2017-07-30T06:53:37Z</time>
      </trkpt>
      <trkpt lat="43.5892252810" lon="1.4604100026">
        <ele>152.03</ele>
        <time>2017-07-30T06:53:40Z</time>
      </trkpt>
      <trkpt lat="43.5891911667" lon="1.4604178816">
        <ele>152.03</ele>
        <time>2017-07-30T06:53:42Z</time>
      </trkpt>
      <trkpt lat="43.5891715530" lon="1.4604245871">
        <ele>152.03</ele>
        <time>2017-07-30T06:53:43Z</time>
      </trkpt>
      <trkpt lat="43.5891540349" lon="1.4604303706">
        <ele>152.03</ele>
        <time>2017-07-30T06:53:44Z</time>
      </trkpt>
      <trkpt lat="43.5890403762" lon="1.4604287781">
        <ele>152.03</ele>
        <time>2017-07-30T06:53:49Z</time>
      </trkpt>
      <trkpt lat="43.5890160687" lon="1.4604308736">
        <ele>152.51</ele>
        <time>2017-07-30T06:53:50Z</time>
      </trkpt>
      <trkpt lat="43.5887260549" lon="1.4605195541">
        <ele>153.47</ele>
        <time>2017-07-30T06:54:01Z</time>
      </trkpt>
      <trkpt lat="43.5886380449" lon="1.4605554286">
        <ele>152.99</ele>
        <time>2017-07-30T06:54:08Z</time>
      </trkpt>
      <trkpt lat="43.5886239633" lon="1.4605615474">
        <ele>152.99</ele>
        <time>2017-07-30T06:54:09Z</time>
      </trkpt>
      <trkpt lat="43.5886049364" lon="1.4605613798">
        <ele>152.99</ele>
        <time>2017-07-30T06:54:10Z</time>
      </trkpt>
      <trkpt lat="43.5885818861" lon="1.4605616312">
        <ele>152.99</ele>
        <time>2017-07-30T06:54:11Z</time>
      </trkpt>
      <trkpt lat="43.5885582492" lon="1.4605598710">
        <ele>152.99</ele>
        <time>2017-07-30T06:54:12Z</time>
      </trkpt>
      <trkpt lat="43.5885354504" lon="1.4605596196">
        <ele>152.99</ele>
        <time>2017-07-30T06:54:13Z</time>
      </trkpt>
      <trkpt lat="43.5885189380" lon="1.4605693426">
        <ele>152.99</ele>
        <time>2017-07-30T06:54:14Z</time>
      </trkpt>
      <trkpt lat="43.5885140765" lon="1.4605932310">
        <ele>152.51</ele>
        <time>2017-07-30T06:54:15Z</time>
      </trkpt>
      <trkpt lat="43.5885220394" lon="1.4606151916">
        <ele>152.51</ele>
        <time>2017-07-30T06:54:16Z</time>
      </trkpt>
      <trkpt lat="43.5885398928" lon="1.4606219810">
        <ele>152.51</ele>
        <time>2017-07-30T06:54:17Z</time>
      </trkpt>
      <trkpt lat="43.5885587521" lon="1.4606242441">
        <ele>152.51</ele>
        <time>2017-07-30T06:54:18Z</time>
      </trkpt>
      <trkpt lat="43.5885768570" lon="1.4606235735">
        <ele>152.51</ele>
        <time>2017-07-30T06:54:19Z</time>
      </trkpt>
      <trkpt lat="43.5885990690" lon="1.4606240764">
        <ele>152.51</ele>
        <time>2017-07-30T06:54:20Z</time>
      </trkpt>
      <trkpt lat="43.5886252206" lon="1.4606267586">
        <ele>152.99</ele>
        <time>2017-07-30T06:54:21Z</time>
      </trkpt>
      <trkpt lat="43.5886543058" lon="1.4606238250">
        <ele>152.99</ele>
        <time>2017-07-30T06:54:22Z</time>
      </trkpt>
      <trkpt lat="43.5886827204" lon="1.4606242441">
        <ele>152.99</ele>
        <time>2017-07-30T06:54:23Z</time>
      </trkpt>
      <trkpt lat="43.5887098778" lon="1.4606276806">
        <ele>152.99</ele>
        <time>2017-07-30T06:54:24Z</time>
      </trkpt>
      <trkpt lat="43.5890165716" lon="1.4606778044">
        <ele>153.95</ele>
        <time>2017-07-30T06:54:35Z</time>
      </trkpt>
      <trkpt lat="43.5890713893" lon="1.4607229829">
        <ele>154.43</ele>
        <time>2017-07-30T06:54:41Z</time>
      </trkpt>
      <trkpt lat="43.5890658572" lon="1.4607369807">
        <ele>154.43</ele>
        <time>2017-07-30T06:54:42Z</time>
      </trkpt>
      <trkpt lat="43.5890503507" lon="1.4607453626">
        <ele>154.43</ele>
        <time>2017-07-30T06:54:43Z</time>
      </trkpt>
      <trkpt lat="43.5890298989" lon="1.4607509784">
        <ele>154.43</ele>
        <time>2017-07-30T06:54:44Z</time>
      </trkpt>
      <trkpt lat="43.5890065972" lon="1.4607596956">
        <ele>154.43</ele>
        <time>2017-07-30T06:54:45Z</time>
      </trkpt>
      <trkpt lat="43.5889798589" lon="1.4607645571">
        <ele>154.43</ele>
        <time>2017-07-30T06:54:46Z</time>
      </trkpt>
      <trkpt lat="43.5889503546" lon="1.4607691672">
        <ele>154.43</ele>
        <time>2017-07-30T06:54:47Z</time>
      </trkpt>
      <trkpt lat="43.5889200959" lon="1.4607744478">
        <ele>154.43</ele>
        <time>2017-07-30T06:54:48Z</time>
      </trkpt>
      <trkpt lat="43.5888877418" lon="1.4607814886">
        <ele>154.43</ele>
        <time>2017-07-30T06:54:49Z</time>
      </trkpt>
      <trkpt lat="43.5888534598" lon="1.4607897867">
        <ele>154.43</ele>
        <time>2017-07-30T06:54:50Z</time>
      </trkpt>
      <trkpt lat="43.5883812234" lon="1.4608711749">
        <ele>154.43</ele>
        <time>2017-07-30T06:55:01Z</time>
      </trkpt>
      <trkpt lat="43.5879856814" lon="1.4609290939">
        <ele>154.43</ele>
        <time>2017-07-30T06:55:11Z</time>
      </trkpt>
      <trkpt lat="43.5878569353" lon="1.4608752821">
        <ele>154.91</ele>
        <time>2017-07-30T06:55:15Z</time>
      </trkpt>
      <trkpt lat="43.5878451169" lon="1.4608481247">
        <ele>154.91</ele>
        <time>2017-07-30T06:55:16Z</time>
      </trkpt>
      <trkpt lat="43.5878358968" lon="1.4608213864">
        <ele>154.91</ele>
        <time>2017-07-30T06:55:17Z</time>
      </trkpt>
      <trkpt lat="43.5877514072" lon="1.4603949990">
        <ele>155.39</ele>
        <time>2017-07-30T06:55:28Z</time>
      </trkpt>
      <trkpt lat="43.5877360683" lon="1.4603655785">
        <ele>155.39</ele>
        <time>2017-07-30T06:55:29Z</time>
      </trkpt>
      <trkpt lat="43.5877155326" lon="1.4603473898">
        <ele>155.39</ele>
        <time>2017-07-30T06:55:30Z</time>
      </trkpt>
      <trkpt lat="43.5875853617" lon="1.4602674264">
        <ele>155.39</ele>
        <time>2017-07-30T06:55:37Z</time>
      </trkpt>
      <trkpt lat="43.5875570308" lon="1.4602762274">
        <ele>155.39</ele>
        <time>2017-07-30T06:55:38Z</time>
      </trkpt>
      <trkpt lat="43.5875325557" lon="1.4602962602">
        <ele>154.91</ele>
        <time>2017-07-30T06:55:39Z</time>
      </trkpt>
      <trkpt lat="43.5875074938" lon="1.4603116829">
        <ele>154.91</ele>
        <time>2017-07-30T06:55:40Z</time>
      </trkpt>
      <trkpt lat="43.5874789953" lon="1.4603191428">
        <ele>154.91</ele>
        <time>2017-07-30T06:55:41Z</time>
      </trkpt>
      <trkpt lat="43.5874475632" lon="1.4603277761">
        <ele>154.91</ele>
        <time>2017-07-30T06:55:42Z</time>
      </trkpt>
      <trkpt lat="43.5870812740" lon="1.4604376629">
        <ele>153.95</ele>
        <time>2017-07-30T06:55:52Z</time>
      </trkpt>
      <trkpt lat="43.5869680345" lon="1.4604737051">
        <ele>153.95</ele>
        <time>2017-07-30T06:55:55Z</time>
      </trkpt>
      <trkpt lat="43.5867532063" lon="1.4605597034">
        <ele>153.95</ele>
        <time>2017-07-30T06:56:00Z</time>
      </trkpt>
      <trkpt lat="43.5863714106" lon="1.4607173670">
        <ele>153.47</ele>
        <time>2017-07-30T06:56:10Z</time>
      </trkpt>
      <trkpt lat="43.5859660618" lon="1.4608693309">
        <ele>153.47</ele>
        <time>2017-07-30T06:56:20Z</time>
      </trkpt>
      <trkpt lat="43.5856323782" lon="1.4610121585">
        <ele>153.47</ele>
        <time>2017-07-30T06:56:29Z</time>
      </trkpt>
      <trkpt lat="43.5853359941" lon="1.4611227997">
        <ele>153.47</ele>
        <time>2017-07-30T06:56:38Z</time>
      </trkpt>
      <trkpt lat="43.5849576350" lon="1.4612667169">
        <ele>153.47</ele>
        <time>2017-07-30T06:56:48Z</time>
      </trkpt>
      <trkpt lat="43.5846672859" lon="1.4613972232">
        <ele>153.47</ele>
        <time>2017-07-30T06:56:56Z</time>
      </trkpt>
      <trkpt lat="43.5842640325" lon="1.4615747519">
        <ele>152.99</ele>
        <time>2017-07-30T06:57:07Z</time>
      </trkpt>
      <trkpt lat="43.5839813109" lon="1.4617132209">
        <ele>152.99</ele>
        <time>2017-07-30T06:57:16Z</time>
      </trkpt>
      <trkpt lat="43.5836793110" lon="1.4618400391">
        <ele>152.99</ele>
        <time>2017-07-30T06:57:25Z</time>
      </trkpt>
      <trkpt lat="43.5833943263" lon="1.4619754907">
        <ele>153.47</ele>
        <time>2017-07-30T06:57:35Z</time>
      </trkpt>
      <trkpt lat="43.5831988603" lon="1.4620804321">
        <ele>153.47</ele>
        <time>2017-07-30T06:57:42Z</time>
      </trkpt>
      <trkpt lat="43.5829839483" lon="1.4621806797">
        <ele>153.47</ele>
        <time>2017-07-30T06:57:48Z</time>
      </trkpt>
      <trkpt lat="43.5826210957" lon="1.4624004532">
        <ele>153.47</ele>
        <time>2017-07-30T06:57:58Z</time>
      </trkpt>
      <trkpt lat="43.5822338518" lon="1.4626270998">
        <ele>152.99</ele>
        <time>2017-07-30T06:58:10Z</time>
      </trkpt>
      <trkpt lat="43.5819580872" lon="1.4627832547">
        <ele>153.47</ele>
        <time>2017-07-30T06:58:19Z</time>
      </trkpt>
      <trkpt lat="43.5818373878" lon="1.4628845081">
        <ele>152.99</ele>
        <time>2017-07-30T06:58:23Z</time>
      </trkpt>
      <trkpt lat="43.5815972462" lon="1.4630200434">
        <ele>153.47</ele>
        <time>2017-07-30T06:58:30Z</time>
      </trkpt>
      <trkpt lat="43.5815701727" lon="1.4630156010">
        <ele>153.95</ele>
        <time>2017-07-30T06:58:31Z</time>
      </trkpt>
      <trkpt lat="43.5815443564" lon="1.4630086441">
        <ele>153.95</ele>
        <time>2017-07-30T06:58:32Z</time>
      </trkpt>
      <trkpt lat="43.5815187916" lon="1.4630130026">
        <ele>153.95</ele>
        <time>2017-07-30T06:58:33Z</time>
      </trkpt>
      <trkpt lat="43.5814970825" lon="1.4630279224">
        <ele>153.95</ele>
        <time>2017-07-30T06:58:34Z</time>
      </trkpt>
      <trkpt lat="43.5814762115" lon="1.4630422555">
        <ele>153.95</ele>
        <time>2017-07-30T06:58:35Z</time>
      </trkpt>
      <trkpt lat="43.5814535804" lon="1.4630575106">
        <ele>153.95</ele>
        <time>2017-07-30T06:58:36Z</time>
      </trkpt>
      <trkpt lat="43.5812365729" lon="1.4632981550">
        <ele>154.43</ele>
        <time>2017-07-30T06:58:46Z</time>
      </trkpt>
      <trkpt lat="43.5810535960" lon="1.4634739235">
        <ele>154.43</ele>
        <time>2017-07-30T06:58:53Z</time>
      </trkpt>
      <trkpt lat="43.5809257720" lon="1.4635892585">
        <ele>154.91</ele>
        <time>2017-07-30T06:58:58Z</time>
      </trkpt>
      <trkpt lat="43.5808992013" lon="1.4636023343">
        <ele>154.91</ele>
        <time>2017-07-30T06:58:59Z</time>
      </trkpt>
      <trkpt lat="43.5808770731" lon="1.4636192657">
        <ele>154.91</ele>
        <time>2017-07-30T06:59:00Z</time>
      </trkpt>
      <trkpt lat="43.5808564536" lon="1.4636424836">
        <ele>154.91</ele>
        <time>2017-07-30T06:59:01Z</time>
      </trkpt>
      <trkpt lat="43.5808324814" lon="1.4636662882">
        <ele>154.91</ele>
        <time>2017-07-30T06:59:02Z</time>
      </trkpt>
      <trkpt lat="43.5808070842" lon="1.4636893384">
        <ele>155.39</ele>
        <time>2017-07-30T06:59:03Z</time>
      </trkpt>
      <trkpt lat="43.5807819385" lon="1.4637226146">
        <ele>155.39</ele>
        <time>2017-07-30T06:59:04Z</time>
      </trkpt>
      <trkpt lat="43.5807582177" lon="1.4637508616">
        <ele>155.39</ele>
        <time>2017-07-30T06:59:05Z</time>
      </trkpt>
      <trkpt lat="43.5807332397" lon="1.4637764264">
        <ele>154.91</ele>
        <time>2017-07-30T06:59:06Z</time>
      </trkpt>
      <trkpt lat="43.5807075072" lon="1.4638019912">
        <ele>155.39</ele>
        <time>2017-07-30T06:59:07Z</time>
      </trkpt>
      <trkpt lat="43.5804364365" lon="1.4640480839">
        <ele>155.39</ele>
        <time>2017-07-30T06:59:17Z</time>
      </trkpt>
      <trkpt lat="43.5802260507" lon="1.4642627444">
        <ele>155.39</ele>
        <time>2017-07-30T06:59:25Z</time>
      </trkpt>
      <trkpt lat="43.5799985658" lon="1.4645208232">
        <ele>155.87</ele>
        <time>2017-07-30T06:59:34Z</time>
      </trkpt>
      <trkpt lat="43.5796576738" lon="1.4648742881">
        <ele>155.87</ele>
        <time>2017-07-30T06:59:46Z</time>
      </trkpt>
      <trkpt lat="43.5793961585" lon="1.4650709275">
        <ele>155.87</ele>
        <time>2017-07-30T06:59:54Z</time>
      </trkpt>
      <trkpt lat="43.5790565237" lon="1.4652246516">
        <ele>155.39</ele>
        <time>2017-07-30T07:00:03Z</time>
      </trkpt>
      <trkpt lat="43.5786411166" lon="1.4654423296">
        <ele>155.87</ele>
        <time>2017-07-30T07:00:13Z</time>
      </trkpt>
      <trkpt lat="43.5784662701" lon="1.4655286632">
        <ele>155.39</ele>
        <time>2017-07-30T07:00:17Z</time>
      </trkpt>
      <trkpt lat="43.5784211755" lon="1.4655409846">
        <ele>155.39</ele>
        <time>2017-07-30T07:00:18Z</time>
      </trkpt>
      <trkpt lat="43.5779816285" lon="1.4657125622">
        <ele>155.39</ele>
        <time>2017-07-30T07:00:28Z</time>
      </trkpt>
      <trkpt lat="43.5775415786" lon="1.4657646138">
        <ele>155.39</ele>
        <time>2017-07-30T07:00:39Z</time>
      </trkpt>
      <trkpt lat="43.5772230662" lon="1.4657831378">
        <ele>156.35</ele>
        <time>2017-07-30T07:00:47Z</time>
      </trkpt>
      <trkpt lat="43.5767393466" lon="1.4658626821">
        <ele>155.87</ele>
        <time>2017-07-30T07:00:59Z</time>
      </trkpt>
      <trkpt lat="43.5763837863" lon="1.4659976307">
        <ele>155.87</ele>
        <time>2017-07-30T07:01:08Z</time>
      </trkpt>
      <trkpt lat="43.5759068560" lon="1.4663697034">
        <ele>156.35</ele>
        <time>2017-07-30T07:01:20Z</time>
      </trkpt>
      <trkpt lat="43.5756399762" lon="1.4667118527">
        <ele>156.35</ele>
        <time>2017-07-30T07:01:29Z</time>
      </trkpt>
      <trkpt lat="43.5754212923" lon="1.4670834225">
        <ele>156.35</ele>
        <time>2017-07-30T07:01:39Z</time>
      </trkpt>
      <trkpt lat="43.5752706695" lon="1.4674428385">
        <ele>157.31</ele>
        <time>2017-07-30T07:01:47Z</time>
      </trkpt>
      <trkpt lat="43.5751638003" lon="1.4677430782">
        <ele>157.31</ele>
        <time>2017-07-30T07:01:54Z</time>
      </trkpt>
      <trkpt lat="43.5751208011" lon="1.4678393025">
        <ele>157.79</ele>
        <time>2017-07-30T07:01:56Z</time>
      </trkpt>
      <trkpt lat="43.5750984214" lon="1.4678894263">
        <ele>157.79</ele>
        <time>2017-07-30T07:01:57Z</time>
      </trkpt>
      <trkpt lat="43.5750729404" lon="1.4679301623">
        <ele>157.79</ele>
        <time>2017-07-30T07:01:58Z</time>
      </trkpt>
      <trkpt lat="43.5747675039" lon="1.4684190787">
        <ele>157.31</ele>
        <time>2017-07-30T07:02:09Z</time>
      </trkpt>
      <trkpt lat="43.5745609738" lon="1.4688535966">
        <ele>155.87</ele>
        <time>2017-07-30T07:02:17Z</time>
      </trkpt>
      <trkpt lat="43.5745210759" lon="1.4689103421">
        <ele>154.91</ele>
        <time>2017-07-30T07:02:18Z</time>
      </trkpt>
      <trkpt lat="43.5744741373" lon="1.4689584542">
        <ele>154.91</ele>
        <time>2017-07-30T07:02:19Z</time>
      </trkpt>
      <trkpt lat="43.5744242650" lon="1.4690006990">
        <ele>154.91</ele>
        <time>2017-07-30T07:02:20Z</time>
      </trkpt>
      <trkpt lat="43.5743775778" lon="1.4690411836">
        <ele>154.91</ele>
        <time>2017-07-30T07:02:21Z</time>
      </trkpt>
      <trkpt lat="43.5740158986" lon="1.4692993462">
        <ele>154.91</ele>
        <time>2017-07-30T07:02:31Z</time>
      </trkpt>
      <trkpt lat="43.5739052575" lon="1.4692987595">
        <ele>156.35</ele>
        <time>2017-07-30T07:02:35Z</time>
      </trkpt>
      <trkpt lat="43.5738785192" lon="1.4693157747">
        <ele>156.83</ele>
        <time>2017-07-30T07:02:36Z</time>
      </trkpt>
      <trkpt lat="43.5738478415" lon="1.4693264198">
        <ele>156.83</ele>
        <time>2017-07-30T07:02:37Z</time>
      </trkpt>
      <trkpt lat="43.5738209356" lon="1.4693364780">
        <ele>156.83</ele>
        <time>2017-07-30T07:02:38Z</time>
      </trkpt>
      <trkpt lat="43.5737979691" lon="1.4693440218">
        <ele>156.83</ele>
        <time>2017-07-30T07:02:39Z</time>
      </trkpt>
      <trkpt lat="43.5737771820" lon="1.4693477936">
        <ele>157.31</ele>
        <time>2017-07-30T07:02:40Z</time>
      </trkpt>
      <trkpt lat="43.5737540480" lon="1.4693549182">
        <ele>156.83</ele>
        <time>2017-07-30T07:02:41Z</time>
      </trkpt>
      <trkpt lat="43.5737279803" lon="1.4693661500">
        <ele>157.31</ele>
        <time>2017-07-30T07:02:42Z</time>
      </trkpt>
      <trkpt lat="43.5737023316" lon="1.4693785552">
        <ele>157.31</ele>
        <time>2017-07-30T07:02:43Z</time>
      </trkpt>
      <trkpt lat="43.5735963844" lon="1.4694363903">
        <ele>157.31</ele>
        <time>2017-07-30T07:02:47Z</time>
      </trkpt>
      <trkpt lat="43.5735708196" lon="1.4694424253">
        <ele>157.31</ele>
        <time>2017-07-30T07:02:48Z</time>
      </trkpt>
      <trkpt lat="43.5732357111" lon="1.4695845824">
        <ele>157.79</ele>
        <time>2017-07-30T07:02:59Z</time>
      </trkpt>
      <trkpt lat="43.5728737805" lon="1.4697244763">
        <ele>157.79</ele>
        <time>2017-07-30T07:03:09Z</time>
      </trkpt>
      <trkpt lat="43.5725245904" lon="1.4697859157">
        <ele>157.31</ele>
        <time>2017-07-30T07:03:18Z</time>
      </trkpt>
      <trkpt lat="43.5721606482" lon="1.4697979018">
        <ele>156.83</ele>
        <time>2017-07-30T07:03:27Z</time>
      </trkpt>
      <trkpt lat="43.5721154697" lon="1.4697953034">
        <ele>156.83</ele>
        <time>2017-07-30T07:03:28Z</time>
      </trkpt>
      <trkpt lat="43.5720736440" lon="1.4697933756">
        <ele>156.83</ele>
        <time>2017-07-30T07:03:29Z</time>
      </trkpt>
      <trkpt lat="43.5717210174" lon="1.4697552379">
        <ele>157.31</ele>
        <time>2017-07-30T07:03:38Z</time>
      </trkpt>
      <trkpt lat="43.5716367792" lon="1.4697512146">
        <ele>157.31</ele>
        <time>2017-07-30T07:03:40Z</time>
      </trkpt>
      <trkpt lat="43.5715836380" lon="1.4697697386">
        <ele>157.31</ele>
        <time>2017-07-30T07:03:41Z</time>
      </trkpt>
      <trkpt lat="43.5715332627" lon="1.4697787911">
        <ele>157.31</ele>
        <time>2017-07-30T07:03:42Z</time>
      </trkpt>
      <trkpt lat="43.5714842286" lon="1.4697848260">
        <ele>156.83</ele>
        <time>2017-07-30T07:03:43Z</time>
      </trkpt>
      <trkpt lat="43.5714377090" lon="1.4697854966">
        <ele>156.83</ele>
        <time>2017-07-30T07:03:44Z</time>
      </trkpt>
      <trkpt lat="43.5713927820" lon="1.4697898552">
        <ele>156.83</ele>
        <time>2017-07-30T07:03:45Z</time>
      </trkpt>
      <trkpt lat="43.5709483735" lon="1.4698445890">
        <ele>156.83</ele>
        <time>2017-07-30T07:03:55Z</time>
      </trkpt>
      <trkpt lat="43.5707894526" lon="1.4698516298">
        <ele>157.31</ele>
        <time>2017-07-30T07:03:59Z</time>
      </trkpt>
      <trkpt lat="43.5707553383" lon="1.4698550664">
        <ele>157.31</ele>
        <time>2017-07-30T07:04:00Z</time>
      </trkpt>
      <trkpt lat="43.5707238223" lon="1.4698534738">
        <ele>157.31</ele>
        <time>2017-07-30T07:04:01Z</time>
      </trkpt>
      <trkpt lat="43.5706911329" lon="1.4698502049">
        <ele>157.31</ele>
        <time>2017-07-30T07:04:02Z</time>
      </trkpt>
      <trkpt lat="43.5706565995" lon="1.4698504563">
        <ele>157.31</ele>
        <time>2017-07-30T07:04:03Z</time>
      </trkpt>
      <trkpt lat="43.5703740455" lon="1.4699118957">
        <ele>157.31</ele>
        <time>2017-07-30T07:04:10Z</time>
      </trkpt>
      <trkpt lat="43.5702209920" lon="1.4699713234">
        <ele>158.75</ele>
        <time>2017-07-30T07:04:14Z</time>
      </trkpt>
      <trkpt lat="43.5700536892" lon="1.4700687211">
        <ele>158.75</ele>
        <time>2017-07-30T07:04:19Z</time>
      </trkpt>
      <trkpt lat="43.5700070858" lon="1.4700955432">
        <ele>158.27</ele>
        <time>2017-07-30T07:04:20Z</time>
      </trkpt>
      <trkpt lat="43.5699070059" lon="1.4701545518">
        <ele>157.79</ele>
        <time>2017-07-30T07:04:22Z</time>
      </trkpt>
      <trkpt lat="43.5698159784" lon="1.4702207688">
        <ele>157.79</ele>
        <time>2017-07-30T07:04:24Z</time>
      </trkpt>
      <trkpt lat="43.5697707161" lon="1.4702560566">
        <ele>157.79</ele>
        <time>2017-07-30T07:04:25Z</time>
      </trkpt>
      <trkpt lat="43.5695474222" lon="1.4703857247">
        <ele>157.31</ele>
        <time>2017-07-30T07:04:30Z</time>
      </trkpt>
      <trkpt lat="43.5693882499" lon="1.4705138840">
        <ele>157.79</ele>
        <time>2017-07-30T07:04:34Z</time>
      </trkpt>
      <trkpt lat="43.5693494417" lon="1.4705342520">
        <ele>157.79</ele>
        <time>2017-07-30T07:04:35Z</time>
      </trkpt>
      <trkpt lat="43.5693153273" lon="1.4705563802">
        <ele>157.79</ele>
        <time>2017-07-30T07:04:36Z</time>
      </trkpt>
      <trkpt lat="43.5690715816" lon="1.4707096852">
        <ele>158.27</ele>
        <time>2017-07-30T07:04:43Z</time>
      </trkpt>
      <trkpt lat="43.5688761156" lon="1.4708439633">
        <ele>158.27</ele>
        <time>2017-07-30T07:04:49Z</time>
      </trkpt>
      <trkpt lat="43.5688269138" lon="1.4708744735">
        <ele>157.79</ele>
        <time>2017-07-30T07:04:50Z</time>
      </trkpt>
      <trkpt lat="43.5687783826" lon="1.4708987810">
        <ele>157.79</ele>
        <time>2017-07-30T07:04:51Z</time>
      </trkpt>
      <trkpt lat="43.5687316116" lon="1.4709177241">
        <ele>157.79</ele>
        <time>2017-07-30T07:04:52Z</time>
      </trkpt>
      <trkpt lat="43.5686902050" lon="1.4709346555">
        <ele>157.31</ele>
        <time>2017-07-30T07:04:53Z</time>
      </trkpt>
      <trkpt lat="43.5683576949" lon="1.4710877091">
        <ele>158.27</ele>
        <time>2017-07-30T07:05:02Z</time>
      </trkpt>
      <trkpt lat="43.5679844487" lon="1.4712287765">
        <ele>158.27</ele>
        <time>2017-07-30T07:05:12Z</time>
      </trkpt>
      <trkpt lat="43.5676050838" lon="1.4712832589">
        <ele>158.27</ele>
        <time>2017-07-30T07:05:22Z</time>
      </trkpt>
      <trkpt lat="43.5672139004" lon="1.4713270962">
        <ele>158.27</ele>
        <time>2017-07-30T07:05:31Z</time>
      </trkpt>
      <trkpt lat="43.5668440070" lon="1.4713174570">
        <ele>158.75</ele>
        <time>2017-07-30T07:05:40Z</time>
      </trkpt>
      <trkpt lat="43.5665182024" lon="1.4713568520">
        <ele>158.27</ele>
        <time>2017-07-30T07:05:48Z</time>
      </trkpt>
      <trkpt lat="43.5661871172" lon="1.4713697601">
        <ele>157.79</ele>
        <time>2017-07-30T07:05:56Z</time>
      </trkpt>
      <trkpt lat="43.5659794137" lon="1.4713620488">
        <ele>157.79</ele>
        <time>2017-07-30T07:06:01Z</time>
      </trkpt>
      <trkpt lat="43.5659327265" lon="1.4713659044">
        <ele>157.79</ele>
        <time>2017-07-30T07:06:02Z</time>
      </trkpt>
      <trkpt lat="43.5658873804" lon="1.4713674970">
        <ele>157.31</ele>
        <time>2017-07-30T07:06:03Z</time>
      </trkpt>
      <trkpt lat="43.5658432078" lon="1.4713623002">
        <ele>157.31</ele>
        <time>2017-07-30T07:06:04Z</time>
      </trkpt>
      <trkpt lat="43.5657975264" lon="1.4713560976">
        <ele>157.31</ele>
        <time>2017-07-30T07:06:05Z</time>
      </trkpt>
      <trkpt lat="43.5655532777" lon="1.4712612983">
        <ele>159.24</ele>
        <time>2017-07-30T07:06:12Z</time>
      </trkpt>
      <trkpt lat="43.5654832888" lon="1.4712196402">
        <ele>159.72</ele>
        <time>2017-07-30T07:06:16Z</time>
      </trkpt>
      <trkpt lat="43.5654540360" lon="1.4712115936">
        <ele>159.72</ele>
        <time>2017-07-30T07:06:18Z</time>
      </trkpt>
      <trkpt lat="43.5654338356" lon="1.4712127671">
        <ele>159.72</ele>
        <time>2017-07-30T07:06:19Z</time>
      </trkpt>
      <trkpt lat="43.5653532855" lon="1.4712238312">
        <ele>159.72</ele>
        <time>2017-07-30T07:06:25Z</time>
      </trkpt>
      <trkpt lat="43.5653278884" lon="1.4712274354">
        <ele>160.20</ele>
        <time>2017-07-30T07:06:26Z</time>
      </trkpt>
      <trkpt lat="43.5652869008" lon="1.4712378290">
        <ele>159.24</ele>
        <time>2017-07-30T07:06:27Z</time>
      </trkpt>
      <trkpt lat="43.5652390402" lon="1.4712521620">
        <ele>158.27</ele>
        <time>2017-07-30T07:06:28Z</time>
      </trkpt>
      <trkpt lat="43.5651894193" lon="1.4712650701">
        <ele>157.79</ele>
        <time>2017-07-30T07:06:29Z</time>
      </trkpt>
      <trkpt lat="43.5651362780" lon="1.4712687582">
        <ele>157.31</ele>
        <time>2017-07-30T07:06:30Z</time>
      </trkpt>
      <trkpt lat="43.5650786106" lon="1.4712665789">
        <ele>157.31</ele>
        <time>2017-07-30T07:06:31Z</time>
      </trkpt>
      <trkpt lat="43.5650221165" lon="1.4712733682">
        <ele>156.83</ele>
        <time>2017-07-30T07:06:32Z</time>
      </trkpt>
      <trkpt lat="43.5649668798" lon="1.4712801576">
        <ele>156.83</ele>
        <time>2017-07-30T07:06:33Z</time>
      </trkpt>
      <trkpt lat="43.5649149120" lon="1.4712706022">
        <ele>156.35</ele>
        <time>2017-07-30T07:06:34Z</time>
      </trkpt>
      <trkpt lat="43.5646891873" lon="1.4712166227">
        <ele>157.79</ele>
        <time>2017-07-30T07:06:40Z</time>
      </trkpt>
      <trkpt lat="43.5643363930" lon="1.4712100010">
        <ele>156.83</ele>
        <time>2017-07-30T07:06:49Z</time>
      </trkpt>
      <trkpt lat="43.5639561899" lon="1.4712846838">
        <ele>157.31</ele>
        <time>2017-07-30T07:06:58Z</time>
      </trkpt>
      <trkpt lat="43.5636737198" lon="1.4713954087">
        <ele>157.79</ele>
        <time>2017-07-30T07:07:06Z</time>
      </trkpt>
      <trkpt lat="43.5634448100" lon="1.4715156052">
        <ele>158.27</ele>
        <time>2017-07-30T07:07:13Z</time>
      </trkpt>
      <trkpt lat="43.5632153135" lon="1.4716500510">
        <ele>157.79</ele>
        <time>2017-07-30T07:07:20Z</time>
      </trkpt>
      <trkpt lat="43.5631874856" lon="1.4716612827">
        <ele>157.79</ele>
        <time>2017-07-30T07:07:21Z</time>
      </trkpt>
      <trkpt lat="43.5631585680" lon="1.4716744423">
        <ele>157.79</ele>
        <time>2017-07-30T07:07:22Z</time>
      </trkpt>
      <trkpt lat="43.5631318297" lon="1.4716953132">
        <ele>157.79</ele>
        <time>2017-07-30T07:07:23Z</time>
      </trkpt>
      <trkpt lat="43.5628686380" lon="1.4719749335">
        <ele>157.31</ele>
        <time>2017-07-30T07:07:32Z</time>
      </trkpt>
      <trkpt lat="43.5626072902" lon="1.4723473415">
        <ele>156.83</ele>
        <time>2017-07-30T07:07:42Z</time>
      </trkpt>
      <trkpt lat="43.5623434279" lon="1.4726975374">
        <ele>157.31</ele>
        <time>2017-07-30T07:07:51Z</time>
      </trkpt>
      <trkpt lat="43.5621383227" lon="1.4729553647">
        <ele>157.79</ele>
        <time>2017-07-30T07:07:59Z</time>
      </trkpt>
      <trkpt lat="43.5621216428" lon="1.4729748107">
        <ele>157.79</ele>
        <time>2017-07-30T07:08:00Z</time>
      </trkpt>
      <trkpt lat="43.5620935634" lon="1.4730328135">
        <ele>157.31</ele>
        <time>2017-07-30T07:08:02Z</time>
      </trkpt>
      <trkpt lat="43.5620718542" lon="1.4730571210">
        <ele>157.31</ele>
        <time>2017-07-30T07:08:03Z</time>
      </trkpt>
      <trkpt lat="43.5620521568" lon="1.4730772376">
        <ele>157.31</ele>
        <time>2017-07-30T07:08:04Z</time>
      </trkpt>
      <trkpt lat="43.5620362312" lon="1.4730964322">
        <ele>157.31</ele>
        <time>2017-07-30T07:08:05Z</time>
      </trkpt>
      <trkpt lat="43.5620153602" lon="1.4731170516">
        <ele>157.79</ele>
        <time>2017-07-30T07:08:06Z</time>
      </trkpt>
      <trkpt lat="43.5619938187" lon="1.4731362462">
        <ele>157.79</ele>
        <time>2017-07-30T07:08:07Z</time>
      </trkpt>
      <trkpt lat="43.5619814135" lon="1.4731501602">
        <ele>157.79</ele>
        <time>2017-07-30T07:08:08Z</time>
      </trkpt>
      <trkpt lat="43.5619769711" lon="1.4731592964">
        <ele>157.79</ele>
        <time>2017-07-30T07:08:09Z</time>
      </trkpt>
      <trkpt lat="43.5617471393" lon="1.4734851010">
        <ele>157.79</ele>
        <time>2017-07-30T07:08:15Z</time>
      </trkpt>
      <trkpt lat="43.5614688601" lon="1.4738185331">
        <ele>157.31</ele>
        <time>2017-07-30T07:08:24Z</time>
      </trkpt>
      <trkpt lat="43.5612099431" lon="1.4741360396">
        <ele>156.83</ele>
        <time>2017-07-30T07:08:32Z</time>
      </trkpt>
      <trkpt lat="43.5609323345" lon="1.4744833019">
        <ele>156.35</ele>
        <time>2017-07-30T07:08:41Z</time>
      </trkpt>
      <trkpt lat="43.5606691428" lon="1.4747812785">
        <ele>155.87</ele>
        <time>2017-07-30T07:08:49Z</time>
      </trkpt>
      <trkpt lat="43.5605538078" lon="1.4749432169">
        <ele>156.35</ele>
        <time>2017-07-30T07:08:53Z</time>
      </trkpt>
      <trkpt lat="43.5605184361" lon="1.4749877248">
        <ele>156.35</ele>
        <time>2017-07-30T07:08:54Z</time>
      </trkpt>
      <trkpt lat="43.5604907759" lon="1.4750145469">
        <ele>156.35</ele>
        <time>2017-07-30T07:08:55Z</time>
      </trkpt>
      <trkpt lat="43.5602611117" lon="1.4752681833">
        <ele>156.35</ele>
        <time>2017-07-30T07:09:03Z</time>
      </trkpt>
      <trkpt lat="43.5600180365" lon="1.4755210653">
        <ele>156.83</ele>
        <time>2017-07-30T07:09:11Z</time>
      </trkpt>
      <trkpt lat="43.5598084889" lon="1.4757676609">
        <ele>156.83</ele>
        <time>2017-07-30T07:09:17Z</time>
      </trkpt>
      <trkpt lat="43.5596907232" lon="1.4759119134">
        <ele>156.83</ele>
        <time>2017-07-30T07:09:20Z</time>
      </trkpt>
      <trkpt lat="43.5596571956" lon="1.4759627916">
        <ele>156.35</ele>
        <time>2017-07-30T07:09:21Z</time>
      </trkpt>
      <trkpt lat="43.5596264340" lon="1.4759979956">
        <ele>156.35</ele>
        <time>2017-07-30T07:09:22Z</time>
      </trkpt>
      <trkpt lat="43.5594704468" lon="1.4761856664">
        <ele>156.35</ele>
        <time>2017-07-30T07:09:27Z</time>
      </trkpt>
      <trkpt lat="43.5594344884" lon="1.4762388077">
        <ele>156.35</ele>
        <time>2017-07-30T07:09:28Z</time>
      </trkpt>
      <trkpt lat="43.5591492523" lon="1.4766492695">
        <ele>155.87</ele>
        <time>2017-07-30T07:09:37Z</time>
      </trkpt>
      <trkpt lat="43.5589366034" lon="1.4769263752">
        <ele>155.87</ele>
        <time>2017-07-30T07:09:44Z</time>
      </trkpt>
      <trkpt lat="43.5588102043" lon="1.4770695381">
        <ele>155.87</ele>
        <time>2017-07-30T07:09:49Z</time>
      </trkpt>
      <trkpt lat="43.5587931890" lon="1.4771021437">
        <ele>155.87</ele>
        <time>2017-07-30T07:09:50Z</time>
      </trkpt>
      <trkpt lat="43.5587627627" lon="1.4771341626">
        <ele>155.87</ele>
        <time>2017-07-30T07:09:51Z</time>
      </trkpt>
      <trkpt lat="43.5587308276" lon="1.4771675225">
        <ele>155.87</ele>
        <time>2017-07-30T07:09:52Z</time>
      </trkpt>
      <trkpt lat="43.5587047599" lon="1.4772028942">
        <ele>155.87</ele>
        <time>2017-07-30T07:09:53Z</time>
      </trkpt>
      <trkpt lat="43.5586781893" lon="1.4772422053">
        <ele>155.87</ele>
        <time>2017-07-30T07:09:54Z</time>
      </trkpt>
      <trkpt lat="43.5586476792" lon="1.4772778284">
        <ele>155.87</ele>
        <time>2017-07-30T07:09:55Z</time>
      </trkpt>
      <trkpt lat="43.5586170852" lon="1.4773076680">
        <ele>155.87</ele>
        <time>2017-07-30T07:09:56Z</time>
      </trkpt>
      <trkpt lat="43.5584304202" lon="1.4775286149">
        <ele>155.87</ele>
        <time>2017-07-30T07:10:04Z</time>
      </trkpt>
      <trkpt lat="43.5582269076" lon="1.4778223168">
        <ele>156.35</ele>
        <time>2017-07-30T07:10:12Z</time>
      </trkpt>
      <trkpt lat="43.5579904541" lon="1.4781974070">
        <ele>155.87</ele>
        <time>2017-07-30T07:10:20Z</time>
      </trkpt>
      <trkpt lat="43.5578014422" lon="1.4785520453">
        <ele>156.83</ele>
        <time>2017-07-30T07:10:27Z</time>
      </trkpt>
      <trkpt lat="43.5575685091" lon="1.4788473397">
        <ele>156.35</ele>
        <time>2017-07-30T07:10:35Z</time>
      </trkpt>
      <trkpt lat="43.5573597997" lon="1.4790765848">
        <ele>157.79</ele>
        <time>2017-07-30T07:10:43Z</time>
      </trkpt>
      <trkpt lat="43.5571660101" lon="1.4792790916">
        <ele>157.79</ele>
        <time>2017-07-30T07:10:51Z</time>
      </trkpt>
      <trkpt lat="43.5568905808" lon="1.4795340691">
        <ele>157.31</ele>
        <time>2017-07-30T07:10:59Z</time>
      </trkpt>
      <trkpt lat="43.5565982200" lon="1.4797622245">
        <ele>157.31</ele>
        <time>2017-07-30T07:11:07Z</time>
      </trkpt>
      <trkpt lat="43.5564383771" lon="1.4799037948">
        <ele>157.31</ele>
        <time>2017-07-30T07:11:11Z</time>
      </trkpt>
      <trkpt lat="43.5564022511" lon="1.4799381606">
        <ele>157.31</ele>
        <time>2017-07-30T07:11:12Z</time>
      </trkpt>
      <trkpt lat="43.5560490377" lon="1.4802024420">
        <ele>157.31</ele>
        <time>2017-07-30T07:11:22Z</time>
      </trkpt>
      <trkpt lat="43.5557679925" lon="1.4803782944">
        <ele>157.31</ele>
        <time>2017-07-30T07:11:30Z</time>
      </trkpt>
      <trkpt lat="43.5554306209" lon="1.4804760274">
        <ele>157.31</ele>
        <time>2017-07-30T07:11:39Z</time>
      </trkpt>
      <trkpt lat="43.5551882163" lon="1.4805562422">
        <ele>157.79</ele>
        <time>2017-07-30T07:11:47Z</time>
      </trkpt>
      <trkpt lat="43.5550630745" lon="1.4806177653">
        <ele>157.31</ele>
        <time>2017-07-30T07:11:53Z</time>
      </trkpt>
      <trkpt lat="43.5548404511" lon="1.4806433301">
        <ele>158.27</ele>
        <time>2017-07-30T07:12:00Z</time>
      </trkpt>
      <trkpt lat="43.5545534547" lon="1.4808076993">
        <ele>156.83</ele>
        <time>2017-07-30T07:12:09Z</time>
      </trkpt>
      <trkpt lat="43.5543529596" lon="1.4808107167">
        <ele>156.83</ele>
        <time>2017-07-30T07:12:15Z</time>
      </trkpt>
      <trkpt lat="43.5540948808" lon="1.4808558952">
        <ele>156.35</ele>
        <time>2017-07-30T07:12:23Z</time>
      </trkpt>
      <trkpt lat="43.5540626105" lon="1.4808614273">
        <ele>156.35</ele>
        <time>2017-07-30T07:12:24Z</time>
      </trkpt>
      <trkpt lat="43.5538126621" lon="1.4808442444">
        <ele>156.83</ele>
        <time>2017-07-30T07:12:32Z</time>
      </trkpt>
      <trkpt lat="43.5535656475" lon="1.4808662049">
        <ele>156.83</ele>
        <time>2017-07-30T07:12:40Z</time>
      </trkpt>
      <trkpt lat="43.5534711834" lon="1.4808730781">
        <ele>156.83</ele>
        <time>2017-07-30T07:12:43Z</time>
      </trkpt>
      <trkpt lat="43.5531292856" lon="1.4809620101">
        <ele>156.83</ele>
        <time>2017-07-30T07:12:52Z</time>
      </trkpt>
      <trkpt lat="43.5527112801" lon="1.4810869843">
        <ele>156.35</ele>
        <time>2017-07-30T07:13:03Z</time>
      </trkpt>
      <trkpt lat="43.5524294805" lon="1.4811806940">
        <ele>156.35</ele>
        <time>2017-07-30T07:13:12Z</time>
      </trkpt>
      <trkpt lat="43.5522218607" lon="1.4812313206">
        <ele>156.83</ele>
        <time>2017-07-30T07:13:19Z</time>
      </trkpt>
      <trkpt lat="43.5521983076" lon="1.4812395349">
        <ele>156.83</ele>
        <time>2017-07-30T07:13:20Z</time>
      </trkpt>
      <trkpt lat="43.5521761794" lon="1.4812488388">
        <ele>156.83</ele>
        <time>2017-07-30T07:13:21Z</time>
      </trkpt>
      <trkpt lat="43.5521237925" lon="1.4812626690">
        <ele>157.31</ele>
        <time>2017-07-30T07:13:23Z</time>
      </trkpt>
      <trkpt lat="43.5520945396" lon="1.4812753256">
        <ele>156.83</ele>
        <time>2017-07-30T07:13:24Z</time>
      </trkpt>
      <trkpt lat="43.5517541505" lon="1.4814102743">
        <ele>156.83</ele>
        <time>2017-07-30T07:13:34Z</time>
      </trkpt>
      <trkpt lat="43.5514429305" lon="1.4815293811">
        <ele>157.31</ele>
        <time>2017-07-30T07:13:43Z</time>
      </trkpt>
      <trkpt lat="43.5512014478" lon="1.4815997053">
        <ele>157.31</ele>
        <time>2017-07-30T07:13:51Z</time>
      </trkpt>
      <trkpt lat="43.5510012880" lon="1.4816553611">
        <ele>157.79</ele>
        <time>2017-07-30T07:14:00Z</time>
      </trkpt>
      <trkpt lat="43.5507430416" lon="1.4818465523">
        <ele>157.79</ele>
        <time>2017-07-30T07:14:09Z</time>
      </trkpt>
      <trkpt lat="43.5505047441" lon="1.4820351452">
        <ele>157.31</ele>
        <time>2017-07-30T07:14:18Z</time>
      </trkpt>
      <trkpt lat="43.5502865631" lon="1.4822301921">
        <ele>156.83</ele>
        <time>2017-07-30T07:14:28Z</time>
      </trkpt>
      <trkpt lat="43.5500858165" lon="1.4824048709">
        <ele>157.31</ele>
        <time>2017-07-30T07:14:36Z</time>
      </trkpt>
      <trkpt lat="43.5497960541" lon="1.4826857485">
        <ele>157.31</ele>
        <time>2017-07-30T07:14:47Z</time>
      </trkpt>
      <trkpt lat="43.5495220497" lon="1.4829595853">
        <ele>157.31</ele>
        <time>2017-07-30T07:14:56Z</time>
      </trkpt>
      <trkpt lat="43.5492853448" lon="1.4831738267">
        <ele>156.83</ele>
        <time>2017-07-30T07:15:05Z</time>
      </trkpt>
      <trkpt lat="43.5492279287" lon="1.4832398761">
        <ele>156.83</ele>
        <time>2017-07-30T07:15:07Z</time>
      </trkpt>
      <trkpt lat="43.5492130928" lon="1.4832630102">
        <ele>156.83</ele>
        <time>2017-07-30T07:15:08Z</time>
      </trkpt>
      <trkpt lat="43.5491671599" lon="1.4833400398">
        <ele>157.31</ele>
        <time>2017-07-30T07:15:12Z</time>
      </trkpt>
      <trkpt lat="43.5491690040" lon="1.4833655208">
        <ele>157.79</ele>
        <time>2017-07-30T07:15:13Z</time>
      </trkpt>
      <trkpt lat="43.5492159426" lon="1.4835142158">
        <ele>158.75</ele>
        <time>2017-07-30T07:15:20Z</time>
      </trkpt>
      <trkpt lat="43.5492267553" lon="1.4835350867">
        <ele>158.75</ele>
        <time>2017-07-30T07:15:21Z</time>
      </trkpt>
      <trkpt lat="43.5492381547" lon="1.4835541975">
        <ele>158.27</ele>
        <time>2017-07-30T07:15:22Z</time>
      </trkpt>
      <trkpt lat="43.5492498893" lon="1.4835714642">
        <ele>158.75</ele>
        <time>2017-07-30T07:15:23Z</time>
      </trkpt>
      <trkpt lat="43.5492592771" lon="1.4835878089">
        <ele>158.27</ele>
        <time>2017-07-30T07:15:24Z</time>
      </trkpt>
      <trkpt lat="43.5492634680" lon="1.4836123679">
        <ele>158.27</ele>
        <time>2017-07-30T07:15:25Z</time>
      </trkpt>
      <trkpt lat="43.5492675751" lon="1.4836345799">
        <ele>158.27</ele>
        <time>2017-07-30T07:15:26Z</time>
      </trkpt>
      <trkpt lat="43.5492754541" lon="1.4836575463">
        <ele>158.27</ele>
        <time>2017-07-30T07:15:27Z</time>
      </trkpt>
      <trkpt lat="43.5492835846" lon="1.4836808480">
        <ele>158.27</ele>
        <time>2017-07-30T07:15:28Z</time>
      </trkpt>
      <trkpt lat="43.5492948163" lon="1.4836962707">
        <ele>157.79</ele>
        <time>2017-07-30T07:15:29Z</time>
      </trkpt>
      <trkpt lat="43.5493061319" lon="1.4837116096">
        <ele>157.79</ele>
        <time>2017-07-30T07:15:30Z</time>
      </trkpt>
      <trkpt lat="43.5493115801" lon="1.4837331511">
        <ele>157.79</ele>
        <time>2017-07-30T07:15:31Z</time>
      </trkpt>
      <trkpt lat="43.5493104067" lon="1.4837584645">
        <ele>157.79</ele>
        <time>2017-07-30T07:15:32Z</time>
      </trkpt>
      <trkpt lat="43.5492709279" lon="1.4838020504">
        <ele>157.31</ele>
        <time>2017-07-30T07:15:38Z</time>
      </trkpt>
      <trkpt lat="43.5492570139" lon="1.4838157129">
        <ele>157.31</ele>
        <time>2017-07-30T07:15:39Z</time>
      </trkpt>
      <trkpt lat="43.5492317006" lon="1.4838362485">
        <ele>157.31</ele>
        <time>2017-07-30T07:15:48Z</time>
      </trkpt>
      <trkpt lat="43.5492416751" lon="1.4838475641">
        <ele>157.31</ele>
        <time>2017-07-30T07:16:07Z</time>
      </trkpt>
      <trkpt lat="43.5491862707" lon="1.4839126077">
        <ele>157.31</ele>
        <time>2017-07-30T07:16:18Z</time>
      </trkpt>
      <trkpt lat="43.5489980131" lon="1.4840630628">
        <ele>157.31</ele>
        <time>2017-07-30T07:16:28Z</time>
      </trkpt>
      <trkpt lat="43.5487906449" lon="1.4841960836">
        <ele>157.31</ele>
        <time>2017-07-30T07:16:37Z</time>
      </trkpt>
      <trkpt lat="43.5486121103" lon="1.4843517356">
        <ele>157.79</ele>
        <time>2017-07-30T07:16:47Z</time>
      </trkpt>
      <trkpt lat="43.5485950112" lon="1.4843648952">
        <ele>157.79</ele>
        <time>2017-07-30T07:16:48Z</time>
      </trkpt>
      <trkpt lat="43.5485753976" lon="1.4843789767">
        <ele>157.79</ele>
        <time>2017-07-30T07:16:49Z</time>
      </trkpt>
      <trkpt lat="43.5483200848" lon="1.4845841657">
        <ele>157.79</ele>
        <time>2017-07-30T07:17:01Z</time>
      </trkpt>
      <trkpt lat="43.5482007265" lon="1.4847429190">
        <ele>156.83</ele>
        <time>2017-07-30T07:17:07Z</time>
      </trkpt>
      <trkpt lat="43.5482044984" lon="1.4847843256">
        <ele>156.83</ele>
        <time>2017-07-30T07:17:08Z</time>
      </trkpt>
      <trkpt lat="43.5482184123" lon="1.4848150872">
        <ele>156.35</ele>
        <time>2017-07-30T07:17:09Z</time>
      </trkpt>
      <trkpt lat="43.5482399538" lon="1.4848332759">
        <ele>156.35</ele>
        <time>2017-07-30T07:17:10Z</time>
      </trkpt>
      <trkpt lat="43.5482580587" lon="1.4848376345">
        <ele>155.87</ele>
        <time>2017-07-30T07:17:11Z</time>
      </trkpt>
      <trkpt lat="43.5482764151" lon="1.4848326892">
        <ele>155.87</ele>
        <time>2017-07-30T07:17:12Z</time>
      </trkpt>
      <trkpt lat="43.5482978728" lon="1.4848191105">
        <ele>155.39</ele>
        <time>2017-07-30T07:17:13Z</time>
      </trkpt>
      <trkpt lat="43.5483107809" lon="1.4847965632">
        <ele>155.39</ele>
        <time>2017-07-30T07:17:14Z</time>
      </trkpt>
      <trkpt lat="43.5483174864" lon="1.4847709984">
        <ele>155.39</ele>
        <time>2017-07-30T07:17:15Z</time>
      </trkpt>
      <trkpt lat="43.5483178217" lon="1.4847388119">
        <ele>154.91</ele>
        <time>2017-07-30T07:17:17Z</time>
      </trkpt>
      <trkpt lat="43.5482563823" lon="1.4846420847">
        <ele>153.95</ele>
        <time>2017-07-30T07:17:22Z</time>
      </trkpt>
      <trkpt lat="43.5480556358" lon="1.4846544061">
        <ele>153.95</ele>
        <time>2017-07-30T07:17:29Z</time>
      </trkpt>
      <trkpt lat="43.5478393827" lon="1.4848466031">
        <ele>153.95</ele>
        <time>2017-07-30T07:17:38Z</time>
      </trkpt>
      <trkpt lat="43.5476543102" lon="1.4849997405">
        <ele>154.43</ele>
        <time>2017-07-30T07:17:46Z</time>
      </trkpt>
      <trkpt lat="43.5474075470" lon="1.4851824660">
        <ele>154.91</ele>
        <time>2017-07-30T07:17:55Z</time>
      </trkpt>
      <trkpt lat="43.5471141804" lon="1.4854122978">
        <ele>153.95</ele>
        <time>2017-07-30T07:18:06Z</time>
      </trkpt>
      <trkpt lat="43.5467460472" lon="1.4857070893">
        <ele>153.95</ele>
        <time>2017-07-30T07:18:20Z</time>
      </trkpt>
      <trkpt lat="43.5464760661" lon="1.4859227557">
        <ele>153.95</ele>
        <time>2017-07-30T07:18:33Z</time>
      </trkpt>
      <trkpt lat="43.5462894011" lon="1.4861313812">
        <ele>153.95</ele>
        <time>2017-07-30T07:18:42Z</time>
      </trkpt>
      <trkpt lat="43.5461200029" lon="1.4863819163">
        <ele>154.43</ele>
        <time>2017-07-30T07:18:51Z</time>
      </trkpt>
      <trkpt lat="43.5459633451" lon="1.4866729360">
        <ele>154.43</ele>
        <time>2017-07-30T07:19:00Z</time>
      </trkpt>
      <trkpt lat="43.5457798652" lon="1.4870797098">
        <ele>154.43</ele>
        <time>2017-07-30T07:19:11Z</time>
      </trkpt>
      <trkpt lat="43.5456331819" lon="1.4874826279">
        <ele>154.43</ele>
        <time>2017-07-30T07:19:22Z</time>
      </trkpt>
      <trkpt lat="43.5455056094" lon="1.4878722187">
        <ele>154.43</ele>
        <time>2017-07-30T07:19:32Z</time>
      </trkpt>
      <trkpt lat="43.5453373846" lon="1.4883092511">
        <ele>154.43</ele>
        <time>2017-07-30T07:19:44Z</time>
      </trkpt>
      <trkpt lat="43.5452066269" lon="1.4886795636">
        <ele>154.43</ele>
        <time>2017-07-30T07:19:55Z</time>
      </trkpt>
      <trkpt lat="43.5450544953" lon="1.4891035203">
        <ele>154.43</ele>
        <time>2017-07-30T07:20:07Z</time>
      </trkpt>
      <trkpt lat="43.5449235700" lon="1.4894046821">
        <ele>154.43</ele>
        <time>2017-07-30T07:20:16Z</time>
      </trkpt>
      <trkpt lat="43.5448251665" lon="1.4897052571">
        <ele>154.91</ele>
        <time>2017-07-30T07:20:24Z</time>
      </trkpt>
      <trkpt lat="43.5448099952" lon="1.4897093643">
        <ele>154.91</ele>
        <time>2017-07-30T07:20:26Z</time>
      </trkpt>
      <trkpt lat="43.5448077321" lon="1.4896879904">
        <ele>154.91</ele>
        <time>2017-07-30T07:20:27Z</time>
      </trkpt>
      <trkpt lat="43.5448130965" lon="1.4896604978">
        <ele>155.39</ele>
        <time>2017-07-30T07:20:28Z</time>
      </trkpt>
      <trkpt lat="43.5448231548" lon="1.4896283112">
        <ele>154.91</ele>
        <time>2017-07-30T07:20:29Z</time>
      </trkpt>
      <trkpt lat="43.5448330455" lon="1.4895984717">
        <ele>154.91</ele>
        <time>2017-07-30T07:20:30Z</time>
      </trkpt>
      <trkpt lat="43.5448377393" lon="1.4895729069">
        <ele>154.91</ele>
        <time>2017-07-30T07:20:31Z</time>
      </trkpt>
      <trkpt lat="43.5448299441" lon="1.4895432349">
        <ele>154.91</ele>
        <time>2017-07-30T07:20:38Z</time>
      </trkpt>
      <trkpt lat="43.5448194668" lon="1.4895470906">
        <ele>154.91</ele>
        <time>2017-07-30T07:20:54Z</time>
      </trkpt>
      <trkpt lat="43.5448112525" lon="1.4895479288">
        <ele>155.39</ele>
        <time>2017-07-30T07:21:15Z</time>
      </trkpt>
      <trkpt lat="43.5448286030" lon="1.4895589929">
        <ele>155.39</ele>
        <time>2017-07-30T07:21:42Z</time>
      </trkpt>
      <trkpt lat="43.5448263399" lon="1.4895564783">
        <ele>155.39</ele>
        <time>2017-07-30T07:21:57Z</time>
      </trkpt>
      <trkpt lat="43.5448138509" lon="1.4895803668">
        <ele>155.87</ele>
        <time>2017-07-30T07:22:12Z</time>
      </trkpt>
      <trkpt lat="43.5448206402" lon="1.4895820431">
        <ele>155.87</ele>
        <time>2017-07-30T07:22:23Z</time>
      </trkpt>
      <trkpt lat="43.5448218975" lon="1.4895817917">
        <ele>155.87</ele>
        <time>2017-07-30T07:22:43Z</time>
      </trkpt>
      <trkpt lat="43.5447970033" lon="1.4896423090">
        <ele>156.35</ele>
        <time>2017-07-30T07:22:46Z</time>
      </trkpt>
      <trkpt lat="43.5447859392" lon="1.4896703884">
        <ele>156.35</ele>
        <time>2017-07-30T07:22:47Z</time>
      </trkpt>
      <trkpt lat="43.5447755456" lon="1.4896994736">
        <ele>156.35</ele>
        <time>2017-07-30T07:22:48Z</time>
      </trkpt>
      <trkpt lat="43.5446317121" lon="1.4899655152">
        <ele>157.79</ele>
        <time>2017-07-30T07:22:56Z</time>
      </trkpt>
      <trkpt lat="43.5445696861" lon="1.4900234342">
        <ele>157.79</ele>
        <time>2017-07-30T07:23:03Z</time>
      </trkpt>
      <trkpt lat="43.5445627291" lon="1.4900338277">
        <ele>157.79</ele>
        <time>2017-07-30T07:23:13Z</time>
      </trkpt>
      <trkpt lat="43.5445480607" lon="1.4900505915">
        <ele>157.31</ele>
        <time>2017-07-30T07:23:14Z</time>
      </trkpt>
      <trkpt lat="43.5445312131" lon="1.4900630806">
        <ele>157.31</ele>
        <time>2017-07-30T07:23:15Z</time>
      </trkpt>
      <trkpt lat="43.5445139464" lon="1.4900720492">
        <ele>157.31</ele>
        <time>2017-07-30T07:23:16Z</time>
      </trkpt>
      <trkpt lat="43.5444913153" lon="1.4900868014">
        <ele>156.83</ele>
        <time>2017-07-30T07:23:17Z</time>
      </trkpt>
      <trkpt lat="43.5444565304" lon="1.4901228435">
        <ele>156.83</ele>
        <time>2017-07-30T07:23:19Z</time>
      </trkpt>
      <trkpt lat="43.5444433708" lon="1.4901406970">
        <ele>156.35</ele>
        <time>2017-07-30T07:23:20Z</time>
      </trkpt>
      <trkpt lat="43.5444253497" lon="1.4901488274">
        <ele>156.83</ele>
        <time>2017-07-30T07:23:27Z</time>
      </trkpt>
      <trkpt lat="43.5444462206" lon="1.4902118593">
        <ele>156.83</ele>
        <time>2017-07-30T07:23:35Z</time>
      </trkpt>
      <trkpt lat="43.5444478970" lon="1.4902504999">
        <ele>156.83</ele>
        <time>2017-07-30T07:23:46Z</time>
      </trkpt>
      <trkpt lat="43.5444467235" lon="1.4902487397">
        <ele>157.31</ele>
        <time>2017-07-30T07:23:56Z</time>
      </trkpt>
      <trkpt lat="43.5443670955" lon="1.4901787508">
        <ele>156.83</ele>
        <time>2017-07-30T07:24:09Z</time>
      </trkpt>
      <trkpt lat="43.5443661734" lon="1.4901782479">
        <ele>156.83</ele>
        <time>2017-07-30T07:24:27Z</time>
      </trkpt>
      <trkpt lat="43.5443559475" lon="1.4901840314">
        <ele>156.83</ele>
        <time>2017-07-30T07:24:41Z</time>
      </trkpt>
      <trkpt lat="43.5443549417" lon="1.4901806787">
        <ele>156.83</ele>
        <time>2017-07-30T07:25:02Z</time>
      </trkpt>
      <trkpt lat="43.5443412792" lon="1.4901921619">
        <ele>156.83</ele>
        <time>2017-07-30T07:25:11Z</time>
      </trkpt>
      <trkpt lat="43.5443291254" lon="1.4902006276">
        <ele>156.83</ele>
        <time>2017-07-30T07:25:12Z</time>
      </trkpt>
      <trkpt lat="43.5443139542" lon="1.4902075846">
        <ele>156.83</ele>
        <time>2017-07-30T07:25:13Z</time>
      </trkpt>
      <trkpt lat="43.5442935023" lon="1.4902165532">
        <ele>156.83</ele>
        <time>2017-07-30T07:25:14Z</time>
      </trkpt>
      <trkpt lat="43.5442657582" lon="1.4902266953">
        <ele>156.83</ele>
        <time>2017-07-30T07:25:15Z</time>
      </trkpt>
      <trkpt lat="43.5442354158" lon="1.4902420342">
        <ele>156.83</ele>
        <time>2017-07-30T07:25:16Z</time>
      </trkpt>
      <trkpt lat="43.5439381935" lon="1.4903695229">
        <ele>156.35</ele>
        <time>2017-07-30T07:25:25Z</time>
      </trkpt>
      <trkpt lat="43.5437168274" lon="1.4904722851">
        <ele>156.35</ele>
        <time>2017-07-30T07:25:33Z</time>
      </trkpt>
      <trkpt lat="43.5436962079" lon="1.4904903062">
        <ele>156.35</ele>
        <time>2017-07-30T07:25:34Z</time>
      </trkpt>
      <trkpt lat="43.5436779354" lon="1.4905032981">
        <ele>156.35</ele>
        <time>2017-07-30T07:25:35Z</time>
      </trkpt>
      <trkpt lat="43.5436604172" lon="1.4905077405">
        <ele>156.35</ele>
        <time>2017-07-30T07:25:36Z</time>
      </trkpt>
      <trkpt lat="43.5436435696" lon="1.4905138593">
        <ele>156.35</ele>
        <time>2017-07-30T07:25:37Z</time>
      </trkpt>
      <trkpt lat="43.5435537156" lon="1.4905784000">
        <ele>156.35</ele>
        <time>2017-07-30T07:25:45Z</time>
      </trkpt>
      <trkpt lat="43.5435371194" lon="1.4905843511">
        <ele>156.35</ele>
        <time>2017-07-30T07:25:46Z</time>
      </trkpt>
      <trkpt lat="43.5435208585" lon="1.4905952476">
        <ele>156.35</ele>
        <time>2017-07-30T07:25:47Z</time>
      </trkpt>
      <trkpt lat="43.5433313437" lon="1.4907096606">
        <ele>156.35</ele>
        <time>2017-07-30T07:25:58Z</time>
      </trkpt>
      <trkpt lat="43.5432279110" lon="1.4907886181">
        <ele>156.35</ele>
        <time>2017-07-30T07:26:04Z</time>
      </trkpt>
      <trkpt lat="43.5430231411" lon="1.4908536617">
        <ele>156.35</ele>
        <time>2017-07-30T07:26:13Z</time>
      </trkpt>
      <trkpt lat="43.5427993443" lon="1.4909434319">
        <ele>156.35</ele>
        <time>2017-07-30T07:26:24Z</time>
      </trkpt>
      <trkpt lat="43.5427413415" lon="1.4909594413">
        <ele>156.35</ele>
        <time>2017-07-30T07:26:27Z</time>
      </trkpt>
      <trkpt lat="43.5427213088" lon="1.4909732714">
        <ele>156.35</ele>
        <time>2017-07-30T07:26:28Z</time>
      </trkpt>
      <trkpt lat="43.5425286088" lon="1.4910233114">
        <ele>156.35</ele>
        <time>2017-07-30T07:26:36Z</time>
      </trkpt>
      <trkpt lat="43.5423976835" lon="1.4910671487">
        <ele>156.35</ele>
        <time>2017-07-30T07:26:41Z</time>
      </trkpt>
      <trkpt lat="43.5423749685" lon="1.4910721779">
        <ele>156.35</ele>
        <time>2017-07-30T07:26:42Z</time>
      </trkpt>
      <trkpt lat="43.5421445500" lon="1.4911616966">
        <ele>156.35</ele>
        <time>2017-07-30T07:26:52Z</time>
      </trkpt>
      <trkpt lat="43.5419111978" lon="1.4913087152">
        <ele>156.35</ele>
        <time>2017-07-30T07:27:01Z</time>
      </trkpt>
      <trkpt lat="43.5416159034" lon="1.4915565681">
        <ele>155.87</ele>
        <time>2017-07-30T07:27:11Z</time>
      </trkpt>
      <trkpt lat="43.5415942781" lon="1.4915798698">
        <ele>155.87</ele>
        <time>2017-07-30T07:27:12Z</time>
      </trkpt>
      <trkpt lat="43.5415709764" lon="1.4915995672">
        <ele>156.35</ele>
        <time>2017-07-30T07:27:13Z</time>
      </trkpt>
      <trkpt lat="43.5415422264" lon="1.4916163310">
        <ele>155.87</ele>
        <time>2017-07-30T07:27:14Z</time>
      </trkpt>
      <trkpt lat="43.5415158235" lon="1.4916304965">
        <ele>155.87</ele>
        <time>2017-07-30T07:27:15Z</time>
      </trkpt>
      <trkpt lat="43.5414949525" lon="1.4916405547">
        <ele>155.87</ele>
        <time>2017-07-30T07:27:16Z</time>
      </trkpt>
      <trkpt lat="43.5414675437" lon="1.4916570671">
        <ele>155.87</ele>
        <time>2017-07-30T07:27:17Z</time>
      </trkpt>
      <trkpt lat="43.5412491951" lon="1.4917915128">
        <ele>155.87</ele>
        <time>2017-07-30T07:27:25Z</time>
      </trkpt>
      <trkpt lat="43.5410292540" lon="1.4919365197">
        <ele>155.39</ele>
        <time>2017-07-30T07:27:34Z</time>
      </trkpt>
      <trkpt lat="43.5407685768" lon="1.4920823649">
        <ele>155.39</ele>
        <time>2017-07-30T07:27:44Z</time>
      </trkpt>
      <trkpt lat="43.5405736137" lon="1.4921821095">
        <ele>155.39</ele>
        <time>2017-07-30T07:27:54Z</time>
      </trkpt>
      <trkpt lat="43.5404124297" lon="1.4922413696">
        <ele>154.91</ele>
        <time>2017-07-30T07:28:00Z</time>
      </trkpt>
      <trkpt lat="43.5401042271" lon="1.4923839457">
        <ele>154.91</ele>
        <time>2017-07-30T07:28:11Z</time>
      </trkpt>
      <trkpt lat="43.5401039757" lon="1.4923791680">
        <ele>154.43</ele>
        <time>2017-07-30T07:28:21Z</time>
      </trkpt>
      <trkpt lat="43.5400758125" lon="1.4923922438">
        <ele>153.95</ele>
        <time>2017-07-30T07:28:38Z</time>
      </trkpt>
      <trkpt lat="43.5400490742" lon="1.4924194850">
        <ele>153.95</ele>
        <time>2017-07-30T07:28:47Z</time>
      </trkpt>
      <trkpt lat="43.5400629882" lon="1.4924180601">
        <ele>153.47</ele>
        <time>2017-07-30T07:29:10Z</time>
      </trkpt>
      <trkpt lat="43.5400707833" lon="1.4924107678">
        <ele>152.99</ele>
        <time>2017-07-30T07:29:32Z</time>
      </trkpt>
      <trkpt lat="43.5400674306" lon="1.4924078342">
        <ele>152.51</ele>
        <time>2017-07-30T07:29:49Z</time>
      </trkpt>
      <trkpt lat="43.5400296282" lon="1.4923830237">
        <ele>152.51</ele>
        <time>2017-07-30T07:30:01Z</time>
      </trkpt>
      <trkpt lat="43.5399790853" lon="1.4923909027">
        <ele>152.51</ele>
        <time>2017-07-30T07:30:04Z</time>
      </trkpt>
      <trkpt lat="43.5398475733" lon="1.4924377576">
        <ele>152.03</ele>
        <time>2017-07-30T07:30:13Z</time>
      </trkpt>
      <trkpt lat="43.5398345813" lon="1.4924458042">
        <ele>152.03</ele>
        <time>2017-07-30T07:30:14Z</time>
      </trkpt>
      <trkpt lat="43.5398054123" lon="1.4924663398">
        <ele>152.03</ele>
        <time>2017-07-30T07:30:23Z</time>
      </trkpt>
      <trkpt lat="43.5398049094" lon="1.4924639929">
        <ele>151.54</ele>
        <time>2017-07-30T07:30:40Z</time>
      </trkpt>
      <trkpt lat="43.5398094356" lon="1.4924800023">
        <ele>151.54</ele>
        <time>2017-07-30T07:30:58Z</time>
      </trkpt>
      <trkpt lat="43.5398119502" lon="1.4924688544">
        <ele>151.06</ele>
        <time>2017-07-30T07:31:23Z</time>
      </trkpt>
      <trkpt lat="43.5398096871" lon="1.4924630709">
        <ele>151.06</ele>
        <time>2017-07-30T07:31:42Z</time>
      </trkpt>
      <trkpt lat="43.5398142133" lon="1.4924644958">
        <ele>151.06</ele>
        <time>2017-07-30T07:31:54Z</time>
      </trkpt>
      <trkpt lat="43.5398194939" lon="1.4924623165">
        <ele>151.06</ele>
        <time>2017-07-30T07:32:15Z</time>
      </trkpt>
      <trkpt lat="43.5398093518" lon="1.4924663398">
        <ele>151.06</ele>
        <time>2017-07-30T07:32:24Z</time>
      </trkpt>
      <trkpt lat="43.5397750698" lon="1.4924708661">
        <ele>151.06</ele>
        <time>2017-07-30T07:32:26Z</time>
      </trkpt>
      <trkpt lat="43.5395937692" lon="1.4925205708">
        <ele>151.06</ele>
        <time>2017-07-30T07:32:34Z</time>
      </trkpt>
      <trkpt lat="43.5393725708" lon="1.4925706107">
        <ele>151.06</ele>
        <time>2017-07-30T07:32:41Z</time>
      </trkpt>
      <trkpt lat="43.5390068684" lon="1.4927417692">
        <ele>151.54</ele>
        <time>2017-07-30T07:32:52Z</time>
      </trkpt>
      <trkpt lat="43.5387773719" lon="1.4930003509">
        <ele>151.06</ele>
        <time>2017-07-30T07:33:01Z</time>
      </trkpt>
      <trkpt lat="43.5386768728" lon="1.4932324458">
        <ele>151.06</ele>
        <time>2017-07-30T07:33:08Z</time>
      </trkpt>
      <trkpt lat="43.5386493802" lon="1.4936586656">
        <ele>151.06</ele>
        <time>2017-07-30T07:33:19Z</time>
      </trkpt>
      <trkpt lat="43.5386499669" lon="1.4940854721">
        <ele>151.06</ele>
        <time>2017-07-30T07:33:28Z</time>
      </trkpt>
      <trkpt lat="43.5386801418" lon="1.4944701176">
        <ele>151.54</ele>
        <time>2017-07-30T07:33:36Z</time>
      </trkpt>
      <trkpt lat="43.5386746936" lon="1.4948499855">
        <ele>152.03</ele>
        <time>2017-07-30T07:33:44Z</time>
      </trkpt>
      <trkpt lat="43.5387347080" lon="1.4952486288">
        <ele>152.03</ele>
        <time>2017-07-30T07:33:53Z</time>
      </trkpt>
      <trkpt lat="43.5387858376" lon="1.4956684783">
        <ele>151.54</ele>
        <time>2017-07-30T07:34:03Z</time>
      </trkpt>
      <trkpt lat="43.5388156772" lon="1.4959937800">
        <ele>152.03</ele>
        <time>2017-07-30T07:34:11Z</time>
      </trkpt>
      <trkpt lat="43.5388457682" lon="1.4962488413">
        <ele>151.54</ele>
        <time>2017-07-30T07:34:17Z</time>
      </trkpt>
      <trkpt lat="43.5388391465" lon="1.4963774197">
        <ele>151.54</ele>
        <time>2017-07-30T07:34:21Z</time>
      </trkpt>
      <trkpt lat="43.5388854146" lon="1.4967453014">
        <ele>151.54</ele>
        <time>2017-07-30T07:34:30Z</time>
      </trkpt>
      <trkpt lat="43.5389231332" lon="1.4970694296">
        <ele>151.54</ele>
        <time>2017-07-30T07:34:36Z</time>
      </trkpt>
      <trkpt lat="43.5389465187" lon="1.4975083061">
        <ele>151.54</ele>
        <time>2017-07-30T07:34:45Z</time>
      </trkpt>
      <trkpt lat="43.5389577504" lon="1.4979462605">
        <ele>152.03</ele>
        <time>2017-07-30T07:34:54Z</time>
      </trkpt>
      <trkpt lat="43.5389611032" lon="1.4983813651">
        <ele>152.03</ele>
        <time>2017-07-30T07:35:03Z</time>
      </trkpt>
      <trkpt lat="43.5388948023" lon="1.4987623226">
        <ele>152.51</ele>
        <time>2017-07-30T07:35:13Z</time>
      </trkpt>
      <trkpt lat="43.5388878454" lon="1.4987916593">
        <ele>152.51</ele>
        <time>2017-07-30T07:35:14Z</time>
      </trkpt>
      <trkpt lat="43.5388686508" lon="1.4989086706">
        <ele>152.51</ele>
        <time>2017-07-30T07:35:18Z</time>
      </trkpt>
      <trkpt lat="43.5387473647" lon="1.4992990158">
        <ele>152.03</ele>
        <time>2017-07-30T07:35:29Z</time>
      </trkpt>
      <trkpt lat="43.5386278387" lon="1.4995957352">
        <ele>151.54</ele>
        <time>2017-07-30T07:35:37Z</time>
      </trkpt>
      <trkpt lat="43.5384669062" lon="1.4998644590">
        <ele>151.54</ele>
        <time>2017-07-30T07:35:45Z</time>
      </trkpt>
      <trkpt lat="43.5383355618" lon="1.5001045167">
        <ele>151.54</ele>
        <time>2017-07-30T07:35:53Z</time>
      </trkpt>
      <trkpt lat="43.5381825920" lon="1.5003751684">
        <ele>151.06</ele>
        <time>2017-07-30T07:36:02Z</time>
      </trkpt>
      <trkpt lat="43.5380504932" lon="1.5005863085">
        <ele>151.06</ele>
        <time>2017-07-30T07:36:09Z</time>
      </trkpt>
      <trkpt lat="43.5378782451" lon="1.5008968581">
        <ele>151.06</ele>
        <time>2017-07-30T07:36:17Z</time>
      </trkpt>
      <trkpt lat="43.5376862995" lon="1.5012349840">
        <ele>151.54</ele>
        <time>2017-07-30T07:36:26Z</time>
      </trkpt>
      <trkpt lat="43.5375258699" lon="1.5015810728">
        <ele>151.54</ele>
        <time>2017-07-30T07:36:36Z</time>
      </trkpt>
      <trkpt lat="43.5374737345" lon="1.5017544944">
        <ele>151.06</ele>
        <time>2017-07-30T07:36:39Z</time>
      </trkpt>
      <trkpt lat="43.5374490079" lon="1.5018103179">
        <ele>151.06</ele>
        <time>2017-07-30T07:36:40Z</time>
      </trkpt>
      <trkpt lat="43.5372544639" lon="1.5021181852">
        <ele>151.06</ele>
        <time>2017-07-30T07:36:48Z</time>
      </trkpt>
      <trkpt lat="43.5370714031" lon="1.5023781080">
        <ele>151.06</ele>
        <time>2017-07-30T07:36:56Z</time>
      </trkpt>
      <trkpt lat="43.5368852410" lon="1.5026111249">
        <ele>151.06</ele>
        <time>2017-07-30T07:37:04Z</time>
      </trkpt>
      <trkpt lat="43.5367400665" lon="1.5027839597">
        <ele>151.06</ele>
        <time>2017-07-30T07:37:10Z</time>
      </trkpt>
      <trkpt lat="43.5364964884" lon="1.5030788351">
        <ele>150.58</ele>
        <time>2017-07-30T07:37:20Z</time>
      </trkpt>
      <trkpt lat="43.5363301076" lon="1.5033035539">
        <ele>150.58</ele>
        <time>2017-07-30T07:37:27Z</time>
      </trkpt>
      <trkpt lat="43.5360988509" lon="1.5035792347">
        <ele>150.58</ele>
        <time>2017-07-30T07:37:35Z</time>
      </trkpt>
      <trkpt lat="43.5358682647" lon="1.5038363077">
        <ele>151.06</ele>
        <time>2017-07-30T07:37:43Z</time>
      </trkpt>
      <trkpt lat="43.5355955176" lon="1.5041088872">
        <ele>151.06</ele>
        <time>2017-07-30T07:37:51Z</time>
      </trkpt>
      <trkpt lat="43.5352987982" lon="1.5043536387">
        <ele>150.58</ele>
        <time>2017-07-30T07:38:00Z</time>
      </trkpt>
      <trkpt lat="43.5350455809" lon="1.5045965463">
        <ele>150.58</ele>
        <time>2017-07-30T07:38:09Z</time>
      </trkpt>
      <trkpt lat="43.5347586684" lon="1.5048328321">
        <ele>151.06</ele>
        <time>2017-07-30T07:38:18Z</time>
      </trkpt>
      <trkpt lat="43.5344606917" lon="1.5050509293">
        <ele>151.06</ele>
        <time>2017-07-30T07:38:28Z</time>
      </trkpt>
      <trkpt lat="43.5341474600" lon="1.5052117780">
        <ele>151.06</ele>
        <time>2017-07-30T07:38:37Z</time>
      </trkpt>
      <trkpt lat="43.5338525847" lon="1.5053410269">
        <ele>150.58</ele>
        <time>2017-07-30T07:38:46Z</time>
      </trkpt>
      <trkpt lat="43.5334706213" lon="1.5054064058">
        <ele>150.58</ele>
        <time>2017-07-30T07:38:56Z</time>
      </trkpt>
      <trkpt lat="43.5331249516" lon="1.5054557752">
        <ele>151.06</ele>
        <time>2017-07-30T07:39:05Z</time>
      </trkpt>
      <trkpt lat="43.5326996539" lon="1.5055012889">
        <ele>151.06</ele>
        <time>2017-07-30T07:39:16Z</time>
      </trkpt>
      <trkpt lat="43.5323612764" lon="1.5055359900">
        <ele>151.06</ele>
        <time>2017-07-30T07:39:25Z</time>
      </trkpt>
      <trkpt lat="43.5320109129" lon="1.5056429431">
        <ele>150.58</ele>
        <time>2017-07-30T07:39:34Z</time>
      </trkpt>
      <trkpt lat="43.5318965837" lon="1.5056843497">
        <ele>153.95</ele>
        <time>2017-07-30T07:39:38Z</time>
      </trkpt>
      <trkpt lat="43.5318729468" lon="1.5056905523">
        <ele>150.10</ele>
        <time>2017-07-30T07:39:39Z</time>
      </trkpt>
      <trkpt lat="43.5316013731" lon="1.5057932306">
        <ele>151.06</ele>
        <time>2017-07-30T07:39:46Z</time>
      </trkpt>
      <trkpt lat="43.5313131195" lon="1.5059540793">
        <ele>151.06</ele>
        <time>2017-07-30T07:39:55Z</time>
      </trkpt>
      <trkpt lat="43.5311132949" lon="1.5060950629">
        <ele>150.58</ele>
        <time>2017-07-30T07:40:03Z</time>
      </trkpt>
      <trkpt lat="43.5307910945" lon="1.5062803030">
        <ele>150.58</ele>
        <time>2017-07-30T07:40:12Z</time>
      </trkpt>
      <trkpt lat="43.5304744262" lon="1.5064733382">
        <ele>151.06</ele>
        <time>2017-07-30T07:40:21Z</time>
      </trkpt>
      <trkpt lat="43.5302720871" lon="1.5066408087">
        <ele>152.03</ele>
        <time>2017-07-30T07:40:29Z</time>
      </trkpt>
      <trkpt lat="43.5300609469" lon="1.5068489313">
        <ele>152.03</ele>
        <time>2017-07-30T07:40:37Z</time>
      </trkpt>
      <trkpt lat="43.5298286006" lon="1.5071283001">
        <ele>152.03</ele>
        <time>2017-07-30T07:40:45Z</time>
      </trkpt>
      <trkpt lat="43.5295514110" lon="1.5074367542">
        <ele>151.54</ele>
        <time>2017-07-30T07:40:54Z</time>
      </trkpt>
      <trkpt lat="43.5293044802" lon="1.5077059809">
        <ele>151.54</ele>
        <time>2017-07-30T07:41:02Z</time>
      </trkpt>
      <trkpt lat="43.5290601477" lon="1.5080095734">
        <ele>151.54</ele>
        <time>2017-07-30T07:41:10Z</time>
      </trkpt>
      <trkpt lat="43.5288147256" lon="1.5082261618">
        <ele>151.54</ele>
        <time>2017-07-30T07:41:18Z</time>
      </trkpt>
      <trkpt lat="43.5284628533" lon="1.5084599331">
        <ele>151.54</ele>
        <time>2017-07-30T07:41:28Z</time>
      </trkpt>
      <trkpt lat="43.5282044392" lon="1.5086373780">
        <ele>151.54</ele>
        <time>2017-07-30T07:41:35Z</time>
      </trkpt>
      <trkpt lat="43.5279591009" lon="1.5087807085">
        <ele>151.06</ele>
        <time>2017-07-30T07:41:42Z</time>
      </trkpt>
      <trkpt lat="43.5278732702" lon="1.5088553913">
        <ele>151.06</ele>
        <time>2017-07-30T07:41:44Z</time>
      </trkpt>
      <trkpt lat="43.5278329533" lon="1.5088894218">
        <ele>151.06</ele>
        <time>2017-07-30T07:41:45Z</time>
      </trkpt>
      <trkpt lat="43.5277990066" lon="1.5089173336">
        <ele>151.06</ele>
        <time>2017-07-30T07:41:46Z</time>
      </trkpt>
      <trkpt lat="43.5277624615" lon="1.5089562256">
        <ele>151.06</ele>
        <time>2017-07-30T07:41:47Z</time>
      </trkpt>
      <trkpt lat="43.5277268384" lon="1.5089945309">
        <ele>151.06</ele>
        <time>2017-07-30T07:41:48Z</time>
      </trkpt>
      <trkpt lat="43.5276876111" lon="1.5090339258">
        <ele>151.54</ele>
        <time>2017-07-30T07:41:49Z</time>
      </trkpt>
      <trkpt lat="43.5276515689" lon="1.5090715606">
        <ele>151.06</ele>
        <time>2017-07-30T07:41:50Z</time>
      </trkpt>
      <trkpt lat="43.5274335556" lon="1.5093868878">
        <ele>152.03</ele>
        <time>2017-07-30T07:41:58Z</time>
      </trkpt>
      <trkpt lat="43.5274063144" lon="1.5094292164">
        <ele>152.03</ele>
        <time>2017-07-30T07:41:59Z</time>
      </trkpt>
      <trkpt lat="43.5273791570" lon="1.5094660968">
        <ele>152.03</ele>
        <time>2017-07-30T07:42:00Z</time>
      </trkpt>
      <trkpt lat="43.5273550171" lon="1.5095038153">
        <ele>152.03</ele>
        <time>2017-07-30T07:42:01Z</time>
      </trkpt>
      <trkpt lat="43.5273276921" lon="1.5095401090">
        <ele>152.51</ele>
        <time>2017-07-30T07:42:02Z</time>
      </trkpt>
      <trkpt lat="43.5273002833" lon="1.5095819347">
        <ele>152.03</ele>
        <time>2017-07-30T07:42:03Z</time>
      </trkpt>
      <trkpt lat="43.5272827651" lon="1.5096152108">
        <ele>152.51</ele>
        <time>2017-07-30T07:42:04Z</time>
      </trkpt>
      <trkpt lat="43.5272703599" lon="1.5096331481">
        <ele>152.51</ele>
        <time>2017-07-30T07:42:05Z</time>
      </trkpt>
      <trkpt lat="43.5270767380" lon="1.5099963360">
        <ele>152.51</ele>
        <time>2017-07-30T07:42:13Z</time>
      </trkpt>
      <trkpt lat="43.5269448906" lon="1.5103498846">
        <ele>152.51</ele>
        <time>2017-07-30T07:42:22Z</time>
      </trkpt>
      <trkpt lat="43.5268511809" lon="1.5106513817">
        <ele>152.03</ele>
        <time>2017-07-30T07:42:29Z</time>
      </trkpt>
      <trkpt lat="43.5268094391" lon="1.5107558202">
        <ele>152.03</ele>
        <time>2017-07-30T07:42:31Z</time>
      </trkpt>
      <trkpt lat="43.5267899930" lon="1.5108123142">
        <ele>151.54</ele>
        <time>2017-07-30T07:42:32Z</time>
      </trkpt>
      <trkpt lat="43.5267734807" lon="1.5108679701">
        <ele>151.54</ele>
        <time>2017-07-30T07:42:33Z</time>
      </trkpt>
      <trkpt lat="43.5267557949" lon="1.5109285712">
        <ele>151.54</ele>
        <time>2017-07-30T07:42:34Z</time>
      </trkpt>
      <trkpt lat="43.5267374385" lon="1.5109881666">
        <ele>151.54</ele>
        <time>2017-07-30T07:42:35Z</time>
      </trkpt>
      <trkpt lat="43.5267224349" lon="1.5110430680">
        <ele>151.54</ele>
        <time>2017-07-30T07:42:36Z</time>
      </trkpt>
      <trkpt lat="43.5266517755" lon="1.5113607422">
        <ele>151.54</ele>
        <time>2017-07-30T07:42:42Z</time>
      </trkpt>
      <trkpt lat="43.5266356822" lon="1.5114288870">
        <ele>151.54</ele>
        <time>2017-07-30T07:42:43Z</time>
      </trkpt>
      <trkpt lat="43.5265368596" lon="1.5118317213">
        <ele>151.06</ele>
        <time>2017-07-30T07:42:50Z</time>
      </trkpt>
      <trkpt lat="43.5264781024" lon="1.5122608747">
        <ele>151.54</ele>
        <time>2017-07-30T07:42:58Z</time>
      </trkpt>
      <trkpt lat="43.5264631826" lon="1.5127529763">
        <ele>152.03</ele>
        <time>2017-07-30T07:43:07Z</time>
      </trkpt>
      <trkpt lat="43.5264297388" lon="1.5131248813">
        <ele>152.51</ele>
        <time>2017-07-30T07:43:15Z</time>
      </trkpt>
      <trkpt lat="43.5263882484" lon="1.5134879015">
        <ele>152.51</ele>
        <time>2017-07-30T07:43:23Z</time>
      </trkpt>
      <trkpt lat="43.5263579898" lon="1.5139982756">
        <ele>152.03</ele>
        <time>2017-07-30T07:43:33Z</time>
      </trkpt>
      <trkpt lat="43.5263507813" lon="1.5140618104">
        <ele>152.03</ele>
        <time>2017-07-30T07:43:34Z</time>
      </trkpt>
      <trkpt lat="43.5263240431" lon="1.5146094002">
        <ele>151.54</ele>
        <time>2017-07-30T07:43:42Z</time>
      </trkpt>
      <trkpt lat="43.5263221152" lon="1.5146696661">
        <ele>151.54</ele>
        <time>2017-07-30T07:43:43Z</time>
      </trkpt>
      <trkpt lat="43.5262618493" lon="1.5152531303">
        <ele>151.54</ele>
        <time>2017-07-30T07:43:53Z</time>
      </trkpt>
      <trkpt lat="43.5261765216" lon="1.5156324953">
        <ele>151.54</ele>
        <time>2017-07-30T07:44:01Z</time>
      </trkpt>
      <trkpt lat="43.5260877572" lon="1.5158982016">
        <ele>151.54</ele>
        <time>2017-07-30T07:44:08Z</time>
      </trkpt>
      <trkpt lat="43.5259759426" lon="1.5163309593">
        <ele>151.54</ele>
        <time>2017-07-30T07:44:17Z</time>
      </trkpt>
      <trkpt lat="43.5258464422" lon="1.5167052951">
        <ele>151.54</ele>
        <time>2017-07-30T07:44:25Z</time>
      </trkpt>
      <trkpt lat="43.5257893614" lon="1.5168916248">
        <ele>151.06</ele>
        <time>2017-07-30T07:44:29Z</time>
      </trkpt>
      <trkpt lat="43.5257701669" lon="1.5169315226">
        <ele>151.54</ele>
        <time>2017-07-30T07:44:30Z</time>
      </trkpt>
      <trkpt lat="43.5257518943" lon="1.5169758629">
        <ele>152.51</ele>
        <time>2017-07-30T07:44:31Z</time>
      </trkpt>
      <trkpt lat="43.5257367231" lon="1.5170204546">
        <ele>151.54</ele>
        <time>2017-07-30T07:44:32Z</time>
      </trkpt>
      <trkpt lat="43.5257163551" lon="1.5170666389">
        <ele>151.54</ele>
        <time>2017-07-30T07:44:33Z</time>
      </trkpt>
      <trkpt lat="43.5256953165" lon="1.5171119850">
        <ele>151.54</ele>
        <time>2017-07-30T07:44:34Z</time>
      </trkpt>
      <trkpt lat="43.5255292710" lon="1.5174886677">
        <ele>151.54</ele>
        <time>2017-07-30T07:44:43Z</time>
      </trkpt>
      <trkpt lat="43.5253072344" lon="1.5178676136">
        <ele>151.54</ele>
        <time>2017-07-30T07:44:53Z</time>
      </trkpt>
      <trkpt lat="43.5252713598" lon="1.5179282147">
        <ele>151.54</ele>
        <time>2017-07-30T07:44:55Z</time>
      </trkpt>
      <trkpt lat="43.5252474714" lon="1.5179539472">
        <ele>151.54</ele>
        <time>2017-07-30T07:44:56Z</time>
      </trkpt>
      <trkpt lat="43.5252289474" lon="1.5179746505">
        <ele>151.54</ele>
        <time>2017-07-30T07:44:57Z</time>
      </trkpt>
      <trkpt lat="43.5252068192" lon="1.5179940965">
        <ele>151.54</ele>
        <time>2017-07-30T07:44:58Z</time>
      </trkpt>
      <trkpt lat="43.5251885466" lon="1.5180132072">
        <ele>151.54</ele>
        <time>2017-07-30T07:44:59Z</time>
      </trkpt>
      <trkpt lat="43.5251618084" lon="1.5180349164">
        <ele>151.54</ele>
        <time>2017-07-30T07:45:00Z</time>
      </trkpt>
      <trkpt lat="43.5251343157" lon="1.5180584695">
        <ele>152.03</ele>
        <time>2017-07-30T07:45:01Z</time>
      </trkpt>
      <trkpt lat="43.5251096729" lon="1.5180868842">
        <ele>152.03</ele>
        <time>2017-07-30T07:45:02Z</time>
      </trkpt>
      <trkpt lat="43.5247115325" lon="1.5184371639">
        <ele>152.03</ele>
        <time>2017-07-30T07:45:13Z</time>
      </trkpt>
      <trkpt lat="43.5244009830" lon="1.5186307020">
        <ele>152.99</ele>
        <time>2017-07-30T07:45:24Z</time>
      </trkpt>
      <trkpt lat="43.5243765078" lon="1.5186470468">
        <ele>152.99</ele>
        <time>2017-07-30T07:45:39Z</time>
      </trkpt>
      <trkpt lat="43.5243791901" lon="1.5186571050">
        <ele>152.99</ele>
        <time>2017-07-30T07:45:56Z</time>
      </trkpt>
      <trkpt lat="43.5243775137" lon="1.5186490584">
        <ele>152.99</ele>
        <time>2017-07-30T07:46:16Z</time>
      </trkpt>
      <trkpt lat="43.5243791062" lon="1.5186493937">
        <ele>152.99</ele>
        <time>2017-07-30T07:46:28Z</time>
      </trkpt>
      <trkpt lat="43.5243781842" lon="1.5186519083">
        <ele>152.99</ele>
        <time>2017-07-30T07:46:44Z</time>
      </trkpt>
      <trkpt lat="43.5243594088" lon="1.5186643973">
        <ele>152.99</ele>
        <time>2017-07-30T07:46:51Z</time>
      </trkpt>
      <trkpt lat="43.5243429802" lon="1.5186742041">
        <ele>152.99</ele>
        <time>2017-07-30T07:46:52Z</time>
      </trkpt>
      <trkpt lat="43.5243231989" lon="1.5186817478">
        <ele>152.99</ele>
        <time>2017-07-30T07:46:53Z</time>
      </trkpt>
      <trkpt lat="43.5241214465" lon="1.5187346376">
        <ele>154.91</ele>
        <time>2017-07-30T07:47:01Z</time>
      </trkpt>
      <trkpt lat="43.5241007432" lon="1.5187324584">
        <ele>155.39</ele>
        <time>2017-07-30T07:47:02Z</time>
      </trkpt>
      <trkpt lat="43.5240830574" lon="1.5187155269">
        <ele>155.39</ele>
        <time>2017-07-30T07:47:03Z</time>
      </trkpt>
      <trkpt lat="43.5240745917" lon="1.5186882019">
        <ele>156.35</ele>
        <time>2017-07-30T07:47:04Z</time>
      </trkpt>
      <trkpt lat="43.5240688082" lon="1.5186612960">
        <ele>156.35</ele>
        <time>2017-07-30T07:47:05Z</time>
      </trkpt>
      <trkpt lat="43.5240640305" lon="1.5186354797">
        <ele>156.35</ele>
        <time>2017-07-30T07:47:06Z</time>
      </trkpt>
      <trkpt lat="43.5240543913" lon="1.5185669996">
        <ele>156.35</ele>
        <time>2017-07-30T07:47:09Z</time>
      </trkpt>
      <trkpt lat="43.5240243841" lon="1.5185381658">
        <ele>156.35</ele>
        <time>2017-07-30T07:47:13Z</time>
      </trkpt>
      <trkpt lat="43.5240188520" lon="1.5185269341">
        <ele>156.35</ele>
        <time>2017-07-30T07:47:22Z</time>
      </trkpt>
      <trkpt lat="43.5240258928" lon="1.5185375791">
        <ele>156.35</ele>
        <time>2017-07-30T07:47:36Z</time>
      </trkpt>
      <trkpt lat="43.5240511224" lon="1.5186543390">
        <ele>156.35</ele>
        <time>2017-07-30T07:47:47Z</time>
      </trkpt>
      <trkpt lat="43.5240598395" lon="1.5187057201">
        <ele>155.87</ele>
        <time>2017-07-30T07:47:49Z</time>
      </trkpt>
      <trkpt lat="43.5240610968" lon="1.5187229030">
        <ele>155.87</ele>
        <time>2017-07-30T07:47:50Z</time>
      </trkpt>
      <trkpt lat="43.5240613483" lon="1.5187416784">
        <ele>155.87</ele>
        <time>2017-07-30T07:47:51Z</time>
      </trkpt>
      <trkpt lat="43.5240554810" lon="1.5187600348">
        <ele>155.39</ele>
        <time>2017-07-30T07:47:52Z</time>
      </trkpt>
      <trkpt lat="43.5240425728" lon="1.5187750384">
        <ele>155.87</ele>
        <time>2017-07-30T07:47:53Z</time>
      </trkpt>
      <trkpt lat="43.5240279883" lon="1.5187845100">
        <ele>155.87</ele>
        <time>2017-07-30T07:47:54Z</time>
      </trkpt>
      <trkpt lat="43.5240081232" lon="1.5187905449">
        <ele>155.87</ele>
        <time>2017-07-30T07:47:55Z</time>
      </trkpt>
      <trkpt lat="43.5239849892" lon="1.5187903773">
        <ele>155.87</ele>
        <time>2017-07-30T07:47:56Z</time>
      </trkpt>
      <trkpt lat="43.5239611007" lon="1.5187890362">
        <ele>155.87</ele>
        <time>2017-07-30T07:47:57Z</time>
      </trkpt>
      <trkpt lat="43.5239333566" lon="1.5187827498">
        <ele>155.87</ele>
        <time>2017-07-30T07:47:58Z</time>
      </trkpt>
      <trkpt lat="43.5239030141" lon="1.5187837556">
        <ele>155.39</ele>
        <time>2017-07-30T07:47:59Z</time>
      </trkpt>
      <trkpt lat="43.5238721687" lon="1.5187942330">
        <ele>155.87</ele>
        <time>2017-07-30T07:48:00Z</time>
      </trkpt>
      <trkpt lat="43.5238421615" lon="1.5188025311">
        <ele>155.39</ele>
        <time>2017-07-30T07:48:01Z</time>
      </trkpt>
      <trkpt lat="43.5238107294" lon="1.5188095719">
        <ele>155.39</ele>
        <time>2017-07-30T07:48:02Z</time>
      </trkpt>
      <trkpt lat="43.5235237330" lon="1.5188959893">
        <ele>154.91</ele>
        <time>2017-07-30T07:48:11Z</time>
      </trkpt>
      <trkpt lat="43.5232496448" lon="1.5190382302">
        <ele>155.39</ele>
        <time>2017-07-30T07:48:22Z</time>
      </trkpt>
      <trkpt lat="43.5229535960" lon="1.5191689879">
        <ele>155.87</ele>
        <time>2017-07-30T07:48:34Z</time>
      </trkpt>
      <trkpt lat="43.5228851996" lon="1.5191621985">
        <ele>155.87</ele>
        <time>2017-07-30T07:48:41Z</time>
      </trkpt>
      <trkpt lat="43.5228818469" lon="1.5191813093">
        <ele>155.87</ele>
        <time>2017-07-30T07:48:59Z</time>
      </trkpt>
      <trkpt lat="43.5228820145" lon="1.5191818960">
        <ele>155.87</ele>
        <time>2017-07-30T07:49:00Z</time>
      </trkpt>
      <trkpt lat="43.5228696931" lon="1.5191882662">
        <ele>155.87</ele>
        <time>2017-07-30T07:49:01Z</time>
      </trkpt>
      <trkpt lat="43.5228393506" lon="1.5191967320">
        <ele>155.87</ele>
        <time>2017-07-30T07:49:03Z</time>
      </trkpt>
      <trkpt lat="43.5226588883" lon="1.5192850772">
        <ele>155.87</ele>
        <time>2017-07-30T07:49:12Z</time>
      </trkpt>
      <trkpt lat="43.5226586368" lon="1.5192721691">
        <ele>155.87</ele>
        <time>2017-07-30T07:49:13Z</time>
      </trkpt>
      <trkpt lat="43.5227118619" lon="1.5192484483">
        <ele>155.87</ele>
        <time>2017-07-30T07:49:16Z</time>
      </trkpt>
      <trkpt lat="43.5228384286" lon="1.5191522241">
        <ele>155.39</ele>
        <time>2017-07-30T07:49:25Z</time>
      </trkpt>
      <trkpt lat="43.5228334833" lon="1.5191497933">
        <ele>155.39</ele>
        <time>2017-07-30T07:49:33Z</time>
      </trkpt>
      <trkpt lat="43.5228347406" lon="1.5191525593">
        <ele>155.39</ele>
        <time>2017-07-30T07:49:52Z</time>
      </trkpt>
      <trkpt lat="43.5228303820" lon="1.5191459376">
        <ele>155.39</ele>
        <time>2017-07-30T07:50:18Z</time>
      </trkpt>
      <trkpt lat="43.5228257719" lon="1.5191759448">
        <ele>155.39</ele>
        <time>2017-07-30T07:50:48Z</time>
      </trkpt>
      <trkpt lat="43.5228184797" lon="1.5191874281">
        <ele>155.39</ele>
        <time>2017-07-30T07:51:14Z</time>
      </trkpt>
      <trkpt lat="43.5228274483" lon="1.5191821475">
        <ele>155.39</ele>
        <time>2017-07-30T07:51:47Z</time>
      </trkpt>
      <trkpt lat="43.5228221677" lon="1.5191812254">
        <ele>155.39</ele>
        <time>2017-07-30T07:52:12Z</time>
      </trkpt>
      <trkpt lat="43.5228354950" lon="1.5192124899">
        <ele>155.39</ele>
        <time>2017-07-30T07:52:38Z</time>
      </trkpt>
      <trkpt lat="43.5228412785" lon="1.5191883501">
        <ele>155.39</ele>
        <time>2017-07-30T07:53:01Z</time>
      </trkpt>
      <trkpt lat="43.5228416976" lon="1.5191775374">
        <ele>155.39</ele>
        <time>2017-07-30T07:53:18Z</time>
      </trkpt>
      <trkpt lat="43.5228391830" lon="1.5191839077">
        <ele>155.39</ele>
        <time>2017-07-30T07:53:30Z</time>
      </trkpt>
      <trkpt lat="43.5228205752" lon="1.5192184411">
        <ele>155.39</ele>
        <time>2017-07-30T07:53:41Z</time>
      </trkpt>
      <trkpt lat="43.5228251014" lon="1.5192139987">
        <ele>155.39</ele>
        <time>2017-07-30T07:53:53Z</time>
      </trkpt>
      <trkpt lat="43.5227931663" lon="1.5192217100">
        <ele>155.39</ele>
        <time>2017-07-30T07:53:56Z</time>
      </trkpt>
      <trkpt lat="43.5225616582" lon="1.5193098038">
        <ele>155.39</ele>
        <time>2017-07-30T07:54:04Z</time>
      </trkpt>
      <trkpt lat="43.5222951137" lon="1.5194042679">
        <ele>155.39</ele>
        <time>2017-07-30T07:54:13Z</time>
      </trkpt>
      <trkpt lat="43.5220993124" lon="1.5194696467">
        <ele>154.91</ele>
        <time>2017-07-30T07:54:19Z</time>
      </trkpt>
      <trkpt lat="43.5219614301" lon="1.5195141546">
        <ele>155.39</ele>
        <time>2017-07-30T07:54:23Z</time>
      </trkpt>
      <trkpt lat="43.5217133258" lon="1.5195151605">
        <ele>154.91</ele>
        <time>2017-07-30T07:54:31Z</time>
      </trkpt>
      <trkpt lat="43.5216726735" lon="1.5195191838">
        <ele>155.39</ele>
        <time>2017-07-30T07:54:32Z</time>
      </trkpt>
      <trkpt lat="43.5216238908" lon="1.5195222851">
        <ele>154.91</ele>
        <time>2017-07-30T07:54:33Z</time>
      </trkpt>
      <trkpt lat="43.5212819930" lon="1.5195427369">
        <ele>154.91</ele>
        <time>2017-07-30T07:54:41Z</time>
      </trkpt>
      <trkpt lat="43.5209873691" lon="1.5196471754">
        <ele>154.91</ele>
        <time>2017-07-30T07:54:50Z</time>
      </trkpt>
      <trkpt lat="43.5207530949" lon="1.5198045038">
        <ele>154.91</ele>
        <time>2017-07-30T07:54:58Z</time>
      </trkpt>
      <trkpt lat="43.5204981174" lon="1.5199661907">
        <ele>155.39</ele>
        <time>2017-07-30T07:55:06Z</time>
      </trkpt>
      <trkpt lat="43.5201459099" lon="1.5201216750">
        <ele>155.39</ele>
        <time>2017-07-30T07:55:16Z</time>
      </trkpt>
      <trkpt lat="43.5198571533" lon="1.5201522689">
        <ele>155.39</ele>
        <time>2017-07-30T07:55:24Z</time>
      </trkpt>
      <trkpt lat="43.5195191950" lon="1.5201847069">
        <ele>154.91</ele>
        <time>2017-07-30T07:55:33Z</time>
      </trkpt>
      <trkpt lat="43.5191719327" lon="1.5200461540">
        <ele>154.43</ele>
        <time>2017-07-30T07:55:43Z</time>
      </trkpt>
      <trkpt lat="43.5188833438" lon="1.5199123789">
        <ele>154.91</ele>
        <time>2017-07-30T07:55:51Z</time>
      </trkpt>
      <trkpt lat="43.5186525062" lon="1.5198222734">
        <ele>154.91</ele>
        <time>2017-07-30T07:55:58Z</time>
      </trkpt>
      <trkpt lat="43.5183168110" lon="1.5197324194">
        <ele>154.91</ele>
        <time>2017-07-30T07:56:07Z</time>
      </trkpt>
      <trkpt lat="43.5180771723" lon="1.5197656956">
        <ele>154.43</ele>
        <time>2017-07-30T07:56:13Z</time>
      </trkpt>
      <trkpt lat="43.5180324130" lon="1.5197829623">
        <ele>154.91</ele>
        <time>2017-07-30T07:56:14Z</time>
      </trkpt>
      <trkpt lat="43.5179927666" lon="1.5197970439">
        <ele>154.91</ele>
        <time>2017-07-30T07:56:15Z</time>
      </trkpt>
      <trkpt lat="43.5176788643" lon="1.5199660230">
        <ele>154.91</ele>
        <time>2017-07-30T07:56:25Z</time>
      </trkpt>
      <trkpt lat="43.5173951369" lon="1.5201308951">
        <ele>154.91</ele>
        <time>2017-07-30T07:56:34Z</time>
      </trkpt>
      <trkpt lat="43.5171793867" lon="1.5202815179">
        <ele>155.39</ele>
        <time>2017-07-30T07:56:41Z</time>
      </trkpt>
      <trkpt lat="43.5171508882" lon="1.5202945098">
        <ele>155.39</ele>
        <time>2017-07-30T07:56:42Z</time>
      </trkpt>
      <trkpt lat="43.5168994311" lon="1.5204307996">
        <ele>155.39</ele>
        <time>2017-07-30T07:56:50Z</time>
      </trkpt>
      <trkpt lat="43.5165902227" lon="1.5205030516">
        <ele>155.39</ele>
        <time>2017-07-30T07:56:58Z</time>
      </trkpt>
      <trkpt lat="43.5162774939" lon="1.5205173846">
        <ele>155.39</ele>
        <time>2017-07-30T07:57:06Z</time>
      </trkpt>
      <trkpt lat="43.5159260407" lon="1.5204105992">
        <ele>155.39</ele>
        <time>2017-07-30T07:57:16Z</time>
      </trkpt>
      <trkpt lat="43.5157090332" lon="1.5201764088">
        <ele>155.39</ele>
        <time>2017-07-30T07:57:24Z</time>
      </trkpt>
      <trkpt lat="43.5154320952" lon="1.5198504366">
        <ele>155.39</ele>
        <time>2017-07-30T07:57:33Z</time>
      </trkpt>
      <trkpt lat="43.5151249822" lon="1.5195600037">
        <ele>155.39</ele>
        <time>2017-07-30T07:57:43Z</time>
      </trkpt>
      <trkpt lat="43.5148747824" lon="1.5191415790">
        <ele>155.39</ele>
        <time>2017-07-30T07:57:54Z</time>
      </trkpt>
      <trkpt lat="43.5147872753" lon="1.5187718533">
        <ele>155.39</ele>
        <time>2017-07-30T07:58:03Z</time>
      </trkpt>
      <trkpt lat="43.5147772171" lon="1.5186234098">
        <ele>155.39</ele>
        <time>2017-07-30T07:58:06Z</time>
      </trkpt>
      <trkpt lat="43.5147721041" lon="1.5185674187">
        <ele>155.39</ele>
        <time>2017-07-30T07:58:07Z</time>
      </trkpt>
      <trkpt lat="43.5147720203" lon="1.5185155347">
        <ele>155.39</ele>
        <time>2017-07-30T07:58:08Z</time>
      </trkpt>
      <trkpt lat="43.5147710145" lon="1.5184600465">
        <ele>155.87</ele>
        <time>2017-07-30T07:58:09Z</time>
      </trkpt>
      <trkpt lat="43.5147714335" lon="1.5184087493">
        <ele>155.39</ele>
        <time>2017-07-30T07:58:10Z</time>
      </trkpt>
      <trkpt lat="43.5147400852" lon="1.5181458928">
        <ele>155.39</ele>
        <time>2017-07-30T07:58:15Z</time>
      </trkpt>
      <trkpt lat="43.5147489700" lon="1.5180956852">
        <ele>155.87</ele>
        <time>2017-07-30T07:58:16Z</time>
      </trkpt>
      <trkpt lat="43.5147602856" lon="1.5180458128">
        <ele>155.39</ele>
        <time>2017-07-30T07:58:17Z</time>
      </trkpt>
      <trkpt lat="43.5148196295" lon="1.5175707266">
        <ele>155.87</ele>
        <time>2017-07-30T07:58:26Z</time>
      </trkpt>
      <trkpt lat="43.5148018599" lon="1.5172896814">
        <ele>155.87</ele>
        <time>2017-07-30T07:58:31Z</time>
      </trkpt>
      <trkpt lat="43.5146540869" lon="1.5168871824">
        <ele>155.87</ele>
        <time>2017-07-30T07:58:40Z</time>
      </trkpt>
      <trkpt lat="43.5145928990" lon="1.5167960711">
        <ele>155.87</ele>
        <time>2017-07-30T07:58:42Z</time>
      </trkpt>
      <trkpt lat="43.5145180486" lon="1.5167138446">
        <ele>156.35</ele>
        <time>2017-07-30T07:58:44Z</time>
      </trkpt>
      <trkpt lat="43.5144083295" lon="1.5166200511">
        <ele>156.35</ele>
        <time>2017-07-30T07:58:47Z</time>
      </trkpt>
      <trkpt lat="43.5143685993" lon="1.5166007727">
        <ele>156.35</ele>
        <time>2017-07-30T07:58:48Z</time>
      </trkpt>
      <trkpt lat="43.5142485704" lon="1.5165646467">
        <ele>156.35</ele>
        <time>2017-07-30T07:58:51Z</time>
      </trkpt>
      <trkpt lat="43.5142094269" lon="1.5165620483">
        <ele>156.35</ele>
        <time>2017-07-30T07:58:52Z</time>
      </trkpt>
      <trkpt lat="43.5141714569" lon="1.5165617131">
        <ele>156.35</ele>
        <time>2017-07-30T07:58:53Z</time>
      </trkpt>
      <trkpt lat="43.5141307209" lon="1.5165663231">
        <ele>156.35</ele>
        <time>2017-07-30T07:58:54Z</time>
      </trkpt>
      <trkpt lat="43.5140885599" lon="1.5165738668">
        <ele>156.35</ele>
        <time>2017-07-30T07:58:55Z</time>
      </trkpt>
      <trkpt lat="43.5138315707" lon="1.5166498069">
        <ele>156.35</ele>
        <time>2017-07-30T07:59:01Z</time>
      </trkpt>
      <trkpt lat="43.5137943551" lon="1.5166692529">
        <ele>156.35</ele>
        <time>2017-07-30T07:59:02Z</time>
      </trkpt>
      <trkpt lat="43.5137587320" lon="1.5166841727">
        <ele>156.35</ele>
        <time>2017-07-30T07:59:03Z</time>
      </trkpt>
      <trkpt lat="43.5137206782" lon="1.5166886151">
        <ele>156.35</ele>
        <time>2017-07-30T07:59:04Z</time>
      </trkpt>
      <trkpt lat="43.5136801098" lon="1.5166974999">
        <ele>156.35</ele>
        <time>2017-07-30T07:59:05Z</time>
      </trkpt>
      <trkpt lat="43.5136376973" lon="1.5167042054">
        <ele>156.35</ele>
        <time>2017-07-30T07:59:06Z</time>
      </trkpt>
      <trkpt lat="43.5133765172" lon="1.5167939756">
        <ele>156.35</ele>
        <time>2017-07-30T07:59:12Z</time>
      </trkpt>
      <trkpt lat="43.5128930490" lon="1.5169069637">
        <ele>156.35</ele>
        <time>2017-07-30T07:59:22Z</time>
      </trkpt>
      <trkpt lat="43.5123550985" lon="1.5170587599">
        <ele>155.87</ele>
        <time>2017-07-30T07:59:33Z</time>
      </trkpt>
      <trkpt lat="43.5119217541" lon="1.5171771962">
        <ele>156.35</ele>
        <time>2017-07-30T07:59:43Z</time>
      </trkpt>
      <trkpt lat="43.5116034932" lon="1.5172590874">
        <ele>156.83</ele>
        <time>2017-07-30T07:59:51Z</time>
      </trkpt>
      <trkpt lat="43.5113553051" lon="1.5173248854">
        <ele>158.75</ele>
        <time>2017-07-30T07:59:59Z</time>
      </trkpt>
      <trkpt lat="43.5111336876" lon="1.5174628515">
        <ele>158.27</ele>
        <time>2017-07-30T08:00:09Z</time>
      </trkpt>
      <trkpt lat="43.5111180134" lon="1.5174469259">
        <ele>158.27</ele>
        <time>2017-07-30T08:00:11Z</time>
      </trkpt>
      <trkpt lat="43.5111146607" lon="1.5174273122">
        <ele>157.79</ele>
        <time>2017-07-30T08:00:12Z</time>
      </trkpt>
      <trkpt lat="43.5111219529" lon="1.5174006578">
        <ele>158.27</ele>
        <time>2017-07-30T08:00:14Z</time>
      </trkpt>
      <trkpt lat="43.5111337714" lon="1.5173921920">
        <ele>158.27</ele>
        <time>2017-07-30T08:00:15Z</time>
      </trkpt>
      <trkpt lat="43.5111473501" lon="1.5173854027">
        <ele>158.27</ele>
        <time>2017-07-30T08:00:16Z</time>
      </trkpt>
      <trkpt lat="43.5112268943" lon="1.5173178446">
        <ele>159.24</ele>
        <time>2017-07-30T08:00:22Z</time>
      </trkpt>
      <trkpt lat="43.5112266429" lon="1.5172875021">
        <ele>159.24</ele>
        <time>2017-07-30T08:00:23Z</time>
      </trkpt>
      <trkpt lat="43.5112207755" lon="1.5172551479">
        <ele>159.24</ele>
        <time>2017-07-30T08:00:24Z</time>
      </trkpt>
      <trkpt lat="43.5112129804" lon="1.5172211174">
        <ele>159.24</ele>
        <time>2017-07-30T08:00:25Z</time>
      </trkpt>
      <trkpt lat="43.5112107173" lon="1.5171874221">
        <ele>159.24</ele>
        <time>2017-07-30T08:00:26Z</time>
      </trkpt>
      <trkpt lat="43.5112075321" lon="1.5171566606">
        <ele>159.24</ele>
        <time>2017-07-30T08:00:27Z</time>
      </trkpt>
      <trkpt lat="43.5112002399" lon="1.5171259828">
        <ele>159.24</ele>
        <time>2017-07-30T08:00:28Z</time>
      </trkpt>
      <trkpt lat="43.5111907683" lon="1.5170966461">
        <ele>159.24</ele>
        <time>2017-07-30T08:00:29Z</time>
      </trkpt>
      <trkpt lat="43.5110740084" lon="1.5169094782">
        <ele>159.24</ele>
        <time>2017-07-30T08:00:37Z</time>
      </trkpt>
      <trkpt lat="43.5110554006" lon="1.5169096459">
        <ele>158.75</ele>
        <time>2017-07-30T08:00:38Z</time>
      </trkpt>
      <trkpt lat="43.5110369604" lon="1.5169182792">
        <ele>158.75</ele>
        <time>2017-07-30T08:00:39Z</time>
      </trkpt>
      <trkpt lat="43.5110212862" lon="1.5169368032">
        <ele>158.27</ele>
        <time>2017-07-30T08:00:40Z</time>
      </trkpt>
      <trkpt lat="43.5110067017" lon="1.5169606078">
        <ele>158.27</ele>
        <time>2017-07-30T08:00:41Z</time>
      </trkpt>
      <trkpt lat="43.5109930392" lon="1.5169856697">
        <ele>158.27</ele>
        <time>2017-07-30T08:00:42Z</time>
      </trkpt>
      <trkpt lat="43.5109855793" lon="1.5170096420">
        <ele>158.27</ele>
        <time>2017-07-30T08:00:43Z</time>
      </trkpt>
      <trkpt lat="43.5109831486" lon="1.5170335304">
        <ele>157.79</ele>
        <time>2017-07-30T08:00:44Z</time>
      </trkpt>
      <trkpt lat="43.5109864175" lon="1.5170549881">
        <ele>157.79</ele>
        <time>2017-07-30T08:00:45Z</time>
      </trkpt>
      <trkpt lat="43.5110129882" lon="1.5170754399">
        <ele>157.79</ele>
        <time>2017-07-30T08:00:52Z</time>
      </trkpt>
      <trkpt lat="43.5110379662" lon="1.5170885995">
        <ele>157.79</ele>
        <time>2017-07-30T08:01:01Z</time>
      </trkpt>
      <trkpt lat="43.5110346973" lon="1.5170967299">
        <ele>157.31</ele>
        <time>2017-07-30T08:01:07Z</time>
      </trkpt>
      <trkpt lat="43.5112260561" lon="1.5169924591">
        <ele>157.31</ele>
        <time>2017-07-30T08:40:25Z</time>
      </trkpt>
      <trkpt lat="43.5112114716" lon="1.5169880167">
        <ele>157.31</ele>
        <time>2017-07-30T08:40:26Z</time>
      </trkpt>
      <trkpt lat="43.5110455099" lon="1.5171254799">
        <ele>157.31</ele>
        <time>2017-07-30T08:40:43Z</time>
      </trkpt>
      <trkpt lat="43.5110369604" lon="1.5171446744">
        <ele>157.31</ele>
        <time>2017-07-30T08:40:59Z</time>
      </trkpt>
      <trkpt lat="43.5110155027" lon="1.5171005018">
        <ele>157.31</ele>
        <time>2017-07-30T08:41:17Z</time>
      </trkpt>
      <trkpt lat="43.5110046901" lon="1.5170756914">
        <ele>157.31</ele>
        <time>2017-07-30T08:41:20Z</time>
      </trkpt>
      <trkpt lat="43.5110442527" lon="1.5169089753">
        <ele>157.79</ele>
        <time>2017-07-30T08:41:29Z</time>
      </trkpt>
      <trkpt lat="43.5111251380" lon="1.5170103963">
        <ele>158.75</ele>
        <time>2017-07-30T08:41:36Z</time>
      </trkpt>
      <trkpt lat="43.5111718252" lon="1.5172368754">
        <ele>158.75</ele>
        <time>2017-07-30T08:41:43Z</time>
      </trkpt>
      <trkpt lat="43.5111870803" lon="1.5173453372">
        <ele>158.75</ele>
        <time>2017-07-30T08:41:46Z</time>
      </trkpt>
      <trkpt lat="43.5110657103" lon="1.5174960438">
        <ele>157.31</ele>
        <time>2017-07-30T08:41:53Z</time>
      </trkpt>
      <trkpt lat="43.5109105613" lon="1.5175221954">
        <ele>156.83</ele>
        <time>2017-07-30T08:42:00Z</time>
      </trkpt>
      <trkpt lat="43.5106385686" lon="1.5176066849">
        <ele>157.31</ele>
        <time>2017-07-30T08:42:11Z</time>
      </trkpt>
      <trkpt lat="43.5104425158" lon="1.5176769253">
        <ele>157.79</ele>
        <time>2017-07-30T08:42:19Z</time>
      </trkpt>
      <trkpt lat="43.5102084931" lon="1.5177470818">
        <ele>157.79</ele>
        <time>2017-07-30T08:42:28Z</time>
      </trkpt>
      <trkpt lat="43.5099603049" lon="1.5178474970">
        <ele>157.79</ele>
        <time>2017-07-30T08:42:37Z</time>
      </trkpt>
      <trkpt lat="43.5096942633" lon="1.5179754887">
        <ele>157.31</ele>
        <time>2017-07-30T08:42:44Z</time>
      </trkpt>
      <trkpt lat="43.5096572153" lon="1.5179939289">
        <ele>157.31</ele>
        <time>2017-07-30T08:42:45Z</time>
      </trkpt>
      <trkpt lat="43.5094019864" lon="1.5181928314">
        <ele>157.79</ele>
        <time>2017-07-30T08:42:53Z</time>
      </trkpt>
      <trkpt lat="43.5091505293" lon="1.5184461325">
        <ele>157.79</ele>
        <time>2017-07-30T08:43:02Z</time>
      </trkpt>
      <trkpt lat="43.5088953841" lon="1.5186833404">
        <ele>158.27</ele>
        <time>2017-07-30T08:43:11Z</time>
      </trkpt>
      <trkpt lat="43.5086286720" lon="1.5189330373">
        <ele>158.27</ele>
        <time>2017-07-30T08:43:20Z</time>
      </trkpt>
      <trkpt lat="43.5083907098" lon="1.5192103945">
        <ele>158.27</ele>
        <time>2017-07-30T08:43:28Z</time>
      </trkpt>
      <trkpt lat="43.5082707647" lon="1.5193641186">
        <ele>157.79</ele>
        <time>2017-07-30T08:43:32Z</time>
      </trkpt>
      <trkpt lat="43.5082387459" lon="1.5194048546">
        <ele>157.79</ele>
        <time>2017-07-30T08:43:33Z</time>
      </trkpt>
      <trkpt lat="43.5081986804" lon="1.5194463450">
        <ele>157.79</ele>
        <time>2017-07-30T08:43:34Z</time>
      </trkpt>
      <trkpt lat="43.5081586987" lon="1.5194869135">
        <ele>157.79</ele>
        <time>2017-07-30T08:43:35Z</time>
      </trkpt>
      <trkpt lat="43.5081219859" lon="1.5195287392">
        <ele>157.79</ele>
        <time>2017-07-30T08:43:36Z</time>
      </trkpt>
      <trkpt lat="43.5080853570" lon="1.5195728280">
        <ele>157.79</ele>
        <time>2017-07-30T08:43:37Z</time>
      </trkpt>
      <trkpt lat="43.5079775658" lon="1.5196967125">
        <ele>157.79</ele>
        <time>2017-07-30T08:43:40Z</time>
      </trkpt>
      <trkpt lat="43.5079451278" lon="1.5197340120">
        <ele>157.79</ele>
        <time>2017-07-30T08:43:41Z</time>
      </trkpt>
      <trkpt lat="43.5078401864" lon="1.5198579803">
        <ele>157.79</ele>
        <time>2017-07-30T08:43:44Z</time>
      </trkpt>
      <trkpt lat="43.5075164773" lon="1.5201837011">
        <ele>157.79</ele>
        <time>2017-07-30T08:43:53Z</time>
      </trkpt>
      <trkpt lat="43.5073642619" lon="1.5203113575">
        <ele>157.79</ele>
        <time>2017-07-30T08:43:57Z</time>
      </trkpt>
      <trkpt lat="43.5073298123" lon="1.5203392692">
        <ele>157.79</ele>
        <time>2017-07-30T08:43:58Z</time>
      </trkpt>
      <trkpt lat="43.5070546344" lon="1.5205222461">
        <ele>157.79</ele>
        <time>2017-07-30T08:44:05Z</time>
      </trkpt>
      <trkpt lat="43.5065382253" lon="1.5206925664">
        <ele>157.31</ele>
        <time>2017-07-30T08:44:15Z</time>
      </trkpt>
      <trkpt lat="43.5064936336" lon="1.5207011160">
        <ele>157.31</ele>
        <time>2017-07-30T08:44:16Z</time>
      </trkpt>
      <trkpt lat="43.5064466950" lon="1.5207125153">
        <ele>157.31</ele>
        <time>2017-07-30T08:44:17Z</time>
      </trkpt>
      <trkpt lat="43.5063968226" lon="1.5207198914">
        <ele>157.31</ele>
        <time>2017-07-30T08:44:18Z</time>
      </trkpt>
      <trkpt lat="43.5061431862" lon="1.5207599569">
        <ele>157.31</ele>
        <time>2017-07-30T08:44:23Z</time>
      </trkpt>
      <trkpt lat="43.5060887877" lon="1.5207778104">
        <ele>157.31</ele>
        <time>2017-07-30T08:44:24Z</time>
      </trkpt>
      <trkpt lat="43.5060285218" lon="1.5208010282">
        <ele>157.31</ele>
        <time>2017-07-30T08:44:25Z</time>
      </trkpt>
      <trkpt lat="43.5059677530" lon="1.5208202228">
        <ele>157.31</ele>
        <time>2017-07-30T08:44:26Z</time>
      </trkpt>
      <trkpt lat="43.5059188027" lon="1.5208244976">
        <ele>157.31</ele>
        <time>2017-07-30T08:44:27Z</time>
      </trkpt>
      <trkpt lat="43.5058739595" lon="1.5208314545">
        <ele>157.31</ele>
        <time>2017-07-30T08:44:28Z</time>
      </trkpt>
      <trkpt lat="43.5058281943" lon="1.5208396688">
        <ele>157.31</ele>
        <time>2017-07-30T08:44:29Z</time>
      </trkpt>
      <trkpt lat="43.5056292079" lon="1.5208515711">
        <ele>157.31</ele>
        <time>2017-07-30T08:44:33Z</time>
      </trkpt>
      <trkpt lat="43.5055826046" lon="1.5208590310">
        <ele>157.31</ele>
        <time>2017-07-30T08:44:34Z</time>
      </trkpt>
      <trkpt lat="43.5054857098" lon="1.5208803210">
        <ele>157.31</ele>
        <time>2017-07-30T08:44:36Z</time>
      </trkpt>
      <trkpt lat="43.5053367633" lon="1.5209001023">
        <ele>157.79</ele>
        <time>2017-07-30T08:44:39Z</time>
      </trkpt>
      <trkpt lat="43.5052894056" lon="1.5209161118">
        <ele>157.79</ele>
        <time>2017-07-30T08:44:40Z</time>
      </trkpt>
      <trkpt lat="43.5052431375" lon="1.5209368151">
        <ele>157.31</ele>
        <time>2017-07-30T08:44:41Z</time>
      </trkpt>
      <trkpt lat="43.5051549599" lon="1.5209866036">
        <ele>157.31</ele>
        <time>2017-07-30T08:44:43Z</time>
      </trkpt>
      <trkpt lat="43.5048839729" lon="1.5212134179">
        <ele>157.79</ele>
        <time>2017-07-30T08:44:50Z</time>
      </trkpt>
      <trkpt lat="43.5045975633" lon="1.5215672180">
        <ele>157.31</ele>
        <time>2017-07-30T08:44:58Z</time>
      </trkpt>
      <trkpt lat="43.5045302566" lon="1.5216513723">
        <ele>157.31</ele>
        <time>2017-07-30T08:45:00Z</time>
      </trkpt>
      <trkpt lat="43.5044072941" lon="1.5219029970">
        <ele>157.79</ele>
        <time>2017-07-30T08:45:05Z</time>
      </trkpt>
      <trkpt lat="43.5043378081" lon="1.5221423004">
        <ele>157.79</ele>
        <time>2017-07-30T08:45:09Z</time>
      </trkpt>
      <trkpt lat="43.5043289233" lon="1.5222029015">
        <ele>157.31</ele>
        <time>2017-07-30T08:45:10Z</time>
      </trkpt>
      <trkpt lat="43.5043205414" lon="1.5222641733">
        <ele>157.31</ele>
        <time>2017-07-30T08:45:11Z</time>
      </trkpt>
      <trkpt lat="43.5042850021" lon="1.5224984474">
        <ele>157.31</ele>
        <time>2017-07-30T08:45:15Z</time>
      </trkpt>
      <trkpt lat="43.5042953119" lon="1.5227682609">
        <ele>157.31</ele>
        <time>2017-07-30T08:45:22Z</time>
      </trkpt>
      <trkpt lat="43.5042665619" lon="1.5231353045">
        <ele>156.83</ele>
        <time>2017-07-30T08:45:30Z</time>
      </trkpt>
      <trkpt lat="43.5042254906" lon="1.5236727521">
        <ele>156.83</ele>
        <time>2017-07-30T08:45:41Z</time>
      </trkpt>
      <trkpt lat="43.5042216349" lon="1.5241646022">
        <ele>156.83</ele>
        <time>2017-07-30T08:45:51Z</time>
      </trkpt>
      <trkpt lat="43.5041450243" lon="1.5245868824">
        <ele>156.83</ele>
        <time>2017-07-30T08:46:00Z</time>
      </trkpt>
      <trkpt lat="43.5041240696" lon="1.5246961825">
        <ele>156.83</ele>
        <time>2017-07-30T08:46:02Z</time>
      </trkpt>
      <trkpt lat="43.5041149333" lon="1.5247531794">
        <ele>156.83</ele>
        <time>2017-07-30T08:46:03Z</time>
      </trkpt>
      <trkpt lat="43.5040206369" lon="1.5251584444">
        <ele>156.83</ele>
        <time>2017-07-30T08:46:11Z</time>
      </trkpt>
      <trkpt lat="43.5039099120" lon="1.5257041901">
        <ele>156.83</ele>
        <time>2017-07-30T08:46:21Z</time>
      </trkpt>
      <trkpt lat="43.5038580280" lon="1.5259453375">
        <ele>156.83</ele>
        <time>2017-07-30T08:46:26Z</time>
      </trkpt>
      <trkpt lat="43.5038444493" lon="1.5260051843">
        <ele>156.83</ele>
        <time>2017-07-30T08:46:27Z</time>
      </trkpt>
      <trkpt lat="43.5038329661" lon="1.5260529611">
        <ele>156.83</ele>
        <time>2017-07-30T08:46:28Z</time>
      </trkpt>
      <trkpt lat="43.5038212314" lon="1.5260944515">
        <ele>156.83</ele>
        <time>2017-07-30T08:46:29Z</time>
      </trkpt>
      <trkpt lat="43.5038114246" lon="1.5261367802">
        <ele>156.83</ele>
        <time>2017-07-30T08:46:30Z</time>
      </trkpt>
      <trkpt lat="43.5038013663" lon="1.5261794440">
        <ele>156.83</ele>
        <time>2017-07-30T08:46:31Z</time>
      </trkpt>
      <trkpt lat="43.5036686808" lon="1.5266756527">
        <ele>156.83</ele>
        <time>2017-07-30T08:46:39Z</time>
      </trkpt>
      <trkpt lat="43.5035427846" lon="1.5269722044">
        <ele>156.83</ele>
        <time>2017-07-30T08:46:46Z</time>
      </trkpt>
      <trkpt lat="43.5034123622" lon="1.5272217337">
        <ele>156.83</ele>
        <time>2017-07-30T08:46:52Z</time>
      </trkpt>
      <trkpt lat="43.5031995457" lon="1.5274703410">
        <ele>157.31</ele>
        <time>2017-07-30T08:46:57Z</time>
      </trkpt>
      <trkpt lat="43.5029451549" lon="1.5278057009">
        <ele>156.83</ele>
        <time>2017-07-30T08:47:05Z</time>
      </trkpt>
      <trkpt lat="43.5026381258" lon="1.5280833095">
        <ele>157.31</ele>
        <time>2017-07-30T08:47:13Z</time>
      </trkpt>
      <trkpt lat="43.5023103096" lon="1.5283739939">
        <ele>156.83</ele>
        <time>2017-07-30T08:47:22Z</time>
      </trkpt>
      <trkpt lat="43.5020712577" lon="1.5285920911">
        <ele>157.31</ele>
        <time>2017-07-30T08:47:30Z</time>
      </trkpt>
      <trkpt lat="43.5017862730" lon="1.5288345795">
        <ele>157.79</ele>
        <time>2017-07-30T08:47:38Z</time>
      </trkpt>
      <trkpt lat="43.5015161242" lon="1.5290734638">
        <ele>157.31</ele>
        <time>2017-07-30T08:47:45Z</time>
      </trkpt>
      <trkpt lat="43.5012919083" lon="1.5292726178">
        <ele>156.83</ele>
        <time>2017-07-30T08:47:50Z</time>
      </trkpt>
      <trkpt lat="43.5009987932" lon="1.5295965783">
        <ele>156.83</ele>
        <time>2017-07-30T08:47:58Z</time>
      </trkpt>
      <trkpt lat="43.5007848870" lon="1.5298600215">
        <ele>156.35</ele>
        <time>2017-07-30T08:48:05Z</time>
      </trkpt>
      <trkpt lat="43.5007175803" lon="1.5299473610">
        <ele>156.35</ele>
        <time>2017-07-30T08:48:07Z</time>
      </trkpt>
      <trkpt lat="43.5006822925" lon="1.5299921203">
        <ele>156.35</ele>
        <time>2017-07-30T08:48:08Z</time>
      </trkpt>
      <trkpt lat="43.5006501898" lon="1.5300380532">
        <ele>156.83</ele>
        <time>2017-07-30T08:48:09Z</time>
      </trkpt>
      <trkpt lat="43.5006142315" lon="1.5300850756">
        <ele>156.83</ele>
        <time>2017-07-30T08:48:10Z</time>
      </trkpt>
      <trkpt lat="43.5005776864" lon="1.5301317628">
        <ele>156.35</ele>
        <time>2017-07-30T08:48:11Z</time>
      </trkpt>
      <trkpt lat="43.5002910253" lon="1.5304830484">
        <ele>156.83</ele>
        <time>2017-07-30T08:48:20Z</time>
      </trkpt>
      <trkpt lat="43.5002274066" lon="1.5305547137">
        <ele>157.31</ele>
        <time>2017-07-30T08:48:22Z</time>
      </trkpt>
      <trkpt lat="43.5001882631" lon="1.5305962041">
        <ele>156.83</ele>
        <time>2017-07-30T08:48:23Z</time>
      </trkpt>
      <trkpt lat="43.5000405740" lon="1.5307604894">
        <ele>156.35</ele>
        <time>2017-07-30T08:48:27Z</time>
      </trkpt>
      <trkpt lat="43.4999967366" lon="1.5307972021">
        <ele>156.83</ele>
        <time>2017-07-30T08:48:28Z</time>
      </trkpt>
      <trkpt lat="43.4998446051" lon="1.5309313126">
        <ele>157.31</ele>
        <time>2017-07-30T08:48:32Z</time>
      </trkpt>
      <trkpt lat="43.4998115804" lon="1.5309583861">
        <ele>157.31</ele>
        <time>2017-07-30T08:48:33Z</time>
      </trkpt>
      <trkpt lat="43.4997817408" lon="1.5309861302">
        <ele>157.31</ele>
        <time>2017-07-30T08:48:34Z</time>
      </trkpt>
      <trkpt lat="43.4996110015" lon="1.5311615635">
        <ele>157.31</ele>
        <time>2017-07-30T08:48:39Z</time>
      </trkpt>
      <trkpt lat="43.4993862826" lon="1.5313570295">
        <ele>157.31</ele>
        <time>2017-07-30T08:48:46Z</time>
      </trkpt>
      <trkpt lat="43.4991461411" lon="1.5315649007">
        <ele>157.31</ele>
        <time>2017-07-30T08:48:53Z</time>
      </trkpt>
      <trkpt lat="43.4990585502" lon="1.5316325426">
        <ele>156.83</ele>
        <time>2017-07-30T08:48:55Z</time>
      </trkpt>
      <trkpt lat="43.4990163893" lon="1.5316679142">
        <ele>156.83</ele>
        <time>2017-07-30T08:48:56Z</time>
      </trkpt>
      <trkpt lat="43.4989768267" lon="1.5317030344">
        <ele>156.83</ele>
        <time>2017-07-30T08:48:57Z</time>
      </trkpt>
      <trkpt lat="43.4988614917" lon="1.5317991748">
        <ele>156.83</ele>
        <time>2017-07-30T08:49:00Z</time>
      </trkpt>
      <trkpt lat="43.4987254534" lon="1.5319233947">
        <ele>156.35</ele>
        <time>2017-07-30T08:49:03Z</time>
      </trkpt>
      <trkpt lat="43.4983692225" lon="1.5323144943">
        <ele>156.83</ele>
        <time>2017-07-30T08:49:12Z</time>
      </trkpt>
      <trkpt lat="43.4981187712" lon="1.5326396283">
        <ele>156.83</ele>
        <time>2017-07-30T08:49:20Z</time>
      </trkpt>
      <trkpt lat="43.4978843294" lon="1.5329698753">
        <ele>157.31</ele>
        <time>2017-07-30T08:49:27Z</time>
      </trkpt>
      <trkpt lat="43.4978514723" lon="1.5330174845">
        <ele>157.31</ele>
        <time>2017-07-30T08:49:28Z</time>
      </trkpt>
      <trkpt lat="43.4978150111" lon="1.5330681950">
        <ele>156.83</ele>
        <time>2017-07-30T08:49:29Z</time>
      </trkpt>
      <trkpt lat="43.4977788012" lon="1.5331184864">
        <ele>156.83</ele>
        <time>2017-07-30T08:49:30Z</time>
      </trkpt>
      <trkpt lat="43.4977456089" lon="1.5331691969">
        <ele>156.83</ele>
        <time>2017-07-30T08:49:31Z</time>
      </trkpt>
      <trkpt lat="43.4977156855" lon="1.5332230926">
        <ele>156.83</ele>
        <time>2017-07-30T08:49:32Z</time>
      </trkpt>
      <trkpt lat="43.4974854346" lon="1.5336947422">
        <ele>157.31</ele>
        <time>2017-07-30T08:49:42Z</time>
      </trkpt>
      <trkpt lat="43.4974387474" lon="1.5337943193">
        <ele>157.31</ele>
        <time>2017-07-30T08:49:44Z</time>
      </trkpt>
      <trkpt lat="43.4974102490" lon="1.5338505618">
        <ele>157.31</ele>
        <time>2017-07-30T08:49:45Z</time>
      </trkpt>
      <trkpt lat="43.4972162917" lon="1.5342291724">
        <ele>156.83</ele>
        <time>2017-07-30T08:49:52Z</time>
      </trkpt>
      <trkpt lat="43.4968648385" lon="1.5347637702">
        <ele>157.31</ele>
        <time>2017-07-30T08:50:02Z</time>
      </trkpt>
      <trkpt lat="43.4966175724" lon="1.5351193305">
        <ele>157.31</ele>
        <time>2017-07-30T08:50:09Z</time>
      </trkpt>
      <trkpt lat="43.4962473437" lon="1.5354944207">
        <ele>157.31</ele>
        <time>2017-07-30T08:50:19Z</time>
      </trkpt>
      <trkpt lat="43.4960771073" lon="1.5356577002">
        <ele>158.75</ele>
        <time>2017-07-30T08:50:27Z</time>
      </trkpt>
      <trkpt lat="43.4958489519" lon="1.5358248353">
        <ele>157.79</ele>
        <time>2017-07-30T08:50:35Z</time>
      </trkpt>
      <trkpt lat="43.4952356480" lon="1.5360979177">
        <ele>156.83</ele>
        <time>2017-07-30T08:50:47Z</time>
      </trkpt>
      <trkpt lat="43.4950703569" lon="1.5361647215">
        <ele>156.83</ele>
        <time>2017-07-30T08:50:50Z</time>
      </trkpt>
      <trkpt lat="43.4949599672" lon="1.5361859277">
        <ele>157.31</ele>
        <time>2017-07-30T08:50:52Z</time>
      </trkpt>
      <trkpt lat="43.4945904929" lon="1.5363052022">
        <ele>157.79</ele>
        <time>2017-07-30T08:51:00Z</time>
      </trkpt>
      <trkpt lat="43.4941865690" lon="1.5364129096">
        <ele>158.27</ele>
        <time>2017-07-30T08:51:10Z</time>
      </trkpt>
      <trkpt lat="43.4941441566" lon="1.5364192799">
        <ele>158.27</ele>
        <time>2017-07-30T08:51:11Z</time>
      </trkpt>
      <trkpt lat="43.4936740994" lon="1.5365337767">
        <ele>157.79</ele>
        <time>2017-07-30T08:51:21Z</time>
      </trkpt>
      <trkpt lat="43.4936157614" lon="1.5365487803">
        <ele>157.31</ele>
        <time>2017-07-30T08:51:22Z</time>
      </trkpt>
      <trkpt lat="43.4935490415" lon="1.5365586709">
        <ele>156.83</ele>
        <time>2017-07-30T08:51:23Z</time>
      </trkpt>
      <trkpt lat="43.4931200556" lon="1.5366121475">
        <ele>158.27</ele>
        <time>2017-07-30T08:51:30Z</time>
      </trkpt>
      <trkpt lat="43.4930676688" lon="1.5366224572">
        <ele>158.75</ele>
        <time>2017-07-30T08:51:31Z</time>
      </trkpt>
      <trkpt lat="43.4923890699" lon="1.5366334375">
        <ele>158.27</ele>
        <time>2017-07-30T08:51:44Z</time>
      </trkpt>
      <trkpt lat="43.4921776783" lon="1.5366309229">
        <ele>158.27</ele>
        <time>2017-07-30T08:51:48Z</time>
      </trkpt>
      <trkpt lat="43.4921268839" lon="1.5366393887">
        <ele>158.75</ele>
        <time>2017-07-30T08:51:49Z</time>
      </trkpt>
      <trkpt lat="43.4920758381" lon="1.5366357844">
        <ele>158.27</ele>
        <time>2017-07-30T08:51:50Z</time>
      </trkpt>
      <trkpt lat="43.4918762650" lon="1.5366073698">
        <ele>158.75</ele>
        <time>2017-07-30T08:51:54Z</time>
      </trkpt>
      <trkpt lat="43.4918272309" lon="1.5366059449">
        <ele>158.75</ele>
        <time>2017-07-30T08:51:55Z</time>
      </trkpt>
      <trkpt lat="43.4917776939" lon="1.5365994908">
        <ele>158.75</ele>
        <time>2017-07-30T08:51:56Z</time>
      </trkpt>
      <trkpt lat="43.4916738421" lon="1.5365812182">
        <ele>158.75</ele>
        <time>2017-07-30T08:51:58Z</time>
      </trkpt>
      <trkpt lat="43.4911776334" lon="1.5364418272">
        <ele>157.31</ele>
        <time>2017-07-30T08:52:07Z</time>
      </trkpt>
      <trkpt lat="43.4909790661" lon="1.5363803878">
        <ele>157.31</ele>
        <time>2017-07-30T08:52:11Z</time>
      </trkpt>
      <trkpt lat="43.4909231588" lon="1.5363694914">
        <ele>157.31</ele>
        <time>2017-07-30T08:52:12Z</time>
      </trkpt>
      <trkpt lat="43.4903913271" lon="1.5362271667">
        <ele>158.75</ele>
        <time>2017-07-30T08:52:23Z</time>
      </trkpt>
      <trkpt lat="43.4902211744" lon="1.5362406615">
        <ele>157.79</ele>
        <time>2017-07-30T08:52:27Z</time>
      </trkpt>
      <trkpt lat="43.4901835397" lon="1.5362551622">
        <ele>157.79</ele>
        <time>2017-07-30T08:52:28Z</time>
      </trkpt>
      <trkpt lat="43.4901443124" lon="1.5362699144">
        <ele>157.79</ele>
        <time>2017-07-30T08:52:29Z</time>
      </trkpt>
      <trkpt lat="43.4901028220" lon="1.5362855885">
        <ele>157.79</ele>
        <time>2017-07-30T08:52:30Z</time>
      </trkpt>
      <trkpt lat="43.4900658578" lon="1.5363107342">
        <ele>157.79</ele>
        <time>2017-07-30T08:52:31Z</time>
      </trkpt>
      <trkpt lat="43.4900348447" lon="1.5363415796">
        <ele>157.79</ele>
        <time>2017-07-30T08:52:32Z</time>
      </trkpt>
      <trkpt lat="43.4900021553" lon="1.5363715868">
        <ele>158.27</ele>
        <time>2017-07-30T08:52:33Z</time>
      </trkpt>
      <trkpt lat="43.4899661131" lon="1.5363984089">
        <ele>158.27</ele>
        <time>2017-07-30T08:52:34Z</time>
      </trkpt>
      <trkpt lat="43.4899306577" lon="1.5364295896">
        <ele>158.75</ele>
        <time>2017-07-30T08:52:35Z</time>
      </trkpt>
      <trkpt lat="43.4898607526" lon="1.5365051106">
        <ele>158.27</ele>
        <time>2017-07-30T08:52:37Z</time>
      </trkpt>
      <trkpt lat="43.4897962958" lon="1.5365921985">
        <ele>158.27</ele>
        <time>2017-07-30T08:52:39Z</time>
      </trkpt>
      <trkpt lat="43.4897671267" lon="1.5366414841">
        <ele>158.27</ele>
        <time>2017-07-30T08:52:40Z</time>
      </trkpt>
      <trkpt lat="43.4897192661" lon="1.5367452521">
        <ele>158.75</ele>
        <time>2017-07-30T08:52:42Z</time>
      </trkpt>
      <trkpt lat="43.4897026699" lon="1.5368052665">
        <ele>158.27</ele>
        <time>2017-07-30T08:52:43Z</time>
      </trkpt>
      <trkpt lat="43.4896866605" lon="1.5368629340">
        <ele>158.27</ele>
        <time>2017-07-30T08:52:44Z</time>
      </trkpt>
      <trkpt lat="43.4896273166" lon="1.5370906703">
        <ele>158.75</ele>
        <time>2017-07-30T08:52:48Z</time>
      </trkpt>
      <trkpt lat="43.4895946272" lon="1.5373921674">
        <ele>158.75</ele>
        <time>2017-07-30T08:52:53Z</time>
      </trkpt>
      <trkpt lat="43.4895942081" lon="1.5374526847">
        <ele>158.75</ele>
        <time>2017-07-30T08:52:54Z</time>
      </trkpt>
      <trkpt lat="43.4896350279" lon="1.5380642284">
        <ele>159.24</ele>
        <time>2017-07-30T08:53:05Z</time>
      </trkpt>
      <trkpt lat="43.4896333516" lon="1.5381759591">
        <ele>159.24</ele>
        <time>2017-07-30T08:53:07Z</time>
      </trkpt>
      <trkpt lat="43.4896400571" lon="1.5382365603">
        <ele>158.75</ele>
        <time>2017-07-30T08:53:08Z</time>
      </trkpt>
      <trkpt lat="43.4897325095" lon="1.5390615910">
        <ele>158.75</ele>
        <time>2017-07-30T08:53:21Z</time>
      </trkpt>
      <trkpt lat="43.4897579905" lon="1.5393069293">
        <ele>158.75</ele>
        <time>2017-07-30T08:53:25Z</time>
      </trkpt>
      <trkpt lat="43.4897771012" lon="1.5396044869">
        <ele>158.75</ele>
        <time>2017-07-30T08:53:30Z</time>
      </trkpt>
      <trkpt lat="43.4897746705" lon="1.5397266950">
        <ele>158.27</ele>
        <time>2017-07-30T08:53:32Z</time>
      </trkpt>
      <trkpt lat="43.4897557274" lon="1.5403897874">
        <ele>158.27</ele>
        <time>2017-07-30T08:53:42Z</time>
      </trkpt>
      <trkpt lat="43.4897527937" lon="1.5404560044">
        <ele>158.27</ele>
        <time>2017-07-30T08:53:43Z</time>
      </trkpt>
      <trkpt lat="43.4897510335" lon="1.5405264962">
        <ele>158.27</ele>
        <time>2017-07-30T08:53:44Z</time>
      </trkpt>
      <trkpt lat="43.4897097945" lon="1.5411915164">
        <ele>158.27</ele>
        <time>2017-07-30T08:53:54Z</time>
      </trkpt>
      <trkpt lat="43.4896942042" lon="1.5416407026">
        <ele>158.27</ele>
        <time>2017-07-30T08:54:02Z</time>
      </trkpt>
      <trkpt lat="43.4896732494" lon="1.5417992044">
        <ele>158.75</ele>
        <time>2017-07-30T08:54:05Z</time>
      </trkpt>
      <trkpt lat="43.4896315914" lon="1.5419328958">
        <ele>158.27</ele>
        <time>2017-07-30T08:54:07Z</time>
      </trkpt>
      <trkpt lat="43.4896120615" lon="1.5419990290">
        <ele>158.27</ele>
        <time>2017-07-30T08:54:08Z</time>
      </trkpt>
      <trkpt lat="43.4893813916" lon="1.5426021069">
        <ele>157.79</ele>
        <time>2017-07-30T08:54:17Z</time>
      </trkpt>
      <trkpt lat="43.4893189464" lon="1.5427192859">
        <ele>157.79</ele>
        <time>2017-07-30T08:54:19Z</time>
      </trkpt>
      <trkpt lat="43.4892865922" lon="1.5427721757">
        <ele>157.79</ele>
        <time>2017-07-30T08:54:20Z</time>
      </trkpt>
      <trkpt lat="43.4892539028" lon="1.5428238921">
        <ele>157.79</ele>
        <time>2017-07-30T08:54:21Z</time>
      </trkpt>
      <trkpt lat="43.4889500588" lon="1.5432498604">
        <ele>157.79</ele>
        <time>2017-07-30T08:54:29Z</time>
      </trkpt>
      <trkpt lat="43.4889104962" lon="1.5432973020">
        <ele>157.79</ele>
        <time>2017-07-30T08:54:30Z</time>
      </trkpt>
      <trkpt lat="43.4886866156" lon="1.5435941052">
        <ele>157.31</ele>
        <time>2017-07-30T08:54:36Z</time>
      </trkpt>
      <trkpt lat="43.4886447899" lon="1.5436468273">
        <ele>157.31</ele>
        <time>2017-07-30T08:54:37Z</time>
      </trkpt>
      <trkpt lat="43.4883137885" lon="1.5441058204">
        <ele>157.79</ele>
        <time>2017-07-30T08:54:46Z</time>
      </trkpt>
      <trkpt lat="43.4880269598" lon="1.5445405059">
        <ele>158.75</ele>
        <time>2017-07-30T08:54:55Z</time>
      </trkpt>
      <trkpt lat="43.4877313301" lon="1.5450232197">
        <ele>158.27</ele>
        <time>2017-07-30T08:55:04Z</time>
      </trkpt>
      <trkpt lat="43.4873242211" lon="1.5455538779">
        <ele>157.79</ele>
        <time>2017-07-30T08:55:15Z</time>
      </trkpt>
      <trkpt lat="43.4872852452" lon="1.5455968771">
        <ele>157.79</ele>
        <time>2017-07-30T08:55:16Z</time>
      </trkpt>
      <trkpt lat="43.4872018453" lon="1.5456746612">
        <ele>157.79</ele>
        <time>2017-07-30T08:55:18Z</time>
      </trkpt>
      <trkpt lat="43.4867716860" lon="1.5459926706">
        <ele>157.79</ele>
        <time>2017-07-30T08:55:27Z</time>
      </trkpt>
      <trkpt lat="43.4864829294" lon="1.5461493284">
        <ele>158.27</ele>
        <time>2017-07-30T08:55:33Z</time>
      </trkpt>
      <trkpt lat="43.4860175662" lon="1.5463136975">
        <ele>157.79</ele>
        <time>2017-07-30T08:55:42Z</time>
      </trkpt>
      <trkpt lat="43.4859626647" lon="1.5463278629">
        <ele>158.27</ele>
        <time>2017-07-30T08:55:43Z</time>
      </trkpt>
      <trkpt lat="43.4857602417" lon="1.5463711973">
        <ele>157.79</ele>
        <time>2017-07-30T08:55:47Z</time>
      </trkpt>
      <trkpt lat="43.4853372909" lon="1.5464323014">
        <ele>157.79</ele>
        <time>2017-07-30T08:55:55Z</time>
      </trkpt>
      <trkpt lat="43.4852935374" lon="1.5464445390">
        <ele>157.79</ele>
        <time>2017-07-30T08:55:56Z</time>
      </trkpt>
      <trkpt lat="43.4852494486" lon="1.5464565251">
        <ele>158.27</ele>
        <time>2017-07-30T08:55:57Z</time>
      </trkpt>
      <trkpt lat="43.4851997439" lon="1.5464714449">
        <ele>158.27</ele>
        <time>2017-07-30T08:55:58Z</time>
      </trkpt>
      <trkpt lat="43.4851475246" lon="1.5464872867">
        <ele>158.27</ele>
        <time>2017-07-30T08:55:59Z</time>
      </trkpt>
      <trkpt lat="43.4847845882" lon="1.5466099977">
        <ele>158.27</ele>
        <time>2017-07-30T08:56:06Z</time>
      </trkpt>
      <trkpt lat="43.4843416885" lon="1.5467885323">
        <ele>158.75</ele>
        <time>2017-07-30T08:56:15Z</time>
      </trkpt>
      <trkpt lat="43.4840564523" lon="1.5468663163">
        <ele>158.75</ele>
        <time>2017-07-30T08:56:21Z</time>
      </trkpt>
      <trkpt lat="43.4840095975" lon="1.5468638856">
        <ele>158.75</ele>
        <time>2017-07-30T08:56:22Z</time>
      </trkpt>
      <trkpt lat="43.4839586355" lon="1.5468529891">
        <ele>158.75</ele>
        <time>2017-07-30T08:56:23Z</time>
      </trkpt>
      <trkpt lat="43.4839055780" lon="1.5468401648">
        <ele>158.75</ele>
        <time>2017-07-30T08:56:24Z</time>
      </trkpt>
      <trkpt lat="43.4838529397" lon="1.5468278434">
        <ele>158.75</ele>
        <time>2017-07-30T08:56:25Z</time>
      </trkpt>
      <trkpt lat="43.4838029835" lon="1.5468187910">
        <ele>158.75</ele>
        <time>2017-07-30T08:56:26Z</time>
      </trkpt>
      <trkpt lat="43.4836188331" lon="1.5467731934">
        <ele>158.75</ele>
        <time>2017-07-30T08:56:30Z</time>
      </trkpt>
      <trkpt lat="43.4835713916" lon="1.5467553400">
        <ele>158.75</ele>
        <time>2017-07-30T08:56:31Z</time>
      </trkpt>
      <trkpt lat="43.4832444973" lon="1.5466434415">
        <ele>158.75</ele>
        <time>2017-07-30T08:56:38Z</time>
      </trkpt>
      <trkpt lat="43.4831960499" lon="1.5466477163">
        <ele>158.75</ele>
        <time>2017-07-30T08:56:39Z</time>
      </trkpt>
      <trkpt lat="43.4831470996" lon="1.5466604568">
        <ele>159.24</ele>
        <time>2017-07-30T08:56:40Z</time>
      </trkpt>
      <trkpt lat="43.4829535615" lon="1.5467483830">
        <ele>159.24</ele>
        <time>2017-07-30T08:56:44Z</time>
      </trkpt>
      <trkpt lat="43.4825949837" lon="1.5470450185">
        <ele>159.24</ele>
        <time>2017-07-30T08:56:52Z</time>
      </trkpt>
      <trkpt lat="43.4822013695" lon="1.5474724956">
        <ele>159.24</ele>
        <time>2017-07-30T08:57:01Z</time>
      </trkpt>
      <trkpt lat="43.4821568616" lon="1.5475108009">
        <ele>159.24</ele>
        <time>2017-07-30T08:57:02Z</time>
      </trkpt>
      <trkpt lat="43.4821116831" lon="1.5475463402">
        <ele>159.24</ele>
        <time>2017-07-30T08:57:03Z</time>
      </trkpt>
      <trkpt lat="43.4820618108" lon="1.5475740843">
        <ele>159.24</ele>
        <time>2017-07-30T08:57:04Z</time>
      </trkpt>
      <trkpt lat="43.4820113517" lon="1.5475976374">
        <ele>159.24</ele>
        <time>2017-07-30T08:57:05Z</time>
      </trkpt>
      <trkpt lat="43.4819594678" lon="1.5476252977">
        <ele>159.24</ele>
        <time>2017-07-30T08:57:06Z</time>
      </trkpt>
      <trkpt lat="43.4814250376" lon="1.5479543712">
        <ele>158.27</ele>
        <time>2017-07-30T08:57:16Z</time>
      </trkpt>
      <trkpt lat="43.4813660290" lon="1.5479651000">
        <ele>158.27</ele>
        <time>2017-07-30T08:57:17Z</time>
      </trkpt>
      <trkpt lat="43.4813066013" lon="1.5479767509">
        <ele>158.27</ele>
        <time>2017-07-30T08:57:18Z</time>
      </trkpt>
      <trkpt lat="43.4812464193" lon="1.5480013937">
        <ele>157.79</ele>
        <time>2017-07-30T08:57:19Z</time>
      </trkpt>
      <trkpt lat="43.4811859857" lon="1.5480372682">
        <ele>157.79</ele>
        <time>2017-07-30T08:57:20Z</time>
      </trkpt>
      <trkpt lat="43.4811237082" lon="1.5480824467">
        <ele>157.79</ele>
        <time>2017-07-30T08:57:21Z</time>
      </trkpt>
      <trkpt lat="43.4810051881" lon="1.5481808502">
        <ele>157.31</ele>
        <time>2017-07-30T08:57:23Z</time>
      </trkpt>
      <trkpt lat="43.4809489455" lon="1.5482350811">
        <ele>157.79</ele>
        <time>2017-07-30T08:57:24Z</time>
      </trkpt>
      <trkpt lat="43.4808939602" lon="1.5482963528">
        <ele>157.31</ele>
        <time>2017-07-30T08:57:25Z</time>
      </trkpt>
      <trkpt lat="43.4808511287" lon="1.5483636595">
        <ele>157.31</ele>
        <time>2017-07-30T08:57:26Z</time>
      </trkpt>
      <trkpt lat="43.4808214568" lon="1.5484358277">
        <ele>157.31</ele>
        <time>2017-07-30T08:57:27Z</time>
      </trkpt>
      <trkpt lat="43.4808005858" lon="1.5485181380">
        <ele>157.31</ele>
        <time>2017-07-30T08:57:28Z</time>
      </trkpt>
      <trkpt lat="43.4807877615" lon="1.5486015379">
        <ele>157.79</ele>
        <time>2017-07-30T08:57:29Z</time>
      </trkpt>
      <trkpt lat="43.4807789605" lon="1.5486854408">
        <ele>157.79</ele>
        <time>2017-07-30T08:57:30Z</time>
      </trkpt>
      <trkpt lat="43.4807294235" lon="1.5490767080">
        <ele>158.75</ele>
        <time>2017-07-30T08:57:35Z</time>
      </trkpt>
      <trkpt lat="43.4807102289" lon="1.5491492115">
        <ele>158.75</ele>
        <time>2017-07-30T08:57:36Z</time>
      </trkpt>
      <trkpt lat="43.4806362167" lon="1.5494460147">
        <ele>159.24</ele>
        <time>2017-07-30T08:57:40Z</time>
      </trkpt>
      <trkpt lat="43.4806215484" lon="1.5495185181">
        <ele>158.75</ele>
        <time>2017-07-30T08:57:41Z</time>
      </trkpt>
      <trkpt lat="43.4805695806" lon="1.5497434046">
        <ele>159.24</ele>
        <time>2017-07-30T08:57:44Z</time>
      </trkpt>
      <trkpt lat="43.4804632142" lon="1.5500324965">
        <ele>158.75</ele>
        <time>2017-07-30T08:57:48Z</time>
      </trkpt>
      <trkpt lat="43.4804296866" lon="1.5500940196">
        <ele>158.75</ele>
        <time>2017-07-30T08:57:49Z</time>
      </trkpt>
      <trkpt lat="43.4803151898" lon="1.5502626635">
        <ele>158.75</ele>
        <time>2017-07-30T08:57:52Z</time>
      </trkpt>
      <trkpt lat="43.4798794985" lon="1.5506486502">
        <ele>159.24</ele>
        <time>2017-07-30T08:58:02Z</time>
      </trkpt>
      <trkpt lat="43.4794495907" lon="1.5509509016">
        <ele>159.24</ele>
        <time>2017-07-30T08:58:12Z</time>
      </trkpt>
      <trkpt lat="43.4789310861" lon="1.5512985829">
        <ele>158.75</ele>
        <time>2017-07-30T08:58:23Z</time>
      </trkpt>
      <trkpt lat="43.4784594364" lon="1.5517459251">
        <ele>158.75</ele>
        <time>2017-07-30T08:58:34Z</time>
      </trkpt>
      <trkpt lat="43.4782000165" lon="1.5521028265">
        <ele>159.24</ele>
        <time>2017-07-30T08:58:42Z</time>
      </trkpt>
      <trkpt lat="43.4779715259" lon="1.5524458140">
        <ele>158.27</ele>
        <time>2017-07-30T08:58:48Z</time>
      </trkpt>
      <trkpt lat="43.4779190551" lon="1.5524986200">
        <ele>157.79</ele>
        <time>2017-07-30T08:58:49Z</time>
      </trkpt>
      <trkpt lat="43.4776472300" lon="1.5527449641">
        <ele>159.72</ele>
        <time>2017-07-30T08:58:56Z</time>
      </trkpt>
      <trkpt lat="43.4774477407" lon="1.5529764723">
        <ele>158.27</ele>
        <time>2017-07-30T08:59:05Z</time>
      </trkpt>
      <trkpt lat="43.4770918451" lon="1.5533680748">
        <ele>157.79</ele>
        <time>2017-07-30T08:59:14Z</time>
      </trkpt>
      <trkpt lat="43.4769332595" lon="1.5535265766">
        <ele>157.79</ele>
        <time>2017-07-30T08:59:18Z</time>
      </trkpt>
      <trkpt lat="43.4768983908" lon="1.5535649657">
        <ele>157.79</ele>
        <time>2017-07-30T08:59:19Z</time>
      </trkpt>
      <trkpt lat="43.4768641926" lon="1.5536075458">
        <ele>157.79</ele>
        <time>2017-07-30T08:59:20Z</time>
      </trkpt>
      <trkpt lat="43.4768298268" lon="1.5536461025">
        <ele>157.79</ele>
        <time>2017-07-30T08:59:21Z</time>
      </trkpt>
      <trkpt lat="43.4767930303" lon="1.5536763612">
        <ele>157.79</ele>
        <time>2017-07-30T08:59:22Z</time>
      </trkpt>
      <trkpt lat="43.4767541382" lon="1.5537060332">
        <ele>157.79</ele>
        <time>2017-07-30T08:59:23Z</time>
      </trkpt>
      <trkpt lat="43.4766457602" lon="1.5537998267">
        <ele>158.27</ele>
        <time>2017-07-30T08:59:26Z</time>
      </trkpt>
      <trkpt lat="43.4762286767" lon="1.5541524533">
        <ele>158.75</ele>
        <time>2017-07-30T08:59:38Z</time>
      </trkpt>
      <trkpt lat="43.4761492163" lon="1.5542242862">
        <ele>158.75</ele>
        <time>2017-07-30T08:59:40Z</time>
      </trkpt>
      <trkpt lat="43.4758468810" lon="1.5544842090">
        <ele>158.75</ele>
        <time>2017-07-30T08:59:46Z</time>
      </trkpt>
      <trkpt lat="43.4755414445" lon="1.5547956806">
        <ele>159.24</ele>
        <time>2017-07-30T08:59:54Z</time>
      </trkpt>
      <trkpt lat="43.4754385985" lon="1.5549134463">
        <ele>159.24</ele>
        <time>2017-07-30T08:59:57Z</time>
      </trkpt>
      <trkpt lat="43.4750497621" lon="1.5553223155">
        <ele>158.75</ele>
        <time>2017-07-30T09:00:07Z</time>
      </trkpt>
      <trkpt lat="43.4747009072" lon="1.5556681529">
        <ele>158.75</ele>
        <time>2017-07-30T09:00:16Z</time>
      </trkpt>
      <trkpt lat="43.4743205365" lon="1.5560416505">
        <ele>158.75</ele>
        <time>2017-07-30T09:00:25Z</time>
      </trkpt>
      <trkpt lat="43.4740469512" lon="1.5562152397">
        <ele>158.75</ele>
        <time>2017-07-30T09:00:30Z</time>
      </trkpt>
      <trkpt lat="43.4739948995" lon="1.5562402178">
        <ele>158.27</ele>
        <time>2017-07-30T09:00:31Z</time>
      </trkpt>
      <trkpt lat="43.4739432670" lon="1.5562664531">
        <ele>158.27</ele>
        <time>2017-07-30T09:00:32Z</time>
      </trkpt>
      <trkpt lat="43.4738907963" lon="1.5562863182">
        <ele>158.27</ele>
        <time>2017-07-30T09:00:33Z</time>
      </trkpt>
      <trkpt lat="43.4738389123" lon="1.5563097876">
        <ele>158.27</ele>
        <time>2017-07-30T09:00:34Z</time>
      </trkpt>
      <trkpt lat="43.4737858549" lon="1.5563371964">
        <ele>157.79</ele>
        <time>2017-07-30T09:00:35Z</time>
      </trkpt>
      <trkpt lat="43.4734266065" lon="1.5565132163">
        <ele>158.27</ele>
        <time>2017-07-30T09:00:42Z</time>
      </trkpt>
      <trkpt lat="43.4732740559" lon="1.5565962810">
        <ele>158.27</ele>
        <time>2017-07-30T09:00:45Z</time>
      </trkpt>
      <trkpt lat="43.4732246026" lon="1.5566144697">
        <ele>158.27</ele>
        <time>2017-07-30T09:00:46Z</time>
      </trkpt>
      <trkpt lat="43.4731769934" lon="1.5566351730">
        <ele>158.27</ele>
        <time>2017-07-30T09:00:47Z</time>
      </trkpt>
      <trkpt lat="43.4729851317" lon="1.5567350853">
        <ele>161.16</ele>
        <time>2017-07-30T09:00:51Z</time>
      </trkpt>
      <trkpt lat="43.4728865605" lon="1.5567899030">
        <ele>158.27</ele>
        <time>2017-07-30T09:00:53Z</time>
      </trkpt>
      <trkpt lat="43.4728343412" lon="1.5568088461">
        <ele>156.35</ele>
        <time>2017-07-30T09:00:54Z</time>
      </trkpt>
      <trkpt lat="43.4727801103" lon="1.5568339080">
        <ele>159.24</ele>
        <time>2017-07-30T09:00:55Z</time>
      </trkpt>
      <trkpt lat="43.4727268014" lon="1.5568659268">
        <ele>156.35</ele>
        <time>2017-07-30T09:00:56Z</time>
      </trkpt>
      <trkpt lat="43.4726750012" lon="1.5568976942">
        <ele>161.64</ele>
        <time>2017-07-30T09:00:57Z</time>
      </trkpt>
      <trkpt lat="43.4726258833" lon="1.5569246002">
        <ele>157.31</ele>
        <time>2017-07-30T09:00:58Z</time>
      </trkpt>
      <trkpt lat="43.4725316707" lon="1.5569644980">
        <ele>158.75</ele>
        <time>2017-07-30T09:01:00Z</time>
      </trkpt>
      <trkpt lat="43.4724873304" lon="1.5569800045">
        <ele>158.75</ele>
        <time>2017-07-30T09:01:01Z</time>
      </trkpt>
      <trkpt lat="43.4724454209" lon="1.5569977742">
        <ele>158.75</ele>
        <time>2017-07-30T09:01:02Z</time>
      </trkpt>
      <trkpt lat="43.4723172616" lon="1.5570442099">
        <ele>158.75</ele>
        <time>2017-07-30T09:01:05Z</time>
      </trkpt>
      <trkpt lat="43.4722670540" lon="1.5570558608">
        <ele>159.24</ele>
        <time>2017-07-30T09:01:06Z</time>
      </trkpt>
      <trkpt lat="43.4719494637" lon="1.5571692679">
        <ele>158.75</ele>
        <time>2017-07-30T09:01:13Z</time>
      </trkpt>
      <trkpt lat="43.4715162870" lon="1.5572934039">
        <ele>158.27</ele>
        <time>2017-07-30T09:01:22Z</time>
      </trkpt>
      <trkpt lat="43.4711576253" lon="1.5573765524">
        <ele>158.27</ele>
        <time>2017-07-30T09:01:29Z</time>
      </trkpt>
      <trkpt lat="43.4711077530" lon="1.5573900472">
        <ele>158.27</ele>
        <time>2017-07-30T09:01:30Z</time>
      </trkpt>
      <trkpt lat="43.4707910009" lon="1.5574621316">
        <ele>158.27</ele>
        <time>2017-07-30T09:01:36Z</time>
      </trkpt>
      <trkpt lat="43.4703926090" lon="1.5576094016">
        <ele>158.27</ele>
        <time>2017-07-30T09:01:43Z</time>
      </trkpt>
      <trkpt lat="43.4700777847" lon="1.5578265768">
        <ele>158.75</ele>
        <time>2017-07-30T09:01:50Z</time>
      </trkpt>
      <trkpt lat="43.4700000845" lon="1.5578987449">
        <ele>158.75</ele>
        <time>2017-07-30T09:01:52Z</time>
      </trkpt>
      <trkpt lat="43.4699611925" lon="1.5579346195">
        <ele>158.75</ele>
        <time>2017-07-30T09:01:53Z</time>
      </trkpt>
      <trkpt lat="43.4696488827" lon="1.5583505295">
        <ele>158.75</ele>
        <time>2017-07-30T09:02:02Z</time>
      </trkpt>
      <trkpt lat="43.4696177021" lon="1.5583978873">
        <ele>158.75</ele>
        <time>2017-07-30T09:02:03Z</time>
      </trkpt>
      <trkpt lat="43.4695852641" lon="1.5584494360">
        <ele>158.75</ele>
        <time>2017-07-30T09:02:04Z</time>
      </trkpt>
      <trkpt lat="43.4695545025" lon="1.5585006494">
        <ele>158.75</ele>
        <time>2017-07-30T09:02:05Z</time>
      </trkpt>
      <trkpt lat="43.4694571048" lon="1.5586759150">
        <ele>158.27</ele>
        <time>2017-07-30T09:02:08Z</time>
      </trkpt>
      <trkpt lat="43.4692478925" lon="1.5591075830">
        <ele>158.75</ele>
        <time>2017-07-30T09:02:15Z</time>
      </trkpt>
      <trkpt lat="43.4689816833" lon="1.5596495569">
        <ele>159.24</ele>
        <time>2017-07-30T09:02:24Z</time>
      </trkpt>
      <trkpt lat="43.4688939247" lon="1.5598403290">
        <ele>158.75</ele>
        <time>2017-07-30T09:02:27Z</time>
      </trkpt>
      <trkpt lat="43.4685293119" lon="1.5605928563">
        <ele>158.75</ele>
        <time>2017-07-30T09:02:39Z</time>
      </trkpt>
      <trkpt lat="43.4682276472" lon="1.5612171404">
        <ele>158.75</ele>
        <time>2017-07-30T09:02:49Z</time>
      </trkpt>
      <trkpt lat="43.4680495318" lon="1.5615964215">
        <ele>159.24</ele>
        <time>2017-07-30T09:02:55Z</time>
      </trkpt>
      <trkpt lat="43.4680170100" lon="1.5616594534">
        <ele>159.24</ele>
        <time>2017-07-30T09:02:56Z</time>
      </trkpt>
      <trkpt lat="43.4678700753" lon="1.5619508084">
        <ele>159.24</ele>
        <time>2017-07-30T09:03:01Z</time>
      </trkpt>
      <trkpt lat="43.4678454325" lon="1.5620105714">
        <ele>159.24</ele>
        <time>2017-07-30T09:03:02Z</time>
      </trkpt>
      <trkpt lat="43.4676199593" lon="1.5625114739">
        <ele>158.27</ele>
        <time>2017-07-30T09:03:10Z</time>
      </trkpt>
      <trkpt lat="43.4675947297" lon="1.5625680517">
        <ele>158.27</ele>
        <time>2017-07-30T09:03:11Z</time>
      </trkpt>
      <trkpt lat="43.4673638921" lon="1.5630308166">
        <ele>158.27</ele>
        <time>2017-07-30T09:03:19Z</time>
      </trkpt>
      <trkpt lat="43.4671043046" lon="1.5636083297">
        <ele>158.75</ele>
        <time>2017-07-30T09:03:28Z</time>
      </trkpt>
      <trkpt lat="43.4670759737" lon="1.5636698529">
        <ele>158.75</ele>
        <time>2017-07-30T09:03:29Z</time>
      </trkpt>
      <trkpt lat="43.4667547792" lon="1.5645049419">
        <ele>158.75</ele>
        <time>2017-07-30T09:03:41Z</time>
      </trkpt>
      <trkpt lat="43.4667313937" lon="1.5645688958">
        <ele>158.75</ele>
        <time>2017-07-30T09:03:42Z</time>
      </trkpt>
      <trkpt lat="43.4665831178" lon="1.5649920143">
        <ele>158.75</ele>
        <time>2017-07-30T09:03:49Z</time>
      </trkpt>
      <trkpt lat="43.4665575530" lon="1.5650618356">
        <ele>158.75</ele>
        <time>2017-07-30T09:03:50Z</time>
      </trkpt>
      <trkpt lat="43.4665301442" lon="1.5651341714">
        <ele>158.75</ele>
        <time>2017-07-30T09:03:51Z</time>
      </trkpt>
      <trkpt lat="43.4664636757" lon="1.5653232671">
        <ele>158.75</ele>
        <time>2017-07-30T09:03:54Z</time>
      </trkpt>
      <trkpt lat="43.4664164856" lon="1.5654606465">
        <ele>158.75</ele>
        <time>2017-07-30T09:03:56Z</time>
      </trkpt>
      <trkpt lat="43.4663935192" lon="1.5655308031">
        <ele>158.27</ele>
        <time>2017-07-30T09:03:57Z</time>
      </trkpt>
      <trkpt lat="43.4661525395" lon="1.5661778022">
        <ele>158.75</ele>
        <time>2017-07-30T09:04:06Z</time>
      </trkpt>
      <trkpt lat="43.4659050219" lon="1.5667852387">
        <ele>158.27</ele>
        <time>2017-07-30T09:04:15Z</time>
      </trkpt>
      <trkpt lat="43.4657606855" lon="1.5671202634">
        <ele>158.75</ele>
        <time>2017-07-30T09:04:20Z</time>
      </trkpt>
      <trkpt lat="43.4657248110" lon="1.5671887435">
        <ele>158.75</ele>
        <time>2017-07-30T09:04:21Z</time>
      </trkpt>
      <trkpt lat="43.4654865135" lon="1.5676684398">
        <ele>158.75</ele>
        <time>2017-07-30T09:04:29Z</time>
      </trkpt>
      <trkpt lat="43.4652130958" lon="1.5681876149">
        <ele>159.24</ele>
        <time>2017-07-30T09:04:38Z</time>
      </trkpt>
      <trkpt lat="43.4649624769" lon="1.5686366335">
        <ele>159.72</ele>
        <time>2017-07-30T09:04:48Z</time>
      </trkpt>
      <trkpt lat="43.4647423681" lon="1.5690452512">
        <ele>159.72</ele>
        <time>2017-07-30T09:04:56Z</time>
      </trkpt>
      <trkpt lat="43.4645120334" lon="1.5694727283">
        <ele>161.16</ele>
        <time>2017-07-30T09:05:06Z</time>
      </trkpt>
      <trkpt lat="43.4643749893" lon="1.5696819406">
        <ele>161.16</ele>
        <time>2017-07-30T09:05:14Z</time>
      </trkpt>
      <trkpt lat="43.4641212691" lon="1.5699433722">
        <ele>159.72</ele>
        <time>2017-07-30T09:05:22Z</time>
      </trkpt>
      <trkpt lat="43.4640819579" lon="1.5699794982">
        <ele>159.72</ele>
        <time>2017-07-30T09:05:23Z</time>
      </trkpt>
      <trkpt lat="43.4639637731" lon="1.5701065678">
        <ele>159.24</ele>
        <time>2017-07-30T09:05:26Z</time>
      </trkpt>
      <trkpt lat="43.4635896049" lon="1.5704616252">
        <ele>159.24</ele>
        <time>2017-07-30T09:05:36Z</time>
      </trkpt>
      <trkpt lat="43.4631153569" lon="1.5707711689">
        <ele>159.72</ele>
        <time>2017-07-30T09:05:49Z</time>
      </trkpt>
      <trkpt lat="43.4629318770" lon="1.5708633699">
        <ele>160.20</ele>
        <time>2017-07-30T09:05:58Z</time>
      </trkpt>
      <trkpt lat="43.4628843516" lon="1.5709046088">
        <ele>160.20</ele>
        <time>2017-07-30T09:06:01Z</time>
      </trkpt>
      <trkpt lat="43.4628674202" lon="1.5709157567">
        <ele>160.20</ele>
        <time>2017-07-30T09:06:02Z</time>
      </trkpt>
      <trkpt lat="43.4628462140" lon="1.5709325206">
        <ele>160.68</ele>
        <time>2017-07-30T09:06:03Z</time>
      </trkpt>
      <trkpt lat="43.4628284443" lon="1.5709556546">
        <ele>160.20</ele>
        <time>2017-07-30T09:06:04Z</time>
      </trkpt>
      <trkpt lat="43.4628109261" lon="1.5709782857">
        <ele>160.20</ele>
        <time>2017-07-30T09:06:05Z</time>
      </trkpt>
      <trkpt lat="43.4626736306" lon="1.5710722469">
        <ele>160.68</ele>
        <time>2017-07-30T09:06:14Z</time>
      </trkpt>
      <trkpt lat="43.4626569506" lon="1.5710607637">
        <ele>160.68</ele>
        <time>2017-07-30T09:06:24Z</time>
      </trkpt>
      <trkpt lat="43.4626568668" lon="1.5710585006">
        <ele>160.68</ele>
        <time>2017-07-30T09:06:39Z</time>
      </trkpt>
      <trkpt lat="43.4626494907" lon="1.5710546449">
        <ele>160.68</ele>
        <time>2017-07-30T09:06:58Z</time>
      </trkpt>
      <trkpt lat="43.4626424499" lon="1.5710391384">
        <ele>160.68</ele>
        <time>2017-07-30T09:07:03Z</time>
      </trkpt>
      <trkpt lat="43.4626474790" lon="1.5710110590">
        <ele>160.68</ele>
        <time>2017-07-30T09:07:12Z</time>
      </trkpt>
      <trkpt lat="43.4626496583" lon="1.5710004978">
        <ele>160.68</ele>
        <time>2017-07-30T09:07:24Z</time>
      </trkpt>
      <trkpt lat="43.4626494069" lon="1.5709843207">
        <ele>160.68</ele>
        <time>2017-07-30T09:07:48Z</time>
      </trkpt>
      <trkpt lat="43.4626562800" lon="1.5709953848">
        <ele>161.16</ele>
        <time>2017-07-30T09:08:12Z</time>
      </trkpt>
      <trkpt lat="43.4626604710" lon="1.5709931217">
        <ele>161.16</ele>
        <time>2017-07-30T09:08:35Z</time>
      </trkpt>
      <trkpt lat="43.4626648296" lon="1.5709968936">
        <ele>161.16</ele>
        <time>2017-07-30T09:08:56Z</time>
      </trkpt>
      <trkpt lat="43.4626634885" lon="1.5709894337">
        <ele>161.64</ele>
        <time>2017-07-30T09:09:19Z</time>
      </trkpt>
      <trkpt lat="43.4626599681" lon="1.5709908586">
        <ele>161.64</ele>
        <time>2017-07-30T09:09:35Z</time>
      </trkpt>
      <trkpt lat="43.4626561962" lon="1.5709901042">
        <ele>161.64</ele>
        <time>2017-07-30T09:09:48Z</time>
      </trkpt>
      <trkpt lat="43.4626566153" lon="1.5709870867">
        <ele>161.64</ele>
        <time>2017-07-30T09:10:05Z</time>
      </trkpt>
      <trkpt lat="43.4626637399" lon="1.5709799621">
        <ele>161.64</ele>
        <time>2017-07-30T09:10:24Z</time>
      </trkpt>
      <trkpt lat="43.4626781568" lon="1.5709883440">
        <ele>161.64</ele>
        <time>2017-07-30T09:10:34Z</time>
      </trkpt>
      <trkpt lat="43.4626876283" lon="1.5710216202">
        <ele>161.64</ele>
        <time>2017-07-30T09:10:41Z</time>
      </trkpt>
      <trkpt lat="43.4626837727" lon="1.5710397251">
        <ele>162.12</ele>
        <time>2017-07-30T09:10:42Z</time>
      </trkpt>
      <trkpt lat="43.4626758099" lon="1.5710537229">
        <ele>162.12</ele>
        <time>2017-07-30T09:10:43Z</time>
      </trkpt>
      <trkpt lat="43.4626633208" lon="1.5710623562">
        <ele>162.12</ele>
        <time>2017-07-30T09:10:44Z</time>
      </trkpt>
      <trkpt lat="43.4626489040" lon="1.5710691456">
        <ele>162.12</ele>
        <time>2017-07-30T09:10:45Z</time>
      </trkpt>
      <trkpt lat="43.4626375884" lon="1.5710797906">
        <ele>162.12</ele>
        <time>2017-07-30T09:10:46Z</time>
      </trkpt>
      <trkpt lat="43.4626276977" lon="1.5710914414">
        <ele>162.12</ele>
        <time>2017-07-30T09:10:47Z</time>
      </trkpt>
      <trkpt lat="43.4626137000" lon="1.5711033437">
        <ele>162.12</ele>
        <time>2017-07-30T09:10:48Z</time>
      </trkpt>
      <trkpt lat="43.4625963494" lon="1.5711145755">
        <ele>162.12</ele>
        <time>2017-07-30T09:10:49Z</time>
      </trkpt>
      <trkpt lat="43.4625795018" lon="1.5711227898">
        <ele>162.12</ele>
        <time>2017-07-30T09:10:50Z</time>
      </trkpt>
      <trkpt lat="43.4624269512" lon="1.5712484345">
        <ele>162.60</ele>
        <time>2017-07-30T09:10:59Z</time>
      </trkpt>
      <trkpt lat="43.4622143023" lon="1.5714934375">
        <ele>163.56</ele>
        <time>2017-07-30T09:11:08Z</time>
      </trkpt>
      <trkpt lat="43.4619903378" lon="1.5717474092">
        <ele>165.00</ele>
        <time>2017-07-30T09:11:18Z</time>
      </trkpt>
      <trkpt lat="43.4617297444" lon="1.5721403528">
        <ele>165.00</ele>
        <time>2017-07-30T09:11:27Z</time>
      </trkpt>
      <trkpt lat="43.4615020081" lon="1.5724826697">
        <ele>164.52</ele>
        <time>2017-07-30T09:11:36Z</time>
      </trkpt>
      <trkpt lat="43.4613375552" lon="1.5727272537">
        <ele>164.52</ele>
        <time>2017-07-30T09:11:43Z</time>
      </trkpt>
      <trkpt lat="43.4610989224" lon="1.5730994102">
        <ele>164.52</ele>
        <time>2017-07-30T09:11:51Z</time>
      </trkpt>
      <trkpt lat="43.4608830884" lon="1.5735168289">
        <ele>165.48</ele>
        <time>2017-07-30T09:11:59Z</time>
      </trkpt>
      <trkpt lat="43.4608550929" lon="1.5735729877">
        <ele>165.96</ele>
        <time>2017-07-30T09:12:00Z</time>
      </trkpt>
      <trkpt lat="43.4608295280" lon="1.5736216027">
        <ele>165.96</ele>
        <time>2017-07-30T09:12:01Z</time>
      </trkpt>
      <trkpt lat="43.4607194737" lon="1.5738143865">
        <ele>165.48</ele>
        <time>2017-07-30T09:12:05Z</time>
      </trkpt>
      <trkpt lat="43.4606488142" lon="1.5739216749">
        <ele>165.00</ele>
        <time>2017-07-30T09:12:07Z</time>
      </trkpt>
      <trkpt lat="43.4602444712" lon="1.5746587794">
        <ele>164.04</ele>
        <time>2017-07-30T09:12:18Z</time>
      </trkpt>
      <trkpt lat="43.4600625839" lon="1.5750587638">
        <ele>164.52</ele>
        <time>2017-07-30T09:12:24Z</time>
      </trkpt>
      <trkpt lat="43.4600347560" lon="1.5751231369">
        <ele>165.00</ele>
        <time>2017-07-30T09:12:25Z</time>
      </trkpt>
      <trkpt lat="43.4596917685" lon="1.5757608321">
        <ele>164.04</ele>
        <time>2017-07-30T09:12:35Z</time>
      </trkpt>
      <trkpt lat="43.4593450930" lon="1.5764052328">
        <ele>164.04</ele>
        <time>2017-07-30T09:12:45Z</time>
      </trkpt>
      <trkpt lat="43.4593124874" lon="1.5764594637">
        <ele>163.56</ele>
        <time>2017-07-30T09:12:46Z</time>
      </trkpt>
      <trkpt lat="43.4592787921" lon="1.5765234176">
        <ele>164.04</ele>
        <time>2017-07-30T09:12:47Z</time>
      </trkpt>
      <trkpt lat="43.4590166900" lon="1.5771177784">
        <ele>164.04</ele>
        <time>2017-07-30T09:12:56Z</time>
      </trkpt>
      <trkpt lat="43.4588974994" lon="1.5774150006">
        <ele>164.52</ele>
        <time>2017-07-30T09:13:01Z</time>
      </trkpt>
      <trkpt lat="43.4588736109" lon="1.5774740931">
        <ele>164.52</ele>
        <time>2017-07-30T09:13:02Z</time>
      </trkpt>
      <trkpt lat="43.4588510636" lon="1.5775300842">
        <ele>164.52</ele>
        <time>2017-07-30T09:13:03Z</time>
      </trkpt>
      <trkpt lat="43.4588298574" lon="1.5775854886">
        <ele>164.52</ele>
        <time>2017-07-30T09:13:04Z</time>
      </trkpt>
      <trkpt lat="43.4588127583" lon="1.5776367858">
        <ele>165.00</ele>
        <time>2017-07-30T09:13:05Z</time>
      </trkpt>
      <trkpt lat="43.4587573539" lon="1.5778028313">
        <ele>165.00</ele>
        <time>2017-07-30T09:13:08Z</time>
      </trkpt>
      <trkpt lat="43.4586999379" lon="1.5779674519">
        <ele>165.48</ele>
        <time>2017-07-30T09:13:11Z</time>
      </trkpt>
      <trkpt lat="43.4586274344" lon="1.5781865548">
        <ele>165.48</ele>
        <time>2017-07-30T09:13:15Z</time>
      </trkpt>
      <trkpt lat="43.4586069826" lon="1.5782492515">
        <ele>165.48</ele>
        <time>2017-07-30T09:13:16Z</time>
      </trkpt>
      <trkpt lat="43.4584392607" lon="1.5787369106">
        <ele>165.48</ele>
        <time>2017-07-30T09:13:23Z</time>
      </trkpt>
      <trkpt lat="43.4581830259" lon="1.5794272441">
        <ele>164.04</ele>
        <time>2017-07-30T09:13:32Z</time>
      </trkpt>
      <trkpt lat="43.4579222649" lon="1.5799650270">
        <ele>164.04</ele>
        <time>2017-07-30T09:13:41Z</time>
      </trkpt>
      <trkpt lat="43.4576066863" lon="1.5804650076">
        <ele>163.56</ele>
        <time>2017-07-30T09:13:49Z</time>
      </trkpt>
      <trkpt lat="43.4575330932" lon="1.5805747267">
        <ele>163.56</ele>
        <time>2017-07-30T09:13:51Z</time>
      </trkpt>
      <trkpt lat="43.4574485198" lon="1.5806901455">
        <ele>163.08</ele>
        <time>2017-07-30T09:13:53Z</time>
      </trkpt>
      <trkpt lat="43.4572253935" lon="1.5810181294">
        <ele>163.08</ele>
        <time>2017-07-30T09:13:59Z</time>
      </trkpt>
      <trkpt lat="43.4568720125" lon="1.5815866739">
        <ele>163.56</ele>
        <time>2017-07-30T09:14:08Z</time>
      </trkpt>
      <trkpt lat="43.4568350483" lon="1.5816523042">
        <ele>163.56</ele>
        <time>2017-07-30T09:14:09Z</time>
      </trkpt>
      <trkpt lat="43.4567867685" lon="1.5817214549">
        <ele>163.56</ele>
        <time>2017-07-30T09:14:10Z</time>
      </trkpt>
      <trkpt lat="43.4566849284" lon="1.5818701498">
        <ele>163.56</ele>
        <time>2017-07-30T09:14:12Z</time>
      </trkpt>
      <trkpt lat="43.4566412587" lon="1.5819375403">
        <ele>163.56</ele>
        <time>2017-07-30T09:14:13Z</time>
      </trkpt>
      <trkpt lat="43.4562401846" lon="1.5824618284">
        <ele>162.60</ele>
        <time>2017-07-30T09:14:22Z</time>
      </trkpt>
      <trkpt lat="43.4560966026" lon="1.5827112738">
        <ele>163.56</ele>
        <time>2017-07-30T09:14:26Z</time>
      </trkpt>
      <trkpt lat="43.4560629074" lon="1.5827803407">
        <ele>162.60</ele>
        <time>2017-07-30T09:14:27Z</time>
      </trkpt>
      <trkpt lat="43.4560334869" lon="1.5828455519">
        <ele>162.60</ele>
        <time>2017-07-30T09:14:28Z</time>
      </trkpt>
      <trkpt lat="43.4559003823" lon="1.5833172016">
        <ele>163.08</ele>
        <time>2017-07-30T09:14:36Z</time>
      </trkpt>
      <trkpt lat="43.4558264539" lon="1.5837811399">
        <ele>162.60</ele>
        <time>2017-07-30T09:14:42Z</time>
      </trkpt>
      <trkpt lat="43.4558158927" lon="1.5839344449">
        <ele>162.60</ele>
        <time>2017-07-30T09:14:44Z</time>
      </trkpt>
      <trkpt lat="43.4557297267" lon="1.5848571248">
        <ele>162.12</ele>
        <time>2017-07-30T09:14:55Z</time>
      </trkpt>
      <trkpt lat="43.4557134658" lon="1.5855251625">
        <ele>162.12</ele>
        <time>2017-07-30T09:15:03Z</time>
      </trkpt>
      <trkpt lat="43.4557069279" lon="1.5857031103">
        <ele>162.12</ele>
        <time>2017-07-30T09:15:05Z</time>
      </trkpt>
      <trkpt lat="43.4557270445" lon="1.5863239579">
        <ele>162.12</ele>
        <time>2017-07-30T09:15:12Z</time>
      </trkpt>
      <trkpt lat="43.4557770845" lon="1.5871438757">
        <ele>162.60</ele>
        <time>2017-07-30T09:15:23Z</time>
      </trkpt>
      <trkpt lat="43.4557768330" lon="1.5872141998">
        <ele>162.60</ele>
        <time>2017-07-30T09:15:24Z</time>
      </trkpt>
      <trkpt lat="43.4557815269" lon="1.5872830153">
        <ele>163.08</ele>
        <time>2017-07-30T09:15:25Z</time>
      </trkpt>
      <trkpt lat="43.4557899088" lon="1.5873497352">
        <ele>163.08</ele>
        <time>2017-07-30T09:15:26Z</time>
      </trkpt>
      <trkpt lat="43.4557979554" lon="1.5874166228">
        <ele>163.08</ele>
        <time>2017-07-30T09:15:27Z</time>
      </trkpt>
      <trkpt lat="43.4558039065" lon="1.5874794871">
        <ele>163.08</ele>
        <time>2017-07-30T09:15:28Z</time>
      </trkpt>
      <trkpt lat="43.4558493365" lon="1.5880932938">
        <ele>163.08</ele>
        <time>2017-07-30T09:15:37Z</time>
      </trkpt>
      <trkpt lat="43.4558221791" lon="1.5888680331">
        <ele>163.08</ele>
        <time>2017-07-30T09:15:48Z</time>
      </trkpt>
      <trkpt lat="43.4557917528" lon="1.5894048102">
        <ele>164.04</ele>
        <time>2017-07-30T09:15:57Z</time>
      </trkpt>
      <trkpt lat="43.4557358455" lon="1.5900165215">
        <ele>163.56</ele>
        <time>2017-07-30T09:16:05Z</time>
      </trkpt>
      <trkpt lat="43.4557233565" lon="1.5901033580">
        <ele>163.56</ele>
        <time>2017-07-30T09:16:06Z</time>
      </trkpt>
      <trkpt lat="43.4557058383" lon="1.5908501856">
        <ele>163.56</ele>
        <time>2017-07-30T09:16:17Z</time>
      </trkpt>
      <trkpt lat="43.4556334186" lon="1.5912150498">
        <ele>164.52</ele>
        <time>2017-07-30T09:16:25Z</time>
      </trkpt>
      <trkpt lat="43.4555224422" lon="1.5916141961">
        <ele>163.08</ele>
        <time>2017-07-30T09:16:31Z</time>
      </trkpt>
      <trkpt lat="43.4555064328" lon="1.5916738752">
        <ele>163.08</ele>
        <time>2017-07-30T09:16:32Z</time>
      </trkpt>
      <trkpt lat="43.4554884117" lon="1.5917359851">
        <ele>163.08</ele>
        <time>2017-07-30T09:16:33Z</time>
      </trkpt>
      <trkpt lat="43.4554695524" lon="1.5917995200">
        <ele>162.60</ele>
        <time>2017-07-30T09:16:34Z</time>
      </trkpt>
      <trkpt lat="43.4554483462" lon="1.5918618813">
        <ele>162.60</ele>
        <time>2017-07-30T09:16:35Z</time>
      </trkpt>
      <trkpt lat="43.4553062730" lon="1.5922104008">
        <ele>162.60</ele>
        <time>2017-07-30T09:16:41Z</time>
      </trkpt>
      <trkpt lat="43.4549503773" lon="1.5927055199">
        <ele>162.60</ele>
        <time>2017-07-30T09:16:50Z</time>
      </trkpt>
      <trkpt lat="43.4548561648" lon="1.5928081144">
        <ele>162.60</ele>
        <time>2017-07-30T09:16:52Z</time>
      </trkpt>
      <trkpt lat="43.4548031911" lon="1.5928512812">
        <ele>162.60</ele>
        <time>2017-07-30T09:16:53Z</time>
      </trkpt>
      <trkpt lat="43.4547483735" lon="1.5928881615">
        <ele>162.60</ele>
        <time>2017-07-30T09:16:54Z</time>
      </trkpt>
      <trkpt lat="43.4546923824" lon="1.5929156542">
        <ele>162.60</ele>
        <time>2017-07-30T09:16:55Z</time>
      </trkpt>
      <trkpt lat="43.4546337929" lon="1.5929426439">
        <ele>162.60</ele>
        <time>2017-07-30T09:16:56Z</time>
      </trkpt>
      <trkpt lat="43.4539632406" lon="1.5931873117">
        <ele>162.12</ele>
        <time>2017-07-30T09:17:07Z</time>
      </trkpt>
      <trkpt lat="43.4531557281" lon="1.5934617352">
        <ele>162.12</ele>
        <time>2017-07-30T09:17:20Z</time>
      </trkpt>
      <trkpt lat="43.4528173506" lon="1.5936054848">
        <ele>161.64</ele>
        <time>2017-07-30T09:17:26Z</time>
      </trkpt>
      <trkpt lat="43.4523976687" lon="1.5938794892">
        <ele>161.64</ele>
        <time>2017-07-30T09:17:34Z</time>
      </trkpt>
      <trkpt lat="43.4519819263" lon="1.5942760371">
        <ele>161.64</ele>
        <time>2017-07-30T09:17:43Z</time>
      </trkpt>
      <trkpt lat="43.4516033996" lon="1.5947284084">
        <ele>162.12</ele>
        <time>2017-07-30T09:17:52Z</time>
      </trkpt>
      <trkpt lat="43.4513529483" lon="1.5950518660">
        <ele>162.60</ele>
        <time>2017-07-30T09:17:59Z</time>
      </trkpt>
      <trkpt lat="43.4512925986" lon="1.5951520298">
        <ele>162.60</ele>
        <time>2017-07-30T09:18:01Z</time>
      </trkpt>
      <trkpt lat="43.4512623399" lon="1.5952062607">
        <ele>162.60</ele>
        <time>2017-07-30T09:18:02Z</time>
      </trkpt>
      <trkpt lat="43.4512329195" lon="1.5952656046">
        <ele>162.60</ele>
        <time>2017-07-30T09:18:03Z</time>
      </trkpt>
      <trkpt lat="43.4512064327" lon="1.5953270439">
        <ele>162.60</ele>
        <time>2017-07-30T09:18:04Z</time>
      </trkpt>
      <trkpt lat="43.4511815384" lon="1.5953866392">
        <ele>162.60</ele>
        <time>2017-07-30T09:18:05Z</time>
      </trkpt>
      <trkpt lat="43.4511358570" lon="1.5955087636">
        <ele>162.60</ele>
        <time>2017-07-30T09:18:07Z</time>
      </trkpt>
      <trkpt lat="43.4509144071" lon="1.5962258354">
        <ele>161.64</ele>
        <time>2017-07-30T09:18:18Z</time>
      </trkpt>
      <trkpt lat="43.4508677199" lon="1.5963494685">
        <ele>162.60</ele>
        <time>2017-07-30T09:18:20Z</time>
      </trkpt>
      <trkpt lat="43.4508414008" lon="1.5964141767">
        <ele>161.64</ele>
        <time>2017-07-30T09:18:21Z</time>
      </trkpt>
      <trkpt lat="43.4507970605" lon="1.5965412464">
        <ele>165.48</ele>
        <time>2017-07-30T09:18:23Z</time>
      </trkpt>
      <trkpt lat="43.4507734235" lon="1.5966060385">
        <ele>161.16</ele>
        <time>2017-07-30T09:18:24Z</time>
      </trkpt>
      <trkpt lat="43.4507065360" lon="1.5967971459">
        <ele>164.04</ele>
        <time>2017-07-30T09:18:27Z</time>
      </trkpt>
      <trkpt lat="43.4506848268" lon="1.5968543105">
        <ele>165.00</ele>
        <time>2017-07-30T09:18:28Z</time>
      </trkpt>
      <trkpt lat="43.4506335296" lon="1.5969691426">
        <ele>161.64</ele>
        <time>2017-07-30T09:18:30Z</time>
      </trkpt>
      <trkpt lat="43.4506077971" lon="1.5970239602">
        <ele>161.64</ele>
        <time>2017-07-30T09:18:31Z</time>
      </trkpt>
      <trkpt lat="43.4505830705" lon="1.5970807895">
        <ele>162.12</ele>
        <time>2017-07-30T09:18:32Z</time>
      </trkpt>
      <trkpt lat="43.4505338687" lon="1.5971888322">
        <ele>165.48</ele>
        <time>2017-07-30T09:18:34Z</time>
      </trkpt>
      <trkpt lat="43.4504922107" lon="1.5972828772">
        <ele>160.20</ele>
        <time>2017-07-30T09:18:36Z</time>
      </trkpt>
      <trkpt lat="43.4504715912" lon="1.5973370243">
        <ele>165.48</ele>
        <time>2017-07-30T09:18:37Z</time>
      </trkpt>
      <trkpt lat="43.4503268357" lon="1.5975819435">
        <ele>160.68</ele>
        <time>2017-07-30T09:18:41Z</time>
      </trkpt>
      <trkpt lat="43.4502889495" lon="1.5976445563">
        <ele>165.00</ele>
        <time>2017-07-30T09:18:42Z</time>
      </trkpt>
      <trkpt lat="43.4502215590" lon="1.5977629926">
        <ele>160.68</ele>
        <time>2017-07-30T09:18:44Z</time>
      </trkpt>
      <trkpt lat="43.4501861874" lon="1.5978154633">
        <ele>165.00</ele>
        <time>2017-07-30T09:18:45Z</time>
      </trkpt>
      <trkpt lat="43.4498656634" lon="1.5982814971">
        <ele>163.08</ele>
        <time>2017-07-30T09:18:54Z</time>
      </trkpt>
      <trkpt lat="43.4498139471" lon="1.5983617958">
        <ele>163.08</ele>
        <time>2017-07-30T09:18:56Z</time>
      </trkpt>
      <trkpt lat="43.4497806709" lon="1.5984014422">
        <ele>163.56</ele>
        <time>2017-07-30T09:18:57Z</time>
      </trkpt>
      <trkpt lat="43.4497520048" lon="1.5984384064">
        <ele>163.56</ele>
        <time>2017-07-30T09:18:58Z</time>
      </trkpt>
      <trkpt lat="43.4497241769" lon="1.5984697547">
        <ele>163.56</ele>
        <time>2017-07-30T09:18:59Z</time>
      </trkpt>
      <trkpt lat="43.4496904816" lon="1.5985021926">
        <ele>163.56</ele>
        <time>2017-07-30T09:19:00Z</time>
      </trkpt>
      <trkpt lat="43.4496585466" lon="1.5985358879">
        <ele>163.56</ele>
        <time>2017-07-30T09:19:01Z</time>
      </trkpt>
      <trkpt lat="43.4494298883" lon="1.5987106506">
        <ele>164.52</ele>
        <time>2017-07-30T09:19:08Z</time>
      </trkpt>
      <trkpt lat="43.4490749147" lon="1.5988597646">
        <ele>164.52</ele>
        <time>2017-07-30T09:19:16Z</time>
      </trkpt>
      <trkpt lat="43.4486671351" lon="1.5989938751">
        <ele>164.04</ele>
        <time>2017-07-30T09:19:25Z</time>
      </trkpt>
      <trkpt lat="43.4482015204" lon="1.5991496108">
        <ele>164.04</ele>
        <time>2017-07-30T09:19:35Z</time>
      </trkpt>
      <trkpt lat="43.4479035437" lon="1.5991994832">
        <ele>163.56</ele>
        <time>2017-07-30T09:19:41Z</time>
      </trkpt>
      <trkpt lat="43.4478345606" lon="1.5991897602">
        <ele>163.08</ele>
        <time>2017-07-30T09:19:42Z</time>
      </trkpt>
      <trkpt lat="43.4477163758" lon="1.5991681349">
        <ele>161.64</ele>
        <time>2017-07-30T09:19:44Z</time>
      </trkpt>
      <trkpt lat="43.4476582892" lon="1.5991649497">
        <ele>161.64</ele>
        <time>2017-07-30T09:19:45Z</time>
      </trkpt>
      <trkpt lat="43.4475654177" lon="1.5991752595">
        <ele>161.64</ele>
        <time>2017-07-30T09:19:46Z</time>
      </trkpt>
      <trkpt lat="43.4471850470" lon="1.5993045922">
        <ele>163.56</ele>
        <time>2017-07-30T09:19:53Z</time>
      </trkpt>
      <trkpt lat="43.4469637647" lon="1.5993237868">
        <ele>165.00</ele>
        <time>2017-07-30T09:20:01Z</time>
      </trkpt>
      <trkpt lat="43.4469373617" lon="1.5993349347">
        <ele>165.48</ele>
        <time>2017-07-30T09:20:03Z</time>
      </trkpt>
      <trkpt lat="43.4469247889" lon="1.5993553866">
        <ele>165.48</ele>
        <time>2017-07-30T09:20:05Z</time>
      </trkpt>
      <trkpt lat="43.4469262138" lon="1.5993783530">
        <ele>165.48</ele>
        <time>2017-07-30T09:20:06Z</time>
      </trkpt>
      <trkpt lat="43.4469537903" lon="1.5994684584">
        <ele>165.96</ele>
        <time>2017-07-30T09:20:09Z</time>
      </trkpt>
      <trkpt lat="43.4469727334" lon="1.5994868986">
        <ele>165.48</ele>
        <time>2017-07-30T09:20:10Z</time>
      </trkpt>
      <trkpt lat="43.4469928499" lon="1.5994971246">
        <ele>165.48</ele>
        <time>2017-07-30T09:20:11Z</time>
      </trkpt>
      <trkpt lat="43.4470133856" lon="1.5994926821">
        <ele>165.48</ele>
        <time>2017-07-30T09:20:12Z</time>
      </trkpt>
      <trkpt lat="43.4470347594" lon="1.5994757507">
        <ele>165.48</ele>
        <time>2017-07-30T09:20:13Z</time>
      </trkpt>
      <trkpt lat="43.4470571391" lon="1.5994598251">
        <ele>165.96</ele>
        <time>2017-07-30T09:20:14Z</time>
      </trkpt>
      <trkpt lat="43.4470778424" lon="1.5994375292">
        <ele>166.93</ele>
        <time>2017-07-30T09:20:16Z</time>
      </trkpt>
      <trkpt lat="43.4470710531" lon="1.5994227771">
        <ele>166.93</ele>
        <time>2017-07-30T09:20:17Z</time>
      </trkpt>
      <trkpt lat="43.4470562171" lon="1.5994154010">
        <ele>167.41</ele>
        <time>2017-07-30T09:20:18Z</time>
      </trkpt>
      <trkpt lat="43.4470001422" lon="1.5993519500">
        <ele>168.85</ele>
        <time>2017-07-30T09:20:23Z</time>
      </trkpt>
      <trkpt lat="43.4470013157" lon="1.5993308276">
        <ele>168.85</ele>
        <time>2017-07-30T09:20:24Z</time>
      </trkpt>
      <trkpt lat="43.4470007289" lon="1.5992940310">
        <ele>168.85</ele>
        <time>2017-07-30T09:20:31Z</time>
      </trkpt>
      <trkpt lat="43.4470050037" lon="1.5992890857">
        <ele>168.85</ele>
        <time>2017-07-30T09:20:45Z</time>
      </trkpt>
      <trkpt lat="43.4470083565" lon="1.5992988925">
        <ele>168.37</ele>
        <time>2017-07-30T09:21:07Z</time>
      </trkpt>
      <trkpt lat="43.4470191691" lon="1.5993135609">
        <ele>168.37</ele>
        <time>2017-07-30T09:21:27Z</time>
      </trkpt>
      <trkpt lat="43.4470106196" lon="1.5993157402">
        <ele>168.85</ele>
        <time>2017-07-30T09:21:43Z</time>
      </trkpt>
      <trkpt lat="43.4470028244" lon="1.5993149858">
        <ele>168.85</ele>
        <time>2017-07-30T09:21:49Z</time>
      </trkpt>
      <trkpt lat="43.4469900001" lon="1.5993294865">
        <ele>168.37</ele>
        <time>2017-07-30T09:21:57Z</time>
      </trkpt>
      <trkpt lat="43.4469858091" lon="1.5993413050">
        <ele>168.37</ele>
        <time>2017-07-30T09:22:08Z</time>
      </trkpt>
      <trkpt lat="43.4470053390" lon="1.5994009003">
        <ele>168.37</ele>
        <time>2017-07-30T09:22:14Z</time>
      </trkpt>
      <trkpt lat="43.4470192529" lon="1.5994102042">
        <ele>168.37</ele>
        <time>2017-07-30T09:22:15Z</time>
      </trkpt>
      <trkpt lat="43.4470390342" lon="1.5994164068">
        <ele>168.37</ele>
        <time>2017-07-30T09:22:16Z</time>
      </trkpt>
      <trkpt lat="43.4470584802" lon="1.5994223580">
        <ele>167.89</ele>
        <time>2017-07-30T09:22:17Z</time>
      </trkpt>
      <trkpt lat="43.4470734838" lon="1.5994349308">
        <ele>167.41</ele>
        <time>2017-07-30T09:22:18Z</time>
      </trkpt>
      <trkpt lat="43.4470767528" lon="1.5994539578">
        <ele>166.93</ele>
        <time>2017-07-30T09:22:19Z</time>
      </trkpt>
      <trkpt lat="43.4470620845" lon="1.5994719788">
        <ele>166.93</ele>
        <time>2017-07-30T09:22:20Z</time>
      </trkpt>
      <trkpt lat="43.4470390342" lon="1.5994839650">
        <ele>166.93</ele>
        <time>2017-07-30T09:22:21Z</time>
      </trkpt>
      <trkpt lat="43.4470113739" lon="1.5994964540">
        <ele>166.45</ele>
        <time>2017-07-30T09:22:22Z</time>
      </trkpt>
      <trkpt lat="43.4469858091" lon="1.5995049197">
        <ele>165.48</ele>
        <time>2017-07-30T09:22:23Z</time>
      </trkpt>
      <trkpt lat="43.4469685424" lon="1.5994979627">
        <ele>165.48</ele>
        <time>2017-07-30T09:22:24Z</time>
      </trkpt>
      <trkpt lat="43.4469590709" lon="1.5994749963">
        <ele>165.48</ele>
        <time>2017-07-30T09:22:25Z</time>
      </trkpt>
      <trkpt lat="43.4469560534" lon="1.5994432289">
        <ele>165.48</ele>
        <time>2017-07-30T09:22:26Z</time>
      </trkpt>
      <trkpt lat="43.4469564725" lon="1.5994140599">
        <ele>166.45</ele>
        <time>2017-07-30T09:22:27Z</time>
      </trkpt>
      <trkpt lat="43.4469467495" lon="1.5993153211">
        <ele>164.52</ele>
        <time>2017-07-30T09:22:35Z</time>
      </trkpt>
      <trkpt lat="43.4469377808" lon="1.5993148182">
        <ele>165.00</ele>
        <time>2017-07-30T09:22:47Z</time>
      </trkpt>
      <trkpt lat="43.4469255432" lon="1.5993238706">
        <ele>165.00</ele>
        <time>2017-07-30T09:22:48Z</time>
      </trkpt>
      <trkpt lat="43.4469078574" lon="1.5993380360">
        <ele>165.00</ele>
        <time>2017-07-30T09:22:50Z</time>
      </trkpt>
      <trkpt lat="43.4468770958" lon="1.5993493516">
        <ele>165.00</ele>
        <time>2017-07-30T09:22:53Z</time>
      </trkpt>
      <trkpt lat="43.4468658641" lon="1.5993572306">
        <ele>165.00</ele>
        <time>2017-07-30T09:22:54Z</time>
      </trkpt>
      <trkpt lat="43.4468515310" lon="1.5993563924">
        <ele>165.00</ele>
        <time>2017-07-30T09:22:55Z</time>
      </trkpt>
      <trkpt lat="43.4468318336" lon="1.5993555542">
        <ele>165.00</ele>
        <time>2017-07-30T09:22:56Z</time>
      </trkpt>
      <trkpt lat="43.4468068555" lon="1.5993611701">
        <ele>165.00</ele>
        <time>2017-07-30T09:22:57Z</time>
      </trkpt>
      <trkpt lat="43.4467815422" lon="1.5993695520">
        <ele>164.52</ele>
        <time>2017-07-30T09:22:58Z</time>
      </trkpt>
      <trkpt lat="43.4466029238" lon="1.5994713921">
        <ele>165.00</ele>
        <time>2017-07-30T09:23:07Z</time>
      </trkpt>
      <trkpt lat="43.4466086235" lon="1.5994679555">
        <ele>164.52</ele>
        <time>2017-07-30T09:23:08Z</time>
      </trkpt>
      <trkpt lat="43.4466189332" lon="1.5994693805">
        <ele>164.52</ele>
        <time>2017-07-30T09:23:09Z</time>
      </trkpt>
      <trkpt lat="43.4466305003" lon="1.5994691290">
        <ele>164.52</ele>
        <time>2017-07-30T09:23:10Z</time>
      </trkpt>
      <trkpt lat="43.4466448333" lon="1.5994692128">
        <ele>165.00</ele>
        <time>2017-07-30T09:23:11Z</time>
      </trkpt>
      <trkpt lat="43.4466579929" lon="1.5994677041">
        <ele>164.52</ele>
        <time>2017-07-30T09:23:12Z</time>
      </trkpt>
      <trkpt lat="43.4466836415" lon="1.5994549636">
        <ele>164.52</ele>
        <time>2017-07-30T09:23:14Z</time>
      </trkpt>
      <trkpt lat="43.4466977231" lon="1.5994464979">
        <ele>164.52</ele>
        <time>2017-07-30T09:23:15Z</time>
      </trkpt>
      <trkpt lat="43.4467147384" lon="1.5994404629">
        <ele>164.52</ele>
        <time>2017-07-30T09:23:16Z</time>
      </trkpt>
      <trkpt lat="43.4468906745" lon="1.5993704740">
        <ele>165.00</ele>
        <time>2017-07-30T09:23:27Z</time>
      </trkpt>
      <trkpt lat="43.4469325002" lon="1.5993354376">
        <ele>165.00</ele>
        <time>2017-07-30T09:23:36Z</time>
      </trkpt>
      <trkpt lat="43.4469459951" lon="1.5993216075">
        <ele>165.00</ele>
        <time>2017-07-30T09:23:53Z</time>
      </trkpt>
      <trkpt lat="43.4469356015" lon="1.5993086156">
        <ele>165.00</ele>
        <time>2017-07-30T09:24:12Z</time>
      </trkpt>
      <trkpt lat="43.4469221905" lon="1.5993016586">
        <ele>164.52</ele>
        <time>2017-07-30T09:24:23Z</time>
      </trkpt>
      <trkpt lat="43.4469097853" lon="1.5993001498">
        <ele>164.52</ele>
        <time>2017-07-30T09:24:25Z</time>
      </trkpt>
      <trkpt lat="43.4468829632" lon="1.5993073583">
        <ele>165.00</ele>
        <time>2017-07-30T09:24:27Z</time>
      </trkpt>
      <trkpt lat="43.4468689654" lon="1.5993144829">
        <ele>164.52</ele>
        <time>2017-07-30T09:24:28Z</time>
      </trkpt>
      <trkpt lat="43.4467065241" lon="1.5993805323">
        <ele>164.52</ele>
        <time>2017-07-30T09:24:36Z</time>
      </trkpt>
      <trkpt lat="43.4466614295" lon="1.5993927699">
        <ele>164.52</ele>
        <time>2017-07-30T09:24:44Z</time>
      </trkpt>
      <trkpt lat="43.4466365352" lon="1.5993943624">
        <ele>164.52</ele>
        <time>2017-07-30T09:25:09Z</time>
      </trkpt>
      <trkpt lat="43.4466356132" lon="1.5993989725">
        <ele>165.00</ele>
        <time>2017-07-30T09:25:29Z</time>
      </trkpt>
      <trkpt lat="43.4466356970" lon="1.5993984696">
        <ele>165.00</ele>
        <time>2017-07-30T09:25:32Z</time>
      </trkpt>
      <trkpt lat="43.4466032591" lon="1.5994574782">
        <ele>164.52</ele>
        <time>2017-07-30T09:25:35Z</time>
      </trkpt>
      <trkpt lat="43.4465675522" lon="1.5994939394">
        <ele>165.00</ele>
        <time>2017-07-30T09:25:37Z</time>
      </trkpt>
      <trkpt lat="43.4465312585" lon="1.5995043330">
        <ele>165.00</ele>
        <time>2017-07-30T09:25:39Z</time>
      </trkpt>
      <trkpt lat="43.4465143271" lon="1.5995007288">
        <ele>165.00</ele>
        <time>2017-07-30T09:25:40Z</time>
      </trkpt>
      <trkpt lat="43.4464963060" lon="1.5995034948">
        <ele>165.00</ele>
        <time>2017-07-30T09:25:41Z</time>
      </trkpt>
      <trkpt lat="43.4462724254" lon="1.5996044129">
        <ele>165.00</ele>
        <time>2017-07-30T09:25:50Z</time>
      </trkpt>
      <trkpt lat="43.4461737704" lon="1.5996428858">
        <ele>165.00</ele>
        <time>2017-07-30T09:25:53Z</time>
      </trkpt>
      <trkpt lat="43.4461429249" lon="1.5996613260">
        <ele>164.52</ele>
        <time>2017-07-30T09:25:54Z</time>
      </trkpt>
      <trkpt lat="43.4458110016" lon="1.5998536907">
        <ele>165.00</ele>
        <time>2017-07-30T09:26:04Z</time>
      </trkpt>
      <trkpt lat="43.4456860274" lon="1.6000179760">
        <ele>165.00</ele>
        <time>2017-07-30T09:26:09Z</time>
      </trkpt>
      <trkpt lat="43.4456560202" lon="1.6000414453">
        <ele>165.00</ele>
        <time>2017-07-30T09:26:10Z</time>
      </trkpt>
      <trkpt lat="43.4456258453" lon="1.6000654176">
        <ele>165.00</ele>
        <time>2017-07-30T09:26:11Z</time>
      </trkpt>
      <trkpt lat="43.4453986119" lon="1.6004605405">
        <ele>165.00</ele>
        <time>2017-07-30T09:26:20Z</time>
      </trkpt>
      <trkpt lat="43.4452297166" lon="1.6009107325">
        <ele>165.00</ele>
        <time>2017-07-30T09:26:28Z</time>
      </trkpt>
      <trkpt lat="43.4451369289" lon="1.6013349406">
        <ele>165.00</ele>
        <time>2017-07-30T09:26:35Z</time>
      </trkpt>
      <trkpt lat="43.4451361746" lon="1.6014154069">
        <ele>165.00</ele>
        <time>2017-07-30T09:26:36Z</time>
      </trkpt>
      <trkpt lat="43.4451446403" lon="1.6014845576">
        <ele>165.00</ele>
        <time>2017-07-30T09:26:37Z</time>
      </trkpt>
      <trkpt lat="43.4451517649" lon="1.6015479248">
        <ele>165.00</ele>
        <time>2017-07-30T09:26:38Z</time>
      </trkpt>
      <trkpt lat="43.4451577161" lon="1.6016132198">
        <ele>165.48</ele>
        <time>2017-07-30T09:26:39Z</time>
      </trkpt>
      <trkpt lat="43.4451622423" lon="1.6016781796">
        <ele>165.96</ele>
        <time>2017-07-30T09:26:40Z</time>
      </trkpt>
      <trkpt lat="43.4451692831" lon="1.6017423850">
        <ele>166.45</ele>
        <time>2017-07-30T09:26:41Z</time>
      </trkpt>
      <trkpt lat="43.4452651720" lon="1.6022428684">
        <ele>166.93</ele>
        <time>2017-07-30T09:26:51Z</time>
      </trkpt>
      <trkpt lat="43.4452804271" lon="1.6023063194">
        <ele>166.93</ele>
        <time>2017-07-30T09:26:52Z</time>
      </trkpt>
      <trkpt lat="43.4452978615" lon="1.6023690999">
        <ele>166.93</ele>
        <time>2017-07-30T09:26:53Z</time>
      </trkpt>
      <trkpt lat="43.4454869572" lon="1.6030903626">
        <ele>167.41</ele>
        <time>2017-07-30T09:27:05Z</time>
      </trkpt>
      <trkpt lat="43.4456154518" lon="1.6035865713">
        <ele>166.93</ele>
        <time>2017-07-30T09:27:12Z</time>
      </trkpt>
      <trkpt lat="43.4456809983" lon="1.6039208416">
        <ele>167.41</ele>
        <time>2017-07-30T09:27:17Z</time>
      </trkpt>
      <trkpt lat="43.4456891287" lon="1.6039878968">
        <ele>167.41</ele>
        <time>2017-07-30T09:27:18Z</time>
      </trkpt>
      <trkpt lat="43.4456939064" lon="1.6040540300">
        <ele>167.41</ele>
        <time>2017-07-30T09:27:19Z</time>
      </trkpt>
      <trkpt lat="43.4456948284" lon="1.6041205823">
        <ele>167.41</ele>
        <time>2017-07-30T09:27:20Z</time>
      </trkpt>
      <trkpt lat="43.4456926491" lon="1.6041876376">
        <ele>166.93</ele>
        <time>2017-07-30T09:27:21Z</time>
      </trkpt>
      <trkpt lat="43.4456900507" lon="1.6043227538">
        <ele>166.93</ele>
        <time>2017-07-30T09:27:23Z</time>
      </trkpt>
      <trkpt lat="43.4456835967" lon="1.6043934971">
        <ele>166.93</ele>
        <time>2017-07-30T09:27:24Z</time>
      </trkpt>
      <trkpt lat="43.4456729516" lon="1.6044637375">
        <ele>166.93</ele>
        <time>2017-07-30T09:27:25Z</time>
      </trkpt>
      <trkpt lat="43.4456118476" lon="1.6047535837">
        <ele>166.93</ele>
        <time>2017-07-30T09:27:29Z</time>
      </trkpt>
      <trkpt lat="43.4455898870" lon="1.6048265900">
        <ele>166.45</ele>
        <time>2017-07-30T09:27:30Z</time>
      </trkpt>
      <trkpt lat="43.4455609694" lon="1.6049028654">
        <ele>166.45</ele>
        <time>2017-07-30T09:27:31Z</time>
      </trkpt>
      <trkpt lat="43.4452660102" lon="1.6054787021">
        <ele>166.45</ele>
        <time>2017-07-30T09:27:40Z</time>
      </trkpt>
      <trkpt lat="43.4452014696" lon="1.6055605095">
        <ele>166.93</ele>
        <time>2017-07-30T09:27:42Z</time>
      </trkpt>
      <trkpt lat="43.4451728873" lon="1.6056100465">
        <ele>166.93</ele>
        <time>2017-07-30T09:27:43Z</time>
      </trkpt>
      <trkpt lat="43.4451463167" lon="1.6056624334">
        <ele>166.93</ele>
        <time>2017-07-30T09:27:44Z</time>
      </trkpt>
      <trkpt lat="43.4448774252" lon="1.6060428880">
        <ele>166.93</ele>
        <time>2017-07-30T09:27:52Z</time>
      </trkpt>
      <trkpt lat="43.4448164050" lon="1.6061301436">
        <ele>166.93</ele>
        <time>2017-07-30T09:27:54Z</time>
      </trkpt>
      <trkpt lat="43.4447843861" lon="1.6061677784">
        <ele>166.93</ele>
        <time>2017-07-30T09:27:55Z</time>
      </trkpt>
      <trkpt lat="43.4444351122" lon="1.6066105943">
        <ele>167.41</ele>
        <time>2017-07-30T09:28:05Z</time>
      </trkpt>
      <trkpt lat="43.4441145044" lon="1.6070267558">
        <ele>166.93</ele>
        <time>2017-07-30T09:28:14Z</time>
      </trkpt>
      <trkpt lat="43.4437001869" lon="1.6073943861">
        <ele>167.41</ele>
        <time>2017-07-30T09:28:24Z</time>
      </trkpt>
      <trkpt lat="43.4435276873" lon="1.6075272392">
        <ele>166.93</ele>
        <time>2017-07-30T09:28:28Z</time>
      </trkpt>
      <trkpt lat="43.4429767448" lon="1.6078921873">
        <ele>167.41</ele>
        <time>2017-07-30T09:28:40Z</time>
      </trkpt>
      <trkpt lat="43.4425995592" lon="1.6082823649">
        <ele>167.41</ele>
        <time>2017-07-30T09:28:49Z</time>
      </trkpt>
      <trkpt lat="43.4424161632" lon="1.6085543577">
        <ele>167.41</ele>
        <time>2017-07-30T09:28:54Z</time>
      </trkpt>
      <trkpt lat="43.4422604274" lon="1.6087669227">
        <ele>166.93</ele>
        <time>2017-07-30T09:28:58Z</time>
      </trkpt>
      <trkpt lat="43.4418499656" lon="1.6093252413">
        <ele>166.93</ele>
        <time>2017-07-30T09:29:08Z</time>
      </trkpt>
      <trkpt lat="43.4417275060" lon="1.6095656343">
        <ele>166.93</ele>
        <time>2017-07-30T09:29:12Z</time>
      </trkpt>
      <trkpt lat="43.4415374044" lon="1.6100520361">
        <ele>166.93</ele>
        <time>2017-07-30T09:29:20Z</time>
      </trkpt>
      <trkpt lat="43.4414950758" lon="1.6101880744">
        <ele>167.41</ele>
        <time>2017-07-30T09:29:22Z</time>
      </trkpt>
      <trkpt lat="43.4414712712" lon="1.6102490947">
        <ele>167.41</ele>
        <time>2017-07-30T09:29:23Z</time>
      </trkpt>
      <trkpt lat="43.4414443653" lon="1.6103102826">
        <ele>167.41</ele>
        <time>2017-07-30T09:29:24Z</time>
      </trkpt>
      <trkpt lat="43.4413923137" lon="1.6104286350">
        <ele>167.41</ele>
        <time>2017-07-30T09:29:26Z</time>
      </trkpt>
      <trkpt lat="43.4413567744" lon="1.6105438862">
        <ele>167.41</ele>
        <time>2017-07-30T09:29:28Z</time>
      </trkpt>
      <trkpt lat="43.4413405973" lon="1.6106046550">
        <ele>167.41</ele>
        <time>2017-07-30T09:29:29Z</time>
      </trkpt>
      <trkpt lat="43.4411393479" lon="1.6111689247">
        <ele>168.37</ele>
        <time>2017-07-30T09:29:38Z</time>
      </trkpt>
      <trkpt lat="43.4411175549" lon="1.6112352256">
        <ele>168.37</ele>
        <time>2017-07-30T09:29:39Z</time>
      </trkpt>
      <trkpt lat="43.4408342466" lon="1.6117765289">
        <ele>168.85</ele>
        <time>2017-07-30T09:29:48Z</time>
      </trkpt>
      <trkpt lat="43.4407672752" lon="1.6118709091">
        <ele>168.85</ele>
        <time>2017-07-30T09:29:50Z</time>
      </trkpt>
      <trkpt lat="43.4403833840" lon="1.6122261342">
        <ele>168.37</ele>
        <time>2017-07-30T09:29:59Z</time>
      </trkpt>
      <trkpt lat="43.4402921051" lon="1.6122930218">
        <ele>167.41</ele>
        <time>2017-07-30T09:30:01Z</time>
      </trkpt>
      <trkpt lat="43.4402457532" lon="1.6123243701">
        <ele>170.77</ele>
        <time>2017-07-30T09:30:02Z</time>
      </trkpt>
      <trkpt lat="43.4401952941" lon="1.6123516113">
        <ele>168.37</ele>
        <time>2017-07-30T09:30:03Z</time>
      </trkpt>
      <trkpt lat="43.4401413985" lon="1.6123731527">
        <ele>168.37</ele>
        <time>2017-07-30T09:30:04Z</time>
      </trkpt>
      <trkpt lat="43.4397253208" lon="1.6125201713">
        <ele>169.81</ele>
        <time>2017-07-30T09:30:15Z</time>
      </trkpt>
      <trkpt lat="43.4396038670" lon="1.6125609912">
        <ele>170.77</ele>
        <time>2017-07-30T09:30:24Z</time>
      </trkpt>
      <trkpt lat="43.4396033641" lon="1.6125357617">
        <ele>170.77</ele>
        <time>2017-07-30T09:30:35Z</time>
      </trkpt>
      <trkpt lat="43.4396022744" lon="1.6125143040">
        <ele>170.77</ele>
        <time>2017-07-30T09:30:41Z</time>
      </trkpt>
      <trkpt lat="43.4396033641" lon="1.6124967020">
        <ele>170.77</ele>
        <time>2017-07-30T09:30:42Z</time>
      </trkpt>
      <trkpt lat="43.4396022744" lon="1.6124799382">
        <ele>170.77</ele>
        <time>2017-07-30T09:30:43Z</time>
      </trkpt>
      <trkpt lat="43.4395996761" lon="1.6124642640">
        <ele>171.25</ele>
        <time>2017-07-30T09:30:44Z</time>
      </trkpt>
      <trkpt lat="43.4395955689" lon="1.6124478355">
        <ele>171.25</ele>
        <time>2017-07-30T09:30:45Z</time>
      </trkpt>
      <trkpt lat="43.4395560063" lon="1.6122553032">
        <ele>171.25</ele>
        <time>2017-07-30T09:30:58Z</time>
      </trkpt>
      <trkpt lat="43.4395560063" lon="1.6121873260">
        <ele>170.29</ele>
        <time>2017-07-30T09:31:09Z</time>
      </trkpt>
      <trkpt lat="43.4395723511" lon="1.6121781059">
        <ele>170.29</ele>
        <time>2017-07-30T09:31:11Z</time>
      </trkpt>
      <trkpt lat="43.4395916294" lon="1.6121668741">
        <ele>170.29</ele>
        <time>2017-07-30T09:31:12Z</time>
      </trkpt>
      <trkpt lat="43.4396156855" lon="1.6121524572">
        <ele>170.29</ele>
        <time>2017-07-30T09:31:13Z</time>
      </trkpt>
      <trkpt lat="43.4398177732" lon="1.6120180115">
        <ele>169.33</ele>
        <time>2017-07-30T09:31:21Z</time>
      </trkpt>
      <trkpt lat="43.4398076311" lon="1.6119965538">
        <ele>169.33</ele>
        <time>2017-07-30T09:31:29Z</time>
      </trkpt>
      <trkpt lat="43.4397974890" lon="1.6119916085">
        <ele>169.33</ele>
        <time>2017-07-30T09:31:30Z</time>
      </trkpt>
      <trkpt lat="43.4397860896" lon="1.6119844001">
        <ele>169.33</ele>
        <time>2017-07-30T09:31:31Z</time>
      </trkpt>
      <trkpt lat="43.4397590999" lon="1.6119704023">
        <ele>169.33</ele>
        <time>2017-07-30T09:31:39Z</time>
      </trkpt>
      <trkpt lat="43.4397531487" lon="1.6119698994">
        <ele>169.33</ele>
        <time>2017-07-30T09:31:50Z</time>
      </trkpt>
      <trkpt lat="43.4397532325" lon="1.6119603440">
        <ele>168.85</ele>
        <time>2017-07-30T09:32:11Z</time>
      </trkpt>
      <trkpt lat="43.4397534840" lon="1.6119717434">
        <ele>168.85</ele>
        <time>2017-07-30T09:32:34Z</time>
      </trkpt>
      <trkpt lat="43.4397592675" lon="1.6119743418">
        <ele>168.37</ele>
        <time>2017-07-30T09:32:59Z</time>
      </trkpt>
      <trkpt lat="43.4397600219" lon="1.6119673010">
        <ele>168.85</ele>
        <time>2017-07-30T09:33:18Z</time>
      </trkpt>
      <trkpt lat="43.4397611115" lon="1.6119541414">
        <ele>168.37</ele>
        <time>2017-07-30T09:33:42Z</time>
      </trkpt>
      <trkpt lat="43.4397608601" lon="1.6119636968">
        <ele>168.37</ele>
        <time>2017-07-30T09:34:00Z</time>
      </trkpt>
      <trkpt lat="43.4397546574" lon="1.6119644511">
        <ele>168.37</ele>
        <time>2017-07-30T09:34:22Z</time>
      </trkpt>
      <trkpt lat="43.4397576749" lon="1.6119666304">
        <ele>168.37</ele>
        <time>2017-07-30T09:34:43Z</time>
      </trkpt>
      <trkpt lat="43.4397626203" lon="1.6119741742">
        <ele>168.37</ele>
        <time>2017-07-30T09:35:07Z</time>
      </trkpt>
      <trkpt lat="43.4397712536" lon="1.6119671334">
        <ele>168.37</ele>
        <time>2017-07-30T09:35:33Z</time>
      </trkpt>
      <trkpt lat="43.4397726785" lon="1.6119745933">
        <ele>168.37</ele>
        <time>2017-07-30T09:35:58Z</time>
      </trkpt>
      <trkpt lat="43.4397692420" lon="1.6119730845">
        <ele>168.37</ele>
        <time>2017-07-30T09:36:22Z</time>
      </trkpt>
      <trkpt lat="43.4397634584" lon="1.6119533870">
        <ele>168.37</ele>
        <time>2017-07-30T09:36:49Z</time>
      </trkpt>
      <trkpt lat="43.4397644643" lon="1.6119569074">
        <ele>168.37</ele>
        <time>2017-07-30T09:37:13Z</time>
      </trkpt>
      <trkpt lat="43.4397681523" lon="1.6119499505">
        <ele>168.37</ele>
        <time>2017-07-30T09:37:38Z</time>
      </trkpt>
      <trkpt lat="43.4397716727" lon="1.6119571589">
        <ele>168.37</ele>
        <time>2017-07-30T09:37:59Z</time>
      </trkpt>
      <trkpt lat="43.4397653025" lon="1.6119577456">
        <ele>168.37</ele>
        <time>2017-07-30T09:38:16Z</time>
      </trkpt>
      <trkpt lat="43.4397591837" lon="1.6119589191">
        <ele>168.37</ele>
        <time>2017-07-30T09:38:37Z</time>
      </trkpt>
      <trkpt lat="43.4397580940" lon="1.6119595896">
        <ele>168.37</ele>
        <time>2017-07-30T09:38:54Z</time>
      </trkpt>
      <trkpt lat="43.4397622850" lon="1.6119730845">
        <ele>168.37</ele>
        <time>2017-07-30T09:39:16Z</time>
      </trkpt>
      <trkpt lat="43.4397513885" lon="1.6119719949">
        <ele>167.89</ele>
        <time>2017-07-30T09:39:41Z</time>
      </trkpt>
      <trkpt lat="43.4397580940" lon="1.6119668819">
        <ele>167.89</ele>
        <time>2017-07-30T09:40:03Z</time>
      </trkpt>
      <trkpt lat="43.4397492930" lon="1.6119979788">
        <ele>167.89</ele>
        <time>2017-07-30T09:40:19Z</time>
      </trkpt>
      <trkpt lat="43.4397435095" lon="1.6120491922">
        <ele>167.89</ele>
        <time>2017-07-30T09:40:27Z</time>
      </trkpt>
      <trkpt lat="43.4397372231" lon="1.6120713204">
        <ele>167.89</ele>
        <time>2017-07-30T09:40:28Z</time>
      </trkpt>
      <trkpt lat="43.4397243150" lon="1.6120887548">
        <ele>168.37</ele>
        <time>2017-07-30T09:40:29Z</time>
      </trkpt>
      <trkpt lat="43.4397118259" lon="1.6120990645">
        <ele>167.89</ele>
        <time>2017-07-30T09:40:30Z</time>
      </trkpt>
      <trkpt lat="43.4397009294" lon="1.6121085361">
        <ele>167.89</ele>
        <time>2017-07-30T09:40:31Z</time>
      </trkpt>
      <trkpt lat="43.4396863449" lon="1.6121186782">
        <ele>167.89</ele>
        <time>2017-07-30T09:40:32Z</time>
      </trkpt>
      <trkpt lat="43.4396683238" lon="1.6121269763">
        <ele>167.89</ele>
        <time>2017-07-30T09:40:33Z</time>
      </trkpt>
      <trkpt lat="43.4396502189" lon="1.6121361125">
        <ele>168.37</ele>
        <time>2017-07-30T09:40:34Z</time>
      </trkpt>
      <trkpt lat="43.4396303538" lon="1.6121489368">
        <ele>168.37</ele>
        <time>2017-07-30T09:40:35Z</time>
      </trkpt>
      <trkpt lat="43.4396081418" lon="1.6121626832">
        <ele>168.37</ele>
        <time>2017-07-30T09:40:36Z</time>
      </trkpt>
      <trkpt lat="43.4395862650" lon="1.6121744178">
        <ele>168.37</ele>
        <time>2017-07-30T09:40:37Z</time>
      </trkpt>
      <trkpt lat="43.4395669028" lon="1.6121850628">
        <ele>168.85</ele>
        <time>2017-07-30T09:40:38Z</time>
      </trkpt>
      <trkpt lat="43.4395495523" lon="1.6121939477">
        <ele>168.85</ele>
        <time>2017-07-30T09:40:39Z</time>
      </trkpt>
      <trkpt lat="43.4395347163" lon="1.6122026648">
        <ele>169.33</ele>
        <time>2017-07-30T09:40:47Z</time>
      </trkpt>
      <trkpt lat="43.4395301901" lon="1.6122096218">
        <ele>168.85</ele>
        <time>2017-07-30T09:41:05Z</time>
      </trkpt>
      <trkpt lat="43.4394924715" lon="1.6121919360">
        <ele>168.85</ele>
        <time>2017-07-30T09:41:16Z</time>
      </trkpt>
      <trkpt lat="43.4394861851" lon="1.6121907625">
        <ele>168.85</ele>
        <time>2017-07-30T09:41:28Z</time>
      </trkpt>
      <trkpt lat="43.4394834191" lon="1.6121905949">
        <ele>168.85</ele>
        <time>2017-07-30T09:41:50Z</time>
      </trkpt>
      <trkpt lat="43.4394740313" lon="1.6121915169">
        <ele>168.85</ele>
        <time>2017-07-30T09:41:53Z</time>
      </trkpt>
      <trkpt lat="43.4394625481" lon="1.6121986415">
        <ele>169.33</ele>
        <time>2017-07-30T09:41:54Z</time>
      </trkpt>
      <trkpt lat="43.4394552559" lon="1.6122144833">
        <ele>168.85</ele>
        <time>2017-07-30T09:41:55Z</time>
      </trkpt>
      <trkpt lat="43.4394582734" lon="1.6122361924">
        <ele>168.85</ele>
        <time>2017-07-30T09:41:56Z</time>
      </trkpt>
      <trkpt lat="43.4394669067" lon="1.6122557223">
        <ele>168.85</ele>
        <time>2017-07-30T09:41:57Z</time>
      </trkpt>
      <trkpt lat="43.4394781385" lon="1.6122677922">
        <ele>168.85</ele>
        <time>2017-07-30T09:41:58Z</time>
      </trkpt>
      <trkpt lat="43.4394924715" lon="1.6122757550">
        <ele>168.85</ele>
        <time>2017-07-30T09:41:59Z</time>
      </trkpt>
      <trkpt lat="43.4395461995" lon="1.6123229451">
        <ele>169.33</ele>
        <time>2017-07-30T09:42:02Z</time>
      </trkpt>
      <trkpt lat="43.4395794757" lon="1.6125952732">
        <ele>168.85</ele>
        <time>2017-07-30T09:42:11Z</time>
      </trkpt>
      <trkpt lat="43.4395597782" lon="1.6126045771">
        <ele>168.85</ele>
        <time>2017-07-30T09:42:12Z</time>
      </trkpt>
      <trkpt lat="43.4395379014" lon="1.6126055829">
        <ele>168.85</ele>
        <time>2017-07-30T09:42:13Z</time>
      </trkpt>
      <trkpt lat="43.4395130910" lon="1.6126168147">
        <ele>168.85</ele>
        <time>2017-07-30T09:42:14Z</time>
      </trkpt>
      <trkpt lat="43.4394810721" lon="1.6126392782">
        <ele>168.85</ele>
        <time>2017-07-30T09:42:15Z</time>
      </trkpt>
      <trkpt lat="43.4394453652" lon="1.6126588080">
        <ele>168.85</ele>
        <time>2017-07-30T09:42:16Z</time>
      </trkpt>
      <trkpt lat="43.4394150227" lon="1.6126780864">
        <ele>168.85</ele>
        <time>2017-07-30T09:42:17Z</time>
      </trkpt>
      <trkpt lat="43.4393876139" lon="1.6127001308">
        <ele>168.85</ele>
        <time>2017-07-30T09:42:18Z</time>
      </trkpt>
      <trkpt lat="43.4393594507" lon="1.6127173137">
        <ele>168.85</ele>
        <time>2017-07-30T09:42:19Z</time>
      </trkpt>
      <trkpt lat="43.4393312037" lon="1.6127273720">
        <ele>168.85</ele>
        <time>2017-07-30T09:42:20Z</time>
      </trkpt>
      <trkpt lat="43.4393022861" lon="1.6127381008">
        <ele>168.85</ele>
        <time>2017-07-30T09:42:21Z</time>
      </trkpt>
      <trkpt lat="43.4392731171" lon="1.6127573792">
        <ele>168.85</ele>
        <time>2017-07-30T09:42:22Z</time>
      </trkpt>
      <trkpt lat="43.4392435290" lon="1.6127782501">
        <ele>168.37</ele>
        <time>2017-07-30T09:42:23Z</time>
      </trkpt>
      <trkpt lat="43.4392143600" lon="1.6128007974">
        <ele>168.37</ele>
        <time>2017-07-30T09:42:24Z</time>
      </trkpt>
      <trkpt lat="43.4391861968" lon="1.6128247697">
        <ele>168.85</ele>
        <time>2017-07-30T09:42:25Z</time>
      </trkpt>
      <trkpt lat="43.4390049800" lon="1.6129821818">
        <ele>169.33</ele>
        <time>2017-07-30T09:42:32Z</time>
      </trkpt>
      <trkpt lat="43.4389800020" lon="1.6130005382">
        <ele>169.33</ele>
        <time>2017-07-30T09:42:33Z</time>
      </trkpt>
      <trkpt lat="43.4389509168" lon="1.6130148713">
        <ele>169.33</ele>
        <time>2017-07-30T09:42:34Z</time>
      </trkpt>
      <trkpt lat="43.4389202390" lon="1.6130296234">
        <ele>169.33</ele>
        <time>2017-07-30T09:42:35Z</time>
      </trkpt>
      <trkpt lat="43.4388912376" lon="1.6130493209">
        <ele>169.33</ele>
        <time>2017-07-30T09:42:36Z</time>
      </trkpt>
      <trkpt lat="43.4388615657" lon="1.6130710300">
        <ele>169.33</ele>
        <time>2017-07-30T09:42:37Z</time>
      </trkpt>
      <trkpt lat="43.4385757428" lon="1.6133373231">
        <ele>169.33</ele>
        <time>2017-07-30T09:42:46Z</time>
      </trkpt>
      <trkpt lat="43.4382432327" lon="1.6137151793">
        <ele>169.81</ele>
        <time>2017-07-30T09:42:56Z</time>
      </trkpt>
      <trkpt lat="43.4382045083" lon="1.6137659736">
        <ele>169.81</ele>
        <time>2017-07-30T09:42:57Z</time>
      </trkpt>
      <trkpt lat="43.4379234631" lon="1.6141096316">
        <ele>170.29</ele>
        <time>2017-07-30T09:43:05Z</time>
      </trkpt>
      <trkpt lat="43.4376596007" lon="1.6144480929">
        <ele>170.29</ele>
        <time>2017-07-30T09:43:13Z</time>
      </trkpt>
      <trkpt lat="43.4374898672" lon="1.6146766674">
        <ele>170.29</ele>
        <time>2017-07-30T09:43:18Z</time>
      </trkpt>
      <trkpt lat="43.4369900543" lon="1.6152934078">
        <ele>170.29</ele>
        <time>2017-07-30T09:43:31Z</time>
      </trkpt>
      <trkpt lat="43.4367021360" lon="1.6156347189">
        <ele>170.77</ele>
        <time>2017-07-30T09:43:39Z</time>
      </trkpt>
      <trkpt lat="43.4362599067" lon="1.6161230486">
        <ele>170.77</ele>
        <time>2017-07-30T09:43:49Z</time>
      </trkpt>
      <trkpt lat="43.4358429909" lon="1.6165511962">
        <ele>170.29</ele>
        <time>2017-07-30T09:43:58Z</time>
      </trkpt>
      <trkpt lat="43.4358051047" lon="1.6165968776">
        <ele>170.29</ele>
        <time>2017-07-30T09:43:59Z</time>
      </trkpt>
      <trkpt lat="43.4355119895" lon="1.6169525217">
        <ele>170.77</ele>
        <time>2017-07-30T09:44:07Z</time>
      </trkpt>
      <trkpt lat="43.4354752768" lon="1.6169994604">
        <ele>170.77</ele>
        <time>2017-07-30T09:44:08Z</time>
      </trkpt>
      <trkpt lat="43.4352572635" lon="1.6173028853">
        <ele>170.77</ele>
        <time>2017-07-30T09:44:14Z</time>
      </trkpt>
      <trkpt lat="43.4351796471" lon="1.6174150351">
        <ele>170.77</ele>
        <time>2017-07-30T09:44:16Z</time>
      </trkpt>
      <trkpt lat="43.4351421800" lon="1.6174610518">
        <ele>170.77</ele>
        <time>2017-07-30T09:44:17Z</time>
      </trkpt>
      <trkpt lat="43.4351080656" lon="1.6175023746">
        <ele>170.77</ele>
        <time>2017-07-30T09:44:18Z</time>
      </trkpt>
      <trkpt lat="43.4350705147" lon="1.6175477207">
        <ele>170.77</ele>
        <time>2017-07-30T09:44:19Z</time>
      </trkpt>
      <trkpt lat="43.4350338019" lon="1.6175993532">
        <ele>170.77</ele>
        <time>2017-07-30T09:44:20Z</time>
      </trkpt>
      <trkpt lat="43.4349194728" lon="1.6177651472">
        <ele>171.25</ele>
        <time>2017-07-30T09:44:23Z</time>
      </trkpt>
      <trkpt lat="43.4348856937" lon="1.6178215574">
        <ele>171.25</ele>
        <time>2017-07-30T09:44:24Z</time>
      </trkpt>
      <trkpt lat="43.4348499030" lon="1.6178826615">
        <ele>171.25</ele>
        <time>2017-07-30T09:44:25Z</time>
      </trkpt>
      <trkpt lat="43.4344950970" lon="1.6184549779">
        <ele>171.25</ele>
        <time>2017-07-30T09:44:34Z</time>
      </trkpt>
      <trkpt lat="43.4340332542" lon="1.6190685332">
        <ele>170.77</ele>
        <time>2017-07-30T09:44:44Z</time>
      </trkpt>
      <trkpt lat="43.4338566475" lon="1.6192790028">
        <ele>171.25</ele>
        <time>2017-07-30T09:44:48Z</time>
      </trkpt>
      <trkpt lat="43.4335357044" lon="1.6196452919">
        <ele>170.77</ele>
        <time>2017-07-30T09:44:55Z</time>
      </trkpt>
      <trkpt lat="43.4330675751" lon="1.6201641317">
        <ele>170.29</ele>
        <time>2017-07-30T09:45:05Z</time>
      </trkpt>
      <trkpt lat="43.4326125216" lon="1.6206282377">
        <ele>170.29</ele>
        <time>2017-07-30T09:45:14Z</time>
      </trkpt>
      <trkpt lat="43.4324593004" lon="1.6207592469">
        <ele>170.77</ele>
        <time>2017-07-30T09:45:17Z</time>
      </trkpt>
      <trkpt lat="43.4319514409" lon="1.6209465824">
        <ele>171.25</ele>
        <time>2017-07-30T09:45:26Z</time>
      </trkpt>
      <trkpt lat="43.4317180887" lon="1.6209311597">
        <ele>171.25</ele>
        <time>2017-07-30T09:45:30Z</time>
      </trkpt>
      <trkpt lat="43.4309817385" lon="1.6208244581">
        <ele>171.25</ele>
        <time>2017-07-30T09:45:43Z</time>
      </trkpt>
      <trkpt lat="43.4304844402" lon="1.6208312474">
        <ele>171.73</ele>
        <time>2017-07-30T09:45:52Z</time>
      </trkpt>
      <trkpt lat="43.4300296381" lon="1.6209974606">
        <ele>172.21</ele>
        <time>2017-07-30T09:46:00Z</time>
      </trkpt>
      <trkpt lat="43.4299280494" lon="1.6210701317">
        <ele>172.69</ele>
        <time>2017-07-30T09:46:02Z</time>
      </trkpt>
      <trkpt lat="43.4294973873" lon="1.6215926595">
        <ele>172.69</ele>
        <time>2017-07-30T09:46:12Z</time>
      </trkpt>
      <trkpt lat="43.4291399829" lon="1.6221247427">
        <ele>172.69</ele>
        <time>2017-07-30T09:46:21Z</time>
      </trkpt>
      <trkpt lat="43.4291008394" lon="1.6221881937">
        <ele>172.69</ele>
        <time>2017-07-30T09:46:22Z</time>
      </trkpt>
      <trkpt lat="43.4286958259" lon="1.6227792017">
        <ele>173.66</ele>
        <time>2017-07-30T09:46:32Z</time>
      </trkpt>
      <trkpt lat="43.4284608811" lon="1.6231206805">
        <ele>174.14</ele>
        <time>2017-07-30T09:46:38Z</time>
      </trkpt>
      <trkpt lat="43.4284206480" lon="1.6231790185">
        <ele>174.14</ele>
        <time>2017-07-30T09:46:39Z</time>
      </trkpt>
      <trkpt lat="43.4280022234" lon="1.6237960104">
        <ele>173.17</ele>
        <time>2017-07-30T09:46:49Z</time>
      </trkpt>
      <trkpt lat="43.4276075196" lon="1.6244450212">
        <ele>172.69</ele>
        <time>2017-07-30T09:46:59Z</time>
      </trkpt>
      <trkpt lat="43.4273437411" lon="1.6249781940">
        <ele>172.69</ele>
        <time>2017-07-30T09:47:07Z</time>
      </trkpt>
      <trkpt lat="43.4272577427" lon="1.6251885798">
        <ele>173.17</ele>
        <time>2017-07-30T09:47:10Z</time>
      </trkpt>
      <trkpt lat="43.4271736722" lon="1.6254419647">
        <ele>173.17</ele>
        <time>2017-07-30T09:47:14Z</time>
      </trkpt>
      <trkpt lat="43.4269468579" lon="1.6260258481">
        <ele>173.17</ele>
        <time>2017-07-30T09:47:23Z</time>
      </trkpt>
      <trkpt lat="43.4269115701" lon="1.6261820868">
        <ele>172.21</ele>
        <time>2017-07-30T09:47:26Z</time>
      </trkpt>
      <trkpt lat="43.4267619532" lon="1.6266782116">
        <ele>171.25</ele>
        <time>2017-07-30T09:47:33Z</time>
      </trkpt>
      <trkpt lat="43.4266227297" lon="1.6271562316">
        <ele>175.58</ele>
        <time>2017-07-30T09:47:42Z</time>
      </trkpt>
      <trkpt lat="43.4266126715" lon="1.6271942854">
        <ele>172.21</ele>
        <time>2017-07-30T09:47:43Z</time>
      </trkpt>
      <trkpt lat="43.4265711810" lon="1.6273672041">
        <ele>175.58</ele>
        <time>2017-07-30T09:47:48Z</time>
      </trkpt>
      <trkpt lat="43.4265606198" lon="1.6273991391">
        <ele>173.17</ele>
        <time>2017-07-30T09:47:49Z</time>
      </trkpt>
      <trkpt lat="43.4264560975" lon="1.6277611535">
        <ele>173.66</ele>
        <time>2017-07-30T09:47:59Z</time>
      </trkpt>
      <trkpt lat="43.4263171256" lon="1.6281130258">
        <ele>173.17</ele>
        <time>2017-07-30T09:48:07Z</time>
      </trkpt>
      <trkpt lat="43.4262065683" lon="1.6284194682">
        <ele>172.21</ele>
        <time>2017-07-30T09:48:12Z</time>
      </trkpt>
      <trkpt lat="43.4261892177" lon="1.6284990124">
        <ele>171.73</ele>
        <time>2017-07-30T09:48:13Z</time>
      </trkpt>
      <trkpt lat="43.4261748008" lon="1.6285807360">
        <ele>171.73</ele>
        <time>2017-07-30T09:48:14Z</time>
      </trkpt>
      <trkpt lat="43.4261645749" lon="1.6286616214">
        <ele>172.21</ele>
        <time>2017-07-30T09:48:15Z</time>
      </trkpt>
      <trkpt lat="43.4261576179" lon="1.6287436802">
        <ele>173.17</ele>
        <time>2017-07-30T09:48:16Z</time>
      </trkpt>
      <trkpt lat="43.4260965139" lon="1.6294846404">
        <ele>172.69</ele>
        <time>2017-07-30T09:48:25Z</time>
      </trkpt>
      <trkpt lat="43.4261406865" lon="1.6298656818">
        <ele>173.66</ele>
        <time>2017-07-30T09:48:30Z</time>
      </trkpt>
      <trkpt lat="43.4262200631" lon="1.6301540192">
        <ele>172.69</ele>
        <time>2017-07-30T09:48:34Z</time>
      </trkpt>
      <trkpt lat="43.4263217356" lon="1.6304397583">
        <ele>173.17</ele>
        <time>2017-07-30T09:48:38Z</time>
      </trkpt>
      <trkpt lat="43.4264664073" lon="1.6307680774">
        <ele>172.69</ele>
        <time>2017-07-30T09:48:43Z</time>
      </trkpt>
      <trkpt lat="43.4265002701" lon="1.6308311094">
        <ele>172.69</ele>
        <time>2017-07-30T09:48:44Z</time>
      </trkpt>
      <trkpt lat="43.4267824050" lon="1.6313123144">
        <ele>172.69</ele>
        <time>2017-07-30T09:48:51Z</time>
      </trkpt>
      <trkpt lat="43.4268884361" lon="1.6315026674">
        <ele>172.69</ele>
        <time>2017-07-30T09:48:54Z</time>
      </trkpt>
      <trkpt lat="43.4270061180" lon="1.6317722294">
        <ele>173.17</ele>
        <time>2017-07-30T09:48:58Z</time>
      </trkpt>
      <trkpt lat="43.4270305932" lon="1.6318381112">
        <ele>173.17</ele>
        <time>2017-07-30T09:48:59Z</time>
      </trkpt>
      <trkpt lat="43.4271020070" lon="1.6320404503">
        <ele>173.17</ele>
        <time>2017-07-30T09:49:02Z</time>
      </trkpt>
      <trkpt lat="43.4271186031" lon="1.6321119480">
        <ele>173.17</ele>
        <time>2017-07-30T09:49:03Z</time>
      </trkpt>
      <trkpt lat="43.4271357860" lon="1.6321849544">
        <ele>173.17</ele>
        <time>2017-07-30T09:49:04Z</time>
      </trkpt>
      <trkpt lat="43.4271849040" lon="1.6325069871">
        <ele>172.69</ele>
        <time>2017-07-30T09:49:08Z</time>
      </trkpt>
      <trkpt lat="43.4271797072" lon="1.6325849388">
        <ele>172.69</ele>
        <time>2017-07-30T09:49:09Z</time>
      </trkpt>
      <trkpt lat="43.4270776156" lon="1.6330977436">
        <ele>173.17</ele>
        <time>2017-07-30T09:49:16Z</time>
      </trkpt>
      <trkpt lat="43.4269514680" lon="1.6334761865">
        <ele>173.17</ele>
        <time>2017-07-30T09:49:21Z</time>
      </trkpt>
      <trkpt lat="43.4269189462" lon="1.6335569043">
        <ele>172.69</ele>
        <time>2017-07-30T09:49:22Z</time>
      </trkpt>
      <trkpt lat="43.4268819820" lon="1.6336344369">
        <ele>172.69</ele>
        <time>2017-07-30T09:49:23Z</time>
      </trkpt>
      <trkpt lat="43.4268406592" lon="1.6337023303">
        <ele>172.69</ele>
        <time>2017-07-30T09:49:24Z</time>
      </trkpt>
      <trkpt lat="43.4268009290" lon="1.6337579023">
        <ele>172.69</ele>
        <time>2017-07-30T09:49:25Z</time>
      </trkpt>
      <trkpt lat="43.4265774675" lon="1.6340059228">
        <ele>172.21</ele>
        <time>2017-07-30T09:49:30Z</time>
      </trkpt>
      <trkpt lat="43.4265263379" lon="1.6340460721">
        <ele>172.21</ele>
        <time>2017-07-30T09:49:31Z</time>
      </trkpt>
      <trkpt lat="43.4264123440" lon="1.6341122054">
        <ele>172.21</ele>
        <time>2017-07-30T09:49:33Z</time>
      </trkpt>
      <trkpt lat="43.4263522457" lon="1.6341343336">
        <ele>172.21</ele>
        <time>2017-07-30T09:49:34Z</time>
      </trkpt>
      <trkpt lat="43.4262908902" lon="1.6341456492">
        <ele>172.21</ele>
        <time>2017-07-30T09:49:35Z</time>
      </trkpt>
      <trkpt lat="43.4262346476" lon="1.6341453139">
        <ele>172.21</ele>
        <time>2017-07-30T09:49:36Z</time>
      </trkpt>
      <trkpt lat="43.4261805844" lon="1.6341380216">
        <ele>172.21</ele>
        <time>2017-07-30T09:49:37Z</time>
      </trkpt>
      <trkpt lat="43.4260095097" lon="1.6341052484">
        <ele>172.21</ele>
        <time>2017-07-30T09:49:40Z</time>
      </trkpt>
      <trkpt lat="43.4259545244" lon="1.6340905800">
        <ele>172.21</ele>
        <time>2017-07-30T09:49:41Z</time>
      </trkpt>
      <trkpt lat="43.4256496746" lon="1.6340542026">
        <ele>171.25</ele>
        <time>2017-07-30T09:49:46Z</time>
      </trkpt>
      <trkpt lat="43.4255868103" lon="1.6340612434">
        <ele>171.73</ele>
        <time>2017-07-30T09:49:47Z</time>
      </trkpt>
      <trkpt lat="43.4255299810" lon="1.6340801865">
        <ele>172.21</ele>
        <time>2017-07-30T09:49:48Z</time>
      </trkpt>
      <trkpt lat="43.4254783485" lon="1.6341026500">
        <ele>172.69</ele>
        <time>2017-07-30T09:49:49Z</time>
      </trkpt>
      <trkpt lat="43.4254341759" lon="1.6341311485">
        <ele>172.69</ele>
        <time>2017-07-30T09:49:50Z</time>
      </trkpt>
      <trkpt lat="43.4253964573" lon="1.6341656819">
        <ele>172.69</ele>
        <time>2017-07-30T09:49:51Z</time>
      </trkpt>
      <trkpt lat="43.4253607504" lon="1.6342022270">
        <ele>172.69</ele>
        <time>2017-07-30T09:49:52Z</time>
      </trkpt>
      <trkpt lat="43.4251904301" lon="1.6344248503">
        <ele>173.17</ele>
        <time>2017-07-30T09:49:57Z</time>
      </trkpt>
      <trkpt lat="43.4248465206" lon="1.6349653993">
        <ele>172.69</ele>
        <time>2017-07-30T09:50:07Z</time>
      </trkpt>
      <trkpt lat="43.4244311973" lon="1.6356452554">
        <ele>172.69</ele>
        <time>2017-07-30T09:50:19Z</time>
      </trkpt>
      <trkpt lat="43.4241203964" lon="1.6361236107">
        <ele>172.69</ele>
        <time>2017-07-30T09:50:29Z</time>
      </trkpt>
      <trkpt lat="43.4241112601" lon="1.6361165699">
        <ele>172.69</ele>
        <time>2017-07-30T09:50:35Z</time>
      </trkpt>
      <trkpt lat="43.4241175465" lon="1.6361138877">
        <ele>172.21</ele>
        <time>2017-07-30T09:50:59Z</time>
      </trkpt>
      <trkpt lat="43.4241221566" lon="1.6361206770">
        <ele>172.21</ele>
        <time>2017-07-30T09:51:17Z</time>
      </trkpt>
      <trkpt lat="43.4241084941" lon="1.6361471638">
        <ele>172.21</ele>
        <time>2017-07-30T09:51:21Z</time>
      </trkpt>
      <trkpt lat="43.4240993578" lon="1.6361609939">
        <ele>172.21</ele>
        <time>2017-07-30T09:51:22Z</time>
      </trkpt>
      <trkpt lat="43.4240888804" lon="1.6361767519">
        <ele>172.21</ele>
        <time>2017-07-30T09:51:23Z</time>
      </trkpt>
      <trkpt lat="43.4240776487" lon="1.6361977905">
        <ele>172.21</ele>
        <time>2017-07-30T09:51:24Z</time>
      </trkpt>
      <trkpt lat="43.4240623936" lon="1.6362243611">
        <ele>172.21</ele>
        <time>2017-07-30T09:51:25Z</time>
      </trkpt>
      <trkpt lat="43.4238304663" lon="1.6365819331">
        <ele>172.21</ele>
        <time>2017-07-30T09:51:35Z</time>
      </trkpt>
      <trkpt lat="43.4235463198" lon="1.6369198076">
        <ele>172.21</ele>
        <time>2017-07-30T09:51:44Z</time>
      </trkpt>
      <trkpt lat="43.4233556315" lon="1.6370919719">
        <ele>172.69</ele>
        <time>2017-07-30T09:51:50Z</time>
      </trkpt>
      <trkpt lat="43.4232151508" lon="1.6372187901">
        <ele>172.21</ele>
        <time>2017-07-30T09:51:54Z</time>
      </trkpt>
      <trkpt lat="43.4229046851" lon="1.6374994162">
        <ele>172.21</ele>
        <time>2017-07-30T09:52:02Z</time>
      </trkpt>
      <trkpt lat="43.4226790443" lon="1.6377072036">
        <ele>172.21</ele>
        <time>2017-07-30T09:52:08Z</time>
      </trkpt>
      <trkpt lat="43.4226009250" lon="1.6377698164">
        <ele>172.21</ele>
        <time>2017-07-30T09:52:10Z</time>
      </trkpt>
      <trkpt lat="43.4225602727" lon="1.6377995722">
        <ele>172.69</ele>
        <time>2017-07-30T09:52:11Z</time>
      </trkpt>
      <trkpt lat="43.4224934690" lon="1.6378532164">
        <ele>172.69</ele>
        <time>2017-07-30T09:52:13Z</time>
      </trkpt>
      <trkpt lat="43.4222780541" lon="1.6380787734">
        <ele>172.69</ele>
        <time>2017-07-30T09:52:19Z</time>
      </trkpt>
      <trkpt lat="43.4222412575" lon="1.6381143965">
        <ele>172.69</ele>
        <time>2017-07-30T09:52:20Z</time>
      </trkpt>
      <trkpt lat="43.4220004454" lon="1.6383741517">
        <ele>172.69</ele>
        <time>2017-07-30T09:52:27Z</time>
      </trkpt>
      <trkpt lat="43.4216077533" lon="1.6388216615">
        <ele>173.66</ele>
        <time>2017-07-30T09:52:38Z</time>
      </trkpt>
      <trkpt lat="43.4213550389" lon="1.6391145252">
        <ele>174.14</ele>
        <time>2017-07-30T09:52:46Z</time>
      </trkpt>
      <trkpt lat="43.4210436512" lon="1.6394845024">
        <ele>174.14</ele>
        <time>2017-07-30T09:52:55Z</time>
      </trkpt>
      <trkpt lat="43.4206725843" lon="1.6397837363">
        <ele>173.66</ele>
        <time>2017-07-30T09:53:05Z</time>
      </trkpt>
      <trkpt lat="43.4206227958" lon="1.6398255620">
        <ele>173.66</ele>
        <time>2017-07-30T09:53:06Z</time>
      </trkpt>
      <trkpt lat="43.4205730911" lon="1.6398675554">
        <ele>173.66</ele>
        <time>2017-07-30T09:53:07Z</time>
      </trkpt>
      <trkpt lat="43.4205213748" lon="1.6399121471">
        <ele>173.17</ele>
        <time>2017-07-30T09:53:08Z</time>
      </trkpt>
      <trkpt lat="43.4204668924" lon="1.6399548948">
        <ele>173.17</ele>
        <time>2017-07-30T09:53:09Z</time>
      </trkpt>
      <trkpt lat="43.4204104822" lon="1.6399958823">
        <ele>173.17</ele>
        <time>2017-07-30T09:53:10Z</time>
      </trkpt>
      <trkpt lat="43.4203563351" lon="1.6400272306">
        <ele>173.66</ele>
        <time>2017-07-30T09:53:11Z</time>
      </trkpt>
      <trkpt lat="43.4203067143" lon="1.6400589142">
        <ele>173.17</ele>
        <time>2017-07-30T09:53:12Z</time>
      </trkpt>
      <trkpt lat="43.4202604461" lon="1.6400943696">
        <ele>173.66</ele>
        <time>2017-07-30T09:53:13Z</time>
      </trkpt>
      <trkpt lat="43.4202165250" lon="1.6401293222">
        <ele>173.66</ele>
        <time>2017-07-30T09:53:14Z</time>
      </trkpt>
      <trkpt lat="43.4201306105" lon="1.6401983052">
        <ele>174.14</ele>
        <time>2017-07-30T09:53:16Z</time>
      </trkpt>
      <trkpt lat="43.4200886171" lon="1.6402335931">
        <ele>174.14</ele>
        <time>2017-07-30T09:53:17Z</time>
      </trkpt>
      <trkpt lat="43.4200463723" lon="1.6402656958">
        <ele>174.14</ele>
        <time>2017-07-30T09:53:18Z</time>
      </trkpt>
      <trkpt lat="43.4200033732" lon="1.6402926017">
        <ele>174.14</ele>
        <time>2017-07-30T09:53:19Z</time>
      </trkpt>
      <trkpt lat="43.4199606255" lon="1.6403207649">
        <ele>174.14</ele>
        <time>2017-07-30T09:53:20Z</time>
      </trkpt>
      <trkpt lat="43.4199188836" lon="1.6403521970">
        <ele>174.14</ele>
        <time>2017-07-30T09:53:21Z</time>
      </trkpt>
      <trkpt lat="43.4198765550" lon="1.6403795220">
        <ele>174.14</ele>
        <time>2017-07-30T09:53:22Z</time>
      </trkpt>
      <trkpt lat="43.4198366571" lon="1.6404033266">
        <ele>174.14</ele>
        <time>2017-07-30T09:53:23Z</time>
      </trkpt>
      <trkpt lat="43.4195017163" lon="1.6406447254">
        <ele>174.14</ele>
        <time>2017-07-30T09:53:32Z</time>
      </trkpt>
      <trkpt lat="43.4194229264" lon="1.6406999622">
        <ele>174.14</ele>
        <time>2017-07-30T09:53:34Z</time>
      </trkpt>
      <trkpt lat="43.4193782508" lon="1.6407231800">
        <ele>173.66</ele>
        <time>2017-07-30T09:53:35Z</time>
      </trkpt>
      <trkpt lat="43.4189358540" lon="1.6409071628">
        <ele>172.69</ele>
        <time>2017-07-30T09:53:42Z</time>
      </trkpt>
      <trkpt lat="43.4188293200" lon="1.6409606393">
        <ele>172.69</ele>
        <time>2017-07-30T09:53:44Z</time>
      </trkpt>
      <trkpt lat="43.4187859856" lon="1.6409678478">
        <ele>173.17</ele>
        <time>2017-07-30T09:53:45Z</time>
      </trkpt>
      <trkpt lat="43.4187583253" lon="1.6409698594">
        <ele>173.17</ele>
        <time>2017-07-30T09:53:46Z</time>
      </trkpt>
      <trkpt lat="43.4187358618" lon="1.6409741342">
        <ele>173.66</ele>
        <time>2017-07-30T09:53:47Z</time>
      </trkpt>
      <trkpt lat="43.4187221155" lon="1.6409809235">
        <ele>173.66</ele>
        <time>2017-07-30T09:53:48Z</time>
      </trkpt>
      <trkpt lat="43.4187110513" lon="1.6409908142">
        <ele>173.66</ele>
        <time>2017-07-30T09:53:49Z</time>
      </trkpt>
      <trkpt lat="43.4187031724" lon="1.6410051472">
        <ele>173.66</ele>
        <time>2017-07-30T09:53:50Z</time>
      </trkpt>
      <trkpt lat="43.4186968859" lon="1.6410212405">
        <ele>173.66</ele>
        <time>2017-07-30T09:53:51Z</time>
      </trkpt>
      <trkpt lat="43.4186905995" lon="1.6410374176">
        <ele>173.66</ele>
        <time>2017-07-30T09:53:52Z</time>
      </trkpt>
      <trkpt lat="43.4186587483" lon="1.6412721109">
        <ele>173.66</ele>
        <time>2017-07-30T09:54:01Z</time>
      </trkpt>
      <trkpt lat="43.4186441638" lon="1.6413620487">
        <ele>173.17</ele>
        <time>2017-07-30T09:54:05Z</time>
      </trkpt>
      <trkpt lat="43.4186304174" lon="1.6413745377">
        <ele>173.66</ele>
        <time>2017-07-30T09:54:06Z</time>
      </trkpt>
      <trkpt lat="43.4186122287" lon="1.6413730290">
        <ele>173.66</ele>
        <time>2017-07-30T09:54:07Z</time>
      </trkpt>
      <trkpt lat="43.4186006617" lon="1.6413553432">
        <ele>173.66</ele>
        <time>2017-07-30T09:54:08Z</time>
      </trkpt>
      <trkpt lat="43.4186065290" lon="1.6413392499">
        <ele>173.66</ele>
        <time>2017-07-30T09:54:09Z</time>
      </trkpt>
      <trkpt lat="43.4186207782" lon="1.6413291916">
        <ele>173.17</ele>
        <time>2017-07-30T09:54:10Z</time>
      </trkpt>
      <trkpt lat="43.4186353628" lon="1.6413153615">
        <ele>173.66</ele>
        <time>2017-07-30T09:54:11Z</time>
      </trkpt>
      <trkpt lat="43.4186462592" lon="1.6412957478">
        <ele>173.66</ele>
        <time>2017-07-30T09:54:12Z</time>
      </trkpt>
      <trkpt lat="43.4186539706" lon="1.6412734520">
        <ele>173.66</ele>
        <time>2017-07-30T09:54:13Z</time>
      </trkpt>
      <trkpt lat="43.4186589997" lon="1.6412448697">
        <ele>173.66</ele>
        <time>2017-07-30T09:54:14Z</time>
      </trkpt>
      <trkpt lat="43.4186844807" lon="1.6410043091">
        <ele>173.66</ele>
        <time>2017-07-30T09:54:22Z</time>
      </trkpt>
      <trkpt lat="43.4186763503" lon="1.6409815103">
        <ele>173.66</ele>
        <time>2017-07-30T09:54:31Z</time>
      </trkpt>
      <trkpt lat="43.4186408948" lon="1.6410218272">
        <ele>173.17</ele>
        <time>2017-07-30T09:54:42Z</time>
      </trkpt>
      <trkpt lat="43.4186375421" lon="1.6410395131">
        <ele>173.17</ele>
        <time>2017-07-30T09:54:43Z</time>
      </trkpt>
      <trkpt lat="43.4186415654" lon="1.6410587914">
        <ele>173.17</ele>
        <time>2017-07-30T09:54:44Z</time>
      </trkpt>
      <trkpt lat="43.4186486062" lon="1.6410814226">
        <ele>173.17</ele>
        <time>2017-07-30T09:54:45Z</time>
      </trkpt>
      <trkpt lat="43.4186566528" lon="1.6411060654">
        <ele>173.17</ele>
        <time>2017-07-30T09:54:46Z</time>
      </trkpt>
      <trkpt lat="43.4186605085" lon="1.6411311273">
        <ele>173.17</ele>
        <time>2017-07-30T09:54:47Z</time>
      </trkpt>
      <trkpt lat="43.4186610952" lon="1.6411569435">
        <ele>173.17</ele>
        <time>2017-07-30T09:54:48Z</time>
      </trkpt>
      <trkpt lat="43.4186550602" lon="1.6411876213">
        <ele>172.69</ele>
        <time>2017-07-30T09:54:49Z</time>
      </trkpt>
      <trkpt lat="43.4186423197" lon="1.6412235796">
        <ele>172.69</ele>
        <time>2017-07-30T09:54:50Z</time>
      </trkpt>
      <trkpt lat="43.4186253883" lon="1.6412531678">
        <ele>172.69</ele>
        <time>2017-07-30T09:54:51Z</time>
      </trkpt>
      <trkpt lat="43.4186045174" lon="1.6412770562">
        <ele>172.69</ele>
        <time>2017-07-30T09:54:52Z</time>
      </trkpt>
      <trkpt lat="43.4185795393" lon="1.6413016152">
        <ele>172.69</ele>
        <time>2017-07-30T09:54:53Z</time>
      </trkpt>
      <trkpt lat="43.4185528010" lon="1.6413211450">
        <ele>173.17</ele>
        <time>2017-07-30T09:54:54Z</time>
      </trkpt>
      <trkpt lat="43.4185274038" lon="1.6413329635">
        <ele>173.17</ele>
        <time>2017-07-30T09:54:55Z</time>
      </trkpt>
      <trkpt lat="43.4184972290" lon="1.6413386632">
        <ele>173.17</ele>
        <time>2017-07-30T09:54:56Z</time>
      </trkpt>
      <trkpt lat="43.4184660483" lon="1.6413422674">
        <ele>173.17</ele>
        <time>2017-07-30T09:54:57Z</time>
      </trkpt>
      <trkpt lat="43.4182345401" lon="1.6413822491">
        <ele>174.14</ele>
        <time>2017-07-30T09:55:05Z</time>
      </trkpt>
      <trkpt lat="43.4180607833" lon="1.6414891183">
        <ele>173.66</ele>
        <time>2017-07-30T09:55:13Z</time>
      </trkpt>
      <trkpt lat="43.4178184625" lon="1.6416813992">
        <ele>172.21</ele>
        <time>2017-07-30T09:55:24Z</time>
      </trkpt>
      <trkpt lat="43.4177795704" lon="1.6417479515">
        <ele>175.10</ele>
        <time>2017-07-30T09:55:26Z</time>
      </trkpt>
      <trkpt lat="43.4174898919" lon="1.6420393065">
        <ele>174.14</ele>
        <time>2017-07-30T09:55:37Z</time>
      </trkpt>
      <trkpt lat="43.4170863032" lon="1.6423637699">
        <ele>173.17</ele>
        <time>2017-07-30T09:55:49Z</time>
      </trkpt>
      <trkpt lat="43.4168849699" lon="1.6425402928">
        <ele>176.54</ele>
        <time>2017-07-30T09:55:55Z</time>
      </trkpt>
      <trkpt lat="43.4168524481" lon="1.6425707191">
        <ele>173.17</ele>
        <time>2017-07-30T09:55:56Z</time>
      </trkpt>
      <trkpt lat="43.4164349455" lon="1.6430025548">
        <ele>173.17</ele>
        <time>2017-07-30T09:56:09Z</time>
      </trkpt>
      <trkpt lat="43.4164049383" lon="1.6430440452">
        <ele>174.62</ele>
        <time>2017-07-30T09:56:10Z</time>
      </trkpt>
      <trkpt lat="43.4162552375" lon="1.6432563588">
        <ele>174.62</ele>
        <time>2017-07-30T09:56:15Z</time>
      </trkpt>
      <trkpt lat="43.4162252303" lon="1.6432970110">
        <ele>174.62</ele>
        <time>2017-07-30T09:56:16Z</time>
      </trkpt>
      <trkpt lat="43.4161356278" lon="1.6434150282">
        <ele>174.14</ele>
        <time>2017-07-30T09:56:19Z</time>
      </trkpt>
      <trkpt lat="43.4158910438" lon="1.6437269188">
        <ele>176.06</ele>
        <time>2017-07-30T09:56:29Z</time>
      </trkpt>
      <trkpt lat="43.4158613719" lon="1.6438083071">
        <ele>176.06</ele>
        <time>2017-07-30T09:56:31Z</time>
      </trkpt>
      <trkpt lat="43.4158393275" lon="1.6438492108">
        <ele>176.06</ele>
        <time>2017-07-30T09:56:32Z</time>
      </trkpt>
      <trkpt lat="43.4156298637" lon="1.6442888416">
        <ele>175.58</ele>
        <time>2017-07-30T09:56:42Z</time>
      </trkpt>
      <trkpt lat="43.4153549373" lon="1.6448522732">
        <ele>175.58</ele>
        <time>2017-07-30T09:56:54Z</time>
      </trkpt>
      <trkpt lat="43.4153324738" lon="1.6448987927">
        <ele>175.58</ele>
        <time>2017-07-30T09:56:55Z</time>
      </trkpt>
      <trkpt lat="43.4152509179" lon="1.6450544447">
        <ele>175.58</ele>
        <time>2017-07-30T09:56:58Z</time>
      </trkpt>
      <trkpt lat="43.4150430467" lon="1.6454665828">
        <ele>176.06</ele>
        <time>2017-07-30T09:57:07Z</time>
      </trkpt>
      <trkpt lat="43.4147403762" lon="1.6459913738">
        <ele>176.06</ele>
        <time>2017-07-30T09:57:17Z</time>
      </trkpt>
      <trkpt lat="43.4143802058" lon="1.6465331800">
        <ele>176.06</ele>
        <time>2017-07-30T09:57:28Z</time>
      </trkpt>
      <trkpt lat="43.4143067803" lon="1.6466248780">
        <ele>176.06</ele>
        <time>2017-07-30T09:57:30Z</time>
      </trkpt>
      <trkpt lat="43.4140091389" lon="1.6469251178">
        <ele>176.06</ele>
        <time>2017-07-30T09:57:37Z</time>
      </trkpt>
      <trkpt lat="43.4138663951" lon="1.6470274609">
        <ele>176.06</ele>
        <time>2017-07-30T09:57:40Z</time>
      </trkpt>
      <trkpt lat="43.4138178639" lon="1.6470547859">
        <ele>176.06</ele>
        <time>2017-07-30T09:57:41Z</time>
      </trkpt>
      <trkpt lat="43.4137229808" lon="1.6471081786">
        <ele>176.06</ele>
        <time>2017-07-30T09:57:43Z</time>
      </trkpt>
      <trkpt lat="43.4135283530" lon="1.6471914947">
        <ele>176.06</ele>
        <time>2017-07-30T09:57:47Z</time>
      </trkpt>
      <trkpt lat="43.4129890613" lon="1.6473983601">
        <ele>176.54</ele>
        <time>2017-07-30T09:57:58Z</time>
      </trkpt>
      <trkpt lat="43.4129406977" lon="1.6474103462">
        <ele>176.54</ele>
        <time>2017-07-30T09:57:59Z</time>
      </trkpt>
      <trkpt lat="43.4128901549" lon="1.6474173032">
        <ele>176.54</ele>
        <time>2017-07-30T09:58:00Z</time>
      </trkpt>
      <trkpt lat="43.4128387738" lon="1.6474317200">
        <ele>176.54</ele>
        <time>2017-07-30T09:58:01Z</time>
      </trkpt>
      <trkpt lat="43.4126315732" lon="1.6475041397">
        <ele>176.54</ele>
        <time>2017-07-30T09:58:05Z</time>
      </trkpt>
      <trkpt lat="43.4125828743" lon="1.6475308780">
        <ele>177.02</ele>
        <time>2017-07-30T09:58:06Z</time>
      </trkpt>
      <trkpt lat="43.4125345107" lon="1.6475628968">
        <ele>177.02</ele>
        <time>2017-07-30T09:58:07Z</time>
      </trkpt>
      <trkpt lat="43.4123300761" lon="1.6477161180">
        <ele>177.50</ele>
        <time>2017-07-30T09:58:12Z</time>
      </trkpt>
      <trkpt lat="43.4122358635" lon="1.6478249989">
        <ele>177.50</ele>
        <time>2017-07-30T09:58:15Z</time>
      </trkpt>
      <trkpt lat="43.4122078680" lon="1.6478673276">
        <ele>177.50</ele>
        <time>2017-07-30T09:58:16Z</time>
      </trkpt>
      <trkpt lat="43.4120388888" lon="1.6481155157">
        <ele>177.02</ele>
        <time>2017-07-30T09:58:21Z</time>
      </trkpt>
      <trkpt lat="43.4120135754" lon="1.6481756140">
        <ele>177.50</ele>
        <time>2017-07-30T09:58:22Z</time>
      </trkpt>
      <trkpt lat="43.4119910281" lon="1.6482287552">
        <ele>177.50</ele>
        <time>2017-07-30T09:58:23Z</time>
      </trkpt>
      <trkpt lat="43.4119619429" lon="1.6482815612">
        <ele>177.02</ele>
        <time>2017-07-30T09:58:24Z</time>
      </trkpt>
      <trkpt lat="43.4119355399" lon="1.6483384743">
        <ele>177.02</ele>
        <time>2017-07-30T09:58:25Z</time>
      </trkpt>
      <trkpt lat="43.4119173512" lon="1.6483924538">
        <ele>177.50</ele>
        <time>2017-07-30T09:58:26Z</time>
      </trkpt>
      <trkpt lat="43.4117892757" lon="1.6487365309">
        <ele>177.02</ele>
        <time>2017-07-30T09:58:32Z</time>
      </trkpt>
      <trkpt lat="43.4117689915" lon="1.6487918515">
        <ele>176.54</ele>
        <time>2017-07-30T09:58:33Z</time>
      </trkpt>
      <trkpt lat="43.4117456060" lon="1.6488473397">
        <ele>176.54</ele>
        <time>2017-07-30T09:58:34Z</time>
      </trkpt>
      <trkpt lat="43.4117260762" lon="1.6489019059">
        <ele>176.54</ele>
        <time>2017-07-30T09:58:35Z</time>
      </trkpt>
      <trkpt lat="43.4117057081" lon="1.6489637643">
        <ele>176.54</ele>
        <time>2017-07-30T09:58:36Z</time>
      </trkpt>
      <trkpt lat="43.4116067179" lon="1.6492598969">
        <ele>176.54</ele>
        <time>2017-07-30T09:58:41Z</time>
      </trkpt>
      <trkpt lat="43.4115880262" lon="1.6493245214">
        <ele>176.54</ele>
        <time>2017-07-30T09:58:42Z</time>
      </trkpt>
      <trkpt lat="43.4114571009" lon="1.6498283576">
        <ele>176.54</ele>
        <time>2017-07-30T09:58:50Z</time>
      </trkpt>
      <trkpt lat="43.4113837592" lon="1.6504773684">
        <ele>176.54</ele>
        <time>2017-07-30T09:58:59Z</time>
      </trkpt>
      <trkpt lat="43.4112808295" lon="1.6514277086">
        <ele>175.58</ele>
        <time>2017-07-30T09:59:07Z</time>
      </trkpt>
      <trkpt lat="43.4112798236" lon="1.6520995181">
        <ele>177.02</ele>
        <time>2017-07-30T09:59:16Z</time>
      </trkpt>
      <trkpt lat="43.4112950787" lon="1.6525969841">
        <ele>177.02</ele>
        <time>2017-07-30T09:59:24Z</time>
      </trkpt>
      <trkpt lat="43.4113042988" lon="1.6526563279">
        <ele>177.50</ele>
        <time>2017-07-30T09:59:25Z</time>
      </trkpt>
      <trkpt lat="43.4113827534" lon="1.6532225255">
        <ele>177.98</ele>
        <time>2017-07-30T09:59:35Z</time>
      </trkpt>
      <trkpt lat="43.4113899618" lon="1.6532822885">
        <ele>177.98</ele>
        <time>2017-07-30T09:59:36Z</time>
      </trkpt>
      <trkpt lat="43.4115167800" lon="1.6537724622">
        <ele>177.98</ele>
        <time>2017-07-30T09:59:45Z</time>
      </trkpt>
      <trkpt lat="43.4116363060" lon="1.6541427746">
        <ele>177.98</ele>
        <time>2017-07-30T09:59:53Z</time>
      </trkpt>
      <trkpt lat="43.4116912074" lon="1.6543524060">
        <ele>177.50</ele>
        <time>2017-07-30T09:59:57Z</time>
      </trkpt>
      <trkpt lat="43.4117099829" lon="1.6544177011">
        <ele>177.50</ele>
        <time>2017-07-30T09:59:58Z</time>
      </trkpt>
      <trkpt lat="43.4117220528" lon="1.6544872709">
        <ele>177.02</ele>
        <time>2017-07-30T09:59:59Z</time>
      </trkpt>
      <trkpt lat="43.4117341228" lon="1.6545597743">
        <ele>177.02</ele>
        <time>2017-07-30T10:00:00Z</time>
      </trkpt>
      <trkpt lat="43.4117489588" lon="1.6546321101">
        <ele>177.02</ele>
        <time>2017-07-30T10:00:01Z</time>
      </trkpt>
      <trkpt lat="43.4118508827" lon="1.6551302467">
        <ele>176.06</ele>
        <time>2017-07-30T10:00:08Z</time>
      </trkpt>
      <trkpt lat="43.4118620306" lon="1.6551936977">
        <ele>176.54</ele>
        <time>2017-07-30T10:00:09Z</time>
      </trkpt>
      <trkpt lat="43.4118747711" lon="1.6552589927">
        <ele>177.02</ele>
        <time>2017-07-30T10:00:10Z</time>
      </trkpt>
      <trkpt lat="43.4119711630" lon="1.6557414550">
        <ele>177.50</ele>
        <time>2017-07-30T10:00:17Z</time>
      </trkpt>
      <trkpt lat="43.4120042715" lon="1.6558765713">
        <ele>177.50</ele>
        <time>2017-07-30T10:00:19Z</time>
      </trkpt>
      <trkpt lat="43.4120191075" lon="1.6559449676">
        <ele>177.50</ele>
        <time>2017-07-30T10:00:20Z</time>
      </trkpt>
      <trkpt lat="43.4120836481" lon="1.6562190559">
        <ele>177.50</ele>
        <time>2017-07-30T10:00:24Z</time>
      </trkpt>
      <trkpt lat="43.4120962210" lon="1.6562858596">
        <ele>177.02</ele>
        <time>2017-07-30T10:00:25Z</time>
      </trkpt>
      <trkpt lat="43.4121118952" lon="1.6563553456">
        <ele>177.02</ele>
        <time>2017-07-30T10:00:26Z</time>
      </trkpt>
      <trkpt lat="43.4122294094" lon="1.6569647938">
        <ele>177.98</ele>
        <time>2017-07-30T10:00:36Z</time>
      </trkpt>
      <trkpt lat="43.4122795332" lon="1.6574884113">
        <ele>175.58</ele>
        <time>2017-07-30T10:00:43Z</time>
      </trkpt>
      <trkpt lat="43.4122881666" lon="1.6577642597">
        <ele>174.62</ele>
        <time>2017-07-30T10:00:46Z</time>
      </trkpt>
      <trkpt lat="43.4122817125" lon="1.6585498955">
        <ele>174.62</ele>
        <time>2017-07-30T10:00:55Z</time>
      </trkpt>
      <trkpt lat="43.4122688882" lon="1.6587734409">
        <ele>175.10</ele>
        <time>2017-07-30T10:00:58Z</time>
      </trkpt>
      <trkpt lat="43.4122615121" lon="1.6588309407">
        <ele>175.58</ele>
        <time>2017-07-30T10:00:59Z</time>
      </trkpt>
      <trkpt lat="43.4121845663" lon="1.6593613476">
        <ele>176.06</ele>
        <time>2017-07-30T10:01:08Z</time>
      </trkpt>
      <trkpt lat="43.4121686406" lon="1.6594177578">
        <ele>175.58</ele>
        <time>2017-07-30T10:01:09Z</time>
      </trkpt>
      <trkpt lat="43.4121283237" lon="1.6595985554">
        <ele>176.06</ele>
        <time>2017-07-30T10:01:12Z</time>
      </trkpt>
      <trkpt lat="43.4120660461" lon="1.6598298959">
        <ele>175.58</ele>
        <time>2017-07-30T10:01:16Z</time>
      </trkpt>
      <trkpt lat="43.4120466001" lon="1.6598854680">
        <ele>176.06</ele>
        <time>2017-07-30T10:01:17Z</time>
      </trkpt>
      <trkpt lat="43.4117610287" lon="1.6605839320">
        <ele>175.58</ele>
        <time>2017-07-30T10:01:29Z</time>
      </trkpt>
      <trkpt lat="43.4116051253" lon="1.6608702578">
        <ele>176.06</ele>
        <time>2017-07-30T10:01:34Z</time>
      </trkpt>
      <trkpt lat="43.4115739446" lon="1.6609148495">
        <ele>176.06</ele>
        <time>2017-07-30T10:01:35Z</time>
      </trkpt>
      <trkpt lat="43.4115410037" lon="1.6609596927">
        <ele>175.58</ele>
        <time>2017-07-30T10:01:36Z</time>
      </trkpt>
      <trkpt lat="43.4115084819" lon="1.6610081401">
        <ele>175.58</ele>
        <time>2017-07-30T10:01:37Z</time>
      </trkpt>
      <trkpt lat="43.4114770498" lon="1.6610643826">
        <ele>176.06</ele>
        <time>2017-07-30T10:01:38Z</time>
      </trkpt>
      <trkpt lat="43.4114440251" lon="1.6611225531">
        <ele>175.58</ele>
        <time>2017-07-30T10:01:39Z</time>
      </trkpt>
      <trkpt lat="43.4113032091" lon="1.6613487806">
        <ele>175.58</ele>
        <time>2017-07-30T10:01:43Z</time>
      </trkpt>
      <trkpt lat="43.4112012014" lon="1.6615251359">
        <ele>176.06</ele>
        <time>2017-07-30T10:01:46Z</time>
      </trkpt>
      <trkpt lat="43.4108905680" lon="1.6619169060">
        <ele>176.06</ele>
        <time>2017-07-30T10:01:54Z</time>
      </trkpt>
      <trkpt lat="43.4104864765" lon="1.6624169704">
        <ele>175.58</ele>
        <time>2017-07-30T10:02:04Z</time>
      </trkpt>
      <trkpt lat="43.4101563133" lon="1.6627625562">
        <ele>176.06</ele>
        <time>2017-07-30T10:02:12Z</time>
      </trkpt>
      <trkpt lat="43.4098888468" lon="1.6630886123">
        <ele>175.58</ele>
        <time>2017-07-30T10:02:19Z</time>
      </trkpt>
      <trkpt lat="43.4098485298" lon="1.6631251574">
        <ele>175.58</ele>
        <time>2017-07-30T10:02:20Z</time>
      </trkpt>
      <trkpt lat="43.4098084643" lon="1.6631599423">
        <ele>175.58</ele>
        <time>2017-07-30T10:02:21Z</time>
      </trkpt>
      <trkpt lat="43.4092885349" lon="1.6636574082">
        <ele>176.06</ele>
        <time>2017-07-30T10:02:34Z</time>
      </trkpt>
      <trkpt lat="43.4088748042" lon="1.6640078556">
        <ele>175.58</ele>
        <time>2017-07-30T10:02:43Z</time>
      </trkpt>
      <trkpt lat="43.4087418672" lon="1.6641146410">
        <ele>176.06</ele>
        <time>2017-07-30T10:02:46Z</time>
      </trkpt>
      <trkpt lat="43.4087010473" lon="1.6641444806">
        <ele>175.58</ele>
        <time>2017-07-30T10:02:47Z</time>
      </trkpt>
      <trkpt lat="43.4086614009" lon="1.6641797684">
        <ele>175.58</ele>
        <time>2017-07-30T10:02:48Z</time>
      </trkpt>
      <trkpt lat="43.4086176474" lon="1.6642228514">
        <ele>176.06</ele>
        <time>2017-07-30T10:02:49Z</time>
      </trkpt>
      <trkpt lat="43.4085715469" lon="1.6642619111">
        <ele>175.58</ele>
        <time>2017-07-30T10:02:50Z</time>
      </trkpt>
      <trkpt lat="43.4079989791" lon="1.6647273581">
        <ele>175.58</ele>
        <time>2017-07-30T10:03:02Z</time>
      </trkpt>
      <trkpt lat="43.4074834082" lon="1.6651002690">
        <ele>175.58</ele>
        <time>2017-07-30T10:03:12Z</time>
      </trkpt>
      <trkpt lat="43.4071707632" lon="1.6653117444">
        <ele>176.06</ele>
        <time>2017-07-30T10:03:19Z</time>
      </trkpt>
      <trkpt lat="43.4071204718" lon="1.6653354652">
        <ele>176.06</ele>
        <time>2017-07-30T10:03:20Z</time>
      </trkpt>
      <trkpt lat="43.4070693422" lon="1.6653596889">
        <ele>175.58</ele>
        <time>2017-07-30T10:03:21Z</time>
      </trkpt>
      <trkpt lat="43.4064523503" lon="1.6656655446">
        <ele>175.58</ele>
        <time>2017-07-30T10:03:32Z</time>
      </trkpt>
      <trkpt lat="43.4060232807" lon="1.6658630222">
        <ele>175.58</ele>
        <time>2017-07-30T10:03:39Z</time>
      </trkpt>
      <trkpt lat="43.4055301733" lon="1.6661988012">
        <ele>175.58</ele>
        <time>2017-07-30T10:03:48Z</time>
      </trkpt>
      <trkpt lat="43.4050995111" lon="1.6665824410">
        <ele>175.58</ele>
        <time>2017-07-30T10:03:57Z</time>
      </trkpt>
      <trkpt lat="43.4046023805" lon="1.6671169549">
        <ele>175.58</ele>
        <time>2017-07-30T10:04:07Z</time>
      </trkpt>
      <trkpt lat="43.4042505920" lon="1.6676040273">
        <ele>176.06</ele>
        <time>2017-07-30T10:04:16Z</time>
      </trkpt>
      <trkpt lat="43.4041097760" lon="1.6678453423">
        <ele>176.06</ele>
        <time>2017-07-30T10:04:20Z</time>
      </trkpt>
      <trkpt lat="43.4040731471" lon="1.6679030936">
        <ele>176.06</ele>
        <time>2017-07-30T10:04:21Z</time>
      </trkpt>
      <trkpt lat="43.4037320036" lon="1.6687240172">
        <ele>175.58</ele>
        <time>2017-07-30T10:04:33Z</time>
      </trkpt>
      <trkpt lat="43.4035978932" lon="1.6691003647">
        <ele>176.06</ele>
        <time>2017-07-30T10:04:39Z</time>
      </trkpt>
      <trkpt lat="43.4035331011" lon="1.6693022009">
        <ele>176.06</ele>
        <time>2017-07-30T10:04:42Z</time>
      </trkpt>
      <trkpt lat="43.4035059437" lon="1.6693722736">
        <ele>176.06</ele>
        <time>2017-07-30T10:04:43Z</time>
      </trkpt>
      <trkpt lat="43.4034790378" lon="1.6694414243">
        <ele>176.06</ele>
        <time>2017-07-30T10:04:44Z</time>
      </trkpt>
      <trkpt lat="43.4034533892" lon="1.6695085634">
        <ele>176.06</ele>
        <time>2017-07-30T10:04:45Z</time>
      </trkpt>
      <trkpt lat="43.4034257289" lon="1.6695767920">
        <ele>176.06</ele>
        <time>2017-07-30T10:04:46Z</time>
      </trkpt>
      <trkpt lat="43.4033342823" lon="1.6698476113">
        <ele>176.06</ele>
        <time>2017-07-30T10:04:50Z</time>
      </trkpt>
      <trkpt lat="43.4033074602" lon="1.6699175164">
        <ele>176.06</ele>
        <time>2017-07-30T10:04:51Z</time>
      </trkpt>
      <trkpt lat="43.4032860026" lon="1.6699855775">
        <ele>176.06</ele>
        <time>2017-07-30T10:04:52Z</time>
      </trkpt>
      <trkpt lat="43.4032640420" lon="1.6700544767">
        <ele>176.06</ele>
        <time>2017-07-30T10:04:53Z</time>
      </trkpt>
      <trkpt lat="43.4032378066" lon="1.6701249685">
        <ele>176.06</ele>
        <time>2017-07-30T10:04:54Z</time>
      </trkpt>
      <trkpt lat="43.4031834919" lon="1.6702739149">
        <ele>176.06</ele>
        <time>2017-07-30T10:04:56Z</time>
      </trkpt>
      <trkpt lat="43.4031579271" lon="1.6703443229">
        <ele>176.06</ele>
        <time>2017-07-30T10:04:57Z</time>
      </trkpt>
      <trkpt lat="43.4031116590" lon="1.6704811156">
        <ele>176.54</ele>
        <time>2017-07-30T10:04:59Z</time>
      </trkpt>
      <trkpt lat="43.4029269218" lon="1.6709478199">
        <ele>176.06</ele>
        <time>2017-07-30T10:05:06Z</time>
      </trkpt>
      <trkpt lat="43.4028501436" lon="1.6711787414">
        <ele>172.69</ele>
        <time>2017-07-30T10:05:09Z</time>
      </trkpt>
      <trkpt lat="43.4028253332" lon="1.6712554358">
        <ele>176.06</ele>
        <time>2017-07-30T10:05:10Z</time>
      </trkpt>
      <trkpt lat="43.4027671628" lon="1.6714050528">
        <ele>179.42</ele>
        <time>2017-07-30T10:05:12Z</time>
      </trkpt>
      <trkpt lat="43.4027405083" lon="1.6714783944">
        <ele>174.62</ele>
        <time>2017-07-30T10:05:13Z</time>
      </trkpt>
      <trkpt lat="43.4027142730" lon="1.6715514008">
        <ele>178.46</ele>
        <time>2017-07-30T10:05:14Z</time>
      </trkpt>
      <trkpt lat="43.4026907198" lon="1.6716200486">
        <ele>173.17</ele>
        <time>2017-07-30T10:05:15Z</time>
      </trkpt>
      <trkpt lat="43.4026685916" lon="1.6716861818">
        <ele>179.90</ele>
        <time>2017-07-30T10:05:16Z</time>
      </trkpt>
      <trkpt lat="43.4026450384" lon="1.6717525665">
        <ele>176.06</ele>
        <time>2017-07-30T10:05:17Z</time>
      </trkpt>
      <trkpt lat="43.4025988542" lon="1.6718888562">
        <ele>177.02</ele>
        <time>2017-07-30T10:05:19Z</time>
      </trkpt>
      <trkpt lat="43.4025763068" lon="1.6719677299">
        <ele>176.54</ele>
        <time>2017-07-30T10:05:20Z</time>
      </trkpt>
      <trkpt lat="43.4023371711" lon="1.6727547906">
        <ele>176.54</ele>
        <time>2017-07-30T10:05:31Z</time>
      </trkpt>
      <trkpt lat="43.4023230895" lon="1.6728251986">
        <ele>176.54</ele>
        <time>2017-07-30T10:05:32Z</time>
      </trkpt>
      <trkpt lat="43.4023044817" lon="1.6728888173">
        <ele>176.54</ele>
        <time>2017-07-30T10:05:33Z</time>
      </trkpt>
      <trkpt lat="43.4022826049" lon="1.6729485802">
        <ele>176.54</ele>
        <time>2017-07-30T10:05:34Z</time>
      </trkpt>
      <trkpt lat="43.4022034798" lon="1.6732325591">
        <ele>176.54</ele>
        <time>2017-07-30T10:05:38Z</time>
      </trkpt>
      <trkpt lat="43.4019942675" lon="1.6739486251">
        <ele>176.06</ele>
        <time>2017-07-30T10:05:48Z</time>
      </trkpt>
      <trkpt lat="43.4018204268" lon="1.6745014954">
        <ele>176.54</ele>
        <time>2017-07-30T10:05:56Z</time>
      </trkpt>
      <trkpt lat="43.4017910901" lon="1.6745688859">
        <ele>176.54</ele>
        <time>2017-07-30T10:05:57Z</time>
      </trkpt>
      <trkpt lat="43.4016132262" lon="1.6749939322">
        <ele>176.06</ele>
        <time>2017-07-30T10:06:03Z</time>
      </trkpt>
      <trkpt lat="43.4012676403" lon="1.6757063102">
        <ele>176.06</ele>
        <time>2017-07-30T10:06:14Z</time>
      </trkpt>
      <trkpt lat="43.4012370463" lon="1.6757696774">
        <ele>176.54</ele>
        <time>2017-07-30T10:06:15Z</time>
      </trkpt>
      <trkpt lat="43.4012056980" lon="1.6758340504">
        <ele>176.06</ele>
        <time>2017-07-30T10:06:16Z</time>
      </trkpt>
      <trkpt lat="43.4011766128" lon="1.6758957412">
        <ele>176.06</ele>
        <time>2017-07-30T10:06:17Z</time>
      </trkpt>
      <trkpt lat="43.4011472762" lon="1.6759507265">
        <ele>176.06</ele>
        <time>2017-07-30T10:06:18Z</time>
      </trkpt>
      <trkpt lat="43.4011176042" lon="1.6760129202">
        <ele>176.06</ele>
        <time>2017-07-30T10:06:19Z</time>
      </trkpt>
      <trkpt lat="43.4008361399" lon="1.6765997373">
        <ele>176.54</ele>
        <time>2017-07-30T10:06:28Z</time>
      </trkpt>
      <trkpt lat="43.4008015227" lon="1.6766639426">
        <ele>176.54</ele>
        <time>2017-07-30T10:06:29Z</time>
      </trkpt>
      <trkpt lat="43.4006146900" lon="1.6770627536">
        <ele>176.06</ele>
        <time>2017-07-30T10:06:35Z</time>
      </trkpt>
      <trkpt lat="43.4005830903" lon="1.6771272942">
        <ele>176.06</ele>
        <time>2017-07-30T10:06:36Z</time>
      </trkpt>
      <trkpt lat="43.4004881233" lon="1.6773194913">
        <ele>176.06</ele>
        <time>2017-07-30T10:06:39Z</time>
      </trkpt>
      <trkpt lat="43.4004548471" lon="1.6773803439">
        <ele>176.06</ele>
        <time>2017-07-30T10:06:40Z</time>
      </trkpt>
      <trkpt lat="43.4001170564" lon="1.6780296899">
        <ele>176.06</ele>
        <time>2017-07-30T10:06:51Z</time>
      </trkpt>
      <trkpt lat="43.4000843670" lon="1.6780732758">
        <ele>176.06</ele>
        <time>2017-07-30T10:06:52Z</time>
      </trkpt>
      <trkpt lat="43.4000534378" lon="1.6781186219">
        <ele>176.54</ele>
        <time>2017-07-30T10:06:53Z</time>
      </trkpt>
      <trkpt lat="43.4000313096" lon="1.6781747807">
        <ele>176.54</ele>
        <time>2017-07-30T10:06:54Z</time>
      </trkpt>
      <trkpt lat="43.4000092652" lon="1.6782341246">
        <ele>176.06</ele>
        <time>2017-07-30T10:06:55Z</time>
      </trkpt>
      <trkpt lat="43.3998979535" lon="1.6784661356">
        <ele>176.06</ele>
        <time>2017-07-30T10:06:59Z</time>
      </trkpt>
      <trkpt lat="43.3994703926" lon="1.6791117098">
        <ele>177.02</ele>
        <time>2017-07-30T10:07:13Z</time>
      </trkpt>
      <trkpt lat="43.3991548140" lon="1.6794500034">
        <ele>177.02</ele>
        <time>2017-07-30T10:07:23Z</time>
      </trkpt>
      <trkpt lat="43.3988706674" lon="1.6795637459">
        <ele>177.02</ele>
        <time>2017-07-30T10:07:31Z</time>
      </trkpt>
      <trkpt lat="43.3988223877" lon="1.6795806773">
        <ele>177.98</ele>
        <time>2017-07-30T10:07:33Z</time>
      </trkpt>
      <trkpt lat="43.3988052886" lon="1.6795814317">
        <ele>177.98</ele>
        <time>2017-07-30T10:07:34Z</time>
      </trkpt>
      <trkpt lat="43.3987905364" lon="1.6795966867">
        <ele>177.98</ele>
        <time>2017-07-30T10:07:35Z</time>
      </trkpt>
      <trkpt lat="43.3987748623" lon="1.6796165518">
        <ele>177.98</ele>
        <time>2017-07-30T10:07:36Z</time>
      </trkpt>
      <trkpt lat="43.3987560030" lon="1.6796294600">
        <ele>178.46</ele>
        <time>2017-07-30T10:07:37Z</time>
      </trkpt>
      <trkpt lat="43.3987336233" lon="1.6796380095">
        <ele>177.98</ele>
        <time>2017-07-30T10:07:38Z</time>
      </trkpt>
      <trkpt lat="43.3987071365" lon="1.6796439607">
        <ele>178.46</ele>
        <time>2017-07-30T10:07:39Z</time>
      </trkpt>
      <trkpt lat="43.3984965831" lon="1.6797851957">
        <ele>179.42</ele>
        <time>2017-07-30T10:07:48Z</time>
      </trkpt>
      <trkpt lat="43.3982904721" lon="1.6799614672">
        <ele>179.90</ele>
        <time>2017-07-30T10:07:57Z</time>
      </trkpt>
      <trkpt lat="43.3981529251" lon="1.6801736970">
        <ele>180.87</ele>
        <time>2017-07-30T10:08:03Z</time>
      </trkpt>
      <trkpt lat="43.3979946747" lon="1.6804958973">
        <ele>181.35</ele>
        <time>2017-07-30T10:08:11Z</time>
      </trkpt>
      <trkpt lat="43.3979676012" lon="1.6805618629">
        <ele>181.35</ele>
        <time>2017-07-30T10:08:12Z</time>
      </trkpt>
      <trkpt lat="43.3979479037" lon="1.6806221288">
        <ele>181.35</ele>
        <time>2017-07-30T10:08:13Z</time>
      </trkpt>
      <trkpt lat="43.3978393581" lon="1.6809958778">
        <ele>181.35</ele>
        <time>2017-07-30T10:08:20Z</time>
      </trkpt>
      <trkpt lat="43.3977778349" lon="1.6811883263">
        <ele>181.35</ele>
        <time>2017-07-30T10:08:23Z</time>
      </trkpt>
      <trkpt lat="43.3977521025" lon="1.6812598240">
        <ele>181.83</ele>
        <time>2017-07-30T10:08:24Z</time>
      </trkpt>
      <trkpt lat="43.3977110311" lon="1.6814084351">
        <ele>181.83</ele>
        <time>2017-07-30T10:08:26Z</time>
      </trkpt>
      <trkpt lat="43.3976441436" lon="1.6816541087">
        <ele>181.83</ele>
        <time>2017-07-30T10:08:29Z</time>
      </trkpt>
      <trkpt lat="43.3976173215" lon="1.6817337368">
        <ele>182.31</ele>
        <time>2017-07-30T10:08:30Z</time>
      </trkpt>
      <trkpt lat="43.3975960314" lon="1.6818068270">
        <ele>181.83</ele>
        <time>2017-07-30T10:08:31Z</time>
      </trkpt>
      <trkpt lat="43.3973483462" lon="1.6825250722">
        <ele>181.35</ele>
        <time>2017-07-30T10:08:42Z</time>
      </trkpt>
      <trkpt lat="43.3972841408" lon="1.6826473642">
        <ele>181.35</ele>
        <time>2017-07-30T10:08:44Z</time>
      </trkpt>
      <trkpt lat="43.3972540498" lon="1.6827065405">
        <ele>181.35</ele>
        <time>2017-07-30T10:08:45Z</time>
      </trkpt>
      <trkpt lat="43.3971529640" lon="1.6828652099">
        <ele>181.35</ele>
        <time>2017-07-30T10:08:48Z</time>
      </trkpt>
      <trkpt lat="43.3970797062" lon="1.6829671338">
        <ele>181.83</ele>
        <time>2017-07-30T10:08:50Z</time>
      </trkpt>
      <trkpt lat="43.3970424905" lon="1.6830075346">
        <ele>181.83</ele>
        <time>2017-07-30T10:08:51Z</time>
      </trkpt>
      <trkpt lat="43.3970025089" lon="1.6830427386">
        <ele>181.83</ele>
        <time>2017-07-30T10:08:52Z</time>
      </trkpt>
      <trkpt lat="43.3969611023" lon="1.6830788646">
        <ele>181.83</ele>
        <time>2017-07-30T10:08:53Z</time>
      </trkpt>
      <trkpt lat="43.3969160914" lon="1.6831096262">
        <ele>181.83</ele>
        <time>2017-07-30T10:08:54Z</time>
      </trkpt>
      <trkpt lat="43.3968722541" lon="1.6831438243">
        <ele>181.83</ele>
        <time>2017-07-30T10:08:55Z</time>
      </trkpt>
      <trkpt lat="43.3968302608" lon="1.6831800342">
        <ele>181.83</ele>
        <time>2017-07-30T10:08:56Z</time>
      </trkpt>
      <trkpt lat="43.3967886027" lon="1.6832153220">
        <ele>181.83</ele>
        <time>2017-07-30T10:08:57Z</time>
      </trkpt>
      <trkpt lat="43.3967465255" lon="1.6832452454">
        <ele>181.83</ele>
        <time>2017-07-30T10:08:58Z</time>
      </trkpt>
      <trkpt lat="43.3967048675" lon="1.6832701396">
        <ele>181.83</ele>
        <time>2017-07-30T10:08:59Z</time>
      </trkpt>
      <trkpt lat="43.3962003607" lon="1.6836296394">
        <ele>181.83</ele>
        <time>2017-07-30T10:09:10Z</time>
      </trkpt>
      <trkpt lat="43.3958007954" lon="1.6840660851">
        <ele>181.83</ele>
        <time>2017-07-30T10:09:19Z</time>
      </trkpt>
      <trkpt lat="43.3957433794" lon="1.6841891315">
        <ele>181.83</ele>
        <time>2017-07-30T10:09:21Z</time>
      </trkpt>
      <trkpt lat="43.3957195748" lon="1.6842539236">
        <ele>182.31</ele>
        <time>2017-07-30T10:09:22Z</time>
      </trkpt>
      <trkpt lat="43.3956933394" lon="1.6843214817">
        <ele>182.31</ele>
        <time>2017-07-30T10:09:23Z</time>
      </trkpt>
      <trkpt lat="43.3956723846" lon="1.6843874473">
        <ele>182.31</ele>
        <time>2017-07-30T10:09:24Z</time>
      </trkpt>
      <trkpt lat="43.3956538606" lon="1.6844503116">
        <ele>182.79</ele>
        <time>2017-07-30T10:09:25Z</time>
      </trkpt>
      <trkpt lat="43.3956039045" lon="1.6847321112">
        <ele>182.31</ele>
        <time>2017-07-30T10:09:29Z</time>
      </trkpt>
      <trkpt lat="43.3956058323" lon="1.6848074645">
        <ele>182.31</ele>
        <time>2017-07-30T10:09:30Z</time>
      </trkpt>
      <trkpt lat="43.3956137951" lon="1.6849691514">
        <ele>182.31</ele>
        <time>2017-07-30T10:09:32Z</time>
      </trkpt>
      <trkpt lat="43.3956220094" lon="1.6850502882">
        <ele>182.31</ele>
        <time>2017-07-30T10:09:33Z</time>
      </trkpt>
      <trkpt lat="43.3956334926" lon="1.6851292457">
        <ele>182.31</ele>
        <time>2017-07-30T10:09:34Z</time>
      </trkpt>
      <trkpt lat="43.3956422098" lon="1.6852051858">
        <ele>182.31</ele>
        <time>2017-07-30T10:09:35Z</time>
      </trkpt>
      <trkpt lat="43.3956484962" lon="1.6852798685">
        <ele>182.31</ele>
        <time>2017-07-30T10:09:36Z</time>
      </trkpt>
      <trkpt lat="43.3956837002" lon="1.6855642665">
        <ele>182.79</ele>
        <time>2017-07-30T10:09:40Z</time>
      </trkpt>
      <trkpt lat="43.3957431279" lon="1.6863040533">
        <ele>183.27</ele>
        <time>2017-07-30T10:09:51Z</time>
      </trkpt>
      <trkpt lat="43.3957425412" lon="1.6865240782">
        <ele>183.27</ele>
        <time>2017-07-30T10:09:54Z</time>
      </trkpt>
      <trkpt lat="43.3957249392" lon="1.6869039461">
        <ele>182.79</ele>
        <time>2017-07-30T10:09:59Z</time>
      </trkpt>
      <trkpt lat="43.3957206644" lon="1.6869777068">
        <ele>182.79</ele>
        <time>2017-07-30T10:10:00Z</time>
      </trkpt>
      <trkpt lat="43.3957142942" lon="1.6870485339">
        <ele>183.27</ele>
        <time>2017-07-30T10:10:01Z</time>
      </trkpt>
      <trkpt lat="43.3956942614" lon="1.6871860810">
        <ele>182.79</ele>
        <time>2017-07-30T10:10:03Z</time>
      </trkpt>
      <trkpt lat="43.3956840355" lon="1.6872590873">
        <ele>182.79</ele>
        <time>2017-07-30T10:10:04Z</time>
      </trkpt>
      <trkpt lat="43.3956686128" lon="1.6873316746">
        <ele>182.79</ele>
        <time>2017-07-30T10:10:05Z</time>
      </trkpt>
      <trkpt lat="43.3955895714" lon="1.6876492649">
        <ele>182.79</ele>
        <time>2017-07-30T10:10:09Z</time>
      </trkpt>
      <trkpt lat="43.3955621626" lon="1.6877261270">
        <ele>182.79</ele>
        <time>2017-07-30T10:10:10Z</time>
      </trkpt>
      <trkpt lat="43.3953741565" lon="1.6880863812">
        <ele>182.31</ele>
        <time>2017-07-30T10:10:15Z</time>
      </trkpt>
      <trkpt lat="43.3953269664" lon="1.6881415341">
        <ele>181.83</ele>
        <time>2017-07-30T10:10:16Z</time>
      </trkpt>
      <trkpt lat="43.3952777646" lon="1.6881867964">
        <ele>181.83</ele>
        <time>2017-07-30T10:10:17Z</time>
      </trkpt>
      <trkpt lat="43.3952267189" lon="1.6882227547">
        <ele>181.83</ele>
        <time>2017-07-30T10:10:18Z</time>
      </trkpt>
      <trkpt lat="43.3951755892" lon="1.6882500798">
        <ele>181.83</ele>
        <time>2017-07-30T10:10:19Z</time>
      </trkpt>
      <trkpt lat="43.3951267228" lon="1.6882626526">
        <ele>181.83</ele>
        <time>2017-07-30T10:10:20Z</time>
      </trkpt>
      <trkpt lat="43.3950806223" lon="1.6882696096">
        <ele>181.83</ele>
        <time>2017-07-30T10:10:21Z</time>
      </trkpt>
      <trkpt lat="43.3950323425" lon="1.6882748064">
        <ele>181.83</ele>
        <time>2017-07-30T10:10:22Z</time>
      </trkpt>
      <trkpt lat="43.3948122337" lon="1.6882661730">
        <ele>181.83</ele>
        <time>2017-07-30T10:10:26Z</time>
      </trkpt>
      <trkpt lat="43.3942480478" lon="1.6881689429">
        <ele>182.31</ele>
        <time>2017-07-30T10:10:37Z</time>
      </trkpt>
      <trkpt lat="43.3938319702" lon="1.6880251095">
        <ele>180.87</ele>
        <time>2017-07-30T10:10:45Z</time>
      </trkpt>
      <trkpt lat="43.3937643282" lon="1.6880193260">
        <ele>180.38</ele>
        <time>2017-07-30T10:10:46Z</time>
      </trkpt>
      <trkpt lat="43.3936983626" lon="1.6880396940">
        <ele>180.38</ele>
        <time>2017-07-30T10:10:47Z</time>
      </trkpt>
      <trkpt lat="43.3936445508" lon="1.6880877223">
        <ele>180.38</ele>
        <time>2017-07-30T10:10:48Z</time>
      </trkpt>
      <trkpt lat="43.3936137892" lon="1.6881567053">
        <ele>180.38</ele>
        <time>2017-07-30T10:10:49Z</time>
      </trkpt>
      <trkpt lat="43.3935965225" lon="1.6882292088">
        <ele>180.38</ele>
        <time>2017-07-30T10:10:50Z</time>
      </trkpt>
      <trkpt lat="43.3935782500" lon="1.6882906482">
        <ele>180.87</ele>
        <time>2017-07-30T10:10:51Z</time>
      </trkpt>
      <trkpt lat="43.3935386874" lon="1.6883792449">
        <ele>181.83</ele>
        <time>2017-07-30T10:10:53Z</time>
      </trkpt>
      <trkpt lat="43.3933806885" lon="1.6886116751">
        <ele>181.83</ele>
        <time>2017-07-30T10:10:59Z</time>
      </trkpt>
      <trkpt lat="43.3933511004" lon="1.6886609606">
        <ele>181.35</ele>
        <time>2017-07-30T10:11:00Z</time>
      </trkpt>
      <trkpt lat="43.3932252042" lon="1.6888513137">
        <ele>181.35</ele>
        <time>2017-07-30T10:11:04Z</time>
      </trkpt>
      <trkpt lat="43.3931949455" lon="1.6888969112">
        <ele>181.35</ele>
        <time>2017-07-30T10:11:05Z</time>
      </trkpt>
      <trkpt lat="43.3931672852" lon="1.6889503039">
        <ele>181.35</ele>
        <time>2017-07-30T10:11:06Z</time>
      </trkpt>
      <trkpt lat="43.3929688856" lon="1.6893934552">
        <ele>180.87</ele>
        <time>2017-07-30T10:11:14Z</time>
      </trkpt>
      <trkpt lat="43.3929470927" lon="1.6894543078">
        <ele>180.87</ele>
        <time>2017-07-30T10:11:15Z</time>
      </trkpt>
      <trkpt lat="43.3928757627" lon="1.6896476783">
        <ele>181.35</ele>
        <time>2017-07-30T10:11:18Z</time>
      </trkpt>
      <trkpt lat="43.3928473480" lon="1.6897174157">
        <ele>180.87</ele>
        <time>2017-07-30T10:11:19Z</time>
      </trkpt>
      <trkpt lat="43.3925159276" lon="1.6906474717">
        <ele>181.35</ele>
        <time>2017-07-30T10:11:33Z</time>
      </trkpt>
      <trkpt lat="43.3922778815" lon="1.6912550759">
        <ele>182.31</ele>
        <time>2017-07-30T10:11:44Z</time>
      </trkpt>
      <trkpt lat="43.3922286797" lon="1.6913522221">
        <ele>182.31</ele>
        <time>2017-07-30T10:11:46Z</time>
      </trkpt>
      <trkpt lat="43.3921951521" lon="1.6913967300">
        <ele>182.31</ele>
        <time>2017-07-30T10:11:47Z</time>
      </trkpt>
      <trkpt lat="43.3921576850" lon="1.6914442554">
        <ele>181.83</ele>
        <time>2017-07-30T10:11:48Z</time>
      </trkpt>
      <trkpt lat="43.3921228163" lon="1.6914888471">
        <ele>181.83</ele>
        <time>2017-07-30T10:11:49Z</time>
      </trkpt>
      <trkpt lat="43.3920939825" lon="1.6915294994">
        <ele>181.83</ele>
        <time>2017-07-30T10:11:50Z</time>
      </trkpt>
      <trkpt lat="43.3920696750" lon="1.6915668827">
        <ele>181.83</ele>
        <time>2017-07-30T10:11:51Z</time>
      </trkpt>
      <trkpt lat="43.3919047192" lon="1.6916589998">
        <ele>183.75</ele>
        <time>2017-07-30T10:11:58Z</time>
      </trkpt>
      <trkpt lat="43.3918877039" lon="1.6916450858">
        <ele>183.75</ele>
        <time>2017-07-30T10:11:59Z</time>
      </trkpt>
      <trkpt lat="43.3918695990" lon="1.6916229576">
        <ele>183.75</ele>
        <time>2017-07-30T10:12:00Z</time>
      </trkpt>
      <trkpt lat="43.3916183095" lon="1.6912518907">
        <ele>183.27</ele>
        <time>2017-07-30T10:12:11Z</time>
      </trkpt>
      <trkpt lat="43.3915336523" lon="1.6911287606">
        <ele>183.27</ele>
        <time>2017-07-30T10:12:14Z</time>
      </trkpt>
      <trkpt lat="43.3913311455" lon="1.6908353940">
        <ele>182.79</ele>
        <time>2017-07-30T10:12:21Z</time>
      </trkpt>
      <trkpt lat="43.3911112044" lon="1.6904910654">
        <ele>182.79</ele>
        <time>2017-07-30T10:12:28Z</time>
      </trkpt>
      <trkpt lat="43.3906886727" lon="1.6898743249">
        <ele>182.31</ele>
        <time>2017-07-30T10:12:40Z</time>
      </trkpt>
      <trkpt lat="43.3904210385" lon="1.6894254740">
        <ele>181.83</ele>
        <time>2017-07-30T10:12:48Z</time>
      </trkpt>
      <trkpt lat="43.3903968148" lon="1.6893590055">
        <ele>181.83</ele>
        <time>2017-07-30T10:12:49Z</time>
      </trkpt>
      <trkpt lat="43.3901917096" lon="1.6884781513">
        <ele>181.35</ele>
        <time>2017-07-30T10:13:01Z</time>
      </trkpt>
      <trkpt lat="43.3901676536" lon="1.6882412788">
        <ele>181.83</ele>
        <time>2017-07-30T10:13:04Z</time>
      </trkpt>
      <trkpt lat="43.3901956491" lon="1.6876854748">
        <ele>181.35</ele>
        <time>2017-07-30T10:13:11Z</time>
      </trkpt>
      <trkpt lat="43.3902036957" lon="1.6876070201">
        <ele>181.35</ele>
        <time>2017-07-30T10:13:12Z</time>
      </trkpt>
      <trkpt lat="43.3902144246" lon="1.6875310801">
        <ele>181.35</ele>
        <time>2017-07-30T10:13:13Z</time>
      </trkpt>
      <trkpt lat="43.3902236447" lon="1.6874563135">
        <ele>181.35</ele>
        <time>2017-07-30T10:13:14Z</time>
      </trkpt>
      <trkpt lat="43.3902310207" lon="1.6873781104">
        <ele>181.35</ele>
        <time>2017-07-30T10:13:15Z</time>
      </trkpt>
      <trkpt lat="43.3903472777" lon="1.6865926422">
        <ele>181.83</ele>
        <time>2017-07-30T10:13:25Z</time>
      </trkpt>
      <trkpt lat="43.3904466033" lon="1.6859679390">
        <ele>181.83</ele>
        <time>2017-07-30T10:13:33Z</time>
      </trkpt>
      <trkpt lat="43.3904616907" lon="1.6858870536">
        <ele>181.83</ele>
        <time>2017-07-30T10:13:34Z</time>
      </trkpt>
      <trkpt lat="43.3905862458" lon="1.6850486118">
        <ele>181.83</ele>
        <time>2017-07-30T10:13:45Z</time>
      </trkpt>
      <trkpt lat="43.3906619344" lon="1.6845140141">
        <ele>182.31</ele>
        <time>2017-07-30T10:13:55Z</time>
      </trkpt>
      <trkpt lat="43.3907304984" lon="1.6840660013">
        <ele>182.79</ele>
        <time>2017-07-30T10:14:07Z</time>
      </trkpt>
      <trkpt lat="43.3907291573" lon="1.6840309650">
        <ele>182.79</ele>
        <time>2017-07-30T10:14:08Z</time>
      </trkpt>
      <trkpt lat="43.3907210268" lon="1.6840001196">
        <ele>182.79</ele>
        <time>2017-07-30T10:14:09Z</time>
      </trkpt>
      <trkpt lat="43.3907086216" lon="1.6839774046">
        <ele>182.79</ele>
        <time>2017-07-30T10:14:10Z</time>
      </trkpt>
      <trkpt lat="43.3906953782" lon="1.6839605570">
        <ele>182.79</ele>
        <time>2017-07-30T10:14:11Z</time>
      </trkpt>
      <trkpt lat="43.3906877507" lon="1.6839601379">
        <ele>183.27</ele>
        <time>2017-07-30T10:14:18Z</time>
      </trkpt>
      <trkpt lat="43.3906735014" lon="1.6839565337">
        <ele>183.27</ele>
        <time>2017-07-30T10:14:26Z</time>
      </trkpt>
      <trkpt lat="43.3906459250" lon="1.6839955095">
        <ele>182.79</ele>
        <time>2017-07-30T10:14:48Z</time>
      </trkpt>
      <trkpt lat="43.3906683885" lon="1.6840383410">
        <ele>183.27</ele>
        <time>2017-07-30T10:15:16Z</time>
      </trkpt>
      <trkpt lat="43.3906609286" lon="1.6840300430">
        <ele>182.79</ele>
        <time>2017-07-30T10:15:44Z</time>
      </trkpt>
      <trkpt lat="43.3906719927" lon="1.6840369161">
        <ele>183.27</ele>
        <time>2017-07-30T10:16:13Z</time>
      </trkpt>
      <trkpt lat="43.3906771056" lon="1.6840478964">
        <ele>183.27</ele>
        <time>2017-07-30T10:16:28Z</time>
      </trkpt>
      <trkpt lat="43.3906797040" lon="1.6840472259">
        <ele>183.27</ele>
        <time>2017-07-30T10:16:37Z</time>
      </trkpt>
      <trkpt lat="43.3907047659" lon="1.6840603016">
        <ele>183.27</ele>
        <time>2017-07-30T10:16:44Z</time>
      </trkpt>
      <trkpt lat="43.3907150757" lon="1.6840690188">
        <ele>183.27</ele>
        <time>2017-07-30T10:16:45Z</time>
      </trkpt>
      <trkpt lat="43.3908340987" lon="1.6841532569">
        <ele>183.27</ele>
        <time>2017-07-30T10:16:52Z</time>
      </trkpt>
      <trkpt lat="43.3909331728" lon="1.6842928156">
        <ele>182.79</ele>
        <time>2017-07-30T10:17:02Z</time>
      </trkpt>
      <trkpt lat="43.3909379505" lon="1.6842960846">
        <ele>182.79</ele>
        <time>2017-07-30T10:17:16Z</time>
      </trkpt>
      <trkpt lat="43.3909356873" lon="1.6842903849">
        <ele>183.27</ele>
        <time>2017-07-30T10:17:36Z</time>
      </trkpt>
      <trkpt lat="43.3909452427" lon="1.6842910554">
        <ele>183.27</ele>
        <time>2017-07-30T10:17:50Z</time>
      </trkpt>
      <trkpt lat="43.3909571450" lon="1.6842897143">
        <ele>183.27</ele>
        <time>2017-07-30T10:18:10Z</time>
      </trkpt>
      <trkpt lat="43.3909612522" lon="1.6842918098">
        <ele>183.27</ele>
        <time>2017-07-30T10:18:31Z</time>
      </trkpt>
      <trkpt lat="43.3909634314" lon="1.6843014490">
        <ele>183.27</ele>
        <time>2017-07-30T10:18:53Z</time>
      </trkpt>
      <trkpt lat="43.3909587376" lon="1.6843032930">
        <ele>183.27</ele>
        <time>2017-07-30T10:19:15Z</time>
      </trkpt>
      <trkpt lat="43.3909554686" lon="1.6843061429">
        <ele>183.27</ele>
        <time>2017-07-30T10:19:35Z</time>
      </trkpt>
      <trkpt lat="43.3909491822" lon="1.6843063105">
        <ele>183.27</ele>
        <time>2017-07-30T10:19:58Z</time>
      </trkpt>
      <trkpt lat="43.3909562230" lon="1.6843103338">
        <ele>183.27</ele>
        <time>2017-07-30T10:20:11Z</time>
      </trkpt>
      <trkpt lat="43.3909995575" lon="1.6843332164">
        <ele>183.27</ele>
        <time>2017-07-30T10:20:22Z</time>
      </trkpt>
      <trkpt lat="43.3909915108" lon="1.6843179613">
        <ele>183.27</ele>
        <time>2017-07-30T10:20:25Z</time>
      </trkpt>
      <trkpt lat="43.3909682930" lon="1.6842874512">
        <ele>183.27</ele>
        <time>2017-07-30T10:20:27Z</time>
      </trkpt>
      <trkpt lat="43.3909465838" lon="1.6842460446">
        <ele>183.27</ele>
        <time>2017-07-30T10:20:29Z</time>
      </trkpt>
      <trkpt lat="43.3909369446" lon="1.6842234135">
        <ele>183.75</ele>
        <time>2017-07-30T10:20:30Z</time>
      </trkpt>
      <trkpt lat="43.3909227792" lon="1.6842022911">
        <ele>183.75</ele>
        <time>2017-07-30T10:20:31Z</time>
      </trkpt>
      <trkpt lat="43.3909076918" lon="1.6841832642">
        <ele>183.75</ele>
        <time>2017-07-30T10:20:32Z</time>
      </trkpt>
      <trkpt lat="43.3908926882" lon="1.6841649078">
        <ele>184.23</ele>
        <time>2017-07-30T10:20:33Z</time>
      </trkpt>
      <trkpt lat="43.3908737451" lon="1.6841422766">
        <ele>183.75</ele>
        <time>2017-07-30T10:20:34Z</time>
      </trkpt>
      <trkpt lat="43.3908523712" lon="1.6841189750">
        <ele>183.75</ele>
        <time>2017-07-30T10:20:35Z</time>
      </trkpt>
      <trkpt lat="43.3906745911" lon="1.6839670110">
        <ele>183.75</ele>
        <time>2017-07-30T10:20:44Z</time>
      </trkpt>
      <trkpt lat="43.3903362975" lon="1.6837301385">
        <ele>184.23</ele>
        <time>2017-07-30T10:20:56Z</time>
      </trkpt>
      <trkpt lat="43.3900807332" lon="1.6835635062">
        <ele>184.71</ele>
        <time>2017-07-30T10:21:07Z</time>
      </trkpt>
      <trkpt lat="43.3897825051" lon="1.6834150627">
        <ele>184.71</ele>
        <time>2017-07-30T10:21:17Z</time>
      </trkpt>
      <trkpt lat="43.3894900605" lon="1.6833295673">
        <ele>185.19</ele>
        <time>2017-07-30T10:21:28Z</time>
      </trkpt>
      <trkpt lat="43.3894510008" lon="1.6833313275">
        <ele>185.19</ele>
        <time>2017-07-30T10:21:36Z</time>
      </trkpt>
      <trkpt lat="43.3894410264" lon="1.6833513603">
        <ele>185.19</ele>
        <time>2017-07-30T10:21:46Z</time>
      </trkpt>
      <trkpt lat="43.3894402720" lon="1.6833720636">
        <ele>185.19</ele>
        <time>2017-07-30T10:21:47Z</time>
      </trkpt>
      <trkpt lat="43.3894553594" lon="1.6833827924">
        <ele>185.19</ele>
        <time>2017-07-30T10:21:48Z</time>
      </trkpt>
      <trkpt lat="43.3894795831" lon="1.6833817028">
        <ele>185.19</ele>
        <time>2017-07-30T10:21:49Z</time>
      </trkpt>
      <trkpt lat="43.3895029686" lon="1.6833810322">
        <ele>185.19</ele>
        <time>2017-07-30T10:21:50Z</time>
      </trkpt>
      <trkpt lat="43.3895297069" lon="1.6833825409">
        <ele>185.67</ele>
        <time>2017-07-30T10:21:51Z</time>
      </trkpt>
      <trkpt lat="43.3898319583" lon="1.6834769212">
        <ele>185.19</ele>
        <time>2017-07-30T10:22:00Z</time>
      </trkpt>
      <trkpt lat="43.3901233971" lon="1.6836656816">
        <ele>184.71</ele>
        <time>2017-07-30T10:22:11Z</time>
      </trkpt>
      <trkpt lat="43.3904663846" lon="1.6838954296">
        <ele>184.23</ele>
        <time>2017-07-30T10:22:24Z</time>
      </trkpt>
      <trkpt lat="43.3905201126" lon="1.6839249339">
        <ele>184.23</ele>
        <time>2017-07-30T10:22:31Z</time>
      </trkpt>
      <trkpt lat="43.3906284068" lon="1.6840012930">
        <ele>184.71</ele>
        <time>2017-07-30T10:22:45Z</time>
      </trkpt>
      <trkpt lat="43.3907208592" lon="1.6840867884">
        <ele>184.71</ele>
        <time>2017-07-30T10:22:49Z</time>
      </trkpt>
      <trkpt lat="43.3907309175" lon="1.6841176338">
        <ele>184.71</ele>
        <time>2017-07-30T10:22:50Z</time>
      </trkpt>
      <trkpt lat="43.3907375392" lon="1.6841449589">
        <ele>184.71</ele>
        <time>2017-07-30T10:22:51Z</time>
      </trkpt>
      <trkpt lat="43.3907448314" lon="1.6841851082">
        <ele>184.71</ele>
        <time>2017-07-30T10:22:53Z</time>
      </trkpt>
      <trkpt lat="43.3907372039" lon="1.6842049733">
        <ele>184.23</ele>
        <time>2017-07-30T10:22:54Z</time>
      </trkpt>
      <trkpt lat="43.3907337673" lon="1.6842297837">
        <ele>184.23</ele>
        <time>2017-07-30T10:22:55Z</time>
      </trkpt>
      <trkpt lat="43.3907284867" lon="1.6842576955">
        <ele>184.23</ele>
        <time>2017-07-30T10:22:56Z</time>
      </trkpt>
      <trkpt lat="43.3906474337" lon="1.6846003477">
        <ele>184.23</ele>
        <time>2017-07-30T10:23:06Z</time>
      </trkpt>
      <trkpt lat="43.3905624412" lon="1.6850556526">
        <ele>183.75</ele>
        <time>2017-07-30T10:23:18Z</time>
      </trkpt>
      <trkpt lat="43.3904616907" lon="1.6856598202">
        <ele>183.27</ele>
        <time>2017-07-30T10:23:29Z</time>
      </trkpt>
      <trkpt lat="43.3903555758" lon="1.6863095015">
        <ele>183.75</ele>
        <time>2017-07-30T10:23:39Z</time>
      </trkpt>
      <trkpt lat="43.3903041109" lon="1.6867071390">
        <ele>183.75</ele>
        <time>2017-07-30T10:23:45Z</time>
      </trkpt>
      <trkpt lat="43.3902899455" lon="1.6868521459">
        <ele>183.27</ele>
        <time>2017-07-30T10:23:47Z</time>
      </trkpt>
      <trkpt lat="43.3902276680" lon="1.6872083768">
        <ele>183.75</ele>
        <time>2017-07-30T10:23:52Z</time>
      </trkpt>
      <trkpt lat="43.3901911229" lon="1.6875014920">
        <ele>183.27</ele>
        <time>2017-07-30T10:23:56Z</time>
      </trkpt>
      <trkpt lat="43.3901752811" lon="1.6875750013">
        <ele>183.75</ele>
        <time>2017-07-30T10:23:57Z</time>
      </trkpt>
      <trkpt lat="43.3901608642" lon="1.6876526177">
        <ele>183.27</ele>
        <time>2017-07-30T10:23:58Z</time>
      </trkpt>
      <trkpt lat="43.3901277557" lon="1.6878788453">
        <ele>183.27</ele>
        <time>2017-07-30T10:24:01Z</time>
      </trkpt>
      <trkpt lat="43.3901192062" lon="1.6879495885">
        <ele>183.27</ele>
        <time>2017-07-30T10:24:02Z</time>
      </trkpt>
      <trkpt lat="43.3901139256" lon="1.6880266182">
        <ele>183.27</ele>
        <time>2017-07-30T10:24:03Z</time>
      </trkpt>
      <trkpt lat="43.3901104890" lon="1.6881101020">
        <ele>183.75</ele>
        <time>2017-07-30T10:24:04Z</time>
      </trkpt>
      <trkpt lat="43.3901122492" lon="1.6881919932">
        <ele>183.27</ele>
        <time>2017-07-30T10:24:05Z</time>
      </trkpt>
      <trkpt lat="43.3901171945" lon="1.6882722080">
        <ele>183.75</ele>
        <time>2017-07-30T10:24:06Z</time>
      </trkpt>
      <trkpt lat="43.3901261631" lon="1.6883544344">
        <ele>183.27</ele>
        <time>2017-07-30T10:24:07Z</time>
      </trkpt>
      <trkpt lat="43.3902338706" lon="1.6890716739">
        <ele>183.27</ele>
        <time>2017-07-30T10:24:16Z</time>
      </trkpt>
      <trkpt lat="43.3902523108" lon="1.6891502962">
        <ele>183.75</ele>
        <time>2017-07-30T10:24:17Z</time>
      </trkpt>
      <trkpt lat="43.3902790491" lon="1.6892228834">
        <ele>183.27</ele>
        <time>2017-07-30T10:24:18Z</time>
      </trkpt>
      <trkpt lat="43.3903271612" lon="1.6893569101">
        <ele>183.75</ele>
        <time>2017-07-30T10:24:20Z</time>
      </trkpt>
      <trkpt lat="43.3903544024" lon="1.6894133203">
        <ele>183.75</ele>
        <time>2017-07-30T10:24:21Z</time>
      </trkpt>
      <trkpt lat="43.3904110640" lon="1.6895266436">
        <ele>184.23</ele>
        <time>2017-07-30T10:24:23Z</time>
      </trkpt>
      <trkpt lat="43.3904378861" lon="1.6895804554">
        <ele>184.23</ele>
        <time>2017-07-30T10:24:24Z</time>
      </trkpt>
      <trkpt lat="43.3907797001" lon="1.6901118681">
        <ele>184.23</ele>
        <time>2017-07-30T10:24:35Z</time>
      </trkpt>
      <trkpt lat="43.3908983879" lon="1.6902873013">
        <ele>184.71</ele>
        <time>2017-07-30T10:24:39Z</time>
      </trkpt>
      <trkpt lat="43.3909921814" lon="1.6904308833">
        <ele>184.71</ele>
        <time>2017-07-30T10:24:42Z</time>
      </trkpt>
      <trkpt lat="43.3912192471" lon="1.6908053029">
        <ele>185.19</ele>
        <time>2017-07-30T10:24:49Z</time>
      </trkpt>
      <trkpt lat="43.3912527747" lon="1.6908470448">
        <ele>185.19</ele>
        <time>2017-07-30T10:24:50Z</time>
      </trkpt>
      <trkpt lat="43.3912878949" lon="1.6908949055">
        <ele>185.19</ele>
        <time>2017-07-30T10:24:51Z</time>
      </trkpt>
      <trkpt lat="43.3914680220" lon="1.6912046168">
        <ele>185.67</ele>
        <time>2017-07-30T10:24:58Z</time>
      </trkpt>
      <trkpt lat="43.3915033098" lon="1.6912521422">
        <ele>185.19</ele>
        <time>2017-07-30T10:24:59Z</time>
      </trkpt>
      <trkpt lat="43.3915419504" lon="1.6913020145">
        <ele>185.67</ele>
        <time>2017-07-30T10:25:00Z</time>
      </trkpt>
      <trkpt lat="43.3915764000" lon="1.6913518868">
        <ele>185.67</ele>
        <time>2017-07-30T10:25:01Z</time>
      </trkpt>
      <trkpt lat="43.3916102629" lon="1.6913995799">
        <ele>186.15</ele>
        <time>2017-07-30T10:25:02Z</time>
      </trkpt>
      <trkpt lat="43.3916464727" lon="1.6914433334">
        <ele>186.15</ele>
        <time>2017-07-30T10:25:03Z</time>
      </trkpt>
      <trkpt lat="43.3916847780" lon="1.6914846562">
        <ele>186.15</ele>
        <time>2017-07-30T10:25:04Z</time>
      </trkpt>
      <trkpt lat="43.3917172160" lon="1.6915227100">
        <ele>186.15</ele>
        <time>2017-07-30T10:25:05Z</time>
      </trkpt>
      <trkpt lat="43.3917451277" lon="1.6915607639">
        <ele>186.15</ele>
        <time>2017-07-30T10:25:06Z</time>
      </trkpt>
      <trkpt lat="43.3917753864" lon="1.6916015837">
        <ele>186.15</ele>
        <time>2017-07-30T10:25:07Z</time>
      </trkpt>
      <trkpt lat="43.3918641508" lon="1.6918191779">
        <ele>185.67</ele>
        <time>2017-07-30T10:25:15Z</time>
      </trkpt>
      <trkpt lat="43.3918864466" lon="1.6918418929">
        <ele>185.67</ele>
        <time>2017-07-30T10:25:26Z</time>
      </trkpt>
      <trkpt lat="43.3919516578" lon="1.6919660289">
        <ele>185.67</ele>
        <time>2017-07-30T10:25:33Z</time>
      </trkpt>
      <trkpt lat="43.3919591177" lon="1.6920080222">
        <ele>185.67</ele>
        <time>2017-07-30T10:25:34Z</time>
      </trkpt>
      <trkpt lat="43.3919729479" lon="1.6920460761">
        <ele>185.67</ele>
        <time>2017-07-30T10:25:35Z</time>
      </trkpt>
      <trkpt lat="43.3919874486" lon="1.6920887399">
        <ele>185.19</ele>
        <time>2017-07-30T10:25:36Z</time>
      </trkpt>
      <trkpt lat="43.3920024522" lon="1.6921460722">
        <ele>185.67</ele>
        <time>2017-07-30T10:25:37Z</time>
      </trkpt>
      <trkpt lat="43.3920266759" lon="1.6922611557">
        <ele>185.19</ele>
        <time>2017-07-30T10:25:39Z</time>
      </trkpt>
      <trkpt lat="43.3921684977" lon="1.6927555203">
        <ele>184.23</ele>
        <time>2017-07-30T10:25:47Z</time>
      </trkpt>
      <trkpt lat="43.3922321163" lon="1.6929579433">
        <ele>183.75</ele>
        <time>2017-07-30T10:25:50Z</time>
      </trkpt>
      <trkpt lat="43.3922891133" lon="1.6930983402">
        <ele>183.75</ele>
        <time>2017-07-30T10:25:52Z</time>
      </trkpt>
      <trkpt lat="43.3923239820" lon="1.6931814048">
        <ele>183.27</ele>
        <time>2017-07-30T10:25:53Z</time>
      </trkpt>
      <trkpt lat="43.3923632093" lon="1.6932629608">
        <ele>182.79</ele>
        <time>2017-07-30T10:25:54Z</time>
      </trkpt>
      <trkpt lat="43.3926811349" lon="1.6940040048">
        <ele>181.83</ele>
        <time>2017-07-30T10:26:04Z</time>
      </trkpt>
      <trkpt lat="43.3928492758" lon="1.6943493392">
        <ele>181.35</ele>
        <time>2017-07-30T10:26:10Z</time>
      </trkpt>
      <trkpt lat="43.3928763494" lon="1.6943569668">
        <ele>181.35</ele>
        <time>2017-07-30T10:26:11Z</time>
      </trkpt>
      <trkpt lat="43.3928801212" lon="1.6942302324">
        <ele>181.35</ele>
        <time>2017-07-30T10:26:16Z</time>
      </trkpt>
      <trkpt lat="43.3928462584" lon="1.6941129696">
        <ele>181.35</ele>
        <time>2017-07-30T10:26:19Z</time>
      </trkpt>
      <trkpt lat="43.3927938715" lon="1.6939425655">
        <ele>181.35</ele>
        <time>2017-07-30T10:26:22Z</time>
      </trkpt>
      <trkpt lat="43.3927708212" lon="1.6938862391">
        <ele>181.83</ele>
        <time>2017-07-30T10:26:23Z</time>
      </trkpt>
      <trkpt lat="43.3925241418" lon="1.6932584345">
        <ele>183.75</ele>
        <time>2017-07-30T10:26:34Z</time>
      </trkpt>
      <trkpt lat="43.3924072981" lon="1.6929374915">
        <ele>183.75</ele>
        <time>2017-07-30T10:26:40Z</time>
      </trkpt>
      <trkpt lat="43.3923854213" lon="1.6928840149">
        <ele>183.75</ele>
        <time>2017-07-30T10:26:41Z</time>
      </trkpt>
      <trkpt lat="43.3922002651" lon="1.6924214177">
        <ele>184.71</ele>
        <time>2017-07-30T10:26:50Z</time>
      </trkpt>
      <trkpt lat="43.3921837527" lon="1.6923700366">
        <ele>184.71</ele>
        <time>2017-07-30T10:26:51Z</time>
      </trkpt>
      <trkpt lat="43.3921613730" lon="1.6923179850">
        <ele>184.71</ele>
        <time>2017-07-30T10:26:52Z</time>
      </trkpt>
      <trkpt lat="43.3921388257" lon="1.6922681965">
        <ele>185.19</ele>
        <time>2017-07-30T10:26:53Z</time>
      </trkpt>
      <trkpt lat="43.3921205532" lon="1.6922213417">
        <ele>185.19</ele>
        <time>2017-07-30T10:26:54Z</time>
      </trkpt>
      <trkpt lat="43.3921020292" lon="1.6921747383">
        <ele>185.67</ele>
        <time>2017-07-30T10:26:55Z</time>
      </trkpt>
      <trkpt lat="43.3920832537" lon="1.6921277996">
        <ele>185.67</ele>
        <time>2017-07-30T10:26:56Z</time>
      </trkpt>
      <trkpt lat="43.3920648135" lon="1.6920814477">
        <ele>185.67</ele>
        <time>2017-07-30T10:26:57Z</time>
      </trkpt>
      <trkpt lat="43.3919219021" lon="1.6918967105">
        <ele>186.63</ele>
        <time>2017-07-30T10:27:03Z</time>
      </trkpt>
      <trkpt lat="43.3918975107" lon="1.6918942798">
        <ele>186.63</ele>
        <time>2017-07-30T10:27:04Z</time>
      </trkpt>
      <trkpt lat="43.3916788269" lon="1.6920525301">
        <ele>185.67</ele>
        <time>2017-07-30T10:27:12Z</time>
      </trkpt>
      <trkpt lat="43.3914596401" lon="1.6922780033">
        <ele>185.19</ele>
        <time>2017-07-30T10:27:20Z</time>
      </trkpt>
      <trkpt lat="43.3913338277" lon="1.6924986988">
        <ele>185.19</ele>
        <time>2017-07-30T10:27:28Z</time>
      </trkpt>
      <trkpt lat="43.3913319837" lon="1.6925198212">
        <ele>185.19</ele>
        <time>2017-07-30T10:27:29Z</time>
      </trkpt>
      <trkpt lat="43.3913324028" lon="1.6925866250">
        <ele>184.71</ele>
        <time>2017-07-30T10:27:37Z</time>
      </trkpt>
      <trkpt lat="43.3913199138" lon="1.6925861221">
        <ele>185.19</ele>
        <time>2017-07-30T10:27:54Z</time>
      </trkpt>
      <trkpt lat="43.3913370129" lon="1.6925862059">
        <ele>185.19</ele>
        <time>2017-07-30T10:28:20Z</time>
      </trkpt>
      <trkpt lat="43.3913421258" lon="1.6925668437">
        <ele>185.19</ele>
        <time>2017-07-30T10:28:41Z</time>
      </trkpt>
      <trkpt lat="43.3913465682" lon="1.6925634909">
        <ele>185.19</ele>
        <time>2017-07-30T10:29:07Z</time>
      </trkpt>
      <trkpt lat="43.3913450595" lon="1.6925743874">
        <ele>185.67</ele>
        <time>2017-07-30T10:29:31Z</time>
      </trkpt>
      <trkpt lat="43.3913369291" lon="1.6925411113">
        <ele>185.67</ele>
        <time>2017-07-30T10:29:56Z</time>
      </trkpt>
      <trkpt lat="43.3913432993" lon="1.6925544385">
        <ele>185.67</ele>
        <time>2017-07-30T10:30:24Z</time>
      </trkpt>
      <trkpt lat="43.3913442213" lon="1.6925615631">
        <ele>185.67</ele>
        <time>2017-07-30T10:30:44Z</time>
      </trkpt>
      <trkpt lat="43.3913426287" lon="1.6925641615">
        <ele>183.75</ele>
        <time>2017-07-30T10:30:53Z</time>
      </trkpt>
      <trkpt lat="43.3904038556" lon="1.6970113479">
        <ele>189.52</ele>
        <time>2017-07-30T11:05:04Z</time>
      </trkpt>
      <trkpt lat="43.3904885966" lon="1.6973073129">
        <ele>189.04</ele>
        <time>2017-07-30T11:05:08Z</time>
      </trkpt>
      <trkpt lat="43.3904854115" lon="1.6973725241">
        <ele>189.04</ele>
        <time>2017-07-30T11:05:09Z</time>
      </trkpt>
      <trkpt lat="43.3904807176" lon="1.6974913795">
        <ele>187.59</ele>
        <time>2017-07-30T11:05:11Z</time>
      </trkpt>
      <trkpt lat="43.3904740959" lon="1.6975455265">
        <ele>188.08</ele>
        <time>2017-07-30T11:05:12Z</time>
      </trkpt>
      <trkpt lat="43.3904663008" lon="1.6975975782">
        <ele>187.59</ele>
        <time>2017-07-30T11:05:13Z</time>
      </trkpt>
      <trkpt lat="43.3904598467" lon="1.6976485401">
        <ele>187.11</ele>
        <time>2017-07-30T11:05:14Z</time>
      </trkpt>
      <trkpt lat="43.3904528897" lon="1.6976953950">
        <ele>187.11</ele>
        <time>2017-07-30T11:05:15Z</time>
      </trkpt>
      <trkpt lat="43.3904063702" lon="1.6982151568">
        <ele>185.19</ele>
        <time>2017-07-30T11:05:25Z</time>
      </trkpt>
      <trkpt lat="43.3903526422" lon="1.6986153927">
        <ele>184.23</ele>
        <time>2017-07-30T11:05:32Z</time>
      </trkpt>
      <trkpt lat="43.3903307654" lon="1.6987981182">
        <ele>183.75</ele>
        <time>2017-07-30T11:05:35Z</time>
      </trkpt>
      <trkpt lat="43.3902742714" lon="1.6990950890">
        <ele>182.79</ele>
        <time>2017-07-30T11:05:40Z</time>
      </trkpt>
      <trkpt lat="43.3902534842" lon="1.6991498228">
        <ele>182.31</ele>
        <time>2017-07-30T11:05:41Z</time>
      </trkpt>
      <trkpt lat="43.3901720122" lon="1.6993644834">
        <ele>181.35</ele>
        <time>2017-07-30T11:05:45Z</time>
      </trkpt>
      <trkpt lat="43.3901438490" lon="1.6994160321">
        <ele>180.87</ele>
        <time>2017-07-30T11:05:46Z</time>
      </trkpt>
      <trkpt lat="43.3901114948" lon="1.6994611267">
        <ele>180.87</ele>
        <time>2017-07-30T11:05:47Z</time>
      </trkpt>
      <trkpt lat="43.3898394182" lon="1.6996912099">
        <ele>180.38</ele>
        <time>2017-07-30T11:05:56Z</time>
      </trkpt>
      <trkpt lat="43.3895068243" lon="1.6996999271">
        <ele>179.90</ele>
        <time>2017-07-30T11:06:06Z</time>
      </trkpt>
      <trkpt lat="43.3889956120" lon="1.6996908747">
        <ele>179.90</ele>
        <time>2017-07-30T11:06:19Z</time>
      </trkpt>
      <trkpt lat="43.3886034228" lon="1.6997513082">
        <ele>179.90</ele>
        <time>2017-07-30T11:06:29Z</time>
      </trkpt>
      <trkpt lat="43.3884111419" lon="1.6998812277">
        <ele>179.90</ele>
        <time>2017-07-30T11:06:34Z</time>
      </trkpt>
      <trkpt lat="43.3880409971" lon="1.7001761030">
        <ele>179.42</ele>
        <time>2017-07-30T11:06:44Z</time>
      </trkpt>
      <trkpt lat="43.3877565153" lon="1.7004138976">
        <ele>179.90</ele>
        <time>2017-07-30T11:06:52Z</time>
      </trkpt>
      <trkpt lat="43.3876067307" lon="1.7005398776">
        <ele>179.42</ele>
        <time>2017-07-30T11:06:56Z</time>
      </trkpt>
      <trkpt lat="43.3875657432" lon="1.7005828768">
        <ele>179.90</ele>
        <time>2017-07-30T11:06:57Z</time>
      </trkpt>
      <trkpt lat="43.3871851210" lon="1.7009114474">
        <ele>179.42</ele>
        <time>2017-07-30T11:07:07Z</time>
      </trkpt>
      <trkpt lat="43.3871103544" lon="1.7009739764">
        <ele>179.42</ele>
        <time>2017-07-30T11:07:09Z</time>
      </trkpt>
      <trkpt lat="43.3870690316" lon="1.7010136228">
        <ele>179.42</ele>
        <time>2017-07-30T11:07:10Z</time>
      </trkpt>
      <trkpt lat="43.3869104460" lon="1.7011408601">
        <ele>179.42</ele>
        <time>2017-07-30T11:07:14Z</time>
      </trkpt>
      <trkpt lat="43.3868749067" lon="1.7011790816">
        <ele>179.42</ele>
        <time>2017-07-30T11:07:15Z</time>
      </trkpt>
      <trkpt lat="43.3865504432" lon="1.7015794013">
        <ele>179.90</ele>
        <time>2017-07-30T11:07:25Z</time>
      </trkpt>
      <trkpt lat="43.3863701485" lon="1.7018397432">
        <ele>179.90</ele>
        <time>2017-07-30T11:07:32Z</time>
      </trkpt>
      <trkpt lat="43.3862267341" lon="1.7021008395">
        <ele>179.90</ele>
        <time>2017-07-30T11:07:41Z</time>
      </trkpt>
      <trkpt lat="43.3862010855" lon="1.7021396477">
        <ele>179.90</ele>
        <time>2017-07-30T11:07:50Z</time>
      </trkpt>
      <trkpt lat="43.3861435018" lon="1.7022121511">
        <ele>179.90</ele>
        <time>2017-07-30T11:08:07Z</time>
      </trkpt>
      <trkpt lat="43.3861044422" lon="1.7022680584">
        <ele>179.90</ele>
        <time>2017-07-30T11:08:36Z</time>
      </trkpt>
      <trkpt lat="43.3860972337" lon="1.7022488639">
        <ele>180.38</ele>
        <time>2017-07-30T11:09:05Z</time>
      </trkpt>
      <trkpt lat="43.3860924561" lon="1.7022373807">
        <ele>180.38</ele>
        <time>2017-07-30T11:09:33Z</time>
      </trkpt>
      <trkpt lat="43.3860873431" lon="1.7022393923">
        <ele>180.38</ele>
        <time>2017-07-30T11:09:52Z</time>
      </trkpt>
      <trkpt lat="43.3860789612" lon="1.7022479419">
        <ele>180.38</ele>
        <time>2017-07-30T11:10:03Z</time>
      </trkpt>
      <trkpt lat="43.3860647958" lon="1.7022508755">
        <ele>180.38</ele>
        <time>2017-07-30T11:10:04Z</time>
      </trkpt>
      <trkpt lat="43.3859544061" lon="1.7024020012">
        <ele>180.87</ele>
        <time>2017-07-30T11:10:11Z</time>
      </trkpt>
      <trkpt lat="43.3857906237" lon="1.7026686296">
        <ele>180.87</ele>
        <time>2017-07-30T11:10:18Z</time>
      </trkpt>
      <trkpt lat="43.3855750412" lon="1.7030322365">
        <ele>180.87</ele>
        <time>2017-07-30T11:10:28Z</time>
      </trkpt>
      <trkpt lat="43.3853961714" lon="1.7033824325">
        <ele>181.35</ele>
        <time>2017-07-30T11:10:38Z</time>
      </trkpt>
      <trkpt lat="43.3852026332" lon="1.7037458718">
        <ele>181.35</ele>
        <time>2017-07-30T11:10:47Z</time>
      </trkpt>
      <trkpt lat="43.3850487415" lon="1.7040952295">
        <ele>181.35</ele>
        <time>2017-07-30T11:10:55Z</time>
      </trkpt>
      <trkpt lat="43.3849474881" lon="1.7044537235">
        <ele>181.35</ele>
        <time>2017-07-30T11:11:00Z</time>
      </trkpt>
      <trkpt lat="43.3849378489" lon="1.7045175098">
        <ele>180.87</ele>
        <time>2017-07-30T11:11:01Z</time>
      </trkpt>
      <trkpt lat="43.3849417046" lon="1.7049678694">
        <ele>180.87</ele>
        <time>2017-07-30T11:11:08Z</time>
      </trkpt>
      <trkpt lat="43.3849715441" lon="1.7050375231">
        <ele>180.38</ele>
        <time>2017-07-30T11:11:09Z</time>
      </trkpt>
      <trkpt lat="43.3849968575" lon="1.7051094398">
        <ele>180.38</ele>
        <time>2017-07-30T11:11:10Z</time>
      </trkpt>
      <trkpt lat="43.3852221631" lon="1.7057378311">
        <ele>180.38</ele>
        <time>2017-07-30T11:11:20Z</time>
      </trkpt>
      <trkpt lat="43.3854734525" lon="1.7064320203">
        <ele>180.38</ele>
        <time>2017-07-30T11:11:31Z</time>
      </trkpt>
      <trkpt lat="43.3855177928" lon="1.7065480258">
        <ele>180.38</ele>
        <time>2017-07-30T11:11:33Z</time>
      </trkpt>
      <trkpt lat="43.3857085649" lon="1.7070938554">
        <ele>180.38</ele>
        <time>2017-07-30T11:11:43Z</time>
      </trkpt>
      <trkpt lat="43.3857698366" lon="1.7072596494">
        <ele>180.38</ele>
        <time>2017-07-30T11:11:46Z</time>
      </trkpt>
      <trkpt lat="43.3858453576" lon="1.7074957676">
        <ele>180.38</ele>
        <time>2017-07-30T11:11:50Z</time>
      </trkpt>
      <trkpt lat="43.3858616184" lon="1.7075550277">
        <ele>180.38</ele>
        <time>2017-07-30T11:11:51Z</time>
      </trkpt>
      <trkpt lat="43.3860336989" lon="1.7080866080">
        <ele>180.38</ele>
        <time>2017-07-30T11:11:59Z</time>
      </trkpt>
      <trkpt lat="43.3860471938" lon="1.7081578542">
        <ele>180.38</ele>
        <time>2017-07-30T11:12:00Z</time>
      </trkpt>
      <trkpt lat="43.3860584255" lon="1.7082358059">
        <ele>179.90</ele>
        <time>2017-07-30T11:12:01Z</time>
      </trkpt>
      <trkpt lat="43.3860745188" lon="1.7083152663">
        <ele>179.90</ele>
        <time>2017-07-30T11:12:02Z</time>
      </trkpt>
      <trkpt lat="43.3860954735" lon="1.7083949782">
        <ele>179.90</ele>
        <time>2017-07-30T11:12:03Z</time>
      </trkpt>
      <trkpt lat="43.3861329406" lon="1.7085464392">
        <ele>179.42</ele>
        <time>2017-07-30T11:12:05Z</time>
      </trkpt>
      <trkpt lat="43.3861683961" lon="1.7087655421">
        <ele>179.42</ele>
        <time>2017-07-30T11:12:08Z</time>
      </trkpt>
      <trkpt lat="43.3861881774" lon="1.7088256404">
        <ele>179.42</ele>
        <time>2017-07-30T11:12:09Z</time>
      </trkpt>
      <trkpt lat="43.3862104733" lon="1.7088817991">
        <ele>179.42</ele>
        <time>2017-07-30T11:12:10Z</time>
      </trkpt>
      <trkpt lat="43.3863861579" lon="1.7091646884">
        <ele>179.42</ele>
        <time>2017-07-30T11:12:17Z</time>
      </trkpt>
      <trkpt lat="43.3864707313" lon="1.7092671990">
        <ele>179.42</ele>
        <time>2017-07-30T11:12:20Z</time>
      </trkpt>
      <trkpt lat="43.3865074441" lon="1.7092772573">
        <ele>179.42</ele>
        <time>2017-07-30T11:12:21Z</time>
      </trkpt>
      <trkpt lat="43.3865453303" lon="1.7092856392">
        <ele>179.42</ele>
        <time>2017-07-30T11:12:22Z</time>
      </trkpt>
      <trkpt lat="43.3866279759" lon="1.7093239445">
        <ele>178.94</ele>
        <time>2017-07-30T11:12:24Z</time>
      </trkpt>
      <trkpt lat="43.3866728190" lon="1.7093651835">
        <ele>178.46</ele>
        <time>2017-07-30T11:12:25Z</time>
      </trkpt>
      <trkpt lat="43.3867083583" lon="1.7094141338">
        <ele>178.46</ele>
        <time>2017-07-30T11:12:26Z</time>
      </trkpt>
      <trkpt lat="43.3869191632" lon="1.7096277885">
        <ele>179.42</ele>
        <time>2017-07-30T11:12:33Z</time>
      </trkpt>
      <trkpt lat="43.3873210754" lon="1.7097962648">
        <ele>178.94</ele>
        <time>2017-07-30T11:12:43Z</time>
      </trkpt>
      <trkpt lat="43.3875004482" lon="1.7099091690">
        <ele>178.46</ele>
        <time>2017-07-30T11:12:47Z</time>
      </trkpt>
      <trkpt lat="43.3875429444" lon="1.7099338956">
        <ele>178.46</ele>
        <time>2017-07-30T11:12:48Z</time>
      </trkpt>
      <trkpt lat="43.3876915555" lon="1.7100409325">
        <ele>178.46</ele>
        <time>2017-07-30T11:12:52Z</time>
      </trkpt>
      <trkpt lat="43.3877292741" lon="1.7100711074">
        <ele>178.46</ele>
        <time>2017-07-30T11:12:53Z</time>
      </trkpt>
      <trkpt lat="43.3877709322" lon="1.7101017013">
        <ele>177.98</ele>
        <time>2017-07-30T11:12:54Z</time>
      </trkpt>
      <trkpt lat="43.3882432524" lon="1.7104476225">
        <ele>180.38</ele>
        <time>2017-07-30T11:13:05Z</time>
      </trkpt>
      <trkpt lat="43.3884194400" lon="1.7105701659">
        <ele>177.98</ele>
        <time>2017-07-30T11:13:09Z</time>
      </trkpt>
      <trkpt lat="43.3889010642" lon="1.7108047754">
        <ele>177.98</ele>
        <time>2017-07-30T11:13:20Z</time>
      </trkpt>
      <trkpt lat="43.3893912379" lon="1.7110709846">
        <ele>177.50</ele>
        <time>2017-07-30T11:13:32Z</time>
      </trkpt>
      <trkpt lat="43.3896526694" lon="1.7111831345">
        <ele>177.50</ele>
        <time>2017-07-30T11:13:39Z</time>
      </trkpt>
      <trkpt lat="43.3898506500" lon="1.7113400437">
        <ele>177.50</ele>
        <time>2017-07-30T11:13:47Z</time>
      </trkpt>
      <trkpt lat="43.3898423519" lon="1.7113708891">
        <ele>177.98</ele>
        <time>2017-07-30T11:13:49Z</time>
      </trkpt>
      <trkpt lat="43.3898346405" lon="1.7113999743">
        <ele>177.98</ele>
        <time>2017-07-30T11:13:50Z</time>
      </trkpt>
      <trkpt lat="43.3898174576" lon="1.7114763334">
        <ele>178.94</ele>
        <time>2017-07-30T11:13:53Z</time>
      </trkpt>
      <trkpt lat="43.3898081537" lon="1.7114984617">
        <ele>178.94</ele>
        <time>2017-07-30T11:13:54Z</time>
      </trkpt>
      <trkpt lat="43.3897929825" lon="1.7116792593">
        <ele>179.90</ele>
        <time>2017-07-30T11:13:59Z</time>
      </trkpt>
      <trkpt lat="43.3898079023" lon="1.7117129546">
        <ele>179.90</ele>
        <time>2017-07-30T11:14:00Z</time>
      </trkpt>
      <trkpt lat="43.3900656458" lon="1.7119679321">
        <ele>179.90</ele>
        <time>2017-07-30T11:14:10Z</time>
      </trkpt>
      <trkpt lat="43.3904444240" lon="1.7123521585">
        <ele>179.90</ele>
        <time>2017-07-30T11:14:22Z</time>
      </trkpt>
      <trkpt lat="43.3907133993" lon="1.7127740197">
        <ele>179.90</ele>
        <time>2017-07-30T11:14:33Z</time>
      </trkpt>
      <trkpt lat="43.3907828014" lon="1.7129258998">
        <ele>179.90</ele>
        <time>2017-07-30T11:14:36Z</time>
      </trkpt>
      <trkpt lat="43.3907992300" lon="1.7129793763">
        <ele>179.90</ele>
        <time>2017-07-30T11:14:37Z</time>
      </trkpt>
      <trkpt lat="43.3908171672" lon="1.7130324338">
        <ele>180.38</ele>
        <time>2017-07-30T11:14:38Z</time>
      </trkpt>
      <trkpt lat="43.3909093682" lon="1.7135187518">
        <ele>179.90</ele>
        <time>2017-07-30T11:14:47Z</time>
      </trkpt>
      <trkpt lat="43.3908341825" lon="1.7140670959">
        <ele>179.42</ele>
        <time>2017-07-30T11:14:56Z</time>
      </trkpt>
      <trkpt lat="43.3907315880" lon="1.7146502249">
        <ele>179.42</ele>
        <time>2017-07-30T11:15:06Z</time>
      </trkpt>
      <trkpt lat="43.3906457573" lon="1.7151137441">
        <ele>179.42</ele>
        <time>2017-07-30T11:15:14Z</time>
      </trkpt>
      <trkpt lat="43.3905616030" lon="1.7155550513">
        <ele>180.38</ele>
        <time>2017-07-30T11:15:22Z</time>
      </trkpt>
      <trkpt lat="43.3905021753" lon="1.7160907388">
        <ele>179.90</ele>
        <time>2017-07-30T11:15:31Z</time>
      </trkpt>
      <trkpt lat="43.3904609364" lon="1.7163998634">
        <ele>179.90</ele>
        <time>2017-07-30T11:15:36Z</time>
      </trkpt>
      <trkpt lat="43.3904521354" lon="1.7164689302">
        <ele>179.90</ele>
        <time>2017-07-30T11:15:37Z</time>
      </trkpt>
      <trkpt lat="43.3904479444" lon="1.7165324651">
        <ele>179.90</ele>
        <time>2017-07-30T11:15:38Z</time>
      </trkpt>
      <trkpt lat="43.3904433344" lon="1.7165938206">
        <ele>179.90</ele>
        <time>2017-07-30T11:15:39Z</time>
      </trkpt>
      <trkpt lat="43.3904367965" lon="1.7166538350">
        <ele>179.90</ele>
        <time>2017-07-30T11:15:40Z</time>
      </trkpt>
      <trkpt lat="43.3904317673" lon="1.7167134304">
        <ele>180.38</ele>
        <time>2017-07-30T11:15:41Z</time>
      </trkpt>
      <trkpt lat="43.3904302586" lon="1.7167757917">
        <ele>179.90</ele>
        <time>2017-07-30T11:15:42Z</time>
      </trkpt>
      <trkpt lat="43.3903877623" lon="1.7171621975">
        <ele>180.38</ele>
        <time>2017-07-30T11:15:49Z</time>
      </trkpt>
      <trkpt lat="43.3903865889" lon="1.7173313443">
        <ele>180.38</ele>
        <time>2017-07-30T11:15:52Z</time>
      </trkpt>
      <trkpt lat="43.3903834876" lon="1.7173975613">
        <ele>180.38</ele>
        <time>2017-07-30T11:15:53Z</time>
      </trkpt>
      <trkpt lat="43.3903450985" lon="1.7177402973">
        <ele>180.38</ele>
        <time>2017-07-30T11:15:58Z</time>
      </trkpt>
      <trkpt lat="43.3903298434" lon="1.7178040836">
        <ele>179.90</ele>
        <time>2017-07-30T11:15:59Z</time>
      </trkpt>
      <trkpt lat="43.3901596069" lon="1.7184669245">
        <ele>179.90</ele>
        <time>2017-07-30T11:16:09Z</time>
      </trkpt>
      <trkpt lat="43.3899143524" lon="1.7190908734">
        <ele>179.90</ele>
        <time>2017-07-30T11:16:19Z</time>
      </trkpt>
      <trkpt lat="43.3898544218" lon="1.7191895284">
        <ele>179.90</ele>
        <time>2017-07-30T11:16:21Z</time>
      </trkpt>
      <trkpt lat="43.3897505701" lon="1.7193441745">
        <ele>180.38</ele>
        <time>2017-07-30T11:16:24Z</time>
      </trkpt>
      <trkpt lat="43.3897131030" lon="1.7193971481">
        <ele>180.38</ele>
        <time>2017-07-30T11:16:25Z</time>
      </trkpt>
      <trkpt lat="43.3896747977" lon="1.7194469366">
        <ele>180.38</ele>
        <time>2017-07-30T11:16:26Z</time>
      </trkpt>
      <trkpt lat="43.3896340616" lon="1.7194855772">
        <ele>180.38</ele>
        <time>2017-07-30T11:16:27Z</time>
      </trkpt>
      <trkpt lat="43.3895935770" lon="1.7195217870">
        <ele>180.38</ele>
        <time>2017-07-30T11:16:28Z</time>
      </trkpt>
      <trkpt lat="43.3895565290" lon="1.7195593379">
        <ele>180.38</ele>
        <time>2017-07-30T11:16:29Z</time>
      </trkpt>
      <trkpt lat="43.3895174693" lon="1.7195972241">
        <ele>180.38</ele>
        <time>2017-07-30T11:16:30Z</time>
      </trkpt>
      <trkpt lat="43.3894748054" lon="1.7196392175">
        <ele>179.90</ele>
        <time>2017-07-30T11:16:31Z</time>
      </trkpt>
      <trkpt lat="43.3891261183" lon="1.7198862322">
        <ele>179.90</ele>
        <time>2017-07-30T11:16:39Z</time>
      </trkpt>
      <trkpt lat="43.3890768327" lon="1.7199130543">
        <ele>179.90</ele>
        <time>2017-07-30T11:16:40Z</time>
      </trkpt>
      <trkpt lat="43.3890278824" lon="1.7199356854">
        <ele>179.90</ele>
        <time>2017-07-30T11:16:41Z</time>
      </trkpt>
      <trkpt lat="43.3887055144" lon="1.7200419679">
        <ele>179.90</ele>
        <time>2017-07-30T11:16:48Z</time>
      </trkpt>
      <trkpt lat="43.3886580728" lon="1.7200519424">
        <ele>179.90</ele>
        <time>2017-07-30T11:16:49Z</time>
      </trkpt>
      <trkpt lat="43.3883202821" lon="1.7201366834">
        <ele>179.90</ele>
        <time>2017-07-30T11:16:56Z</time>
      </trkpt>
      <trkpt lat="43.3882713318" lon="1.7201411258">
        <ele>179.90</ele>
        <time>2017-07-30T11:16:57Z</time>
      </trkpt>
      <trkpt lat="43.3882214595" lon="1.7201454844">
        <ele>179.90</ele>
        <time>2017-07-30T11:16:58Z</time>
      </trkpt>
      <trkpt lat="43.3878058847" lon="1.7202168982">
        <ele>179.90</ele>
        <time>2017-07-30T11:17:07Z</time>
      </trkpt>
      <trkpt lat="43.3873047307" lon="1.7204022221">
        <ele>179.90</ele>
        <time>2017-07-30T11:17:17Z</time>
      </trkpt>
      <trkpt lat="43.3870816045" lon="1.7205256037">
        <ele>179.90</ele>
        <time>2017-07-30T11:17:22Z</time>
      </trkpt>
      <trkpt lat="43.3870399464" lon="1.7205507495">
        <ele>179.90</ele>
        <time>2017-07-30T11:17:23Z</time>
      </trkpt>
      <trkpt lat="43.3870001324" lon="1.7205815949">
        <ele>179.90</ele>
        <time>2017-07-30T11:17:24Z</time>
      </trkpt>
      <trkpt lat="43.3868070133" lon="1.7207801621">
        <ele>179.90</ele>
        <time>2017-07-30T11:17:29Z</time>
      </trkpt>
      <trkpt lat="43.3865099587" lon="1.7212130874">
        <ele>179.90</ele>
        <time>2017-07-30T11:17:38Z</time>
      </trkpt>
      <trkpt lat="43.3863572404" lon="1.7214827333">
        <ele>180.38</ele>
        <time>2017-07-30T11:17:43Z</time>
      </trkpt>
      <trkpt lat="43.3862636983" lon="1.7216342781">
        <ele>180.38</ele>
        <time>2017-07-30T11:17:46Z</time>
      </trkpt>
      <trkpt lat="43.3862295002" lon="1.7216866650">
        <ele>180.38</ele>
        <time>2017-07-30T11:17:47Z</time>
      </trkpt>
      <trkpt lat="43.3861612715" lon="1.7218045145">
        <ele>179.90</ele>
        <time>2017-07-30T11:17:49Z</time>
      </trkpt>
      <trkpt lat="43.3860488702" lon="1.7220465001">
        <ele>180.38</ele>
        <time>2017-07-30T11:17:53Z</time>
      </trkpt>
      <trkpt lat="43.3860240597" lon="1.7220975459">
        <ele>180.38</ele>
        <time>2017-07-30T11:17:54Z</time>
      </trkpt>
      <trkpt lat="43.3859986626" lon="1.7221481726">
        <ele>180.38</ele>
        <time>2017-07-30T11:17:55Z</time>
      </trkpt>
      <trkpt lat="43.3859744389" lon="1.7221978772">
        <ele>180.38</ele>
        <time>2017-07-30T11:17:56Z</time>
      </trkpt>
      <trkpt lat="43.3859520592" lon="1.7222491745">
        <ele>180.38</ele>
        <time>2017-07-30T11:17:57Z</time>
      </trkpt>
      <trkpt lat="43.3856643084" lon="1.7227610573">
        <ele>180.38</ele>
        <time>2017-07-30T11:18:06Z</time>
      </trkpt>
      <trkpt lat="43.3856002707" lon="1.7228858639">
        <ele>180.38</ele>
        <time>2017-07-30T11:18:08Z</time>
      </trkpt>
      <trkpt lat="43.3855653182" lon="1.7229390889">
        <ele>180.38</ele>
        <time>2017-07-30T11:18:09Z</time>
      </trkpt>
      <trkpt lat="43.3851791639" lon="1.7235661391">
        <ele>179.90</ele>
        <time>2017-07-30T11:18:20Z</time>
      </trkpt>
      <trkpt lat="43.3848766610" lon="1.7240996473">
        <ele>179.90</ele>
        <time>2017-07-30T11:18:29Z</time>
      </trkpt>
      <trkpt lat="43.3845110424" lon="1.7248463072">
        <ele>179.90</ele>
        <time>2017-07-30T11:18:41Z</time>
      </trkpt>
      <trkpt lat="43.3843672927" lon="1.7251340579">
        <ele>179.90</ele>
        <time>2017-07-30T11:18:46Z</time>
      </trkpt>
      <trkpt lat="43.3843422309" lon="1.7251873668">
        <ele>179.90</ele>
        <time>2017-07-30T11:18:47Z</time>
      </trkpt>
      <trkpt lat="43.3842273150" lon="1.7254359741">
        <ele>180.38</ele>
        <time>2017-07-30T11:18:52Z</time>
      </trkpt>
      <trkpt lat="43.3841562364" lon="1.7255917937">
        <ele>179.90</ele>
        <time>2017-07-30T11:18:55Z</time>
      </trkpt>
      <trkpt lat="43.3841305878" lon="1.7256422527">
        <ele>180.38</ele>
        <time>2017-07-30T11:18:56Z</time>
      </trkpt>
      <trkpt lat="43.3838585950" lon="1.7262273934">
        <ele>180.38</ele>
        <time>2017-07-30T11:19:08Z</time>
      </trkpt>
      <trkpt lat="43.3837128337" lon="1.7266058363">
        <ele>180.38</ele>
        <time>2017-07-30T11:19:16Z</time>
      </trkpt>
      <trkpt lat="43.3834677469" lon="1.7271310464">
        <ele>180.87</ele>
        <time>2017-07-30T11:19:28Z</time>
      </trkpt>
      <trkpt lat="43.3833004441" lon="1.7275296897">
        <ele>181.35</ele>
        <time>2017-07-30T11:19:37Z</time>
      </trkpt>
      <trkpt lat="43.3831209037" lon="1.7277110741">
        <ele>181.83</ele>
        <time>2017-07-30T11:19:45Z</time>
      </trkpt>
      <trkpt lat="43.3828647528" lon="1.7281194404">
        <ele>182.31</ele>
        <time>2017-07-30T11:19:56Z</time>
      </trkpt>
      <trkpt lat="43.3827675227" lon="1.7283903435">
        <ele>183.27</ele>
        <time>2017-07-30T11:20:03Z</time>
      </trkpt>
      <trkpt lat="43.3825698774" lon="1.7287070956">
        <ele>183.75</ele>
        <time>2017-07-30T11:20:13Z</time>
      </trkpt>
      <trkpt lat="43.3823821228" lon="1.7290660087">
        <ele>184.23</ele>
        <time>2017-07-30T11:20:23Z</time>
      </trkpt>
      <trkpt lat="43.3821876626" lon="1.7295055557">
        <ele>184.23</ele>
        <time>2017-07-30T11:20:32Z</time>
      </trkpt>
      <trkpt lat="43.3818903565" lon="1.7301098071">
        <ele>184.71</ele>
        <time>2017-07-30T11:20:43Z</time>
      </trkpt>
      <trkpt lat="43.3817792125" lon="1.7303359509">
        <ele>184.71</ele>
        <time>2017-07-30T11:20:47Z</time>
      </trkpt>
      <trkpt lat="43.3816279192" lon="1.7306884099">
        <ele>184.71</ele>
        <time>2017-07-30T11:20:53Z</time>
      </trkpt>
      <trkpt lat="43.3813517354" lon="1.7314478941">
        <ele>183.27</ele>
        <time>2017-07-30T11:21:04Z</time>
      </trkpt>
      <trkpt lat="43.3811118454" lon="1.7322569154">
        <ele>183.75</ele>
        <time>2017-07-30T11:21:15Z</time>
      </trkpt>
      <trkpt lat="43.3809446264" lon="1.7331052478">
        <ele>183.75</ele>
        <time>2017-07-30T11:21:26Z</time>
      </trkpt>
      <trkpt lat="43.3808011282" lon="1.7337405961">
        <ele>184.23</ele>
        <time>2017-07-30T11:21:35Z</time>
      </trkpt>
      <trkpt lat="43.3807461429" lon="1.7339367326">
        <ele>184.23</ele>
        <time>2017-07-30T11:21:38Z</time>
      </trkpt>
      <trkpt lat="43.3804786764" lon="1.7346486915">
        <ele>184.71</ele>
        <time>2017-07-30T11:21:49Z</time>
      </trkpt>
      <trkpt lat="43.3804180752" lon="1.7348206881">
        <ele>184.71</ele>
        <time>2017-07-30T11:21:52Z</time>
      </trkpt>
      <trkpt lat="43.3802975435" lon="1.7351366021">
        <ele>184.71</ele>
        <time>2017-07-30T11:21:57Z</time>
      </trkpt>
      <trkpt lat="43.3800426498" lon="1.7358367424">
        <ele>183.75</ele>
        <time>2017-07-30T11:22:07Z</time>
      </trkpt>
      <trkpt lat="43.3798164222" lon="1.7364565004">
        <ele>183.75</ele>
        <time>2017-07-30T11:22:15Z</time>
      </trkpt>
      <trkpt lat="43.3797187731" lon="1.7367289960">
        <ele>183.27</ele>
        <time>2017-07-30T11:22:19Z</time>
      </trkpt>
      <trkpt lat="43.3796973992" lon="1.7367956322">
        <ele>183.27</ele>
        <time>2017-07-30T11:22:20Z</time>
      </trkpt>
      <trkpt lat="43.3795699105" lon="1.7371296510">
        <ele>183.75</ele>
        <time>2017-07-30T11:22:25Z</time>
      </trkpt>
      <trkpt lat="43.3795238938" lon="1.7372588161">
        <ele>183.75</ele>
        <time>2017-07-30T11:22:27Z</time>
      </trkpt>
      <trkpt lat="43.3794738539" lon="1.7373780068">
        <ele>183.75</ele>
        <time>2017-07-30T11:22:29Z</time>
      </trkpt>
      <trkpt lat="43.3794086426" lon="1.7375645041">
        <ele>184.23</ele>
        <time>2017-07-30T11:22:32Z</time>
      </trkpt>
      <trkpt lat="43.3790971711" lon="1.7382432707">
        <ele>184.71</ele>
        <time>2017-07-30T11:22:44Z</time>
      </trkpt>
      <trkpt lat="43.3789556846" lon="1.7385518085">
        <ele>184.71</ele>
        <time>2017-07-30T11:22:49Z</time>
      </trkpt>
      <trkpt lat="43.3786075003" lon="1.7391591612">
        <ele>184.71</ele>
        <time>2017-07-30T11:22:59Z</time>
      </trkpt>
      <trkpt lat="43.3749032859" lon="1.7468998488">
        <ele>181.83</ele>
        <time>2017-07-30T11:25:02Z</time>
      </trkpt>
      <trkpt lat="43.3748692553" lon="1.7469692510">
        <ele>181.83</ele>
        <time>2017-07-30T11:25:03Z</time>
      </trkpt>
      <trkpt lat="43.3748349734" lon="1.7470346298">
        <ele>181.83</ele>
        <time>2017-07-30T11:25:04Z</time>
      </trkpt>
      <trkpt lat="43.3748211432" lon="1.7470950633">
        <ele>181.83</ele>
        <time>2017-07-30T11:25:05Z</time>
      </trkpt>
      <trkpt lat="43.3747957461" lon="1.7471575923">
        <ele>180.87</ele>
        <time>2017-07-30T11:25:06Z</time>
      </trkpt>
      <trkpt lat="43.3745099232" lon="1.7477784399">
        <ele>181.83</ele>
        <time>2017-07-30T11:25:17Z</time>
      </trkpt>
      <trkpt lat="43.3741422929" lon="1.7482963577">
        <ele>181.83</ele>
        <time>2017-07-30T11:25:27Z</time>
      </trkpt>
      <trkpt lat="43.3738310728" lon="1.7486933246">
        <ele>181.83</ele>
        <time>2017-07-30T11:25:35Z</time>
      </trkpt>
      <trkpt lat="43.3734129835" lon="1.7492663953">
        <ele>182.31</ele>
        <time>2017-07-30T11:25:47Z</time>
      </trkpt>
      <trkpt lat="43.3731552400" lon="1.7496004980">
        <ele>182.31</ele>
        <time>2017-07-30T11:25:54Z</time>
      </trkpt>
      <trkpt lat="43.3731243107" lon="1.7496487778">
        <ele>181.83</ele>
        <time>2017-07-30T11:25:55Z</time>
      </trkpt>
      <trkpt lat="43.3730908670" lon="1.7497014161">
        <ele>181.83</ele>
        <time>2017-07-30T11:25:56Z</time>
      </trkpt>
      <trkpt lat="43.3728523180" lon="1.7500931025">
        <ele>181.83</ele>
        <time>2017-07-30T11:26:03Z</time>
      </trkpt>
      <trkpt lat="43.3728232328" lon="1.7501523625">
        <ele>181.83</ele>
        <time>2017-07-30T11:26:04Z</time>
      </trkpt>
      <trkpt lat="43.3726358972" lon="1.7505445518">
        <ele>181.83</ele>
        <time>2017-07-30T11:26:11Z</time>
      </trkpt>
      <trkpt lat="43.3726097457" lon="1.7506082542">
        <ele>181.83</ele>
        <time>2017-07-30T11:26:12Z</time>
      </trkpt>
      <trkpt lat="43.3725267649" lon="1.7507918179">
        <ele>181.83</ele>
        <time>2017-07-30T11:26:15Z</time>
      </trkpt>
      <trkpt lat="43.3724964224" lon="1.7508478090">
        <ele>181.83</ele>
        <time>2017-07-30T11:26:16Z</time>
      </trkpt>
      <trkpt lat="43.3723745495" lon="1.7511316203">
        <ele>181.83</ele>
        <time>2017-07-30T11:26:21Z</time>
      </trkpt>
      <trkpt lat="43.3722166345" lon="1.7515124939">
        <ele>181.35</ele>
        <time>2017-07-30T11:26:28Z</time>
      </trkpt>
      <trkpt lat="43.3721899800" lon="1.7515757773">
        <ele>181.83</ele>
        <time>2017-07-30T11:26:29Z</time>
      </trkpt>
      <trkpt lat="43.3721051551" lon="1.7517762724">
        <ele>182.31</ele>
        <time>2017-07-30T11:26:32Z</time>
      </trkpt>
      <trkpt lat="43.3720168937" lon="1.7520355247">
        <ele>181.83</ele>
        <time>2017-07-30T11:26:36Z</time>
      </trkpt>
      <trkpt lat="43.3718671929" lon="1.7524500936">
        <ele>181.83</ele>
        <time>2017-07-30T11:26:42Z</time>
      </trkpt>
      <trkpt lat="43.3716913406" lon="1.7529514153">
        <ele>182.31</ele>
        <time>2017-07-30T11:26:50Z</time>
      </trkpt>
      <trkpt lat="43.3714501932" lon="1.7535121646">
        <ele>182.79</ele>
        <time>2017-07-30T11:26:59Z</time>
      </trkpt>
      <trkpt lat="43.3714256343" lon="1.7535745259">
        <ele>182.31</ele>
        <time>2017-07-30T11:27:00Z</time>
      </trkpt>
      <trkpt lat="43.3714038413" lon="1.7536409106">
        <ele>182.79</ele>
        <time>2017-07-30T11:27:01Z</time>
      </trkpt>
      <trkpt lat="43.3713765163" lon="1.7537049484">
        <ele>182.31</ele>
        <time>2017-07-30T11:27:02Z</time>
      </trkpt>
      <trkpt lat="43.3709979057" lon="1.7542810366">
        <ele>182.79</ele>
        <time>2017-07-30T11:27:13Z</time>
      </trkpt>
      <trkpt lat="43.3708568383" lon="1.7544345092">
        <ele>182.79</ele>
        <time>2017-07-30T11:27:17Z</time>
      </trkpt>
      <trkpt lat="43.3704918064" lon="1.7548008822">
        <ele>182.31</ele>
        <time>2017-07-30T11:27:26Z</time>
      </trkpt>
      <trkpt lat="43.3700976893" lon="1.7551953346">
        <ele>182.31</ele>
        <time>2017-07-30T11:27:36Z</time>
      </trkpt>
      <trkpt lat="43.3697234374" lon="1.7555383220">
        <ele>183.27</ele>
        <time>2017-07-30T11:27:47Z</time>
      </trkpt>
      <trkpt lat="43.3694591559" lon="1.7558215465">
        <ele>183.27</ele>
        <time>2017-07-30T11:27:56Z</time>
      </trkpt>
      <trkpt lat="43.3692421485" lon="1.7560570780">
        <ele>183.75</ele>
        <time>2017-07-30T11:28:04Z</time>
      </trkpt>
      <trkpt lat="43.3690309245" lon="1.7561515421">
        <ele>183.75</ele>
        <time>2017-07-30T11:28:12Z</time>
      </trkpt>
      <trkpt lat="43.3688207064" lon="1.7563625984">
        <ele>184.71</ele>
        <time>2017-07-30T11:28:21Z</time>
      </trkpt>
      <trkpt lat="43.3687981591" lon="1.7563791107">
        <ele>184.71</ele>
        <time>2017-07-30T11:28:22Z</time>
      </trkpt>
      <trkpt lat="43.3685617894" lon="1.7566214316">
        <ele>185.19</ele>
        <time>2017-07-30T11:28:33Z</time>
      </trkpt>
      <trkpt lat="43.3683668263" lon="1.7568650935">
        <ele>185.67</ele>
        <time>2017-07-30T11:28:42Z</time>
      </trkpt>
      <trkpt lat="43.3681483939" lon="1.7571160477">
        <ele>185.67</ele>
        <time>2017-07-30T11:28:51Z</time>
      </trkpt>
      <trkpt lat="43.3679138683" lon="1.7574686743">
        <ele>187.59</ele>
        <time>2017-07-30T11:29:02Z</time>
      </trkpt>
      <trkpt lat="43.3676402830" lon="1.7578434292">
        <ele>187.59</ele>
        <time>2017-07-30T11:29:13Z</time>
      </trkpt>
      <trkpt lat="43.3673624229" lon="1.7582856584">
        <ele>187.59</ele>
        <time>2017-07-30T11:29:23Z</time>
      </trkpt>
      <trkpt lat="43.3672605827" lon="1.7584806215">
        <ele>188.08</ele>
        <time>2017-07-30T11:29:27Z</time>
      </trkpt>
      <trkpt lat="43.3670325112" lon="1.7589962762">
        <ele>188.56</ele>
        <time>2017-07-30T11:29:39Z</time>
      </trkpt>
      <trkpt lat="43.3668328542" lon="1.7594814207">
        <ele>188.56</ele>
        <time>2017-07-30T11:29:49Z</time>
      </trkpt>
      <trkpt lat="43.3668139949" lon="1.7595327180">
        <ele>188.56</ele>
        <time>2017-07-30T11:29:50Z</time>
      </trkpt>
      <trkpt lat="43.3667942137" lon="1.7595838476">
        <ele>188.56</ele>
        <time>2017-07-30T11:29:51Z</time>
      </trkpt>
      <trkpt lat="43.3667719178" lon="1.7596338037">
        <ele>188.56</ele>
        <time>2017-07-30T11:29:52Z</time>
      </trkpt>
      <trkpt lat="43.3665450197" lon="1.7601765320">
        <ele>188.56</ele>
        <time>2017-07-30T11:30:03Z</time>
      </trkpt>
      <trkpt lat="43.3663468715" lon="1.7606278136">
        <ele>189.52</ele>
        <time>2017-07-30T11:30:13Z</time>
      </trkpt>
      <trkpt lat="43.3661258407" lon="1.7612914089">
        <ele>189.04</ele>
        <time>2017-07-30T11:30:24Z</time>
      </trkpt>
      <trkpt lat="43.3661125135" lon="1.7613510881">
        <ele>189.04</ele>
        <time>2017-07-30T11:30:25Z</time>
      </trkpt>
      <trkpt lat="43.3659457974" lon="1.7620585207">
        <ele>188.56</ele>
        <time>2017-07-30T11:30:37Z</time>
      </trkpt>
      <trkpt lat="43.3658458013" lon="1.7626886722">
        <ele>188.08</ele>
        <time>2017-07-30T11:30:46Z</time>
      </trkpt>
      <trkpt lat="43.3658406045" lon="1.7627551407">
        <ele>188.08</ele>
        <time>2017-07-30T11:30:47Z</time>
      </trkpt>
      <trkpt lat="43.3657644968" lon="1.7633681931">
        <ele>189.52</ele>
        <time>2017-07-30T11:30:58Z</time>
      </trkpt>
      <trkpt lat="43.3656344935" lon="1.7640786432">
        <ele>190.48</ele>
        <time>2017-07-30T11:31:11Z</time>
      </trkpt>
      <trkpt lat="43.3653619979" lon="1.7646839842">
        <ele>189.04</ele>
        <time>2017-07-30T11:31:21Z</time>
      </trkpt>
      <trkpt lat="43.3650114667" lon="1.7654526047">
        <ele>188.56</ele>
        <time>2017-07-30T11:31:32Z</time>
      </trkpt>
      <trkpt lat="43.3649325930" lon="1.7656714562">
        <ele>184.71</ele>
        <time>2017-07-30T11:31:35Z</time>
      </trkpt>
      <trkpt lat="43.3649063576" lon="1.7657379247">
        <ele>190.00</ele>
        <time>2017-07-30T11:31:36Z</time>
      </trkpt>
      <trkpt lat="43.3648304176" lon="1.7659328878">
        <ele>188.56</ele>
        <time>2017-07-30T11:31:39Z</time>
      </trkpt>
      <trkpt lat="43.3647212852" lon="1.7662378214">
        <ele>186.63</ele>
        <time>2017-07-30T11:31:44Z</time>
      </trkpt>
      <trkpt lat="43.3646959718" lon="1.7663025297">
        <ele>190.00</ele>
        <time>2017-07-30T11:31:45Z</time>
      </trkpt>
      <trkpt lat="43.3644294273" lon="1.7671128083">
        <ele>188.56</ele>
        <time>2017-07-30T11:31:58Z</time>
      </trkpt>
      <trkpt lat="43.3642367274" lon="1.7677582987">
        <ele>188.08</ele>
        <time>2017-07-30T11:32:08Z</time>
      </trkpt>
      <trkpt lat="43.3642273396" lon="1.7678192351">
        <ele>188.08</ele>
        <time>2017-07-30T11:32:09Z</time>
      </trkpt>
      <trkpt lat="43.3642182872" lon="1.7678821832">
        <ele>188.08</ele>
        <time>2017-07-30T11:32:10Z</time>
      </trkpt>
      <trkpt lat="43.3642038703" lon="1.7679485679">
        <ele>188.08</ele>
        <time>2017-07-30T11:32:11Z</time>
      </trkpt>
      <trkpt lat="43.3641438559" lon="1.7682074010">
        <ele>188.08</ele>
        <time>2017-07-30T11:32:15Z</time>
      </trkpt>
      <trkpt lat="43.3640400041" lon="1.7688881792">
        <ele>188.56</ele>
        <time>2017-07-30T11:32:25Z</time>
      </trkpt>
      <trkpt lat="43.3639921434" lon="1.7696946859">
        <ele>188.08</ele>
        <time>2017-07-30T11:32:36Z</time>
      </trkpt>
      <trkpt lat="43.3639717754" lon="1.7699089274">
        <ele>188.08</ele>
        <time>2017-07-30T11:32:39Z</time>
      </trkpt>
      <trkpt lat="43.3638866153" lon="1.7705151066">
        <ele>188.08</ele>
        <time>2017-07-30T11:32:48Z</time>
      </trkpt>
      <trkpt lat="43.3638248406" lon="1.7710046936">
        <ele>188.08</ele>
        <time>2017-07-30T11:32:55Z</time>
      </trkpt>
      <trkpt lat="43.3637789916" lon="1.7713174224">
        <ele>188.08</ele>
        <time>2017-07-30T11:33:00Z</time>
      </trkpt>
      <trkpt lat="43.3636640757" lon="1.7719717138">
        <ele>188.08</ele>
        <time>2017-07-30T11:33:10Z</time>
      </trkpt>
      <trkpt lat="43.3634668496" lon="1.7726465408">
        <ele>189.52</ele>
        <time>2017-07-30T11:33:21Z</time>
      </trkpt>
      <trkpt lat="43.3633262012" lon="1.7730103992">
        <ele>190.48</ele>
        <time>2017-07-30T11:33:30Z</time>
      </trkpt>
      <trkpt lat="43.3633111138" lon="1.7730671447">
        <ele>190.48</ele>
        <time>2017-07-30T11:33:32Z</time>
      </trkpt>
      <trkpt lat="43.3633190766" lon="1.7730878480">
        <ele>190.48</ele>
        <time>2017-07-30T11:33:33Z</time>
      </trkpt>
      <trkpt lat="43.3633380197" lon="1.7730928771">
        <ele>190.48</ele>
        <time>2017-07-30T11:33:34Z</time>
      </trkpt>
      <trkpt lat="43.3633574657" lon="1.7730832379">
        <ele>190.48</ele>
        <time>2017-07-30T11:33:35Z</time>
      </trkpt>
      <trkpt lat="43.3633702062" lon="1.7730635405">
        <ele>190.48</ele>
        <time>2017-07-30T11:33:36Z</time>
      </trkpt>
      <trkpt lat="43.3633717149" lon="1.7730372213">
        <ele>190.96</ele>
        <time>2017-07-30T11:33:37Z</time>
      </trkpt>
      <trkpt lat="43.3633563761" lon="1.7730107345">
        <ele>190.96</ele>
        <time>2017-07-30T11:33:38Z</time>
      </trkpt>
      <trkpt lat="43.3633287158" lon="1.7729881871">
        <ele>190.96</ele>
        <time>2017-07-30T11:33:39Z</time>
      </trkpt>
      <trkpt lat="43.3632953558" lon="1.7729649693">
        <ele>190.96</ele>
        <time>2017-07-30T11:33:40Z</time>
      </trkpt>
      <trkpt lat="43.3631292265" lon="1.7729207966">
        <ele>190.96</ele>
        <time>2017-07-30T11:33:45Z</time>
      </trkpt>
      <trkpt lat="43.3631115407" lon="1.7729425058">
        <ele>190.96</ele>
        <time>2017-07-30T11:33:46Z</time>
      </trkpt>
      <trkpt lat="43.3630988002" lon="1.7729692440">
        <ele>190.96</ele>
        <time>2017-07-30T11:33:47Z</time>
      </trkpt>
      <trkpt lat="43.3630878199" lon="1.7729953118">
        <ele>191.44</ele>
        <time>2017-07-30T11:33:48Z</time>
      </trkpt>
      <trkpt lat="43.3630775940" lon="1.7730127461">
        <ele>191.44</ele>
        <time>2017-07-30T11:33:49Z</time>
      </trkpt>
      <trkpt lat="43.3630718943" lon="1.7730265763">
        <ele>191.44</ele>
        <time>2017-07-30T11:33:58Z</time>
      </trkpt>
      <trkpt lat="43.3630772587" lon="1.7730284203">
        <ele>191.44</ele>
        <time>2017-07-30T11:34:21Z</time>
      </trkpt>
      <trkpt lat="43.3630894963" lon="1.7730435077">
        <ele>191.44</ele>
        <time>2017-07-30T11:34:53Z</time>
      </trkpt>
      <trkpt lat="43.3630998898" lon="1.7730408255">
        <ele>191.44</ele>
        <time>2017-07-30T11:35:17Z</time>
      </trkpt>
      <trkpt lat="43.3630998898" lon="1.7730449326">
        <ele>191.44</ele>
        <time>2017-07-30T11:35:39Z</time>
      </trkpt>
      <trkpt lat="43.3630893286" lon="1.7730470281">
        <ele>191.92</ele>
        <time>2017-07-30T11:36:04Z</time>
      </trkpt>
      <trkpt lat="43.3630807791" lon="1.7730600201">
        <ele>191.92</ele>
        <time>2017-07-30T11:36:31Z</time>
      </trkpt>
      <trkpt lat="43.3630870655" lon="1.7730657198">
        <ele>191.92</ele>
        <time>2017-07-30T11:36:58Z</time>
      </trkpt>
      <trkpt lat="43.3630856406" lon="1.7730590980">
        <ele>191.44</ele>
        <time>2017-07-30T11:37:27Z</time>
      </trkpt>
      <trkpt lat="43.3630760014" lon="1.7730461061">
        <ele>191.92</ele>
        <time>2017-07-30T11:37:57Z</time>
      </trkpt>
      <trkpt lat="43.3630657755" lon="1.7730501294">
        <ele>191.92</ele>
        <time>2017-07-30T11:38:20Z</time>
      </trkpt>
      <trkpt lat="43.3630540408" lon="1.7730372213">
        <ele>191.92</ele>
        <time>2017-07-30T11:38:46Z</time>
      </trkpt>
      <trkpt lat="43.3630573098" lon="1.7730035260">
        <ele>191.92</ele>
        <time>2017-07-30T11:39:17Z</time>
      </trkpt>
      <trkpt lat="43.3630660269" lon="1.7729953956">
        <ele>191.92</ele>
        <time>2017-07-30T11:39:43Z</time>
      </trkpt>
      <trkpt lat="43.3630705532" lon="1.7729912046">
        <ele>191.92</ele>
        <time>2017-07-30T11:40:09Z</time>
      </trkpt>
      <trkpt lat="43.3630739897" lon="1.7730128299">
        <ele>191.92</ele>
        <time>2017-07-30T11:40:42Z</time>
      </trkpt>
      <trkpt lat="43.3630698826" lon="1.7730052862">
        <ele>191.92</ele>
        <time>2017-07-30T11:41:04Z</time>
      </trkpt>
      <trkpt lat="43.3630696312" lon="1.7730174400">
        <ele>191.92</ele>
        <time>2017-07-30T11:41:21Z</time>
      </trkpt>
      <trkpt lat="43.3630571421" lon="1.7729989160">
        <ele>191.92</ele>
        <time>2017-07-30T11:41:23Z</time>
      </trkpt>
      <trkpt lat="43.3630602434" lon="1.7729788832">
        <ele>192.40</ele>
        <time>2017-07-30T11:41:24Z</time>
      </trkpt>
      <trkpt lat="43.3630724810" lon="1.7729604430">
        <ele>191.92</ele>
        <time>2017-07-30T11:41:25Z</time>
      </trkpt>
      <trkpt lat="43.3630868141" lon="1.7729421705">
        <ele>191.92</ele>
        <time>2017-07-30T11:41:26Z</time>
      </trkpt>
      <trkpt lat="43.3631065954" lon="1.7729218025">
        <ele>191.92</ele>
        <time>2017-07-30T11:41:27Z</time>
      </trkpt>
      <trkpt lat="43.3631397039" lon="1.7729051225">
        <ele>191.92</ele>
        <time>2017-07-30T11:41:28Z</time>
      </trkpt>
      <trkpt lat="43.3631803561" lon="1.7729065474">
        <ele>191.92</ele>
        <time>2017-07-30T11:41:29Z</time>
      </trkpt>
      <trkpt lat="43.3632265404" lon="1.7729290109">
        <ele>191.92</ele>
        <time>2017-07-30T11:41:30Z</time>
      </trkpt>
      <trkpt lat="43.3632723894" lon="1.7729601078">
        <ele>191.92</ele>
        <time>2017-07-30T11:41:31Z</time>
      </trkpt>
      <trkpt lat="43.3633066714" lon="1.7730085552">
        <ele>191.92</ele>
        <time>2017-07-30T11:41:32Z</time>
      </trkpt>
      <trkpt lat="43.3633173164" lon="1.7730763648">
        <ele>191.92</ele>
        <time>2017-07-30T11:41:33Z</time>
      </trkpt>
      <trkpt lat="43.3633044083" lon="1.7731476948">
        <ele>191.92</ele>
        <time>2017-07-30T11:41:34Z</time>
      </trkpt>
      <trkpt lat="43.3631806076" lon="1.7736012395">
        <ele>190.96</ele>
        <time>2017-07-30T11:41:43Z</time>
      </trkpt>
      <trkpt lat="43.3631726447" lon="1.7736220267">
        <ele>190.48</ele>
        <time>2017-07-30T11:41:44Z</time>
      </trkpt>
      <trkpt lat="43.3631590661" lon="1.7736346833">
        <ele>190.48</ele>
        <time>2017-07-30T11:41:45Z</time>
      </trkpt>
      <trkpt lat="43.3631466608" lon="1.7736501060">
        <ele>190.48</ele>
        <time>2017-07-30T11:41:46Z</time>
      </trkpt>
      <trkpt lat="43.3631395362" lon="1.7736719828">
        <ele>190.96</ele>
        <time>2017-07-30T11:41:47Z</time>
      </trkpt>
      <trkpt lat="43.3631367702" lon="1.7736928537">
        <ele>190.96</ele>
        <time>2017-07-30T11:41:48Z</time>
      </trkpt>
      <trkpt lat="43.3631364349" lon="1.7737147305">
        <ele>190.96</ele>
        <time>2017-07-30T11:41:49Z</time>
      </trkpt>
      <trkpt lat="43.3631170727" lon="1.7737702187">
        <ele>190.96</ele>
        <time>2017-07-30T11:41:52Z</time>
      </trkpt>
      <trkpt lat="43.3631063439" lon="1.7737867311">
        <ele>190.96</ele>
        <time>2017-07-30T11:41:53Z</time>
      </trkpt>
      <trkpt lat="43.3631005604" lon="1.7738112900">
        <ele>190.96</ele>
        <time>2017-07-30T11:41:54Z</time>
      </trkpt>
      <trkpt lat="43.3630941063" lon="1.7738376930">
        <ele>190.48</ele>
        <time>2017-07-30T11:41:55Z</time>
      </trkpt>
      <trkpt lat="43.3630828746" lon="1.7738635093">
        <ele>190.96</ele>
        <time>2017-07-30T11:41:56Z</time>
      </trkpt>
      <trkpt lat="43.3630122151" lon="1.7740624957">
        <ele>190.96</ele>
        <time>2017-07-30T11:42:04Z</time>
      </trkpt>
      <trkpt lat="43.3630096167" lon="1.7740809359">
        <ele>190.96</ele>
        <time>2017-07-30T11:42:05Z</time>
      </trkpt>
      <trkpt lat="43.3629880752" lon="1.7741842009">
        <ele>190.96</ele>
        <time>2017-07-30T11:42:09Z</time>
      </trkpt>
      <trkpt lat="43.3629779331" lon="1.7742090952">
        <ele>190.96</ele>
        <time>2017-07-30T11:42:10Z</time>
      </trkpt>
      <trkpt lat="43.3629661985" lon="1.7742367554">
        <ele>190.96</ele>
        <time>2017-07-30T11:42:11Z</time>
      </trkpt>
      <trkpt lat="43.3629586548" lon="1.7742663436">
        <ele>190.96</ele>
        <time>2017-07-30T11:42:12Z</time>
      </trkpt>
      <trkpt lat="43.3629532065" lon="1.7743002903">
        <ele>190.96</ele>
        <time>2017-07-30T11:42:13Z</time>
      </trkpt>
      <trkpt lat="43.3629485965" lon="1.7743385118">
        <ele>190.96</ele>
        <time>2017-07-30T11:42:14Z</time>
      </trkpt>
      <trkpt lat="43.3629423939" lon="1.7743806727">
        <ele>190.96</ele>
        <time>2017-07-30T11:42:15Z</time>
      </trkpt>
      <trkpt lat="43.3629338443" lon="1.7744228337">
        <ele>190.96</ele>
        <time>2017-07-30T11:42:16Z</time>
      </trkpt>
      <trkpt lat="43.3628434874" lon="1.7748078983">
        <ele>190.96</ele>
        <time>2017-07-30T11:42:24Z</time>
      </trkpt>
      <trkpt lat="43.3626446687" lon="1.7754390556">
        <ele>190.96</ele>
        <time>2017-07-30T11:42:35Z</time>
      </trkpt>
      <trkpt lat="43.3624388929" lon="1.7760134675">
        <ele>190.96</ele>
        <time>2017-07-30T11:42:46Z</time>
      </trkpt>
      <trkpt lat="43.3622276690" lon="1.7765113525">
        <ele>191.92</ele>
        <time>2017-07-30T11:42:57Z</time>
      </trkpt>
      <trkpt lat="43.3621529024" lon="1.7766358238">
        <ele>192.88</ele>
        <time>2017-07-30T11:43:01Z</time>
      </trkpt>
      <trkpt lat="43.3618778083" lon="1.7770359758">
        <ele>192.88</ele>
        <time>2017-07-30T11:43:12Z</time>
      </trkpt>
      <trkpt lat="43.3615391795" lon="1.7775251437">
        <ele>192.40</ele>
        <time>2017-07-30T11:43:23Z</time>
      </trkpt>
      <trkpt lat="43.3612745628" lon="1.7779340129">
        <ele>191.92</ele>
        <time>2017-07-30T11:43:31Z</time>
      </trkpt>
      <trkpt lat="43.3611567132" lon="1.7781628389">
        <ele>191.92</ele>
        <time>2017-07-30T11:43:35Z</time>
      </trkpt>
      <trkpt lat="43.3610085212" lon="1.7783763260">
        <ele>191.92</ele>
        <time>2017-07-30T11:43:39Z</time>
      </trkpt>
      <trkpt lat="43.3609764185" lon="1.7784370109">
        <ele>191.92</ele>
        <time>2017-07-30T11:43:40Z</time>
      </trkpt>
      <trkpt lat="43.3608362731" lon="1.7787415255">
        <ele>192.40</ele>
        <time>2017-07-30T11:43:45Z</time>
      </trkpt>
      <trkpt lat="43.3605745900" lon="1.7794063780">
        <ele>192.88</ele>
        <time>2017-07-30T11:43:55Z</time>
      </trkpt>
      <trkpt lat="43.3605230413" lon="1.7796003353">
        <ele>192.40</ele>
        <time>2017-07-30T11:43:58Z</time>
      </trkpt>
      <trkpt lat="43.3604348637" lon="1.7798717413">
        <ele>192.40</ele>
        <time>2017-07-30T11:44:02Z</time>
      </trkpt>
      <trkpt lat="43.3604090475" lon="1.7799429037">
        <ele>192.40</ele>
        <time>2017-07-30T11:44:03Z</time>
      </trkpt>
      <trkpt lat="43.3602759428" lon="1.7804229353">
        <ele>192.40</ele>
        <time>2017-07-30T11:44:09Z</time>
      </trkpt>
      <trkpt lat="43.3602315187" lon="1.7805552017">
        <ele>192.40</ele>
        <time>2017-07-30T11:44:11Z</time>
      </trkpt>
      <trkpt lat="43.3601396531" lon="1.7808051500">
        <ele>192.88</ele>
        <time>2017-07-30T11:44:15Z</time>
      </trkpt>
      <trkpt lat="43.3599106595" lon="1.7812973354">
        <ele>192.88</ele>
        <time>2017-07-30T11:44:23Z</time>
      </trkpt>
      <trkpt lat="43.3596817497" lon="1.7817604356">
        <ele>192.40</ele>
        <time>2017-07-30T11:44:31Z</time>
      </trkpt>
      <trkpt lat="43.3595637325" lon="1.7819647025">
        <ele>192.40</ele>
        <time>2017-07-30T11:44:35Z</time>
      </trkpt>
      <trkpt lat="43.3595359884" lon="1.7820173409">
        <ele>192.40</ele>
        <time>2017-07-30T11:44:36Z</time>
      </trkpt>
      <trkpt lat="43.3595056459" lon="1.7820727453">
        <ele>192.40</ele>
        <time>2017-07-30T11:44:37Z</time>
      </trkpt>
      <trkpt lat="43.3591971081" lon="1.7826029845">
        <ele>192.40</ele>
        <time>2017-07-30T11:44:45Z</time>
      </trkpt>
      <trkpt lat="43.3589120395" lon="1.7831866164">
        <ele>192.40</ele>
        <time>2017-07-30T11:44:55Z</time>
      </trkpt>
      <trkpt lat="43.3586754184" lon="1.7838077992">
        <ele>192.88</ele>
        <time>2017-07-30T11:45:05Z</time>
      </trkpt>
      <trkpt lat="43.3585786913" lon="1.7841193546">
        <ele>192.88</ele>
        <time>2017-07-30T11:45:10Z</time>
      </trkpt>
      <trkpt lat="43.3584009949" lon="1.7847439740">
        <ele>192.88</ele>
        <time>2017-07-30T11:45:20Z</time>
      </trkpt>
      <trkpt lat="43.3583543915" lon="1.7849401943">
        <ele>192.40</ele>
        <time>2017-07-30T11:45:23Z</time>
      </trkpt>
      <trkpt lat="43.3583357837" lon="1.7850053217">
        <ele>192.40</ele>
        <time>2017-07-30T11:45:24Z</time>
      </trkpt>
      <trkpt lat="43.3583163377" lon="1.7850715388">
        <ele>192.40</ele>
        <time>2017-07-30T11:45:25Z</time>
      </trkpt>
      <trkpt lat="43.3582932875" lon="1.7851383425">
        <ele>192.40</ele>
        <time>2017-07-30T11:45:26Z</time>
      </trkpt>
      <trkpt lat="43.3582720812" lon="1.7852090020">
        <ele>192.40</ele>
        <time>2017-07-30T11:45:27Z</time>
      </trkpt>
      <trkpt lat="43.3582522161" lon="1.7852815893">
        <ele>192.40</ele>
        <time>2017-07-30T11:45:28Z</time>
      </trkpt>
      <trkpt lat="43.3580612764" lon="1.7859652173">
        <ele>192.40</ele>
        <time>2017-07-30T11:45:38Z</time>
      </trkpt>
      <trkpt lat="43.3579145931" lon="1.7865752522">
        <ele>193.36</ele>
        <time>2017-07-30T11:45:48Z</time>
      </trkpt>
      <trkpt lat="43.3578952309" lon="1.7866387870">
        <ele>192.88</ele>
        <time>2017-07-30T11:45:49Z</time>
      </trkpt>
      <trkpt lat="43.3578575961" lon="1.7867670301">
        <ele>192.88</ele>
        <time>2017-07-30T11:45:51Z</time>
      </trkpt>
      <trkpt lat="43.3578403294" lon="1.7868334148">
        <ele>192.88</ele>
        <time>2017-07-30T11:45:52Z</time>
      </trkpt>
      <trkpt lat="43.3577352203" lon="1.7871595547">
        <ele>192.88</ele>
        <time>2017-07-30T11:45:57Z</time>
      </trkpt>
      <trkpt lat="43.3576904610" lon="1.7872777395">
        <ele>192.88</ele>
        <time>2017-07-30T11:45:59Z</time>
      </trkpt>
      <trkpt lat="43.3575808257" lon="1.7876864411">
        <ele>192.40</ele>
        <time>2017-07-30T11:46:05Z</time>
      </trkpt>
      <trkpt lat="43.3575679176" lon="1.7877516523">
        <ele>192.40</ele>
        <time>2017-07-30T11:46:06Z</time>
      </trkpt>
      <trkpt lat="43.3574432787" lon="1.7882083822">
        <ele>192.40</ele>
        <time>2017-07-30T11:46:13Z</time>
      </trkpt>
      <trkpt lat="43.3572480641" lon="1.7889737338">
        <ele>192.40</ele>
        <time>2017-07-30T11:46:24Z</time>
      </trkpt>
      <trkpt lat="43.3570562862" lon="1.7897576094">
        <ele>192.40</ele>
        <time>2017-07-30T11:46:35Z</time>
      </trkpt>
      <trkpt lat="43.3568152227" lon="1.7906213645">
        <ele>192.88</ele>
        <time>2017-07-30T11:46:48Z</time>
      </trkpt>
      <trkpt lat="43.3567341696" lon="1.7909414694">
        <ele>193.36</ele>
        <time>2017-07-30T11:46:53Z</time>
      </trkpt>
      <trkpt lat="43.3565281425" lon="1.7916993611">
        <ele>191.92</ele>
        <time>2017-07-30T11:47:03Z</time>
      </trkpt>
      <trkpt lat="43.3563783579" lon="1.7924201209">
        <ele>192.40</ele>
        <time>2017-07-30T11:47:12Z</time>
      </trkpt>
      <trkpt lat="43.3563642763" lon="1.7924938817">
        <ele>192.40</ele>
        <time>2017-07-30T11:47:13Z</time>
      </trkpt>
      <trkpt lat="43.3562372066" lon="1.7931717262">
        <ele>192.88</ele>
        <time>2017-07-30T11:47:23Z</time>
      </trkpt>
      <trkpt lat="43.3562100492" lon="1.7932933476">
        <ele>192.88</ele>
        <time>2017-07-30T11:47:25Z</time>
      </trkpt>
      <trkpt lat="43.3560699038" lon="1.7940612976">
        <ele>192.40</ele>
        <time>2017-07-30T11:47:36Z</time>
      </trkpt>
      <trkpt lat="43.3559438400" lon="1.7948614340">
        <ele>192.40</ele>
        <time>2017-07-30T11:47:47Z</time>
      </trkpt>
      <trkpt lat="43.3558104001" lon="1.7954516038">
        <ele>192.88</ele>
        <time>2017-07-30T11:47:57Z</time>
      </trkpt>
      <trkpt lat="43.3557332866" lon="1.7957005464">
        <ele>192.88</ele>
        <time>2017-07-30T11:48:03Z</time>
      </trkpt>
      <trkpt lat="43.3556630462" lon="1.7958979402">
        <ele>191.44</ele>
        <time>2017-07-30T11:48:06Z</time>
      </trkpt>
      <trkpt lat="43.3556293510" lon="1.7959691864">
        <ele>191.44</ele>
        <time>2017-07-30T11:48:07Z</time>
      </trkpt>
      <trkpt lat="43.3554825839" lon="1.7962480523">
        <ele>190.96</ele>
        <time>2017-07-30T11:48:11Z</time>
      </trkpt>
      <trkpt lat="43.3550785761" lon="1.7970542237">
        <ele>190.96</ele>
        <time>2017-07-30T11:48:23Z</time>
      </trkpt>
      <trkpt lat="43.3547309786" lon="1.7977369297">
        <ele>190.96</ele>
        <time>2017-07-30T11:48:34Z</time>
      </trkpt>
      <trkpt lat="43.3544184174" lon="1.7983909696">
        <ele>190.96</ele>
        <time>2017-07-30T11:48:45Z</time>
      </trkpt>
      <trkpt lat="43.3543644380" lon="1.7985104118">
        <ele>190.96</ele>
        <time>2017-07-30T11:48:47Z</time>
      </trkpt>
      <trkpt lat="43.3543423936" lon="1.7985725217">
        <ele>190.96</ele>
        <time>2017-07-30T11:48:48Z</time>
      </trkpt>
      <trkpt lat="43.3541118912" lon="1.7990843207">
        <ele>190.96</ele>
        <time>2017-07-30T11:48:57Z</time>
      </trkpt>
      <trkpt lat="43.3540688921" lon="1.7991963867">
        <ele>190.96</ele>
        <time>2017-07-30T11:48:59Z</time>
      </trkpt>
      <trkpt lat="43.3540472668" lon="1.7992481869">
        <ele>190.96</ele>
        <time>2017-07-30T11:49:00Z</time>
      </trkpt>
      <trkpt lat="43.3540284913" lon="1.7992962152">
        <ele>191.92</ele>
        <time>2017-07-30T11:49:01Z</time>
      </trkpt>
      <trkpt lat="43.3540124819" lon="1.7993473448">
        <ele>190.96</ele>
        <time>2017-07-30T11:49:02Z</time>
      </trkpt>
      <trkpt lat="43.3539953828" lon="1.7993995640">
        <ele>190.96</ele>
        <time>2017-07-30T11:49:03Z</time>
      </trkpt>
      <trkpt lat="43.3539807983" lon="1.7994989734">
        <ele>190.96</ele>
        <time>2017-07-30T11:49:05Z</time>
      </trkpt>
      <trkpt lat="43.3539932035" lon="1.7995961197">
        <ele>190.96</ele>
        <time>2017-07-30T11:49:07Z</time>
      </trkpt>
      <trkpt lat="43.3540055249" lon="1.7996343412">
        <ele>191.44</ele>
        <time>2017-07-30T11:49:08Z</time>
      </trkpt>
      <trkpt lat="43.3540176786" lon="1.7996732332">
        <ele>191.44</ele>
        <time>2017-07-30T11:49:09Z</time>
      </trkpt>
      <trkpt lat="43.3540290780" lon="1.7997078504">
        <ele>191.92</ele>
        <time>2017-07-30T11:49:10Z</time>
      </trkpt>
      <trkpt lat="43.3540418185" lon="1.7997479159">
        <ele>191.44</ele>
        <time>2017-07-30T11:49:11Z</time>
      </trkpt>
      <trkpt lat="43.3540489431" lon="1.7997967824">
        <ele>191.44</ele>
        <time>2017-07-30T11:49:12Z</time>
      </trkpt>
      <trkpt lat="43.3540526312" lon="1.7998448946">
        <ele>191.44</ele>
        <time>2017-07-30T11:49:13Z</time>
      </trkpt>
      <trkpt lat="43.3540537208" lon="1.8000194058">
        <ele>191.44</ele>
        <time>2017-07-30T11:49:16Z</time>
      </trkpt>
      <trkpt lat="43.3540548943" lon="1.8000801746">
        <ele>191.44</ele>
        <time>2017-07-30T11:49:17Z</time>
      </trkpt>
      <trkpt lat="43.3540507033" lon="1.8001380935">
        <ele>190.96</ele>
        <time>2017-07-30T11:49:18Z</time>
      </trkpt>
      <trkpt lat="43.3540440816" lon="1.8002597149">
        <ele>191.44</ele>
        <time>2017-07-30T11:49:20Z</time>
      </trkpt>
      <trkpt lat="43.3540419862" lon="1.8003934063">
        <ele>190.96</ele>
        <time>2017-07-30T11:49:22Z</time>
      </trkpt>
      <trkpt lat="43.3540660422" lon="1.8006616272">
        <ele>190.96</ele>
        <time>2017-07-30T11:49:26Z</time>
      </trkpt>
      <trkpt lat="43.3540757652" lon="1.8007266708">
        <ele>190.96</ele>
        <time>2017-07-30T11:49:27Z</time>
      </trkpt>
      <trkpt lat="43.3540859912" lon="1.8007893674">
        <ele>190.96</ele>
        <time>2017-07-30T11:49:28Z</time>
      </trkpt>
      <trkpt lat="43.3540973905" lon="1.8008507229">
        <ele>191.44</ele>
        <time>2017-07-30T11:49:29Z</time>
      </trkpt>
      <trkpt lat="43.3541097119" lon="1.8009091448">
        <ele>190.96</ele>
        <time>2017-07-30T11:49:30Z</time>
      </trkpt>
      <trkpt lat="43.3541237935" lon="1.8009629566">
        <ele>190.96</ele>
        <time>2017-07-30T11:49:31Z</time>
      </trkpt>
      <trkpt lat="43.3542804513" lon="1.8014957104">
        <ele>191.44</ele>
        <time>2017-07-30T11:49:41Z</time>
      </trkpt>
      <trkpt lat="43.3543225285" lon="1.8015962094">
        <ele>191.44</ele>
        <time>2017-07-30T11:49:43Z</time>
      </trkpt>
      <trkpt lat="43.3543461654" lon="1.8016465846">
        <ele>191.44</ele>
        <time>2017-07-30T11:49:44Z</time>
      </trkpt>
      <trkpt lat="43.3544570580" lon="1.8019121233">
        <ele>191.44</ele>
        <time>2017-07-30T11:49:49Z</time>
      </trkpt>
      <trkpt lat="43.3544837125" lon="1.8019658513">
        <ele>191.44</ele>
        <time>2017-07-30T11:49:50Z</time>
      </trkpt>
      <trkpt lat="43.3545164857" lon="1.8020169809">
        <ele>190.96</ele>
        <time>2017-07-30T11:49:51Z</time>
      </trkpt>
      <trkpt lat="43.3548356686" lon="1.8024856132">
        <ele>191.44</ele>
        <time>2017-07-30T11:50:00Z</time>
      </trkpt>
      <trkpt lat="43.3548643347" lon="1.8025493994">
        <ele>191.44</ele>
        <time>2017-07-30T11:50:01Z</time>
      </trkpt>
      <trkpt lat="43.3548790868" lon="1.8026167899">
        <ele>191.44</ele>
        <time>2017-07-30T11:50:02Z</time>
      </trkpt>
      <trkpt lat="43.3548972756" lon="1.8026799895">
        <ele>191.44</ele>
        <time>2017-07-30T11:50:03Z</time>
      </trkpt>
      <trkpt lat="43.3549240138" lon="1.8027363159">
        <ele>191.44</ele>
        <time>2017-07-30T11:50:04Z</time>
      </trkpt>
      <trkpt lat="43.3549554460" lon="1.8027854338">
        <ele>191.44</ele>
        <time>2017-07-30T11:50:05Z</time>
      </trkpt>
      <trkpt lat="43.3549894765" lon="1.8028313667">
        <ele>191.44</ele>
        <time>2017-07-30T11:50:06Z</time>
      </trkpt>
      <trkpt lat="43.3552532550" lon="1.8031047843">
        <ele>191.44</ele>
        <time>2017-07-30T11:50:14Z</time>
      </trkpt>
      <trkpt lat="43.3552882914" lon="1.8031560816">
        <ele>191.44</ele>
        <time>2017-07-30T11:50:15Z</time>
      </trkpt>
      <trkpt lat="43.3554378245" lon="1.8033411540">
        <ele>191.92</ele>
        <time>2017-07-30T11:50:19Z</time>
      </trkpt>
      <trkpt lat="43.3554828353" lon="1.8033712450">
        <ele>191.44</ele>
        <time>2017-07-30T11:50:20Z</time>
      </trkpt>
      <trkpt lat="43.3555300254" lon="1.8033878412">
        <ele>191.44</ele>
        <time>2017-07-30T11:50:21Z</time>
      </trkpt>
      <trkpt lat="43.3555760421" lon="1.8033998273">
        <ele>191.44</ele>
        <time>2017-07-30T11:50:22Z</time>
      </trkpt>
      <trkpt lat="43.3556249924" lon="1.8034284934">
        <ele>190.96</ele>
        <time>2017-07-30T11:50:23Z</time>
      </trkpt>
      <trkpt lat="43.3556758706" lon="1.8034809642">
        <ele>190.48</ele>
        <time>2017-07-30T11:50:24Z</time>
      </trkpt>
      <trkpt lat="43.3557271678" lon="1.8035456724">
        <ele>190.00</ele>
        <time>2017-07-30T11:50:25Z</time>
      </trkpt>
      <trkpt lat="43.3557764534" lon="1.8036170024">
        <ele>189.52</ele>
        <time>2017-07-30T11:50:26Z</time>
      </trkpt>
      <trkpt lat="43.3558259066" lon="1.8036924396">
        <ele>189.52</ele>
        <time>2017-07-30T11:50:27Z</time>
      </trkpt>
      <trkpt lat="43.3559177723" lon="1.8038330041">
        <ele>189.52</ele>
        <time>2017-07-30T11:50:29Z</time>
      </trkpt>
      <trkpt lat="43.3559994958" lon="1.8039732333">
        <ele>189.52</ele>
        <time>2017-07-30T11:50:31Z</time>
      </trkpt>
      <trkpt lat="43.3560407348" lon="1.8040372711">
        <ele>189.52</ele>
        <time>2017-07-30T11:50:32Z</time>
      </trkpt>
      <trkpt lat="43.3561512921" lon="1.8042241037">
        <ele>189.04</ele>
        <time>2017-07-30T11:50:35Z</time>
      </trkpt>
      <trkpt lat="43.3561848197" lon="1.8042814359">
        <ele>189.52</ele>
        <time>2017-07-30T11:50:36Z</time>
      </trkpt>
      <trkpt lat="43.3562238794" lon="1.8043389358">
        <ele>189.52</ele>
        <time>2017-07-30T11:50:37Z</time>
      </trkpt>
      <trkpt lat="43.3562595863" lon="1.8043958489">
        <ele>189.52</ele>
        <time>2017-07-30T11:50:38Z</time>
      </trkpt>
      <trkpt lat="43.3562948741" lon="1.8044587970">
        <ele>189.52</ele>
        <time>2017-07-30T11:50:39Z</time>
      </trkpt>
      <trkpt lat="43.3565801103" lon="1.8049753737">
        <ele>189.52</ele>
        <time>2017-07-30T11:50:47Z</time>
      </trkpt>
      <trkpt lat="43.3566144761" lon="1.8050391600">
        <ele>189.52</ele>
        <time>2017-07-30T11:50:48Z</time>
      </trkpt>
      <trkpt lat="43.3568730578" lon="1.8054216262">
        <ele>189.52</ele>
        <time>2017-07-30T11:50:56Z</time>
      </trkpt>
      <trkpt lat="43.3569832798" lon="1.8057635240">
        <ele>190.48</ele>
        <time>2017-07-30T11:51:03Z</time>
      </trkpt>
      <trkpt lat="43.3570347447" lon="1.8061283045">
        <ele>190.96</ele>
        <time>2017-07-30T11:51:12Z</time>
      </trkpt>
      <trkpt lat="43.3570497483" lon="1.8061552942">
        <ele>190.96</ele>
        <time>2017-07-30T11:51:13Z</time>
      </trkpt>
      <trkpt lat="43.3570631593" lon="1.8061827030">
        <ele>190.96</ele>
        <time>2017-07-30T11:51:14Z</time>
      </trkpt>
      <trkpt lat="43.3570785820" lon="1.8062182423">
        <ele>190.96</ele>
        <time>2017-07-30T11:51:15Z</time>
      </trkpt>
      <trkpt lat="43.3570929989" lon="1.8062573019">
        <ele>191.44</ele>
        <time>2017-07-30T11:51:16Z</time>
      </trkpt>
      <trkpt lat="43.3570990339" lon="1.8062984571">
        <ele>191.44</ele>
        <time>2017-07-30T11:51:17Z</time>
      </trkpt>
      <trkpt lat="43.3572376706" lon="1.8066670932">
        <ele>191.44</ele>
        <time>2017-07-30T11:51:28Z</time>
      </trkpt>
      <trkpt lat="43.3572707791" lon="1.8067290355">
        <ele>191.92</ele>
        <time>2017-07-30T11:51:31Z</time>
      </trkpt>
      <trkpt lat="43.3572754730" lon="1.8067499902">
        <ele>191.92</ele>
        <time>2017-07-30T11:51:32Z</time>
      </trkpt>
      <trkpt lat="43.3572843578" lon="1.8067754712">
        <ele>192.40</ele>
        <time>2017-07-30T11:51:33Z</time>
      </trkpt>
      <trkpt lat="43.3572984394" lon="1.8068030477">
        <ele>192.40</ele>
        <time>2017-07-30T11:51:34Z</time>
      </trkpt>
      <trkpt lat="43.3573127724" lon="1.8068303727">
        <ele>192.40</ele>
        <time>2017-07-30T11:51:35Z</time>
      </trkpt>
      <trkpt lat="43.3573217411" lon="1.8068595417">
        <ele>192.40</ele>
        <time>2017-07-30T11:51:36Z</time>
      </trkpt>
      <trkpt lat="43.3573296200" lon="1.8068902194">
        <ele>192.40</ele>
        <time>2017-07-30T11:51:37Z</time>
      </trkpt>
      <trkpt lat="43.3573921490" lon="1.8071685825">
        <ele>192.40</ele>
        <time>2017-07-30T11:51:45Z</time>
      </trkpt>
      <trkpt lat="43.3574736211" lon="1.8074939679">
        <ele>192.40</ele>
        <time>2017-07-30T11:51:53Z</time>
      </trkpt>
      <trkpt lat="43.3575273491" lon="1.8078204431">
        <ele>192.40</ele>
        <time>2017-07-30T11:52:01Z</time>
      </trkpt>
      <trkpt lat="43.3576034568" lon="1.8083454855">
        <ele>191.92</ele>
        <time>2017-07-30T11:52:12Z</time>
      </trkpt>
      <trkpt lat="43.3576610405" lon="1.8087429553">
        <ele>191.92</ele>
        <time>2017-07-30T11:52:20Z</time>
      </trkpt>
      <trkpt lat="43.3577161934" lon="1.8092129286">
        <ele>192.40</ele>
        <time>2017-07-30T11:52:29Z</time>
      </trkpt>
      <trkpt lat="43.3577448595" lon="1.8095797207">
        <ele>189.04</ele>
        <time>2017-07-30T11:52:36Z</time>
      </trkpt>
      <trkpt lat="43.3577499725" lon="1.8096379749">
        <ele>194.32</ele>
        <time>2017-07-30T11:52:37Z</time>
      </trkpt>
      <trkpt lat="43.3577959891" lon="1.8101178389">
        <ele>192.88</ele>
        <time>2017-07-30T11:52:45Z</time>
      </trkpt>
      <trkpt lat="43.3578404970" lon="1.8108209129">
        <ele>193.36</ele>
        <time>2017-07-30T11:52:56Z</time>
      </trkpt>
      <trkpt lat="43.3578476217" lon="1.8110146187">
        <ele>192.88</ele>
        <time>2017-07-30T11:52:59Z</time>
      </trkpt>
      <trkpt lat="43.3578451071" lon="1.8110805005">
        <ele>192.88</ele>
        <time>2017-07-30T11:53:00Z</time>
      </trkpt>
      <trkpt lat="43.3578315284" lon="1.8111443706">
        <ele>192.88</ele>
        <time>2017-07-30T11:53:01Z</time>
      </trkpt>
      <trkpt lat="43.3578142617" lon="1.8112158682">
        <ele>192.40</ele>
        <time>2017-07-30T11:53:02Z</time>
      </trkpt>
      <trkpt lat="43.3578071371" lon="1.8112892099">
        <ele>192.40</ele>
        <time>2017-07-30T11:53:03Z</time>
      </trkpt>
      <trkpt lat="43.3578047901" lon="1.8113659043">
        <ele>192.40</ele>
        <time>2017-07-30T11:53:04Z</time>
      </trkpt>
      <trkpt lat="43.3577777166" lon="1.8119481113">
        <ele>192.40</ele>
        <time>2017-07-30T11:53:12Z</time>
      </trkpt>
      <trkpt lat="43.3577560075" lon="1.8122318387">
        <ele>192.88</ele>
        <time>2017-07-30T11:53:16Z</time>
      </trkpt>
      <trkpt lat="43.3577529900" lon="1.8124422245">
        <ele>192.40</ele>
        <time>2017-07-30T11:53:19Z</time>
      </trkpt>
      <trkpt lat="43.3576386608" lon="1.8130981084">
        <ele>192.40</ele>
        <time>2017-07-30T11:53:28Z</time>
      </trkpt>
      <trkpt lat="43.3575678337" lon="1.8134379946">
        <ele>192.40</ele>
        <time>2017-07-30T11:53:33Z</time>
      </trkpt>
      <trkpt lat="43.3575318754" lon="1.8135664053">
        <ele>192.40</ele>
        <time>2017-07-30T11:53:35Z</time>
      </trkpt>
      <trkpt lat="43.3575032931" lon="1.8136993423">
        <ele>192.40</ele>
        <time>2017-07-30T11:53:37Z</time>
      </trkpt>
      <trkpt lat="43.3574895468" lon="1.8137664814">
        <ele>192.40</ele>
        <time>2017-07-30T11:53:38Z</time>
      </trkpt>
      <trkpt lat="43.3574473020" lon="1.8139611091">
        <ele>192.40</ele>
        <time>2017-07-30T11:53:41Z</time>
      </trkpt>
      <trkpt lat="43.3574359026" lon="1.8140267394">
        <ele>192.40</ele>
        <time>2017-07-30T11:53:42Z</time>
      </trkpt>
      <trkpt lat="43.3573169634" lon="1.8145419750">
        <ele>192.40</ele>
        <time>2017-07-30T11:53:52Z</time>
      </trkpt>
      <trkpt lat="43.3571942523" lon="1.8149782531">
        <ele>192.40</ele>
        <time>2017-07-30T11:54:00Z</time>
      </trkpt>
      <trkpt lat="43.3571814280" lon="1.8150348309">
        <ele>192.40</ele>
        <time>2017-07-30T11:54:01Z</time>
      </trkpt>
      <trkpt lat="43.3571663406" lon="1.8150950968">
        <ele>192.40</ele>
        <time>2017-07-30T11:54:02Z</time>
      </trkpt>
      <trkpt lat="43.3570957649" lon="1.8153409380">
        <ele>192.88</ele>
        <time>2017-07-30T11:54:06Z</time>
      </trkpt>
      <trkpt lat="43.3570181485" lon="1.8155538384">
        <ele>192.40</ele>
        <time>2017-07-30T11:54:10Z</time>
      </trkpt>
      <trkpt lat="43.3568223473" lon="1.8160965666">
        <ele>192.40</ele>
        <time>2017-07-30T11:54:20Z</time>
      </trkpt>
      <trkpt lat="43.3567821980" lon="1.8164343573">
        <ele>193.84</ele>
        <time>2017-07-30T11:54:26Z</time>
      </trkpt>
      <trkpt lat="43.3566707186" lon="1.8167314958">
        <ele>194.32</ele>
        <time>2017-07-30T11:54:36Z</time>
      </trkpt>
      <trkpt lat="43.3565148152" lon="1.8170225155">
        <ele>194.32</ele>
        <time>2017-07-30T11:54:45Z</time>
      </trkpt>
      <trkpt lat="43.3563415613" lon="1.8172894791">
        <ele>194.32</ele>
        <time>2017-07-30T11:54:52Z</time>
      </trkpt>
      <trkpt lat="43.3561645355" lon="1.8175618071">
        <ele>194.32</ele>
        <time>2017-07-30T11:55:01Z</time>
      </trkpt>
      <trkpt lat="43.3560049441" lon="1.8177631404">
        <ele>194.80</ele>
        <time>2017-07-30T11:55:10Z</time>
      </trkpt>
      <trkpt lat="43.3559434209" lon="1.8178304471">
        <ele>194.80</ele>
        <time>2017-07-30T11:55:16Z</time>
      </trkpt>
      <trkpt lat="43.3559248969" lon="1.8178579397">
        <ele>194.80</ele>
        <time>2017-07-30T11:55:17Z</time>
      </trkpt>
      <trkpt lat="43.3559053671" lon="1.8178939819">
        <ele>194.80</ele>
        <time>2017-07-30T11:55:18Z</time>
      </trkpt>
      <trkpt lat="43.3558779582" lon="1.8179273419">
        <ele>194.80</ele>
        <time>2017-07-30T11:55:19Z</time>
      </trkpt>
      <trkpt lat="43.3558502980" lon="1.8179575168">
        <ele>194.80</ele>
        <time>2017-07-30T11:55:20Z</time>
      </trkpt>
      <trkpt lat="43.3557697479" lon="1.8180384021">
        <ele>195.28</ele>
        <time>2017-07-30T11:55:23Z</time>
      </trkpt>
      <trkpt lat="43.3557359688" lon="1.8180482090">
        <ele>195.28</ele>
        <time>2017-07-30T11:55:24Z</time>
      </trkpt>
      <trkpt lat="43.3554816619" lon="1.8182422500">
        <ele>195.77</ele>
        <time>2017-07-30T11:55:32Z</time>
      </trkpt>
      <trkpt lat="43.3554010279" lon="1.8183305115">
        <ele>195.77</ele>
        <time>2017-07-30T11:55:35Z</time>
      </trkpt>
      <trkpt lat="43.3553814981" lon="1.8183352053">
        <ele>195.77</ele>
        <time>2017-07-30T11:55:36Z</time>
      </trkpt>
      <trkpt lat="43.3553505689" lon="1.8183497898">
        <ele>195.77</ele>
        <time>2017-07-30T11:55:38Z</time>
      </trkpt>
      <trkpt lat="43.3553373255" lon="1.8183659669">
        <ele>195.77</ele>
        <time>2017-07-30T11:55:39Z</time>
      </trkpt>
      <trkpt lat="43.3552981820" lon="1.8184123188">
        <ele>195.77</ele>
        <time>2017-07-30T11:55:42Z</time>
      </trkpt>
      <trkpt lat="43.3552809153" lon="1.8184220418">
        <ele>195.77</ele>
        <time>2017-07-30T11:55:43Z</time>
      </trkpt>
      <trkpt lat="43.3552675880" lon="1.8184346985">
        <ele>195.77</ele>
        <time>2017-07-30T11:55:44Z</time>
      </trkpt>
      <trkpt lat="43.3552665822" lon="1.8184533902">
        <ele>195.77</ele>
        <time>2017-07-30T11:55:47Z</time>
      </trkpt>
      <trkpt lat="43.3552770596" lon="1.8184371293">
        <ele>195.77</ele>
        <time>2017-07-30T11:55:48Z</time>
      </trkpt>
      <trkpt lat="43.3552867826" lon="1.8184103910">
        <ele>195.77</ele>
        <time>2017-07-30T11:55:49Z</time>
      </trkpt>
      <trkpt lat="43.3553074859" lon="1.8183813896">
        <ele>195.77</ele>
        <time>2017-07-30T11:55:50Z</time>
      </trkpt>
      <trkpt lat="43.3553274348" lon="1.8183502089">
        <ele>195.77</ele>
        <time>2017-07-30T11:55:51Z</time>
      </trkpt>
      <trkpt lat="43.3553410135" lon="1.8183169328">
        <ele>195.77</ele>
        <time>2017-07-30T11:55:52Z</time>
      </trkpt>
      <trkpt lat="43.3553370740" lon="1.8182785437">
        <ele>195.77</ele>
        <time>2017-07-30T11:55:53Z</time>
      </trkpt>
      <trkpt lat="43.3553193882" lon="1.8182430044">
        <ele>196.25</ele>
        <time>2017-07-30T11:55:54Z</time>
      </trkpt>
      <trkpt lat="43.3552940749" lon="1.8182081357">
        <ele>196.25</ele>
        <time>2017-07-30T11:55:55Z</time>
      </trkpt>
      <trkpt lat="43.3552732877" lon="1.8181700818">
        <ele>196.25</ele>
        <time>2017-07-30T11:55:56Z</time>
      </trkpt>
      <trkpt lat="43.3552187216" lon="1.8181195389">
        <ele>196.73</ele>
        <time>2017-07-30T11:55:58Z</time>
      </trkpt>
      <trkpt lat="43.3551831823" lon="1.8181271665">
        <ele>196.25</ele>
        <time>2017-07-30T11:55:59Z</time>
      </trkpt>
      <trkpt lat="43.3551534265" lon="1.8181528989">
        <ele>196.25</ele>
        <time>2017-07-30T11:56:00Z</time>
      </trkpt>
      <trkpt lat="43.3551263530" lon="1.8181863427">
        <ele>196.25</ele>
        <time>2017-07-30T11:56:01Z</time>
      </trkpt>
      <trkpt lat="43.3550999500" lon="1.8182287551">
        <ele>195.77</ele>
        <time>2017-07-30T11:56:02Z</time>
      </trkpt>
      <trkpt lat="43.3550676797" lon="1.8182672281">
        <ele>195.77</ele>
        <time>2017-07-30T11:56:03Z</time>
      </trkpt>
      <trkpt lat="43.3550337330" lon="1.8183008395">
        <ele>195.28</ele>
        <time>2017-07-30T11:56:04Z</time>
      </trkpt>
      <trkpt lat="43.3549675997" lon="1.8183582556">
        <ele>195.28</ele>
        <time>2017-07-30T11:56:06Z</time>
      </trkpt>
      <trkpt lat="43.3549333178" lon="1.8183714990">
        <ele>195.28</ele>
        <time>2017-07-30T11:56:07Z</time>
      </trkpt>
      <trkpt lat="43.3549012151" lon="1.8183942139">
        <ele>195.28</ele>
        <time>2017-07-30T11:56:08Z</time>
      </trkpt>
      <trkpt lat="43.3548710402" lon="1.8184270710">
        <ele>195.28</ele>
        <time>2017-07-30T11:56:09Z</time>
      </trkpt>
      <trkpt lat="43.3548375126" lon="1.8184615206">
        <ele>195.28</ele>
        <time>2017-07-30T11:56:10Z</time>
      </trkpt>
      <trkpt lat="43.3548008837" lon="1.8184946291">
        <ele>195.28</ele>
        <time>2017-07-30T11:56:11Z</time>
      </trkpt>
      <trkpt lat="43.3547664341" lon="1.8185331859">
        <ele>195.28</ele>
        <time>2017-07-30T11:56:12Z</time>
      </trkpt>
      <trkpt lat="43.3547374327" lon="1.8185723294">
        <ele>195.28</ele>
        <time>2017-07-30T11:56:13Z</time>
      </trkpt>
      <trkpt lat="43.3544950280" lon="1.8188201822">
        <ele>195.28</ele>
        <time>2017-07-30T11:56:22Z</time>
      </trkpt>
      <trkpt lat="43.3544874843" lon="1.8188355211">
        <ele>195.28</ele>
        <time>2017-07-30T11:56:35Z</time>
      </trkpt>
      <trkpt lat="43.3544735704" lon="1.8188369460">
        <ele>195.28</ele>
        <time>2017-07-30T11:56:54Z</time>
      </trkpt>
      <trkpt lat="43.3544663619" lon="1.8188566435">
        <ele>195.28</ele>
        <time>2017-07-30T11:57:15Z</time>
      </trkpt>
      <trkpt lat="43.3544642664" lon="1.8188727368">
        <ele>195.28</ele>
        <time>2017-07-30T11:57:32Z</time>
      </trkpt>
      <trkpt lat="43.3544558007" lon="1.8188792747">
        <ele>195.28</ele>
        <time>2017-07-30T11:57:52Z</time>
      </trkpt>
      <trkpt lat="43.3544552978" lon="1.8188706413">
        <ele>195.28</ele>
        <time>2017-07-30T11:58:07Z</time>
      </trkpt>
      <trkpt lat="43.3544568066" lon="1.8188711442">
        <ele>194.80</ele>
        <time>2017-07-30T11:58:23Z</time>
      </trkpt>
      <trkpt lat="43.3544502687" lon="1.8188923504">
        <ele>194.80</ele>
        <time>2017-07-30T11:58:44Z</time>
      </trkpt>
      <trkpt lat="43.3544026595" lon="1.8189443182">
        <ele>194.80</ele>
        <time>2017-07-30T11:58:55Z</time>
      </trkpt>
      <trkpt lat="43.3543502726" lon="1.8189882394">
        <ele>194.80</ele>
        <time>2017-07-30T11:58:59Z</time>
      </trkpt>
      <trkpt lat="43.3543357719" lon="1.8189927656">
        <ele>194.32</ele>
        <time>2017-07-30T11:59:00Z</time>
      </trkpt>
      <trkpt lat="43.3543206844" lon="1.8189993873">
        <ele>194.32</ele>
        <time>2017-07-30T11:59:01Z</time>
      </trkpt>
      <trkpt lat="43.3541444130" lon="1.8190101162">
        <ele>194.80</ele>
        <time>2017-07-30T11:59:11Z</time>
      </trkpt>
      <trkpt lat="43.3541261405" lon="1.8190032430">
        <ele>194.80</ele>
        <time>2017-07-30T11:59:12Z</time>
      </trkpt>
      <trkpt lat="43.3541030064" lon="1.8190005608">
        <ele>194.80</ele>
        <time>2017-07-30T11:59:13Z</time>
      </trkpt>
      <trkpt lat="43.3540781960" lon="1.8189951964">
        <ele>194.80</ele>
        <time>2017-07-30T11:59:14Z</time>
      </trkpt>
      <trkpt lat="43.3540508710" lon="1.8189931847">
        <ele>194.80</ele>
        <time>2017-07-30T11:59:15Z</time>
      </trkpt>
      <trkpt lat="43.3537453506" lon="1.8189155683">
        <ele>194.80</ele>
        <time>2017-07-30T11:59:25Z</time>
      </trkpt>
      <trkpt lat="43.3534097392" lon="1.8188644387">
        <ele>194.80</ele>
        <time>2017-07-30T11:59:34Z</time>
      </trkpt>
      <trkpt lat="43.3530499879" lon="1.8187939469">
        <ele>194.80</ele>
        <time>2017-07-30T11:59:43Z</time>
      </trkpt>
      <trkpt lat="43.3529644087" lon="1.8187925220">
        <ele>194.80</ele>
        <time>2017-07-30T11:59:45Z</time>
      </trkpt>
      <trkpt lat="43.3526577987" lon="1.8187661190">
        <ele>194.80</ele>
        <time>2017-07-30T11:59:53Z</time>
      </trkpt>
      <trkpt lat="43.3523218520" lon="1.8187052663">
        <ele>194.80</ele>
        <time>2017-07-30T12:00:02Z</time>
      </trkpt>
      <trkpt lat="43.3522754163" lon="1.8186879158">
        <ele>194.80</ele>
        <time>2017-07-30T12:00:03Z</time>
      </trkpt>
      <trkpt lat="43.3520056866" lon="1.8186365347">
        <ele>194.80</ele>
        <time>2017-07-30T12:00:10Z</time>
      </trkpt>
      <trkpt lat="43.3516640402" lon="1.8185839802">
        <ele>194.80</ele>
        <time>2017-07-30T12:00:19Z</time>
      </trkpt>
      <trkpt lat="43.3512441069" lon="1.8185303360">
        <ele>194.80</ele>
        <time>2017-07-30T12:00:31Z</time>
      </trkpt>
      <trkpt lat="43.3509694319" lon="1.8184540607">
        <ele>194.80</ele>
        <time>2017-07-30T12:00:39Z</time>
      </trkpt>
      <trkpt lat="43.3505365904" lon="1.8183917832">
        <ele>194.80</ele>
        <time>2017-07-30T12:00:49Z</time>
      </trkpt>
      <trkpt lat="43.3503383584" lon="1.8183624465">
        <ele>194.80</ele>
        <time>2017-07-30T12:00:53Z</time>
      </trkpt>
      <trkpt lat="43.3497944567" lon="1.8183745164">
        <ele>194.80</ele>
        <time>2017-07-30T12:01:05Z</time>
      </trkpt>
      <trkpt lat="43.3495007548" lon="1.8185776938">
        <ele>194.80</ele>
        <time>2017-07-30T12:01:14Z</time>
      </trkpt>
      <trkpt lat="43.3491445240" lon="1.8189239502">
        <ele>194.80</ele>
        <time>2017-07-30T12:01:25Z</time>
      </trkpt>
      <trkpt lat="43.3489200566" lon="1.8191889860">
        <ele>194.80</ele>
        <time>2017-07-30T12:01:34Z</time>
      </trkpt>
      <trkpt lat="43.3486152906" lon="1.8195386790">
        <ele>194.80</ele>
        <time>2017-07-30T12:01:45Z</time>
      </trkpt>
      <trkpt lat="43.3483842853" lon="1.8198764697">
        <ele>194.80</ele>
        <time>2017-07-30T12:01:54Z</time>
      </trkpt>
      <trkpt lat="43.3481804375" lon="1.8202127516">
        <ele>194.80</ele>
        <time>2017-07-30T12:02:02Z</time>
      </trkpt>
      <trkpt lat="43.3480779268" lon="1.8203806411">
        <ele>194.80</ele>
        <time>2017-07-30T12:02:06Z</time>
      </trkpt>
      <trkpt lat="43.3480547089" lon="1.8204283342">
        <ele>194.80</ele>
        <time>2017-07-30T12:02:07Z</time>
      </trkpt>
      <trkpt lat="43.3480329160" lon="1.8204744346">
        <ele>194.80</ele>
        <time>2017-07-30T12:02:08Z</time>
      </trkpt>
      <trkpt lat="43.3480080217" lon="1.8205191102">
        <ele>194.80</ele>
        <time>2017-07-30T12:02:09Z</time>
      </trkpt>
      <trkpt lat="43.3479837142" lon="1.8205613550">
        <ele>194.80</ele>
        <time>2017-07-30T12:02:10Z</time>
      </trkpt>
      <trkpt lat="43.3479605801" lon="1.8206010014">
        <ele>194.80</ele>
        <time>2017-07-30T12:02:11Z</time>
      </trkpt>
      <trkpt lat="43.3479372784" lon="1.8206368759">
        <ele>194.32</ele>
        <time>2017-07-30T12:02:12Z</time>
      </trkpt>
      <trkpt lat="43.3479148149" lon="1.8206775282">
        <ele>194.80</ele>
        <time>2017-07-30T12:02:13Z</time>
      </trkpt>
      <trkpt lat="43.3478915133" lon="1.8207220361">
        <ele>194.80</ele>
        <time>2017-07-30T12:02:14Z</time>
      </trkpt>
      <trkpt lat="43.3478666190" lon="1.8207677174">
        <ele>194.80</ele>
        <time>2017-07-30T12:02:15Z</time>
      </trkpt>
      <trkpt lat="43.3478430659" lon="1.8208131474">
        <ele>194.80</ele>
        <time>2017-07-30T12:02:16Z</time>
      </trkpt>
      <trkpt lat="43.3475624397" lon="1.8213370163">
        <ele>194.80</ele>
        <time>2017-07-30T12:02:28Z</time>
      </trkpt>
      <trkpt lat="43.3473866712" lon="1.8216767348">
        <ele>194.80</ele>
        <time>2017-07-30T12:02:36Z</time>
      </trkpt>
      <trkpt lat="43.3471084759" lon="1.8221537489">
        <ele>194.32</ele>
        <time>2017-07-30T12:02:46Z</time>
      </trkpt>
      <trkpt lat="43.3468925580" lon="1.8225323595">
        <ele>194.32</ele>
        <time>2017-07-30T12:02:55Z</time>
      </trkpt>
      <trkpt lat="43.3466856088" lon="1.8228944577">
        <ele>194.80</ele>
        <time>2017-07-30T12:03:04Z</time>
      </trkpt>
      <trkpt lat="43.3464635722" lon="1.8233038299">
        <ele>194.80</ele>
        <time>2017-07-30T12:03:13Z</time>
      </trkpt>
      <trkpt lat="43.3462406136" lon="1.8236906547">
        <ele>194.80</ele>
        <time>2017-07-30T12:03:22Z</time>
      </trkpt>
      <trkpt lat="43.3459566347" lon="1.8241390865">
        <ele>194.80</ele>
        <time>2017-07-30T12:03:32Z</time>
      </trkpt>
      <trkpt lat="43.3457189240" lon="1.8245219719">
        <ele>194.80</ele>
        <time>2017-07-30T12:03:41Z</time>
      </trkpt>
      <trkpt lat="43.3455437422" lon="1.8248054478">
        <ele>194.80</ele>
        <time>2017-07-30T12:03:48Z</time>
      </trkpt>
      <trkpt lat="43.3454512060" lon="1.8249383848">
        <ele>194.80</ele>
        <time>2017-07-30T12:03:51Z</time>
      </trkpt>
      <trkpt lat="43.3452734258" lon="1.8251749221">
        <ele>194.80</ele>
        <time>2017-07-30T12:03:56Z</time>
      </trkpt>
      <trkpt lat="43.3452341985" lon="1.8252191786">
        <ele>194.80</ele>
        <time>2017-07-30T12:03:57Z</time>
      </trkpt>
      <trkpt lat="43.3452001680" lon="1.8252574839">
        <ele>194.80</ele>
        <time>2017-07-30T12:03:58Z</time>
      </trkpt>
      <trkpt lat="43.3451753575" lon="1.8252964597">
        <ele>194.80</ele>
        <time>2017-07-30T12:03:59Z</time>
      </trkpt>
      <trkpt lat="43.3451508824" lon="1.8253371958">
        <ele>194.80</ele>
        <time>2017-07-30T12:04:00Z</time>
      </trkpt>
      <trkpt lat="43.3451253176" lon="1.8253775965">
        <ele>194.32</ele>
        <time>2017-07-30T12:04:01Z</time>
      </trkpt>
      <trkpt lat="43.3448314480" lon="1.8258184846">
        <ele>194.80</ele>
        <time>2017-07-30T12:04:11Z</time>
      </trkpt>
      <trkpt lat="43.3445305377" lon="1.8262000289">
        <ele>194.80</ele>
        <time>2017-07-30T12:04:20Z</time>
      </trkpt>
      <trkpt lat="43.3443837706" lon="1.8264196347">
        <ele>195.28</ele>
        <time>2017-07-30T12:04:25Z</time>
      </trkpt>
      <trkpt lat="43.3443561941" lon="1.8264691718">
        <ele>194.80</ele>
        <time>2017-07-30T12:04:26Z</time>
      </trkpt>
      <trkpt lat="43.3443253487" lon="1.8265158590">
        <ele>194.80</ele>
        <time>2017-07-30T12:04:27Z</time>
      </trkpt>
      <trkpt lat="43.3442982752" lon="1.8265584391">
        <ele>194.80</ele>
        <time>2017-07-30T12:04:28Z</time>
      </trkpt>
      <trkpt lat="43.3442726266" lon="1.8266009353">
        <ele>194.80</ele>
        <time>2017-07-30T12:04:29Z</time>
      </trkpt>
      <trkpt lat="43.3442458883" lon="1.8266427610">
        <ele>194.80</ele>
        <time>2017-07-30T12:04:30Z</time>
      </trkpt>
      <trkpt lat="43.3442215808" lon="1.8266853411">
        <ele>194.80</ele>
        <time>2017-07-30T12:04:31Z</time>
      </trkpt>
      <trkpt lat="43.3442000393" lon="1.8267288432">
        <ele>194.80</ele>
        <time>2017-07-30T12:04:32Z</time>
      </trkpt>
      <trkpt lat="43.3441751450" lon="1.8267720100">
        <ele>194.80</ele>
        <time>2017-07-30T12:04:33Z</time>
      </trkpt>
      <trkpt lat="43.3441496640" lon="1.8268047832">
        <ele>195.28</ele>
        <time>2017-07-30T12:04:34Z</time>
      </trkpt>
      <trkpt lat="43.3439959399" lon="1.8271185178">
        <ele>195.28</ele>
        <time>2017-07-30T12:04:42Z</time>
      </trkpt>
      <trkpt lat="43.3437968697" lon="1.8276747409">
        <ele>195.28</ele>
        <time>2017-07-30T12:04:52Z</time>
      </trkpt>
      <trkpt lat="43.3436474204" lon="1.8281216640">
        <ele>194.80</ele>
        <time>2017-07-30T12:05:00Z</time>
      </trkpt>
      <trkpt lat="43.3434828836" lon="1.8284903001">
        <ele>195.28</ele>
        <time>2017-07-30T12:05:08Z</time>
      </trkpt>
      <trkpt lat="43.3433051035" lon="1.8289823178">
        <ele>195.28</ele>
        <time>2017-07-30T12:05:17Z</time>
      </trkpt>
      <trkpt lat="43.3432310075" lon="1.8291551527">
        <ele>195.28</ele>
        <time>2017-07-30T12:05:20Z</time>
      </trkpt>
      <trkpt lat="43.3432015032" lon="1.8292276561">
        <ele>195.28</ele>
        <time>2017-07-30T12:05:21Z</time>
      </trkpt>
      <trkpt lat="43.3430287521" lon="1.8297029100">
        <ele>194.80</ele>
        <time>2017-07-30T12:05:30Z</time>
      </trkpt>
      <trkpt lat="43.3428727649" lon="1.8301594723">
        <ele>194.80</ele>
        <time>2017-07-30T12:05:39Z</time>
      </trkpt>
      <trkpt lat="43.3426646423" lon="1.8307503127">
        <ele>194.80</ele>
        <time>2017-07-30T12:05:49Z</time>
      </trkpt>
      <trkpt lat="43.3424322121" lon="1.8314206973">
        <ele>195.28</ele>
        <time>2017-07-30T12:06:02Z</time>
      </trkpt>
      <trkpt lat="43.3423934877" lon="1.8315124791">
        <ele>195.28</ele>
        <time>2017-07-30T12:06:04Z</time>
      </trkpt>
      <trkpt lat="43.3421712834" lon="1.8320724741">
        <ele>195.28</ele>
        <time>2017-07-30T12:06:15Z</time>
      </trkpt>
      <trkpt lat="43.3420986123" lon="1.8322693650">
        <ele>195.28</ele>
        <time>2017-07-30T12:06:19Z</time>
      </trkpt>
      <trkpt lat="43.3420759812" lon="1.8323223386">
        <ele>195.28</ele>
        <time>2017-07-30T12:06:20Z</time>
      </trkpt>
      <trkpt lat="43.3419354167" lon="1.8326907232">
        <ele>194.80</ele>
        <time>2017-07-30T12:06:27Z</time>
      </trkpt>
      <trkpt lat="43.3419179823" lon="1.8327460438">
        <ele>195.28</ele>
        <time>2017-07-30T12:06:28Z</time>
      </trkpt>
      <trkpt lat="43.3417694550" lon="1.8332086410">
        <ele>195.28</ele>
        <time>2017-07-30T12:06:37Z</time>
      </trkpt>
      <trkpt lat="43.3415959496" lon="1.8336716574">
        <ele>195.28</ele>
        <time>2017-07-30T12:06:48Z</time>
      </trkpt>
      <trkpt lat="43.3414482605" lon="1.8340267986">
        <ele>196.25</ele>
        <time>2017-07-30T12:06:58Z</time>
      </trkpt>
      <trkpt lat="43.3413858153" lon="1.8341195863">
        <ele>197.69</ele>
        <time>2017-07-30T12:07:03Z</time>
      </trkpt>
      <trkpt lat="43.3413799480" lon="1.8341485877">
        <ele>197.21</ele>
        <time>2017-07-30T12:07:04Z</time>
      </trkpt>
      <trkpt lat="43.3413719852" lon="1.8341817800">
        <ele>197.69</ele>
        <time>2017-07-30T12:07:05Z</time>
      </trkpt>
      <trkpt lat="43.3413623460" lon="1.8342085183">
        <ele>197.69</ele>
        <time>2017-07-30T12:07:06Z</time>
      </trkpt>
      <trkpt lat="43.3413502760" lon="1.8342289701">
        <ele>197.69</ele>
        <time>2017-07-30T12:07:07Z</time>
      </trkpt>
      <trkpt lat="43.3413398825" lon="1.8342513498">
        <ele>198.17</ele>
        <time>2017-07-30T12:07:08Z</time>
      </trkpt>
      <trkpt lat="43.3413299918" lon="1.8342724722">
        <ele>198.17</ele>
        <time>2017-07-30T12:07:09Z</time>
      </trkpt>
      <trkpt lat="43.3413218614" lon="1.8342975341">
        <ele>198.17</ele>
        <time>2017-07-30T12:07:10Z</time>
      </trkpt>
      <trkpt lat="43.3413159940" lon="1.8343274575">
        <ele>198.17</ele>
        <time>2017-07-30T12:07:11Z</time>
      </trkpt>
      <trkpt lat="43.3413092885" lon="1.8343578000">
        <ele>197.69</ele>
        <time>2017-07-30T12:07:12Z</time>
      </trkpt>
      <trkpt lat="43.3412993979" lon="1.8343850411">
        <ele>197.69</ele>
        <time>2017-07-30T12:07:13Z</time>
      </trkpt>
      <trkpt lat="43.3412859030" lon="1.8344152998">
        <ele>197.69</ele>
        <time>2017-07-30T12:07:14Z</time>
      </trkpt>
      <trkpt lat="43.3411662094" lon="1.8347545993">
        <ele>195.77</ele>
        <time>2017-07-30T12:07:25Z</time>
      </trkpt>
      <trkpt lat="43.3410768583" lon="1.8349685892">
        <ele>195.77</ele>
        <time>2017-07-30T12:07:33Z</time>
      </trkpt>
      <trkpt lat="43.3410614356" lon="1.8349874485">
        <ele>195.77</ele>
        <time>2017-07-30T12:07:34Z</time>
      </trkpt>
      <trkpt lat="43.3410500363" lon="1.8350144383">
        <ele>195.77</ele>
        <time>2017-07-30T12:07:35Z</time>
      </trkpt>
      <trkpt lat="43.3410368767" lon="1.8350451998">
        <ele>195.77</ele>
        <time>2017-07-30T12:07:36Z</time>
      </trkpt>
      <trkpt lat="43.3410263993" lon="1.8350772187">
        <ele>195.77</ele>
        <time>2017-07-30T12:07:37Z</time>
      </trkpt>
      <trkpt lat="43.3410164248" lon="1.8351063039">
        <ele>195.77</ele>
        <time>2017-07-30T12:07:38Z</time>
      </trkpt>
      <trkpt lat="43.3410007507" lon="1.8351280969">
        <ele>195.77</ele>
        <time>2017-07-30T12:07:39Z</time>
      </trkpt>
      <trkpt lat="43.3409830648" lon="1.8351249117">
        <ele>196.25</ele>
        <time>2017-07-30T12:07:40Z</time>
      </trkpt>
      <trkpt lat="43.3409726713" lon="1.8351026997">
        <ele>196.25</ele>
        <time>2017-07-30T12:07:41Z</time>
      </trkpt>
      <trkpt lat="43.3409762755" lon="1.8350726087">
        <ele>196.25</ele>
        <time>2017-07-30T12:07:42Z</time>
      </trkpt>
      <trkpt lat="43.3409870882" lon="1.8350407574">
        <ele>195.77</ele>
        <time>2017-07-30T12:07:43Z</time>
      </trkpt>
      <trkpt lat="43.3409996610" lon="1.8350049667">
        <ele>195.77</ele>
        <time>2017-07-30T12:07:44Z</time>
      </trkpt>
      <trkpt lat="43.3410170954" lon="1.8349693436">
        <ele>196.25</ele>
        <time>2017-07-30T12:07:45Z</time>
      </trkpt>
      <trkpt lat="43.3410383854" lon="1.8349356484">
        <ele>195.77</ele>
        <time>2017-07-30T12:07:46Z</time>
      </trkpt>
      <trkpt lat="43.3411239646" lon="1.8348172121">
        <ele>195.77</ele>
        <time>2017-07-30T12:07:49Z</time>
      </trkpt>
      <trkpt lat="43.3411488589" lon="1.8347679265">
        <ele>195.77</ele>
        <time>2017-07-30T12:07:50Z</time>
      </trkpt>
      <trkpt lat="43.3411952108" lon="1.8346070778">
        <ele>196.25</ele>
        <time>2017-07-30T12:07:56Z</time>
      </trkpt>
      <trkpt lat="43.3411944564" lon="1.8345956784">
        <ele>194.80</ele>
        <time>2017-07-30T12:08:02Z</time>
      </trkpt>
      <trkpt lat="43.3411628567" lon="1.8348405976">
        <ele>199.61</ele>
        <time>2017-07-30T12:35:30Z</time>
      </trkpt>
      <trkpt lat="43.3410795406" lon="1.8349550944">
        <ele>197.69</ele>
        <time>2017-07-30T12:35:35Z</time>
      </trkpt>
      <trkpt lat="43.3409815561" lon="1.8351339642">
        <ele>198.17</ele>
        <time>2017-07-30T12:35:42Z</time>
      </trkpt>
      <trkpt lat="43.3408083022" lon="1.8354890216">
        <ele>195.28</ele>
        <time>2017-07-30T12:35:54Z</time>
      </trkpt>
      <trkpt lat="43.3406993374" lon="1.8358183466">
        <ele>193.84</ele>
        <time>2017-07-30T12:36:03Z</time>
      </trkpt>
      <trkpt lat="43.3406389039" lon="1.8361506052">
        <ele>192.88</ele>
        <time>2017-07-30T12:36:11Z</time>
      </trkpt>
      <trkpt lat="43.3405439369" lon="1.8366603926">
        <ele>191.92</ele>
        <time>2017-07-30T12:36:23Z</time>
      </trkpt>
      <trkpt lat="43.3404694218" lon="1.8369142804">
        <ele>190.96</ele>
        <time>2017-07-30T12:36:30Z</time>
      </trkpt>
      <trkpt lat="43.3404413424" lon="1.8372185435">
        <ele>190.00</ele>
        <time>2017-07-30T12:36:38Z</time>
      </trkpt>
      <trkpt lat="43.3404280990" lon="1.8375927117">
        <ele>189.04</ele>
        <time>2017-07-30T12:36:48Z</time>
      </trkpt>
      <trkpt lat="43.3404029533" lon="1.8378654588">
        <ele>189.04</ele>
        <time>2017-07-30T12:36:55Z</time>
      </trkpt>
      <trkpt lat="43.3404203877" lon="1.8379619345">
        <ele>189.04</ele>
        <time>2017-07-30T12:36:57Z</time>
      </trkpt>
      <trkpt lat="43.3403814118" lon="1.8382811174">
        <ele>189.04</ele>
        <time>2017-07-30T12:37:04Z</time>
      </trkpt>
      <trkpt lat="43.3403825015" lon="1.8386095203">
        <ele>188.56</ele>
        <time>2017-07-30T12:37:12Z</time>
      </trkpt>
      <trkpt lat="43.3403229900" lon="1.8390491512">
        <ele>189.04</ele>
        <time>2017-07-30T12:37:22Z</time>
      </trkpt>
      <trkpt lat="43.3403290249" lon="1.8394648936">
        <ele>189.52</ele>
        <time>2017-07-30T12:37:31Z</time>
      </trkpt>
      <trkpt lat="43.3402833436" lon="1.8399124034">
        <ele>189.52</ele>
        <time>2017-07-30T12:37:40Z</time>
      </trkpt>
      <trkpt lat="43.3402469661" lon="1.8402992282">
        <ele>189.52</ele>
        <time>2017-07-30T12:37:47Z</time>
      </trkpt>
      <trkpt lat="43.3402383327" lon="1.8407132942">
        <ele>189.04</ele>
        <time>2017-07-30T12:37:55Z</time>
      </trkpt>
      <trkpt lat="43.3402330521" lon="1.8410229217">
        <ele>188.56</ele>
        <time>2017-07-30T12:38:02Z</time>
      </trkpt>
      <trkpt lat="43.3402037155" lon="1.8413694296">
        <ele>188.56</ele>
        <time>2017-07-30T12:38:09Z</time>
      </trkpt>
      <trkpt lat="43.3401374985" lon="1.8417553324">
        <ele>188.56</ele>
        <time>2017-07-30T12:38:17Z</time>
      </trkpt>
      <trkpt lat="43.3400369994" lon="1.8422333524">
        <ele>188.56</ele>
        <time>2017-07-30T12:38:26Z</time>
      </trkpt>
      <trkpt lat="43.3398886397" lon="1.8426767550">
        <ele>189.04</ele>
        <time>2017-07-30T12:38:35Z</time>
      </trkpt>
      <trkpt lat="43.3396417089" lon="1.8431708682">
        <ele>189.52</ele>
        <time>2017-07-30T12:38:45Z</time>
      </trkpt>
      <trkpt lat="43.3393920958" lon="1.8434645701">
        <ele>189.52</ele>
        <time>2017-07-30T12:38:54Z</time>
      </trkpt>
      <trkpt lat="43.3391710650" lon="1.8435922265">
        <ele>190.00</ele>
        <time>2017-07-30T12:39:00Z</time>
      </trkpt>
      <trkpt lat="43.3389956318" lon="1.8436463736">
        <ele>189.52</ele>
        <time>2017-07-30T12:39:04Z</time>
      </trkpt>
      <trkpt lat="43.3389512915" lon="1.8436365668">
        <ele>189.52</ele>
        <time>2017-07-30T12:39:05Z</time>
      </trkpt>
      <trkpt lat="43.3389126509" lon="1.8436172046">
        <ele>189.52</ele>
        <time>2017-07-30T12:39:06Z</time>
      </trkpt>
      <trkpt lat="43.3388798777" lon="1.8435923103">
        <ele>189.04</ele>
        <time>2017-07-30T12:39:07Z</time>
      </trkpt>
      <trkpt lat="43.3388491161" lon="1.8435589503">
        <ele>189.04</ele>
        <time>2017-07-30T12:39:08Z</time>
      </trkpt>
      <trkpt lat="43.3388158400" lon="1.8435115088">
        <ele>188.56</ele>
        <time>2017-07-30T12:39:09Z</time>
      </trkpt>
      <trkpt lat="43.3387840725" lon="1.8434624746">
        <ele>188.56</ele>
        <time>2017-07-30T12:39:10Z</time>
      </trkpt>
      <trkpt lat="43.3387515508" lon="1.8434159551">
        <ele>188.56</ele>
        <time>2017-07-30T12:39:11Z</time>
      </trkpt>
      <trkpt lat="43.3386886027" lon="1.8433273584">
        <ele>188.56</ele>
        <time>2017-07-30T12:39:13Z</time>
      </trkpt>
      <trkpt lat="43.3386663906" lon="1.8432838563">
        <ele>188.56</ele>
        <time>2017-07-30T12:39:14Z</time>
      </trkpt>
      <trkpt lat="43.3386425860" lon="1.8432370014">
        <ele>188.56</ele>
        <time>2017-07-30T12:39:15Z</time>
      </trkpt>
      <trkpt lat="43.3385876007" lon="1.8431419507">
        <ele>188.56</ele>
        <time>2017-07-30T12:39:17Z</time>
      </trkpt>
      <trkpt lat="43.3385537378" lon="1.8431023043">
        <ele>188.08</ele>
        <time>2017-07-30T12:39:18Z</time>
      </trkpt>
      <trkpt lat="43.3385256585" lon="1.8430633284">
        <ele>188.56</ele>
        <time>2017-07-30T12:39:19Z</time>
      </trkpt>
      <trkpt lat="43.3385061286" lon="1.8430219218">
        <ele>188.08</ele>
        <time>2017-07-30T12:39:20Z</time>
      </trkpt>
      <trkpt lat="43.3384845033" lon="1.8429846223">
        <ele>188.56</ele>
        <time>2017-07-30T12:39:21Z</time>
      </trkpt>
      <trkpt lat="43.3384585194" lon="1.8429539446">
        <ele>188.08</ele>
        <time>2017-07-30T12:39:22Z</time>
      </trkpt>
      <trkpt lat="43.3382753748" lon="1.8426705524">
        <ele>188.56</ele>
        <time>2017-07-30T12:39:30Z</time>
      </trkpt>
      <trkpt lat="43.3380253427" lon="1.8422777764">
        <ele>188.56</ele>
        <time>2017-07-30T12:39:40Z</time>
      </trkpt>
      <trkpt lat="43.3379331417" lon="1.8421621900">
        <ele>188.56</ele>
        <time>2017-07-30T12:39:43Z</time>
      </trkpt>
      <trkpt lat="43.3377567027" lon="1.8420350365">
        <ele>189.04</ele>
        <time>2017-07-30T12:39:49Z</time>
      </trkpt>
      <trkpt lat="43.3375033177" lon="1.8419963960">
        <ele>189.04</ele>
        <time>2017-07-30T12:39:57Z</time>
      </trkpt>
      <trkpt lat="43.3372870646" lon="1.8420066219">
        <ele>190.00</ele>
        <time>2017-07-30T12:40:06Z</time>
      </trkpt>
      <trkpt lat="43.3370576520" lon="1.8420880102">
        <ele>190.00</ele>
        <time>2017-07-30T12:40:15Z</time>
      </trkpt>
      <trkpt lat="43.3368144929" lon="1.8422128167">
        <ele>190.00</ele>
        <time>2017-07-30T12:40:23Z</time>
      </trkpt>
      <trkpt lat="43.3364834916" lon="1.8425333407">
        <ele>189.52</ele>
        <time>2017-07-30T12:40:32Z</time>
      </trkpt>
      <trkpt lat="43.3362572640" lon="1.8428075965">
        <ele>189.52</ele>
        <time>2017-07-30T12:40:39Z</time>
      </trkpt>
      <trkpt lat="43.3361270092" lon="1.8429862987">
        <ele>189.52</ele>
        <time>2017-07-30T12:40:43Z</time>
      </trkpt>
      <trkpt lat="43.3360974211" lon="1.8430358358">
        <ele>189.52</ele>
        <time>2017-07-30T12:40:44Z</time>
      </trkpt>
      <trkpt lat="43.3358872030" lon="1.8435039651">
        <ele>188.56</ele>
        <time>2017-07-30T12:40:53Z</time>
      </trkpt>
      <trkpt lat="43.3357650787" lon="1.8438094016">
        <ele>188.56</ele>
        <time>2017-07-30T12:40:59Z</time>
      </trkpt>
      <trkpt lat="43.3357442077" lon="1.8438696675">
        <ele>188.08</ele>
        <time>2017-07-30T12:41:00Z</time>
      </trkpt>
      <trkpt lat="43.3357266895" lon="1.8439269159">
        <ele>188.08</ele>
        <time>2017-07-30T12:41:01Z</time>
      </trkpt>
      <trkpt lat="43.3356401045" lon="1.8442315143">
        <ele>187.59</ele>
        <time>2017-07-30T12:41:06Z</time>
      </trkpt>
      <trkpt lat="43.3355989493" lon="1.8443574104">
        <ele>188.08</ele>
        <time>2017-07-30T12:41:08Z</time>
      </trkpt>
      <trkpt lat="43.3355629910" lon="1.8444694765">
        <ele>187.59</ele>
        <time>2017-07-30T12:41:10Z</time>
      </trkpt>
      <trkpt lat="43.3355357498" lon="1.8445263058">
        <ele>187.59</ele>
        <time>2017-07-30T12:41:11Z</time>
      </trkpt>
      <trkpt lat="43.3355068322" lon="1.8445962947">
        <ele>187.59</ele>
        <time>2017-07-30T12:41:12Z</time>
      </trkpt>
      <trkpt lat="43.3353313990" lon="1.8451440521">
        <ele>188.08</ele>
        <time>2017-07-30T12:41:21Z</time>
      </trkpt>
      <trkpt lat="43.3353100251" lon="1.8452116102">
        <ele>188.08</ele>
        <time>2017-07-30T12:41:22Z</time>
      </trkpt>
      <trkpt lat="43.3351394534" lon="1.8457429390">
        <ele>188.08</ele>
        <time>2017-07-30T12:41:30Z</time>
      </trkpt>
      <trkpt lat="43.3350646868" lon="1.8459591921">
        <ele>188.08</ele>
        <time>2017-07-30T12:41:34Z</time>
      </trkpt>
      <trkpt lat="43.3349584043" lon="1.8462564982">
        <ele>188.08</ele>
        <time>2017-07-30T12:41:41Z</time>
      </trkpt>
      <trkpt lat="43.3348755911" lon="1.8465553131">
        <ele>187.59</ele>
        <time>2017-07-30T12:41:48Z</time>
      </trkpt>
      <trkpt lat="43.3346781973" lon="1.8470669445">
        <ele>187.59</ele>
        <time>2017-07-30T12:41:59Z</time>
      </trkpt>
      <trkpt lat="43.3345186897" lon="1.8474191520">
        <ele>188.08</ele>
        <time>2017-07-30T12:42:07Z</time>
      </trkpt>
      <trkpt lat="43.3343392331" lon="1.8477470521">
        <ele>188.56</ele>
        <time>2017-07-30T12:42:15Z</time>
      </trkpt>
      <trkpt lat="43.3340876922" lon="1.8481299374">
        <ele>189.04</ele>
        <time>2017-07-30T12:42:24Z</time>
      </trkpt>
      <trkpt lat="43.3337207325" lon="1.8485409860">
        <ele>189.52</ele>
        <time>2017-07-30T12:42:35Z</time>
      </trkpt>
      <trkpt lat="43.3334732149" lon="1.8487848155">
        <ele>189.52</ele>
        <time>2017-07-30T12:42:43Z</time>
      </trkpt>
      <trkpt lat="43.3334015496" lon="1.8488661200">
        <ele>189.04</ele>
        <time>2017-07-30T12:42:45Z</time>
      </trkpt>
      <trkpt lat="43.3331626654" lon="1.8492360134">
        <ele>188.56</ele>
        <time>2017-07-30T12:42:53Z</time>
      </trkpt>
      <trkpt lat="43.3331475779" lon="1.8492826167">
        <ele>188.56</ele>
        <time>2017-07-30T12:42:54Z</time>
      </trkpt>
      <trkpt lat="43.3330417145" lon="1.8497431185">
        <ele>189.04</ele>
        <time>2017-07-30T12:43:04Z</time>
      </trkpt>
      <trkpt lat="43.3330192510" lon="1.8499122653">
        <ele>189.04</ele>
        <time>2017-07-30T12:43:07Z</time>
      </trkpt>
      <trkpt lat="43.3329819515" lon="1.8504705839">
        <ele>189.04</ele>
        <time>2017-07-30T12:43:16Z</time>
      </trkpt>
      <trkpt lat="43.3329465799" lon="1.8509303313">
        <ele>190.00</ele>
        <time>2017-07-30T12:43:24Z</time>
      </trkpt>
      <trkpt lat="43.3329438977" lon="1.8511159066">
        <ele>189.52</ele>
        <time>2017-07-30T12:43:27Z</time>
      </trkpt>
      <trkpt lat="43.3329083584" lon="1.8514302280">
        <ele>189.04</ele>
        <time>2017-07-30T12:43:32Z</time>
      </trkpt>
      <trkpt lat="43.3327749185" lon="1.8518489879">
        <ele>189.04</ele>
        <time>2017-07-30T12:43:40Z</time>
      </trkpt>
      <trkpt lat="43.3327130601" lon="1.8520354014">
        <ele>189.04</ele>
        <time>2017-07-30T12:43:43Z</time>
      </trkpt>
      <trkpt lat="43.3325205278" lon="1.8525867630">
        <ele>189.04</ele>
        <time>2017-07-30T12:43:53Z</time>
      </trkpt>
      <trkpt lat="43.3324986510" lon="1.8526476156">
        <ele>189.04</ele>
        <time>2017-07-30T12:43:54Z</time>
      </trkpt>
      <trkpt lat="43.3324797079" lon="1.8526994996">
        <ele>188.56</ele>
        <time>2017-07-30T12:43:55Z</time>
      </trkpt>
      <trkpt lat="43.3324655425" lon="1.8527506292">
        <ele>188.56</ele>
        <time>2017-07-30T12:43:56Z</time>
      </trkpt>
      <trkpt lat="43.3324281592" lon="1.8528594263">
        <ele>188.56</ele>
        <time>2017-07-30T12:43:58Z</time>
      </trkpt>
      <trkpt lat="43.3323243912" lon="1.8531458359">
        <ele>188.08</ele>
        <time>2017-07-30T12:44:03Z</time>
      </trkpt>
      <trkpt lat="43.3323027659" lon="1.8532039225">
        <ele>188.08</ele>
        <time>2017-07-30T12:44:04Z</time>
      </trkpt>
      <trkpt lat="43.3322597668" lon="1.8533295672">
        <ele>188.56</ele>
        <time>2017-07-30T12:44:06Z</time>
      </trkpt>
      <trkpt lat="43.3322176896" lon="1.8534416333">
        <ele>188.56</ele>
        <time>2017-07-30T12:44:08Z</time>
      </trkpt>
      <trkpt lat="43.3321958128" lon="1.8534945231">
        <ele>188.56</ele>
        <time>2017-07-30T12:44:09Z</time>
      </trkpt>
      <trkpt lat="43.3320388198" lon="1.8539092597">
        <ele>188.56</ele>
        <time>2017-07-30T12:44:17Z</time>
      </trkpt>
      <trkpt lat="43.3319861814" lon="1.8541629799">
        <ele>188.08</ele>
        <time>2017-07-30T12:44:22Z</time>
      </trkpt>
      <trkpt lat="43.3319924679" lon="1.8541996926">
        <ele>188.08</ele>
        <time>2017-07-30T12:44:23Z</time>
      </trkpt>
      <trkpt lat="43.3319934737" lon="1.8542320468">
        <ele>187.59</ele>
        <time>2017-07-30T12:44:24Z</time>
      </trkpt>
      <trkpt lat="43.3319905400" lon="1.8542650715">
        <ele>187.59</ele>
        <time>2017-07-30T12:44:25Z</time>
      </trkpt>
      <trkpt lat="43.3319886122" lon="1.8542983476">
        <ele>188.08</ele>
        <time>2017-07-30T12:44:26Z</time>
      </trkpt>
      <trkpt lat="43.3319869358" lon="1.8543339707">
        <ele>188.08</ele>
        <time>2017-07-30T12:44:27Z</time>
      </trkpt>
      <trkpt lat="43.3319845889" lon="1.8543706834">
        <ele>188.08</ele>
        <time>2017-07-30T12:44:28Z</time>
      </trkpt>
      <trkpt lat="43.3319786377" lon="1.8544104137">
        <ele>187.59</ele>
        <time>2017-07-30T12:44:29Z</time>
      </trkpt>
      <trkpt lat="43.3319741953" lon="1.8544536643">
        <ele>188.08</ele>
        <time>2017-07-30T12:44:30Z</time>
      </trkpt>
      <trkpt lat="43.3319703396" lon="1.8545006867">
        <ele>188.08</ele>
        <time>2017-07-30T12:44:31Z</time>
      </trkpt>
      <trkpt lat="43.3319436852" lon="1.8550290819">
        <ele>188.08</ele>
        <time>2017-07-30T12:44:40Z</time>
      </trkpt>
      <trkpt lat="43.3319350518" lon="1.8553728238">
        <ele>188.08</ele>
        <time>2017-07-30T12:44:46Z</time>
      </trkpt>
      <trkpt lat="43.3319352195" lon="1.8554304074">
        <ele>188.08</ele>
        <time>2017-07-30T12:44:47Z</time>
      </trkpt>
      <trkpt lat="43.3319164440" lon="1.8559257779">
        <ele>188.08</ele>
        <time>2017-07-30T12:44:56Z</time>
      </trkpt>
      <trkpt lat="43.3318986744" lon="1.8563645706">
        <ele>188.08</ele>
        <time>2017-07-30T12:45:05Z</time>
      </trkpt>
      <trkpt lat="43.3318827488" lon="1.8564131018">
        <ele>188.08</ele>
        <time>2017-07-30T12:45:07Z</time>
      </trkpt>
      <trkpt lat="43.3318738639" lon="1.8564342242">
        <ele>188.08</ele>
        <time>2017-07-30T12:45:08Z</time>
      </trkpt>
      <trkpt lat="43.3318053838" lon="1.8566552550">
        <ele>188.08</ele>
        <time>2017-07-30T12:45:16Z</time>
      </trkpt>
      <trkpt lat="43.3316554315" lon="1.8570352904">
        <ele>188.56</ele>
        <time>2017-07-30T12:45:25Z</time>
      </trkpt>
      <trkpt lat="43.3315035515" lon="1.8573698122">
        <ele>188.56</ele>
        <time>2017-07-30T12:45:34Z</time>
      </trkpt>
      <trkpt lat="43.3313425351" lon="1.8577379454">
        <ele>188.56</ele>
        <time>2017-07-30T12:45:44Z</time>
      </trkpt>
      <trkpt lat="43.3311288804" lon="1.8582440447">
        <ele>189.04</ele>
        <time>2017-07-30T12:45:54Z</time>
      </trkpt>
      <trkpt lat="43.3309530281" lon="1.8587106653">
        <ele>188.56</ele>
        <time>2017-07-30T12:46:03Z</time>
      </trkpt>
      <trkpt lat="43.3308235276" lon="1.8590966519">
        <ele>189.04</ele>
        <time>2017-07-30T12:46:11Z</time>
      </trkpt>
      <trkpt lat="43.3306448255" lon="1.8596662022">
        <ele>189.04</ele>
        <time>2017-07-30T12:46:22Z</time>
      </trkpt>
      <trkpt lat="43.3305122238" lon="1.8601576332">
        <ele>189.04</ele>
        <time>2017-07-30T12:46:32Z</time>
      </trkpt>
      <trkpt lat="43.3303981461" lon="1.8605843559">
        <ele>189.04</ele>
        <time>2017-07-30T12:46:42Z</time>
      </trkpt>
      <trkpt lat="43.3303059451" lon="1.8609023653">
        <ele>188.56</ele>
        <time>2017-07-30T12:46:51Z</time>
      </trkpt>
      <trkpt lat="43.3302155882" lon="1.8612665590">
        <ele>188.56</ele>
        <time>2017-07-30T12:47:00Z</time>
      </trkpt>
      <trkpt lat="43.3301114850" lon="1.8617047649">
        <ele>189.04</ele>
        <time>2017-07-30T12:47:12Z</time>
      </trkpt>
      <trkpt lat="43.3299406618" lon="1.8620785978">
        <ele>188.08</ele>
        <time>2017-07-30T12:47:20Z</time>
      </trkpt>
      <trkpt lat="43.3298789710" lon="1.8621847965">
        <ele>187.59</ele>
        <time>2017-07-30T12:47:22Z</time>
      </trkpt>
      <trkpt lat="43.3298547473" lon="1.8622434698">
        <ele>187.59</ele>
        <time>2017-07-30T12:47:23Z</time>
      </trkpt>
      <trkpt lat="43.3296939824" lon="1.8628592044">
        <ele>187.11</ele>
        <time>2017-07-30T12:47:34Z</time>
      </trkpt>
      <trkpt lat="43.3295753784" lon="1.8633252382">
        <ele>187.11</ele>
        <time>2017-07-30T12:47:45Z</time>
      </trkpt>
      <trkpt lat="43.3295239136" lon="1.8637102190">
        <ele>187.11</ele>
        <time>2017-07-30T12:47:55Z</time>
      </trkpt>
      <trkpt lat="43.3295245841" lon="1.8637895957">
        <ele>187.11</ele>
        <time>2017-07-30T12:47:57Z</time>
      </trkpt>
      <trkpt lat="43.3295193035" lon="1.8638328463">
        <ele>187.11</ele>
        <time>2017-07-30T12:47:58Z</time>
      </trkpt>
      <trkpt lat="43.3295177948" lon="1.8638681341">
        <ele>187.11</ele>
        <time>2017-07-30T12:47:59Z</time>
      </trkpt>
      <trkpt lat="43.3295154478" lon="1.8639046792">
        <ele>187.11</ele>
        <time>2017-07-30T12:48:00Z</time>
      </trkpt>
      <trkpt lat="43.3295117598" lon="1.8639397994">
        <ele>187.11</ele>
        <time>2017-07-30T12:48:01Z</time>
      </trkpt>
      <trkpt lat="43.3294521645" lon="1.8642146420">
        <ele>187.11</ele>
        <time>2017-07-30T12:48:08Z</time>
      </trkpt>
      <trkpt lat="43.3293830138" lon="1.8646076694">
        <ele>187.11</ele>
        <time>2017-07-30T12:48:15Z</time>
      </trkpt>
      <trkpt lat="43.3292684332" lon="1.8651887029">
        <ele>187.11</ele>
        <time>2017-07-30T12:48:25Z</time>
      </trkpt>
      <trkpt lat="43.3291860390" lon="1.8656650465">
        <ele>186.63</ele>
        <time>2017-07-30T12:48:34Z</time>
      </trkpt>
      <trkpt lat="43.3291148767" lon="1.8661272246">
        <ele>186.63</ele>
        <time>2017-07-30T12:48:43Z</time>
      </trkpt>
      <trkpt lat="43.3290753979" lon="1.8665384408">
        <ele>186.63</ele>
        <time>2017-07-30T12:48:51Z</time>
      </trkpt>
      <trkpt lat="43.3290606458" lon="1.8665925041">
        <ele>186.63</ele>
        <time>2017-07-30T12:48:52Z</time>
      </trkpt>
      <trkpt lat="43.3290470671" lon="1.8666427955">
        <ele>186.63</ele>
        <time>2017-07-30T12:48:53Z</time>
      </trkpt>
      <trkpt lat="43.3290389366" lon="1.8666955177">
        <ele>186.63</ele>
        <time>2017-07-30T12:48:54Z</time>
      </trkpt>
      <trkpt lat="43.3290365059" lon="1.8667497486">
        <ele>186.63</ele>
        <time>2017-07-30T12:48:55Z</time>
      </trkpt>
      <trkpt lat="43.3290340751" lon="1.8668075837">
        <ele>186.63</ele>
        <time>2017-07-30T12:48:56Z</time>
      </trkpt>
      <trkpt lat="43.3290319797" lon="1.8672499806">
        <ele>186.63</ele>
        <time>2017-07-30T12:49:04Z</time>
      </trkpt>
      <trkpt lat="43.3290456422" lon="1.8673578557">
        <ele>186.63</ele>
        <time>2017-07-30T12:49:06Z</time>
      </trkpt>
      <trkpt lat="43.3290520962" lon="1.8674710114">
        <ele>186.63</ele>
        <time>2017-07-30T12:49:08Z</time>
      </trkpt>
      <trkpt lat="43.3290557005" lon="1.8675264996">
        <ele>186.63</ele>
        <time>2017-07-30T12:49:09Z</time>
      </trkpt>
      <trkpt lat="43.3290593885" lon="1.8675812334">
        <ele>186.63</ele>
        <time>2017-07-30T12:49:10Z</time>
      </trkpt>
      <trkpt lat="43.3290639147" lon="1.8676387332">
        <ele>186.63</ele>
        <time>2017-07-30T12:49:11Z</time>
      </trkpt>
      <trkpt lat="43.3290681895" lon="1.8676970713">
        <ele>186.63</ele>
        <time>2017-07-30T12:49:12Z</time>
      </trkpt>
      <trkpt lat="43.3290888928" lon="1.8680879194">
        <ele>186.63</ele>
        <time>2017-07-30T12:49:19Z</time>
      </trkpt>
      <trkpt lat="43.3290973585" lon="1.8685913365">
        <ele>187.11</ele>
        <time>2017-07-30T12:49:28Z</time>
      </trkpt>
      <trkpt lat="43.3289892320" lon="1.8690933287">
        <ele>186.63</ele>
        <time>2017-07-30T12:49:38Z</time>
      </trkpt>
      <trkpt lat="43.3288702089" lon="1.8694877811">
        <ele>186.63</ele>
        <time>2017-07-30T12:49:47Z</time>
      </trkpt>
      <trkpt lat="43.3287336677" lon="1.8699532282">
        <ele>186.15</ele>
        <time>2017-07-30T12:49:57Z</time>
      </trkpt>
      <trkpt lat="43.3286820352" lon="1.8702805415">
        <ele>186.15</ele>
        <time>2017-07-30T12:50:06Z</time>
      </trkpt>
      <trkpt lat="43.3286537044" lon="1.8704289012">
        <ele>186.15</ele>
        <time>2017-07-30T12:50:15Z</time>
      </trkpt>
      <trkpt lat="43.3286559675" lon="1.8704491016">
        <ele>186.15</ele>
        <time>2017-07-30T12:50:35Z</time>
      </trkpt>
      <trkpt lat="43.3286651876" lon="1.8704447430">
        <ele>186.15</ele>
        <time>2017-07-30T12:50:50Z</time>
      </trkpt>
      <trkpt lat="43.3286735695" lon="1.8704503588">
        <ele>186.15</ele>
        <time>2017-07-30T12:51:13Z</time>
      </trkpt>
      <trkpt lat="43.3286881540" lon="1.8704569805">
        <ele>185.67</ele>
        <time>2017-07-30T12:51:42Z</time>
      </trkpt>
      <trkpt lat="43.3286931831" lon="1.8704453297">
        <ele>185.67</ele>
        <time>2017-07-30T12:52:07Z</time>
      </trkpt>
      <trkpt lat="43.3286889084" lon="1.8704419769">
        <ele>185.67</ele>
        <time>2017-07-30T12:52:31Z</time>
      </trkpt>
      <trkpt lat="43.3286833763" lon="1.8704341818">
        <ele>185.67</ele>
        <time>2017-07-30T12:52:55Z</time>
      </trkpt>
      <trkpt lat="43.3286800236" lon="1.8704314157">
        <ele>185.67</ele>
        <time>2017-07-30T12:53:13Z</time>
      </trkpt>
      <trkpt lat="43.3286791854" lon="1.8704278953">
        <ele>185.67</ele>
        <time>2017-07-30T12:53:24Z</time>
      </trkpt>
      <trkpt lat="43.3286805265" lon="1.8704218604">
        <ele>185.67</ele>
        <time>2017-07-30T12:53:41Z</time>
      </trkpt>
      <trkpt lat="43.3286884893" lon="1.8703787774">
        <ele>185.67</ele>
        <time>2017-07-30T12:53:48Z</time>
      </trkpt>
      <trkpt lat="43.3286949433" lon="1.8703551404">
        <ele>186.15</ele>
        <time>2017-07-30T12:53:49Z</time>
      </trkpt>
      <trkpt lat="43.3287072647" lon="1.8702886719">
        <ele>185.67</ele>
        <time>2017-07-30T12:53:52Z</time>
      </trkpt>
      <trkpt lat="43.3287135512" lon="1.8702680524">
        <ele>185.67</ele>
        <time>2017-07-30T12:53:53Z</time>
      </trkpt>
      <trkpt lat="43.3287125453" lon="1.8702413980">
        <ele>185.67</ele>
        <time>2017-07-30T12:53:54Z</time>
      </trkpt>
      <trkpt lat="43.3286597393" lon="1.8702802062">
        <ele>185.67</ele>
        <time>2017-07-30T12:53:59Z</time>
      </trkpt>
      <trkpt lat="43.3285508584" lon="1.8706170749">
        <ele>184.23</ele>
        <time>2017-07-30T12:54:07Z</time>
      </trkpt>
      <trkpt lat="43.3284718171" lon="1.8708548695">
        <ele>183.27</ele>
        <time>2017-07-30T12:54:11Z</time>
      </trkpt>
      <trkpt lat="43.3284475934" lon="1.8709103577">
        <ele>183.27</ele>
        <time>2017-07-30T12:54:12Z</time>
      </trkpt>
      <trkpt lat="43.3283409756" lon="1.8711936660">
        <ele>181.83</ele>
        <time>2017-07-30T12:54:19Z</time>
      </trkpt>
      <trkpt lat="43.3282991499" lon="1.8713457137">
        <ele>181.35</ele>
        <time>2017-07-30T12:54:23Z</time>
      </trkpt>
      <trkpt lat="43.3282035124" lon="1.8716517370">
        <ele>181.35</ele>
        <time>2017-07-30T12:54:32Z</time>
      </trkpt>
      <trkpt lat="43.3280759398" lon="1.8720458541">
        <ele>181.35</ele>
        <time>2017-07-30T12:54:43Z</time>
      </trkpt>
      <trkpt lat="43.3279911149" lon="1.8723486923">
        <ele>181.35</ele>
        <time>2017-07-30T12:54:51Z</time>
      </trkpt>
      <trkpt lat="43.3278186154" lon="1.8728776742">
        <ele>181.35</ele>
        <time>2017-07-30T12:55:02Z</time>
      </trkpt>
      <trkpt lat="43.3277251571" lon="1.8732267804">
        <ele>181.35</ele>
        <time>2017-07-30T12:55:10Z</time>
      </trkpt>
      <trkpt lat="43.3275845088" lon="1.8737234920">
        <ele>181.83</ele>
        <time>2017-07-30T12:55:19Z</time>
      </trkpt>
      <trkpt lat="43.3274792321" lon="1.8741150945">
        <ele>181.83</ele>
        <time>2017-07-30T12:55:27Z</time>
      </trkpt>
      <trkpt lat="43.3274009451" lon="1.8746543024">
        <ele>181.83</ele>
        <time>2017-07-30T12:55:36Z</time>
      </trkpt>
      <trkpt lat="43.3273449540" lon="1.8751582224">
        <ele>180.38</ele>
        <time>2017-07-30T12:55:44Z</time>
      </trkpt>
      <trkpt lat="43.3273404278" lon="1.8757029623">
        <ele>183.27</ele>
        <time>2017-07-30T12:55:53Z</time>
      </trkpt>
      <trkpt lat="43.3273196407" lon="1.8761937227">
        <ele>180.38</ele>
        <time>2017-07-30T12:56:02Z</time>
      </trkpt>
      <trkpt lat="43.3273139410" lon="1.8762347940">
        <ele>184.23</ele>
        <time>2017-07-30T12:56:03Z</time>
      </trkpt>
      <trkpt lat="43.3273015358" lon="1.8762872647">
        <ele>182.31</ele>
        <time>2017-07-30T12:56:04Z</time>
      </trkpt>
      <trkpt lat="43.3272948302" lon="1.8763273302">
        <ele>182.31</ele>
        <time>2017-07-30T12:56:05Z</time>
      </trkpt>
      <trkpt lat="43.3272969257" lon="1.8763693236">
        <ele>182.31</ele>
        <time>2017-07-30T12:56:06Z</time>
      </trkpt>
      <trkpt lat="43.3272939920" lon="1.8764182739">
        <ele>182.31</ele>
        <time>2017-07-30T12:56:07Z</time>
      </trkpt>
      <trkpt lat="43.3272654936" lon="1.8769419752">
        <ele>182.31</ele>
        <time>2017-07-30T12:56:16Z</time>
      </trkpt>
      <trkpt lat="43.3272255119" lon="1.8775437959">
        <ele>182.79</ele>
        <time>2017-07-30T12:56:26Z</time>
      </trkpt>
      <trkpt lat="43.3271232527" lon="1.8781636376">
        <ele>182.79</ele>
        <time>2017-07-30T12:56:36Z</time>
      </trkpt>
      <trkpt lat="43.3270901442" lon="1.8783466145">
        <ele>182.79</ele>
        <time>2017-07-30T12:56:39Z</time>
      </trkpt>
      <trkpt lat="43.3270594664" lon="1.8784930464">
        <ele>182.79</ele>
        <time>2017-07-30T12:56:41Z</time>
      </trkpt>
      <trkpt lat="43.3270354941" lon="1.8785588443">
        <ele>182.79</ele>
        <time>2017-07-30T12:56:42Z</time>
      </trkpt>
      <trkpt lat="43.3270150423" lon="1.8786074594">
        <ele>182.79</ele>
        <time>2017-07-30T12:56:43Z</time>
      </trkpt>
      <trkpt lat="43.3267664351" lon="1.8791547138">
        <ele>182.79</ele>
        <time>2017-07-30T12:56:53Z</time>
      </trkpt>
      <trkpt lat="43.3265456557" lon="1.8796429597">
        <ele>182.79</ele>
        <time>2017-07-30T12:57:02Z</time>
      </trkpt>
      <trkpt lat="43.3265009802" lon="1.8797533493">
        <ele>182.79</ele>
        <time>2017-07-30T12:57:04Z</time>
      </trkpt>
      <trkpt lat="43.3262368664" lon="1.8803457823">
        <ele>182.79</ele>
        <time>2017-07-30T12:57:14Z</time>
      </trkpt>
      <trkpt lat="43.3261896763" lon="1.8804546632">
        <ele>182.79</ele>
        <time>2017-07-30T12:57:16Z</time>
      </trkpt>
      <trkpt lat="43.3261657879" lon="1.8805180304">
        <ele>182.79</ele>
        <time>2017-07-30T12:57:17Z</time>
      </trkpt>
      <trkpt lat="43.3261336014" lon="1.8805760331">
        <ele>182.79</ele>
        <time>2017-07-30T12:57:18Z</time>
      </trkpt>
      <trkpt lat="43.3261050191" lon="1.8806326948">
        <ele>182.79</ele>
        <time>2017-07-30T12:57:19Z</time>
      </trkpt>
      <trkpt lat="43.3260843158" lon="1.8806886021">
        <ele>182.79</ele>
        <time>2017-07-30T12:57:20Z</time>
      </trkpt>
      <trkpt lat="43.3260687254" lon="1.8807459343">
        <ele>182.79</ele>
        <time>2017-07-30T12:57:21Z</time>
      </trkpt>
      <trkpt lat="43.3258632012" lon="1.8812009040">
        <ele>182.79</ele>
        <time>2017-07-30T12:57:29Z</time>
      </trkpt>
      <trkpt lat="43.3256731834" lon="1.8816261180">
        <ele>183.27</ele>
        <time>2017-07-30T12:57:36Z</time>
      </trkpt>
      <trkpt lat="43.3256387338" lon="1.8816933408">
        <ele>182.79</ele>
        <time>2017-07-30T12:57:37Z</time>
      </trkpt>
      <trkpt lat="43.3255952317" lon="1.8817832787">
        <ele>183.27</ele>
        <time>2017-07-30T12:57:38Z</time>
      </trkpt>
      <trkpt lat="43.3254498057" lon="1.8821148667">
        <ele>183.27</ele>
        <time>2017-07-30T12:57:43Z</time>
      </trkpt>
      <trkpt lat="43.3252802398" lon="1.8825360574">
        <ele>183.27</ele>
        <time>2017-07-30T12:57:50Z</time>
      </trkpt>
      <trkpt lat="43.3252293617" lon="1.8829906080">
        <ele>183.27</ele>
        <time>2017-07-30T12:57:57Z</time>
      </trkpt>
      <trkpt lat="43.3252091613" lon="1.8833597470">
        <ele>183.27</ele>
        <time>2017-07-30T12:58:03Z</time>
      </trkpt>
      <trkpt lat="43.3252066467" lon="1.8834159896">
        <ele>183.27</ele>
        <time>2017-07-30T12:58:04Z</time>
      </trkpt>
      <trkpt lat="43.3252027910" lon="1.8834652752">
        <ele>183.27</ele>
        <time>2017-07-30T12:58:05Z</time>
      </trkpt>
      <trkpt lat="43.3252020366" lon="1.8835115433">
        <ele>183.27</ele>
        <time>2017-07-30T12:58:06Z</time>
      </trkpt>
      <trkpt lat="43.3252032939" lon="1.8835637625">
        <ele>183.27</ele>
        <time>2017-07-30T12:58:07Z</time>
      </trkpt>
      <trkpt lat="43.3251972590" lon="1.8840000406">
        <ele>183.27</ele>
        <time>2017-07-30T12:58:16Z</time>
      </trkpt>
      <trkpt lat="43.3251914755" lon="1.8843209837">
        <ele>183.27</ele>
        <time>2017-07-30T12:58:24Z</time>
      </trkpt>
      <trkpt lat="43.3251676708" lon="1.8847108260">
        <ele>182.79</ele>
        <time>2017-07-30T12:58:34Z</time>
      </trkpt>
      <trkpt lat="43.3251556847" lon="1.8853497785">
        <ele>180.87</ele>
        <time>2017-07-30T12:58:47Z</time>
      </trkpt>
      <trkpt lat="43.3251537569" lon="1.8856603280">
        <ele>179.90</ele>
        <time>2017-07-30T12:58:54Z</time>
      </trkpt>
      <trkpt lat="43.3251544274" lon="1.8861499988">
        <ele>177.98</ele>
        <time>2017-07-30T12:59:02Z</time>
      </trkpt>
      <trkpt lat="43.3251599595" lon="1.8863002863">
        <ele>177.98</ele>
        <time>2017-07-30T12:59:04Z</time>
      </trkpt>
      <trkpt lat="43.3251616359" lon="1.8863696884">
        <ele>177.98</ele>
        <time>2017-07-30T12:59:05Z</time>
      </trkpt>
      <trkpt lat="43.3251654077" lon="1.8864439521">
        <ele>177.98</ele>
        <time>2017-07-30T12:59:06Z</time>
      </trkpt>
      <trkpt lat="43.3251561876" lon="1.8870797195">
        <ele>177.98</ele>
        <time>2017-07-30T12:59:15Z</time>
      </trkpt>
      <trkpt lat="43.3251648210" lon="1.8874109723">
        <ele>177.98</ele>
        <time>2017-07-30T12:59:20Z</time>
      </trkpt>
      <trkpt lat="43.3251587022" lon="1.8874738365">
        <ele>177.98</ele>
        <time>2017-07-30T12:59:21Z</time>
      </trkpt>
      <trkpt lat="43.3251560200" lon="1.8875377905">
        <ele>177.98</ele>
        <time>2017-07-30T12:59:22Z</time>
      </trkpt>
      <trkpt lat="43.3251532540" lon="1.8875981402">
        <ele>177.98</ele>
        <time>2017-07-30T12:59:23Z</time>
      </trkpt>
      <trkpt lat="43.3251489792" lon="1.8876537960">
        <ele>177.98</ele>
        <time>2017-07-30T12:59:24Z</time>
      </trkpt>
      <trkpt lat="43.3251313772" lon="1.8881235179">
        <ele>177.98</ele>
        <time>2017-07-30T12:59:32Z</time>
      </trkpt>
      <trkpt lat="43.3251301199" lon="1.8881837837">
        <ele>177.98</ele>
        <time>2017-07-30T12:59:33Z</time>
      </trkpt>
      <trkpt lat="43.3251273539" lon="1.8882415351">
        <ele>177.98</ele>
        <time>2017-07-30T12:59:34Z</time>
      </trkpt>
      <trkpt lat="43.3250891324" lon="1.8888967484">
        <ele>177.98</ele>
        <time>2017-07-30T12:59:45Z</time>
      </trkpt>
      <trkpt lat="43.3250767272" lon="1.8889512308">
        <ele>177.98</ele>
        <time>2017-07-30T12:59:46Z</time>
      </trkpt>
      <trkpt lat="43.3250665013" lon="1.8890063837">
        <ele>177.98</ele>
        <time>2017-07-30T12:59:47Z</time>
      </trkpt>
      <trkpt lat="43.3250536770" lon="1.8890606984">
        <ele>177.98</ele>
        <time>2017-07-30T12:59:48Z</time>
      </trkpt>
      <trkpt lat="43.3250417747" lon="1.8891152646">
        <ele>178.46</ele>
        <time>2017-07-30T12:59:49Z</time>
      </trkpt>
      <trkpt lat="43.3250292018" lon="1.8891704176">
        <ele>178.46</ele>
        <time>2017-07-30T12:59:50Z</time>
      </trkpt>
      <trkpt lat="43.3249878790" lon="1.8893107306">
        <ele>177.98</ele>
        <time>2017-07-30T12:59:53Z</time>
      </trkpt>
      <trkpt lat="43.3249256853" lon="1.8899050076">
        <ele>178.46</ele>
        <time>2017-07-30T13:00:03Z</time>
      </trkpt>
      <trkpt lat="43.3247014694" lon="1.8907578662">
        <ele>178.94</ele>
        <time>2017-07-30T13:00:16Z</time>
      </trkpt>
      <trkpt lat="43.3245687000" lon="1.8912322819">
        <ele>178.94</ele>
        <time>2017-07-30T13:00:24Z</time>
      </trkpt>
      <trkpt lat="43.3245562948" lon="1.8912921287">
        <ele>178.94</ele>
        <time>2017-07-30T13:00:25Z</time>
      </trkpt>
      <trkpt lat="43.3245452307" lon="1.8913506344">
        <ele>178.94</ele>
        <time>2017-07-30T13:00:26Z</time>
      </trkpt>
      <trkpt lat="43.3245255332" lon="1.8914663885">
        <ele>178.94</ele>
        <time>2017-07-30T13:00:28Z</time>
      </trkpt>
      <trkpt lat="43.3244208433" lon="1.8919159099">
        <ele>178.94</ele>
        <time>2017-07-30T13:00:36Z</time>
      </trkpt>
      <trkpt lat="43.3243946917" lon="1.8920279760">
        <ele>178.94</ele>
        <time>2017-07-30T13:00:38Z</time>
      </trkpt>
      <trkpt lat="43.3243438974" lon="1.8922536168">
        <ele>178.94</ele>
        <time>2017-07-30T13:00:42Z</time>
      </trkpt>
      <trkpt lat="43.3243344259" lon="1.8923142180">
        <ele>178.94</ele>
        <time>2017-07-30T13:00:43Z</time>
      </trkpt>
      <trkpt lat="43.3243243676" lon="1.8923757412">
        <ele>178.94</ele>
        <time>2017-07-30T13:00:44Z</time>
      </trkpt>
      <trkpt lat="43.3243155666" lon="1.8924356718">
        <ele>178.94</ele>
        <time>2017-07-30T13:00:45Z</time>
      </trkpt>
      <trkpt lat="43.3243087772" lon="1.8924978655">
        <ele>178.94</ele>
        <time>2017-07-30T13:00:46Z</time>
      </trkpt>
      <trkpt lat="43.3243037481" lon="1.8925313093">
        <ele>178.94</ele>
        <time>2017-07-30T13:00:47Z</time>
      </trkpt>
      <trkpt lat="43.3242579829" lon="1.8928515818">
        <ele>178.94</ele>
        <time>2017-07-30T13:00:52Z</time>
      </trkpt>
      <trkpt lat="43.3242525347" lon="1.8929126859">
        <ele>178.94</ele>
        <time>2017-07-30T13:00:53Z</time>
      </trkpt>
      <trkpt lat="43.3242446557" lon="1.8929716945">
        <ele>178.94</ele>
        <time>2017-07-30T13:00:54Z</time>
      </trkpt>
      <trkpt lat="43.3242022432" lon="1.8932925537">
        <ele>178.94</ele>
        <time>2017-07-30T13:00:59Z</time>
      </trkpt>
      <trkpt lat="43.3241915144" lon="1.8933549989">
        <ele>178.94</ele>
        <time>2017-07-30T13:01:00Z</time>
      </trkpt>
      <trkpt lat="43.3241553046" lon="1.8935997505">
        <ele>178.94</ele>
        <time>2017-07-30T13:01:04Z</time>
      </trkpt>
      <trkpt lat="43.3241407201" lon="1.8936598487">
        <ele>178.94</ele>
        <time>2017-07-30T13:01:05Z</time>
      </trkpt>
      <trkpt lat="43.3241307456" lon="1.8937262334">
        <ele>178.94</ele>
        <time>2017-07-30T13:01:06Z</time>
      </trkpt>
      <trkpt lat="43.3240688872" lon="1.8942438997">
        <ele>178.94</ele>
        <time>2017-07-30T13:01:14Z</time>
      </trkpt>
      <trkpt lat="43.3240626846" lon="1.8943087757">
        <ele>178.94</ele>
        <time>2017-07-30T13:01:15Z</time>
      </trkpt>
      <trkpt lat="43.3239797037" lon="1.8948303815">
        <ele>178.94</ele>
        <time>2017-07-30T13:01:24Z</time>
      </trkpt>
      <trkpt lat="43.3238872513" lon="1.8953675777">
        <ele>178.94</ele>
        <time>2017-07-30T13:01:34Z</time>
      </trkpt>
      <trkpt lat="43.3237810526" lon="1.8958574999">
        <ele>178.94</ele>
        <time>2017-07-30T13:01:43Z</time>
      </trkpt>
      <trkpt lat="43.3237336110" lon="1.8961279001">
        <ele>178.46</ele>
        <time>2017-07-30T13:01:48Z</time>
      </trkpt>
      <trkpt lat="43.3236800507" lon="1.8964464124">
        <ele>178.94</ele>
        <time>2017-07-30T13:01:53Z</time>
      </trkpt>
      <trkpt lat="43.3236206230" lon="1.8966893200">
        <ele>178.94</ele>
        <time>2017-07-30T13:01:57Z</time>
      </trkpt>
      <trkpt lat="43.3236077987" lon="1.8967510108">
        <ele>178.94</ele>
        <time>2017-07-30T13:01:58Z</time>
      </trkpt>
      <trkpt lat="43.3235166874" lon="1.8970447127">
        <ele>178.94</ele>
        <time>2017-07-30T13:02:03Z</time>
      </trkpt>
      <trkpt lat="43.3234504703" lon="1.8972685933">
        <ele>179.42</ele>
        <time>2017-07-30T13:02:07Z</time>
      </trkpt>
      <trkpt lat="43.3234331198" lon="1.8973205611">
        <ele>179.42</ele>
        <time>2017-07-30T13:02:08Z</time>
      </trkpt>
      <trkpt lat="43.3234062977" lon="1.8974286877">
        <ele>179.42</ele>
        <time>2017-07-30T13:02:10Z</time>
      </trkpt>
      <trkpt lat="43.3233949821" lon="1.8974858522">
        <ele>179.42</ele>
        <time>2017-07-30T13:02:11Z</time>
      </trkpt>
      <trkpt lat="43.3233650587" lon="1.8975985888">
        <ele>179.42</ele>
        <time>2017-07-30T13:02:13Z</time>
      </trkpt>
      <trkpt lat="43.3231581096" lon="1.8982338533">
        <ele>179.42</ele>
        <time>2017-07-30T13:02:25Z</time>
      </trkpt>
      <trkpt lat="43.3230429422" lon="1.8986844644">
        <ele>179.42</ele>
        <time>2017-07-30T13:02:35Z</time>
      </trkpt>
      <trkpt lat="43.3229012042" lon="1.8992015440">
        <ele>178.94</ele>
        <time>2017-07-30T13:02:44Z</time>
      </trkpt>
      <trkpt lat="43.3228847757" lon="1.8992597144">
        <ele>178.94</ele>
        <time>2017-07-30T13:02:45Z</time>
      </trkpt>
      <trkpt lat="43.3228650782" lon="1.8993144482">
        <ele>178.94</ele>
        <time>2017-07-30T13:02:46Z</time>
      </trkpt>
      <trkpt lat="43.3228219952" lon="1.8994247541">
        <ele>178.46</ele>
        <time>2017-07-30T13:02:48Z</time>
      </trkpt>
      <trkpt lat="43.3225947618" lon="1.9002003316">
        <ele>178.46</ele>
        <time>2017-07-30T13:03:00Z</time>
      </trkpt>
      <trkpt lat="43.3223424666" lon="1.9009962771">
        <ele>177.98</ele>
        <time>2017-07-30T13:03:13Z</time>
      </trkpt>
      <trkpt lat="43.3222882356" lon="1.9012282882">
        <ele>177.98</ele>
        <time>2017-07-30T13:03:17Z</time>
      </trkpt>
      <trkpt lat="43.3222108707" lon="1.9018788077">
        <ele>177.98</ele>
        <time>2017-07-30T13:03:28Z</time>
      </trkpt>
      <trkpt lat="43.3221493475" lon="1.9023253117">
        <ele>177.98</ele>
        <time>2017-07-30T13:03:36Z</time>
      </trkpt>
      <trkpt lat="43.3221401274" lon="1.9025600888">
        <ele>177.50</ele>
        <time>2017-07-30T13:03:40Z</time>
      </trkpt>
      <trkpt lat="43.3221386187" lon="1.9026206899">
        <ele>177.50</ele>
        <time>2017-07-30T13:03:41Z</time>
      </trkpt>
      <trkpt lat="43.3221410494" lon="1.9026838895">
        <ele>177.50</ele>
        <time>2017-07-30T13:03:42Z</time>
      </trkpt>
      <trkpt lat="43.3221446536" lon="1.9028097019">
        <ele>177.50</ele>
        <time>2017-07-30T13:03:44Z</time>
      </trkpt>
      <trkpt lat="43.3221411332" lon="1.9028701354">
        <ele>177.50</ele>
        <time>2017-07-30T13:03:45Z</time>
      </trkpt>
      <trkpt lat="43.3221371099" lon="1.9029298984">
        <ele>177.50</ele>
        <time>2017-07-30T13:03:46Z</time>
      </trkpt>
      <trkpt lat="43.3221514430" lon="1.9035830162">
        <ele>177.98</ele>
        <time>2017-07-30T13:03:57Z</time>
      </trkpt>
      <trkpt lat="43.3221406303" lon="1.9040156901">
        <ele>177.98</ele>
        <time>2017-07-30T13:04:07Z</time>
      </trkpt>
      <trkpt lat="43.3220869023" lon="1.9044826459">
        <ele>177.98</ele>
        <time>2017-07-30T13:04:16Z</time>
      </trkpt>
      <trkpt lat="43.3219745010" lon="1.9050377794">
        <ele>178.46</ele>
        <time>2017-07-30T13:04:26Z</time>
      </trkpt>
      <trkpt lat="43.3219587430" lon="1.9051611610">
        <ele>178.46</ele>
        <time>2017-07-30T13:04:28Z</time>
      </trkpt>
      <trkpt lat="43.3219505288" lon="1.9052250311">
        <ele>178.46</ele>
        <time>2017-07-30T13:04:29Z</time>
      </trkpt>
      <trkpt lat="43.3219111338" lon="1.9054724649">
        <ele>178.46</ele>
        <time>2017-07-30T13:04:33Z</time>
      </trkpt>
      <trkpt lat="43.3218072820" lon="1.9061237387">
        <ele>178.46</ele>
        <time>2017-07-30T13:04:44Z</time>
      </trkpt>
      <trkpt lat="43.3217740897" lon="1.9063093141">
        <ele>178.46</ele>
        <time>2017-07-30T13:04:47Z</time>
      </trkpt>
      <trkpt lat="43.3217649534" lon="1.9063620362">
        <ele>178.46</ele>
        <time>2017-07-30T13:04:48Z</time>
      </trkpt>
      <trkpt lat="43.3217327669" lon="1.9065129943">
        <ele>178.46</ele>
        <time>2017-07-30T13:04:51Z</time>
      </trkpt>
      <trkpt lat="43.3217269834" lon="1.9065736793">
        <ele>178.46</ele>
        <time>2017-07-30T13:04:52Z</time>
      </trkpt>
      <trkpt lat="43.3217253070" lon="1.9066414889">
        <ele>178.46</ele>
        <time>2017-07-30T13:04:53Z</time>
      </trkpt>
      <trkpt lat="43.3217190206" lon="1.9067057781">
        <ele>178.46</ele>
        <time>2017-07-30T13:04:54Z</time>
      </trkpt>
      <trkpt lat="43.3217061125" lon="1.9067701511">
        <ele>178.46</ele>
        <time>2017-07-30T13:04:55Z</time>
      </trkpt>
      <trkpt lat="43.3216880914" lon="1.9068313390">
        <ele>178.46</ele>
        <time>2017-07-30T13:04:56Z</time>
      </trkpt>
      <trkpt lat="43.3216689806" lon="1.9068940356">
        <ele>178.46</ele>
        <time>2017-07-30T13:04:57Z</time>
      </trkpt>
      <trkpt lat="43.3216362074" lon="1.9070247933">
        <ele>178.46</ele>
        <time>2017-07-30T13:04:59Z</time>
      </trkpt>
      <trkpt lat="43.3216215391" lon="1.9070884120">
        <ele>177.98</ele>
        <time>2017-07-30T13:05:00Z</time>
      </trkpt>
      <trkpt lat="43.3216099720" lon="1.9071497675">
        <ele>177.98</ele>
        <time>2017-07-30T13:05:01Z</time>
      </trkpt>
      <trkpt lat="43.3215314336" lon="1.9075604808">
        <ele>178.46</ele>
        <time>2017-07-30T13:05:08Z</time>
      </trkpt>
      <trkpt lat="43.3214347903" lon="1.9081258401">
        <ele>178.46</ele>
        <time>2017-07-30T13:05:17Z</time>
      </trkpt>
      <trkpt lat="43.3213965688" lon="1.9085635431">
        <ele>178.46</ele>
        <time>2017-07-30T13:05:25Z</time>
      </trkpt>
      <trkpt lat="43.3213462774" lon="1.9090208597">
        <ele>178.46</ele>
        <time>2017-07-30T13:05:34Z</time>
      </trkpt>
      <trkpt lat="43.3211741131" lon="1.9096821081">
        <ele>178.94</ele>
        <time>2017-07-30T13:05:44Z</time>
      </trkpt>
      <trkpt lat="43.3210027870" lon="1.9101344794">
        <ele>178.94</ele>
        <time>2017-07-30T13:05:52Z</time>
      </trkpt>
      <trkpt lat="43.3208665811" lon="1.9106518943">
        <ele>178.94</ele>
        <time>2017-07-30T13:06:01Z</time>
      </trkpt>
      <trkpt lat="43.3208067343" lon="1.9109756034">
        <ele>179.42</ele>
        <time>2017-07-30T13:06:06Z</time>
      </trkpt>
      <trkpt lat="43.3207905572" lon="1.9110466819">
        <ele>179.42</ele>
        <time>2017-07-30T13:06:07Z</time>
      </trkpt>
      <trkpt lat="43.3207745478" lon="1.9111206103">
        <ele>179.42</ele>
        <time>2017-07-30T13:06:08Z</time>
      </trkpt>
      <trkpt lat="43.3207622264" lon="1.9111881685">
        <ele>179.42</ele>
        <time>2017-07-30T13:06:09Z</time>
      </trkpt>
      <trkpt lat="43.3207535930" lon="1.9112481829">
        <ele>179.42</ele>
        <time>2017-07-30T13:06:10Z</time>
      </trkpt>
      <trkpt lat="43.3207333088" lon="1.9113211054">
        <ele>179.42</ele>
        <time>2017-07-30T13:06:11Z</time>
      </trkpt>
      <trkpt lat="43.3207163773" lon="1.9113915134">
        <ele>179.42</ele>
        <time>2017-07-30T13:06:12Z</time>
      </trkpt>
      <trkpt lat="43.3207067382" lon="1.9114635978">
        <ele>179.42</ele>
        <time>2017-07-30T13:06:13Z</time>
      </trkpt>
      <trkpt lat="43.3206901420" lon="1.9116613269">
        <ele>179.42</ele>
        <time>2017-07-30T13:06:16Z</time>
      </trkpt>
      <trkpt lat="43.3206900582" lon="1.9117233530">
        <ele>179.42</ele>
        <time>2017-07-30T13:06:17Z</time>
      </trkpt>
      <trkpt lat="43.3207181375" lon="1.9120902289">
        <ele>179.42</ele>
        <time>2017-07-30T13:06:23Z</time>
      </trkpt>
      <trkpt lat="43.3207203168" lon="1.9121524226">
        <ele>179.42</ele>
        <time>2017-07-30T13:06:24Z</time>
      </trkpt>
      <trkpt lat="43.3207242563" lon="1.9122095872">
        <ele>179.42</ele>
        <time>2017-07-30T13:06:25Z</time>
      </trkpt>
      <trkpt lat="43.3207979333" lon="1.9128470309">
        <ele>179.42</ele>
        <time>2017-07-30T13:06:36Z</time>
      </trkpt>
      <trkpt lat="43.3207976818" lon="1.9129707478">
        <ele>179.42</ele>
        <time>2017-07-30T13:06:38Z</time>
      </trkpt>
      <trkpt lat="43.3208044712" lon="1.9130256493">
        <ele>179.42</ele>
        <time>2017-07-30T13:06:39Z</time>
      </trkpt>
      <trkpt lat="43.3208110929" lon="1.9130673911">
        <ele>179.42</ele>
        <time>2017-07-30T13:06:40Z</time>
      </trkpt>
      <trkpt lat="43.3208128531" lon="1.9130979013">
        <ele>179.42</ele>
        <time>2017-07-30T13:06:41Z</time>
      </trkpt>
      <trkpt lat="43.3208157029" lon="1.9131215382">
        <ele>179.42</ele>
        <time>2017-07-30T13:06:42Z</time>
      </trkpt>
      <trkpt lat="43.3208255097" lon="1.9131476060">
        <ele>179.42</ele>
        <time>2017-07-30T13:06:43Z</time>
      </trkpt>
      <trkpt lat="43.3208388370" lon="1.9131765235">
        <ele>179.42</ele>
        <time>2017-07-30T13:06:44Z</time>
      </trkpt>
      <trkpt lat="43.3208678383" lon="1.9134930242">
        <ele>179.42</ele>
        <time>2017-07-30T13:06:54Z</time>
      </trkpt>
      <trkpt lat="43.3208677545" lon="1.9138658512">
        <ele>178.94</ele>
        <time>2017-07-30T13:07:03Z</time>
      </trkpt>
      <trkpt lat="43.3208985161" lon="1.9142095931">
        <ele>177.98</ele>
        <time>2017-07-30T13:07:11Z</time>
      </trkpt>
      <trkpt lat="43.3209767193" lon="1.9145288598">
        <ele>177.02</ele>
        <time>2017-07-30T13:07:17Z</time>
      </trkpt>
      <trkpt lat="43.3209941536" lon="1.9145797379">
        <ele>177.50</ele>
        <time>2017-07-30T13:07:18Z</time>
      </trkpt>
      <trkpt lat="43.3210120909" lon="1.9146304484">
        <ele>179.90</ele>
        <time>2017-07-30T13:07:19Z</time>
      </trkpt>
      <trkpt lat="43.3210265916" lon="1.9146826677">
        <ele>175.10</ele>
        <time>2017-07-30T13:07:20Z</time>
      </trkpt>
      <trkpt lat="43.3210389130" lon="1.9147339649">
        <ele>178.94</ele>
        <time>2017-07-30T13:07:21Z</time>
      </trkpt>
      <trkpt lat="43.3210990950" lon="1.9150743540">
        <ele>177.50</ele>
        <time>2017-07-30T13:07:27Z</time>
      </trkpt>
      <trkpt lat="43.3211115841" lon="1.9151278306">
        <ele>177.02</ele>
        <time>2017-07-30T13:07:28Z</time>
      </trkpt>
      <trkpt lat="43.3212401625" lon="1.9156283140">
        <ele>178.46</ele>
        <time>2017-07-30T13:07:38Z</time>
      </trkpt>
      <trkpt lat="43.3212739415" lon="1.9157384522">
        <ele>177.50</ele>
        <time>2017-07-30T13:07:40Z</time>
      </trkpt>
      <trkpt lat="43.3213079721" lon="1.9158520270">
        <ele>177.50</ele>
        <time>2017-07-30T13:07:42Z</time>
      </trkpt>
      <trkpt lat="43.3213168569" lon="1.9159136340">
        <ele>177.98</ele>
        <time>2017-07-30T13:07:43Z</time>
      </trkpt>
      <trkpt lat="43.3213223889" lon="1.9159777556">
        <ele>177.50</ele>
        <time>2017-07-30T13:07:44Z</time>
      </trkpt>
      <trkpt lat="43.3213038649" lon="1.9163734652">
        <ele>177.50</ele>
        <time>2017-07-30T13:07:50Z</time>
      </trkpt>
      <trkpt lat="43.3212909568" lon="1.9164385088">
        <ele>177.98</ele>
        <time>2017-07-30T13:07:51Z</time>
      </trkpt>
      <trkpt lat="43.3212745283" lon="1.9165025465">
        <ele>177.50</ele>
        <time>2017-07-30T13:07:52Z</time>
      </trkpt>
      <trkpt lat="43.3211721014" lon="1.9169936422">
        <ele>177.50</ele>
        <time>2017-07-30T13:08:00Z</time>
      </trkpt>
      <trkpt lat="43.3211112488" lon="1.9172376394">
        <ele>177.50</ele>
        <time>2017-07-30T13:08:04Z</time>
      </trkpt>
      <trkpt lat="43.3210936468" lon="1.9173020124">
        <ele>177.02</ele>
        <time>2017-07-30T13:08:05Z</time>
      </trkpt>
      <trkpt lat="43.3210329618" lon="1.9175582472">
        <ele>177.50</ele>
        <time>2017-07-30T13:08:09Z</time>
      </trkpt>
      <trkpt lat="43.3210211433" lon="1.9176252186">
        <ele>177.50</ele>
        <time>2017-07-30T13:08:10Z</time>
      </trkpt>
      <trkpt lat="43.3208319638" lon="1.9183619879">
        <ele>177.50</ele>
        <time>2017-07-30T13:08:21Z</time>
      </trkpt>
      <trkpt lat="43.3206928242" lon="1.9191345479">
        <ele>177.50</ele>
        <time>2017-07-30T13:08:34Z</time>
      </trkpt>
      <trkpt lat="43.3206903934" lon="1.9192969892">
        <ele>177.50</ele>
        <time>2017-07-30T13:08:37Z</time>
      </trkpt>
      <trkpt lat="43.3206825145" lon="1.9193624519">
        <ele>177.50</ele>
        <time>2017-07-30T13:08:38Z</time>
      </trkpt>
      <trkpt lat="43.3206781559" lon="1.9194207899">
        <ele>177.50</ele>
        <time>2017-07-30T13:08:39Z</time>
      </trkpt>
      <trkpt lat="43.3206745517" lon="1.9194750208">
        <ele>177.50</ele>
        <time>2017-07-30T13:08:40Z</time>
      </trkpt>
      <trkpt lat="43.3206715342" lon="1.9195341133">
        <ele>177.98</ele>
        <time>2017-07-30T13:08:41Z</time>
      </trkpt>
      <trkpt lat="43.3206690196" lon="1.9196004141">
        <ele>177.98</ele>
        <time>2017-07-30T13:08:42Z</time>
      </trkpt>
      <trkpt lat="43.3206647448" lon="1.9196749292">
        <ele>177.98</ele>
        <time>2017-07-30T13:08:43Z</time>
      </trkpt>
      <trkpt lat="43.3206673432" lon="1.9201052561">
        <ele>177.98</ele>
        <time>2017-07-30T13:08:49Z</time>
      </trkpt>
      <trkpt lat="43.3206687681" lon="1.9201635104">
        <ele>177.98</ele>
        <time>2017-07-30T13:08:50Z</time>
      </trkpt>
      <trkpt lat="43.3206678461" lon="1.9202233572">
        <ele>177.98</ele>
        <time>2017-07-30T13:08:51Z</time>
      </trkpt>
      <trkpt lat="43.3207204007" lon="1.9207899738">
        <ele>177.50</ele>
        <time>2017-07-30T13:09:00Z</time>
      </trkpt>
      <trkpt lat="43.3207504917" lon="1.9209865294">
        <ele>177.50</ele>
        <time>2017-07-30T13:09:03Z</time>
      </trkpt>
      <trkpt lat="43.3207619749" lon="1.9211073965">
        <ele>177.50</ele>
        <time>2017-07-30T13:09:05Z</time>
      </trkpt>
      <trkpt lat="43.3208091650" lon="1.9213518128">
        <ele>177.98</ele>
        <time>2017-07-30T13:09:09Z</time>
      </trkpt>
      <trkpt lat="43.3209100831" lon="1.9217569102">
        <ele>177.50</ele>
        <time>2017-07-30T13:09:15Z</time>
      </trkpt>
      <trkpt lat="43.3210216463" lon="1.9223407097">
        <ele>177.50</ele>
        <time>2017-07-30T13:09:24Z</time>
      </trkpt>
      <trkpt lat="43.3210237417" lon="1.9224021491">
        <ele>177.50</ele>
        <time>2017-07-30T13:09:25Z</time>
      </trkpt>
      <trkpt lat="43.3210222330" lon="1.9225291349">
        <ele>177.50</ele>
        <time>2017-07-30T13:09:27Z</time>
      </trkpt>
      <trkpt lat="43.3210229874" lon="1.9225942623">
        <ele>177.50</ele>
        <time>2017-07-30T13:09:28Z</time>
      </trkpt>
      <trkpt lat="43.3210202213" lon="1.9226588029">
        <ele>177.98</ele>
        <time>2017-07-30T13:09:29Z</time>
      </trkpt>
      <trkpt lat="43.3209047187" lon="1.9231706858">
        <ele>177.98</ele>
        <time>2017-07-30T13:09:39Z</time>
      </trkpt>
      <trkpt lat="43.3207885455" lon="1.9236673974">
        <ele>177.50</ele>
        <time>2017-07-30T13:09:48Z</time>
      </trkpt>
      <trkpt lat="43.3206815086" lon="1.9240035117">
        <ele>177.50</ele>
        <time>2017-07-30T13:09:52Z</time>
      </trkpt>
      <trkpt lat="43.3205819316" lon="1.9246469066">
        <ele>177.50</ele>
        <time>2017-07-30T13:10:02Z</time>
      </trkpt>
      <trkpt lat="43.3205664251" lon="1.9247802626">
        <ele>177.50</ele>
        <time>2017-07-30T13:10:04Z</time>
      </trkpt>
      <trkpt lat="43.3205548581" lon="1.9249323104">
        <ele>177.50</ele>
        <time>2017-07-30T13:10:06Z</time>
      </trkpt>
      <trkpt lat="43.3205444645" lon="1.9250079989">
        <ele>177.98</ele>
        <time>2017-07-30T13:10:07Z</time>
      </trkpt>
      <trkpt lat="43.3205333166" lon="1.9250852801">
        <ele>177.98</ele>
        <time>2017-07-30T13:10:08Z</time>
      </trkpt>
      <trkpt lat="43.3204492461" lon="1.9256379828">
        <ele>178.46</ele>
        <time>2017-07-30T13:10:14Z</time>
      </trkpt>
      <trkpt lat="43.3204310574" lon="1.9257268310">
        <ele>178.46</ele>
        <time>2017-07-30T13:10:15Z</time>
      </trkpt>
      <trkpt lat="43.3203999605" lon="1.9259603508">
        <ele>177.98</ele>
        <time>2017-07-30T13:10:18Z</time>
      </trkpt>
      <trkpt lat="43.3203955181" lon="1.9260286633">
        <ele>177.98</ele>
        <time>2017-07-30T13:10:19Z</time>
      </trkpt>
      <trkpt lat="43.3203029819" lon="1.9266454037">
        <ele>177.50</ele>
        <time>2017-07-30T13:10:29Z</time>
      </trkpt>
      <trkpt lat="43.3202885650" lon="1.9267658517">
        <ele>177.98</ele>
        <time>2017-07-30T13:10:31Z</time>
      </trkpt>
      <trkpt lat="43.3202253655" lon="1.9273487292">
        <ele>177.50</ele>
        <time>2017-07-30T13:10:40Z</time>
      </trkpt>
      <trkpt lat="43.3201894909" lon="1.9277771283">
        <ele>177.98</ele>
        <time>2017-07-30T13:10:47Z</time>
      </trkpt>
      <trkpt lat="43.3201485034" lon="1.9281541463">
        <ele>177.50</ele>
        <time>2017-07-30T13:10:54Z</time>
      </trkpt>
      <trkpt lat="43.3201225195" lon="1.9284330960">
        <ele>177.98</ele>
        <time>2017-07-30T13:10:59Z</time>
      </trkpt>
      <trkpt lat="43.3201010618" lon="1.9285588246">
        <ele>177.98</ele>
        <time>2017-07-30T13:11:01Z</time>
      </trkpt>
      <trkpt lat="43.3200941049" lon="1.9286211021">
        <ele>177.98</ele>
        <time>2017-07-30T13:11:02Z</time>
      </trkpt>
      <trkpt lat="43.3200866450" lon="1.9286835473">
        <ele>177.98</ele>
        <time>2017-07-30T13:11:03Z</time>
      </trkpt>
      <trkpt lat="43.3200762514" lon="1.9287521951">
        <ele>177.98</ele>
        <time>2017-07-30T13:11:04Z</time>
      </trkpt>
      <trkpt lat="43.3200569730" lon="1.9288195018">
        <ele>178.46</ele>
        <time>2017-07-30T13:11:05Z</time>
      </trkpt>
      <trkpt lat="43.3200364374" lon="1.9288889877">
        <ele>178.46</ele>
        <time>2017-07-30T13:11:06Z</time>
      </trkpt>
      <trkpt lat="43.3200212661" lon="1.9289609045">
        <ele>178.46</ele>
        <time>2017-07-30T13:11:07Z</time>
      </trkpt>
      <trkpt lat="43.3198948670" lon="1.9296164531">
        <ele>175.10</ele>
        <time>2017-07-30T13:11:16Z</time>
      </trkpt>
      <trkpt lat="43.3198884130" lon="1.9296939857">
        <ele>179.42</ele>
        <time>2017-07-30T13:11:17Z</time>
      </trkpt>
      <trkpt lat="43.3198786061" lon="1.9297722727">
        <ele>177.98</ele>
        <time>2017-07-30T13:11:18Z</time>
      </trkpt>
      <trkpt lat="43.3197340183" lon="1.9304671325">
        <ele>177.98</ele>
        <time>2017-07-30T13:11:28Z</time>
      </trkpt>
      <trkpt lat="43.3197209425" lon="1.9305358641">
        <ele>177.98</ele>
        <time>2017-07-30T13:11:29Z</time>
      </trkpt>
      <trkpt lat="43.3197077829" lon="1.9306038413">
        <ele>178.94</ele>
        <time>2017-07-30T13:11:30Z</time>
      </trkpt>
      <trkpt lat="43.3196679689" lon="1.9308008160">
        <ele>178.46</ele>
        <time>2017-07-30T13:11:33Z</time>
      </trkpt>
      <trkpt lat="43.3196481038" lon="1.9309301488">
        <ele>178.46</ele>
        <time>2017-07-30T13:11:35Z</time>
      </trkpt>
      <trkpt lat="43.3196076192" lon="1.9310674444">
        <ele>177.98</ele>
        <time>2017-07-30T13:11:37Z</time>
      </trkpt>
      <trkpt lat="43.3195950463" lon="1.9311412890">
        <ele>178.46</ele>
        <time>2017-07-30T13:11:38Z</time>
      </trkpt>
      <trkpt lat="43.3195853233" lon="1.9312120322">
        <ele>178.46</ele>
        <time>2017-07-30T13:11:39Z</time>
      </trkpt>
      <trkpt lat="43.3195728343" lon="1.9312738907">
        <ele>177.98</ele>
        <time>2017-07-30T13:11:40Z</time>
      </trkpt>
      <trkpt lat="43.3195594233" lon="1.9313336536">
        <ele>177.98</ele>
        <time>2017-07-30T13:11:41Z</time>
      </trkpt>
      <trkpt lat="43.3195455931" lon="1.9313948415">
        <ele>178.46</ele>
        <time>2017-07-30T13:11:42Z</time>
      </trkpt>
      <trkpt lat="43.3195112273" lon="1.9315733761">
        <ele>178.46</ele>
        <time>2017-07-30T13:11:45Z</time>
      </trkpt>
      <trkpt lat="43.3195056114" lon="1.9316378329">
        <ele>178.46</ele>
        <time>2017-07-30T13:11:46Z</time>
      </trkpt>
      <trkpt lat="43.3194982354" lon="1.9317014515">
        <ele>178.46</ele>
        <time>2017-07-30T13:11:47Z</time>
      </trkpt>
      <trkpt lat="43.3194850758" lon="1.9317629747">
        <ele>178.46</ele>
        <time>2017-07-30T13:11:48Z</time>
      </trkpt>
      <trkpt lat="43.3194683958" lon="1.9318212289">
        <ele>178.46</ele>
        <time>2017-07-30T13:11:49Z</time>
      </trkpt>
      <trkpt lat="43.3194506261" lon="1.9318783097">
        <ele>178.46</ele>
        <time>2017-07-30T13:11:50Z</time>
      </trkpt>
      <trkpt lat="43.3194330242" lon="1.9319322053">
        <ele>178.46</ele>
        <time>2017-07-30T13:11:51Z</time>
      </trkpt>
      <trkpt lat="43.3194150031" lon="1.9319840893">
        <ele>178.46</ele>
        <time>2017-07-30T13:11:52Z</time>
      </trkpt>
      <trkpt lat="43.3192675654" lon="1.9323687349">
        <ele>178.94</ele>
        <time>2017-07-30T13:11:59Z</time>
      </trkpt>
      <trkpt lat="43.3192155138" lon="1.9324668869">
        <ele>178.46</ele>
        <time>2017-07-30T13:12:01Z</time>
      </trkpt>
      <trkpt lat="43.3189665712" lon="1.9328193460">
        <ele>178.94</ele>
        <time>2017-07-30T13:12:10Z</time>
      </trkpt>
      <trkpt lat="43.3187587000" lon="1.9331096113">
        <ele>178.94</ele>
        <time>2017-07-30T13:12:17Z</time>
      </trkpt>
      <trkpt lat="43.3184844442" lon="1.9334795885">
        <ele>179.42</ele>
        <time>2017-07-30T13:12:26Z</time>
      </trkpt>
      <trkpt lat="43.3182479069" lon="1.9337997772">
        <ele>179.90</ele>
        <time>2017-07-30T13:12:31Z</time>
      </trkpt>
      <trkpt lat="43.3182029799" lon="1.9338673353">
        <ele>179.42</ele>
        <time>2017-07-30T13:12:32Z</time>
      </trkpt>
      <trkpt lat="43.3181520179" lon="1.9339327980">
        <ele>179.42</ele>
        <time>2017-07-30T13:12:33Z</time>
      </trkpt>
      <trkpt lat="43.3181080129" lon="1.9339970034">
        <ele>179.42</ele>
        <time>2017-07-30T13:12:34Z</time>
      </trkpt>
      <trkpt lat="43.3180694561" lon="1.9340614602">
        <ele>179.42</ele>
        <time>2017-07-30T13:12:35Z</time>
      </trkpt>
      <trkpt lat="43.3179884870" lon="1.9342832454">
        <ele>179.42</ele>
        <time>2017-07-30T13:12:38Z</time>
      </trkpt>
      <trkpt lat="43.3179024048" lon="1.9347700663">
        <ele>179.42</ele>
        <time>2017-07-30T13:12:43Z</time>
      </trkpt>
      <trkpt lat="43.3179156482" lon="1.9349978864">
        <ele>179.42</ele>
        <time>2017-07-30T13:12:46Z</time>
      </trkpt>
      <trkpt lat="43.3179588150" lon="1.9351834618">
        <ele>179.42</ele>
        <time>2017-07-30T13:12:49Z</time>
      </trkpt>
      <trkpt lat="43.3179915883" lon="1.9353060890">
        <ele>179.42</ele>
        <time>2017-07-30T13:12:51Z</time>
      </trkpt>
      <trkpt lat="43.3180112019" lon="1.9353641756">
        <ele>179.42</ele>
        <time>2017-07-30T13:12:52Z</time>
      </trkpt>
      <trkpt lat="43.3180439752" lon="1.9354873896">
        <ele>179.90</ele>
        <time>2017-07-30T13:12:54Z</time>
      </trkpt>
      <trkpt lat="43.3180586435" lon="1.9355529360">
        <ele>179.42</ele>
        <time>2017-07-30T13:12:55Z</time>
      </trkpt>
      <trkpt lat="43.3180717193" lon="1.9356153812">
        <ele>179.90</ele>
        <time>2017-07-30T13:12:56Z</time>
      </trkpt>
      <trkpt lat="43.3180782571" lon="1.9356792513">
        <ele>179.90</ele>
        <time>2017-07-30T13:12:57Z</time>
      </trkpt>
      <trkpt lat="43.3180770837" lon="1.9357478991">
        <ele>179.90</ele>
        <time>2017-07-30T13:12:58Z</time>
      </trkpt>
      <trkpt lat="43.3180619963" lon="1.9359262660">
        <ele>179.90</ele>
        <time>2017-07-30T13:13:01Z</time>
      </trkpt>
      <trkpt lat="43.3180494234" lon="1.9359863643">
        <ele>179.90</ele>
        <time>2017-07-30T13:13:02Z</time>
      </trkpt>
      <trkpt lat="43.3180147223" lon="1.9361175410">
        <ele>179.90</ele>
        <time>2017-07-30T13:13:04Z</time>
      </trkpt>
      <trkpt lat="43.3179325797" lon="1.9363739435">
        <ele>179.90</ele>
        <time>2017-07-30T13:13:08Z</time>
      </trkpt>
      <trkpt lat="43.3179129660" lon="1.9364372268">
        <ele>179.90</ele>
        <time>2017-07-30T13:13:09Z</time>
      </trkpt>
      <trkpt lat="43.3177061006" lon="1.9370895904">
        <ele>179.90</ele>
        <time>2017-07-30T13:13:19Z</time>
      </trkpt>
      <trkpt lat="43.3176749200" lon="1.9372185878">
        <ele>179.90</ele>
        <time>2017-07-30T13:13:21Z</time>
      </trkpt>
      <trkpt lat="43.3175974712" lon="1.9375847094">
        <ele>179.42</ele>
        <time>2017-07-30T13:13:27Z</time>
      </trkpt>
      <trkpt lat="43.3175921068" lon="1.9376472384">
        <ele>179.42</ele>
        <time>2017-07-30T13:13:28Z</time>
      </trkpt>
      <trkpt lat="43.3175849821" lon="1.9377109408">
        <ele>179.42</ele>
        <time>2017-07-30T13:13:29Z</time>
      </trkpt>
      <trkpt lat="43.3175756782" lon="1.9377729669">
        <ele>180.38</ele>
        <time>2017-07-30T13:13:30Z</time>
      </trkpt>
      <trkpt lat="43.3175696433" lon="1.9378349092">
        <ele>179.90</ele>
        <time>2017-07-30T13:13:31Z</time>
      </trkpt>
      <trkpt lat="43.3174618520" lon="1.9383695070">
        <ele>180.38</ele>
        <time>2017-07-30T13:13:40Z</time>
      </trkpt>
      <trkpt lat="43.3174407296" lon="1.9384337123">
        <ele>179.90</ele>
        <time>2017-07-30T13:13:41Z</time>
      </trkpt>
      <trkpt lat="43.3174165059" lon="1.9384915475">
        <ele>179.90</ele>
        <time>2017-07-30T13:13:42Z</time>
      </trkpt>
      <trkpt lat="43.3173906058" lon="1.9385488797">
        <ele>179.90</ele>
        <time>2017-07-30T13:13:43Z</time>
      </trkpt>
      <trkpt lat="43.3173618559" lon="1.9386029430">
        <ele>179.90</ele>
        <time>2017-07-30T13:13:44Z</time>
      </trkpt>
      <trkpt lat="43.3173295856" lon="1.9386505522">
        <ele>179.90</ele>
        <time>2017-07-30T13:13:45Z</time>
      </trkpt>
      <trkpt lat="43.3172931243" lon="1.9386918750">
        <ele>179.42</ele>
        <time>2017-07-30T13:13:46Z</time>
      </trkpt>
      <trkpt lat="43.3172595967" lon="1.9387344550">
        <ele>179.90</ele>
        <time>2017-07-30T13:13:47Z</time>
      </trkpt>
      <trkpt lat="43.3172274940" lon="1.9387822319">
        <ele>179.42</ele>
        <time>2017-07-30T13:13:48Z</time>
      </trkpt>
      <trkpt lat="43.3171922900" lon="1.9388279971">
        <ele>179.42</ele>
        <time>2017-07-30T13:13:49Z</time>
      </trkpt>
      <trkpt lat="43.3171593491" lon="1.9388708286">
        <ele>179.42</ele>
        <time>2017-07-30T13:13:50Z</time>
      </trkpt>
      <trkpt lat="43.3171270788" lon="1.9389118999">
        <ele>179.42</ele>
        <time>2017-07-30T13:13:51Z</time>
      </trkpt>
      <trkpt lat="43.3170544915" lon="1.9389876723">
        <ele>179.90</ele>
        <time>2017-07-30T13:13:53Z</time>
      </trkpt>
      <trkpt lat="43.3169833291" lon="1.9390720781">
        <ele>179.90</ele>
        <time>2017-07-30T13:13:55Z</time>
      </trkpt>
      <trkpt lat="43.3166947402" lon="1.9394082762">
        <ele>179.90</ele>
        <time>2017-07-30T13:14:03Z</time>
      </trkpt>
      <trkpt lat="43.3165861946" lon="1.9395217672">
        <ele>179.90</ele>
        <time>2017-07-30T13:14:06Z</time>
      </trkpt>
      <trkpt lat="43.3165504038" lon="1.9395526126">
        <ele>179.90</ele>
        <time>2017-07-30T13:14:07Z</time>
      </trkpt>
      <trkpt lat="43.3165201452" lon="1.9395915885">
        <ele>179.90</ele>
        <time>2017-07-30T13:14:08Z</time>
      </trkpt>
      <trkpt lat="43.3163422812" lon="1.9398071710">
        <ele>179.90</ele>
        <time>2017-07-30T13:14:13Z</time>
      </trkpt>
      <trkpt lat="43.3163032215" lon="1.9398428779">
        <ele>179.90</ele>
        <time>2017-07-30T13:14:14Z</time>
      </trkpt>
      <trkpt lat="43.3162706997" lon="1.9398748968">
        <ele>179.90</ele>
        <time>2017-07-30T13:14:15Z</time>
      </trkpt>
      <trkpt lat="43.3160013054" lon="1.9401572831">
        <ele>180.38</ele>
        <time>2017-07-30T13:14:23Z</time>
      </trkpt>
      <trkpt lat="43.3158241119" lon="1.9402904715">
        <ele>180.38</ele>
        <time>2017-07-30T13:14:27Z</time>
      </trkpt>
      <trkpt lat="43.3157727309" lon="1.9403197244">
        <ele>179.90</ele>
        <time>2017-07-30T13:14:28Z</time>
      </trkpt>
      <trkpt lat="43.3157256246" lon="1.9403470494">
        <ele>179.90</ele>
        <time>2017-07-30T13:14:29Z</time>
      </trkpt>
      <trkpt lat="43.3156776801" lon="1.9403684232">
        <ele>179.90</ele>
        <time>2017-07-30T13:14:30Z</time>
      </trkpt>
      <trkpt lat="43.3156315796" lon="1.9403911382">
        <ele>179.90</ele>
        <time>2017-07-30T13:14:31Z</time>
      </trkpt>
      <trkpt lat="43.3155868202" lon="1.9404195528">
        <ele>179.90</ele>
        <time>2017-07-30T13:14:32Z</time>
      </trkpt>
      <trkpt lat="43.3155389596" lon="1.9404512364">
        <ele>179.42</ele>
        <time>2017-07-30T13:14:33Z</time>
      </trkpt>
      <trkpt lat="43.3152132388" lon="1.9407341257">
        <ele>180.38</ele>
        <time>2017-07-30T13:14:41Z</time>
      </trkpt>
      <trkpt lat="43.3149606921" lon="1.9410699047">
        <ele>179.90</ele>
        <time>2017-07-30T13:14:49Z</time>
      </trkpt>
      <trkpt lat="43.3146770485" lon="1.9414838869">
        <ele>180.38</ele>
        <time>2017-07-30T13:14:57Z</time>
      </trkpt>
      <trkpt lat="43.3143419400" lon="1.9420555327">
        <ele>180.38</ele>
        <time>2017-07-30T13:15:05Z</time>
      </trkpt>
      <trkpt lat="43.3139769081" lon="1.9426547550">
        <ele>180.38</ele>
        <time>2017-07-30T13:15:16Z</time>
      </trkpt>
      <trkpt lat="43.3139503375" lon="1.9427117519">
        <ele>180.38</ele>
        <time>2017-07-30T13:15:17Z</time>
      </trkpt>
      <trkpt lat="43.3139221743" lon="1.9427697547">
        <ele>180.38</ele>
        <time>2017-07-30T13:15:18Z</time>
      </trkpt>
      <trkpt lat="43.3138941787" lon="1.9428275060">
        <ele>180.38</ele>
        <time>2017-07-30T13:15:19Z</time>
      </trkpt>
      <trkpt lat="43.3138668537" lon="1.9428857602">
        <ele>180.38</ele>
        <time>2017-07-30T13:15:20Z</time>
      </trkpt>
      <trkpt lat="43.3137721382" lon="1.9430529792">
        <ele>180.38</ele>
        <time>2017-07-30T13:15:23Z</time>
      </trkpt>
      <trkpt lat="43.3137457352" lon="1.9431081321">
        <ele>180.38</ele>
        <time>2017-07-30T13:15:24Z</time>
      </trkpt>
      <trkpt lat="43.3136635926" lon="1.9433245528">
        <ele>180.38</ele>
        <time>2017-07-30T13:15:28Z</time>
      </trkpt>
      <trkpt lat="43.3136469126" lon="1.9433771074">
        <ele>180.38</ele>
        <time>2017-07-30T13:15:29Z</time>
      </trkpt>
      <trkpt lat="43.3136355132" lon="1.9434266444">
        <ele>181.35</ele>
        <time>2017-07-30T13:15:30Z</time>
      </trkpt>
      <trkpt lat="43.3135459945" lon="1.9439184107">
        <ele>180.38</ele>
        <time>2017-07-30T13:15:39Z</time>
      </trkpt>
      <trkpt lat="43.3135138080" lon="1.9440926705">
        <ele>180.38</ele>
        <time>2017-07-30T13:15:42Z</time>
      </trkpt>
      <trkpt lat="43.3134946972" lon="1.9441535231">
        <ele>180.38</ele>
        <time>2017-07-30T13:15:43Z</time>
      </trkpt>
      <trkpt lat="43.3134718984" lon="1.9442115258">
        <ele>180.38</ele>
        <time>2017-07-30T13:15:44Z</time>
      </trkpt>
      <trkpt lat="43.3134041727" lon="1.9443697762">
        <ele>180.38</ele>
        <time>2017-07-30T13:15:47Z</time>
      </trkpt>
      <trkpt lat="43.3133264724" lon="1.9444987737">
        <ele>180.38</ele>
        <time>2017-07-30T13:15:50Z</time>
      </trkpt>
      <trkpt lat="43.3130632807" lon="1.9448690861">
        <ele>179.90</ele>
        <time>2017-07-30T13:15:59Z</time>
      </trkpt>
      <trkpt lat="43.3128958941" lon="1.9452878460">
        <ele>180.38</ele>
        <time>2017-07-30T13:16:07Z</time>
      </trkpt>
      <trkpt lat="43.3127298485" lon="1.9459109567">
        <ele>180.87</ele>
        <time>2017-07-30T13:16:17Z</time>
      </trkpt>
      <trkpt lat="43.3127507195" lon="1.9463776611">
        <ele>181.83</ele>
        <time>2017-07-30T13:16:25Z</time>
      </trkpt>
      <trkpt lat="43.3127978258" lon="1.9468317088">
        <ele>180.87</ele>
        <time>2017-07-30T13:16:34Z</time>
      </trkpt>
      <trkpt lat="43.3128544036" lon="1.9470031187">
        <ele>180.38</ele>
        <time>2017-07-30T13:16:37Z</time>
      </trkpt>
      <trkpt lat="43.3129756898" lon="1.9473383948">
        <ele>180.87</ele>
        <time>2017-07-30T13:16:43Z</time>
      </trkpt>
      <trkpt lat="43.3129995782" lon="1.9473969843">
        <ele>180.38</ele>
        <time>2017-07-30T13:16:44Z</time>
      </trkpt>
      <trkpt lat="43.3130191918" lon="1.9474575017">
        <ele>180.38</ele>
        <time>2017-07-30T13:16:45Z</time>
      </trkpt>
      <trkpt lat="43.3130395599" lon="1.9475083798">
        <ele>180.38</ele>
        <time>2017-07-30T13:16:46Z</time>
      </trkpt>
      <trkpt lat="43.3130622748" lon="1.9475568272">
        <ele>180.38</ele>
        <time>2017-07-30T13:16:47Z</time>
      </trkpt>
      <trkpt lat="43.3132578246" lon="1.9479032513">
        <ele>179.90</ele>
        <time>2017-07-30T13:16:55Z</time>
      </trkpt>
      <trkpt lat="43.3134421427" lon="1.9481362682">
        <ele>179.42</ele>
        <time>2017-07-30T13:17:02Z</time>
      </trkpt>
      <trkpt lat="43.3137670252" lon="1.9482935965">
        <ele>179.90</ele>
        <time>2017-07-30T13:17:10Z</time>
      </trkpt>
      <trkpt lat="43.3140249364" lon="1.9482786767">
        <ele>179.90</ele>
        <time>2017-07-30T13:17:17Z</time>
      </trkpt>
      <trkpt lat="43.3142034709" lon="1.9483045768">
        <ele>179.90</ele>
        <time>2017-07-30T13:17:22Z</time>
      </trkpt>
      <trkpt lat="43.3142349869" lon="1.9483098574">
        <ele>179.90</ele>
        <time>2017-07-30T13:17:23Z</time>
      </trkpt>
      <trkpt lat="43.3142716158" lon="1.9483124558">
        <ele>180.38</ele>
        <time>2017-07-30T13:17:24Z</time>
      </trkpt>
      <trkpt lat="43.3143054787" lon="1.9483168144">
        <ele>180.38</ele>
        <time>2017-07-30T13:17:25Z</time>
      </trkpt>
      <trkpt lat="43.3143361565" lon="1.9483193289">
        <ele>179.90</ele>
        <time>2017-07-30T13:17:26Z</time>
      </trkpt>
      <trkpt lat="43.3143607993" lon="1.9483215921">
        <ele>180.38</ele>
        <time>2017-07-30T13:17:27Z</time>
      </trkpt>
      <trkpt lat="43.3143808320" lon="1.9483220950">
        <ele>179.90</ele>
        <time>2017-07-30T13:17:28Z</time>
      </trkpt>
      <trkpt lat="43.3144036308" lon="1.9483263697">
        <ele>179.90</ele>
        <time>2017-07-30T13:17:29Z</time>
      </trkpt>
      <trkpt lat="43.3144390024" lon="1.9483399484">
        <ele>180.87</ele>
        <time>2017-07-30T13:17:30Z</time>
      </trkpt>
      <trkpt lat="43.3144625556" lon="1.9483505934">
        <ele>180.38</ele>
        <time>2017-07-30T13:17:31Z</time>
      </trkpt>
      <trkpt lat="43.3145308681" lon="1.9483422954">
        <ele>180.38</ele>
        <time>2017-07-30T13:17:36Z</time>
      </trkpt>
      <trkpt lat="43.3145487215" lon="1.9483404513">
        <ele>180.38</ele>
        <time>2017-07-30T13:17:37Z</time>
      </trkpt>
      <trkpt lat="43.3145659883" lon="1.9483431336">
        <ele>180.38</ele>
        <time>2017-07-30T13:17:38Z</time>
      </trkpt>
      <trkpt lat="43.3145913854" lon="1.9483492523">
        <ele>180.38</ele>
        <time>2017-07-30T13:17:39Z</time>
      </trkpt>
      <trkpt lat="43.3146115020" lon="1.9483572152">
        <ele>180.38</ele>
        <time>2017-07-30T13:17:40Z</time>
      </trkpt>
      <trkpt lat="43.3146262541" lon="1.9483692851">
        <ele>180.38</ele>
        <time>2017-07-30T13:17:41Z</time>
      </trkpt>
      <trkpt lat="43.3146406710" lon="1.9483847916">
        <ele>179.90</ele>
        <time>2017-07-30T13:17:42Z</time>
      </trkpt>
      <trkpt lat="43.3146868553" lon="1.9484163914">
        <ele>179.90</ele>
        <time>2017-07-30T13:17:50Z</time>
      </trkpt>
      <trkpt lat="43.3146862686" lon="1.9484231807">
        <ele>179.90</ele>
        <time>2017-07-30T13:18:07Z</time>
      </trkpt>
      <trkpt lat="43.3147201315" lon="1.9484100211">
        <ele>180.38</ele>
        <time>2017-07-30T13:18:28Z</time>
      </trkpt>
      <trkpt lat="43.3147322852" lon="1.9484381843">
        <ele>180.38</ele>
        <time>2017-07-30T13:18:55Z</time>
      </trkpt>
      <trkpt lat="43.3147621248" lon="1.9484446384">
        <ele>180.38</ele>
        <time>2017-07-30T13:19:22Z</time>
      </trkpt>
      <trkpt lat="43.3147437684" lon="1.9484593906">
        <ele>179.90</ele>
        <time>2017-07-30T13:19:48Z</time>
      </trkpt>
      <trkpt lat="43.3147399966" lon="1.9484494999">
        <ele>179.90</ele>
        <time>2017-07-30T13:20:08Z</time>
      </trkpt>
      <trkpt lat="43.3147313632" lon="1.9484340772">
        <ele>179.90</ele>
        <time>2017-07-30T13:20:21Z</time>
      </trkpt>
      <trkpt lat="43.3147243224" lon="1.9484338257">
        <ele>179.90</ele>
        <time>2017-07-30T13:20:37Z</time>
      </trkpt>
      <trkpt lat="43.3147223946" lon="1.9484365918">
        <ele>179.90</ele>
        <time>2017-07-30T13:20:48Z</time>
      </trkpt>
      <trkpt lat="43.3147223946" lon="1.9484400284">
        <ele>179.42</ele>
        <time>2017-07-30T13:21:00Z</time>
      </trkpt>
      <trkpt lat="43.3147126716" lon="1.9484500028">
        <ele>179.90</ele>
        <time>2017-07-30T13:21:23Z</time>
      </trkpt>
      <trkpt lat="43.3147164434" lon="1.9484483264">
        <ele>179.90</ele>
        <time>2017-07-30T13:21:45Z</time>
      </trkpt>
      <trkpt lat="43.3147132583" lon="1.9484426267">
        <ele>179.90</ele>
        <time>2017-07-30T13:21:58Z</time>
      </trkpt>
      <trkpt lat="43.3147031162" lon="1.9484418724">
        <ele>179.42</ele>
        <time>2017-07-30T13:22:09Z</time>
      </trkpt>
      <trkpt lat="43.3146836702" lon="1.9484449737">
        <ele>179.90</ele>
        <time>2017-07-30T13:22:25Z</time>
      </trkpt>
      <trkpt lat="43.3146700915" lon="1.9484505057">
        <ele>179.42</ele>
        <time>2017-07-30T13:22:30Z</time>
      </trkpt>
      <trkpt lat="43.3146560099" lon="1.9484546129">
        <ele>178.94</ele>
        <time>2017-07-30T13:22:31Z</time>
      </trkpt>
      <trkpt lat="43.3146335464" lon="1.9484620728">
        <ele>179.42</ele>
        <time>2017-07-30T13:22:32Z</time>
      </trkpt>
      <trkpt lat="43.3146203030" lon="1.9484803453">
        <ele>178.94</ele>
        <time>2017-07-30T13:22:33Z</time>
      </trkpt>
      <trkpt lat="43.3146068919" lon="1.9485020544">
        <ele>179.42</ele>
        <time>2017-07-30T13:22:34Z</time>
      </trkpt>
      <trkpt lat="43.3145872783" lon="1.9485233445">
        <ele>178.94</ele>
        <time>2017-07-30T13:22:35Z</time>
      </trkpt>
      <trkpt lat="43.3145638090" lon="1.9485463109">
        <ele>178.94</ele>
        <time>2017-07-30T13:22:36Z</time>
      </trkpt>
      <trkpt lat="43.3145370707" lon="1.9485717919">
        <ele>178.94</ele>
        <time>2017-07-30T13:22:37Z</time>
      </trkpt>
      <trkpt lat="43.3145089913" lon="1.9485996198">
        <ele>178.94</ele>
        <time>2017-07-30T13:22:38Z</time>
      </trkpt>
      <trkpt lat="43.3144834265" lon="1.9486333150">
        <ele>178.94</ele>
        <time>2017-07-30T13:22:39Z</time>
      </trkpt>
      <trkpt lat="43.3144628070" lon="1.9486741349">
        <ele>178.94</ele>
        <time>2017-07-30T13:22:40Z</time>
      </trkpt>
      <trkpt lat="43.3143190574" lon="1.9488679245">
        <ele>178.46</ele>
        <time>2017-07-30T13:22:46Z</time>
      </trkpt>
      <trkpt lat="43.3143074904" lon="1.9488587882">
        <ele>178.46</ele>
        <time>2017-07-30T13:22:47Z</time>
      </trkpt>
      <trkpt lat="43.3143024612" lon="1.9488452934">
        <ele>178.94</ele>
        <time>2017-07-30T13:22:48Z</time>
      </trkpt>
      <trkpt lat="43.3143027965" lon="1.9488304574">
        <ele>178.46</ele>
        <time>2017-07-30T13:22:58Z</time>
      </trkpt>
      <trkpt lat="43.3143002819" lon="1.9488237519">
        <ele>178.46</ele>
        <time>2017-07-30T13:23:13Z</time>
      </trkpt>
      <trkpt lat="43.3143136092" lon="1.9488040544">
        <ele>178.94</ele>
        <time>2017-07-30T13:23:16Z</time>
      </trkpt>
      <trkpt lat="43.3143230807" lon="1.9487872068">
        <ele>178.94</ele>
        <time>2017-07-30T13:23:17Z</time>
      </trkpt>
      <trkpt lat="43.3143336419" lon="1.9487665873">
        <ele>178.94</ele>
        <time>2017-07-30T13:23:18Z</time>
      </trkpt>
      <trkpt lat="43.3143431973" lon="1.9487439562">
        <ele>179.42</ele>
        <time>2017-07-30T13:23:19Z</time>
      </trkpt>
      <trkpt lat="43.3143496513" lon="1.9487202354">
        <ele>179.90</ele>
        <time>2017-07-30T13:23:20Z</time>
      </trkpt>
      <trkpt lat="43.3144214004" lon="1.9485141244">
        <ele>182.79</ele>
        <time>2017-07-30T13:23:28Z</time>
      </trkpt>
      <trkpt lat="43.3144186344" lon="1.9484888110">
        <ele>183.27</ele>
        <time>2017-07-30T13:23:29Z</time>
      </trkpt>
      <trkpt lat="43.3144084085" lon="1.9484656770">
        <ele>183.27</ele>
        <time>2017-07-30T13:23:30Z</time>
      </trkpt>
      <trkpt lat="43.3144019544" lon="1.9484459795">
        <ele>184.71</ele>
        <time>2017-07-30T13:23:31Z</time>
      </trkpt>
      <trkpt lat="43.3144039661" lon="1.9484271202">
        <ele>184.23</ele>
        <time>2017-07-30T13:23:32Z</time>
      </trkpt>
      <trkpt lat="43.3144098334" lon="1.9484036509">
        <ele>184.23</ele>
        <time>2017-07-30T13:23:33Z</time>
      </trkpt>
      <trkpt lat="43.3144136053" lon="1.9483781699">
        <ele>184.71</ele>
        <time>2017-07-30T13:23:34Z</time>
      </trkpt>
      <trkpt lat="43.3144162036" lon="1.9483495038">
        <ele>184.71</ele>
        <time>2017-07-30T13:23:35Z</time>
      </trkpt>
      <trkpt lat="43.3144237474" lon="1.9483158085">
        <ele>184.71</ele>
        <time>2017-07-30T13:23:36Z</time>
      </trkpt>
      <trkpt lat="43.3144362364" lon="1.9482728932">
        <ele>184.71</ele>
        <time>2017-07-30T13:23:37Z</time>
      </trkpt>
      <trkpt lat="43.3144465461" lon="1.9482338335">
        <ele>184.71</ele>
        <time>2017-07-30T13:23:38Z</time>
      </trkpt>
      <trkpt lat="43.3144518267" lon="1.9481954444">
        <ele>184.71</ele>
        <time>2017-07-30T13:23:39Z</time>
      </trkpt>
      <trkpt lat="43.3144685905" lon="1.9480662793">
        <ele>184.71</ele>
        <time>2017-07-30T13:23:43Z</time>
      </trkpt>
      <trkpt lat="43.3144741226" lon="1.9480625913">
        <ele>184.71</ele>
        <time>2017-07-30T13:23:53Z</time>
      </trkpt>
      <trkpt lat="43.3144757152" lon="1.9480495155">
        <ele>184.71</ele>
        <time>2017-07-30T13:23:56Z</time>
      </trkpt>
      <trkpt lat="43.3144757152" lon="1.9480335061">
        <ele>184.71</ele>
        <time>2017-07-30T13:23:57Z</time>
      </trkpt>
      <trkpt lat="43.3144726977" lon="1.9480077736">
        <ele>184.71</ele>
        <time>2017-07-30T13:23:59Z</time>
      </trkpt>
      <trkpt lat="43.3144636452" lon="1.9479830470">
        <ele>184.71</ele>
        <time>2017-07-30T13:24:00Z</time>
      </trkpt>
      <trkpt lat="43.3144126832" lon="1.9478706457">
        <ele>182.79</ele>
        <time>2017-07-30T13:24:04Z</time>
      </trkpt>
      <trkpt lat="43.3144160360" lon="1.9478553068">
        <ele>182.31</ele>
        <time>2017-07-30T13:24:05Z</time>
      </trkpt>
      <trkpt lat="43.3144296147" lon="1.9478526246">
        <ele>182.31</ele>
        <time>2017-07-30T13:24:06Z</time>
      </trkpt>
      <trkpt lat="43.3144475520" lon="1.9478607550">
        <ele>182.31</ele>
        <time>2017-07-30T13:24:07Z</time>
      </trkpt>
      <trkpt lat="43.3144717757" lon="1.9478673767">
        <ele>182.31</ele>
        <time>2017-07-30T13:24:08Z</time>
      </trkpt>
      <trkpt lat="43.3144961670" lon="1.9478771836">
        <ele>181.83</ele>
        <time>2017-07-30T13:24:09Z</time>
      </trkpt>
      <trkpt lat="43.3145207260" lon="1.9478851464">
        <ele>181.35</ele>
        <time>2017-07-30T13:24:10Z</time>
      </trkpt>
      <trkpt lat="43.3145457041" lon="1.9478918519">
        <ele>180.38</ele>
        <time>2017-07-30T13:24:11Z</time>
      </trkpt>
      <trkpt lat="43.3145686705" lon="1.9479033351">
        <ele>179.90</ele>
        <time>2017-07-30T13:24:12Z</time>
      </trkpt>
      <trkpt lat="43.3145893738" lon="1.9479135610">
        <ele>179.90</ele>
        <time>2017-07-30T13:24:13Z</time>
      </trkpt>
      <trkpt lat="43.3146094065" lon="1.9479226973">
        <ele>179.42</ele>
        <time>2017-07-30T13:24:14Z</time>
      </trkpt>
      <trkpt lat="43.3146246616" lon="1.9479354378">
        <ele>179.90</ele>
        <time>2017-07-30T13:24:15Z</time>
      </trkpt>
      <trkpt lat="43.3146413416" lon="1.9479485974">
        <ele>179.90</ele>
        <time>2017-07-30T13:24:23Z</time>
      </trkpt>
      <trkpt lat="43.3146565966" lon="1.9479283970">
        <ele>179.42</ele>
        <time>2017-07-30T13:24:33Z</time>
      </trkpt>
      <trkpt lat="43.3146604523" lon="1.9479076099">
        <ele>179.42</ele>
        <time>2017-07-30T13:24:34Z</time>
      </trkpt>
      <trkpt lat="43.3146687504" lon="1.9478870742">
        <ele>179.90</ele>
        <time>2017-07-30T13:24:35Z</time>
      </trkpt>
      <trkpt lat="43.3146788925" lon="1.9478671253">
        <ele>179.90</ele>
        <time>2017-07-30T13:24:36Z</time>
      </trkpt>
      <trkpt lat="43.3146857657" lon="1.9478421472">
        <ele>179.90</ele>
        <time>2017-07-30T13:24:37Z</time>
      </trkpt>
      <trkpt lat="43.3146906272" lon="1.9478128105">
        <ele>179.90</ele>
        <time>2017-07-30T13:24:38Z</time>
      </trkpt>
      <trkpt lat="43.3146990091" lon="1.9477817137">
        <ele>179.90</ele>
        <time>2017-07-30T13:24:39Z</time>
      </trkpt>
      <trkpt lat="43.3147086482" lon="1.9477526285">
        <ele>179.90</ele>
        <time>2017-07-30T13:24:40Z</time>
      </trkpt>
      <trkpt lat="43.3147159405" lon="1.9477229565">
        <ele>179.90</ele>
        <time>2017-07-30T13:24:41Z</time>
      </trkpt>
      <trkpt lat="43.3147920482" lon="1.9473618641">
        <ele>180.38</ele>
        <time>2017-07-30T13:24:51Z</time>
      </trkpt>
      <trkpt lat="43.3148864284" lon="1.9468902145">
        <ele>180.87</ele>
        <time>2017-07-30T13:25:03Z</time>
      </trkpt>
      <trkpt lat="43.3150616940" lon="1.9465020485">
        <ele>181.83</ele>
        <time>2017-07-30T13:25:14Z</time>
      </trkpt>
      <trkpt lat="43.3152678050" lon="1.9460698776">
        <ele>183.27</ele>
        <time>2017-07-30T13:25:26Z</time>
      </trkpt>
      <trkpt lat="43.3154657856" lon="1.9456749223">
        <ele>183.75</ele>
        <time>2017-07-30T13:25:37Z</time>
      </trkpt>
      <trkpt lat="43.3156893309" lon="1.9452228863">
        <ele>185.67</ele>
        <time>2017-07-30T13:25:49Z</time>
      </trkpt>
      <trkpt lat="43.3158656023" lon="1.9448301103">
        <ele>186.15</ele>
        <time>2017-07-30T13:25:58Z</time>
      </trkpt>
      <trkpt lat="43.3161084261" lon="1.9443462230">
        <ele>186.63</ele>
        <time>2017-07-30T13:26:09Z</time>
      </trkpt>
      <trkpt lat="43.3163700253" lon="1.9437878206">
        <ele>187.11</ele>
        <time>2017-07-30T13:26:21Z</time>
      </trkpt>
      <trkpt lat="43.3165690955" lon="1.9433687255">
        <ele>187.59</ele>
        <time>2017-07-30T13:26:30Z</time>
      </trkpt>
      <trkpt lat="43.3168639708" lon="1.9427727722">
        <ele>188.08</ele>
        <time>2017-07-30T13:26:43Z</time>
      </trkpt>
      <trkpt lat="43.3171162661" lon="1.9422769826">
        <ele>189.04</ele>
        <time>2017-07-30T13:26:55Z</time>
      </trkpt>
      <trkpt lat="43.3173057809" lon="1.9418889843">
        <ele>190.00</ele>
        <time>2017-07-30T13:27:04Z</time>
      </trkpt>
      <trkpt lat="43.3175279014" lon="1.9414196815">
        <ele>190.96</ele>
        <time>2017-07-30T13:27:15Z</time>
      </trkpt>
      <trkpt lat="43.3177893329" lon="1.9409243949">
        <ele>191.92</ele>
        <time>2017-07-30T13:27:27Z</time>
      </trkpt>
      <trkpt lat="43.3180260379" lon="1.9406840019">
        <ele>191.92</ele>
        <time>2017-07-30T13:27:35Z</time>
      </trkpt>
      <trkpt lat="43.3181815222" lon="1.9404712692">
        <ele>192.40</ele>
        <time>2017-07-30T13:27:41Z</time>
      </trkpt>
      <trkpt lat="43.3185416926" lon="1.9402528368">
        <ele>194.32</ele>
        <time>2017-07-30T13:27:53Z</time>
      </trkpt>
      <trkpt lat="43.3188291080" lon="1.9400616456">
        <ele>195.28</ele>
        <time>2017-07-30T13:28:03Z</time>
      </trkpt>
      <trkpt lat="43.3192073833" lon="1.9398242701">
        <ele>196.73</ele>
        <time>2017-07-30T13:28:16Z</time>
      </trkpt>
      <trkpt lat="43.3196399733" lon="1.9395279698">
        <ele>194.80</ele>
        <time>2017-07-30T13:28:27Z</time>
      </trkpt>
      <trkpt lat="43.3196931146" lon="1.9395218510">
        <ele>194.80</ele>
        <time>2017-07-30T13:28:28Z</time>
      </trkpt>
      <trkpt lat="43.3197449148" lon="1.9395379443">
        <ele>194.80</ele>
        <time>2017-07-30T13:28:29Z</time>
      </trkpt>
      <trkpt lat="43.3197931945" lon="1.9395502657">
        <ele>194.80</ele>
        <time>2017-07-30T13:28:30Z</time>
      </trkpt>
      <trkpt lat="43.3198379539" lon="1.9395440631">
        <ele>194.80</ele>
        <time>2017-07-30T13:28:31Z</time>
      </trkpt>
      <trkpt lat="43.3198755886" lon="1.9395169057">
        <ele>195.28</ele>
        <time>2017-07-30T13:28:32Z</time>
      </trkpt>
      <trkpt lat="43.3199013211" lon="1.9394743256">
        <ele>195.28</ele>
        <time>2017-07-30T13:28:33Z</time>
      </trkpt>
      <trkpt lat="43.3199148159" lon="1.9394219387">
        <ele>195.28</ele>
        <time>2017-07-30T13:28:34Z</time>
      </trkpt>
      <trkpt lat="43.3199165761" lon="1.9393615052">
        <ele>194.80</ele>
        <time>2017-07-30T13:28:35Z</time>
      </trkpt>
      <trkpt lat="43.3199159056" lon="1.9392971322">
        <ele>194.80</ele>
        <time>2017-07-30T13:28:36Z</time>
      </trkpt>
      <trkpt lat="43.3199216053" lon="1.9392330106">
        <ele>194.80</ele>
        <time>2017-07-30T13:28:37Z</time>
      </trkpt>
      <trkpt lat="43.3199349325" lon="1.9391697273">
        <ele>194.32</ele>
        <time>2017-07-30T13:28:38Z</time>
      </trkpt>
      <trkpt lat="43.3199548814" lon="1.9391085394">
        <ele>194.32</ele>
        <time>2017-07-30T13:28:39Z</time>
      </trkpt>
      <trkpt lat="43.3199739922" lon="1.9390476868">
        <ele>194.32</ele>
        <time>2017-07-30T13:28:40Z</time>
      </trkpt>
      <trkpt lat="43.3199894987" lon="1.9389828946">
        <ele>194.32</ele>
        <time>2017-07-30T13:28:41Z</time>
      </trkpt>
      <trkpt lat="43.3200014010" lon="1.9389155880">
        <ele>194.32</ele>
        <time>2017-07-30T13:28:42Z</time>
      </trkpt>
      <trkpt lat="43.3200079389" lon="1.9388469402">
        <ele>193.84</ele>
        <time>2017-07-30T13:28:43Z</time>
      </trkpt>
      <trkpt lat="43.3200220205" lon="1.9387099799">
        <ele>193.84</ele>
        <time>2017-07-30T13:28:45Z</time>
      </trkpt>
      <trkpt lat="43.3201079350" lon="1.9383797329">
        <ele>193.36</ele>
        <time>2017-07-30T13:28:50Z</time>
      </trkpt>
      <trkpt lat="43.3204014692" lon="1.9375245273">
        <ele>193.84</ele>
        <time>2017-07-30T13:29:03Z</time>
      </trkpt>
      <trkpt lat="43.3205724601" lon="1.9367707428">
        <ele>194.32</ele>
        <time>2017-07-30T13:29:15Z</time>
      </trkpt>
      <trkpt lat="43.3206208237" lon="1.9364793878">
        <ele>194.32</ele>
        <time>2017-07-30T13:29:22Z</time>
      </trkpt>
      <trkpt lat="43.3204353321" lon="1.9363347162">
        <ele>193.36</ele>
        <time>2017-07-30T13:29:29Z</time>
      </trkpt>
      <trkpt lat="43.3201827016" lon="1.9362286851">
        <ele>191.92</ele>
        <time>2017-07-30T13:29:37Z</time>
      </trkpt>
      <trkpt lat="43.3201634232" lon="1.9362126756">
        <ele>191.44</ele>
        <time>2017-07-30T13:29:38Z</time>
      </trkpt>
      <trkpt lat="43.3201590646" lon="1.9361490570">
        <ele>191.44</ele>
        <time>2017-07-30T13:29:47Z</time>
      </trkpt>
      <trkpt lat="43.3201588131" lon="1.9361437764">
        <ele>191.44</ele>
        <time>2017-07-30T13:29:58Z</time>
      </trkpt>
      <trkpt lat="43.3201525267" lon="1.9361411780">
        <ele>191.44</ele>
        <time>2017-07-30T13:30:14Z</time>
      </trkpt>
      <trkpt lat="43.3201480005" lon="1.9361432735">
        <ele>194.32</ele>
        <time>2017-07-30T13:30:32Z</time>
      </trkpt>
      <trkpt lat="43.3201477490" lon="1.9361433573">
        <ele>190.48</ele>
        <time>2017-07-30T13:30:33Z</time>
      </trkpt>
      <trkpt lat="43.3201439772" lon="1.9361503143">
        <ele>190.96</ele>
        <time>2017-07-30T13:30:58Z</time>
      </trkpt>
      <trkpt lat="43.3201855514" lon="1.9362069760">
        <ele>178.46</ele>
        <time>2017-07-31T06:29:42Z</time>
      </trkpt>
      <trkpt lat="43.3202191629" lon="1.9362248294">
        <ele>177.50</ele>
        <time>2017-07-31T06:29:52Z</time>
      </trkpt>
      <trkpt lat="43.3202489186" lon="1.9363853429">
        <ele>178.94</ele>
        <time>2017-07-31T06:30:09Z</time>
      </trkpt>
      <trkpt lat="43.3202622458" lon="1.9363788888">
        <ele>178.94</ele>
        <time>2017-07-31T06:30:10Z</time>
      </trkpt>
      <trkpt lat="43.3204505034" lon="1.9363601133">
        <ele>179.90</ele>
        <time>2017-07-31T06:30:19Z</time>
      </trkpt>
      <trkpt lat="43.3206228353" lon="1.9364290126">
        <ele>180.87</ele>
        <time>2017-07-31T06:30:29Z</time>
      </trkpt>
      <trkpt lat="43.3206054848" lon="1.9365509693">
        <ele>181.35</ele>
        <time>2017-07-31T06:30:34Z</time>
      </trkpt>
      <trkpt lat="43.3205292933" lon="1.9369333517">
        <ele>181.35</ele>
        <time>2017-07-31T06:30:47Z</time>
      </trkpt>
      <trkpt lat="43.3204202447" lon="1.9373170752">
        <ele>180.38</ele>
        <time>2017-07-31T06:31:00Z</time>
      </trkpt>
      <trkpt lat="43.3203067537" lon="1.9377184007">
        <ele>180.38</ele>
        <time>2017-07-31T06:31:11Z</time>
      </trkpt>
      <trkpt lat="43.3201500122" lon="1.9381318800">
        <ele>180.38</ele>
        <time>2017-07-31T06:31:22Z</time>
      </trkpt>
      <trkpt lat="43.3200034965" lon="1.9385865144">
        <ele>180.38</ele>
        <time>2017-07-31T06:31:33Z</time>
      </trkpt>
      <trkpt lat="43.3198990580" lon="1.9391212799">
        <ele>180.87</ele>
        <time>2017-07-31T06:31:45Z</time>
      </trkpt>
      <trkpt lat="43.3196779434" lon="1.9393357728">
        <ele>181.35</ele>
        <time>2017-07-31T06:31:53Z</time>
      </trkpt>
      <trkpt lat="43.3196945395" lon="1.9397054147">
        <ele>181.35</ele>
        <time>2017-07-31T06:32:01Z</time>
      </trkpt>
      <trkpt lat="43.3195136581" lon="1.9402301218">
        <ele>181.35</ele>
        <time>2017-07-31T06:32:12Z</time>
      </trkpt>
      <trkpt lat="43.3194994088" lon="1.9402842689">
        <ele>181.35</ele>
        <time>2017-07-31T06:32:13Z</time>
      </trkpt>
      <trkpt lat="43.3192078862" lon="1.9412226230">
        <ele>179.90</ele>
        <time>2017-07-31T06:32:29Z</time>
      </trkpt>
      <trkpt lat="43.3189475443" lon="1.9420326501">
        <ele>178.46</ele>
        <time>2017-07-31T06:32:42Z</time>
      </trkpt>
      <trkpt lat="43.3188976720" lon="1.9422110170">
        <ele>177.50</ele>
        <time>2017-07-31T06:32:45Z</time>
      </trkpt>
      <trkpt lat="43.3188648988" lon="1.9423259329">
        <ele>177.98</ele>
        <time>2017-07-31T06:32:47Z</time>
      </trkpt>
      <trkpt lat="43.3188477997" lon="1.9423810020">
        <ele>177.50</ele>
        <time>2017-07-31T06:32:48Z</time>
      </trkpt>
      <trkpt lat="43.3186510764" lon="1.9431981537">
        <ele>176.06</ele>
        <time>2017-07-31T06:33:02Z</time>
      </trkpt>
      <trkpt lat="43.3186372463" lon="1.9432581682">
        <ele>175.58</ele>
        <time>2017-07-31T06:33:03Z</time>
      </trkpt>
      <trkpt lat="43.3186266851" lon="1.9433188532">
        <ele>175.58</ele>
        <time>2017-07-31T06:33:04Z</time>
      </trkpt>
      <trkpt lat="43.3185988571" lon="1.9434370380">
        <ele>175.58</ele>
        <time>2017-07-31T06:33:06Z</time>
      </trkpt>
      <trkpt lat="43.3184862882" lon="1.9439337496">
        <ele>174.14</ele>
        <time>2017-07-31T06:33:14Z</time>
      </trkpt>
      <trkpt lat="43.3183092624" lon="1.9445531722">
        <ele>173.17</ele>
        <time>2017-07-31T06:33:24Z</time>
      </trkpt>
      <trkpt lat="43.3181507606" lon="1.9449040387">
        <ele>172.21</ele>
        <time>2017-07-31T06:33:30Z</time>
      </trkpt>
      <trkpt lat="43.3180683665" lon="1.9450713415">
        <ele>171.73</ele>
        <time>2017-07-31T06:33:33Z</time>
      </trkpt>
      <trkpt lat="43.3178494312" lon="1.9455301668">
        <ele>170.29</ele>
        <time>2017-07-31T06:33:41Z</time>
      </trkpt>
      <trkpt lat="43.3177011553" lon="1.9458697177">
        <ele>169.33</ele>
        <time>2017-07-31T06:33:47Z</time>
      </trkpt>
      <trkpt lat="43.3176809549" lon="1.9459267147">
        <ele>169.33</ele>
        <time>2017-07-31T06:33:48Z</time>
      </trkpt>
      <trkpt lat="43.3175460901" lon="1.9463802595">
        <ele>168.85</ele>
        <time>2017-07-31T06:33:58Z</time>
      </trkpt>
      <trkpt lat="43.3175548911" lon="1.9468831737">
        <ele>167.41</ele>
        <time>2017-07-31T06:34:08Z</time>
      </trkpt>
      <trkpt lat="43.3174892608" lon="1.9475165103">
        <ele>166.93</ele>
        <time>2017-07-31T06:34:20Z</time>
      </trkpt>
      <trkpt lat="43.3173956349" lon="1.9481509365">
        <ele>166.45</ele>
        <time>2017-07-31T06:34:32Z</time>
      </trkpt>
      <trkpt lat="43.3171815611" lon="1.9487530924">
        <ele>165.96</ele>
        <time>2017-07-31T06:34:44Z</time>
      </trkpt>
      <trkpt lat="43.3169145137" lon="1.9492681604">
        <ele>165.96</ele>
        <time>2017-07-31T06:34:56Z</time>
      </trkpt>
      <trkpt lat="43.3166540042" lon="1.9495850801">
        <ele>165.96</ele>
        <time>2017-07-31T06:35:06Z</time>
      </trkpt>
      <trkpt lat="43.3164450433" lon="1.9498192705">
        <ele>165.96</ele>
        <time>2017-07-31T06:35:15Z</time>
      </trkpt>
      <trkpt lat="43.3163686004" lon="1.9498600904">
        <ele>165.96</ele>
        <time>2017-07-31T06:35:20Z</time>
      </trkpt>
      <trkpt lat="43.3163521718" lon="1.9498866610">
        <ele>165.96</ele>
        <time>2017-07-31T06:35:21Z</time>
      </trkpt>
      <trkpt lat="43.3163375873" lon="1.9499186799">
        <ele>165.96</ele>
        <time>2017-07-31T06:35:22Z</time>
      </trkpt>
      <trkpt lat="43.3161685243" lon="1.9503369369">
        <ele>166.93</ele>
        <time>2017-07-31T06:35:33Z</time>
      </trkpt>
      <trkpt lat="43.3160655946" lon="1.9506477378">
        <ele>167.89</ele>
        <time>2017-07-31T06:35:42Z</time>
      </trkpt>
      <trkpt lat="43.3159255330" lon="1.9509675913">
        <ele>169.81</ele>
        <time>2017-07-31T06:35:55Z</time>
      </trkpt>
      <trkpt lat="43.3158349246" lon="1.9510353170">
        <ele>170.29</ele>
        <time>2017-07-31T06:35:59Z</time>
      </trkpt>
      <trkpt lat="43.3158206753" lon="1.9510763884">
        <ele>170.29</ele>
        <time>2017-07-31T06:36:00Z</time>
      </trkpt>
      <trkpt lat="43.3158226870" lon="1.9511191361">
        <ele>170.77</ele>
        <time>2017-07-31T06:36:01Z</time>
      </trkpt>
      <trkpt lat="43.3158422168" lon="1.9511536695">
        <ele>170.77</ele>
        <time>2017-07-31T06:36:02Z</time>
      </trkpt>
      <trkpt lat="43.3158702124" lon="1.9511878677">
        <ele>170.77</ele>
        <time>2017-07-31T06:36:03Z</time>
      </trkpt>
      <trkpt lat="43.3158892393" lon="1.9512257539">
        <ele>170.77</ele>
        <time>2017-07-31T06:36:04Z</time>
      </trkpt>
      <trkpt lat="43.3159066737" lon="1.9512623828">
        <ele>170.77</ele>
        <time>2017-07-31T06:36:05Z</time>
      </trkpt>
      <trkpt lat="43.3159273770" lon="1.9512915518">
        <ele>171.73</ele>
        <time>2017-07-31T06:36:06Z</time>
      </trkpt>
      <trkpt lat="43.3161227591" lon="1.9514534902">
        <ele>171.73</ele>
        <time>2017-07-31T06:36:14Z</time>
      </trkpt>
      <trkpt lat="43.3161781635" lon="1.9514808990">
        <ele>171.25</ele>
        <time>2017-07-31T06:36:16Z</time>
      </trkpt>
      <trkpt lat="43.3162079193" lon="1.9515075535">
        <ele>171.25</ele>
        <time>2017-07-31T06:36:17Z</time>
      </trkpt>
      <trkpt lat="43.3164388407" lon="1.9517531432">
        <ele>171.73</ele>
        <time>2017-07-31T06:36:27Z</time>
      </trkpt>
      <trkpt lat="43.3164572809" lon="1.9518169295">
        <ele>171.73</ele>
        <time>2017-07-31T06:36:30Z</time>
      </trkpt>
      <trkpt lat="43.3164698537" lon="1.9518424105">
        <ele>171.25</ele>
        <time>2017-07-31T06:36:39Z</time>
      </trkpt>
      <trkpt lat="43.3164769784" lon="1.9518444221">
        <ele>171.25</ele>
        <time>2017-07-31T06:36:42Z</time>
      </trkpt>
      <trkpt lat="43.3177201822" lon="1.9527845364">
        <ele>173.66</ele>
        <time>2017-07-31T07:13:59Z</time>
      </trkpt>
      <trkpt lat="43.3177039213" lon="1.9528257754">
        <ele>173.17</ele>
        <time>2017-07-31T07:14:00Z</time>
      </trkpt>
      <trkpt lat="43.3176521212" lon="1.9529080857">
        <ele>173.17</ele>
        <time>2017-07-31T07:14:17Z</time>
      </trkpt>
      <trkpt lat="43.3176379558" lon="1.9529332314">
        <ele>174.62</ele>
        <time>2017-07-31T07:14:30Z</time>
      </trkpt>
      <trkpt lat="43.3176334295" lon="1.9529223349">
        <ele>175.10</ele>
        <time>2017-07-31T07:14:31Z</time>
      </trkpt>
      <trkpt lat="43.3176005725" lon="1.9528619852">
        <ele>177.02</ele>
        <time>2017-07-31T07:14:35Z</time>
      </trkpt>
      <trkpt lat="43.3175019175" lon="1.9527233485">
        <ele>180.38</ele>
        <time>2017-07-31T07:14:43Z</time>
      </trkpt>
      <trkpt lat="43.3173471037" lon="1.9525192492">
        <ele>181.83</ele>
        <time>2017-07-31T07:14:51Z</time>
      </trkpt>
      <trkpt lat="43.3171684016" lon="1.9523514435">
        <ele>183.27</ele>
        <time>2017-07-31T07:14:59Z</time>
      </trkpt>
      <trkpt lat="43.3169482928" lon="1.9521188457">
        <ele>185.19</ele>
        <time>2017-07-31T07:15:07Z</time>
      </trkpt>
      <trkpt lat="43.3167528268" lon="1.9518712442">
        <ele>186.63</ele>
        <time>2017-07-31T07:15:16Z</time>
      </trkpt>
      <trkpt lat="43.3166666608" lon="1.9517678116">
        <ele>187.11</ele>
        <time>2017-07-31T07:15:20Z</time>
      </trkpt>
      <trkpt lat="43.3165738732" lon="1.9516837411">
        <ele>186.63</ele>
        <time>2017-07-31T07:15:24Z</time>
      </trkpt>
      <trkpt lat="43.3164452109" lon="1.9516550750">
        <ele>187.11</ele>
        <time>2017-07-31T07:15:29Z</time>
      </trkpt>
      <trkpt lat="43.3161893114" lon="1.9514089823">
        <ele>186.63</ele>
        <time>2017-07-31T07:15:39Z</time>
      </trkpt>
      <trkpt lat="43.3158977889" lon="1.9510330539">
        <ele>185.67</ele>
        <time>2017-07-31T07:15:49Z</time>
      </trkpt>
      <trkpt lat="43.3158428036" lon="1.9509965088">
        <ele>186.15</ele>
        <time>2017-07-31T07:15:51Z</time>
      </trkpt>
      <trkpt lat="43.3157996368" lon="1.9510941580">
        <ele>186.15</ele>
        <time>2017-07-31T07:15:55Z</time>
      </trkpt>
      <trkpt lat="43.3158121258" lon="1.9511983451">
        <ele>186.15</ele>
        <time>2017-07-31T07:15:58Z</time>
      </trkpt>
      <trkpt lat="43.3157107048" lon="1.9514988363">
        <ele>184.23</ele>
        <time>2017-07-31T07:16:05Z</time>
      </trkpt>
      <trkpt lat="43.3155626804" lon="1.9519194402">
        <ele>181.83</ele>
        <time>2017-07-31T07:16:14Z</time>
      </trkpt>
      <trkpt lat="43.3155295718" lon="1.9524046686">
        <ele>181.35</ele>
        <time>2017-07-31T07:16:24Z</time>
      </trkpt>
      <trkpt lat="43.3155093715" lon="1.9528701995">
        <ele>181.35</ele>
        <time>2017-07-31T07:16:34Z</time>
      </trkpt>
      <trkpt lat="43.3154890873" lon="1.9533595350">
        <ele>181.35</ele>
        <time>2017-07-31T07:16:44Z</time>
      </trkpt>
      <trkpt lat="43.3154662885" lon="1.9537601061">
        <ele>181.35</ele>
        <time>2017-07-31T07:16:53Z</time>
      </trkpt>
      <trkpt lat="43.3154618461" lon="1.9542422332">
        <ele>181.83</ele>
        <time>2017-07-31T07:17:03Z</time>
      </trkpt>
      <trkpt lat="43.3153598383" lon="1.9546214305">
        <ele>182.79</ele>
        <time>2017-07-31T07:17:14Z</time>
      </trkpt>
      <trkpt lat="43.3151535597" lon="1.9545790181">
        <ele>186.15</ele>
        <time>2017-07-31T07:17:22Z</time>
      </trkpt>
      <trkpt lat="43.3150006738" lon="1.9544582348">
        <ele>184.71</ele>
        <time>2017-07-31T07:17:29Z</time>
      </trkpt>
      <trkpt lat="43.3149801381" lon="1.9544713106">
        <ele>185.19</ele>
        <time>2017-07-31T07:17:30Z</time>
      </trkpt>
      <trkpt lat="43.3149633743" lon="1.9544918463">
        <ele>184.23</ele>
        <time>2017-07-31T07:17:31Z</time>
      </trkpt>
      <trkpt lat="43.3149478678" lon="1.9545197580">
        <ele>183.27</ele>
        <time>2017-07-31T07:17:32Z</time>
      </trkpt>
      <trkpt lat="43.3149273321" lon="1.9545519445">
        <ele>182.79</ele>
        <time>2017-07-31T07:17:33Z</time>
      </trkpt>
      <trkpt lat="43.3149023540" lon="1.9545885734">
        <ele>182.79</ele>
        <time>2017-07-31T07:17:34Z</time>
      </trkpt>
      <trkpt lat="43.3146652300" lon="1.9547499251">
        <ele>181.35</ele>
        <time>2017-07-31T07:17:42Z</time>
      </trkpt>
      <trkpt lat="43.3144953288" lon="1.9546745718">
        <ele>180.87</ele>
        <time>2017-07-31T07:17:49Z</time>
      </trkpt>
      <trkpt lat="43.3143143635" lon="1.9545889925">
        <ele>181.83</ele>
        <time>2017-07-31T07:17:57Z</time>
      </trkpt>
      <trkpt lat="43.3142814226" lon="1.9545764197">
        <ele>181.35</ele>
        <time>2017-07-31T07:17:58Z</time>
      </trkpt>
      <trkpt lat="43.3142454643" lon="1.9545632601">
        <ele>180.87</ele>
        <time>2017-07-31T07:17:59Z</time>
      </trkpt>
      <trkpt lat="43.3139784168" lon="1.9544893317">
        <ele>183.27</ele>
        <time>2017-07-31T07:18:06Z</time>
      </trkpt>
      <trkpt lat="43.3137525246" lon="1.9546195026">
        <ele>181.35</ele>
        <time>2017-07-31T07:18:14Z</time>
      </trkpt>
      <trkpt lat="43.3137337491" lon="1.9546467438">
        <ele>180.87</ele>
        <time>2017-07-31T07:18:15Z</time>
      </trkpt>
      <trkpt lat="43.3135743253" lon="1.9548578840">
        <ele>180.87</ele>
        <time>2017-07-31T07:18:23Z</time>
      </trkpt>
      <trkpt lat="43.3135519456" lon="1.9548845384">
        <ele>180.87</ele>
        <time>2017-07-31T07:18:24Z</time>
      </trkpt>
      <trkpt lat="43.3133538812" lon="1.9551377557">
        <ele>179.90</ele>
        <time>2017-07-31T07:18:33Z</time>
      </trkpt>
      <trkpt lat="43.3131117281" lon="1.9554473832">
        <ele>179.90</ele>
        <time>2017-07-31T07:18:43Z</time>
      </trkpt>
      <trkpt lat="43.3128290065" lon="1.9556890335">
        <ele>179.90</ele>
        <time>2017-07-31T07:18:53Z</time>
      </trkpt>
      <trkpt lat="43.3125770465" lon="1.9559617806">
        <ele>179.90</ele>
        <time>2017-07-31T07:19:03Z</time>
      </trkpt>
      <trkpt lat="43.3124978375" lon="1.9563414808">
        <ele>179.90</ele>
        <time>2017-07-31T07:19:13Z</time>
      </trkpt>
      <trkpt lat="43.3126398269" lon="1.9564403873">
        <ele>179.42</ele>
        <time>2017-07-31T07:19:21Z</time>
      </trkpt>
      <trkpt lat="43.3127595205" lon="1.9565228652">
        <ele>179.42</ele>
        <time>2017-07-31T07:19:28Z</time>
      </trkpt>
      <trkpt lat="43.3127658907" lon="1.9565581530">
        <ele>179.42</ele>
        <time>2017-07-31T07:19:30Z</time>
      </trkpt>
      <trkpt lat="43.3127562515" lon="1.9565747492">
        <ele>179.42</ele>
        <time>2017-07-31T07:19:31Z</time>
      </trkpt>
      <trkpt lat="43.3127440978" lon="1.9565952010">
        <ele>179.42</ele>
        <time>2017-07-31T07:19:32Z</time>
      </trkpt>
      <trkpt lat="43.3127377275" lon="1.9566226937">
        <ele>179.90</ele>
        <time>2017-07-31T07:19:33Z</time>
      </trkpt>
      <trkpt lat="43.3127356321" lon="1.9566527847">
        <ele>179.90</ele>
        <time>2017-07-31T07:19:34Z</time>
      </trkpt>
      <trkpt lat="43.3127390686" lon="1.9566794392">
        <ele>179.90</ele>
        <time>2017-07-31T07:19:35Z</time>
      </trkpt>
      <trkpt lat="43.3127409127" lon="1.9567060098">
        <ele>179.90</ele>
        <time>2017-07-31T07:19:36Z</time>
      </trkpt>
      <trkpt lat="43.3127389010" lon="1.9567355141">
        <ele>179.42</ele>
        <time>2017-07-31T07:19:37Z</time>
      </trkpt>
      <trkpt lat="43.3127350453" lon="1.9567688741">
        <ele>179.90</ele>
        <time>2017-07-31T07:19:38Z</time>
      </trkpt>
      <trkpt lat="43.3127290942" lon="1.9568021502">
        <ele>179.90</ele>
        <time>2017-07-31T07:19:39Z</time>
      </trkpt>
      <trkpt lat="43.3127205446" lon="1.9568343367">
        <ele>179.42</ele>
        <time>2017-07-31T07:19:40Z</time>
      </trkpt>
      <trkpt lat="43.3127118275" lon="1.9568629190">
        <ele>179.90</ele>
        <time>2017-07-31T07:19:41Z</time>
      </trkpt>
      <trkpt lat="43.3127042837" lon="1.9568893220">
        <ele>179.90</ele>
        <time>2017-07-31T07:19:42Z</time>
      </trkpt>
      <trkpt lat="43.3126986679" lon="1.9569177367">
        <ele>179.90</ele>
        <time>2017-07-31T07:19:43Z</time>
      </trkpt>
      <trkpt lat="43.3126928844" lon="1.9569481630">
        <ele>179.90</ele>
        <time>2017-07-31T07:19:44Z</time>
      </trkpt>
      <trkpt lat="43.3126855083" lon="1.9569780864">
        <ele>179.42</ele>
        <time>2017-07-31T07:19:45Z</time>
      </trkpt>
      <trkpt lat="43.3125565946" lon="1.9574106764">
        <ele>179.42</ele>
        <time>2017-07-31T07:19:58Z</time>
      </trkpt>
      <trkpt lat="43.3125305269" lon="1.9575377461">
        <ele>179.42</ele>
        <time>2017-07-31T07:20:02Z</time>
      </trkpt>
      <trkpt lat="43.3125199657" lon="1.9575692620">
        <ele>179.42</ele>
        <time>2017-07-31T07:20:03Z</time>
      </trkpt>
      <trkpt lat="43.3125117514" lon="1.9576012809">
        <ele>179.42</ele>
        <time>2017-07-31T07:20:04Z</time>
      </trkpt>
      <trkpt lat="43.3125037048" lon="1.9576332998">
        <ele>179.42</ele>
        <time>2017-07-31T07:20:05Z</time>
      </trkpt>
      <trkpt lat="43.3124955744" lon="1.9576661568">
        <ele>179.42</ele>
        <time>2017-07-31T07:20:06Z</time>
      </trkpt>
      <trkpt lat="43.3124858513" lon="1.9576996006">
        <ele>179.42</ele>
        <time>2017-07-31T07:20:07Z</time>
      </trkpt>
      <trkpt lat="43.3123840112" lon="1.9580332004">
        <ele>179.90</ele>
        <time>2017-07-31T07:20:17Z</time>
      </trkpt>
      <trkpt lat="43.3122833446" lon="1.9583863299">
        <ele>180.38</ele>
        <time>2017-07-31T07:20:26Z</time>
      </trkpt>
      <trkpt lat="43.3121829294" lon="1.9587542955">
        <ele>180.87</ele>
        <time>2017-07-31T07:20:36Z</time>
      </trkpt>
      <trkpt lat="43.3121374156" lon="1.9589767512">
        <ele>181.35</ele>
        <time>2017-07-31T07:20:43Z</time>
      </trkpt>
      <trkpt lat="43.3121323027" lon="1.9592468161">
        <ele>182.79</ele>
        <time>2017-07-31T07:20:52Z</time>
      </trkpt>
      <trkpt lat="43.3121232502" lon="1.9592798408">
        <ele>183.27</ele>
        <time>2017-07-31T07:21:02Z</time>
      </trkpt>
      <trkpt lat="43.3121385891" lon="1.9593193196">
        <ele>183.27</ele>
        <time>2017-07-31T07:21:04Z</time>
      </trkpt>
      <trkpt lat="43.3121600468" lon="1.9593294617">
        <ele>183.27</ele>
        <time>2017-07-31T07:21:05Z</time>
      </trkpt>
      <trkpt lat="43.3121864498" lon="1.9593296293">
        <ele>182.79</ele>
        <time>2017-07-31T07:21:06Z</time>
      </trkpt>
      <trkpt lat="43.3122130204" lon="1.9593261927">
        <ele>183.75</ele>
        <time>2017-07-31T07:21:07Z</time>
      </trkpt>
      <trkpt lat="43.3122374117" lon="1.9593233429">
        <ele>183.75</ele>
        <time>2017-07-31T07:21:08Z</time>
      </trkpt>
      <trkpt lat="43.3123599552" lon="1.9593316410">
        <ele>183.27</ele>
        <time>2017-07-31T07:21:13Z</time>
      </trkpt>
      <trkpt lat="43.3123810776" lon="1.9593546074">
        <ele>183.27</ele>
        <time>2017-07-31T07:21:14Z</time>
      </trkpt>
      <trkpt lat="43.3123957459" lon="1.9593897276">
        <ele>182.79</ele>
        <time>2017-07-31T07:21:15Z</time>
      </trkpt>
      <trkpt lat="43.3124024514" lon="1.9594327267">
        <ele>182.79</ele>
        <time>2017-07-31T07:21:16Z</time>
      </trkpt>
      <trkpt lat="43.3123996854" lon="1.9594775699">
        <ele>182.31</ele>
        <time>2017-07-31T07:21:17Z</time>
      </trkpt>
      <trkpt lat="43.3123905491" lon="1.9595205691">
        <ele>182.79</ele>
        <time>2017-07-31T07:21:18Z</time>
      </trkpt>
      <trkpt lat="43.3123468794" lon="1.9597177114">
        <ele>181.35</ele>
        <time>2017-07-31T07:21:22Z</time>
      </trkpt>
      <trkpt lat="43.3121735416" lon="1.9602803048">
        <ele>178.46</ele>
        <time>2017-07-31T07:21:33Z</time>
      </trkpt>
      <trkpt lat="43.3121366613" lon="1.9604419079">
        <ele>177.02</ele>
        <time>2017-07-31T07:21:36Z</time>
      </trkpt>
      <trkpt lat="43.3121194784" lon="1.9604921993">
        <ele>177.02</ele>
        <time>2017-07-31T07:21:37Z</time>
      </trkpt>
      <trkpt lat="43.3120998647" lon="1.9605472684">
        <ele>177.02</ele>
        <time>2017-07-31T07:21:38Z</time>
      </trkpt>
      <trkpt lat="43.3120826818" lon="1.9606105518">
        <ele>176.06</ele>
        <time>2017-07-31T07:21:39Z</time>
      </trkpt>
      <trkpt lat="43.3120666724" lon="1.9606757630">
        <ele>175.58</ele>
        <time>2017-07-31T07:21:40Z</time>
      </trkpt>
      <trkpt lat="43.3120270260" lon="1.9608337618">
        <ele>174.14</ele>
        <time>2017-07-31T07:21:42Z</time>
      </trkpt>
      <trkpt lat="43.3119680174" lon="1.9611142203">
        <ele>173.17</ele>
        <time>2017-07-31T07:21:46Z</time>
      </trkpt>
      <trkpt lat="43.3118018042" lon="1.9619436935">
        <ele>170.77</ele>
        <time>2017-07-31T07:21:55Z</time>
      </trkpt>
      <trkpt lat="43.3117650915" lon="1.9621633831">
        <ele>169.81</ele>
        <time>2017-07-31T07:22:01Z</time>
      </trkpt>
      <trkpt lat="43.3117677737" lon="1.9622136746">
        <ele>169.81</ele>
        <time>2017-07-31T07:22:04Z</time>
      </trkpt>
      <trkpt lat="43.3117605653" lon="1.9622454420">
        <ele>169.81</ele>
        <time>2017-07-31T07:22:06Z</time>
      </trkpt>
      <trkpt lat="43.3117519319" lon="1.9622664806">
        <ele>170.29</ele>
        <time>2017-07-31T07:22:07Z</time>
      </trkpt>
      <trkpt lat="43.3116843738" lon="1.9625712465">
        <ele>169.81</ele>
        <time>2017-07-31T07:22:20Z</time>
      </trkpt>
      <trkpt lat="43.3116745669" lon="1.9625953864">
        <ele>169.33</ele>
        <time>2017-07-31T07:22:29Z</time>
      </trkpt>
      <trkpt lat="43.3116674423" lon="1.9625984039">
        <ele>168.85</ele>
        <time>2017-07-31T07:22:55Z</time>
      </trkpt>
      <trkpt lat="43.3116650116" lon="1.9626008347">
        <ele>168.85</ele>
        <time>2017-07-31T07:23:10Z</time>
      </trkpt>
      <trkpt lat="43.3116574679" lon="1.9626201130">
        <ele>168.85</ele>
        <time>2017-07-31T07:23:11Z</time>
      </trkpt>
      <trkpt lat="43.3116531931" lon="1.9626409002">
        <ele>168.85</ele>
        <time>2017-07-31T07:23:12Z</time>
      </trkpt>
      <trkpt lat="43.3116186596" lon="1.9628831372">
        <ele>168.85</ele>
        <time>2017-07-31T07:23:21Z</time>
      </trkpt>
      <trkpt lat="43.3115465753" lon="1.9632857200">
        <ele>168.85</ele>
        <time>2017-07-31T07:23:32Z</time>
      </trkpt>
      <trkpt lat="43.3114391193" lon="1.9638115168">
        <ele>168.85</ele>
        <time>2017-07-31T07:23:45Z</time>
      </trkpt>
      <trkpt lat="43.3112962078" lon="1.9644636288">
        <ele>169.33</ele>
        <time>2017-07-31T07:23:58Z</time>
      </trkpt>
      <trkpt lat="43.3111118060" lon="1.9651451614">
        <ele>168.85</ele>
        <time>2017-07-31T07:24:12Z</time>
      </trkpt>
      <trkpt lat="43.3109745942" lon="1.9656619057">
        <ele>168.85</ele>
        <time>2017-07-31T07:24:23Z</time>
      </trkpt>
      <trkpt lat="43.3108801302" lon="1.9660181366">
        <ele>168.37</ele>
        <time>2017-07-31T07:24:31Z</time>
      </trkpt>
      <trkpt lat="43.3106355462" lon="1.9665624574">
        <ele>168.37</ele>
        <time>2017-07-31T07:24:43Z</time>
      </trkpt>
      <trkpt lat="43.3103042934" lon="1.9669440016">
        <ele>168.37</ele>
        <time>2017-07-31T07:24:54Z</time>
      </trkpt>
      <trkpt lat="43.3100161236" lon="1.9672567304">
        <ele>167.89</ele>
        <time>2017-07-31T07:25:04Z</time>
      </trkpt>
      <trkpt lat="43.3097138721" lon="1.9675670285">
        <ele>168.37</ele>
        <time>2017-07-31T07:25:14Z</time>
      </trkpt>
      <trkpt lat="43.3093496785" lon="1.9679557811">
        <ele>167.89</ele>
        <time>2017-07-31T07:25:26Z</time>
      </trkpt>
      <trkpt lat="43.3090872411" lon="1.9682279415">
        <ele>167.89</ele>
        <time>2017-07-31T07:25:35Z</time>
      </trkpt>
      <trkpt lat="43.3088372089" lon="1.9684464578">
        <ele>168.37</ele>
        <time>2017-07-31T07:25:45Z</time>
      </trkpt>
      <trkpt lat="43.3085772861" lon="1.9687557500">
        <ele>168.37</ele>
        <time>2017-07-31T07:25:54Z</time>
      </trkpt>
      <trkpt lat="43.3083669841" lon="1.9692718238">
        <ele>167.89</ele>
        <time>2017-07-31T07:26:03Z</time>
      </trkpt>
      <trkpt lat="43.3082640544" lon="1.9696211815">
        <ele>167.89</ele>
        <time>2017-07-31T07:26:11Z</time>
      </trkpt>
      <trkpt lat="43.3081152756" lon="1.9700493291">
        <ele>167.41</ele>
        <time>2017-07-31T07:26:20Z</time>
      </trkpt>
      <trkpt lat="43.3080138545" lon="1.9703723677">
        <ele>167.89</ele>
        <time>2017-07-31T07:26:27Z</time>
      </trkpt>
      <trkpt lat="43.3079013694" lon="1.9707714301">
        <ele>167.41</ele>
        <time>2017-07-31T07:26:36Z</time>
      </trkpt>
      <trkpt lat="43.3078095037" lon="1.9711282477">
        <ele>167.41</ele>
        <time>2017-07-31T07:26:45Z</time>
      </trkpt>
      <trkpt lat="43.3076868765" lon="1.9715631846">
        <ele>167.41</ele>
        <time>2017-07-31T07:26:55Z</time>
      </trkpt>
      <trkpt lat="43.3075588848" lon="1.9720424619">
        <ele>167.41</ele>
        <time>2017-07-31T07:27:06Z</time>
      </trkpt>
      <trkpt lat="43.3074939251" lon="1.9724236708">
        <ele>167.41</ele>
        <time>2017-07-31T07:27:14Z</time>
      </trkpt>
      <trkpt lat="43.3074242715" lon="1.9728446100">
        <ele>167.41</ele>
        <time>2017-07-31T07:27:23Z</time>
      </trkpt>
      <trkpt lat="43.3073307294" lon="1.9732975680">
        <ele>167.41</ele>
        <time>2017-07-31T07:27:33Z</time>
      </trkpt>
      <trkpt lat="43.3072413784" lon="1.9736687187">
        <ele>166.93</ele>
        <time>2017-07-31T07:27:42Z</time>
      </trkpt>
      <trkpt lat="43.3070828766" lon="1.9739951938">
        <ele>167.41</ele>
        <time>2017-07-31T07:27:51Z</time>
      </trkpt>
      <trkpt lat="43.3068512846" lon="1.9744107686">
        <ele>166.93</ele>
        <time>2017-07-31T07:28:01Z</time>
      </trkpt>
      <trkpt lat="43.3066105563" lon="1.9748958293">
        <ele>166.93</ele>
        <time>2017-07-31T07:28:11Z</time>
      </trkpt>
      <trkpt lat="43.3064642921" lon="1.9752751943">
        <ele>166.93</ele>
        <time>2017-07-31T07:28:20Z</time>
      </trkpt>
      <trkpt lat="43.3063004259" lon="1.9756354485">
        <ele>166.93</ele>
        <time>2017-07-31T07:28:29Z</time>
      </trkpt>
      <trkpt lat="43.3061699197" lon="1.9759599119">
        <ele>166.93</ele>
        <time>2017-07-31T07:28:38Z</time>
      </trkpt>
      <trkpt lat="43.3059294429" lon="1.9765825197">
        <ele>166.93</ele>
        <time>2017-07-31T07:28:53Z</time>
      </trkpt>
      <trkpt lat="43.3056989405" lon="1.9770863559">
        <ele>166.93</ele>
        <time>2017-07-31T07:29:07Z</time>
      </trkpt>
      <trkpt lat="43.3055470604" lon="1.9772985857">
        <ele>166.93</ele>
        <time>2017-07-31T07:29:15Z</time>
      </trkpt>
      <trkpt lat="43.3054434601" lon="1.9775698241">
        <ele>166.93</ele>
        <time>2017-07-31T07:29:25Z</time>
      </trkpt>
      <trkpt lat="43.3052941784" lon="1.9778794516">
        <ele>165.48</ele>
        <time>2017-07-31T07:29:35Z</time>
      </trkpt>
      <trkpt lat="43.3050895762" lon="1.9783531129">
        <ele>163.08</ele>
        <time>2017-07-31T07:29:45Z</time>
      </trkpt>
      <trkpt lat="43.3049703855" lon="1.9786184840">
        <ele>162.60</ele>
        <time>2017-07-31T07:29:50Z</time>
      </trkpt>
      <trkpt lat="43.3049502689" lon="1.9786642492">
        <ele>162.60</ele>
        <time>2017-07-31T07:29:51Z</time>
      </trkpt>
      <trkpt lat="43.3047354408" lon="1.9790954143">
        <ele>162.60</ele>
        <time>2017-07-31T07:30:01Z</time>
      </trkpt>
      <trkpt lat="43.3045009151" lon="1.9795660581">
        <ele>162.60</ele>
        <time>2017-07-31T07:30:13Z</time>
      </trkpt>
      <trkpt lat="43.3041815646" lon="1.9801722374">
        <ele>161.64</ele>
        <time>2017-07-31T07:30:28Z</time>
      </trkpt>
      <trkpt lat="43.3038132638" lon="1.9807469845">
        <ele>161.64</ele>
        <time>2017-07-31T07:30:43Z</time>
      </trkpt>
      <trkpt lat="43.3034590445" lon="1.9812958315">
        <ele>162.12</ele>
        <time>2017-07-31T07:30:57Z</time>
      </trkpt>
      <trkpt lat="43.3032256924" lon="1.9816606119">
        <ele>161.64</ele>
        <time>2017-07-31T07:31:06Z</time>
      </trkpt>
      <trkpt lat="43.3030055836" lon="1.9819909427">
        <ele>161.64</ele>
        <time>2017-07-31T07:31:16Z</time>
      </trkpt>
      <trkpt lat="43.3029747382" lon="1.9820346963">
        <ele>161.64</ele>
        <time>2017-07-31T07:31:17Z</time>
      </trkpt>
      <trkpt lat="43.3027186710" lon="1.9824274722">
        <ele>161.64</ele>
        <time>2017-07-31T07:31:26Z</time>
      </trkpt>
      <trkpt lat="43.3024410624" lon="1.9828700367">
        <ele>161.64</ele>
        <time>2017-07-31T07:31:36Z</time>
      </trkpt>
      <trkpt lat="43.3022477757" lon="1.9831510819">
        <ele>161.64</ele>
        <time>2017-07-31T07:31:42Z</time>
      </trkpt>
      <trkpt lat="43.3021557424" lon="1.9832981005">
        <ele>161.16</ele>
        <time>2017-07-31T07:31:45Z</time>
      </trkpt>
      <trkpt lat="43.3020671457" lon="1.9834411796">
        <ele>161.64</ele>
        <time>2017-07-31T07:31:48Z</time>
      </trkpt>
      <trkpt lat="43.3020405751" lon="1.9834872801">
        <ele>161.16</ele>
        <time>2017-07-31T07:31:49Z</time>
      </trkpt>
      <trkpt lat="43.3019812312" lon="1.9835781399">
        <ele>161.64</ele>
        <time>2017-07-31T07:31:51Z</time>
      </trkpt>
      <trkpt lat="43.3019498829" lon="1.9836233184">
        <ele>161.16</ele>
        <time>2017-07-31T07:31:52Z</time>
      </trkpt>
      <trkpt lat="43.3017038740" lon="1.9840151723">
        <ele>161.64</ele>
        <time>2017-07-31T07:32:01Z</time>
      </trkpt>
      <trkpt lat="43.3016218990" lon="1.9841735065">
        <ele>161.64</ele>
        <time>2017-07-31T07:32:04Z</time>
      </trkpt>
      <trkpt lat="43.3015933167" lon="1.9842291623">
        <ele>162.12</ele>
        <time>2017-07-31T07:32:05Z</time>
      </trkpt>
      <trkpt lat="43.3015655726" lon="1.9842851534">
        <ele>162.12</ele>
        <time>2017-07-31T07:32:06Z</time>
      </trkpt>
      <trkpt lat="43.3013160434" lon="1.9849236030">
        <ele>162.12</ele>
        <time>2017-07-31T07:32:18Z</time>
      </trkpt>
      <trkpt lat="43.3011529315" lon="1.9854294509">
        <ele>161.64</ele>
        <time>2017-07-31T07:32:28Z</time>
      </trkpt>
      <trkpt lat="43.3009660151" lon="1.9859543256">
        <ele>161.64</ele>
        <time>2017-07-31T07:32:38Z</time>
      </trkpt>
      <trkpt lat="43.3007844631" lon="1.9863172621">
        <ele>161.64</ele>
        <time>2017-07-31T07:32:46Z</time>
      </trkpt>
      <trkpt lat="43.3006179985" lon="1.9865673780">
        <ele>161.64</ele>
        <time>2017-07-31T07:32:53Z</time>
      </trkpt>
      <trkpt lat="43.3004163299" lon="1.9868989661">
        <ele>161.16</ele>
        <time>2017-07-31T07:33:01Z</time>
      </trkpt>
      <trkpt lat="43.3001563232" lon="1.9872893114">
        <ele>161.16</ele>
        <time>2017-07-31T07:33:09Z</time>
      </trkpt>
      <trkpt lat="43.2999098953" lon="1.9876234978">
        <ele>161.16</ele>
        <time>2017-07-31T07:33:17Z</time>
      </trkpt>
      <trkpt lat="43.2996073924" lon="1.9880922139">
        <ele>161.16</ele>
        <time>2017-07-31T07:33:26Z</time>
      </trkpt>
      <trkpt lat="43.2993042190" lon="1.9885237142">
        <ele>161.16</ele>
        <time>2017-07-31T07:33:34Z</time>
      </trkpt>
      <trkpt lat="43.2992753014" lon="1.9885756820">
        <ele>161.16</ele>
        <time>2017-07-31T07:33:35Z</time>
      </trkpt>
      <trkpt lat="43.2991120219" lon="1.9888625108">
        <ele>161.16</ele>
        <time>2017-07-31T07:33:41Z</time>
      </trkpt>
      <trkpt lat="43.2990789972" lon="1.9889137242">
        <ele>161.16</ele>
        <time>2017-07-31T07:33:42Z</time>
      </trkpt>
      <trkpt lat="43.2989802584" lon="1.9890714716">
        <ele>161.16</ele>
        <time>2017-07-31T07:33:45Z</time>
      </trkpt>
      <trkpt lat="43.2989536040" lon="1.9891196676">
        <ele>161.16</ele>
        <time>2017-07-31T07:33:46Z</time>
      </trkpt>
      <trkpt lat="43.2988182362" lon="1.9893848710">
        <ele>161.64</ele>
        <time>2017-07-31T07:33:51Z</time>
      </trkpt>
      <trkpt lat="43.2987927552" lon="1.9894516747">
        <ele>161.64</ele>
        <time>2017-07-31T07:33:52Z</time>
      </trkpt>
      <trkpt lat="43.2987731416" lon="1.9895177241">
        <ele>161.64</ele>
        <time>2017-07-31T07:33:53Z</time>
      </trkpt>
      <trkpt lat="43.2987524383" lon="1.9895832706">
        <ele>161.64</ele>
        <time>2017-07-31T07:33:54Z</time>
      </trkpt>
      <trkpt lat="43.2987286337" lon="1.9896490686">
        <ele>161.64</ele>
        <time>2017-07-31T07:33:55Z</time>
      </trkpt>
      <trkpt lat="43.2987077627" lon="1.9897162076">
        <ele>161.64</ele>
        <time>2017-07-31T07:33:56Z</time>
      </trkpt>
      <trkpt lat="43.2986915018" lon="1.9897859450">
        <ele>161.64</ele>
        <time>2017-07-31T07:33:57Z</time>
      </trkpt>
      <trkpt lat="43.2986818627" lon="1.9898503181">
        <ele>161.64</ele>
        <time>2017-07-31T07:33:58Z</time>
      </trkpt>
      <trkpt lat="43.2986242790" lon="1.9903617818">
        <ele>161.16</ele>
        <time>2017-07-31T07:34:07Z</time>
      </trkpt>
      <trkpt lat="43.2985775918" lon="1.9908620976">
        <ele>161.16</ele>
        <time>2017-07-31T07:34:15Z</time>
      </trkpt>
      <trkpt lat="43.2984679565" lon="1.9914510101">
        <ele>161.16</ele>
        <time>2017-07-31T07:34:25Z</time>
      </trkpt>
      <trkpt lat="43.2982262224" lon="1.9920716900">
        <ele>161.16</ele>
        <time>2017-07-31T07:34:37Z</time>
      </trkpt>
      <trkpt lat="43.2982017472" lon="1.9921205565">
        <ele>161.16</ele>
        <time>2017-07-31T07:34:38Z</time>
      </trkpt>
      <trkpt lat="43.2981798705" lon="1.9921724405">
        <ele>161.64</ele>
        <time>2017-07-31T07:34:39Z</time>
      </trkpt>
      <trkpt lat="43.2979697362" lon="1.9928553142">
        <ele>161.64</ele>
        <time>2017-07-31T07:34:52Z</time>
      </trkpt>
      <trkpt lat="43.2978383917" lon="1.9935101923">
        <ele>161.16</ele>
        <time>2017-07-31T07:35:06Z</time>
      </trkpt>
      <trkpt lat="43.2978252321" lon="1.9935333263">
        <ele>161.16</ele>
        <time>2017-07-31T07:35:07Z</time>
      </trkpt>
      <trkpt lat="43.2977732643" lon="1.9935821090">
        <ele>161.16</ele>
        <time>2017-07-31T07:35:10Z</time>
      </trkpt>
      <trkpt lat="43.2977031916" lon="1.9938670099">
        <ele>160.68</ele>
        <time>2017-07-31T07:35:19Z</time>
      </trkpt>
      <trkpt lat="43.2975801453" lon="1.9943177886">
        <ele>158.27</ele>
        <time>2017-07-31T07:35:30Z</time>
      </trkpt>
      <trkpt lat="43.2975311112" lon="1.9945063815">
        <ele>156.83</ele>
        <time>2017-07-31T07:35:40Z</time>
      </trkpt>
      <trkpt lat="43.2975286804" lon="1.9945251569">
        <ele>156.35</ele>
        <time>2017-07-31T07:35:46Z</time>
      </trkpt>
      <trkpt lat="43.2975254115" lon="1.9945451897">
        <ele>156.83</ele>
        <time>2017-07-31T07:35:47Z</time>
      </trkpt>
      <trkpt lat="43.2975247409" lon="1.9945664797">
        <ele>156.35</ele>
        <time>2017-07-31T07:35:48Z</time>
      </trkpt>
      <trkpt lat="43.2975230645" lon="1.9945907034">
        <ele>156.83</ele>
        <time>2017-07-31T07:35:49Z</time>
      </trkpt>
      <trkpt lat="43.2975218073" lon="1.9946217164">
        <ele>156.83</ele>
        <time>2017-07-31T07:35:50Z</time>
      </trkpt>
      <trkpt lat="43.2975195441" lon="1.9946501311">
        <ele>157.31</ele>
        <time>2017-07-31T07:35:51Z</time>
      </trkpt>
      <trkpt lat="43.2975128386" lon="1.9946751930">
        <ele>157.31</ele>
        <time>2017-07-31T07:35:52Z</time>
      </trkpt>
      <trkpt lat="43.2975073904" lon="1.9946984947">
        <ele>157.31</ele>
        <time>2017-07-31T07:35:53Z</time>
      </trkpt>
      <trkpt lat="43.2975021098" lon="1.9947220478">
        <ele>156.83</ele>
        <time>2017-07-31T07:35:54Z</time>
      </trkpt>
      <trkpt lat="43.2974915486" lon="1.9947413262">
        <ele>156.83</ele>
        <time>2017-07-31T07:35:55Z</time>
      </trkpt>
      <trkpt lat="43.2974807359" lon="1.9947582576">
        <ele>156.83</ele>
        <time>2017-07-31T07:35:56Z</time>
      </trkpt>
      <trkpt lat="43.2974666543" lon="1.9947750214">
        <ele>156.83</ele>
        <time>2017-07-31T07:35:57Z</time>
      </trkpt>
      <trkpt lat="43.2974301931" lon="1.9947998319">
        <ele>157.31</ele>
        <time>2017-07-31T07:36:00Z</time>
      </trkpt>
      <trkpt lat="43.2974168658" lon="1.9947938807">
        <ele>157.79</ele>
        <time>2017-07-31T07:36:01Z</time>
      </trkpt>
      <trkpt lat="43.2974002697" lon="1.9947888516">
        <ele>157.79</ele>
        <time>2017-07-31T07:36:02Z</time>
      </trkpt>
      <trkpt lat="43.2972519938" lon="1.9947089721">
        <ele>157.31</ele>
        <time>2017-07-31T07:36:10Z</time>
      </trkpt>
      <trkpt lat="43.2971968409" lon="1.9944286812">
        <ele>156.83</ele>
        <time>2017-07-31T07:36:17Z</time>
      </trkpt>
      <trkpt lat="43.2972250041" lon="1.9942027889">
        <ele>157.79</ele>
        <time>2017-07-31T07:36:25Z</time>
      </trkpt>
      <trkpt lat="43.2972367387" lon="1.9941798225">
        <ele>157.31</ele>
        <time>2017-07-31T07:36:34Z</time>
      </trkpt>
      <trkpt lat="43.2972713560" lon="1.9941399246">
        <ele>157.31</ele>
        <time>2017-07-31T07:36:45Z</time>
      </trkpt>
      <trkpt lat="43.2972555980" lon="1.9941601250">
        <ele>157.31</ele>
        <time>2017-07-31T07:36:55Z</time>
      </trkpt>
      <trkpt lat="43.2972386666" lon="1.9941654895">
        <ele>156.83</ele>
        <time>2017-07-31T07:37:06Z</time>
      </trkpt>
      <trkpt lat="43.2972411811" lon="1.9941639807">
        <ele>157.31</ele>
        <time>2017-07-31T07:37:18Z</time>
      </trkpt>
      <trkpt lat="43.2972322125" lon="1.9941551797">
        <ele>156.35</ele>
        <time>2017-07-31T07:37:36Z</time>
      </trkpt>
      <trkpt lat="43.2972283568" lon="1.9941545092">
        <ele>156.83</ele>
        <time>2017-07-31T07:37:56Z</time>
      </trkpt>
      <trkpt lat="43.2972302008" lon="1.9941592868">
        <ele>156.83</ele>
        <time>2017-07-31T07:38:17Z</time>
      </trkpt>
      <trkpt lat="43.2972291112" lon="1.9941520784">
        <ele>156.83</ele>
        <time>2017-07-31T07:38:27Z</time>
      </trkpt>
      <trkpt lat="43.2972198911" lon="1.9941441156">
        <ele>156.83</ele>
        <time>2017-07-31T07:38:43Z</time>
      </trkpt>
      <trkpt lat="43.2972074021" lon="1.9941575266">
        <ele>156.83</ele>
        <time>2017-07-31T07:38:44Z</time>
      </trkpt>
      <trkpt lat="43.2972016186" lon="1.9941965863">
        <ele>156.35</ele>
        <time>2017-07-31T07:38:45Z</time>
      </trkpt>
      <trkpt lat="43.2971990202" lon="1.9942398369">
        <ele>156.35</ele>
        <time>2017-07-31T07:38:46Z</time>
      </trkpt>
      <trkpt lat="43.2971992716" lon="1.9942825008">
        <ele>155.87</ele>
        <time>2017-07-31T07:38:47Z</time>
      </trkpt>
      <trkpt lat="43.2971975952" lon="1.9943254162">
        <ele>155.87</ele>
        <time>2017-07-31T07:38:48Z</time>
      </trkpt>
      <trkpt lat="43.2971918955" lon="1.9943692535">
        <ele>155.87</ele>
        <time>2017-07-31T07:38:49Z</time>
      </trkpt>
      <trkpt lat="43.2971900515" lon="1.9944623765">
        <ele>155.87</ele>
        <time>2017-07-31T07:38:51Z</time>
      </trkpt>
      <trkpt lat="43.2971972600" lon="1.9945093151">
        <ele>155.87</ele>
        <time>2017-07-31T07:38:52Z</time>
      </trkpt>
      <trkpt lat="43.2972056419" lon="1.9945639651">
        <ele>155.39</ele>
        <time>2017-07-31T07:38:53Z</time>
      </trkpt>
      <trkpt lat="43.2972199749" lon="1.9946154300">
        <ele>155.39</ele>
        <time>2017-07-31T07:38:54Z</time>
      </trkpt>
      <trkpt lat="43.2972373255" lon="1.9946610276">
        <ele>155.87</ele>
        <time>2017-07-31T07:38:55Z</time>
      </trkpt>
      <trkpt lat="43.2972610462" lon="1.9946984947">
        <ele>155.87</ele>
        <time>2017-07-31T07:38:56Z</time>
      </trkpt>
      <trkpt lat="43.2972858567" lon="1.9947258197">
        <ele>155.87</ele>
        <time>2017-07-31T07:38:57Z</time>
      </trkpt>
      <trkpt lat="43.2973092422" lon="1.9947451819">
        <ele>156.35</ele>
        <time>2017-07-31T07:38:58Z</time>
      </trkpt>
      <trkpt lat="43.2973284367" lon="1.9947613589">
        <ele>156.35</ele>
        <time>2017-07-31T07:38:59Z</time>
      </trkpt>
      <trkpt lat="43.2973628026" lon="1.9947813079">
        <ele>156.83</ele>
        <time>2017-07-31T07:39:07Z</time>
      </trkpt>
      <trkpt lat="43.2973657362" lon="1.9947869238">
        <ele>156.35</ele>
        <time>2017-07-31T07:39:22Z</time>
      </trkpt>
      <trkpt lat="43.2973697595" lon="1.9947813079">
        <ele>156.35</ele>
        <time>2017-07-31T07:39:44Z</time>
      </trkpt>
      <trkpt lat="43.2973739505" lon="1.9947829004">
        <ele>156.83</ele>
        <time>2017-07-31T07:40:01Z</time>
      </trkpt>
      <trkpt lat="43.2973816618" lon="1.9948117342">
        <ele>156.83</ele>
        <time>2017-07-31T07:40:14Z</time>
      </trkpt>
      <trkpt lat="43.2973837573" lon="1.9948036876">
        <ele>156.83</ele>
        <time>2017-07-31T07:40:39Z</time>
      </trkpt>
      <trkpt lat="43.2973884512" lon="1.9948124047">
        <ele>156.35</ele>
        <time>2017-07-31T07:40:56Z</time>
      </trkpt>
      <trkpt lat="43.2973888703" lon="1.9948197808">
        <ele>156.83</ele>
        <time>2017-07-31T07:41:11Z</time>
      </trkpt>
      <trkpt lat="43.2973989286" lon="1.9948153384">
        <ele>157.31</ele>
        <time>2017-07-31T07:41:25Z</time>
      </trkpt>
      <trkpt lat="43.2974016108" lon="1.9948140811">
        <ele>156.83</ele>
        <time>2017-07-31T07:41:45Z</time>
      </trkpt>
      <trkpt lat="43.2974676602" lon="1.9948474411">
        <ele>156.35</ele>
        <time>2017-07-31T07:41:50Z</time>
      </trkpt>
      <trkpt lat="43.2974777184" lon="1.9948695693">
        <ele>156.35</ele>
        <time>2017-07-31T07:41:51Z</time>
      </trkpt>
      <trkpt lat="43.2974781375" lon="1.9948997442">
        <ele>155.87</ele>
        <time>2017-07-31T07:41:52Z</time>
      </trkpt>
      <trkpt lat="43.2973771356" lon="1.9953244552">
        <ele>153.95</ele>
        <time>2017-07-31T07:42:01Z</time>
      </trkpt>
      <trkpt lat="43.2972225733" lon="1.9958873000">
        <ele>153.47</ele>
        <time>2017-07-31T07:42:13Z</time>
      </trkpt>
      <trkpt lat="43.2971953321" lon="1.9959898107">
        <ele>153.47</ele>
        <time>2017-07-31T07:42:15Z</time>
      </trkpt>
      <trkpt lat="43.2971804962" lon="1.9960420299">
        <ele>153.47</ele>
        <time>2017-07-31T07:42:16Z</time>
      </trkpt>
      <trkpt lat="43.2970217429" lon="1.9966829102">
        <ele>153.47</ele>
        <time>2017-07-31T07:42:28Z</time>
      </trkpt>
      <trkpt lat="43.2969700266" lon="1.9968975708">
        <ele>153.47</ele>
        <time>2017-07-31T07:42:32Z</time>
      </trkpt>
      <trkpt lat="43.2969598845" lon="1.9969528075">
        <ele>153.47</ele>
        <time>2017-07-31T07:42:33Z</time>
      </trkpt>
      <trkpt lat="43.2969434559" lon="1.9970051106">
        <ele>152.99</ele>
        <time>2017-07-31T07:42:34Z</time>
      </trkpt>
      <trkpt lat="43.2968007121" lon="1.9975481741">
        <ele>153.47</ele>
        <time>2017-07-31T07:42:44Z</time>
      </trkpt>
      <trkpt lat="43.2965946011" lon="1.9983536750">
        <ele>152.99</ele>
        <time>2017-07-31T07:42:59Z</time>
      </trkpt>
      <trkpt lat="43.2963809464" lon="1.9990827329">
        <ele>152.99</ele>
        <time>2017-07-31T07:43:13Z</time>
      </trkpt>
      <trkpt lat="43.2962729037" lon="1.9994990621">
        <ele>152.51</ele>
        <time>2017-07-31T07:43:23Z</time>
      </trkpt>
      <trkpt lat="43.2962109614" lon="1.9998099469">
        <ele>151.06</ele>
        <time>2017-07-31T07:43:30Z</time>
      </trkpt>
      <trkpt lat="43.2962050103" lon="1.9998656027">
        <ele>151.06</ele>
        <time>2017-07-31T07:43:31Z</time>
      </trkpt>
      <trkpt lat="43.2961795293" lon="1.9999700412">
        <ele>150.58</ele>
        <time>2017-07-31T07:43:33Z</time>
      </trkpt>
      <trkpt lat="43.2961434871" lon="2.0000795089">
        <ele>151.06</ele>
        <time>2017-07-31T07:43:35Z</time>
      </trkpt>
      <trkpt lat="43.2961281482" lon="2.0001340751">
        <ele>151.06</ele>
        <time>2017-07-31T07:43:36Z</time>
      </trkpt>
      <trkpt lat="43.2959552296" lon="2.0007858519">
        <ele>150.10</ele>
        <time>2017-07-31T07:43:47Z</time>
      </trkpt>
      <trkpt lat="43.2958598435" lon="2.0011388976">
        <ele>151.06</ele>
        <time>2017-07-31T07:43:53Z</time>
      </trkpt>
      <trkpt lat="43.2957756892" lon="2.0014229603">
        <ele>150.10</ele>
        <time>2017-07-31T07:43:58Z</time>
      </trkpt>
      <trkpt lat="43.2957629487" lon="2.0014848188">
        <ele>150.10</ele>
        <time>2017-07-31T07:43:59Z</time>
      </trkpt>
      <trkpt lat="43.2957452629" lon="2.0015453361">
        <ele>151.06</ele>
        <time>2017-07-31T07:44:00Z</time>
      </trkpt>
      <trkpt lat="43.2956887688" lon="2.0017159078">
        <ele>150.58</ele>
        <time>2017-07-31T07:44:03Z</time>
      </trkpt>
      <trkpt lat="43.2956507150" lon="2.0018334221">
        <ele>150.58</ele>
        <time>2017-07-31T07:44:05Z</time>
      </trkpt>
      <trkpt lat="43.2956000045" lon="2.0019406267">
        <ele>150.10</ele>
        <time>2017-07-31T07:44:07Z</time>
      </trkpt>
      <trkpt lat="43.2955093961" lon="2.0020963624">
        <ele>150.58</ele>
        <time>2017-07-31T07:44:10Z</time>
      </trkpt>
      <trkpt lat="43.2951469626" lon="2.0025499072">
        <ele>150.10</ele>
        <time>2017-07-31T07:44:21Z</time>
      </trkpt>
      <trkpt lat="43.2950591203" lon="2.0026801620">
        <ele>150.10</ele>
        <time>2017-07-31T07:44:24Z</time>
      </trkpt>
      <trkpt lat="43.2945230976" lon="2.0032944717">
        <ele>150.10</ele>
        <time>2017-07-31T07:44:39Z</time>
      </trkpt>
      <trkpt lat="43.2941182517" lon="2.0037576556">
        <ele>150.10</ele>
        <time>2017-07-31T07:44:50Z</time>
      </trkpt>
      <trkpt lat="43.2939497754" lon="2.0039615873">
        <ele>150.58</ele>
        <time>2017-07-31T07:44:55Z</time>
      </trkpt>
      <trkpt lat="43.2937935367" lon="2.0041068457">
        <ele>150.58</ele>
        <time>2017-07-31T07:45:03Z</time>
      </trkpt>
      <trkpt lat="43.2938025892" lon="2.0040983800">
        <ele>150.10</ele>
        <time>2017-07-31T07:45:14Z</time>
      </trkpt>
      <trkpt lat="43.2938127313" lon="2.0041095279">
        <ele>150.10</ele>
        <time>2017-07-31T07:45:38Z</time>
      </trkpt>
      <trkpt lat="43.2938027568" lon="2.0041057561">
        <ele>149.62</ele>
        <time>2017-07-31T07:46:14Z</time>
      </trkpt>
      <trkpt lat="43.2938023377" lon="2.0040995535">
        <ele>149.62</ele>
        <time>2017-07-31T07:46:35Z</time>
      </trkpt>
      <trkpt lat="43.2937977277" lon="2.0040996373">
        <ele>149.62</ele>
        <time>2017-07-31T07:46:50Z</time>
      </trkpt>
      <trkpt lat="43.2937957160" lon="2.0041024033">
        <ele>149.62</ele>
        <time>2017-07-31T07:46:52Z</time>
      </trkpt>
      <trkpt lat="43.2937857416" lon="2.0041202568">
        <ele>149.62</ele>
        <time>2017-07-31T07:46:53Z</time>
      </trkpt>
      <trkpt lat="43.2937718276" lon="2.0041389484">
        <ele>149.62</ele>
        <time>2017-07-31T07:46:54Z</time>
      </trkpt>
      <trkpt lat="43.2937571593" lon="2.0041622501">
        <ele>149.62</ele>
        <time>2017-07-31T07:46:55Z</time>
      </trkpt>
      <trkpt lat="43.2937402278" lon="2.0041869767">
        <ele>149.62</ele>
        <time>2017-07-31T07:46:56Z</time>
      </trkpt>
      <trkpt lat="43.2937198598" lon="2.0042127091">
        <ele>149.62</ele>
        <time>2017-07-31T07:46:57Z</time>
      </trkpt>
      <trkpt lat="43.2937021740" lon="2.0042443927">
        <ele>150.10</ele>
        <time>2017-07-31T07:46:58Z</time>
      </trkpt>
      <trkpt lat="43.2936860807" lon="2.0042803511">
        <ele>150.10</ele>
        <time>2017-07-31T07:46:59Z</time>
      </trkpt>
      <trkpt lat="43.2936700713" lon="2.0043151360">
        <ele>150.10</ele>
        <time>2017-07-31T07:47:00Z</time>
      </trkpt>
      <trkpt lat="43.2935287524" lon="2.0046618953">
        <ele>149.62</ele>
        <time>2017-07-31T07:47:10Z</time>
      </trkpt>
      <trkpt lat="43.2933782972" lon="2.0049571060">
        <ele>149.14</ele>
        <time>2017-07-31T07:47:20Z</time>
      </trkpt>
      <trkpt lat="43.2932735234" lon="2.0052605309">
        <ele>149.14</ele>
        <time>2017-07-31T07:47:29Z</time>
      </trkpt>
      <trkpt lat="43.2932345476" lon="2.0055135805">
        <ele>149.14</ele>
        <time>2017-07-31T07:47:37Z</time>
      </trkpt>
      <trkpt lat="43.2931882795" lon="2.0057375450">
        <ele>148.18</ele>
        <time>2017-07-31T07:47:41Z</time>
      </trkpt>
      <trkpt lat="43.2931586914" lon="2.0057873335">
        <ele>148.18</ele>
        <time>2017-07-31T07:47:42Z</time>
      </trkpt>
      <trkpt lat="43.2931249123" lon="2.0058336854">
        <ele>147.70</ele>
        <time>2017-07-31T07:47:43Z</time>
      </trkpt>
      <trkpt lat="43.2930962462" lon="2.0058883354">
        <ele>147.22</ele>
        <time>2017-07-31T07:47:44Z</time>
      </trkpt>
      <trkpt lat="43.2930739503" lon="2.0059491880">
        <ele>147.22</ele>
        <time>2017-07-31T07:47:45Z</time>
      </trkpt>
      <trkpt lat="43.2930535823" lon="2.0060108788">
        <ele>146.74</ele>
        <time>2017-07-31T07:47:46Z</time>
      </trkpt>
      <trkpt lat="43.2928008679" lon="2.0066974405">
        <ele>146.74</ele>
        <time>2017-07-31T07:47:58Z</time>
      </trkpt>
      <trkpt lat="43.2926032227" lon="2.0072465390">
        <ele>146.26</ele>
        <time>2017-07-31T07:48:09Z</time>
      </trkpt>
      <trkpt lat="43.2924064994" lon="2.0077969786">
        <ele>146.74</ele>
        <time>2017-07-31T07:48:21Z</time>
      </trkpt>
      <trkpt lat="43.2921485044" lon="2.0085190795">
        <ele>146.74</ele>
        <time>2017-07-31T07:48:36Z</time>
      </trkpt>
      <trkpt lat="43.2919576485" lon="2.0091013703">
        <ele>146.74</ele>
        <time>2017-07-31T07:48:49Z</time>
      </trkpt>
      <trkpt lat="43.2918157429" lon="2.0096497145">
        <ele>146.74</ele>
        <time>2017-07-31T07:49:01Z</time>
      </trkpt>
      <trkpt lat="43.2916853204" lon="2.0102596655">
        <ele>146.74</ele>
        <time>2017-07-31T07:49:14Z</time>
      </trkpt>
      <trkpt lat="43.2915744279" lon="2.0107914135">
        <ele>147.22</ele>
        <time>2017-07-31T07:49:25Z</time>
      </trkpt>
      <trkpt lat="43.2914648764" lon="2.0113162883">
        <ele>147.22</ele>
        <time>2017-07-31T07:49:37Z</time>
      </trkpt>
      <trkpt lat="43.2913913671" lon="2.0116684958">
        <ele>147.22</ele>
        <time>2017-07-31T07:49:46Z</time>
      </trkpt>
      <trkpt lat="43.2912905328" lon="2.0121097192">
        <ele>146.74</ele>
        <time>2017-07-31T07:49:56Z</time>
      </trkpt>
      <trkpt lat="43.2911985833" lon="2.0125459135">
        <ele>146.74</ele>
        <time>2017-07-31T07:50:05Z</time>
      </trkpt>
      <trkpt lat="43.2910800632" lon="2.0129765756">
        <ele>146.74</ele>
        <time>2017-07-31T07:50:14Z</time>
      </trkpt>
      <trkpt lat="43.2909388281" lon="2.0134937391">
        <ele>146.26</ele>
        <time>2017-07-31T07:50:25Z</time>
      </trkpt>
      <trkpt lat="43.2907865290" lon="2.0140150934">
        <ele>146.74</ele>
        <time>2017-07-31T07:50:36Z</time>
      </trkpt>
      <trkpt lat="43.2906536758" lon="2.0144486893">
        <ele>147.22</ele>
        <time>2017-07-31T07:50:45Z</time>
      </trkpt>
      <trkpt lat="43.2905499917" lon="2.0148080215">
        <ele>146.26</ele>
        <time>2017-07-31T07:50:52Z</time>
      </trkpt>
      <trkpt lat="43.2904256042" lon="2.0152450539">
        <ele>146.74</ele>
        <time>2017-07-31T07:51:01Z</time>
      </trkpt>
      <trkpt lat="43.2902934216" lon="2.0155880414">
        <ele>146.74</ele>
        <time>2017-07-31T07:51:10Z</time>
      </trkpt>
      <trkpt lat="43.2901644241" lon="2.0160259958">
        <ele>146.74</ele>
        <time>2017-07-31T07:51:21Z</time>
      </trkpt>
      <trkpt lat="43.2901162282" lon="2.0162590966">
        <ele>146.26</ele>
        <time>2017-07-31T07:51:29Z</time>
      </trkpt>
      <trkpt lat="43.2900718879" lon="2.0164065342">
        <ele>145.30</ele>
        <time>2017-07-31T07:51:33Z</time>
      </trkpt>
      <trkpt lat="43.2900724746" lon="2.0164469350">
        <ele>145.30</ele>
        <time>2017-07-31T07:51:34Z</time>
      </trkpt>
      <trkpt lat="43.2900692895" lon="2.0164915267">
        <ele>145.30</ele>
        <time>2017-07-31T07:51:35Z</time>
      </trkpt>
      <trkpt lat="43.2899058424" lon="2.0170990471">
        <ele>144.82</ele>
        <time>2017-07-31T07:51:47Z</time>
      </trkpt>
      <trkpt lat="43.2897162437" lon="2.0177063998">
        <ele>144.82</ele>
        <time>2017-07-31T07:51:59Z</time>
      </trkpt>
      <trkpt lat="43.2894852385" lon="2.0184383914">
        <ele>144.34</ele>
        <time>2017-07-31T07:52:13Z</time>
      </trkpt>
      <trkpt lat="43.2893833145" lon="2.0187910181">
        <ele>144.34</ele>
        <time>2017-07-31T07:52:22Z</time>
      </trkpt>
      <trkpt lat="43.2892143354" lon="2.0193785895">
        <ele>144.34</ele>
        <time>2017-07-31T07:52:34Z</time>
      </trkpt>
      <trkpt lat="43.2891984936" lon="2.0194330718">
        <ele>144.34</ele>
        <time>2017-07-31T07:52:35Z</time>
      </trkpt>
      <trkpt lat="43.2891723420" lon="2.0195406117">
        <ele>144.34</ele>
        <time>2017-07-31T07:52:37Z</time>
      </trkpt>
      <trkpt lat="43.2891181111" lon="2.0197442919">
        <ele>144.34</ele>
        <time>2017-07-31T07:52:41Z</time>
      </trkpt>
      <trkpt lat="43.2890988328" lon="2.0197999477">
        <ele>144.34</ele>
        <time>2017-07-31T07:52:42Z</time>
      </trkpt>
      <trkpt lat="43.2889534067" lon="2.0202473737">
        <ele>144.34</ele>
        <time>2017-07-31T07:52:51Z</time>
      </trkpt>
      <trkpt lat="43.2888791431" lon="2.0205160975">
        <ele>144.34</ele>
        <time>2017-07-31T07:52:57Z</time>
      </trkpt>
      <trkpt lat="43.2888774667" lon="2.0205596834">
        <ele>144.34</ele>
        <time>2017-07-31T07:52:58Z</time>
      </trkpt>
      <trkpt lat="43.2887393329" lon="2.0210447442">
        <ele>144.34</ele>
        <time>2017-07-31T07:53:06Z</time>
      </trkpt>
      <trkpt lat="43.2887187134" lon="2.0211131405">
        <ele>143.85</ele>
        <time>2017-07-31T07:53:07Z</time>
      </trkpt>
      <trkpt lat="43.2887024526" lon="2.0211778488">
        <ele>143.85</ele>
        <time>2017-07-31T07:53:08Z</time>
      </trkpt>
      <trkpt lat="43.2885318808" lon="2.0217636600">
        <ele>143.85</ele>
        <time>2017-07-31T07:53:18Z</time>
      </trkpt>
      <trkpt lat="43.2885124348" lon="2.0218287036">
        <ele>143.85</ele>
        <time>2017-07-31T07:53:19Z</time>
      </trkpt>
      <trkpt lat="43.2884659152" lon="2.0221043006">
        <ele>143.85</ele>
        <time>2017-07-31T07:53:24Z</time>
      </trkpt>
      <trkpt lat="43.2884465531" lon="2.0221662428">
        <ele>143.85</ele>
        <time>2017-07-31T07:53:25Z</time>
      </trkpt>
      <trkpt lat="43.2884124387" lon="2.0222761296">
        <ele>143.37</ele>
        <time>2017-07-31T07:53:27Z</time>
      </trkpt>
      <trkpt lat="43.2883339003" lon="2.0227041095">
        <ele>144.34</ele>
        <time>2017-07-31T07:53:35Z</time>
      </trkpt>
      <trkpt lat="43.2882896438" lon="2.0228863321">
        <ele>143.85</ele>
        <time>2017-07-31T07:53:38Z</time>
      </trkpt>
      <trkpt lat="43.2881869655" lon="2.0233356021">
        <ele>143.85</ele>
        <time>2017-07-31T07:53:45Z</time>
      </trkpt>
      <trkpt lat="43.2881747279" lon="2.0233886596">
        <ele>143.85</ele>
        <time>2017-07-31T07:53:46Z</time>
      </trkpt>
      <trkpt lat="43.2881339081" lon="2.0236766618">
        <ele>140.49</ele>
        <time>2017-07-31T07:53:51Z</time>
      </trkpt>
      <trkpt lat="43.2881296333" lon="2.0237270370">
        <ele>141.93</ele>
        <time>2017-07-31T07:53:52Z</time>
      </trkpt>
      <trkpt lat="43.2881271187" lon="2.0237764902">
        <ele>146.26</ele>
        <time>2017-07-31T07:53:53Z</time>
      </trkpt>
      <trkpt lat="43.2881219219" lon="2.0238335710">
        <ele>144.34</ele>
        <time>2017-07-31T07:53:54Z</time>
      </trkpt>
      <trkpt lat="43.2880553696" lon="2.0241917297">
        <ele>145.30</ele>
        <time>2017-07-31T07:54:01Z</time>
      </trkpt>
      <trkpt lat="43.2880360913" lon="2.0243731979">
        <ele>143.85</ele>
        <time>2017-07-31T07:54:03Z</time>
      </trkpt>
      <trkpt lat="43.2880298048" lon="2.0244338829">
        <ele>142.41</ele>
        <time>2017-07-31T07:54:04Z</time>
      </trkpt>
      <trkpt lat="43.2880290505" lon="2.0244854316">
        <ele>145.30</ele>
        <time>2017-07-31T07:54:05Z</time>
      </trkpt>
      <trkpt lat="43.2880310621" lon="2.0245368127">
        <ele>143.37</ele>
        <time>2017-07-31T07:54:06Z</time>
      </trkpt>
      <trkpt lat="43.2880248595" lon="2.0245859306">
        <ele>142.89</ele>
        <time>2017-07-31T07:54:07Z</time>
      </trkpt>
      <trkpt lat="43.2880165614" lon="2.0246330369">
        <ele>144.34</ele>
        <time>2017-07-31T07:54:08Z</time>
      </trkpt>
      <trkpt lat="43.2879438903" lon="2.0249616913">
        <ele>140.97</ele>
        <time>2017-07-31T07:54:14Z</time>
      </trkpt>
      <trkpt lat="43.2879274618" lon="2.0250170957">
        <ele>145.30</ele>
        <time>2017-07-31T07:54:15Z</time>
      </trkpt>
      <trkpt lat="43.2878355123" lon="2.0253551379">
        <ele>141.45</ele>
        <time>2017-07-31T07:54:21Z</time>
      </trkpt>
      <trkpt lat="43.2877980452" lon="2.0254165772">
        <ele>145.30</ele>
        <time>2017-07-31T07:54:22Z</time>
      </trkpt>
      <trkpt lat="43.2877172437" lon="2.0255102031">
        <ele>143.85</ele>
        <time>2017-07-31T07:54:24Z</time>
      </trkpt>
      <trkpt lat="43.2876911759" lon="2.0255617518">
        <ele>143.85</ele>
        <time>2017-07-31T07:54:25Z</time>
      </trkpt>
      <trkpt lat="43.2875290699" lon="2.0259059127">
        <ele>143.85</ele>
        <time>2017-07-31T07:54:32Z</time>
      </trkpt>
      <trkpt lat="43.2874771859" lon="2.0260242652">
        <ele>143.85</ele>
        <time>2017-07-31T07:54:34Z</time>
      </trkpt>
      <trkpt lat="43.2874541357" lon="2.0260805078">
        <ele>143.37</ele>
        <time>2017-07-31T07:54:35Z</time>
      </trkpt>
      <trkpt lat="43.2874336001" lon="2.0261341520">
        <ele>143.37</ele>
        <time>2017-07-31T07:54:36Z</time>
      </trkpt>
      <trkpt lat="43.2874082867" lon="2.0261882991">
        <ele>143.37</ele>
        <time>2017-07-31T07:54:37Z</time>
      </trkpt>
      <trkpt lat="43.2873770222" lon="2.0262421109">
        <ele>143.37</ele>
        <time>2017-07-31T07:54:38Z</time>
      </trkpt>
      <trkpt lat="43.2873491105" lon="2.0262991916">
        <ele>143.37</ele>
        <time>2017-07-31T07:54:39Z</time>
      </trkpt>
      <trkpt lat="43.2873231266" lon="2.0263621397">
        <ele>143.37</ele>
        <time>2017-07-31T07:54:40Z</time>
      </trkpt>
      <trkpt lat="43.2872981485" lon="2.0264237467">
        <ele>143.37</ele>
        <time>2017-07-31T07:54:41Z</time>
      </trkpt>
      <trkpt lat="43.2872722484" lon="2.0264888741">
        <ele>142.89</ele>
        <time>2017-07-31T07:54:42Z</time>
      </trkpt>
      <trkpt lat="43.2872457616" lon="2.0265558455">
        <ele>142.89</ele>
        <time>2017-07-31T07:54:43Z</time>
      </trkpt>
      <trkpt lat="43.2871202007" lon="2.0270240586">
        <ele>143.37</ele>
        <time>2017-07-31T07:54:50Z</time>
      </trkpt>
      <trkpt lat="43.2871037722" lon="2.0270839892">
        <ele>143.37</ele>
        <time>2017-07-31T07:54:51Z</time>
      </trkpt>
      <trkpt lat="43.2870544866" lon="2.0273235440">
        <ele>139.05</ele>
        <time>2017-07-31T07:54:55Z</time>
      </trkpt>
      <trkpt lat="43.2870449312" lon="2.0273817144">
        <ele>146.26</ele>
        <time>2017-07-31T07:54:56Z</time>
      </trkpt>
      <trkpt lat="43.2870206237" lon="2.0274984743">
        <ele>142.89</ele>
        <time>2017-07-31T07:54:58Z</time>
      </trkpt>
      <trkpt lat="43.2869173586" lon="2.0279799309">
        <ele>143.37</ele>
        <time>2017-07-31T07:55:09Z</time>
      </trkpt>
      <trkpt lat="43.2869139221" lon="2.0280247740">
        <ele>143.37</ele>
        <time>2017-07-31T07:55:11Z</time>
      </trkpt>
      <trkpt lat="43.2868969068" lon="2.0280383527">
        <ele>143.37</ele>
        <time>2017-07-31T07:55:13Z</time>
      </trkpt>
      <trkpt lat="43.2868836634" lon="2.0280486625">
        <ele>143.37</ele>
        <time>2017-07-31T07:55:14Z</time>
      </trkpt>
      <trkpt lat="43.2868764549" lon="2.0280660968">
        <ele>143.37</ele>
        <time>2017-07-31T07:55:15Z</time>
      </trkpt>
      <trkpt lat="43.2868642174" lon="2.0280849561">
        <ele>142.89</ele>
        <time>2017-07-31T07:55:16Z</time>
      </trkpt>
      <trkpt lat="43.2868604455" lon="2.0280915778">
        <ele>142.89</ele>
        <time>2017-07-31T07:55:25Z</time>
      </trkpt>
      <trkpt lat="43.2868504710" lon="2.0280897338">
        <ele>142.89</ele>
        <time>2017-07-31T07:55:34Z</time>
      </trkpt>
      <trkpt lat="43.2868454419" lon="2.0280788373">
        <ele>143.37</ele>
        <time>2017-07-31T07:56:00Z</time>
      </trkpt>
      <trkpt lat="43.2868422568" lon="2.0280716289">
        <ele>142.89</ele>
        <time>2017-07-31T07:56:25Z</time>
      </trkpt>
      <trkpt lat="43.2868451066" lon="2.0280810166">
        <ele>142.41</ele>
        <time>2017-07-31T07:56:53Z</time>
      </trkpt>
      <trkpt lat="43.2868518960" lon="2.0280759875">
        <ele>142.89</ele>
        <time>2017-07-31T07:57:23Z</time>
      </trkpt>
      <trkpt lat="43.2868597750" lon="2.0280676894">
        <ele>142.89</ele>
        <time>2017-07-31T07:57:49Z</time>
      </trkpt>
      <trkpt lat="43.2868540753" lon="2.0280633308">
        <ele>142.89</ele>
        <time>2017-07-31T07:58:19Z</time>
      </trkpt>
      <trkpt lat="43.2868435141" lon="2.0280751493">
        <ele>142.89</ele>
        <time>2017-07-31T07:58:48Z</time>
      </trkpt>
      <trkpt lat="43.2868457772" lon="2.0280758198">
        <ele>142.41</ele>
        <time>2017-07-31T07:59:22Z</time>
      </trkpt>
      <trkpt lat="43.2868615352" lon="2.0280724671">
        <ele>142.41</ele>
        <time>2017-07-31T07:59:49Z</time>
      </trkpt>
      <trkpt lat="43.2868539914" lon="2.0280694496">
        <ele>143.37</ele>
        <time>2017-07-31T08:00:14Z</time>
      </trkpt>
      <trkpt lat="43.2868378144" lon="2.0280803461">
        <ele>142.89</ele>
        <time>2017-07-31T08:00:38Z</time>
      </trkpt>
      <trkpt lat="43.2868303545" lon="2.0280888118">
        <ele>143.37</ele>
        <time>2017-07-31T08:00:57Z</time>
      </trkpt>
      <trkpt lat="43.2868214697" lon="2.0280966908">
        <ele>142.89</ele>
        <time>2017-07-31T08:01:20Z</time>
      </trkpt>
      <trkpt lat="43.2868176978" lon="2.0280924998">
        <ele>142.89</ele>
        <time>2017-07-31T08:01:44Z</time>
      </trkpt>
      <trkpt lat="43.2868246548" lon="2.0280864649">
        <ele>143.37</ele>
        <time>2017-07-31T08:02:13Z</time>
      </trkpt>
      <trkpt lat="43.2868284266" lon="2.0280868001">
        <ele>143.37</ele>
        <time>2017-07-31T08:02:39Z</time>
      </trkpt>
      <trkpt lat="43.2868373115" lon="2.0280828606">
        <ele>142.89</ele>
        <time>2017-07-31T08:03:06Z</time>
      </trkpt>
      <trkpt lat="43.2868674025" lon="2.0281004626">
        <ele>142.41</ele>
        <time>2017-07-31T08:03:18Z</time>
      </trkpt>
      <trkpt lat="43.2868658099" lon="2.0281076711">
        <ele>142.41</ele>
        <time>2017-07-31T08:03:30Z</time>
      </trkpt>
      <trkpt lat="43.2868641336" lon="2.0281064976">
        <ele>142.89</ele>
        <time>2017-07-31T08:03:37Z</time>
      </trkpt>
      <trkpt lat="43.2868560031" lon="2.0281280391">
        <ele>142.41</ele>
        <time>2017-07-31T08:03:38Z</time>
      </trkpt>
      <trkpt lat="43.2868510578" lon="2.0281553641">
        <ele>142.41</ele>
        <time>2017-07-31T08:03:39Z</time>
      </trkpt>
      <trkpt lat="43.2868465316" lon="2.0281838626">
        <ele>142.89</ele>
        <time>2017-07-31T08:03:40Z</time>
      </trkpt>
      <trkpt lat="43.2868400775" lon="2.0282111038">
        <ele>142.89</ele>
        <time>2017-07-31T08:03:41Z</time>
      </trkpt>
      <trkpt lat="43.2868331205" lon="2.0282380935">
        <ele>142.89</ele>
        <time>2017-07-31T08:03:42Z</time>
      </trkpt>
      <trkpt lat="43.2867890317" lon="2.0285250898">
        <ele>143.37</ele>
        <time>2017-07-31T08:03:54Z</time>
      </trkpt>
      <trkpt lat="43.2867767941" lon="2.0286799036">
        <ele>143.37</ele>
        <time>2017-07-31T08:04:00Z</time>
      </trkpt>
      <trkpt lat="43.2867446914" lon="2.0288850926">
        <ele>142.89</ele>
        <time>2017-07-31T08:04:06Z</time>
      </trkpt>
      <trkpt lat="43.2866504788" lon="2.0293124020">
        <ele>141.93</ele>
        <time>2017-07-31T08:04:15Z</time>
      </trkpt>
      <trkpt lat="43.2865700964" lon="2.0297075249">
        <ele>141.93</ele>
        <time>2017-07-31T08:04:23Z</time>
      </trkpt>
      <trkpt lat="43.2864581142" lon="2.0300889853">
        <ele>141.45</ele>
        <time>2017-07-31T08:04:32Z</time>
      </trkpt>
      <trkpt lat="43.2863497362" lon="2.0305136126">
        <ele>142.41</ele>
        <time>2017-07-31T08:04:42Z</time>
      </trkpt>
      <trkpt lat="43.2862955891" lon="2.0309183747">
        <ele>141.93</ele>
        <time>2017-07-31T08:04:51Z</time>
      </trkpt>
      <trkpt lat="43.2862243429" lon="2.0313624479">
        <ele>142.41</ele>
        <time>2017-07-31T08:05:00Z</time>
      </trkpt>
      <trkpt lat="43.2861579582" lon="2.0318242069">
        <ele>141.45</ele>
        <time>2017-07-31T08:05:11Z</time>
      </trkpt>
      <trkpt lat="43.2860644162" lon="2.0322593953">
        <ele>141.93</ele>
        <time>2017-07-31T08:05:20Z</time>
      </trkpt>
      <trkpt lat="43.2859054115" lon="2.0329127647">
        <ele>141.45</ele>
        <time>2017-07-31T08:05:33Z</time>
      </trkpt>
      <trkpt lat="43.2857338339" lon="2.0334136672">
        <ele>141.93</ele>
        <time>2017-07-31T08:05:43Z</time>
      </trkpt>
      <trkpt lat="43.2855618373" lon="2.0338240452">
        <ele>142.89</ele>
        <time>2017-07-31T08:05:52Z</time>
      </trkpt>
      <trkpt lat="43.2853879966" lon="2.0343131293">
        <ele>141.93</ele>
        <time>2017-07-31T08:06:01Z</time>
      </trkpt>
      <trkpt lat="43.2853416447" lon="2.0346080046">
        <ele>140.97</ele>
        <time>2017-07-31T08:06:06Z</time>
      </trkpt>
      <trkpt lat="43.2853203546" lon="2.0346758980">
        <ele>140.49</ele>
        <time>2017-07-31T08:06:07Z</time>
      </trkpt>
      <trkpt lat="43.2852936164" lon="2.0347433724">
        <ele>140.49</ele>
        <time>2017-07-31T08:06:08Z</time>
      </trkpt>
      <trkpt lat="43.2852525450" lon="2.0348183904">
        <ele>140.49</ele>
        <time>2017-07-31T08:06:09Z</time>
      </trkpt>
      <trkpt lat="43.2852211129" lon="2.0348863676">
        <ele>140.01</ele>
        <time>2017-07-31T08:06:10Z</time>
      </trkpt>
      <trkpt lat="43.2851937879" lon="2.0349600445">
        <ele>139.53</ele>
        <time>2017-07-31T08:06:11Z</time>
      </trkpt>
      <trkpt lat="43.2850629464" lon="2.0353877731">
        <ele>139.53</ele>
        <time>2017-07-31T08:06:17Z</time>
      </trkpt>
      <trkpt lat="43.2850455958" lon="2.0354531519">
        <ele>139.53</ele>
        <time>2017-07-31T08:06:18Z</time>
      </trkpt>
      <trkpt lat="43.2849362958" lon="2.0358237997">
        <ele>139.53</ele>
        <time>2017-07-31T08:06:24Z</time>
      </trkpt>
      <trkpt lat="43.2849253155" lon="2.0358823054">
        <ele>139.53</ele>
        <time>2017-07-31T08:06:25Z</time>
      </trkpt>
      <trkpt lat="43.2846808154" lon="2.0366857946">
        <ele>140.01</ele>
        <time>2017-07-31T08:06:39Z</time>
      </trkpt>
      <trkpt lat="43.2846648060" lon="2.0367406122">
        <ele>140.01</ele>
        <time>2017-07-31T08:06:40Z</time>
      </trkpt>
      <trkpt lat="43.2844852656" lon="2.0373664051">
        <ele>140.01</ele>
        <time>2017-07-31T08:06:51Z</time>
      </trkpt>
      <trkpt lat="43.2844716869" lon="2.0374239050">
        <ele>139.53</ele>
        <time>2017-07-31T08:06:52Z</time>
      </trkpt>
      <trkpt lat="43.2842774782" lon="2.0381045993">
        <ele>139.53</ele>
        <time>2017-07-31T08:07:04Z</time>
      </trkpt>
      <trkpt lat="43.2840581238" lon="2.0387767442">
        <ele>139.53</ele>
        <time>2017-07-31T08:07:16Z</time>
      </trkpt>
      <trkpt lat="43.2838873006" lon="2.0393148623">
        <ele>139.53</ele>
        <time>2017-07-31T08:07:26Z</time>
      </trkpt>
      <trkpt lat="43.2838712912" lon="2.0393722784">
        <ele>139.53</ele>
        <time>2017-07-31T08:07:27Z</time>
      </trkpt>
      <trkpt lat="43.2838527672" lon="2.0394269284">
        <ele>139.53</ele>
        <time>2017-07-31T08:07:28Z</time>
      </trkpt>
      <trkpt lat="43.2836196665" lon="2.0401324332">
        <ele>139.53</ele>
        <time>2017-07-31T08:07:41Z</time>
      </trkpt>
      <trkpt lat="43.2834424730" lon="2.0406536199">
        <ele>139.05</ele>
        <time>2017-07-31T08:07:51Z</time>
      </trkpt>
      <trkpt lat="43.2834031619" lon="2.0407557115">
        <ele>140.01</ele>
        <time>2017-07-31T08:07:53Z</time>
      </trkpt>
      <trkpt lat="43.2832757570" lon="2.0411188994">
        <ele>139.53</ele>
        <time>2017-07-31T08:08:01Z</time>
      </trkpt>
      <trkpt lat="43.2831369527" lon="2.0415684208">
        <ele>139.53</ele>
        <time>2017-07-31T08:08:11Z</time>
      </trkpt>
      <trkpt lat="43.2830116432" lon="2.0420003403">
        <ele>139.05</ele>
        <time>2017-07-31T08:08:20Z</time>
      </trkpt>
      <trkpt lat="43.2829068694" lon="2.0423164219">
        <ele>140.97</ele>
        <time>2017-07-31T08:08:27Z</time>
      </trkpt>
      <trkpt lat="43.2828723360" lon="2.0424467605">
        <ele>140.49</ele>
        <time>2017-07-31T08:08:30Z</time>
      </trkpt>
      <trkpt lat="43.2828642894" lon="2.0424969681">
        <ele>140.01</ele>
        <time>2017-07-31T08:08:31Z</time>
      </trkpt>
      <trkpt lat="43.2828419097" lon="2.0425606705">
        <ele>139.53</ele>
        <time>2017-07-31T08:08:32Z</time>
      </trkpt>
      <trkpt lat="43.2827972341" lon="2.0427159872">
        <ele>139.53</ele>
        <time>2017-07-31T08:08:35Z</time>
      </trkpt>
      <trkpt lat="43.2827903610" lon="2.0427682903">
        <ele>139.05</ele>
        <time>2017-07-31T08:08:36Z</time>
      </trkpt>
      <trkpt lat="43.2826223038" lon="2.0431725495">
        <ele>139.53</ele>
        <time>2017-07-31T08:08:45Z</time>
      </trkpt>
      <trkpt lat="43.2824120019" lon="2.0438201353">
        <ele>139.53</ele>
        <time>2017-07-31T08:08:59Z</time>
      </trkpt>
      <trkpt lat="43.2823172025" lon="2.0441378094">
        <ele>139.53</ele>
        <time>2017-07-31T08:09:05Z</time>
      </trkpt>
      <trkpt lat="43.2822998520" lon="2.0441941358">
        <ele>139.53</ele>
        <time>2017-07-31T08:09:06Z</time>
      </trkpt>
      <trkpt lat="43.2822786458" lon="2.0442500431">
        <ele>139.53</ele>
        <time>2017-07-31T08:09:07Z</time>
      </trkpt>
      <trkpt lat="43.2822528295" lon="2.0443039387">
        <ele>140.01</ele>
        <time>2017-07-31T08:09:08Z</time>
      </trkpt>
      <trkpt lat="43.2822258398" lon="2.0443580020">
        <ele>140.01</ele>
        <time>2017-07-31T08:09:09Z</time>
      </trkpt>
      <trkpt lat="43.2822037954" lon="2.0444158372">
        <ele>139.05</ele>
        <time>2017-07-31T08:09:10Z</time>
      </trkpt>
      <trkpt lat="43.2820614707" lon="2.0448561385">
        <ele>139.53</ele>
        <time>2017-07-31T08:09:18Z</time>
      </trkpt>
      <trkpt lat="43.2820500713" lon="2.0449118782">
        <ele>139.53</ele>
        <time>2017-07-31T08:09:19Z</time>
      </trkpt>
      <trkpt lat="43.2820407674" lon="2.0449675340">
        <ele>139.05</ele>
        <time>2017-07-31T08:09:20Z</time>
      </trkpt>
      <trkpt lat="43.2820225786" lon="2.0450209267">
        <ele>139.53</ele>
        <time>2017-07-31T08:09:21Z</time>
      </trkpt>
      <trkpt lat="43.2820035517" lon="2.0450757444">
        <ele>139.53</ele>
        <time>2017-07-31T08:09:22Z</time>
      </trkpt>
      <trkpt lat="43.2819847763" lon="2.0451323222">
        <ele>139.05</ele>
        <time>2017-07-31T08:09:23Z</time>
      </trkpt>
      <trkpt lat="43.2819642406" lon="2.0451873075">
        <ele>139.53</ele>
        <time>2017-07-31T08:09:24Z</time>
      </trkpt>
      <trkpt lat="43.2819452137" lon="2.0452434663">
        <ele>139.05</ele>
        <time>2017-07-31T08:09:25Z</time>
      </trkpt>
      <trkpt lat="43.2819274440" lon="2.0453013014">
        <ele>139.53</ele>
        <time>2017-07-31T08:09:26Z</time>
      </trkpt>
      <trkpt lat="43.2818657532" lon="2.0454717893">
        <ele>139.53</ele>
        <time>2017-07-31T08:09:29Z</time>
      </trkpt>
      <trkpt lat="43.2817613985" lon="2.0458066463">
        <ele>139.53</ele>
        <time>2017-07-31T08:09:35Z</time>
      </trkpt>
      <trkpt lat="43.2817419525" lon="2.0458579436">
        <ele>139.53</ele>
        <time>2017-07-31T08:09:36Z</time>
      </trkpt>
      <trkpt lat="43.2815498393" lon="2.0464502927">
        <ele>139.05</ele>
        <time>2017-07-31T08:09:48Z</time>
      </trkpt>
      <trkpt lat="43.2814126275" lon="2.0468552224">
        <ele>140.01</ele>
        <time>2017-07-31T08:09:56Z</time>
      </trkpt>
      <trkpt lat="43.2812065165" lon="2.0474634971">
        <ele>140.01</ele>
        <time>2017-07-31T08:10:08Z</time>
      </trkpt>
      <trkpt lat="43.2811884116" lon="2.0475173928">
        <ele>139.53</ele>
        <time>2017-07-31T08:10:09Z</time>
      </trkpt>
      <trkpt lat="43.2811709773" lon="2.0475699473">
        <ele>139.53</ele>
        <time>2017-07-31T08:10:10Z</time>
      </trkpt>
      <trkpt lat="43.2809020020" lon="2.0482788887">
        <ele>140.49</ele>
        <time>2017-07-31T08:10:24Z</time>
      </trkpt>
      <trkpt lat="43.2807329390" lon="2.0486891828">
        <ele>140.49</ele>
        <time>2017-07-31T08:10:32Z</time>
      </trkpt>
      <trkpt lat="43.2806800492" lon="2.0488688909">
        <ele>140.01</ele>
        <time>2017-07-31T08:10:35Z</time>
      </trkpt>
      <trkpt lat="43.2806616090" lon="2.0489290729">
        <ele>140.01</ele>
        <time>2017-07-31T08:10:36Z</time>
      </trkpt>
      <trkpt lat="43.2806230523" lon="2.0490479283">
        <ele>140.01</ele>
        <time>2017-07-31T08:10:38Z</time>
      </trkpt>
      <trkpt lat="43.2805337012" lon="2.0493382774">
        <ele>139.53</ele>
        <time>2017-07-31T08:10:43Z</time>
      </trkpt>
      <trkpt lat="43.2805274148" lon="2.0493913349">
        <ele>139.53</ele>
        <time>2017-07-31T08:10:44Z</time>
      </trkpt>
      <trkpt lat="43.2805223018" lon="2.0494469907">
        <ele>139.53</ele>
        <time>2017-07-31T08:10:45Z</time>
      </trkpt>
      <trkpt lat="43.2804958988" lon="2.0499266870">
        <ele>140.01</ele>
        <time>2017-07-31T08:10:52Z</time>
      </trkpt>
      <trkpt lat="43.2804809790" lon="2.0499945804">
        <ele>140.01</ele>
        <time>2017-07-31T08:10:53Z</time>
      </trkpt>
      <trkpt lat="43.2804492116" lon="2.0500551816">
        <ele>140.01</ele>
        <time>2017-07-31T08:10:54Z</time>
      </trkpt>
      <trkpt lat="43.2804072183" lon="2.0500990190">
        <ele>139.53</ele>
        <time>2017-07-31T08:10:55Z</time>
      </trkpt>
      <trkpt lat="43.2803628780" lon="2.0501271822">
        <ele>139.53</ele>
        <time>2017-07-31T08:10:56Z</time>
      </trkpt>
      <trkpt lat="43.2803162746" lon="2.0501384977">
        <ele>140.01</ele>
        <time>2017-07-31T08:10:57Z</time>
      </trkpt>
      <trkpt lat="43.2802692521" lon="2.0501327142">
        <ele>139.05</ele>
        <time>2017-07-31T08:10:58Z</time>
      </trkpt>
      <trkpt lat="43.2802302763" lon="2.0501244161">
        <ele>139.05</ele>
        <time>2017-07-31T08:10:59Z</time>
      </trkpt>
      <trkpt lat="43.2801842596" lon="2.0501161180">
        <ele>139.53</ele>
        <time>2017-07-31T08:11:01Z</time>
      </trkpt>
      <trkpt lat="43.2801847626" lon="2.0500983484">
        <ele>139.05</ele>
        <time>2017-07-31T08:11:02Z</time>
      </trkpt>
      <trkpt lat="43.2802058011" lon="2.0500921458">
        <ele>139.53</ele>
        <time>2017-07-31T08:11:04Z</time>
      </trkpt>
      <trkpt lat="43.2802164461" lon="2.0501058921">
        <ele>139.53</ele>
        <time>2017-07-31T08:11:05Z</time>
      </trkpt>
      <trkpt lat="43.2802222297" lon="2.0501275174">
        <ele>139.53</ele>
        <time>2017-07-31T08:11:06Z</time>
      </trkpt>
      <trkpt lat="43.2802246604" lon="2.0501561835">
        <ele>139.53</ele>
        <time>2017-07-31T08:11:07Z</time>
      </trkpt>
      <trkpt lat="43.2802227326" lon="2.0501944050">
        <ele>139.53</ele>
        <time>2017-07-31T08:11:08Z</time>
      </trkpt>
      <trkpt lat="43.2802147698" lon="2.0502426010">
        <ele>139.05</ele>
        <time>2017-07-31T08:11:09Z</time>
      </trkpt>
      <trkpt lat="43.2801983412" lon="2.0502952393">
        <ele>138.57</ele>
        <time>2017-07-31T08:11:10Z</time>
      </trkpt>
      <trkpt lat="43.2801762968" lon="2.0503493864">
        <ele>138.57</ele>
        <time>2017-07-31T08:11:11Z</time>
      </trkpt>
      <trkpt lat="43.2801583596" lon="2.0504053775">
        <ele>138.57</ele>
        <time>2017-07-31T08:11:12Z</time>
      </trkpt>
      <trkpt lat="43.2801415958" lon="2.0504630450">
        <ele>138.57</ele>
        <time>2017-07-31T08:11:13Z</time>
      </trkpt>
      <trkpt lat="43.2801176235" lon="2.0505211316">
        <ele>138.57</ele>
        <time>2017-07-31T08:11:14Z</time>
      </trkpt>
      <trkpt lat="43.2800939865" lon="2.0505815651">
        <ele>138.09</ele>
        <time>2017-07-31T08:11:15Z</time>
      </trkpt>
      <trkpt lat="43.2800738700" lon="2.0506481174">
        <ele>137.61</ele>
        <time>2017-07-31T08:11:16Z</time>
      </trkpt>
      <trkpt lat="43.2799413521" lon="2.0510441624">
        <ele>137.61</ele>
        <time>2017-07-31T08:11:21Z</time>
      </trkpt>
      <trkpt lat="43.2798542641" lon="2.0512562245">
        <ele>136.64</ele>
        <time>2017-07-31T08:11:24Z</time>
      </trkpt>
      <trkpt lat="43.2796413638" lon="2.0519005414">
        <ele>136.64</ele>
        <time>2017-07-31T08:11:34Z</time>
      </trkpt>
      <trkpt lat="43.2795406133" lon="2.0521971770">
        <ele>136.16</ele>
        <time>2017-07-31T08:11:39Z</time>
      </trkpt>
      <trkpt lat="43.2795238495" lon="2.0522560179">
        <ele>136.16</ele>
        <time>2017-07-31T08:11:40Z</time>
      </trkpt>
      <trkpt lat="43.2793718018" lon="2.0527125802">
        <ele>136.16</ele>
        <time>2017-07-31T08:11:48Z</time>
      </trkpt>
      <trkpt lat="43.2792693749" lon="2.0530439168">
        <ele>136.16</ele>
        <time>2017-07-31T08:11:54Z</time>
      </trkpt>
      <trkpt lat="43.2791917585" lon="2.0532603376">
        <ele>136.16</ele>
        <time>2017-07-31T08:11:58Z</time>
      </trkpt>
      <trkpt lat="43.2791683730" lon="2.0533168316">
        <ele>136.16</ele>
        <time>2017-07-31T08:11:59Z</time>
      </trkpt>
      <trkpt lat="43.2791287266" lon="2.0534267183">
        <ele>136.16</ele>
        <time>2017-07-31T08:12:01Z</time>
      </trkpt>
      <trkpt lat="43.2790252939" lon="2.0536943525">
        <ele>136.64</ele>
        <time>2017-07-31T08:12:06Z</time>
      </trkpt>
      <trkpt lat="43.2790056802" lon="2.0537448116">
        <ele>136.16</ele>
        <time>2017-07-31T08:12:07Z</time>
      </trkpt>
      <trkpt lat="43.2789086178" lon="2.0540560316">
        <ele>136.16</ele>
        <time>2017-07-31T08:12:13Z</time>
      </trkpt>
      <trkpt lat="43.2788645290" lon="2.0541597996">
        <ele>136.16</ele>
        <time>2017-07-31T08:12:15Z</time>
      </trkpt>
      <trkpt lat="43.2788496092" lon="2.0542169642">
        <ele>136.16</ele>
        <time>2017-07-31T08:12:16Z</time>
      </trkpt>
      <trkpt lat="43.2788322587" lon="2.0542721171">
        <ele>136.16</ele>
        <time>2017-07-31T08:12:17Z</time>
      </trkpt>
      <trkpt lat="43.2788101304" lon="2.0543253422">
        <ele>136.16</ele>
        <time>2017-07-31T08:12:18Z</time>
      </trkpt>
      <trkpt lat="43.2787941210" lon="2.0543779805">
        <ele>135.68</ele>
        <time>2017-07-31T08:12:19Z</time>
      </trkpt>
      <trkpt lat="43.2787888404" lon="2.0544213150">
        <ele>135.68</ele>
        <time>2017-07-31T08:12:20Z</time>
      </trkpt>
      <trkpt lat="43.2787887566" lon="2.0544589497">
        <ele>136.16</ele>
        <time>2017-07-31T08:12:21Z</time>
      </trkpt>
      <trkpt lat="43.2787803747" lon="2.0545065589">
        <ele>136.16</ele>
        <time>2017-07-31T08:12:22Z</time>
      </trkpt>
      <trkpt lat="43.2787668798" lon="2.0545572694">
        <ele>136.16</ele>
        <time>2017-07-31T08:12:23Z</time>
      </trkpt>
      <trkpt lat="43.2787364535" lon="2.0546708442">
        <ele>135.68</ele>
        <time>2017-07-31T08:12:25Z</time>
      </trkpt>
      <trkpt lat="43.2787165046" lon="2.0547303557">
        <ele>135.68</ele>
        <time>2017-07-31T08:12:26Z</time>
      </trkpt>
      <trkpt lat="43.2786709908" lon="2.0548585989">
        <ele>136.16</ele>
        <time>2017-07-31T08:12:28Z</time>
      </trkpt>
      <trkpt lat="43.2785286661" lon="2.0551740937">
        <ele>136.16</ele>
        <time>2017-07-31T08:12:33Z</time>
      </trkpt>
      <trkpt lat="43.2784533128" lon="2.0554106310">
        <ele>136.16</ele>
        <time>2017-07-31T08:12:37Z</time>
      </trkpt>
      <trkpt lat="43.2784261554" lon="2.0554712322">
        <ele>136.16</ele>
        <time>2017-07-31T08:12:38Z</time>
      </trkpt>
      <trkpt lat="43.2784036081" lon="2.0555312466">
        <ele>136.16</ele>
        <time>2017-07-31T08:12:39Z</time>
      </trkpt>
      <trkpt lat="43.2783869281" lon="2.0555920154">
        <ele>136.16</ele>
        <time>2017-07-31T08:12:40Z</time>
      </trkpt>
      <trkpt lat="43.2783706672" lon="2.0556515269">
        <ele>136.16</ele>
        <time>2017-07-31T08:12:41Z</time>
      </trkpt>
      <trkpt lat="43.2783554960" lon="2.0557107870">
        <ele>136.16</ele>
        <time>2017-07-31T08:12:42Z</time>
      </trkpt>
      <trkpt lat="43.2781954017" lon="2.0562839415">
        <ele>136.64</ele>
        <time>2017-07-31T08:12:52Z</time>
      </trkpt>
      <trkpt lat="43.2781523187" lon="2.0563936606">
        <ele>136.16</ele>
        <time>2017-07-31T08:12:54Z</time>
      </trkpt>
      <trkpt lat="43.2781235687" lon="2.0564478915">
        <ele>136.16</ele>
        <time>2017-07-31T08:12:55Z</time>
      </trkpt>
      <trkpt lat="43.2779975049" lon="2.0568342134">
        <ele>135.68</ele>
        <time>2017-07-31T08:13:02Z</time>
      </trkpt>
      <trkpt lat="43.2779288571" lon="2.0573254768">
        <ele>136.16</ele>
        <time>2017-07-31T08:13:11Z</time>
      </trkpt>
      <trkpt lat="43.2778312080" lon="2.0577646047">
        <ele>136.16</ele>
        <time>2017-07-31T08:13:19Z</time>
      </trkpt>
      <trkpt lat="43.2777436171" lon="2.0583988633">
        <ele>136.16</ele>
        <time>2017-07-31T08:13:29Z</time>
      </trkpt>
      <trkpt lat="43.2776662521" lon="2.0588793978">
        <ele>136.16</ele>
        <time>2017-07-31T08:13:38Z</time>
      </trkpt>
      <trkpt lat="43.2776563615" lon="2.0592916198">
        <ele>136.16</ele>
        <time>2017-07-31T08:13:46Z</time>
      </trkpt>
      <trkpt lat="43.2776597980" lon="2.0596980583">
        <ele>136.64</ele>
        <time>2017-07-31T08:13:54Z</time>
      </trkpt>
      <trkpt lat="43.2776019629" lon="2.0599664468">
        <ele>136.64</ele>
        <time>2017-07-31T08:13:58Z</time>
      </trkpt>
      <trkpt lat="43.2775862049" lon="2.0600290596">
        <ele>136.64</ele>
        <time>2017-07-31T08:13:59Z</time>
      </trkpt>
      <trkpt lat="43.2775706984" lon="2.0600938518">
        <ele>136.16</ele>
        <time>2017-07-31T08:14:00Z</time>
      </trkpt>
      <trkpt lat="43.2775558624" lon="2.0601602364">
        <ele>136.16</ele>
        <time>2017-07-31T08:14:01Z</time>
      </trkpt>
      <trkpt lat="43.2775442954" lon="2.0602262858">
        <ele>136.16</ele>
        <time>2017-07-31T08:14:02Z</time>
      </trkpt>
      <trkpt lat="43.2775188982" lon="2.0603746455">
        <ele>137.13</ele>
        <time>2017-07-31T08:14:04Z</time>
      </trkpt>
      <trkpt lat="43.2775054034" lon="2.0604462270">
        <ele>136.16</ele>
        <time>2017-07-31T08:14:05Z</time>
      </trkpt>
      <trkpt lat="43.2774161361" lon="2.0610314514">
        <ele>136.64</ele>
        <time>2017-07-31T08:14:14Z</time>
      </trkpt>
      <trkpt lat="43.2774081733" lon="2.0610959921">
        <ele>136.16</ele>
        <time>2017-07-31T08:14:15Z</time>
      </trkpt>
      <trkpt lat="43.2773960195" lon="2.0611622091">
        <ele>136.16</ele>
        <time>2017-07-31T08:14:16Z</time>
      </trkpt>
      <trkpt lat="43.2773818541" lon="2.0612279233">
        <ele>136.16</ele>
        <time>2017-07-31T08:14:17Z</time>
      </trkpt>
      <trkpt lat="43.2773737237" lon="2.0612896141">
        <ele>136.16</ele>
        <time>2017-07-31T08:14:18Z</time>
      </trkpt>
      <trkpt lat="43.2773092669" lon="2.0618124772">
        <ele>136.16</ele>
        <time>2017-07-31T08:14:27Z</time>
      </trkpt>
      <trkpt lat="43.2772925869" lon="2.0618691389">
        <ele>136.16</ele>
        <time>2017-07-31T08:14:28Z</time>
      </trkpt>
      <trkpt lat="43.2772761583" lon="2.0619272254">
        <ele>136.16</ele>
        <time>2017-07-31T08:14:29Z</time>
      </trkpt>
      <trkpt lat="43.2772651780" lon="2.0619843062">
        <ele>136.16</ele>
        <time>2017-07-31T08:14:30Z</time>
      </trkpt>
      <trkpt lat="43.2772648428" lon="2.0620355196">
        <ele>136.16</ele>
        <time>2017-07-31T08:14:31Z</time>
      </trkpt>
      <trkpt lat="43.2772713806" lon="2.0620852243">
        <ele>136.16</ele>
        <time>2017-07-31T08:14:32Z</time>
      </trkpt>
      <trkpt lat="43.2772728056" lon="2.0621395390">
        <ele>136.16</ele>
        <time>2017-07-31T08:14:33Z</time>
      </trkpt>
      <trkpt lat="43.2772690337" lon="2.0621984638">
        <ele>136.16</ele>
        <time>2017-07-31T08:14:34Z</time>
      </trkpt>
      <trkpt lat="43.2772588916" lon="2.0622610766">
        <ele>136.16</ele>
        <time>2017-07-31T08:14:35Z</time>
      </trkpt>
      <trkpt lat="43.2772419602" lon="2.0623863023">
        <ele>136.64</ele>
        <time>2017-07-31T08:14:37Z</time>
      </trkpt>
      <trkpt lat="43.2772337459" lon="2.0624474064">
        <ele>136.64</ele>
        <time>2017-07-31T08:14:38Z</time>
      </trkpt>
      <trkpt lat="43.2772262022" lon="2.0625071693">
        <ele>136.64</ele>
        <time>2017-07-31T08:14:39Z</time>
      </trkpt>
      <trkpt lat="43.2772079296" lon="2.0625670999">
        <ele>136.64</ele>
        <time>2017-07-31T08:14:40Z</time>
      </trkpt>
      <trkpt lat="43.2771914173" lon="2.0626244321">
        <ele>136.64</ele>
        <time>2017-07-31T08:14:41Z</time>
      </trkpt>
      <trkpt lat="43.2771762460" lon="2.0626814291">
        <ele>136.64</ele>
        <time>2017-07-31T08:14:42Z</time>
      </trkpt>
      <trkpt lat="43.2771623321" lon="2.0627415273">
        <ele>136.64</ele>
        <time>2017-07-31T08:14:43Z</time>
      </trkpt>
      <trkpt lat="43.2771295588" lon="2.0632194635">
        <ele>136.64</ele>
        <time>2017-07-31T08:14:51Z</time>
      </trkpt>
      <trkpt lat="43.2771077659" lon="2.0634010155">
        <ele>136.16</ele>
        <time>2017-07-31T08:14:54Z</time>
      </trkpt>
      <trkpt lat="43.2771039102" lon="2.0634617005">
        <ele>136.16</ele>
        <time>2017-07-31T08:14:55Z</time>
      </trkpt>
      <trkpt lat="43.2770956960" lon="2.0635239780">
        <ele>136.16</ele>
        <time>2017-07-31T08:14:56Z</time>
      </trkpt>
      <trkpt lat="43.2770908345" lon="2.0635833219">
        <ele>136.16</ele>
        <time>2017-07-31T08:14:57Z</time>
      </trkpt>
      <trkpt lat="43.2770800218" lon="2.0636487845">
        <ele>136.16</ele>
        <time>2017-07-31T08:14:58Z</time>
      </trkpt>
      <trkpt lat="43.2770299818" lon="2.0639620163">
        <ele>136.64</ele>
        <time>2017-07-31T08:15:03Z</time>
      </trkpt>
      <trkpt lat="43.2770089433" lon="2.0640251320">
        <ele>136.64</ele>
        <time>2017-07-31T08:15:04Z</time>
      </trkpt>
      <trkpt lat="43.2769951131" lon="2.0640848950">
        <ele>136.64</ele>
        <time>2017-07-31T08:15:05Z</time>
      </trkpt>
      <trkpt lat="43.2769903354" lon="2.0641408861">
        <ele>136.64</ele>
        <time>2017-07-31T08:15:06Z</time>
      </trkpt>
      <trkpt lat="43.2769851387" lon="2.0641967934">
        <ele>136.64</ele>
        <time>2017-07-31T08:15:07Z</time>
      </trkpt>
      <trkpt lat="43.2769777626" lon="2.0642569754">
        <ele>137.13</ele>
        <time>2017-07-31T08:15:08Z</time>
      </trkpt>
      <trkpt lat="43.2769642677" lon="2.0643233601">
        <ele>137.13</ele>
        <time>2017-07-31T08:15:09Z</time>
      </trkpt>
      <trkpt lat="43.2769532874" lon="2.0643847995">
        <ele>137.13</ele>
        <time>2017-07-31T08:15:10Z</time>
      </trkpt>
      <trkpt lat="43.2769324165" lon="2.0644997992">
        <ele>136.64</ele>
        <time>2017-07-31T08:15:12Z</time>
      </trkpt>
      <trkpt lat="43.2768486813" lon="2.0650710259">
        <ele>136.64</ele>
        <time>2017-07-31T08:15:22Z</time>
      </trkpt>
      <trkpt lat="43.2768185902" lon="2.0652985107">
        <ele>136.64</ele>
        <time>2017-07-31T08:15:26Z</time>
      </trkpt>
      <trkpt lat="43.2768197637" lon="2.0653478801">
        <ele>136.64</ele>
        <time>2017-07-31T08:15:27Z</time>
      </trkpt>
      <trkpt lat="43.2768242899" lon="2.0653928071">
        <ele>136.64</ele>
        <time>2017-07-31T08:15:28Z</time>
      </trkpt>
      <trkpt lat="43.2768268883" lon="2.0654453617">
        <ele>136.64</ele>
        <time>2017-07-31T08:15:29Z</time>
      </trkpt>
      <trkpt lat="43.2768295705" lon="2.0654977486">
        <ele>136.64</ele>
        <time>2017-07-31T08:15:30Z</time>
      </trkpt>
      <trkpt lat="43.2768345997" lon="2.0655516442">
        <ele>136.64</ele>
        <time>2017-07-31T08:15:31Z</time>
      </trkpt>
      <trkpt lat="43.2767765131" lon="2.0658958890">
        <ele>136.64</ele>
        <time>2017-07-31T08:15:37Z</time>
      </trkpt>
      <trkpt lat="43.2767584082" lon="2.0660942886">
        <ele>136.64</ele>
        <time>2017-07-31T08:15:40Z</time>
      </trkpt>
      <trkpt lat="43.2767016627" lon="2.0665185805">
        <ele>136.16</ele>
        <time>2017-07-31T08:15:47Z</time>
      </trkpt>
      <trkpt lat="43.2766937837" lon="2.0665791817">
        <ele>136.64</ele>
        <time>2017-07-31T08:15:48Z</time>
      </trkpt>
      <trkpt lat="43.2766791154" lon="2.0668747276">
        <ele>136.64</ele>
        <time>2017-07-31T08:15:53Z</time>
      </trkpt>
      <trkpt lat="43.2766677160" lon="2.0670059044">
        <ele>136.64</ele>
        <time>2017-07-31T08:15:55Z</time>
      </trkpt>
      <trkpt lat="43.2766613457" lon="2.0670740493">
        <ele>136.64</ele>
        <time>2017-07-31T08:15:56Z</time>
      </trkpt>
      <trkpt lat="43.2765502017" lon="2.0677604433">
        <ele>136.16</ele>
        <time>2017-07-31T08:16:07Z</time>
      </trkpt>
      <trkpt lat="43.2764589228" lon="2.0683613420">
        <ele>136.64</ele>
        <time>2017-07-31T08:16:17Z</time>
      </trkpt>
      <trkpt lat="43.2764178514" lon="2.0686557982">
        <ele>137.13</ele>
        <time>2017-07-31T08:16:22Z</time>
      </trkpt>
      <trkpt lat="43.2764057815" lon="2.0687138848">
        <ele>136.64</ele>
        <time>2017-07-31T08:16:23Z</time>
      </trkpt>
      <trkpt lat="43.2763522211" lon="2.0689380169">
        <ele>136.16</ele>
        <time>2017-07-31T08:16:27Z</time>
      </trkpt>
      <trkpt lat="43.2763099764" lon="2.0690540224">
        <ele>136.64</ele>
        <time>2017-07-31T08:16:29Z</time>
      </trkpt>
      <trkpt lat="43.2762881834" lon="2.0691155456">
        <ele>136.64</ele>
        <time>2017-07-31T08:16:30Z</time>
      </trkpt>
      <trkpt lat="43.2762736827" lon="2.0691737998">
        <ele>136.16</ele>
        <time>2017-07-31T08:16:31Z</time>
      </trkpt>
      <trkpt lat="43.2762606908" lon="2.0692267735">
        <ele>136.64</ele>
        <time>2017-07-31T08:16:32Z</time>
      </trkpt>
      <trkpt lat="43.2762451004" lon="2.0692788251">
        <ele>136.64</ele>
        <time>2017-07-31T08:16:33Z</time>
      </trkpt>
      <trkpt lat="43.2762253191" lon="2.0693338942">
        <ele>136.64</ele>
        <time>2017-07-31T08:16:34Z</time>
      </trkpt>
      <trkpt lat="43.2762069628" lon="2.0693846885">
        <ele>136.16</ele>
        <time>2017-07-31T08:16:35Z</time>
      </trkpt>
      <trkpt lat="43.2761895284" lon="2.0694361534">
        <ele>136.64</ele>
        <time>2017-07-31T08:16:36Z</time>
      </trkpt>
      <trkpt lat="43.2761736028" lon="2.0694875345">
        <ele>136.64</ele>
        <time>2017-07-31T08:16:37Z</time>
      </trkpt>
      <trkpt lat="43.2761510555" lon="2.0695351437">
        <ele>136.16</ele>
        <time>2017-07-31T08:16:38Z</time>
      </trkpt>
      <trkpt lat="43.2761274185" lon="2.0695835911">
        <ele>136.16</ele>
        <time>2017-07-31T08:16:39Z</time>
      </trkpt>
      <trkpt lat="43.2758659869" lon="2.0701982360">
        <ele>136.64</ele>
        <time>2017-07-31T08:16:51Z</time>
      </trkpt>
      <trkpt lat="43.2757741213" lon="2.0704071969">
        <ele>136.16</ele>
        <time>2017-07-31T08:16:55Z</time>
      </trkpt>
      <trkpt lat="43.2757445332" lon="2.0704654511">
        <ele>136.16</ele>
        <time>2017-07-31T08:16:56Z</time>
      </trkpt>
      <trkpt lat="43.2756821718" lon="2.0706325863">
        <ele>136.16</ele>
        <time>2017-07-31T08:16:59Z</time>
      </trkpt>
      <trkpt lat="43.2755629811" lon="2.0709360112">
        <ele>136.16</ele>
        <time>2017-07-31T08:17:05Z</time>
      </trkpt>
      <trkpt lat="43.2754955068" lon="2.0711062476">
        <ele>135.68</ele>
        <time>2017-07-31T08:17:09Z</time>
      </trkpt>
      <trkpt lat="43.2753411960" lon="2.0715171285">
        <ele>136.64</ele>
        <time>2017-07-31T08:17:17Z</time>
      </trkpt>
      <trkpt lat="43.2752483245" lon="2.0717674121">
        <ele>137.13</ele>
        <time>2017-07-31T08:17:21Z</time>
      </trkpt>
      <trkpt lat="43.2752222568" lon="2.0718257502">
        <ele>136.64</ele>
        <time>2017-07-31T08:17:22Z</time>
      </trkpt>
      <trkpt lat="43.2752027269" lon="2.0718907099">
        <ele>136.64</ele>
        <time>2017-07-31T08:17:23Z</time>
      </trkpt>
      <trkpt lat="43.2751059998" lon="2.0722959749">
        <ele>137.13</ele>
        <time>2017-07-31T08:17:29Z</time>
      </trkpt>
      <trkpt lat="43.2751018927" lon="2.0723611023">
        <ele>136.64</ele>
        <time>2017-07-31T08:17:30Z</time>
      </trkpt>
      <trkpt lat="43.2751032338" lon="2.0724270679">
        <ele>136.64</ele>
        <time>2017-07-31T08:17:31Z</time>
      </trkpt>
      <trkpt lat="43.2751094364" lon="2.0724864956">
        <ele>137.13</ele>
        <time>2017-07-31T08:17:32Z</time>
      </trkpt>
      <trkpt lat="43.2751144655" lon="2.0725388825">
        <ele>137.13</ele>
        <time>2017-07-31T08:17:33Z</time>
      </trkpt>
      <trkpt lat="43.2751301397" lon="2.0725867432">
        <ele>137.13</ele>
        <time>2017-07-31T08:17:34Z</time>
      </trkpt>
      <trkpt lat="43.2751525193" lon="2.0726415608">
        <ele>137.13</ele>
        <time>2017-07-31T08:17:35Z</time>
      </trkpt>
      <trkpt lat="43.2751678582" lon="2.0727064367">
        <ele>137.13</ele>
        <time>2017-07-31T08:17:36Z</time>
      </trkpt>
      <trkpt lat="43.2751806825" lon="2.0727743302">
        <ele>136.64</ele>
        <time>2017-07-31T08:17:37Z</time>
      </trkpt>
      <trkpt lat="43.2752249390" lon="2.0729827881">
        <ele>137.61</ele>
        <time>2017-07-31T08:17:40Z</time>
      </trkpt>
      <trkpt lat="43.2752427086" lon="2.0730494242">
        <ele>137.13</ele>
        <time>2017-07-31T08:17:41Z</time>
      </trkpt>
      <trkpt lat="43.2752586342" lon="2.0731165633">
        <ele>137.13</ele>
        <time>2017-07-31T08:17:42Z</time>
      </trkpt>
      <trkpt lat="43.2753301319" lon="2.0733837783">
        <ele>136.64</ele>
        <time>2017-07-31T08:17:46Z</time>
      </trkpt>
      <trkpt lat="43.2754994463" lon="2.0738459565">
        <ele>137.13</ele>
        <time>2017-07-31T08:17:54Z</time>
      </trkpt>
      <trkpt lat="43.2755160425" lon="2.0739102457">
        <ele>137.13</ele>
        <time>2017-07-31T08:17:55Z</time>
      </trkpt>
      <trkpt lat="43.2755357400" lon="2.0739705954">
        <ele>137.13</ele>
        <time>2017-07-31T08:17:56Z</time>
      </trkpt>
      <trkpt lat="43.2755553536" lon="2.0740301907">
        <ele>137.13</ele>
        <time>2017-07-31T08:17:57Z</time>
      </trkpt>
      <trkpt lat="43.2755779009" lon="2.0740902890">
        <ele>136.64</ele>
        <time>2017-07-31T08:17:58Z</time>
      </trkpt>
      <trkpt lat="43.2756012026" lon="2.0741490461">
        <ele>137.13</ele>
        <time>2017-07-31T08:17:59Z</time>
      </trkpt>
      <trkpt lat="43.2757880352" lon="2.0745098870">
        <ele>137.13</ele>
        <time>2017-07-31T08:18:06Z</time>
      </trkpt>
      <trkpt lat="43.2758998498" lon="2.0747272298">
        <ele>137.13</ele>
        <time>2017-07-31T08:18:10Z</time>
      </trkpt>
      <trkpt lat="43.2759499736" lon="2.0748360269">
        <ele>137.13</ele>
        <time>2017-07-31T08:18:12Z</time>
      </trkpt>
      <trkpt lat="43.2759776339" lon="2.0748906769">
        <ele>136.64</ele>
        <time>2017-07-31T08:18:13Z</time>
      </trkpt>
      <trkpt lat="43.2760054618" lon="2.0749451593">
        <ele>137.13</ele>
        <time>2017-07-31T08:18:14Z</time>
      </trkpt>
      <trkpt lat="43.2760307752" lon="2.0749992225">
        <ele>137.13</ele>
        <time>2017-07-31T08:18:15Z</time>
      </trkpt>
      <trkpt lat="43.2760529034" lon="2.0750539564">
        <ele>137.13</ele>
        <time>2017-07-31T08:18:16Z</time>
      </trkpt>
      <trkpt lat="43.2760742772" lon="2.0751095284">
        <ele>136.64</ele>
        <time>2017-07-31T08:18:17Z</time>
      </trkpt>
      <trkpt lat="43.2761092298" lon="2.0752789266">
        <ele>136.64</ele>
        <time>2017-07-31T08:18:20Z</time>
      </trkpt>
      <trkpt lat="43.2761090621" lon="2.0753374323">
        <ele>136.64</ele>
        <time>2017-07-31T08:18:21Z</time>
      </trkpt>
      <trkpt lat="43.2761616167" lon="2.0760258380">
        <ele>136.64</ele>
        <time>2017-07-31T08:18:33Z</time>
      </trkpt>
      <trkpt lat="43.2761357166" lon="2.0764842443">
        <ele>136.64</ele>
        <time>2017-07-31T08:18:41Z</time>
      </trkpt>
      <trkpt lat="43.2761156838" lon="2.0768472645">
        <ele>136.16</ele>
        <time>2017-07-31T08:18:47Z</time>
      </trkpt>
      <trkpt lat="43.2760507241" lon="2.0774560422">
        <ele>137.13</ele>
        <time>2017-07-31T08:18:57Z</time>
      </trkpt>
      <trkpt lat="43.2759768795" lon="2.0780566055">
        <ele>137.61</ele>
        <time>2017-07-31T08:19:07Z</time>
      </trkpt>
      <trkpt lat="43.2759656478" lon="2.0782477967">
        <ele>138.09</ele>
        <time>2017-07-31T08:19:10Z</time>
      </trkpt>
      <trkpt lat="43.2759646419" lon="2.0783061348">
        <ele>138.09</ele>
        <time>2017-07-31T08:19:11Z</time>
      </trkpt>
      <trkpt lat="43.2759993430" lon="2.0788450912">
        <ele>139.05</ele>
        <time>2017-07-31T08:19:23Z</time>
      </trkpt>
      <trkpt lat="43.2759528235" lon="2.0790749229">
        <ele>138.57</ele>
        <time>2017-07-31T08:19:30Z</time>
      </trkpt>
      <trkpt lat="43.2759437710" lon="2.0791371167">
        <ele>138.09</ele>
        <time>2017-07-31T08:19:31Z</time>
      </trkpt>
      <trkpt lat="43.2759386580" lon="2.0792072732">
        <ele>138.09</ele>
        <time>2017-07-31T08:19:32Z</time>
      </trkpt>
      <trkpt lat="43.2759318687" lon="2.0792802796">
        <ele>137.61</ele>
        <time>2017-07-31T08:19:33Z</time>
      </trkpt>
      <trkpt lat="43.2759071421" lon="2.0795041602">
        <ele>136.16</ele>
        <time>2017-07-31T08:19:36Z</time>
      </trkpt>
      <trkpt lat="43.2759078965" lon="2.0795756578">
        <ele>136.16</ele>
        <time>2017-07-31T08:19:37Z</time>
      </trkpt>
      <trkpt lat="43.2759126741" lon="2.0796381868">
        <ele>136.16</ele>
        <time>2017-07-31T08:19:38Z</time>
      </trkpt>
      <trkpt lat="43.2759151049" lon="2.0797884744">
        <ele>137.13</ele>
        <time>2017-07-31T08:19:41Z</time>
      </trkpt>
      <trkpt lat="43.2759007718" lon="2.0798351616">
        <ele>137.13</ele>
        <time>2017-07-31T08:19:42Z</time>
      </trkpt>
      <trkpt lat="43.2758916356" lon="2.0798920747">
        <ele>137.13</ele>
        <time>2017-07-31T08:19:43Z</time>
      </trkpt>
      <trkpt lat="43.2758885343" lon="2.0799523406">
        <ele>137.13</ele>
        <time>2017-07-31T08:19:44Z</time>
      </trkpt>
      <trkpt lat="43.2758884504" lon="2.0800136961">
        <ele>136.64</ele>
        <time>2017-07-31T08:19:45Z</time>
      </trkpt>
      <trkpt lat="43.2758844271" lon="2.0802904665">
        <ele>136.16</ele>
        <time>2017-07-31T08:19:50Z</time>
      </trkpt>
      <trkpt lat="43.2758738659" lon="2.0810083766">
        <ele>136.64</ele>
        <time>2017-07-31T08:20:03Z</time>
      </trkpt>
      <trkpt lat="43.2758754585" lon="2.0815375261">
        <ele>136.16</ele>
        <time>2017-07-31T08:20:13Z</time>
      </trkpt>
      <trkpt lat="43.2758935634" lon="2.0820019674">
        <ele>136.16</ele>
        <time>2017-07-31T08:20:23Z</time>
      </trkpt>
      <trkpt lat="43.2758957427" lon="2.0824478846">
        <ele>136.16</ele>
        <time>2017-07-31T08:20:32Z</time>
      </trkpt>
      <trkpt lat="43.2758750394" lon="2.0828632917">
        <ele>136.16</ele>
        <time>2017-07-31T08:20:40Z</time>
      </trkpt>
      <trkpt lat="43.2758725248" lon="2.0830939617">
        <ele>136.16</ele>
        <time>2017-07-31T08:20:45Z</time>
      </trkpt>
      <trkpt lat="43.2758358959" lon="2.0835063513">
        <ele>136.64</ele>
        <time>2017-07-31T08:20:53Z</time>
      </trkpt>
      <trkpt lat="43.2758420147" lon="2.0836554654">
        <ele>136.64</ele>
        <time>2017-07-31T08:20:56Z</time>
      </trkpt>
      <trkpt lat="43.2758501451" lon="2.0836920105">
        <ele>136.64</ele>
        <time>2017-07-31T08:20:57Z</time>
      </trkpt>
      <trkpt lat="43.2758494746" lon="2.0837291423">
        <ele>137.13</ele>
        <time>2017-07-31T08:20:58Z</time>
      </trkpt>
      <trkpt lat="43.2758513186" lon="2.0837658551">
        <ele>136.64</ele>
        <time>2017-07-31T08:20:59Z</time>
      </trkpt>
      <trkpt lat="43.2758464571" lon="2.0838134643">
        <ele>137.13</ele>
        <time>2017-07-31T08:21:00Z</time>
      </trkpt>
      <trkpt lat="43.2758427691" lon="2.0838624146">
        <ele>136.64</ele>
        <time>2017-07-31T08:21:01Z</time>
      </trkpt>
      <trkpt lat="43.2758401707" lon="2.0839089341">
        <ele>136.64</ele>
        <time>2017-07-31T08:21:02Z</time>
      </trkpt>
      <trkpt lat="43.2758136000" lon="2.0841422025">
        <ele>137.13</ele>
        <time>2017-07-31T08:21:07Z</time>
      </trkpt>
      <trkpt lat="43.2758114208" lon="2.0842281170">
        <ele>137.61</ele>
        <time>2017-07-31T08:21:09Z</time>
      </trkpt>
      <trkpt lat="43.2758054696" lon="2.0842723735">
        <ele>137.61</ele>
        <time>2017-07-31T08:21:10Z</time>
      </trkpt>
      <trkpt lat="43.2758007757" lon="2.0843195636">
        <ele>137.13</ele>
        <time>2017-07-31T08:21:11Z</time>
      </trkpt>
      <trkpt lat="43.2758015301" lon="2.0843668375">
        <ele>136.64</ele>
        <time>2017-07-31T08:21:12Z</time>
      </trkpt>
      <trkpt lat="43.2757989317" lon="2.0844178833">
        <ele>137.13</ele>
        <time>2017-07-31T08:21:13Z</time>
      </trkpt>
      <trkpt lat="43.2758006081" lon="2.0844661631">
        <ele>137.13</ele>
        <time>2017-07-31T08:21:14Z</time>
      </trkpt>
      <trkpt lat="43.2757890411" lon="2.0845198911">
        <ele>137.61</ele>
        <time>2017-07-31T08:21:15Z</time>
      </trkpt>
      <trkpt lat="43.2757671643" lon="2.0845740382">
        <ele>137.61</ele>
        <time>2017-07-31T08:21:16Z</time>
      </trkpt>
      <trkpt lat="43.2757528313" lon="2.0846276823">
        <ele>137.61</ele>
        <time>2017-07-31T08:21:17Z</time>
      </trkpt>
      <trkpt lat="43.2757506520" lon="2.0846779738">
        <ele>137.61</ele>
        <time>2017-07-31T08:21:18Z</time>
      </trkpt>
      <trkpt lat="43.2757483050" lon="2.0847348031">
        <ele>137.13</ele>
        <time>2017-07-31T08:21:19Z</time>
      </trkpt>
      <trkpt lat="43.2757543400" lon="2.0847850945">
        <ele>137.13</ele>
        <time>2017-07-31T08:21:20Z</time>
      </trkpt>
      <trkpt lat="43.2757608779" lon="2.0848328713">
        <ele>137.13</ele>
        <time>2017-07-31T08:21:21Z</time>
      </trkpt>
      <trkpt lat="43.2757642306" lon="2.0848844200">
        <ele>137.13</ele>
        <time>2017-07-31T08:21:22Z</time>
      </trkpt>
      <trkpt lat="43.2757644821" lon="2.0849732682">
        <ele>137.61</ele>
        <time>2017-07-31T08:21:24Z</time>
      </trkpt>
      <trkpt lat="43.2757600397" lon="2.0850218832">
        <ele>137.61</ele>
        <time>2017-07-31T08:21:25Z</time>
      </trkpt>
      <trkpt lat="43.2757633086" lon="2.0850700792">
        <ele>137.61</ele>
        <time>2017-07-31T08:21:26Z</time>
      </trkpt>
      <trkpt lat="43.2757698465" lon="2.0851159282">
        <ele>137.61</ele>
        <time>2017-07-31T08:21:27Z</time>
      </trkpt>
      <trkpt lat="43.2757792342" lon="2.0851560775">
        <ele>137.61</ele>
        <time>2017-07-31T08:21:28Z</time>
      </trkpt>
      <trkpt lat="43.2757395040" lon="2.0854126476">
        <ele>137.61</ele>
        <time>2017-07-31T08:21:33Z</time>
      </trkpt>
      <trkpt lat="43.2757185493" lon="2.0854684711">
        <ele>137.61</ele>
        <time>2017-07-31T08:21:34Z</time>
      </trkpt>
      <trkpt lat="43.2757167052" lon="2.0855258871">
        <ele>137.61</ele>
        <time>2017-07-31T08:21:35Z</time>
      </trkpt>
      <trkpt lat="43.2757307030" lon="2.0855764300">
        <ele>137.61</ele>
        <time>2017-07-31T08:21:36Z</time>
      </trkpt>
      <trkpt lat="43.2757586148" lon="2.0856188424">
        <ele>138.09</ele>
        <time>2017-07-31T08:21:37Z</time>
      </trkpt>
      <trkpt lat="43.2757950760" lon="2.0860051643">
        <ele>138.09</ele>
        <time>2017-07-31T08:21:44Z</time>
      </trkpt>
      <trkpt lat="43.2757938188" lon="2.0862594713">
        <ele>138.09</ele>
        <time>2017-07-31T08:21:48Z</time>
      </trkpt>
      <trkpt lat="43.2757768035" lon="2.0864071604">
        <ele>138.57</ele>
        <time>2017-07-31T08:21:50Z</time>
      </trkpt>
      <trkpt lat="43.2757505681" lon="2.0865690149">
        <ele>138.57</ele>
        <time>2017-07-31T08:21:52Z</time>
      </trkpt>
      <trkpt lat="43.2757304516" lon="2.0867879502">
        <ele>138.57</ele>
        <time>2017-07-31T08:21:55Z</time>
      </trkpt>
      <trkpt lat="43.2757001929" lon="2.0872473624">
        <ele>138.09</ele>
        <time>2017-07-31T08:22:02Z</time>
      </trkpt>
      <trkpt lat="43.2757384144" lon="2.0878117997">
        <ele>138.09</ele>
        <time>2017-07-31T08:22:11Z</time>
      </trkpt>
      <trkpt lat="43.2757384144" lon="2.0878780168">
        <ele>138.09</ele>
        <time>2017-07-31T08:22:12Z</time>
      </trkpt>
      <trkpt lat="43.2757518254" lon="2.0881472435">
        <ele>139.05</ele>
        <time>2017-07-31T08:22:16Z</time>
      </trkpt>
      <trkpt lat="43.2757520769" lon="2.0882101916">
        <ele>139.05</ele>
        <time>2017-07-31T08:22:17Z</time>
      </trkpt>
      <trkpt lat="43.2757756300" lon="2.0885219146">
        <ele>138.57</ele>
        <time>2017-07-31T08:22:23Z</time>
      </trkpt>
      <trkpt lat="43.2757821679" lon="2.0889010280">
        <ele>138.57</ele>
        <time>2017-07-31T08:22:30Z</time>
      </trkpt>
      <trkpt lat="43.2757764682" lon="2.0890577696">
        <ele>138.57</ele>
        <time>2017-07-31T08:22:33Z</time>
      </trkpt>
      <trkpt lat="43.2757648174" lon="2.0890976675">
        <ele>139.05</ele>
        <time>2017-07-31T08:22:34Z</time>
      </trkpt>
      <trkpt lat="43.2757591177" lon="2.0891600288">
        <ele>138.57</ele>
        <time>2017-07-31T08:22:35Z</time>
      </trkpt>
      <trkpt lat="43.2757509872" lon="2.0896862447">
        <ele>138.57</ele>
        <time>2017-07-31T08:22:44Z</time>
      </trkpt>
      <trkpt lat="43.2758554257" lon="2.0906017162">
        <ele>139.05</ele>
        <time>2017-07-31T08:22:56Z</time>
      </trkpt>
      <trkpt lat="43.2759194635" lon="2.0911400020">
        <ele>139.05</ele>
        <time>2017-07-31T08:23:06Z</time>
      </trkpt>
      <trkpt lat="43.2758464571" lon="2.0915378910">
        <ele>139.05</ele>
        <time>2017-07-31T08:23:15Z</time>
      </trkpt>
      <trkpt lat="43.2757116761" lon="2.0918434951">
        <ele>139.05</ele>
        <time>2017-07-31T08:23:22Z</time>
      </trkpt>
      <trkpt lat="43.2755508274" lon="2.0921782684">
        <ele>139.05</ele>
        <time>2017-07-31T08:23:29Z</time>
      </trkpt>
      <trkpt lat="43.2753387652" lon="2.0925085992">
        <ele>139.05</ele>
        <time>2017-07-31T08:23:37Z</time>
      </trkpt>
      <trkpt lat="43.2751149684" lon="2.0928390976">
        <ele>139.05</ele>
        <time>2017-07-31T08:23:46Z</time>
      </trkpt>
      <trkpt lat="43.2748973742" lon="2.0931486413">
        <ele>139.05</ele>
        <time>2017-07-31T08:23:54Z</time>
      </trkpt>
      <trkpt lat="43.2746498566" lon="2.0935217198">
        <ele>139.05</ele>
        <time>2017-07-31T08:24:03Z</time>
      </trkpt>
      <trkpt lat="43.2744322624" lon="2.0938321017">
        <ele>139.05</ele>
        <time>2017-07-31T08:24:10Z</time>
      </trkpt>
      <trkpt lat="43.2744081225" lon="2.0938859135">
        <ele>138.57</ele>
        <time>2017-07-31T08:24:11Z</time>
      </trkpt>
      <trkpt lat="43.2743884251" lon="2.0939332712">
        <ele>139.05</ele>
        <time>2017-07-31T08:24:12Z</time>
      </trkpt>
      <trkpt lat="43.2743636146" lon="2.0939692296">
        <ele>139.05</ele>
        <time>2017-07-31T08:24:13Z</time>
      </trkpt>
      <trkpt lat="43.2743334398" lon="2.0939978957">
        <ele>139.05</ele>
        <time>2017-07-31T08:24:14Z</time>
      </trkpt>
      <trkpt lat="43.2742994092" lon="2.0940219518">
        <ele>139.05</ele>
        <time>2017-07-31T08:24:15Z</time>
      </trkpt>
      <trkpt lat="43.2742650434" lon="2.0940445829">
        <ele>139.05</ele>
        <time>2017-07-31T08:24:16Z</time>
      </trkpt>
      <trkpt lat="43.2742294203" lon="2.0940729976">
        <ele>139.05</ele>
        <time>2017-07-31T08:24:17Z</time>
      </trkpt>
      <trkpt lat="43.2741974015" lon="2.0941066090">
        <ele>139.05</ele>
        <time>2017-07-31T08:24:18Z</time>
      </trkpt>
      <trkpt lat="43.2741658017" lon="2.0941424835">
        <ele>139.05</ele>
        <time>2017-07-31T08:24:19Z</time>
      </trkpt>
      <trkpt lat="43.2739195414" lon="2.0945267100">
        <ele>138.57</ele>
        <time>2017-07-31T08:24:29Z</time>
      </trkpt>
      <trkpt lat="43.2738855109" lon="2.0945642609">
        <ele>138.09</ele>
        <time>2017-07-31T08:24:30Z</time>
      </trkpt>
      <trkpt lat="43.2737708464" lon="2.0946832001">
        <ele>136.64</ele>
        <time>2017-07-31T08:24:33Z</time>
      </trkpt>
      <trkpt lat="43.2734289486" lon="2.0951124374">
        <ele>136.16</ele>
        <time>2017-07-31T08:24:42Z</time>
      </trkpt>
      <trkpt lat="43.2733933255" lon="2.0951608848">
        <ele>135.68</ele>
        <time>2017-07-31T08:24:43Z</time>
      </trkpt>
      <trkpt lat="43.2733270247" lon="2.0952617191">
        <ele>135.68</ele>
        <time>2017-07-31T08:24:45Z</time>
      </trkpt>
      <trkpt lat="43.2732934132" lon="2.0953108370">
        <ele>135.68</ele>
        <time>2017-07-31T08:24:46Z</time>
      </trkpt>
      <trkpt lat="43.2731525134" lon="2.0954993460">
        <ele>135.68</ele>
        <time>2017-07-31T08:24:50Z</time>
      </trkpt>
      <trkpt lat="43.2731163036" lon="2.0955422614">
        <ele>135.68</ele>
        <time>2017-07-31T08:24:51Z</time>
      </trkpt>
      <trkpt lat="43.2730810158" lon="2.0955845900">
        <ele>135.20</ele>
        <time>2017-07-31T08:24:52Z</time>
      </trkpt>
      <trkpt lat="43.2730088476" lon="2.0956685767">
        <ele>135.20</ele>
        <time>2017-07-31T08:24:54Z</time>
      </trkpt>
      <trkpt lat="43.2725943625" lon="2.0962289069">
        <ele>135.68</ele>
        <time>2017-07-31T08:25:06Z</time>
      </trkpt>
      <trkpt lat="43.2722076215" lon="2.0967491716">
        <ele>135.20</ele>
        <time>2017-07-31T08:25:17Z</time>
      </trkpt>
      <trkpt lat="43.2717565913" lon="2.0973931532">
        <ele>135.20</ele>
        <time>2017-07-31T08:25:30Z</time>
      </trkpt>
      <trkpt lat="43.2713812497" lon="2.0979636256">
        <ele>135.20</ele>
        <time>2017-07-31T08:25:41Z</time>
      </trkpt>
      <trkpt lat="43.2710249349" lon="2.0988045819">
        <ele>134.72</ele>
        <time>2017-07-31T08:25:55Z</time>
      </trkpt>
      <trkpt lat="43.2707572170" lon="2.0995369088">
        <ele>134.72</ele>
        <time>2017-07-31T08:26:07Z</time>
      </trkpt>
      <trkpt lat="43.2704822905" lon="2.1002924535">
        <ele>135.20</ele>
        <time>2017-07-31T08:26:19Z</time>
      </trkpt>
      <trkpt lat="43.2704586536" lon="2.1003564913">
        <ele>135.20</ele>
        <time>2017-07-31T08:26:20Z</time>
      </trkpt>
      <trkpt lat="43.2703178376" lon="2.1007248759">
        <ele>134.72</ele>
        <time>2017-07-31T08:26:26Z</time>
      </trkpt>
      <trkpt lat="43.2702976372" lon="2.1007876564">
        <ele>134.72</ele>
        <time>2017-07-31T08:26:27Z</time>
      </trkpt>
      <trkpt lat="43.2702776883" lon="2.1008507721">
        <ele>134.72</ele>
        <time>2017-07-31T08:26:28Z</time>
      </trkpt>
      <trkpt lat="43.2702539675" lon="2.1009117924">
        <ele>134.72</ele>
        <time>2017-07-31T08:26:29Z</time>
      </trkpt>
      <trkpt lat="43.2702278998" lon="2.1009712201">
        <ele>135.20</ele>
        <time>2017-07-31T08:26:30Z</time>
      </trkpt>
      <trkpt lat="43.2699917816" lon="2.1015155409">
        <ele>134.72</ele>
        <time>2017-07-31T08:26:39Z</time>
      </trkpt>
      <trkpt lat="43.2697574235" lon="2.1020484623">
        <ele>135.20</ele>
        <time>2017-07-31T08:26:48Z</time>
      </trkpt>
      <trkpt lat="43.2697341219" lon="2.1021059621">
        <ele>135.20</ele>
        <time>2017-07-31T08:26:49Z</time>
      </trkpt>
      <trkpt lat="43.2695988379" lon="2.1023716684">
        <ele>135.20</ele>
        <time>2017-07-31T08:26:54Z</time>
      </trkpt>
      <trkpt lat="43.2695767097" lon="2.1024222951">
        <ele>134.72</ele>
        <time>2017-07-31T08:26:55Z</time>
      </trkpt>
      <trkpt lat="43.2694379054" lon="2.1026882529">
        <ele>135.20</ele>
        <time>2017-07-31T08:27:00Z</time>
      </trkpt>
      <trkpt lat="43.2694002707" lon="2.1027881652">
        <ele>135.20</ele>
        <time>2017-07-31T08:27:02Z</time>
      </trkpt>
      <trkpt lat="43.2694008574" lon="2.1028203517">
        <ele>135.20</ele>
        <time>2017-07-31T08:27:03Z</time>
      </trkpt>
      <trkpt lat="43.2693994325" lon="2.1028592438">
        <ele>135.20</ele>
        <time>2017-07-31T08:27:04Z</time>
      </trkpt>
      <trkpt lat="43.2693936490" lon="2.1029022429">
        <ele>135.20</ele>
        <time>2017-07-31T08:27:05Z</time>
      </trkpt>
      <trkpt lat="43.2693839259" lon="2.1029492654">
        <ele>135.20</ele>
        <time>2017-07-31T08:27:06Z</time>
      </trkpt>
      <trkpt lat="43.2693804894" lon="2.1029990539">
        <ele>134.72</ele>
        <time>2017-07-31T08:27:07Z</time>
      </trkpt>
      <trkpt lat="43.2693797350" lon="2.1030525304">
        <ele>134.72</ele>
        <time>2017-07-31T08:27:08Z</time>
      </trkpt>
      <trkpt lat="43.2693815790" lon="2.1031100303">
        <ele>135.20</ele>
        <time>2017-07-31T08:27:09Z</time>
      </trkpt>
      <trkpt lat="43.2693737000" lon="2.1031754930">
        <ele>135.20</ele>
        <time>2017-07-31T08:27:10Z</time>
      </trkpt>
      <trkpt lat="43.2693654858" lon="2.1032393631">
        <ele>135.20</ele>
        <time>2017-07-31T08:27:11Z</time>
      </trkpt>
      <trkpt lat="43.2693275157" lon="2.1038047224">
        <ele>135.20</ele>
        <time>2017-07-31T08:27:20Z</time>
      </trkpt>
      <trkpt lat="43.2693216484" lon="2.1042764559">
        <ele>135.20</ele>
        <time>2017-07-31T08:27:27Z</time>
      </trkpt>
      <trkpt lat="43.2693272643" lon="2.1043386497">
        <ele>134.72</ele>
        <time>2017-07-31T08:27:28Z</time>
      </trkpt>
      <trkpt lat="43.2693254203" lon="2.1044024359">
        <ele>134.72</ele>
        <time>2017-07-31T08:27:29Z</time>
      </trkpt>
      <trkpt lat="43.2693279348" lon="2.1044550743">
        <ele>135.20</ele>
        <time>2017-07-31T08:27:30Z</time>
      </trkpt>
      <trkpt lat="43.2693231571" lon="2.1045177709">
        <ele>135.20</ele>
        <time>2017-07-31T08:27:31Z</time>
      </trkpt>
      <trkpt lat="43.2693242468" lon="2.1045809705">
        <ele>135.20</ele>
        <time>2017-07-31T08:27:32Z</time>
      </trkpt>
      <trkpt lat="43.2691753004" lon="2.1053868905">
        <ele>135.68</ele>
        <time>2017-07-31T08:27:42Z</time>
      </trkpt>
      <trkpt lat="43.2691569440" lon="2.1056704503">
        <ele>135.20</ele>
        <time>2017-07-31T08:27:46Z</time>
      </trkpt>
      <trkpt lat="43.2691549323" lon="2.1057375055">
        <ele>135.20</ele>
        <time>2017-07-31T08:27:47Z</time>
      </trkpt>
      <trkpt lat="43.2691265177" lon="2.1062868554">
        <ele>135.20</ele>
        <time>2017-07-31T08:27:55Z</time>
      </trkpt>
      <trkpt lat="43.2691222429" lon="2.1063505579">
        <ele>135.20</ele>
        <time>2017-07-31T08:27:56Z</time>
      </trkpt>
      <trkpt lat="43.2691154536" lon="2.1064225584">
        <ele>135.20</ele>
        <time>2017-07-31T08:27:57Z</time>
      </trkpt>
      <trkpt lat="43.2691016234" lon="2.1064963192">
        <ele>135.20</ele>
        <time>2017-07-31T08:27:58Z</time>
      </trkpt>
      <trkpt lat="43.2690838538" lon="2.1065597702">
        <ele>135.20</ele>
        <time>2017-07-31T08:27:59Z</time>
      </trkpt>
      <trkpt lat="43.2690695208" lon="2.1066171024">
        <ele>135.20</ele>
        <time>2017-07-31T08:28:00Z</time>
      </trkpt>
      <trkpt lat="43.2690544333" lon="2.1066720039">
        <ele>135.20</ele>
        <time>2017-07-31T08:28:01Z</time>
      </trkpt>
      <trkpt lat="43.2689208258" lon="2.1069584135">
        <ele>135.68</ele>
        <time>2017-07-31T08:28:06Z</time>
      </trkpt>
      <trkpt lat="43.2688935008" lon="2.1070209425">
        <ele>135.68</ele>
        <time>2017-07-31T08:28:07Z</time>
      </trkpt>
      <trkpt lat="43.2688680198" lon="2.1070801187">
        <ele>135.68</ele>
        <time>2017-07-31T08:28:08Z</time>
      </trkpt>
      <trkpt lat="43.2688416168" lon="2.1071416419">
        <ele>135.68</ele>
        <time>2017-07-31T08:28:09Z</time>
      </trkpt>
      <trkpt lat="43.2688168064" lon="2.1072132234">
        <ele>136.16</ele>
        <time>2017-07-31T08:28:10Z</time>
      </trkpt>
      <trkpt lat="43.2684668619" lon="2.1079266071">
        <ele>135.68</ele>
        <time>2017-07-31T08:28:20Z</time>
      </trkpt>
      <trkpt lat="43.2684283890" lon="2.1079705283">
        <ele>135.68</ele>
        <time>2017-07-31T08:28:21Z</time>
      </trkpt>
      <trkpt lat="43.2681154925" lon="2.1082328819">
        <ele>136.16</ele>
        <time>2017-07-31T08:28:28Z</time>
      </trkpt>
      <trkpt lat="43.2680716552" lon="2.1082560159">
        <ele>138.09</ele>
        <time>2017-07-31T08:28:29Z</time>
      </trkpt>
      <trkpt lat="43.2680287398" lon="2.1082741208">
        <ele>135.20</ele>
        <time>2017-07-31T08:28:30Z</time>
      </trkpt>
      <trkpt lat="43.2679848187" lon="2.1082908846">
        <ele>135.20</ele>
        <time>2017-07-31T08:28:31Z</time>
      </trkpt>
      <trkpt lat="43.2676993310" lon="2.1084499732">
        <ele>132.80</ele>
        <time>2017-07-31T08:28:39Z</time>
      </trkpt>
      <trkpt lat="43.2676656358" lon="2.1084767114">
        <ele>135.68</ele>
        <time>2017-07-31T08:28:40Z</time>
      </trkpt>
      <trkpt lat="43.2676316053" lon="2.1085008513">
        <ele>134.72</ele>
        <time>2017-07-31T08:28:41Z</time>
      </trkpt>
      <trkpt lat="43.2675947249" lon="2.1085296012">
        <ele>134.72</ele>
        <time>2017-07-31T08:28:42Z</time>
      </trkpt>
      <trkpt lat="43.2672178745" lon="2.1087834891">
        <ele>134.72</ele>
        <time>2017-07-31T08:28:50Z</time>
      </trkpt>
      <trkpt lat="43.2666557003" lon="2.1091216989">
        <ele>135.20</ele>
        <time>2017-07-31T08:29:01Z</time>
      </trkpt>
      <trkpt lat="43.2659783587" lon="2.1094880719">
        <ele>135.20</ele>
        <time>2017-07-31T08:29:15Z</time>
      </trkpt>
      <trkpt lat="43.2659311686" lon="2.1095071826">
        <ele>135.20</ele>
        <time>2017-07-31T08:29:16Z</time>
      </trkpt>
      <trkpt lat="43.2655285858" lon="2.1096987929">
        <ele>134.72</ele>
        <time>2017-07-31T08:29:27Z</time>
      </trkpt>
      <trkpt lat="43.2655099779" lon="2.1097175684">
        <ele>134.72</ele>
        <time>2017-07-31T08:29:28Z</time>
      </trkpt>
      <trkpt lat="43.2654894423" lon="2.1097399481">
        <ele>134.72</ele>
        <time>2017-07-31T08:29:29Z</time>
      </trkpt>
      <trkpt lat="43.2654631231" lon="2.1097619925">
        <ele>134.72</ele>
        <time>2017-07-31T08:29:30Z</time>
      </trkpt>
      <trkpt lat="43.2654342055" lon="2.1097740624">
        <ele>134.72</ele>
        <time>2017-07-31T08:29:31Z</time>
      </trkpt>
      <trkpt lat="43.2654086407" lon="2.1097925026">
        <ele>134.72</ele>
        <time>2017-07-31T08:29:32Z</time>
      </trkpt>
      <trkpt lat="43.2653865963" lon="2.1098152176">
        <ele>134.72</ele>
        <time>2017-07-31T08:29:33Z</time>
      </trkpt>
      <trkpt lat="43.2653651386" lon="2.1098377649">
        <ele>134.72</ele>
        <time>2017-07-31T08:29:34Z</time>
      </trkpt>
      <trkpt lat="43.2653459441" lon="2.1098593902">
        <ele>134.72</ele>
        <time>2017-07-31T08:29:35Z</time>
      </trkpt>
      <trkpt lat="43.2653307728" lon="2.1098715439">
        <ele>135.20</ele>
        <time>2017-07-31T08:29:36Z</time>
      </trkpt>
      <trkpt lat="43.2653149310" lon="2.1098743100">
        <ele>135.20</ele>
        <time>2017-07-31T08:29:37Z</time>
      </trkpt>
      <trkpt lat="43.2652995922" lon="2.1098603960">
        <ele>135.20</ele>
        <time>2017-07-31T08:29:38Z</time>
      </trkpt>
      <trkpt lat="43.2652860973" lon="2.1098415367">
        <ele>135.20</ele>
        <time>2017-07-31T08:29:39Z</time>
      </trkpt>
      <trkpt lat="43.2652717642" lon="2.1098228451">
        <ele>135.20</ele>
        <time>2017-07-31T08:29:40Z</time>
      </trkpt>
      <trkpt lat="43.2652593590" lon="2.1098009683">
        <ele>135.68</ele>
        <time>2017-07-31T08:29:41Z</time>
      </trkpt>
      <trkpt lat="43.2652461994" lon="2.1097795106">
        <ele>135.68</ele>
        <time>2017-07-31T08:29:42Z</time>
      </trkpt>
      <trkpt lat="43.2652337942" lon="2.1097570471">
        <ele>135.68</ele>
        <time>2017-07-31T08:29:43Z</time>
      </trkpt>
      <trkpt lat="43.2652204670" lon="2.1097182389">
        <ele>136.16</ele>
        <time>2017-07-31T08:29:51Z</time>
      </trkpt>
      <trkpt lat="43.2652254123" lon="2.1097242739">
        <ele>136.16</ele>
        <time>2017-07-31T08:30:08Z</time>
      </trkpt>
      <trkpt lat="43.2652182039" lon="2.1097334940">
        <ele>136.16</ele>
        <time>2017-07-31T08:30:26Z</time>
      </trkpt>
      <trkpt lat="43.2652092353" lon="2.1097631659">
        <ele>136.16</ele>
        <time>2017-07-31T08:30:37Z</time>
      </trkpt>
      <trkpt lat="43.2652140129" lon="2.1097816061">
        <ele>136.16</ele>
        <time>2017-07-31T08:30:38Z</time>
      </trkpt>
      <trkpt lat="43.2652270887" lon="2.1098007169">
        <ele>136.16</ele>
        <time>2017-07-31T08:30:39Z</time>
      </trkpt>
      <trkpt lat="43.2652401645" lon="2.1098233480">
        <ele>135.68</ele>
        <time>2017-07-31T08:30:40Z</time>
      </trkpt>
      <trkpt lat="43.2652467862" lon="2.1098500863">
        <ele>135.20</ele>
        <time>2017-07-31T08:30:41Z</time>
      </trkpt>
      <trkpt lat="43.2652482111" lon="2.1098781656">
        <ele>135.20</ele>
        <time>2017-07-31T08:30:42Z</time>
      </trkpt>
      <trkpt lat="43.2652433496" lon="2.1099065803">
        <ele>134.72</ele>
        <time>2017-07-31T08:30:43Z</time>
      </trkpt>
      <trkpt lat="43.2652291004" lon="2.1099274512">
        <ele>134.72</ele>
        <time>2017-07-31T08:30:44Z</time>
      </trkpt>
      <trkpt lat="43.2652086485" lon="2.1099390183">
        <ele>134.72</ele>
        <time>2017-07-31T08:30:45Z</time>
      </trkpt>
      <trkpt lat="43.2651853468" lon="2.1099507529">
        <ele>134.72</ele>
        <time>2017-07-31T08:30:46Z</time>
      </trkpt>
      <trkpt lat="43.2651616260" lon="2.1099665109">
        <ele>134.24</ele>
        <time>2017-07-31T08:30:47Z</time>
      </trkpt>
      <trkpt lat="43.2650977559" lon="2.1100046486">
        <ele>134.24</ele>
        <time>2017-07-31T08:30:49Z</time>
      </trkpt>
      <trkpt lat="43.2650580257" lon="2.1100228373">
        <ele>134.24</ele>
        <time>2017-07-31T08:30:50Z</time>
      </trkpt>
      <trkpt lat="43.2646936644" lon="2.1102265175">
        <ele>133.28</ele>
        <time>2017-07-31T08:30:59Z</time>
      </trkpt>
      <trkpt lat="43.2644801773" lon="2.1103602927">
        <ele>132.80</ele>
        <time>2017-07-31T08:31:06Z</time>
      </trkpt>
      <trkpt lat="43.2641504332" lon="2.1105385758">
        <ele>132.80</ele>
        <time>2017-07-31T08:31:15Z</time>
      </trkpt>
      <trkpt lat="43.2637759298" lon="2.1107529849">
        <ele>132.80</ele>
        <time>2017-07-31T08:31:24Z</time>
      </trkpt>
      <trkpt lat="43.2635300886" lon="2.1109088883">
        <ele>133.28</ele>
        <time>2017-07-31T08:31:30Z</time>
      </trkpt>
      <trkpt lat="43.2634838205" lon="2.1109318547">
        <ele>132.80</ele>
        <time>2017-07-31T08:31:31Z</time>
      </trkpt>
      <trkpt lat="43.2634488679" lon="2.1109529771">
        <ele>132.80</ele>
        <time>2017-07-31T08:31:32Z</time>
      </trkpt>
      <trkpt lat="43.2630382385" lon="2.1111850720">
        <ele>132.80</ele>
        <time>2017-07-31T08:31:43Z</time>
      </trkpt>
      <trkpt lat="43.2626955025" lon="2.1113876626">
        <ele>133.28</ele>
        <time>2017-07-31T08:31:51Z</time>
      </trkpt>
      <trkpt lat="43.2624442130" lon="2.1115690470">
        <ele>133.28</ele>
        <time>2017-07-31T08:31:59Z</time>
      </trkpt>
      <trkpt lat="43.2622392755" lon="2.1117020678">
        <ele>133.28</ele>
        <time>2017-07-31T08:32:05Z</time>
      </trkpt>
      <trkpt lat="43.2619160693" lon="2.1119891480">
        <ele>133.28</ele>
        <time>2017-07-31T08:32:14Z</time>
      </trkpt>
      <trkpt lat="43.2616356947" lon="2.1123986878">
        <ele>133.28</ele>
        <time>2017-07-31T08:32:23Z</time>
      </trkpt>
      <trkpt lat="43.2615120616" lon="2.1126346383">
        <ele>132.80</ele>
        <time>2017-07-31T08:32:27Z</time>
      </trkpt>
      <trkpt lat="43.2614006661" lon="2.1128599439">
        <ele>132.80</ele>
        <time>2017-07-31T08:32:31Z</time>
      </trkpt>
      <trkpt lat="43.2613699045" lon="2.1129208803">
        <ele>132.80</ele>
        <time>2017-07-31T08:32:32Z</time>
      </trkpt>
      <trkpt lat="43.2611107361" lon="2.1135093737">
        <ele>132.32</ele>
        <time>2017-07-31T08:32:42Z</time>
      </trkpt>
      <trkpt lat="43.2610025257" lon="2.1137573943">
        <ele>133.28</ele>
        <time>2017-07-31T08:32:46Z</time>
      </trkpt>
      <trkpt lat="43.2609428465" lon="2.1138770878">
        <ele>132.80</ele>
        <time>2017-07-31T08:32:48Z</time>
      </trkpt>
      <trkpt lat="43.2608990092" lon="2.1139394492">
        <ele>132.32</ele>
        <time>2017-07-31T08:32:49Z</time>
      </trkpt>
      <trkpt lat="43.2608617935" lon="2.1140022296">
        <ele>132.32</ele>
        <time>2017-07-31T08:32:50Z</time>
      </trkpt>
      <trkpt lat="43.2608269248" lon="2.1140679438">
        <ele>132.32</ele>
        <time>2017-07-31T08:32:51Z</time>
      </trkpt>
      <trkpt lat="43.2607935648" lon="2.1141300537">
        <ele>132.32</ele>
        <time>2017-07-31T08:32:52Z</time>
      </trkpt>
      <trkpt lat="43.2607405912" lon="2.1142520104">
        <ele>132.32</ele>
        <time>2017-07-31T08:32:54Z</time>
      </trkpt>
      <trkpt lat="43.2607230730" lon="2.1143100131">
        <ele>132.80</ele>
        <time>2017-07-31T08:32:55Z</time>
      </trkpt>
      <trkpt lat="43.2606928982" lon="2.1144165471">
        <ele>132.80</ele>
        <time>2017-07-31T08:32:57Z</time>
      </trkpt>
      <trkpt lat="43.2604818419" lon="2.1149311122">
        <ele>132.80</ele>
        <time>2017-07-31T08:33:06Z</time>
      </trkpt>
      <trkpt lat="43.2602586318" lon="2.1154555678">
        <ele>132.80</ele>
        <time>2017-07-31T08:33:15Z</time>
      </trkpt>
      <trkpt lat="43.2601140440" lon="2.1158048417">
        <ele>133.28</ele>
        <time>2017-07-31T08:33:21Z</time>
      </trkpt>
      <trkpt lat="43.2598391175" lon="2.1164458059">
        <ele>133.28</ele>
        <time>2017-07-31T08:33:32Z</time>
      </trkpt>
      <trkpt lat="43.2596157398" lon="2.1169732790">
        <ele>133.28</ele>
        <time>2017-07-31T08:33:41Z</time>
      </trkpt>
      <trkpt lat="43.2594412286" lon="2.1174538136">
        <ele>133.28</ele>
        <time>2017-07-31T08:33:50Z</time>
      </trkpt>
      <trkpt lat="43.2594153285" lon="2.1175108105">
        <ele>133.28</ele>
        <time>2017-07-31T08:33:51Z</time>
      </trkpt>
      <trkpt lat="43.2593594212" lon="2.1176288277">
        <ele>133.76</ele>
        <time>2017-07-31T08:33:53Z</time>
      </trkpt>
      <trkpt lat="43.2591378037" lon="2.1181775909">
        <ele>132.80</ele>
        <time>2017-07-31T08:34:03Z</time>
      </trkpt>
      <trkpt lat="43.2591121551" lon="2.1182273794">
        <ele>132.80</ele>
        <time>2017-07-31T08:34:04Z</time>
      </trkpt>
      <trkpt lat="43.2589025237" lon="2.1187430341">
        <ele>133.28</ele>
        <time>2017-07-31T08:34:14Z</time>
      </trkpt>
      <trkpt lat="43.2587087341" lon="2.1192244906">
        <ele>133.28</ele>
        <time>2017-07-31T08:34:24Z</time>
      </trkpt>
      <trkpt lat="43.2585276011" lon="2.1196875069">
        <ele>132.80</ele>
        <time>2017-07-31T08:34:34Z</time>
      </trkpt>
      <trkpt lat="43.2585254218" lon="2.1197372954">
        <ele>133.28</ele>
        <time>2017-07-31T08:34:35Z</time>
      </trkpt>
      <trkpt lat="43.2585299481" lon="2.1197944600">
        <ele>132.32</ele>
        <time>2017-07-31T08:34:36Z</time>
      </trkpt>
      <trkpt lat="43.2585327979" lon="2.1198559832">
        <ele>131.84</ele>
        <time>2017-07-31T08:34:37Z</time>
      </trkpt>
      <trkpt lat="43.2585233264" lon="2.1199220326">
        <ele>131.36</ele>
        <time>2017-07-31T08:34:38Z</time>
      </trkpt>
      <trkpt lat="43.2585066464" lon="2.1199812926">
        <ele>130.88</ele>
        <time>2017-07-31T08:34:39Z</time>
      </trkpt>
      <trkpt lat="43.2584850211" lon="2.1200381219">
        <ele>130.88</ele>
        <time>2017-07-31T08:34:40Z</time>
      </trkpt>
      <trkpt lat="43.2584634796" lon="2.1200959571">
        <ele>131.36</ele>
        <time>2017-07-31T08:34:41Z</time>
      </trkpt>
      <trkpt lat="43.2584453747" lon="2.1201518644">
        <ele>131.84</ele>
        <time>2017-07-31T08:34:42Z</time>
      </trkpt>
      <trkpt lat="43.2582546864" lon="2.1205320675">
        <ele>130.88</ele>
        <time>2017-07-31T08:34:51Z</time>
      </trkpt>
      <trkpt lat="43.2581328973" lon="2.1205915790">
        <ele>130.88</ele>
        <time>2017-07-31T08:34:55Z</time>
      </trkpt>
      <trkpt lat="43.2581007946" lon="2.1206274536">
        <ele>131.36</ele>
        <time>2017-07-31T08:34:56Z</time>
      </trkpt>
      <trkpt lat="43.2580743916" lon="2.1206710394">
        <ele>130.88</ele>
        <time>2017-07-31T08:34:57Z</time>
      </trkpt>
      <trkpt lat="43.2579766586" lon="2.1208711993">
        <ele>130.40</ele>
        <time>2017-07-31T08:35:01Z</time>
      </trkpt>
      <trkpt lat="43.2579535246" lon="2.1209240053">
        <ele>130.40</ele>
        <time>2017-07-31T08:35:02Z</time>
      </trkpt>
      <trkpt lat="43.2579274569" lon="2.1209740452">
        <ele>130.88</ele>
        <time>2017-07-31T08:35:03Z</time>
      </trkpt>
      <trkpt lat="43.2579037361" lon="2.1210298687">
        <ele>130.88</ele>
        <time>2017-07-31T08:35:04Z</time>
      </trkpt>
      <trkpt lat="43.2578811049" lon="2.1210847702">
        <ele>130.88</ele>
        <time>2017-07-31T08:35:05Z</time>
      </trkpt>
      <trkpt lat="43.2578548696" lon="2.1211345587">
        <ele>130.88</ele>
        <time>2017-07-31T08:35:06Z</time>
      </trkpt>
      <trkpt lat="43.2578058355" lon="2.1212332975">
        <ele>130.88</ele>
        <time>2017-07-31T08:35:08Z</time>
      </trkpt>
      <trkpt lat="43.2577807736" lon="2.1212805714">
        <ele>130.88</ele>
        <time>2017-07-31T08:35:09Z</time>
      </trkpt>
      <trkpt lat="43.2575774286" lon="2.1218101401">
        <ele>130.88</ele>
        <time>2017-07-31T08:35:20Z</time>
      </trkpt>
      <trkpt lat="43.2575604133" lon="2.1218617726">
        <ele>130.88</ele>
        <time>2017-07-31T08:35:21Z</time>
      </trkpt>
      <trkpt lat="43.2575423922" lon="2.1219134890">
        <ele>130.88</ele>
        <time>2017-07-31T08:35:22Z</time>
      </trkpt>
      <trkpt lat="43.2572686393" lon="2.1225607395">
        <ele>130.40</ele>
        <time>2017-07-31T08:35:34Z</time>
      </trkpt>
      <trkpt lat="43.2572245505" lon="2.1226727217">
        <ele>130.40</ele>
        <time>2017-07-31T08:35:36Z</time>
      </trkpt>
      <trkpt lat="43.2571987342" lon="2.1227244381">
        <ele>130.40</ele>
        <time>2017-07-31T08:35:37Z</time>
      </trkpt>
      <trkpt lat="43.2571731694" lon="2.1227742266">
        <ele>130.40</ele>
        <time>2017-07-31T08:35:38Z</time>
      </trkpt>
      <trkpt lat="43.2569735963" lon="2.1232587844">
        <ele>129.92</ele>
        <time>2017-07-31T08:35:47Z</time>
      </trkpt>
      <trkpt lat="43.2569489535" lon="2.1233115904">
        <ele>130.40</ele>
        <time>2017-07-31T08:35:48Z</time>
      </trkpt>
      <trkpt lat="43.2568865083" lon="2.1234783065">
        <ele>130.88</ele>
        <time>2017-07-31T08:35:51Z</time>
      </trkpt>
      <trkpt lat="43.2568619493" lon="2.1235308610">
        <ele>130.88</ele>
        <time>2017-07-31T08:35:52Z</time>
      </trkpt>
      <trkpt lat="43.2568379771" lon="2.1235858463">
        <ele>130.88</ele>
        <time>2017-07-31T08:35:53Z</time>
      </trkpt>
      <trkpt lat="43.2568143401" lon="2.1236420888">
        <ele>130.40</ele>
        <time>2017-07-31T08:35:54Z</time>
      </trkpt>
      <trkpt lat="43.2567891944" lon="2.1236995887">
        <ele>130.40</ele>
        <time>2017-07-31T08:35:55Z</time>
      </trkpt>
      <trkpt lat="43.2564736158" lon="2.1244973782">
        <ele>130.40</ele>
        <time>2017-07-31T08:36:09Z</time>
      </trkpt>
      <trkpt lat="43.2563089952" lon="2.1248978656">
        <ele>130.40</ele>
        <time>2017-07-31T08:36:17Z</time>
      </trkpt>
      <trkpt lat="43.2562700193" lon="2.1250004601">
        <ele>129.92</ele>
        <time>2017-07-31T08:36:19Z</time>
      </trkpt>
      <trkpt lat="43.2559974398" lon="2.1256260015">
        <ele>130.40</ele>
        <time>2017-07-31T08:36:31Z</time>
      </trkpt>
      <trkpt lat="43.2557841204" lon="2.1262317616">
        <ele>131.36</ele>
        <time>2017-07-31T08:36:43Z</time>
      </trkpt>
      <trkpt lat="43.2556604035" lon="2.1265449934">
        <ele>132.80</ele>
        <time>2017-07-31T08:36:55Z</time>
      </trkpt>
      <trkpt lat="43.2556371018" lon="2.1265656967">
        <ele>133.76</ele>
        <time>2017-07-31T08:37:05Z</time>
      </trkpt>
      <trkpt lat="43.2556302287" lon="2.1265807003">
        <ele>133.76</ele>
        <time>2017-07-31T08:37:20Z</time>
      </trkpt>
      <trkpt lat="43.2556314021" lon="2.1265843883">
        <ele>133.28</ele>
        <time>2017-07-31T08:37:23Z</time>
      </trkpt>
      <trkpt lat="43.2556259539" lon="2.1266020741">
        <ele>133.28</ele>
        <time>2017-07-31T08:37:24Z</time>
      </trkpt>
      <trkpt lat="43.2556179073" lon="2.1266230289">
        <ele>133.28</ele>
        <time>2017-07-31T08:37:25Z</time>
      </trkpt>
      <trkpt lat="43.2556091901" lon="2.1266449057">
        <ele>133.28</ele>
        <time>2017-07-31T08:37:26Z</time>
      </trkpt>
      <trkpt lat="43.2556006406" lon="2.1266699675">
        <ele>133.76</ele>
        <time>2017-07-31T08:37:27Z</time>
      </trkpt>
      <trkpt lat="43.2555947732" lon="2.1267006453">
        <ele>133.28</ele>
        <time>2017-07-31T08:37:28Z</time>
      </trkpt>
      <trkpt lat="43.2555863913" lon="2.1267419681">
        <ele>133.28</ele>
        <time>2017-07-31T08:37:29Z</time>
      </trkpt>
      <trkpt lat="43.2555726450" lon="2.1267881524">
        <ele>133.28</ele>
        <time>2017-07-31T08:37:30Z</time>
      </trkpt>
      <trkpt lat="43.2555536181" lon="2.1268341690">
        <ele>132.80</ele>
        <time>2017-07-31T08:37:31Z</time>
      </trkpt>
      <trkpt lat="43.2555300649" lon="2.1268808562">
        <ele>131.84</ele>
        <time>2017-07-31T08:37:32Z</time>
      </trkpt>
      <trkpt lat="43.2555075176" lon="2.1269298904">
        <ele>131.84</ele>
        <time>2017-07-31T08:37:33Z</time>
      </trkpt>
      <trkpt lat="43.2554876525" lon="2.1269841213">
        <ele>132.32</ele>
        <time>2017-07-31T08:37:34Z</time>
      </trkpt>
      <trkpt lat="43.2553427294" lon="2.1274024621">
        <ele>132.80</ele>
        <time>2017-07-31T08:37:41Z</time>
      </trkpt>
      <trkpt lat="43.2553201821" lon="2.1274460480">
        <ele>131.84</ele>
        <time>2017-07-31T08:37:42Z</time>
      </trkpt>
      <trkpt lat="43.2551511191" lon="2.1278480440">
        <ele>131.36</ele>
        <time>2017-07-31T08:37:52Z</time>
      </trkpt>
      <trkpt lat="43.2550558168" lon="2.1280865092">
        <ele>129.43</ele>
        <time>2017-07-31T08:38:00Z</time>
      </trkpt>
      <trkpt lat="43.2550470158" lon="2.1281176060">
        <ele>132.80</ele>
        <time>2017-07-31T08:38:01Z</time>
      </trkpt>
      <trkpt lat="43.2550366223" lon="2.1281487029">
        <ele>129.43</ele>
        <time>2017-07-31T08:38:02Z</time>
      </trkpt>
      <trkpt lat="43.2549177669" lon="2.1284274012">
        <ele>131.36</ele>
        <time>2017-07-31T08:38:11Z</time>
      </trkpt>
      <trkpt lat="43.2547592651" lon="2.1288091969">
        <ele>130.88</ele>
        <time>2017-07-31T08:38:21Z</time>
      </trkpt>
      <trkpt lat="43.2545827422" lon="2.1292199939">
        <ele>130.88</ele>
        <time>2017-07-31T08:38:30Z</time>
      </trkpt>
      <trkpt lat="43.2545494661" lon="2.1293120272">
        <ele>131.36</ele>
        <time>2017-07-31T08:38:32Z</time>
      </trkpt>
      <trkpt lat="43.2543865219" lon="2.1297304519">
        <ele>130.88</ele>
        <time>2017-07-31T08:38:41Z</time>
      </trkpt>
      <trkpt lat="43.2543154433" lon="2.1298804041">
        <ele>130.40</ele>
        <time>2017-07-31T08:38:44Z</time>
      </trkpt>
      <trkpt lat="43.2542959973" lon="2.1299314499">
        <ele>130.40</ele>
        <time>2017-07-31T08:38:45Z</time>
      </trkpt>
      <trkpt lat="43.2541890442" lon="2.1301772911">
        <ele>131.36</ele>
        <time>2017-07-31T08:38:50Z</time>
      </trkpt>
      <trkpt lat="43.2541679218" lon="2.1302261576">
        <ele>131.36</ele>
        <time>2017-07-31T08:38:51Z</time>
      </trkpt>
      <trkpt lat="43.2541482244" lon="2.1302736830">
        <ele>130.88</ele>
        <time>2017-07-31T08:38:52Z</time>
      </trkpt>
      <trkpt lat="43.2541302033" lon="2.1303199511">
        <ele>131.36</ele>
        <time>2017-07-31T08:38:53Z</time>
      </trkpt>
      <trkpt lat="43.2541119307" lon="2.1303684823">
        <ele>130.88</ele>
        <time>2017-07-31T08:38:54Z</time>
      </trkpt>
      <trkpt lat="43.2538831886" lon="2.1308900882">
        <ele>130.88</ele>
        <time>2017-07-31T08:39:05Z</time>
      </trkpt>
      <trkpt lat="43.2536500879" lon="2.1314333193">
        <ele>129.92</ele>
        <time>2017-07-31T08:39:16Z</time>
      </trkpt>
      <trkpt lat="43.2535893191" lon="2.1315823495">
        <ele>130.40</ele>
        <time>2017-07-31T08:39:19Z</time>
      </trkpt>
      <trkpt lat="43.2535707112" lon="2.1316366643">
        <ele>129.92</ele>
        <time>2017-07-31T08:39:20Z</time>
      </trkpt>
      <trkpt lat="43.2534143049" lon="2.1320067253">
        <ele>130.40</ele>
        <time>2017-07-31T08:39:27Z</time>
      </trkpt>
      <trkpt lat="43.2533923443" lon="2.1320581064">
        <ele>130.40</ele>
        <time>2017-07-31T08:39:28Z</time>
      </trkpt>
      <trkpt lat="43.2533730660" lon="2.1321113314">
        <ele>130.40</ele>
        <time>2017-07-31T08:39:29Z</time>
      </trkpt>
      <trkpt lat="43.2532705553" lon="2.1323683206">
        <ele>130.40</ele>
        <time>2017-07-31T08:39:34Z</time>
      </trkpt>
      <trkpt lat="43.2532462478" lon="2.1324157622">
        <ele>130.40</ele>
        <time>2017-07-31T08:39:35Z</time>
      </trkpt>
      <trkpt lat="43.2532240357" lon="2.1324637067">
        <ele>130.40</ele>
        <time>2017-07-31T08:39:36Z</time>
      </trkpt>
      <trkpt lat="43.2532035001" lon="2.1325135790">
        <ele>130.40</ele>
        <time>2017-07-31T08:39:37Z</time>
      </trkpt>
      <trkpt lat="43.2531827129" lon="2.1325614396">
        <ele>130.40</ele>
        <time>2017-07-31T08:39:38Z</time>
      </trkpt>
      <trkpt lat="43.2529506180" lon="2.1331094485">
        <ele>130.40</ele>
        <time>2017-07-31T08:39:49Z</time>
      </trkpt>
      <trkpt lat="43.2528169267" lon="2.1334042400">
        <ele>130.40</ele>
        <time>2017-07-31T08:39:55Z</time>
      </trkpt>
      <trkpt lat="43.2525420003" lon="2.1340541728">
        <ele>130.88</ele>
        <time>2017-07-31T08:40:08Z</time>
      </trkpt>
      <trkpt lat="43.2524161879" lon="2.1344808955">
        <ele>129.92</ele>
        <time>2017-07-31T08:40:17Z</time>
      </trkpt>
      <trkpt lat="43.2523886953" lon="2.1347175166">
        <ele>129.92</ele>
        <time>2017-07-31T08:40:22Z</time>
      </trkpt>
      <trkpt lat="43.2523703389" lon="2.1347569115">
        <ele>129.43</ele>
        <time>2017-07-31T08:40:23Z</time>
      </trkpt>
      <trkpt lat="43.2523570117" lon="2.1348000783">
        <ele>128.95</ele>
        <time>2017-07-31T08:40:24Z</time>
      </trkpt>
      <trkpt lat="43.2522287685" lon="2.1351833828">
        <ele>128.95</ele>
        <time>2017-07-31T08:40:33Z</time>
      </trkpt>
      <trkpt lat="43.2520327996" lon="2.1356396098">
        <ele>128.47</ele>
        <time>2017-07-31T08:40:44Z</time>
      </trkpt>
      <trkpt lat="43.2518318016" lon="2.1360659972">
        <ele>128.47</ele>
        <time>2017-07-31T08:40:55Z</time>
      </trkpt>
      <trkpt lat="43.2516902313" lon="2.1364038717">
        <ele>128.47</ele>
        <time>2017-07-31T08:41:04Z</time>
      </trkpt>
      <trkpt lat="43.2514555380" lon="2.1369346976">
        <ele>128.47</ele>
        <time>2017-07-31T08:41:17Z</time>
      </trkpt>
      <trkpt lat="43.2512977067" lon="2.1373011544">
        <ele>128.95</ele>
        <time>2017-07-31T08:41:26Z</time>
      </trkpt>
      <trkpt lat="43.2511091139" lon="2.1377118677">
        <ele>128.47</ele>
        <time>2017-07-31T08:41:36Z</time>
      </trkpt>
      <trkpt lat="43.2509248797" lon="2.1381181385">
        <ele>128.95</ele>
        <time>2017-07-31T08:41:45Z</time>
      </trkpt>
      <trkpt lat="43.2506833971" lon="2.1386451088">
        <ele>128.95</ele>
        <time>2017-07-31T08:41:56Z</time>
      </trkpt>
      <trkpt lat="43.2506616879" lon="2.1386944782">
        <ele>128.95</ele>
        <time>2017-07-31T08:41:57Z</time>
      </trkpt>
      <trkpt lat="43.2506414875" lon="2.1387458593">
        <ele>128.95</ele>
        <time>2017-07-31T08:41:58Z</time>
      </trkpt>
      <trkpt lat="43.2506208681" lon="2.1387947258">
        <ele>128.95</ele>
        <time>2017-07-31T08:41:59Z</time>
      </trkpt>
      <trkpt lat="43.2505997457" lon="2.1388430893">
        <ele>128.95</ele>
        <time>2017-07-31T08:42:00Z</time>
      </trkpt>
      <trkpt lat="43.2505802996" lon="2.1388905309">
        <ele>129.43</ele>
        <time>2017-07-31T08:42:01Z</time>
      </trkpt>
      <trkpt lat="43.2503752783" lon="2.1393812913">
        <ele>129.43</ele>
        <time>2017-07-31T08:42:11Z</time>
      </trkpt>
      <trkpt lat="43.2501939777" lon="2.1398080979">
        <ele>128.95</ele>
        <time>2017-07-31T08:42:20Z</time>
      </trkpt>
      <trkpt lat="43.2500855159" lon="2.1400651708">
        <ele>128.47</ele>
        <time>2017-07-31T08:42:27Z</time>
      </trkpt>
      <trkpt lat="43.2499692589" lon="2.1403367445">
        <ele>127.51</ele>
        <time>2017-07-31T08:42:36Z</time>
      </trkpt>
      <trkpt lat="43.2499696780" lon="2.1403252613">
        <ele>127.51</ele>
        <time>2017-07-31T08:42:41Z</time>
      </trkpt>
      <trkpt lat="43.2499763835" lon="2.1403070726">
        <ele>127.03</ele>
        <time>2017-07-31T08:42:42Z</time>
      </trkpt>
      <trkpt lat="43.2499862742" lon="2.1402851958">
        <ele>127.51</ele>
        <time>2017-07-31T08:42:43Z</time>
      </trkpt>
      <trkpt lat="43.2500003558" lon="2.1402634028">
        <ele>127.51</ele>
        <time>2017-07-31T08:42:44Z</time>
      </trkpt>
      <trkpt lat="43.2500177063" lon="2.1402413584">
        <ele>127.51</ele>
        <time>2017-07-31T08:42:45Z</time>
      </trkpt>
      <trkpt lat="43.2501448598" lon="2.1399624925">
        <ele>128.47</ele>
        <time>2017-07-31T08:42:54Z</time>
      </trkpt>
      <trkpt lat="43.2501438539" lon="2.1399371792">
        <ele>128.47</ele>
        <time>2017-07-31T08:42:55Z</time>
      </trkpt>
      <trkpt lat="43.2501324546" lon="2.1399185713">
        <ele>129.43</ele>
        <time>2017-07-31T08:42:56Z</time>
      </trkpt>
      <trkpt lat="43.2501164451" lon="2.1399020590">
        <ele>129.43</ele>
        <time>2017-07-31T08:42:57Z</time>
      </trkpt>
      <trkpt lat="43.2500949875" lon="2.1398888994">
        <ele>128.95</ele>
        <time>2017-07-31T08:42:58Z</time>
      </trkpt>
      <trkpt lat="43.2500727754" lon="2.1398857143">
        <ele>129.43</ele>
        <time>2017-07-31T08:42:59Z</time>
      </trkpt>
      <trkpt lat="43.2500554249" lon="2.1398882288">
        <ele>129.43</ele>
        <time>2017-07-31T08:43:00Z</time>
      </trkpt>
      <trkpt lat="43.2500392478" lon="2.1398982871">
        <ele>129.43</ele>
        <time>2017-07-31T08:43:01Z</time>
      </trkpt>
      <trkpt lat="43.2500291057" lon="2.1399119496">
        <ele>129.43</ele>
        <time>2017-07-31T08:43:02Z</time>
      </trkpt>
      <trkpt lat="43.2500213943" lon="2.1399326529">
        <ele>129.92</ele>
        <time>2017-07-31T08:43:03Z</time>
      </trkpt>
      <trkpt lat="43.2498893794" lon="2.1402316354">
        <ele>129.43</ele>
        <time>2017-07-31T08:43:12Z</time>
      </trkpt>
      <trkpt lat="43.2497685123" lon="2.1405038796">
        <ele>129.92</ele>
        <time>2017-07-31T08:43:19Z</time>
      </trkpt>
      <trkpt lat="43.2497387566" lon="2.1405611280">
        <ele>129.43</ele>
        <time>2017-07-31T08:43:20Z</time>
      </trkpt>
      <trkpt lat="43.2494809292" lon="2.1410351247">
        <ele>130.40</ele>
        <time>2017-07-31T08:43:30Z</time>
      </trkpt>
      <trkpt lat="43.2492925879" lon="2.1413865779">
        <ele>129.92</ele>
        <time>2017-07-31T08:43:38Z</time>
      </trkpt>
      <trkpt lat="43.2492642570" lon="2.1414346900">
        <ele>129.43</ele>
        <time>2017-07-31T08:43:39Z</time>
      </trkpt>
      <trkpt lat="43.2492363453" lon="2.1414817125">
        <ele>129.92</ele>
        <time>2017-07-31T08:43:40Z</time>
      </trkpt>
      <trkpt lat="43.2490669470" lon="2.1418078523">
        <ele>129.92</ele>
        <time>2017-07-31T08:43:48Z</time>
      </trkpt>
      <trkpt lat="43.2489314117" lon="2.1420578007">
        <ele>129.43</ele>
        <time>2017-07-31T08:43:53Z</time>
      </trkpt>
      <trkpt lat="43.2489044219" lon="2.1421088465">
        <ele>129.43</ele>
        <time>2017-07-31T08:43:54Z</time>
      </trkpt>
      <trkpt lat="43.2486784458" lon="2.1424965095">
        <ele>129.43</ele>
        <time>2017-07-31T08:44:02Z</time>
      </trkpt>
      <trkpt lat="43.2484993245" lon="2.1428064723">
        <ele>129.43</ele>
        <time>2017-07-31T08:44:09Z</time>
      </trkpt>
      <trkpt lat="43.2482565846" lon="2.1432823129">
        <ele>128.95</ele>
        <time>2017-07-31T08:44:19Z</time>
      </trkpt>
      <trkpt lat="43.2481046207" lon="2.1435629390">
        <ele>127.99</ele>
        <time>2017-07-31T08:44:25Z</time>
      </trkpt>
      <trkpt lat="43.2477671653" lon="2.1441126242">
        <ele>129.92</ele>
        <time>2017-07-31T08:44:36Z</time>
      </trkpt>
      <trkpt lat="43.2477410138" lon="2.1441528574">
        <ele>129.92</ele>
        <time>2017-07-31T08:44:37Z</time>
      </trkpt>
      <trkpt lat="43.2476881240" lon="2.1442439687">
        <ele>129.43</ele>
        <time>2017-07-31T08:44:39Z</time>
      </trkpt>
      <trkpt lat="43.2476623915" lon="2.1442898177">
        <ele>129.43</ele>
        <time>2017-07-31T08:44:40Z</time>
      </trkpt>
      <trkpt lat="43.2476368267" lon="2.1443358343">
        <ele>129.43</ele>
        <time>2017-07-31T08:44:41Z</time>
      </trkpt>
      <trkpt lat="43.2476136088" lon="2.1443769056">
        <ele>129.43</ele>
        <time>2017-07-31T08:44:42Z</time>
      </trkpt>
      <trkpt lat="43.2475926541" lon="2.1444157138">
        <ele>129.43</ele>
        <time>2017-07-31T08:44:43Z</time>
      </trkpt>
      <trkpt lat="43.2475333940" lon="2.1445419453">
        <ele>129.43</ele>
        <time>2017-07-31T08:44:46Z</time>
      </trkpt>
      <trkpt lat="43.2475116849" lon="2.1445846092">
        <ele>128.95</ele>
        <time>2017-07-31T08:44:47Z</time>
      </trkpt>
      <trkpt lat="43.2473406941" lon="2.1448748745">
        <ele>129.43</ele>
        <time>2017-07-31T08:44:54Z</time>
      </trkpt>
      <trkpt lat="43.2471334934" lon="2.1452300996">
        <ele>128.95</ele>
        <time>2017-07-31T08:45:02Z</time>
      </trkpt>
      <trkpt lat="43.2469354291" lon="2.1455386374">
        <ele>128.95</ele>
        <time>2017-07-31T08:45:09Z</time>
      </trkpt>
      <trkpt lat="43.2466821279" lon="2.1459278930">
        <ele>128.95</ele>
        <time>2017-07-31T08:45:17Z</time>
      </trkpt>
      <trkpt lat="43.2463433314" lon="2.1465386823">
        <ele>129.43</ele>
        <time>2017-07-31T08:45:30Z</time>
      </trkpt>
      <trkpt lat="43.2461525593" lon="2.1468431968">
        <ele>129.92</ele>
        <time>2017-07-31T08:45:39Z</time>
      </trkpt>
      <trkpt lat="43.2460212149" lon="2.1471323725">
        <ele>130.40</ele>
        <time>2017-07-31T08:45:47Z</time>
      </trkpt>
      <trkpt lat="43.2458000164" lon="2.1475531440">
        <ele>129.43</ele>
        <time>2017-07-31T08:45:57Z</time>
      </trkpt>
      <trkpt lat="43.2456680015" lon="2.1477851551">
        <ele>129.92</ele>
        <time>2017-07-31T08:46:03Z</time>
      </trkpt>
      <trkpt lat="43.2454487309" lon="2.1481838822">
        <ele>129.92</ele>
        <time>2017-07-31T08:46:12Z</time>
      </trkpt>
      <trkpt lat="43.2452426199" lon="2.1485721320">
        <ele>129.92</ele>
        <time>2017-07-31T08:46:21Z</time>
      </trkpt>
      <trkpt lat="43.2450269535" lon="2.1490215696">
        <ele>129.92</ele>
        <time>2017-07-31T08:46:30Z</time>
      </trkpt>
      <trkpt lat="43.2449287176" lon="2.1493063029">
        <ele>129.92</ele>
        <time>2017-07-31T08:46:36Z</time>
      </trkpt>
      <trkpt lat="43.2448176574" lon="2.1497342829">
        <ele>129.92</ele>
        <time>2017-07-31T08:46:44Z</time>
      </trkpt>
      <trkpt lat="43.2447321620" lon="2.1499432437">
        <ele>128.95</ele>
        <time>2017-07-31T08:46:47Z</time>
      </trkpt>
      <trkpt lat="43.2447008137" lon="2.1500030905">
        <ele>128.47</ele>
        <time>2017-07-31T08:46:48Z</time>
      </trkpt>
      <trkpt lat="43.2446779311" lon="2.1500605904">
        <ele>128.47</ele>
        <time>2017-07-31T08:46:49Z</time>
      </trkpt>
      <trkpt lat="43.2446650229" lon="2.1501145698">
        <ele>128.47</ele>
        <time>2017-07-31T08:46:50Z</time>
      </trkpt>
      <trkpt lat="43.2446562219" lon="2.1501697227">
        <ele>128.47</ele>
        <time>2017-07-31T08:46:51Z</time>
      </trkpt>
      <trkpt lat="43.2446200121" lon="2.1504911687">
        <ele>128.95</ele>
        <time>2017-07-31T08:46:57Z</time>
      </trkpt>
      <trkpt lat="43.2445995603" lon="2.1507571265">
        <ele>128.47</ele>
        <time>2017-07-31T08:47:02Z</time>
      </trkpt>
      <trkpt lat="43.2445781864" lon="2.1509239264">
        <ele>128.47</ele>
        <time>2017-07-31T08:47:05Z</time>
      </trkpt>
      <trkpt lat="43.2445690501" lon="2.1509841923">
        <ele>128.47</ele>
        <time>2017-07-31T08:47:06Z</time>
      </trkpt>
      <trkpt lat="43.2445644401" lon="2.1510371659">
        <ele>128.47</ele>
        <time>2017-07-31T08:47:07Z</time>
      </trkpt>
      <trkpt lat="43.2445272245" lon="2.1514945664">
        <ele>128.47</ele>
        <time>2017-07-31T08:47:16Z</time>
      </trkpt>
      <trkpt lat="43.2444790285" lon="2.1517800540">
        <ele>128.47</ele>
        <time>2017-07-31T08:47:21Z</time>
      </trkpt>
      <trkpt lat="43.2443651184" lon="2.1522426512">
        <ele>128.47</ele>
        <time>2017-07-31T08:47:29Z</time>
      </trkpt>
      <trkpt lat="43.2443688903" lon="2.1522910986">
        <ele>128.47</ele>
        <time>2017-07-31T08:47:30Z</time>
      </trkpt>
      <trkpt lat="43.2443770207" lon="2.1523324214">
        <ele>128.95</ele>
        <time>2017-07-31T08:47:31Z</time>
      </trkpt>
      <trkpt lat="43.2443786971" lon="2.1523753367">
        <ele>128.95</ele>
        <time>2017-07-31T08:47:32Z</time>
      </trkpt>
      <trkpt lat="43.2443709858" lon="2.1524223592">
        <ele>128.95</ele>
        <time>2017-07-31T08:47:33Z</time>
      </trkpt>
      <trkpt lat="43.2443592511" lon="2.1524806973">
        <ele>128.95</ele>
        <time>2017-07-31T08:47:34Z</time>
      </trkpt>
      <trkpt lat="43.2443508692" lon="2.1525374427">
        <ele>128.95</ele>
        <time>2017-07-31T08:47:35Z</time>
      </trkpt>
      <trkpt lat="43.2443498634" lon="2.1527193300">
        <ele>128.95</ele>
        <time>2017-07-31T08:47:38Z</time>
      </trkpt>
      <trkpt lat="43.2443795353" lon="2.1532571968">
        <ele>129.43</ele>
        <time>2017-07-31T08:47:47Z</time>
      </trkpt>
      <trkpt lat="43.2444220316" lon="2.1536989231">
        <ele>128.95</ele>
        <time>2017-07-31T08:47:55Z</time>
      </trkpt>
      <trkpt lat="43.2444534637" lon="2.1542461775">
        <ele>129.92</ele>
        <time>2017-07-31T08:48:04Z</time>
      </trkpt>
      <trkpt lat="43.2443994842" lon="2.1548291389">
        <ele>129.92</ele>
        <time>2017-07-31T08:48:14Z</time>
      </trkpt>
      <trkpt lat="43.2443443313" lon="2.1553806681">
        <ele>129.92</ele>
        <time>2017-07-31T08:48:24Z</time>
      </trkpt>
      <trkpt lat="43.2442533877" lon="2.1558031160">
        <ele>129.92</ele>
        <time>2017-07-31T08:48:31Z</time>
      </trkpt>
      <trkpt lat="43.2442463469" lon="2.1558829956">
        <ele>129.92</ele>
        <time>2017-07-31T08:48:32Z</time>
      </trkpt>
      <trkpt lat="43.2441258151" lon="2.1563648712">
        <ele>130.40</ele>
        <time>2017-07-31T08:48:40Z</time>
      </trkpt>
      <trkpt lat="43.2441299222" lon="2.1567180846">
        <ele>130.40</ele>
        <time>2017-07-31T08:48:47Z</time>
      </trkpt>
      <trkpt lat="43.2441078778" lon="2.1567665320">
        <ele>130.40</ele>
        <time>2017-07-31T08:48:48Z</time>
      </trkpt>
      <trkpt lat="43.2440930419" lon="2.1568198409">
        <ele>130.40</ele>
        <time>2017-07-31T08:48:49Z</time>
      </trkpt>
      <trkpt lat="43.2439746056" lon="2.1572023910">
        <ele>129.92</ele>
        <time>2017-07-31T08:48:57Z</time>
      </trkpt>
      <trkpt lat="43.2439482864" lon="2.1575071570">
        <ele>129.92</ele>
        <time>2017-07-31T08:49:04Z</time>
      </trkpt>
      <trkpt lat="43.2438274194" lon="2.1579095721">
        <ele>129.92</ele>
        <time>2017-07-31T08:49:12Z</time>
      </trkpt>
      <trkpt lat="43.2436337974" lon="2.1583426651">
        <ele>129.92</ele>
        <time>2017-07-31T08:49:19Z</time>
      </trkpt>
      <trkpt lat="43.2434752118" lon="2.1586259734">
        <ele>129.43</ele>
        <time>2017-07-31T08:49:25Z</time>
      </trkpt>
      <trkpt lat="43.2432840206" lon="2.1589244530">
        <ele>129.92</ele>
        <time>2017-07-31T08:49:32Z</time>
      </trkpt>
      <trkpt lat="43.2431495748" lon="2.1591391973">
        <ele>129.92</ele>
        <time>2017-07-31T08:49:41Z</time>
      </trkpt>
      <trkpt lat="43.2431236748" lon="2.1591762453">
        <ele>129.92</ele>
        <time>2017-07-31T08:49:54Z</time>
      </trkpt>
      <trkpt lat="43.2430505846" lon="2.1592073422">
        <ele>129.92</ele>
        <time>2017-07-31T08:50:04Z</time>
      </trkpt>
      <trkpt lat="43.2430157159" lon="2.1592368465">
        <ele>131.36</ele>
        <time>2017-07-31T08:50:08Z</time>
      </trkpt>
      <trkpt lat="43.2429632451" lon="2.1592966095">
        <ele>130.40</ele>
        <time>2017-07-31T08:50:17Z</time>
      </trkpt>
      <trkpt lat="43.2428814378" lon="2.1594985295">
        <ele>129.92</ele>
        <time>2017-07-31T08:50:28Z</time>
      </trkpt>
      <trkpt lat="43.2428228483" lon="2.1596252639">
        <ele>129.92</ele>
        <time>2017-07-31T08:50:40Z</time>
      </trkpt>
      <trkpt lat="43.2428181544" lon="2.1596343163">
        <ele>130.40</ele>
        <time>2017-07-31T08:50:57Z</time>
      </trkpt>
      <trkpt lat="43.2428373490" lon="2.1596245933">
        <ele>129.92</ele>
        <time>2017-07-31T08:51:13Z</time>
      </trkpt>
      <trkpt lat="43.2428365946" lon="2.1596210729">
        <ele>130.40</ele>
        <time>2017-07-31T08:51:28Z</time>
      </trkpt>
      <trkpt lat="43.2428364269" lon="2.1596148703">
        <ele>130.40</ele>
        <time>2017-07-31T08:51:46Z</time>
      </trkpt>
      <trkpt lat="43.2428422105" lon="2.1596136969">
        <ele>129.92</ele>
        <time>2017-07-31T08:52:03Z</time>
      </trkpt>
      <trkpt lat="43.2428377680" lon="2.1596152894">
        <ele>130.40</ele>
        <time>2017-07-31T08:52:21Z</time>
      </trkpt>
      <trkpt lat="43.2428363431" lon="2.1596147865">
        <ele>129.92</ele>
        <time>2017-07-31T08:52:37Z</time>
      </trkpt>
      <trkpt lat="43.2428313978" lon="2.1596136969">
        <ele>130.40</ele>
        <time>2017-07-31T08:52:57Z</time>
      </trkpt>
      <trkpt lat="43.2428268716" lon="2.1596076619">
        <ele>130.40</ele>
        <time>2017-07-31T08:53:20Z</time>
      </trkpt>
      <trkpt lat="43.2428246923" lon="2.1596106794">
        <ele>130.88</ele>
        <time>2017-07-31T08:53:39Z</time>
      </trkpt>
      <trkpt lat="43.2428230997" lon="2.1596110985">
        <ele>130.40</ele>
        <time>2017-07-31T08:53:53Z</time>
      </trkpt>
      <trkpt lat="43.2428233512" lon="2.1596100926">
        <ele>130.40</ele>
        <time>2017-07-31T08:54:13Z</time>
      </trkpt>
      <trkpt lat="43.2428189926" lon="2.1596167143">
        <ele>129.92</ele>
        <time>2017-07-31T08:54:24Z</time>
      </trkpt>
      <trkpt lat="43.2428240217" lon="2.1596303768">
        <ele>129.92</ele>
        <time>2017-07-31T08:54:44Z</time>
      </trkpt>
      <trkpt lat="43.2428233512" lon="2.1596450452">
        <ele>129.92</ele>
        <time>2017-07-31T08:55:07Z</time>
      </trkpt>
      <trkpt lat="43.2428243570" lon="2.1596395131">
        <ele>129.92</ele>
        <time>2017-07-31T08:55:33Z</time>
      </trkpt>
      <trkpt lat="43.2428241894" lon="2.1596240904">
        <ele>129.92</ele>
        <time>2017-07-31T08:55:59Z</time>
      </trkpt>
      <trkpt lat="43.2428232674" lon="2.1596267726">
        <ele>129.43</ele>
        <time>2017-07-31T08:56:15Z</time>
      </trkpt>
      <trkpt lat="43.2428225130" lon="2.1596266050">
        <ele>129.43</ele>
        <time>2017-07-31T08:56:29Z</time>
      </trkpt>
      <trkpt lat="43.2428215072" lon="2.1596295387">
        <ele>129.43</ele>
        <time>2017-07-31T08:56:43Z</time>
      </trkpt>
      <trkpt lat="43.2428203337" lon="2.1596280299">
        <ele>129.92</ele>
        <time>2017-07-31T08:57:01Z</time>
      </trkpt>
      <trkpt lat="43.2428195793" lon="2.1596199833">
        <ele>129.92</ele>
        <time>2017-07-31T08:57:16Z</time>
      </trkpt>
      <trkpt lat="43.2428170647" lon="2.1596223302">
        <ele>129.92</ele>
        <time>2017-07-31T08:57:32Z</time>
      </trkpt>
      <trkpt lat="43.2428155560" lon="2.1596272755">
        <ele>129.92</ele>
        <time>2017-07-31T08:57:49Z</time>
      </trkpt>
      <trkpt lat="43.2428086828" lon="2.1596261021">
        <ele>129.43</ele>
        <time>2017-07-31T08:58:03Z</time>
      </trkpt>
      <trkpt lat="43.2428147178" lon="2.1596322209">
        <ele>129.92</ele>
        <time>2017-07-31T08:58:11Z</time>
      </trkpt>
      <trkpt lat="43.2427971158" lon="2.1596499067">
        <ele>129.92</ele>
        <time>2017-07-31T08:58:17Z</time>
      </trkpt>
      <trkpt lat="43.2427852973" lon="2.1596701909">
        <ele>130.40</ele>
        <time>2017-07-31T08:58:18Z</time>
      </trkpt>
      <trkpt lat="43.2426519413" lon="2.1598888747">
        <ele>129.92</ele>
        <time>2017-07-31T08:58:27Z</time>
      </trkpt>
      <trkpt lat="43.2424805313" lon="2.1601228975">
        <ele>129.92</ele>
        <time>2017-07-31T08:58:35Z</time>
      </trkpt>
      <trkpt lat="43.2421953790" lon="2.1605201997">
        <ele>129.92</ele>
        <time>2017-07-31T08:58:46Z</time>
      </trkpt>
      <trkpt lat="43.2419238053" lon="2.1609066892">
        <ele>129.92</ele>
        <time>2017-07-31T08:58:56Z</time>
      </trkpt>
      <trkpt lat="43.2415363099" lon="2.1615484077">
        <ele>129.92</ele>
        <time>2017-07-31T08:59:11Z</time>
      </trkpt>
      <trkpt lat="43.2413581945" lon="2.1619696822">
        <ele>129.43</ele>
        <time>2017-07-31T08:59:20Z</time>
      </trkpt>
      <trkpt lat="43.2413224038" lon="2.1620635595">
        <ele>129.92</ele>
        <time>2017-07-31T08:59:22Z</time>
      </trkpt>
      <trkpt lat="43.2411794085" lon="2.1624681540">
        <ele>129.92</ele>
        <time>2017-07-31T08:59:30Z</time>
      </trkpt>
      <trkpt lat="43.2410423644" lon="2.1629793663">
        <ele>130.40</ele>
        <time>2017-07-31T08:59:40Z</time>
      </trkpt>
      <trkpt lat="43.2410320546" lon="2.1631575655">
        <ele>130.40</ele>
        <time>2017-07-31T08:59:45Z</time>
      </trkpt>
      <trkpt lat="43.2410193142" lon="2.1632016543">
        <ele>130.40</ele>
        <time>2017-07-31T08:59:46Z</time>
      </trkpt>
      <trkpt lat="43.2409126963" lon="2.1636021417">
        <ele>129.92</ele>
        <time>2017-07-31T08:59:54Z</time>
      </trkpt>
      <trkpt lat="43.2407815196" lon="2.1640668344">
        <ele>130.40</ele>
        <time>2017-07-31T09:00:01Z</time>
      </trkpt>
      <trkpt lat="43.2407110278" lon="2.1644188743">
        <ele>131.36</ele>
        <time>2017-07-31T09:00:09Z</time>
      </trkpt>
      <trkpt lat="43.2405901607" lon="2.1648931224">
        <ele>129.92</ele>
        <time>2017-07-31T09:00:17Z</time>
      </trkpt>
      <trkpt lat="43.2404771727" lon="2.1652658656">
        <ele>129.92</ele>
        <time>2017-07-31T09:00:23Z</time>
      </trkpt>
      <trkpt lat="43.2403949462" lon="2.1655853000">
        <ele>129.43</ele>
        <time>2017-07-31T09:00:31Z</time>
      </trkpt>
      <trkpt lat="43.2402934413" lon="2.1659638267">
        <ele>129.92</ele>
        <time>2017-07-31T09:00:39Z</time>
      </trkpt>
      <trkpt lat="43.2402423956" lon="2.1661079116">
        <ele>130.40</ele>
        <time>2017-07-31T09:00:41Z</time>
      </trkpt>
      <trkpt lat="43.2400833908" lon="2.1665395796">
        <ele>130.88</ele>
        <time>2017-07-31T09:00:49Z</time>
      </trkpt>
      <trkpt lat="43.2399000786" lon="2.1669640392">
        <ele>129.92</ele>
        <time>2017-07-31T09:00:58Z</time>
      </trkpt>
      <trkpt lat="43.2397475280" lon="2.1672435757">
        <ele>130.40</ele>
        <time>2017-07-31T09:01:05Z</time>
      </trkpt>
      <trkpt lat="43.2396018505" lon="2.1676718909">
        <ele>130.40</ele>
        <time>2017-07-31T09:01:13Z</time>
      </trkpt>
      <trkpt lat="43.2395454403" lon="2.1679334901">
        <ele>134.24</ele>
        <time>2017-07-31T09:01:18Z</time>
      </trkpt>
      <trkpt lat="43.2395150978" lon="2.1680810954">
        <ele>130.88</ele>
        <time>2017-07-31T09:01:21Z</time>
      </trkpt>
      <trkpt lat="43.2394976635" lon="2.1685289405">
        <ele>131.36</ele>
        <time>2017-07-31T09:01:30Z</time>
      </trkpt>
      <trkpt lat="43.2394925505" lon="2.1686131787">
        <ele>130.40</ele>
        <time>2017-07-31T09:01:32Z</time>
      </trkpt>
      <trkpt lat="43.2394950651" lon="2.1688768733">
        <ele>131.84</ele>
        <time>2017-07-31T09:01:42Z</time>
      </trkpt>
      <trkpt lat="43.2394939754" lon="2.1689012647">
        <ele>132.32</ele>
        <time>2017-07-31T09:01:43Z</time>
      </trkpt>
      <trkpt lat="43.2394856773" lon="2.1689232253">
        <ele>132.80</ele>
        <time>2017-07-31T09:01:44Z</time>
      </trkpt>
      <trkpt lat="43.2394733559" lon="2.1689382289">
        <ele>132.80</ele>
        <time>2017-07-31T09:01:45Z</time>
      </trkpt>
      <trkpt lat="43.2394573465" lon="2.1689416654">
        <ele>134.24</ele>
        <time>2017-07-31T09:01:46Z</time>
      </trkpt>
      <trkpt lat="43.2394387387" lon="2.1689303499">
        <ele>134.24</ele>
        <time>2017-07-31T09:01:47Z</time>
      </trkpt>
      <trkpt lat="43.2394257467" lon="2.1689114068">
        <ele>133.76</ele>
        <time>2017-07-31T09:01:48Z</time>
      </trkpt>
      <trkpt lat="43.2394160237" lon="2.1688837465">
        <ele>133.28</ele>
        <time>2017-07-31T09:01:49Z</time>
      </trkpt>
      <trkpt lat="43.2394125871" lon="2.1688518114">
        <ele>132.80</ele>
        <time>2017-07-31T09:01:50Z</time>
      </trkpt>
      <trkpt lat="43.2394148502" lon="2.1688189544">
        <ele>132.80</ele>
        <time>2017-07-31T09:01:51Z</time>
      </trkpt>
      <trkpt lat="43.2394047081" lon="2.1683389228">
        <ele>133.76</ele>
        <time>2017-07-31T09:02:03Z</time>
      </trkpt>
      <trkpt lat="43.2393840048" lon="2.1682201512">
        <ele>135.68</ele>
        <time>2017-07-31T09:02:12Z</time>
      </trkpt>
      <trkpt lat="43.2393822446" lon="2.1682215761">
        <ele>134.24</ele>
        <time>2017-07-31T09:02:15Z</time>
      </trkpt>
      <trkpt lat="43.2393756229" lon="2.1682126075">
        <ele>136.16</ele>
        <time>2017-07-31T09:02:20Z</time>
      </trkpt>
      <trkpt lat="43.2393627986" lon="2.1682064887">
        <ele>137.61</ele>
        <time>2017-07-31T09:02:21Z</time>
      </trkpt>
      <trkpt lat="43.2393457834" lon="2.1682084166">
        <ele>138.09</ele>
        <time>2017-07-31T09:02:22Z</time>
      </trkpt>
      <trkpt lat="43.2393303607" lon="2.1682190616">
        <ele>136.64</ele>
        <time>2017-07-31T09:02:23Z</time>
      </trkpt>
      <trkpt lat="43.2393183745" lon="2.1682368312">
        <ele>134.72</ele>
        <time>2017-07-31T09:02:24Z</time>
      </trkpt>
      <trkpt lat="43.2393028680" lon="2.1682501584">
        <ele>134.24</ele>
        <time>2017-07-31T09:02:25Z</time>
      </trkpt>
      <trkpt lat="43.2392839249" lon="2.1682597138">
        <ele>134.72</ele>
        <time>2017-07-31T09:02:26Z</time>
      </trkpt>
      <trkpt lat="43.2392642274" lon="2.1682743821">
        <ele>134.24</ele>
        <time>2017-07-31T09:02:27Z</time>
      </trkpt>
      <trkpt lat="43.2392422669" lon="2.1682963427">
        <ele>133.76</ele>
        <time>2017-07-31T09:02:28Z</time>
      </trkpt>
      <trkpt lat="43.2392158639" lon="2.1683219075">
        <ele>133.28</ele>
        <time>2017-07-31T09:02:29Z</time>
      </trkpt>
      <trkpt lat="43.2391862758" lon="2.1683554351">
        <ele>132.80</ele>
        <time>2017-07-31T09:02:30Z</time>
      </trkpt>
      <trkpt lat="43.2391532511" lon="2.1683935728">
        <ele>132.80</ele>
        <time>2017-07-31T09:02:31Z</time>
      </trkpt>
      <trkpt lat="43.2390022092" lon="2.1685868595">
        <ele>131.36</ele>
        <time>2017-07-31T09:02:35Z</time>
      </trkpt>
      <trkpt lat="43.2389657479" lon="2.1686418448">
        <ele>130.88</ele>
        <time>2017-07-31T09:02:36Z</time>
      </trkpt>
      <trkpt lat="43.2386681065" lon="2.1690189466">
        <ele>130.40</ele>
        <time>2017-07-31T09:02:44Z</time>
      </trkpt>
      <trkpt lat="43.2385809347" lon="2.1691398136">
        <ele>130.40</ele>
        <time>2017-07-31T09:02:47Z</time>
      </trkpt>
      <trkpt lat="43.2385172322" lon="2.1692288294">
        <ele>130.40</ele>
        <time>2017-07-31T09:02:49Z</time>
      </trkpt>
      <trkpt lat="43.2383480016" lon="2.1694515366">
        <ele>130.40</ele>
        <time>2017-07-31T09:02:54Z</time>
      </trkpt>
      <trkpt lat="43.2381092012" lon="2.1698789299">
        <ele>130.40</ele>
        <time>2017-07-31T09:03:03Z</time>
      </trkpt>
      <trkpt lat="43.2380936947" lon="2.1699302271">
        <ele>130.40</ele>
        <time>2017-07-31T09:03:04Z</time>
      </trkpt>
      <trkpt lat="43.2380771823" lon="2.1699837036">
        <ele>129.92</ele>
        <time>2017-07-31T09:03:05Z</time>
      </trkpt>
      <trkpt lat="43.2380207721" lon="2.1701549459">
        <ele>130.40</ele>
        <time>2017-07-31T09:03:08Z</time>
      </trkpt>
      <trkpt lat="43.2380050980" lon="2.1702132002">
        <ele>130.40</ele>
        <time>2017-07-31T09:03:09Z</time>
      </trkpt>
      <trkpt lat="43.2379874121" lon="2.1702651680">
        <ele>129.92</ele>
        <time>2017-07-31T09:03:10Z</time>
      </trkpt>
      <trkpt lat="43.2379706483" lon="2.1703147050">
        <ele>130.40</ele>
        <time>2017-07-31T09:03:11Z</time>
      </trkpt>
      <trkpt lat="43.2379569020" lon="2.1703691036">
        <ele>130.40</ele>
        <time>2017-07-31T09:03:12Z</time>
      </trkpt>
      <trkpt lat="43.2379431557" lon="2.1704246756">
        <ele>129.92</ele>
        <time>2017-07-31T09:03:13Z</time>
      </trkpt>
      <trkpt lat="43.2379294932" lon="2.1704759728">
        <ele>129.92</ele>
        <time>2017-07-31T09:03:14Z</time>
      </trkpt>
      <trkpt lat="43.2378304191" lon="2.1709009353">
        <ele>129.92</ele>
        <time>2017-07-31T09:03:23Z</time>
      </trkpt>
      <trkpt lat="43.2377169281" lon="2.1713704895">
        <ele>129.43</ele>
        <time>2017-07-31T09:03:31Z</time>
      </trkpt>
      <trkpt lat="43.2376955543" lon="2.1718860604">
        <ele>129.92</ele>
        <time>2017-07-31T09:03:41Z</time>
      </trkpt>
      <trkpt lat="43.2376886811" lon="2.1724192332">
        <ele>129.92</ele>
        <time>2017-07-31T09:03:51Z</time>
      </trkpt>
      <trkpt lat="43.2376865018" lon="2.1730306093">
        <ele>130.40</ele>
        <time>2017-07-31T09:04:03Z</time>
      </trkpt>
      <trkpt lat="43.2376512140" lon="2.1735228784">
        <ele>130.40</ele>
        <time>2017-07-31T09:04:13Z</time>
      </trkpt>
      <trkpt lat="43.2375597674" lon="2.1742049139">
        <ele>130.40</ele>
        <time>2017-07-31T09:04:27Z</time>
      </trkpt>
      <trkpt lat="43.2374471147" lon="2.1746641584">
        <ele>131.36</ele>
        <time>2017-07-31T09:04:38Z</time>
      </trkpt>
      <trkpt lat="43.2372248266" lon="2.1751541644">
        <ele>131.36</ele>
        <time>2017-07-31T09:04:50Z</time>
      </trkpt>
      <trkpt lat="43.2370270137" lon="2.1755580883">
        <ele>130.88</ele>
        <time>2017-07-31T09:05:00Z</time>
      </trkpt>
      <trkpt lat="43.2370081544" lon="2.1756025124">
        <ele>130.88</ele>
        <time>2017-07-31T09:05:01Z</time>
      </trkpt>
      <trkpt lat="43.2368319668" lon="2.1759874094">
        <ele>130.40</ele>
        <time>2017-07-31T09:05:09Z</time>
      </trkpt>
      <trkpt lat="43.2366781589" lon="2.1763262060">
        <ele>130.40</ele>
        <time>2017-07-31T09:05:16Z</time>
      </trkpt>
      <trkpt lat="43.2363733090" lon="2.1769575309">
        <ele>130.40</ele>
        <time>2017-07-31T09:05:29Z</time>
      </trkpt>
      <trkpt lat="43.2363293879" lon="2.1770566050">
        <ele>130.88</ele>
        <time>2017-07-31T09:05:31Z</time>
      </trkpt>
      <trkpt lat="43.2362847961" lon="2.1771581937">
        <ele>130.40</ele>
        <time>2017-07-31T09:05:33Z</time>
      </trkpt>
      <trkpt lat="43.2362490054" lon="2.1772664879">
        <ele>130.40</ele>
        <time>2017-07-31T09:05:35Z</time>
      </trkpt>
      <trkpt lat="43.2361094467" lon="2.1778626088">
        <ele>130.40</ele>
        <time>2017-07-31T09:05:46Z</time>
      </trkpt>
      <trkpt lat="43.2359626796" lon="2.1786378510">
        <ele>130.40</ele>
        <time>2017-07-31T09:06:01Z</time>
      </trkpt>
      <trkpt lat="43.2358574867" lon="2.1791530866">
        <ele>130.88</ele>
        <time>2017-07-31T09:06:12Z</time>
      </trkpt>
      <trkpt lat="43.2358621806" lon="2.1792190522">
        <ele>130.88</ele>
        <time>2017-07-31T09:06:14Z</time>
      </trkpt>
      <trkpt lat="43.2358646952" lon="2.1792395879">
        <ele>130.40</ele>
        <time>2017-07-31T09:06:15Z</time>
      </trkpt>
      <trkpt lat="43.2358557265" lon="2.1792592015">
        <ele>130.40</ele>
        <time>2017-07-31T09:06:16Z</time>
      </trkpt>
      <trkpt lat="43.2358421478" lon="2.1792933159">
        <ele>130.40</ele>
        <time>2017-07-31T09:06:17Z</time>
      </trkpt>
      <trkpt lat="43.2358333468" lon="2.1793376561">
        <ele>130.88</ele>
        <time>2017-07-31T09:06:18Z</time>
      </trkpt>
      <trkpt lat="43.2358270604" lon="2.1793855168">
        <ele>130.88</ele>
        <time>2017-07-31T09:06:19Z</time>
      </trkpt>
      <trkpt lat="43.2358237915" lon="2.1794287674">
        <ele>130.88</ele>
        <time>2017-07-31T09:06:20Z</time>
      </trkpt>
      <trkpt lat="43.2357673813" lon="2.1796747763">
        <ele>130.88</ele>
        <time>2017-07-31T09:06:26Z</time>
      </trkpt>
      <trkpt lat="43.2357501145" lon="2.1796907857">
        <ele>130.88</ele>
        <time>2017-07-31T09:06:27Z</time>
      </trkpt>
      <trkpt lat="43.2357285731" lon="2.1797036938">
        <ele>129.92</ele>
        <time>2017-07-31T09:06:36Z</time>
      </trkpt>
      <trkpt lat="43.2357299980" lon="2.1797098964">
        <ele>129.92</ele>
        <time>2017-07-31T09:06:48Z</time>
      </trkpt>
      <trkpt lat="43.2357307523" lon="2.1797114890">
        <ele>130.88</ele>
        <time>2017-07-31T09:06:50Z</time>
      </trkpt>
      <trkpt lat="43.2357291598" lon="2.1797119081">
        <ele>130.40</ele>
        <time>2017-07-31T09:07:11Z</time>
      </trkpt>
      <trkpt lat="43.2357280701" lon="2.1797044482">
        <ele>131.36</ele>
        <time>2017-07-31T09:07:28Z</time>
      </trkpt>
      <trkpt lat="43.2357260585" lon="2.1797108185">
        <ele>130.40</ele>
        <time>2017-07-31T09:07:44Z</time>
      </trkpt>
      <trkpt lat="43.2357644476" lon="2.1796646342">
        <ele>130.40</ele>
        <time>2017-07-31T09:07:53Z</time>
      </trkpt>
      <trkpt lat="43.2357781939" lon="2.1796203777">
        <ele>130.40</ele>
        <time>2017-07-31T09:08:03Z</time>
      </trkpt>
      <trkpt lat="43.2357808761" lon="2.1796181146">
        <ele>130.88</ele>
        <time>2017-07-31T09:08:21Z</time>
      </trkpt>
      <trkpt lat="43.2357727457" lon="2.1796226408">
        <ele>130.40</ele>
        <time>2017-07-31T09:08:35Z</time>
      </trkpt>
      <trkpt lat="43.2357650343" lon="2.1796371415">
        <ele>130.40</ele>
        <time>2017-07-31T09:08:40Z</time>
      </trkpt>
      <trkpt lat="43.2357599214" lon="2.1796586830">
        <ele>130.88</ele>
        <time>2017-07-31T09:08:41Z</time>
      </trkpt>
      <trkpt lat="43.2357543055" lon="2.1796819009">
        <ele>130.88</ele>
        <time>2017-07-31T09:08:42Z</time>
      </trkpt>
      <trkpt lat="43.2357467618" lon="2.1797059570">
        <ele>130.88</ele>
        <time>2017-07-31T09:08:43Z</time>
      </trkpt>
      <trkpt lat="43.2357372064" lon="2.1797379758">
        <ele>130.88</ele>
        <time>2017-07-31T09:08:44Z</time>
      </trkpt>
      <trkpt lat="43.2357268967" lon="2.1797763649">
        <ele>130.40</ele>
        <time>2017-07-31T09:08:45Z</time>
      </trkpt>
      <trkpt lat="43.2356768567" lon="2.1799894329">
        <ele>130.88</ele>
        <time>2017-07-31T09:08:51Z</time>
      </trkpt>
      <trkpt lat="43.2356745098" lon="2.1800258942">
        <ele>130.88</ele>
        <time>2017-07-31T09:08:52Z</time>
      </trkpt>
      <trkpt lat="43.2356678881" lon="2.1800642833">
        <ele>130.88</ele>
        <time>2017-07-31T09:08:53Z</time>
      </trkpt>
      <trkpt lat="43.2356606796" lon="2.1801000740">
        <ele>130.88</ele>
        <time>2017-07-31T09:08:54Z</time>
      </trkpt>
      <trkpt lat="43.2356567401" lon="2.1801330149">
        <ele>130.88</ele>
        <time>2017-07-31T09:08:55Z</time>
      </trkpt>
      <trkpt lat="43.2356496155" lon="2.1801902633">
        <ele>131.36</ele>
        <time>2017-07-31T09:08:57Z</time>
      </trkpt>
      <trkpt lat="43.2356423233" lon="2.1802118048">
        <ele>130.88</ele>
        <time>2017-07-31T09:08:58Z</time>
      </trkpt>
      <trkpt lat="43.2356352825" lon="2.1802300774">
        <ele>130.88</ele>
        <time>2017-07-31T09:08:59Z</time>
      </trkpt>
      <trkpt lat="43.2356284093" lon="2.1802493557">
        <ele>130.88</ele>
        <time>2017-07-31T09:09:00Z</time>
      </trkpt>
      <trkpt lat="43.2356182672" lon="2.1802720707">
        <ele>130.88</ele>
        <time>2017-07-31T09:09:01Z</time>
      </trkpt>
      <trkpt lat="43.2356045209" lon="2.1803024970">
        <ele>130.40</ele>
        <time>2017-07-31T09:09:02Z</time>
      </trkpt>
      <trkpt lat="43.2355915289" lon="2.1803444065">
        <ele>130.40</ele>
        <time>2017-07-31T09:09:03Z</time>
      </trkpt>
      <trkpt lat="43.2355843205" lon="2.1803905070">
        <ele>130.40</ele>
        <time>2017-07-31T09:09:04Z</time>
      </trkpt>
      <trkpt lat="43.2355772797" lon="2.1804358531">
        <ele>130.40</ele>
        <time>2017-07-31T09:09:05Z</time>
      </trkpt>
      <trkpt lat="43.2355615217" lon="2.1804802772">
        <ele>130.40</ele>
        <time>2017-07-31T09:09:06Z</time>
      </trkpt>
      <trkpt lat="43.2355431654" lon="2.1805246174">
        <ele>129.92</ele>
        <time>2017-07-31T09:09:07Z</time>
      </trkpt>
      <trkpt lat="43.2355256472" lon="2.1805735677">
        <ele>129.43</ele>
        <time>2017-07-31T09:09:08Z</time>
      </trkpt>
      <trkpt lat="43.2354897726" lon="2.1806888189">
        <ele>128.47</ele>
        <time>2017-07-31T09:09:10Z</time>
      </trkpt>
      <trkpt lat="43.2354766130" lon="2.1807507612">
        <ele>128.47</ele>
        <time>2017-07-31T09:09:11Z</time>
      </trkpt>
      <trkpt lat="43.2353554945" lon="2.1813084930">
        <ele>128.47</ele>
        <time>2017-07-31T09:09:21Z</time>
      </trkpt>
      <trkpt lat="43.2352368068" lon="2.1818161849">
        <ele>128.47</ele>
        <time>2017-07-31T09:09:31Z</time>
      </trkpt>
      <trkpt lat="43.2351641357" lon="2.1821942087">
        <ele>128.47</ele>
        <time>2017-07-31T09:09:40Z</time>
      </trkpt>
      <trkpt lat="43.2350811549" lon="2.1825591568">
        <ele>128.47</ele>
        <time>2017-07-31T09:09:48Z</time>
      </trkpt>
      <trkpt lat="43.2349360641" lon="2.1831675153">
        <ele>128.47</ele>
        <time>2017-07-31T09:10:00Z</time>
      </trkpt>
      <trkpt lat="43.2348218188" lon="2.1835789829">
        <ele>128.47</ele>
        <time>2017-07-31T09:10:11Z</time>
      </trkpt>
      <trkpt lat="43.2348171249" lon="2.1835768875">
        <ele>128.95</ele>
        <time>2017-07-31T09:10:17Z</time>
      </trkpt>
      <trkpt lat="43.2348162867" lon="2.1835981775">
        <ele>128.95</ele>
        <time>2017-07-31T09:10:18Z</time>
      </trkpt>
      <trkpt lat="43.2348044682" lon="2.1836576052">
        <ele>128.95</ele>
        <time>2017-07-31T09:10:20Z</time>
      </trkpt>
      <trkpt lat="43.2347943261" lon="2.1836930607">
        <ele>128.95</ele>
        <time>2017-07-31T09:10:21Z</time>
      </trkpt>
      <trkpt lat="43.2347795740" lon="2.1837283485">
        <ele>128.95</ele>
        <time>2017-07-31T09:10:22Z</time>
      </trkpt>
      <trkpt lat="43.2347630616" lon="2.1837670729">
        <ele>128.95</ele>
        <time>2017-07-31T09:10:23Z</time>
      </trkpt>
      <trkpt lat="43.2347495668" lon="2.1838081442">
        <ele>128.95</ele>
        <time>2017-07-31T09:10:24Z</time>
      </trkpt>
      <trkpt lat="43.2346146181" lon="2.1843859926">
        <ele>129.43</ele>
        <time>2017-07-31T09:10:35Z</time>
      </trkpt>
      <trkpt lat="43.2346027996" lon="2.1845059376">
        <ele>129.43</ele>
        <time>2017-07-31T09:10:37Z</time>
      </trkpt>
      <trkpt lat="43.2346165460" lon="2.1848046687">
        <ele>129.43</ele>
        <time>2017-07-31T09:10:42Z</time>
      </trkpt>
      <trkpt lat="43.2346290350" lon="2.1848612465">
        <ele>129.43</ele>
        <time>2017-07-31T09:10:43Z</time>
      </trkpt>
      <trkpt lat="43.2346614730" lon="2.1849733125">
        <ele>128.95</ele>
        <time>2017-07-31T09:10:45Z</time>
      </trkpt>
      <trkpt lat="43.2346796617" lon="2.1850309800">
        <ele>128.95</ele>
        <time>2017-07-31T09:10:46Z</time>
      </trkpt>
      <trkpt lat="43.2346991077" lon="2.1850867197">
        <ele>128.47</ele>
        <time>2017-07-31T09:10:47Z</time>
      </trkpt>
      <trkpt lat="43.2347426936" lon="2.1851985343">
        <ele>128.47</ele>
        <time>2017-07-31T09:10:49Z</time>
      </trkpt>
      <trkpt lat="43.2348501496" lon="2.1854045615">
        <ele>129.43</ele>
        <time>2017-07-31T09:10:53Z</time>
      </trkpt>
      <trkpt lat="43.2348714396" lon="2.1854559425">
        <ele>128.95</ele>
        <time>2017-07-31T09:10:54Z</time>
      </trkpt>
      <trkpt lat="43.2348833419" lon="2.1855042223">
        <ele>129.43</ele>
        <time>2017-07-31T09:10:55Z</time>
      </trkpt>
      <trkpt lat="43.2348934002" lon="2.1855478082">
        <ele>129.43</ele>
        <time>2017-07-31T09:10:56Z</time>
      </trkpt>
      <trkpt lat="43.2349119242" lon="2.1855881251">
        <ele>129.43</ele>
        <time>2017-07-31T09:10:57Z</time>
      </trkpt>
      <trkpt lat="43.2349373214" lon="2.1856314596">
        <ele>129.43</ele>
        <time>2017-07-31T09:10:58Z</time>
      </trkpt>
      <trkpt lat="43.2350965776" lon="2.1859895345">
        <ele>128.47</ele>
        <time>2017-07-31T09:11:06Z</time>
      </trkpt>
      <trkpt lat="43.2353317738" lon="2.1864474379">
        <ele>127.99</ele>
        <time>2017-07-31T09:11:16Z</time>
      </trkpt>
      <trkpt lat="43.2354456838" lon="2.1867794450">
        <ele>128.47</ele>
        <time>2017-07-31T09:11:24Z</time>
      </trkpt>
      <trkpt lat="43.2355405670" lon="2.1870837919">
        <ele>127.99</ele>
        <time>2017-07-31T09:11:31Z</time>
      </trkpt>
      <trkpt lat="43.2355982345" lon="2.1874080040">
        <ele>127.99</ele>
        <time>2017-07-31T09:11:39Z</time>
      </trkpt>
      <trkpt lat="43.2356379647" lon="2.1877892129">
        <ele>128.47</ele>
        <time>2017-07-31T09:11:47Z</time>
      </trkpt>
      <trkpt lat="43.2356706541" lon="2.1883148421">
        <ele>128.95</ele>
        <time>2017-07-31T09:11:57Z</time>
      </trkpt>
      <trkpt lat="43.2356462628" lon="2.1888488531">
        <ele>128.47</ele>
        <time>2017-07-31T09:12:07Z</time>
      </trkpt>
      <trkpt lat="43.2355683949" lon="2.1892604046">
        <ele>127.99</ele>
        <time>2017-07-31T09:12:15Z</time>
      </trkpt>
      <trkpt lat="43.2355454285" lon="2.1893002186">
        <ele>127.99</ele>
        <time>2017-07-31T09:12:16Z</time>
      </trkpt>
      <trkpt lat="43.2355217077" lon="2.1893358417">
        <ele>127.99</ele>
        <time>2017-07-31T09:12:17Z</time>
      </trkpt>
      <trkpt lat="43.2355046924" lon="2.1893688664">
        <ele>127.99</ele>
        <time>2017-07-31T09:12:18Z</time>
      </trkpt>
      <trkpt lat="43.2354903594" lon="2.1894077584">
        <ele>128.47</ele>
        <time>2017-07-31T09:12:19Z</time>
      </trkpt>
      <trkpt lat="43.2354767807" lon="2.1894484106">
        <ele>128.47</ele>
        <time>2017-07-31T09:12:20Z</time>
      </trkpt>
      <trkpt lat="43.2352868468" lon="2.1899554320">
        <ele>128.47</ele>
        <time>2017-07-31T09:12:30Z</time>
      </trkpt>
      <trkpt lat="43.2352656405" lon="2.1900123451">
        <ele>128.47</ele>
        <time>2017-07-31T09:12:31Z</time>
      </trkpt>
      <trkpt lat="43.2352451887" lon="2.1900643129">
        <ele>128.47</ele>
        <time>2017-07-31T09:12:32Z</time>
      </trkpt>
      <trkpt lat="43.2352247369" lon="2.1901173703">
        <ele>128.47</ele>
        <time>2017-07-31T09:12:33Z</time>
      </trkpt>
      <trkpt lat="43.2351152692" lon="2.1904675663">
        <ele>128.47</ele>
        <time>2017-07-31T09:12:41Z</time>
      </trkpt>
      <trkpt lat="43.2350278459" lon="2.1907584183">
        <ele>128.47</ele>
        <time>2017-07-31T09:12:49Z</time>
      </trkpt>
      <trkpt lat="43.2349630538" lon="2.1910269745">
        <ele>128.95</ele>
        <time>2017-07-31T09:12:55Z</time>
      </trkpt>
      <trkpt lat="43.2349043805" lon="2.1914236899">
        <ele>128.47</ele>
        <time>2017-07-31T09:13:03Z</time>
      </trkpt>
      <trkpt lat="43.2349030394" lon="2.1918250993">
        <ele>128.95</ele>
        <time>2017-07-31T09:13:11Z</time>
      </trkpt>
      <trkpt lat="43.2348776422" lon="2.1922498103">
        <ele>128.47</ele>
        <time>2017-07-31T09:13:19Z</time>
      </trkpt>
      <trkpt lat="43.2348649018" lon="2.1924270876">
        <ele>128.47</ele>
        <time>2017-07-31T09:13:23Z</time>
      </trkpt>
      <trkpt lat="43.2348665781" lon="2.1924670693">
        <ele>128.47</ele>
        <time>2017-07-31T09:13:24Z</time>
      </trkpt>
      <trkpt lat="43.2348711882" lon="2.1925067157">
        <ele>128.47</ele>
        <time>2017-07-31T09:13:25Z</time>
      </trkpt>
      <trkpt lat="43.2348762173" lon="2.1925555822">
        <ele>127.99</ele>
        <time>2017-07-31T09:13:26Z</time>
      </trkpt>
      <trkpt lat="43.2348745409" lon="2.1925969888">
        <ele>128.47</ele>
        <time>2017-07-31T09:13:27Z</time>
      </trkpt>
      <trkpt lat="43.2348743733" lon="2.1926387306">
        <ele>128.47</ele>
        <time>2017-07-31T09:13:28Z</time>
      </trkpt>
      <trkpt lat="43.2348769717" lon="2.1926844120">
        <ele>128.95</ele>
        <time>2017-07-31T09:13:29Z</time>
      </trkpt>
      <trkpt lat="43.2348794024" lon="2.1927320212">
        <ele>128.95</ele>
        <time>2017-07-31T09:13:30Z</time>
      </trkpt>
      <trkpt lat="43.2348799892" lon="2.1927822288">
        <ele>129.43</ele>
        <time>2017-07-31T09:13:31Z</time>
      </trkpt>
      <trkpt lat="43.2348840963" lon="2.1928287484">
        <ele>129.43</ele>
        <time>2017-07-31T09:13:32Z</time>
      </trkpt>
      <trkpt lat="43.2348887902" lon="2.1928744297">
        <ele>129.43</ele>
        <time>2017-07-31T09:13:33Z</time>
      </trkpt>
      <trkpt lat="43.2348904666" lon="2.1929252241">
        <ele>128.95</ele>
        <time>2017-07-31T09:13:34Z</time>
      </trkpt>
      <trkpt lat="43.2348897122" lon="2.1929792035">
        <ele>129.43</ele>
        <time>2017-07-31T09:13:35Z</time>
      </trkpt>
      <trkpt lat="43.2349067274" lon="2.1934526972">
        <ele>129.43</ele>
        <time>2017-07-31T09:13:44Z</time>
      </trkpt>
      <trkpt lat="43.2349058893" lon="2.1939131990">
        <ele>130.40</ele>
        <time>2017-07-31T09:13:52Z</time>
      </trkpt>
      <trkpt lat="43.2349125110" lon="2.1941630635">
        <ele>126.55</ele>
        <time>2017-07-31T09:13:57Z</time>
      </trkpt>
      <trkpt lat="43.2349120080" lon="2.1942010336">
        <ele>130.40</ele>
        <time>2017-07-31T09:13:58Z</time>
      </trkpt>
      <trkpt lat="43.2348620519" lon="2.1944815759">
        <ele>130.40</ele>
        <time>2017-07-31T09:14:05Z</time>
      </trkpt>
      <trkpt lat="43.2348823361" lon="2.1947344579">
        <ele>130.88</ele>
        <time>2017-07-31T09:14:16Z</time>
      </trkpt>
      <trkpt lat="43.2349402551" lon="2.1947851684">
        <ele>131.36</ele>
        <time>2017-07-31T09:14:27Z</time>
      </trkpt>
      <trkpt lat="43.2349731959" lon="2.1947851684">
        <ele>132.32</ele>
        <time>2017-07-31T09:14:46Z</time>
      </trkpt>
      <trkpt lat="43.2350078970" lon="2.1948201209">
        <ele>132.32</ele>
        <time>2017-07-31T09:15:04Z</time>
      </trkpt>
      <trkpt lat="43.2350172009" lon="2.1948351245">
        <ele>132.80</ele>
        <time>2017-07-31T09:15:25Z</time>
      </trkpt>
      <trkpt lat="43.2350263372" lon="2.1948443446">
        <ele>133.76</ele>
        <time>2017-07-31T09:15:40Z</time>
      </trkpt>
      <trkpt lat="43.2350561768" lon="2.1948744357">
        <ele>134.24</ele>
        <time>2017-07-31T09:16:03Z</time>
      </trkpt>
      <trkpt lat="43.2350680791" lon="2.1948772017">
        <ele>134.72</ele>
        <time>2017-07-31T09:16:21Z</time>
      </trkpt>
      <trkpt lat="43.2350739464" lon="2.1948772017">
        <ele>135.20</ele>
        <time>2017-07-31T09:16:40Z</time>
      </trkpt>
      <trkpt lat="43.2350781374" lon="2.1949103940">
        <ele>135.68</ele>
        <time>2017-07-31T09:16:51Z</time>
      </trkpt>
      <trkpt lat="43.2350808196" lon="2.1949273255">
        <ele>135.68</ele>
        <time>2017-07-31T09:16:52Z</time>
      </trkpt>
      <trkpt lat="43.2350830827" lon="2.1949502919">
        <ele>135.68</ele>
        <time>2017-07-31T09:16:53Z</time>
      </trkpt>
      <trkpt lat="43.2350840885" lon="2.1949755214">
        <ele>135.68</ele>
        <time>2017-07-31T09:16:54Z</time>
      </trkpt>
      <trkpt lat="43.2350819092" lon="2.1949993260">
        <ele>135.68</ele>
        <time>2017-07-31T09:16:55Z</time>
      </trkpt>
      <trkpt lat="43.2350776345" lon="2.1950271539">
        <ele>136.16</ele>
        <time>2017-07-31T09:16:56Z</time>
      </trkpt>
      <trkpt lat="43.2350762095" lon="2.1950574126">
        <ele>136.16</ele>
        <time>2017-07-31T09:16:57Z</time>
      </trkpt>
      <trkpt lat="43.2350751199" lon="2.1950910240">
        <ele>135.68</ele>
        <time>2017-07-31T09:16:58Z</time>
      </trkpt>
      <trkpt lat="43.2350614574" lon="2.1951998211">
        <ele>136.64</ele>
        <time>2017-07-31T09:17:01Z</time>
      </trkpt>
      <trkpt lat="43.2350588590" lon="2.1952385455">
        <ele>136.64</ele>
        <time>2017-07-31T09:17:02Z</time>
      </trkpt>
      <trkpt lat="43.2350533269" lon="2.1952811256">
        <ele>136.16</ele>
        <time>2017-07-31T09:17:03Z</time>
      </trkpt>
      <trkpt lat="43.2349628862" lon="2.1957236901">
        <ele>136.16</ele>
        <time>2017-07-31T09:17:11Z</time>
      </trkpt>
      <trkpt lat="43.2348506525" lon="2.1961258538">
        <ele>136.16</ele>
        <time>2017-07-31T09:17:20Z</time>
      </trkpt>
      <trkpt lat="43.2348321285" lon="2.1963870339">
        <ele>136.16</ele>
        <time>2017-07-31T09:17:24Z</time>
      </trkpt>
      <trkpt lat="43.2348246686" lon="2.1964391693">
        <ele>136.16</ele>
        <time>2017-07-31T09:17:25Z</time>
      </trkpt>
      <trkpt lat="43.2347556856" lon="2.1966906264">
        <ele>136.16</ele>
        <time>2017-07-31T09:17:34Z</time>
      </trkpt>
      <trkpt lat="43.2347343955" lon="2.1967939753">
        <ele>136.16</ele>
        <time>2017-07-31T09:17:41Z</time>
      </trkpt>
      <trkpt lat="43.2347273547" lon="2.1968189534">
        <ele>136.16</ele>
        <time>2017-07-31T09:17:42Z</time>
      </trkpt>
      <trkpt lat="43.2347207330" lon="2.1968432609">
        <ele>136.16</ele>
        <time>2017-07-31T09:17:43Z</time>
      </trkpt>
      <trkpt lat="43.2346882951" lon="2.1969660558">
        <ele>136.64</ele>
        <time>2017-07-31T09:17:48Z</time>
      </trkpt>
      <trkpt lat="43.2346798293" lon="2.1969885193">
        <ele>136.64</ele>
        <time>2017-07-31T09:17:49Z</time>
      </trkpt>
      <trkpt lat="43.2346329745" lon="2.1973079536">
        <ele>136.64</ele>
        <time>2017-07-31T09:18:00Z</time>
      </trkpt>
      <trkpt lat="43.2345650811" lon="2.1977824531">
        <ele>136.64</ele>
        <time>2017-07-31T09:18:09Z</time>
      </trkpt>
      <trkpt lat="43.2344240136" lon="2.1981959324">
        <ele>136.64</ele>
        <time>2017-07-31T09:18:18Z</time>
      </trkpt>
      <trkpt lat="43.2342535257" lon="2.1985473018">
        <ele>136.64</ele>
        <time>2017-07-31T09:18:27Z</time>
      </trkpt>
      <trkpt lat="43.2340915874" lon="2.1989405807">
        <ele>137.13</ele>
        <time>2017-07-31T09:18:35Z</time>
      </trkpt>
      <trkpt lat="43.2339508552" lon="2.1993111446">
        <ele>137.13</ele>
        <time>2017-07-31T09:18:43Z</time>
      </trkpt>
      <trkpt lat="43.2337997295" lon="2.1996797808">
        <ele>137.13</ele>
        <time>2017-07-31T09:18:51Z</time>
      </trkpt>
      <trkpt lat="43.2336623501" lon="2.2000036575">
        <ele>137.13</ele>
        <time>2017-07-31T09:18:59Z</time>
      </trkpt>
      <trkpt lat="43.2336489391" lon="2.2000453155">
        <ele>137.13</ele>
        <time>2017-07-31T09:19:00Z</time>
      </trkpt>
      <trkpt lat="43.2335926965" lon="2.2001711279">
        <ele>136.64</ele>
        <time>2017-07-31T09:19:03Z</time>
      </trkpt>
      <trkpt lat="43.2335828058" lon="2.2002124507">
        <ele>136.64</ele>
        <time>2017-07-31T09:19:04Z</time>
      </trkpt>
      <trkpt lat="43.2335665450" lon="2.2002546117">
        <ele>136.64</ele>
        <time>2017-07-31T09:19:05Z</time>
      </trkpt>
      <trkpt lat="43.2334020920" lon="2.2006215714">
        <ele>137.13</ele>
        <time>2017-07-31T09:19:13Z</time>
      </trkpt>
      <trkpt lat="43.2332523912" lon="2.2010212205">
        <ele>137.61</ele>
        <time>2017-07-31T09:19:22Z</time>
      </trkpt>
      <trkpt lat="43.2330899499" lon="2.2016999032">
        <ele>138.09</ele>
        <time>2017-07-31T09:19:33Z</time>
      </trkpt>
      <trkpt lat="43.2329943962" lon="2.2020507697">
        <ele>137.61</ele>
        <time>2017-07-31T09:19:41Z</time>
      </trkpt>
      <trkpt lat="43.2328715175" lon="2.2025422007">
        <ele>138.09</ele>
        <time>2017-07-31T09:19:52Z</time>
      </trkpt>
      <trkpt lat="43.2328276802" lon="2.2029321268">
        <ele>139.05</ele>
        <time>2017-07-31T09:20:01Z</time>
      </trkpt>
      <trkpt lat="43.2327756286" lon="2.2032694984">
        <ele>139.53</ele>
        <time>2017-07-31T09:20:10Z</time>
      </trkpt>
      <trkpt lat="43.2327347249" lon="2.2037225403">
        <ele>140.49</ele>
        <time>2017-07-31T09:20:19Z</time>
      </trkpt>
      <trkpt lat="43.2328104973" lon="2.2040888295">
        <ele>141.93</ele>
        <time>2017-07-31T09:20:30Z</time>
      </trkpt>
      <trkpt lat="43.2329250779" lon="2.2046394367">
        <ele>140.97</ele>
        <time>2017-07-31T09:20:38Z</time>
      </trkpt>
      <trkpt lat="43.2333172671" lon="2.2054458596">
        <ele>140.49</ele>
        <time>2017-07-31T09:20:50Z</time>
      </trkpt>
      <trkpt lat="43.2337099593" lon="2.2061225306">
        <ele>140.49</ele>
        <time>2017-07-31T09:21:02Z</time>
      </trkpt>
      <trkpt lat="43.2340417150" lon="2.2066736408">
        <ele>140.49</ele>
        <time>2017-07-31T09:21:13Z</time>
      </trkpt>
      <trkpt lat="43.2340770029" lon="2.2067127004">
        <ele>140.49</ele>
        <time>2017-07-31T09:21:14Z</time>
      </trkpt>
      <trkpt lat="43.2341184095" lon="2.2067476530">
        <ele>140.01</ele>
        <time>2017-07-31T09:21:15Z</time>
      </trkpt>
      <trkpt lat="43.2341975346" lon="2.2068042308">
        <ele>139.53</ele>
        <time>2017-07-31T09:21:17Z</time>
      </trkpt>
      <trkpt lat="43.2342910767" lon="2.2068445478">
        <ele>139.53</ele>
        <time>2017-07-31T09:21:19Z</time>
      </trkpt>
      <trkpt lat="43.2344399393" lon="2.2068831883">
        <ele>140.49</ele>
        <time>2017-07-31T09:21:22Z</time>
      </trkpt>
      <trkpt lat="43.2347017899" lon="2.2068629041">
        <ele>139.05</ele>
        <time>2017-07-31T09:21:28Z</time>
      </trkpt>
      <trkpt lat="43.2350712642" lon="2.2067422047">
        <ele>140.49</ele>
        <time>2017-07-31T09:21:37Z</time>
      </trkpt>
      <trkpt lat="43.2352836616" lon="2.2066834476">
        <ele>140.97</ele>
        <time>2017-07-31T09:21:42Z</time>
      </trkpt>
      <trkpt lat="43.2353249844" lon="2.2066733893">
        <ele>140.97</ele>
        <time>2017-07-31T09:21:43Z</time>
      </trkpt>
      <trkpt lat="43.2353668939" lon="2.2066656779">
        <ele>140.97</ele>
        <time>2017-07-31T09:21:44Z</time>
      </trkpt>
      <trkpt lat="43.2354124077" lon="2.2066604812">
        <ele>140.97</ele>
        <time>2017-07-31T09:21:45Z</time>
      </trkpt>
      <trkpt lat="43.2354532275" lon="2.2066546138">
        <ele>140.97</ele>
        <time>2017-07-31T09:21:46Z</time>
      </trkpt>
      <trkpt lat="43.2355692331" lon="2.2066448908">
        <ele>140.49</ele>
        <time>2017-07-31T09:21:49Z</time>
      </trkpt>
      <trkpt lat="43.2356134895" lon="2.2066500876">
        <ele>140.49</ele>
        <time>2017-07-31T09:21:50Z</time>
      </trkpt>
      <trkpt lat="43.2358574029" lon="2.2066918295">
        <ele>140.49</ele>
        <time>2017-07-31T09:21:56Z</time>
      </trkpt>
      <trkpt lat="43.2365103532" lon="2.2068853676">
        <ele>140.97</ele>
        <time>2017-07-31T09:22:09Z</time>
      </trkpt>
      <trkpt lat="43.2369031291" lon="2.2070084978">
        <ele>140.01</ele>
        <time>2017-07-31T09:22:18Z</time>
      </trkpt>
      <trkpt lat="43.2372386567" lon="2.2071062308">
        <ele>140.49</ele>
        <time>2017-07-31T09:22:25Z</time>
      </trkpt>
      <trkpt lat="43.2372840866" lon="2.2071205638">
        <ele>140.49</ele>
        <time>2017-07-31T09:22:26Z</time>
      </trkpt>
      <trkpt lat="43.2373303548" lon="2.2071328014">
        <ele>140.49</ele>
        <time>2017-07-31T09:22:27Z</time>
      </trkpt>
      <trkpt lat="43.2377235498" lon="2.2072901297">
        <ele>141.45</ele>
        <time>2017-07-31T09:22:35Z</time>
      </trkpt>
      <trkpt lat="43.2377705723" lon="2.2073264234">
        <ele>141.45</ele>
        <time>2017-07-31T09:22:36Z</time>
      </trkpt>
      <trkpt lat="43.2378491946" lon="2.2074057162">
        <ele>140.97</ele>
        <time>2017-07-31T09:22:38Z</time>
      </trkpt>
      <trkpt lat="43.2378788665" lon="2.2074541636">
        <ele>140.97</ele>
        <time>2017-07-31T09:22:39Z</time>
      </trkpt>
      <trkpt lat="43.2379290741" lon="2.2075512260">
        <ele>140.49</ele>
        <time>2017-07-31T09:22:41Z</time>
      </trkpt>
      <trkpt lat="43.2379486877" lon="2.2076040320">
        <ele>140.49</ele>
        <time>2017-07-31T09:22:42Z</time>
      </trkpt>
      <trkpt lat="43.2379776053" lon="2.2077171039">
        <ele>140.49</ele>
        <time>2017-07-31T09:22:44Z</time>
      </trkpt>
      <trkpt lat="43.2379854005" lon="2.2077783756">
        <ele>140.01</ele>
        <time>2017-07-31T09:22:45Z</time>
      </trkpt>
      <trkpt lat="43.2379904296" lon="2.2078390606">
        <ele>140.49</ele>
        <time>2017-07-31T09:22:46Z</time>
      </trkpt>
      <trkpt lat="43.2379928604" lon="2.2080816329">
        <ele>140.49</ele>
        <time>2017-07-31T09:22:50Z</time>
      </trkpt>
      <trkpt lat="43.2379829697" lon="2.2081422340">
        <ele>140.97</ele>
        <time>2017-07-31T09:22:51Z</time>
      </trkpt>
      <trkpt lat="43.2379715703" lon="2.2082032543">
        <ele>140.97</ele>
        <time>2017-07-31T09:22:52Z</time>
      </trkpt>
      <trkpt lat="43.2379049342" lon="2.2084657755">
        <ele>140.49</ele>
        <time>2017-07-31T09:22:57Z</time>
      </trkpt>
      <trkpt lat="43.2378879189" lon="2.2085193358">
        <ele>140.49</ele>
        <time>2017-07-31T09:22:58Z</time>
      </trkpt>
      <trkpt lat="43.2378729992" lon="2.2085722256">
        <ele>140.49</ele>
        <time>2017-07-31T09:22:59Z</time>
      </trkpt>
      <trkpt lat="43.2378004957" lon="2.2087936755">
        <ele>140.49</ele>
        <time>2017-07-31T09:23:03Z</time>
      </trkpt>
      <trkpt lat="43.2376881782" lon="2.2091329750">
        <ele>140.49</ele>
        <time>2017-07-31T09:23:09Z</time>
      </trkpt>
      <trkpt lat="43.2376695704" lon="2.2091894690">
        <ele>140.49</ele>
        <time>2017-07-31T09:23:10Z</time>
      </trkpt>
      <trkpt lat="43.2376507111" lon="2.2092539258">
        <ele>140.49</ele>
        <time>2017-07-31T09:23:11Z</time>
      </trkpt>
      <trkpt lat="43.2376103941" lon="2.2093964182">
        <ele>140.01</ele>
        <time>2017-07-31T09:23:13Z</time>
      </trkpt>
      <trkpt lat="43.2375903614" lon="2.2094722744">
        <ele>140.01</ele>
        <time>2017-07-31T09:23:14Z</time>
      </trkpt>
      <trkpt lat="43.2375086378" lon="2.2097603604">
        <ele>140.01</ele>
        <time>2017-07-31T09:23:18Z</time>
      </trkpt>
      <trkpt lat="43.2374459412" lon="2.2099422477">
        <ele>139.53</ele>
        <time>2017-07-31T09:23:21Z</time>
      </trkpt>
      <trkpt lat="43.2373197097" lon="2.2104351036">
        <ele>140.01</ele>
        <time>2017-07-31T09:23:29Z</time>
      </trkpt>
      <trkpt lat="43.2373041194" lon="2.2104940284">
        <ele>140.49</ele>
        <time>2017-07-31T09:23:30Z</time>
      </trkpt>
      <trkpt lat="43.2372917142" lon="2.2105514444">
        <ele>140.49</ele>
        <time>2017-07-31T09:23:31Z</time>
      </trkpt>
      <trkpt lat="43.2372778002" lon="2.2106062621">
        <ele>140.49</ele>
        <time>2017-07-31T09:23:32Z</time>
      </trkpt>
      <trkpt lat="43.2372632157" lon="2.2106603254">
        <ele>140.49</ele>
        <time>2017-07-31T09:23:33Z</time>
      </trkpt>
      <trkpt lat="43.2372535765" lon="2.2107156459">
        <ele>140.49</ele>
        <time>2017-07-31T09:23:34Z</time>
      </trkpt>
      <trkpt lat="43.2372424286" lon="2.2107689548">
        <ele>140.49</ele>
        <time>2017-07-31T09:23:35Z</time>
      </trkpt>
      <trkpt lat="43.2372286823" lon="2.2108220961">
        <ele>140.49</ele>
        <time>2017-07-31T09:23:36Z</time>
      </trkpt>
      <trkpt lat="43.2372149359" lon="2.2108775843">
        <ele>140.49</ele>
        <time>2017-07-31T09:23:37Z</time>
      </trkpt>
      <trkpt lat="43.2372009382" lon="2.2109332401">
        <ele>140.49</ele>
        <time>2017-07-31T09:23:38Z</time>
      </trkpt>
      <trkpt lat="43.2371643931" lon="2.2111085057">
        <ele>140.49</ele>
        <time>2017-07-31T09:23:41Z</time>
      </trkpt>
      <trkpt lat="43.2370685041" lon="2.2114711069">
        <ele>140.49</ele>
        <time>2017-07-31T09:23:49Z</time>
      </trkpt>
      <trkpt lat="43.2370003592" lon="2.2118395753">
        <ele>140.01</ele>
        <time>2017-07-31T09:23:57Z</time>
      </trkpt>
      <trkpt lat="43.2368339784" lon="2.2123515420">
        <ele>140.01</ele>
        <time>2017-07-31T09:24:06Z</time>
      </trkpt>
      <trkpt lat="43.2368057314" lon="2.2124148253">
        <ele>140.01</ele>
        <time>2017-07-31T09:24:07Z</time>
      </trkpt>
      <trkpt lat="43.2367725391" lon="2.2124775220">
        <ele>140.01</ele>
        <time>2017-07-31T09:24:08Z</time>
      </trkpt>
      <trkpt lat="43.2367365807" lon="2.2125367820">
        <ele>140.01</ele>
        <time>2017-07-31T09:24:09Z</time>
      </trkpt>
      <trkpt lat="43.2366276160" lon="2.2127040010">
        <ele>140.49</ele>
        <time>2017-07-31T09:24:12Z</time>
      </trkpt>
      <trkpt lat="43.2365889754" lon="2.2127483413">
        <ele>140.01</ele>
        <time>2017-07-31T09:24:13Z</time>
      </trkpt>
      <trkpt lat="43.2365512569" lon="2.2127852216">
        <ele>139.53</ele>
        <time>2017-07-31T09:24:14Z</time>
      </trkpt>
      <trkpt lat="43.2365113590" lon="2.2128190845">
        <ele>139.53</ele>
        <time>2017-07-31T09:24:15Z</time>
      </trkpt>
      <trkpt lat="43.2364681922" lon="2.2128464933">
        <ele>139.53</ele>
        <time>2017-07-31T09:24:16Z</time>
      </trkpt>
      <trkpt lat="43.2364257798" lon="2.2128815297">
        <ele>139.53</ele>
        <time>2017-07-31T09:24:17Z</time>
      </trkpt>
      <trkpt lat="43.2363901567" lon="2.2129183263">
        <ele>139.53</ele>
        <time>2017-07-31T09:24:18Z</time>
      </trkpt>
      <trkpt lat="43.2363610715" lon="2.2129550390">
        <ele>140.01</ele>
        <time>2017-07-31T09:24:19Z</time>
      </trkpt>
      <trkpt lat="43.2363348361" lon="2.2129904944">
        <ele>140.01</ele>
        <time>2017-07-31T09:24:20Z</time>
      </trkpt>
      <trkpt lat="43.2363072596" lon="2.2130299732">
        <ele>140.01</ele>
        <time>2017-07-31T09:24:21Z</time>
      </trkpt>
      <trkpt lat="43.2362243626" lon="2.2131889779">
        <ele>139.53</ele>
        <time>2017-07-31T09:24:24Z</time>
      </trkpt>
      <trkpt lat="43.2361930981" lon="2.2132292110">
        <ele>139.53</ele>
        <time>2017-07-31T09:24:25Z</time>
      </trkpt>
      <trkpt lat="43.2361533679" lon="2.2132637445">
        <ele>139.53</ele>
        <time>2017-07-31T09:24:26Z</time>
      </trkpt>
      <trkpt lat="43.2361136377" lon="2.2133017983">
        <ele>139.53</ele>
        <time>2017-07-31T09:24:27Z</time>
      </trkpt>
      <trkpt lat="43.2360769249" lon="2.2133437078">
        <ele>139.53</ele>
        <time>2017-07-31T09:24:28Z</time>
      </trkpt>
      <trkpt lat="43.2358171698" lon="2.2136004455">
        <ele>140.01</ele>
        <time>2017-07-31T09:24:35Z</time>
      </trkpt>
      <trkpt lat="43.2357821334" lon="2.2136378288">
        <ele>140.01</ele>
        <time>2017-07-31T09:24:36Z</time>
      </trkpt>
      <trkpt lat="43.2356744260" lon="2.2137539182">
        <ele>139.53</ele>
        <time>2017-07-31T09:24:42Z</time>
      </trkpt>
      <trkpt lat="43.2356606796" lon="2.2137760464">
        <ele>140.01</ele>
        <time>2017-07-31T09:24:43Z</time>
      </trkpt>
      <trkpt lat="43.2356579974" lon="2.2137987614">
        <ele>139.53</ele>
        <time>2017-07-31T09:24:44Z</time>
      </trkpt>
      <trkpt lat="43.2356474362" lon="2.2138239909">
        <ele>139.53</ele>
        <time>2017-07-31T09:24:45Z</time>
      </trkpt>
      <trkpt lat="43.2356305886" lon="2.2138482984">
        <ele>139.53</ele>
        <time>2017-07-31T09:24:46Z</time>
      </trkpt>
      <trkpt lat="43.2356074546" lon="2.2138788924">
        <ele>139.53</ele>
        <time>2017-07-31T09:24:47Z</time>
      </trkpt>
      <trkpt lat="43.2353622839" lon="2.2142335307">
        <ele>139.53</ele>
        <time>2017-07-31T09:24:56Z</time>
      </trkpt>
      <trkpt lat="43.2352243178" lon="2.2146889195">
        <ele>140.01</ele>
        <time>2017-07-31T09:25:05Z</time>
      </trkpt>
      <trkpt lat="43.2351874374" lon="2.2151128761">
        <ele>140.49</ele>
        <time>2017-07-31T09:25:13Z</time>
      </trkpt>
      <trkpt lat="43.2351936400" lon="2.2152561229">
        <ele>140.49</ele>
        <time>2017-07-31T09:25:15Z</time>
      </trkpt>
      <trkpt lat="43.2353271637" lon="2.2157092486">
        <ele>140.01</ele>
        <time>2017-07-31T09:25:23Z</time>
      </trkpt>
      <trkpt lat="43.2353601046" lon="2.2157566063">
        <ele>140.01</ele>
        <time>2017-07-31T09:25:24Z</time>
      </trkpt>
      <trkpt lat="43.2354313508" lon="2.2158364858">
        <ele>140.01</ele>
        <time>2017-07-31T09:25:26Z</time>
      </trkpt>
      <trkpt lat="43.2354715001" lon="2.2158635594">
        <ele>140.01</ele>
        <time>2017-07-31T09:25:27Z</time>
      </trkpt>
      <trkpt lat="43.2355548162" lon="2.2159097437">
        <ele>140.01</ele>
        <time>2017-07-31T09:25:29Z</time>
      </trkpt>
      <trkpt lat="43.2355956361" lon="2.2159238253">
        <ele>139.53</ele>
        <time>2017-07-31T09:25:30Z</time>
      </trkpt>
      <trkpt lat="43.2356369589" lon="2.2159415111">
        <ele>139.53</ele>
        <time>2017-07-31T09:25:31Z</time>
      </trkpt>
      <trkpt lat="43.2357254717" lon="2.2159793973">
        <ele>139.05</ele>
        <time>2017-07-31T09:25:33Z</time>
      </trkpt>
      <trkpt lat="43.2357679680" lon="2.2159908805">
        <ele>139.05</ele>
        <time>2017-07-31T09:25:34Z</time>
      </trkpt>
      <trkpt lat="43.2358097099" lon="2.2159974184">
        <ele>139.53</ele>
        <time>2017-07-31T09:25:35Z</time>
      </trkpt>
      <trkpt lat="43.2360226102" lon="2.2160083987">
        <ele>140.01</ele>
        <time>2017-07-31T09:25:40Z</time>
      </trkpt>
      <trkpt lat="43.2360713091" lon="2.2159995139">
        <ele>139.53</ele>
        <time>2017-07-31T09:25:41Z</time>
      </trkpt>
      <trkpt lat="43.2361222710" lon="2.2159995977">
        <ele>139.53</ele>
        <time>2017-07-31T09:25:42Z</time>
      </trkpt>
      <trkpt lat="43.2361720596" lon="2.2159985919">
        <ele>139.05</ele>
        <time>2017-07-31T09:25:43Z</time>
      </trkpt>
      <trkpt lat="43.2362292241" lon="2.2159964126">
        <ele>139.53</ele>
        <time>2017-07-31T09:25:44Z</time>
      </trkpt>
      <trkpt lat="43.2362912502" lon="2.2160002682">
        <ele>139.53</ele>
        <time>2017-07-31T09:25:45Z</time>
      </trkpt>
      <trkpt lat="43.2363531925" lon="2.2160102427">
        <ele>139.53</ele>
        <time>2017-07-31T09:25:46Z</time>
      </trkpt>
      <trkpt lat="43.2364126202" lon="2.2160244919">
        <ele>139.53</ele>
        <time>2017-07-31T09:25:47Z</time>
      </trkpt>
      <trkpt lat="43.2365209144" lon="2.2160594445">
        <ele>139.53</ele>
        <time>2017-07-31T09:25:49Z</time>
      </trkpt>
      <trkpt lat="43.2365696132" lon="2.2160852607">
        <ele>139.53</ele>
        <time>2017-07-31T09:25:50Z</time>
      </trkpt>
      <trkpt lat="43.2366164681" lon="2.2161173634">
        <ele>139.05</ele>
        <time>2017-07-31T09:25:51Z</time>
      </trkpt>
      <trkpt lat="43.2366675138" lon="2.2161552496">
        <ele>139.05</ele>
        <time>2017-07-31T09:25:52Z</time>
      </trkpt>
      <trkpt lat="43.2367062382" lon="2.2161950637">
        <ele>139.05</ele>
        <time>2017-07-31T09:25:53Z</time>
      </trkpt>
      <trkpt lat="43.2367406879" lon="2.2162399068">
        <ele>139.05</ele>
        <time>2017-07-31T09:25:54Z</time>
      </trkpt>
      <trkpt lat="43.2367717847" lon="2.2162907012">
        <ele>139.53</ele>
        <time>2017-07-31T09:25:55Z</time>
      </trkpt>
      <trkpt lat="43.2367998641" lon="2.2163444292">
        <ele>139.53</ele>
        <time>2017-07-31T09:25:56Z</time>
      </trkpt>
      <trkpt lat="43.2368249260" lon="2.2164026834">
        <ele>139.53</ele>
        <time>2017-07-31T09:25:57Z</time>
      </trkpt>
      <trkpt lat="43.2368473895" lon="2.2164611053">
        <ele>139.53</ele>
        <time>2017-07-31T09:25:58Z</time>
      </trkpt>
      <trkpt lat="43.2368650753" lon="2.2165212035">
        <ele>139.53</ele>
        <time>2017-07-31T09:25:59Z</time>
      </trkpt>
      <trkpt lat="43.2368897181" lon="2.2166405618">
        <ele>139.53</ele>
        <time>2017-07-31T09:26:01Z</time>
      </trkpt>
      <trkpt lat="43.2368942443" lon="2.2167019174">
        <ele>139.53</ele>
        <time>2017-07-31T09:26:02Z</time>
      </trkpt>
      <trkpt lat="43.2368954178" lon="2.2167649493">
        <ele>139.53</ele>
        <time>2017-07-31T09:26:03Z</time>
      </trkpt>
      <trkpt lat="43.2368929870" lon="2.2168278974">
        <ele>139.53</ele>
        <time>2017-07-31T09:26:04Z</time>
      </trkpt>
      <trkpt lat="43.2368865330" lon="2.2168905102">
        <ele>140.01</ele>
        <time>2017-07-31T09:26:05Z</time>
      </trkpt>
      <trkpt lat="43.2368747145" lon="2.2169513628">
        <ele>140.01</ele>
        <time>2017-07-31T09:26:06Z</time>
      </trkpt>
      <trkpt lat="43.2368033007" lon="2.2172522731">
        <ele>140.01</ele>
        <time>2017-07-31T09:26:11Z</time>
      </trkpt>
      <trkpt lat="43.2367781550" lon="2.2173099406">
        <ele>140.97</ele>
        <time>2017-07-31T09:26:12Z</time>
      </trkpt>
      <trkpt lat="43.2366298791" lon="2.2177344002">
        <ele>139.05</ele>
        <time>2017-07-31T09:26:19Z</time>
      </trkpt>
      <trkpt lat="43.2365636621" lon="2.2179141920">
        <ele>139.05</ele>
        <time>2017-07-31T09:26:22Z</time>
      </trkpt>
      <trkpt lat="43.2365432102" lon="2.2179760505">
        <ele>139.05</ele>
        <time>2017-07-31T09:26:23Z</time>
      </trkpt>
      <trkpt lat="43.2364748977" lon="2.2181567643">
        <ele>139.05</ele>
        <time>2017-07-31T09:26:26Z</time>
      </trkpt>
      <trkpt lat="43.2364541944" lon="2.2182178684">
        <ele>139.05</ele>
        <time>2017-07-31T09:26:27Z</time>
      </trkpt>
      <trkpt lat="43.2363876421" lon="2.2183990851">
        <ele>139.05</ele>
        <time>2017-07-31T09:26:30Z</time>
      </trkpt>
      <trkpt lat="43.2363673579" lon="2.2184628714">
        <ele>139.53</ele>
        <time>2017-07-31T09:26:31Z</time>
      </trkpt>
      <trkpt lat="43.2363256160" lon="2.2185860854">
        <ele>139.05</ele>
        <time>2017-07-31T09:26:33Z</time>
      </trkpt>
      <trkpt lat="43.2363116182" lon="2.2186482791">
        <ele>139.53</ele>
        <time>2017-07-31T09:26:34Z</time>
      </trkpt>
      <trkpt lat="43.2363034878" lon="2.2187077906">
        <ele>140.49</ele>
        <time>2017-07-31T09:26:35Z</time>
      </trkpt>
      <trkpt lat="43.2363014761" lon="2.2187626921">
        <ele>140.49</ele>
        <time>2017-07-31T09:26:36Z</time>
      </trkpt>
      <trkpt lat="43.2363047451" lon="2.2188136540">
        <ele>140.01</ele>
        <time>2017-07-31T09:26:37Z</time>
      </trkpt>
      <trkpt lat="43.2363127917" lon="2.2188641969">
        <ele>139.53</ele>
        <time>2017-07-31T09:26:38Z</time>
      </trkpt>
      <trkpt lat="43.2364887279" lon="2.2191400453">
        <ele>139.05</ele>
        <time>2017-07-31T09:26:45Z</time>
      </trkpt>
      <trkpt lat="43.2367503271" lon="2.2192159016">
        <ele>139.05</ele>
        <time>2017-07-31T09:26:52Z</time>
      </trkpt>
      <trkpt lat="43.2371684164" lon="2.2192788497">
        <ele>139.05</ele>
        <time>2017-07-31T09:27:01Z</time>
      </trkpt>
      <trkpt lat="43.2374271657" lon="2.2193950228">
        <ele>138.57</ele>
        <time>2017-07-31T09:27:07Z</time>
      </trkpt>
      <trkpt lat="43.2374665607" lon="2.2194273770">
        <ele>139.05</ele>
        <time>2017-07-31T09:27:08Z</time>
      </trkpt>
      <trkpt lat="43.2375405729" lon="2.2194966115">
        <ele>139.05</ele>
        <time>2017-07-31T09:27:10Z</time>
      </trkpt>
      <trkpt lat="43.2377043553" lon="2.2197706159">
        <ele>139.53</ele>
        <time>2017-07-31T09:27:17Z</time>
      </trkpt>
      <trkpt lat="43.2377740089" lon="2.2199480608">
        <ele>138.57</ele>
        <time>2017-07-31T09:27:21Z</time>
      </trkpt>
      <trkpt lat="43.2377890125" lon="2.2199980170">
        <ele>139.05</ele>
        <time>2017-07-31T09:27:22Z</time>
      </trkpt>
      <trkpt lat="43.2379229553" lon="2.2205623705">
        <ele>138.57</ele>
        <time>2017-07-31T09:27:32Z</time>
      </trkpt>
      <trkpt lat="43.2379352767" lon="2.2206152603">
        <ele>138.57</ele>
        <time>2017-07-31T09:27:33Z</time>
      </trkpt>
      <trkpt lat="43.2379621826" lon="2.2208402306">
        <ele>139.05</ele>
        <time>2017-07-31T09:27:37Z</time>
      </trkpt>
      <trkpt lat="43.2379677147" lon="2.2210152447">
        <ele>139.05</ele>
        <time>2017-07-31T09:27:40Z</time>
      </trkpt>
      <trkpt lat="43.2379589975" lon="2.2211289033">
        <ele>138.57</ele>
        <time>2017-07-31T09:27:42Z</time>
      </trkpt>
      <trkpt lat="43.2379568182" lon="2.2211890854">
        <ele>138.57</ele>
        <time>2017-07-31T09:27:43Z</time>
      </trkpt>
      <trkpt lat="43.2379212789" lon="2.2214672808">
        <ele>138.57</ele>
        <time>2017-07-31T09:27:48Z</time>
      </trkpt>
      <trkpt lat="43.2379114721" lon="2.2215195000">
        <ele>138.57</ele>
        <time>2017-07-31T09:27:49Z</time>
      </trkpt>
      <trkpt lat="43.2378973905" lon="2.2215666063">
        <ele>138.57</ele>
        <time>2017-07-31T09:27:50Z</time>
      </trkpt>
      <trkpt lat="43.2378822193" lon="2.2216108628">
        <ele>138.57</ele>
        <time>2017-07-31T09:27:51Z</time>
      </trkpt>
      <trkpt lat="43.2378705684" lon="2.2216615733">
        <ele>139.05</ele>
        <time>2017-07-31T09:27:52Z</time>
      </trkpt>
      <trkpt lat="43.2378605939" lon="2.2217204981">
        <ele>139.05</ele>
        <time>2017-07-31T09:27:53Z</time>
      </trkpt>
      <trkpt lat="43.2378472667" lon="2.2217762377">
        <ele>139.53</ele>
        <time>2017-07-31T09:27:54Z</time>
      </trkpt>
      <trkpt lat="43.2378294971" lon="2.2218328156">
        <ele>139.05</ele>
        <time>2017-07-31T09:27:55Z</time>
      </trkpt>
      <trkpt lat="43.2378109731" lon="2.2218903154">
        <ele>139.05</ele>
        <time>2017-07-31T09:27:56Z</time>
      </trkpt>
      <trkpt lat="43.2377668004" lon="2.2220051475">
        <ele>139.05</ele>
        <time>2017-07-31T09:27:58Z</time>
      </trkpt>
      <trkpt lat="43.2377426606" lon="2.2220637370">
        <ele>139.05</ele>
        <time>2017-07-31T09:27:59Z</time>
      </trkpt>
      <trkpt lat="43.2375714183" lon="2.2224425152">
        <ele>139.53</ele>
        <time>2017-07-31T09:28:07Z</time>
      </trkpt>
      <trkpt lat="43.2373510581" lon="2.2228077147">
        <ele>139.53</ele>
        <time>2017-07-31T09:28:15Z</time>
      </trkpt>
      <trkpt lat="43.2371110003" lon="2.2231663764">
        <ele>139.05</ele>
        <time>2017-07-31T09:28:23Z</time>
      </trkpt>
      <trkpt lat="43.2370430231" lon="2.2232418973">
        <ele>139.05</ele>
        <time>2017-07-31T09:28:25Z</time>
      </trkpt>
      <trkpt lat="43.2369718608" lon="2.2233201005">
        <ele>139.53</ele>
        <time>2017-07-31T09:28:27Z</time>
      </trkpt>
      <trkpt lat="43.2367607206" lon="2.2235120460">
        <ele>139.05</ele>
        <time>2017-07-31T09:28:32Z</time>
      </trkpt>
      <trkpt lat="43.2365274522" lon="2.2236924246">
        <ele>139.05</ele>
        <time>2017-07-31T09:28:37Z</time>
      </trkpt>
      <trkpt lat="43.2363816071" lon="2.2237906605">
        <ele>139.53</ele>
        <time>2017-07-31T09:28:40Z</time>
      </trkpt>
      <trkpt lat="43.2362119574" lon="2.2239428759">
        <ele>139.53</ele>
        <time>2017-07-31T09:28:44Z</time>
      </trkpt>
      <trkpt lat="43.2360211015" lon="2.2241387609">
        <ele>139.53</ele>
        <time>2017-07-31T09:28:49Z</time>
      </trkpt>
      <trkpt lat="43.2355647068" lon="2.2246280126">
        <ele>139.53</ele>
        <time>2017-07-31T09:29:01Z</time>
      </trkpt>
      <trkpt lat="43.2354570832" lon="2.2247458622">
        <ele>139.05</ele>
        <time>2017-07-31T09:29:04Z</time>
      </trkpt>
      <trkpt lat="43.2353450172" lon="2.2248427570">
        <ele>138.57</ele>
        <time>2017-07-31T09:29:07Z</time>
      </trkpt>
      <trkpt lat="43.2353048678" lon="2.2248784639">
        <ele>138.57</ele>
        <time>2017-07-31T09:29:08Z</time>
      </trkpt>
      <trkpt lat="43.2352688257" lon="2.2249147575">
        <ele>138.57</ele>
        <time>2017-07-31T09:29:09Z</time>
      </trkpt>
      <trkpt lat="43.2352339569" lon="2.2249498777">
        <ele>139.05</ele>
        <time>2017-07-31T09:29:10Z</time>
      </trkpt>
      <trkpt lat="43.2351962384" lon="2.2249907814">
        <ele>139.05</ele>
        <time>2017-07-31T09:29:11Z</time>
      </trkpt>
      <trkpt lat="43.2350496389" lon="2.2251495346">
        <ele>139.05</ele>
        <time>2017-07-31T09:29:15Z</time>
      </trkpt>
      <trkpt lat="43.2347763889" lon="2.2254672926">
        <ele>139.05</ele>
        <time>2017-07-31T09:29:24Z</time>
      </trkpt>
      <trkpt lat="43.2346760575" lon="2.2255748324">
        <ele>139.05</ele>
        <time>2017-07-31T09:29:27Z</time>
      </trkpt>
      <trkpt lat="43.2346413564" lon="2.2256069351">
        <ele>139.05</ele>
        <time>2017-07-31T09:29:28Z</time>
      </trkpt>
      <trkpt lat="43.2346110139" lon="2.2256377805">
        <ele>139.05</ele>
        <time>2017-07-31T09:29:29Z</time>
      </trkpt>
      <trkpt lat="43.2345820125" lon="2.2256667819">
        <ele>139.05</ele>
        <time>2017-07-31T09:29:30Z</time>
      </trkpt>
      <trkpt lat="43.2345553581" lon="2.2257007286">
        <ele>139.05</ele>
        <time>2017-07-31T09:29:31Z</time>
      </trkpt>
      <trkpt lat="43.2343292143" lon="2.2259979509">
        <ele>139.05</ele>
        <time>2017-07-31T09:29:39Z</time>
      </trkpt>
      <trkpt lat="43.2341346703" lon="2.2262698598">
        <ele>138.57</ele>
        <time>2017-07-31T09:29:46Z</time>
      </trkpt>
      <trkpt lat="43.2341051660" lon="2.2263110150">
        <ele>138.57</ele>
        <time>2017-07-31T09:29:47Z</time>
      </trkpt>
      <trkpt lat="43.2340781763" lon="2.2263504937">
        <ele>139.05</ele>
        <time>2017-07-31T09:29:48Z</time>
      </trkpt>
      <trkpt lat="43.2340174913" lon="2.2264380008">
        <ele>139.05</ele>
        <time>2017-07-31T09:29:50Z</time>
      </trkpt>
      <trkpt lat="43.2339871489" lon="2.2264837660">
        <ele>139.05</ele>
        <time>2017-07-31T09:29:51Z</time>
      </trkpt>
      <trkpt lat="43.2337301597" lon="2.2268389072">
        <ele>139.05</ele>
        <time>2017-07-31T09:29:59Z</time>
      </trkpt>
      <trkpt lat="43.2335308380" lon="2.2271212935">
        <ele>138.57</ele>
        <time>2017-07-31T09:30:05Z</time>
      </trkpt>
      <trkpt lat="43.2334997412" lon="2.2271909472">
        <ele>139.05</ele>
        <time>2017-07-31T09:30:06Z</time>
      </trkpt>
      <trkpt lat="43.2334709913" lon="2.2272392269">
        <ele>139.05</ele>
        <time>2017-07-31T09:30:07Z</time>
      </trkpt>
      <trkpt lat="43.2332468592" lon="2.2275962960">
        <ele>138.57</ele>
        <time>2017-07-31T09:30:14Z</time>
      </trkpt>
      <trkpt lat="43.2332093921" lon="2.2276506945">
        <ele>138.57</ele>
        <time>2017-07-31T09:30:15Z</time>
      </trkpt>
      <trkpt lat="43.2328874432" lon="2.2281558719">
        <ele>139.05</ele>
        <time>2017-07-31T09:30:24Z</time>
      </trkpt>
      <trkpt lat="43.2327368204" lon="2.2283961810">
        <ele>139.05</ele>
        <time>2017-07-31T09:30:29Z</time>
      </trkpt>
      <trkpt lat="43.2327122614" lon="2.2284236737">
        <ele>138.57</ele>
        <time>2017-07-31T09:30:30Z</time>
      </trkpt>
      <trkpt lat="43.2326889597" lon="2.2284632362">
        <ele>138.57</ele>
        <time>2017-07-31T09:30:31Z</time>
      </trkpt>
      <trkpt lat="43.2326689269" lon="2.2285095043">
        <ele>138.57</ele>
        <time>2017-07-31T09:30:32Z</time>
      </trkpt>
      <trkpt lat="43.2326509058" lon="2.2285509948">
        <ele>138.57</ele>
        <time>2017-07-31T09:30:33Z</time>
      </trkpt>
      <trkpt lat="43.2325897180" lon="2.2290788870">
        <ele>138.57</ele>
        <time>2017-07-31T09:30:41Z</time>
      </trkpt>
      <trkpt lat="43.2325961720" lon="2.2291526478">
        <ele>138.57</ele>
        <time>2017-07-31T09:30:42Z</time>
      </trkpt>
      <trkpt lat="43.2326027937" lon="2.2292167693">
        <ele>139.05</ele>
        <time>2017-07-31T09:30:43Z</time>
      </trkpt>
      <trkpt lat="43.2326085772" lon="2.2292715870">
        <ele>139.05</ele>
        <time>2017-07-31T09:30:44Z</time>
      </trkpt>
      <trkpt lat="43.2326185517" lon="2.2293274943">
        <ele>138.57</ele>
        <time>2017-07-31T09:30:45Z</time>
      </trkpt>
      <trkpt lat="43.2326364890" lon="2.2293702420">
        <ele>138.57</ele>
        <time>2017-07-31T09:30:46Z</time>
      </trkpt>
      <trkpt lat="43.2327504829" lon="2.2295734193">
        <ele>139.53</ele>
        <time>2017-07-31T09:30:53Z</time>
      </trkpt>
      <trkpt lat="43.2328356430" lon="2.2297522053">
        <ele>140.01</ele>
        <time>2017-07-31T09:31:00Z</time>
      </trkpt>
      <trkpt lat="43.2328434382" lon="2.2297768481">
        <ele>140.01</ele>
        <time>2017-07-31T09:31:01Z</time>
      </trkpt>
      <trkpt lat="43.2328586094" lon="2.2298002336">
        <ele>140.01</ele>
        <time>2017-07-31T09:31:02Z</time>
      </trkpt>
      <trkpt lat="43.2328721043" lon="2.2298163269">
        <ele>140.49</ele>
        <time>2017-07-31T09:31:03Z</time>
      </trkpt>
      <trkpt lat="43.2328928914" lon="2.2298350185">
        <ele>140.01</ele>
        <time>2017-07-31T09:31:04Z</time>
      </trkpt>
      <trkpt lat="43.2329094037" lon="2.2298538778">
        <ele>140.49</ele>
        <time>2017-07-31T09:31:05Z</time>
      </trkpt>
      <trkpt lat="43.2329256646" lon="2.2298747487">
        <ele>140.97</ele>
        <time>2017-07-31T09:31:06Z</time>
      </trkpt>
      <trkpt lat="43.2329375669" lon="2.2298973799">
        <ele>140.97</ele>
        <time>2017-07-31T09:31:07Z</time>
      </trkpt>
      <trkpt lat="43.2329490501" lon="2.2299201787">
        <ele>140.97</ele>
        <time>2017-07-31T09:31:08Z</time>
      </trkpt>
      <trkpt lat="43.2329558395" lon="2.2299418878">
        <ele>141.45</ele>
        <time>2017-07-31T09:31:09Z</time>
      </trkpt>
      <trkpt lat="43.2329585217" lon="2.2299641836">
        <ele>141.45</ele>
        <time>2017-07-31T09:31:10Z</time>
      </trkpt>
      <trkpt lat="43.2329918817" lon="2.2300374415">
        <ele>141.45</ele>
        <time>2017-07-31T09:31:13Z</time>
      </trkpt>
      <trkpt lat="43.2330612838" lon="2.2301039100">
        <ele>141.45</ele>
        <time>2017-07-31T09:31:18Z</time>
      </trkpt>
      <trkpt lat="43.2330743596" lon="2.2301262058">
        <ele>140.97</ele>
        <time>2017-07-31T09:31:19Z</time>
      </trkpt>
      <trkpt lat="43.2330898661" lon="2.2301500104">
        <ele>139.53</ele>
        <time>2017-07-31T09:31:20Z</time>
      </trkpt>
      <trkpt lat="43.2331041992" lon="2.2301745694">
        <ele>140.49</ele>
        <time>2017-07-31T09:31:21Z</time>
      </trkpt>
      <trkpt lat="43.2331218850" lon="2.2302034870">
        <ele>141.45</ele>
        <time>2017-07-31T09:31:22Z</time>
      </trkpt>
      <trkpt lat="43.2331421692" lon="2.2302358411">
        <ele>140.01</ele>
        <time>2017-07-31T09:31:23Z</time>
      </trkpt>
      <trkpt lat="43.2331693266" lon="2.2302695364">
        <ele>140.01</ele>
        <time>2017-07-31T09:31:24Z</time>
      </trkpt>
      <trkpt lat="43.2331966516" lon="2.2303085122">
        <ele>140.01</ele>
        <time>2017-07-31T09:31:25Z</time>
      </trkpt>
      <trkpt lat="43.2332258206" lon="2.2303528525">
        <ele>139.53</ele>
        <time>2017-07-31T09:31:26Z</time>
      </trkpt>
      <trkpt lat="43.2332572527" lon="2.2303973604">
        <ele>139.05</ele>
        <time>2017-07-31T09:31:27Z</time>
      </trkpt>
      <trkpt lat="43.2333166804" lon="2.2304877173">
        <ele>139.05</ele>
        <time>2017-07-31T09:31:29Z</time>
      </trkpt>
      <trkpt lat="43.2335273176" lon="2.2308893781">
        <ele>138.57</ele>
        <time>2017-07-31T09:31:38Z</time>
      </trkpt>
      <trkpt lat="43.2335718255" lon="2.2309815791">
        <ele>139.53</ele>
        <time>2017-07-31T09:31:46Z</time>
      </trkpt>
      <trkpt lat="43.2335811295" lon="2.2310073953">
        <ele>139.53</ele>
        <time>2017-07-31T09:31:51Z</time>
      </trkpt>
      <trkpt lat="43.2335898466" lon="2.2310136817">
        <ele>138.57</ele>
        <time>2017-07-31T09:32:02Z</time>
      </trkpt>
      <trkpt lat="43.2336095441" lon="2.2310163639">
        <ele>139.05</ele>
        <time>2017-07-31T09:32:25Z</time>
      </trkpt>
      <trkpt lat="43.2336094603" lon="2.2310134303">
        <ele>138.57</ele>
        <time>2017-07-31T09:32:48Z</time>
      </trkpt>
      <trkpt lat="43.2336155791" lon="2.2310123406">
        <ele>138.57</ele>
        <time>2017-07-31T09:33:10Z</time>
      </trkpt>
      <trkpt lat="43.2336273976" lon="2.2309905477">
        <ele>137.61</ele>
        <time>2017-07-31T09:33:34Z</time>
      </trkpt>
      <trkpt lat="43.2336315047" lon="2.2309928946">
        <ele>137.61</ele>
        <time>2017-07-31T09:34:01Z</time>
      </trkpt>
      <trkpt lat="43.2336196862" lon="2.2309924755">
        <ele>137.61</ele>
        <time>2017-07-31T09:34:24Z</time>
      </trkpt>
      <trkpt lat="43.2336181775" lon="2.2309910506">
        <ele>137.61</ele>
        <time>2017-07-31T09:34:44Z</time>
      </trkpt>
      <trkpt lat="43.2336160820" lon="2.2309968341">
        <ele>137.61</ele>
        <time>2017-07-31T09:34:54Z</time>
      </trkpt>
      <trkpt lat="43.2336358633" lon="2.2309766337">
        <ele>137.13</ele>
        <time>2017-07-31T09:34:57Z</time>
      </trkpt>
      <trkpt lat="43.2336316723" lon="2.2309611272">
        <ele>137.13</ele>
        <time>2017-07-31T09:34:58Z</time>
      </trkpt>
      <trkpt lat="43.2336223684" lon="2.2309454530">
        <ele>137.61</ele>
        <time>2017-07-31T09:34:59Z</time>
      </trkpt>
      <trkpt lat="43.2336119749" lon="2.2309312876">
        <ele>137.61</ele>
        <time>2017-07-31T09:35:00Z</time>
      </trkpt>
      <trkpt lat="43.2336006593" lon="2.2309131827">
        <ele>137.61</ele>
        <time>2017-07-31T09:35:01Z</time>
      </trkpt>
      <trkpt lat="43.2335906010" lon="2.2308892105">
        <ele>137.61</ele>
        <time>2017-07-31T09:35:02Z</time>
      </trkpt>
      <trkpt lat="43.2335828897" lon="2.2308644000">
        <ele>137.13</ele>
        <time>2017-07-31T09:35:03Z</time>
      </trkpt>
      <trkpt lat="43.2334071212" lon="2.2305663396">
        <ele>137.61</ele>
        <time>2017-07-31T09:35:13Z</time>
      </trkpt>
      <trkpt lat="43.2333478611" lon="2.2304693609">
        <ele>138.09</ele>
        <time>2017-07-31T09:35:15Z</time>
      </trkpt>
      <trkpt lat="43.2333207037" lon="2.2304220870">
        <ele>138.09</ele>
        <time>2017-07-31T09:35:16Z</time>
      </trkpt>
      <trkpt lat="43.2332928758" lon="2.2303811833">
        <ele>138.09</ele>
        <time>2017-07-31T09:35:17Z</time>
      </trkpt>
      <trkpt lat="43.2332667243" lon="2.2303432133">
        <ele>138.09</ele>
        <time>2017-07-31T09:35:18Z</time>
      </trkpt>
      <trkpt lat="43.2332442608" lon="2.2303025611">
        <ele>138.57</ele>
        <time>2017-07-31T09:35:19Z</time>
      </trkpt>
      <trkpt lat="43.2332221325" lon="2.2302646749">
        <ele>138.57</ele>
        <time>2017-07-31T09:35:20Z</time>
      </trkpt>
      <trkpt lat="43.2332001720" lon="2.2302264534">
        <ele>138.57</ele>
        <time>2017-07-31T09:35:21Z</time>
      </trkpt>
      <trkpt lat="43.2331798039" lon="2.2301873937">
        <ele>139.05</ele>
        <time>2017-07-31T09:35:22Z</time>
      </trkpt>
      <trkpt lat="43.2330583502" lon="2.2300460748">
        <ele>140.01</ele>
        <time>2017-07-31T09:35:27Z</time>
      </trkpt>
      <trkpt lat="43.2330279239" lon="2.2300469130">
        <ele>140.49</ele>
        <time>2017-07-31T09:35:28Z</time>
      </trkpt>
      <trkpt lat="43.2330005150" lon="2.2300578095">
        <ele>140.49</ele>
        <time>2017-07-31T09:35:29Z</time>
      </trkpt>
      <trkpt lat="43.2329798955" lon="2.2300759144">
        <ele>140.97</ele>
        <time>2017-07-31T09:35:30Z</time>
      </trkpt>
      <trkpt lat="43.2329619583" lon="2.2300987970">
        <ele>140.97</ele>
        <time>2017-07-31T09:35:31Z</time>
      </trkpt>
      <trkpt lat="43.2329427637" lon="2.2301168181">
        <ele>140.97</ele>
        <time>2017-07-31T09:35:32Z</time>
      </trkpt>
      <trkpt lat="43.2329266705" lon="2.2301372699">
        <ele>141.45</ele>
        <time>2017-07-31T09:35:33Z</time>
      </trkpt>
      <trkpt lat="43.2329130918" lon="2.2301619127">
        <ele>141.45</ele>
        <time>2017-07-31T09:35:34Z</time>
      </trkpt>
      <trkpt lat="43.2327065617" lon="2.2303992044">
        <ele>139.53</ele>
        <time>2017-07-31T09:35:42Z</time>
      </trkpt>
      <trkpt lat="43.2326405961" lon="2.2304663435">
        <ele>140.01</ele>
        <time>2017-07-31T09:35:44Z</time>
      </trkpt>
      <trkpt lat="43.2326064818" lon="2.2304984462">
        <ele>140.01</ele>
        <time>2017-07-31T09:35:45Z</time>
      </trkpt>
      <trkpt lat="43.2323515043" lon="2.2307295352">
        <ele>140.01</ele>
        <time>2017-07-31T09:35:56Z</time>
      </trkpt>
      <trkpt lat="43.2322458923" lon="2.2310076468">
        <ele>140.49</ele>
        <time>2017-07-31T09:36:04Z</time>
      </trkpt>
      <trkpt lat="43.2321712933" lon="2.2312891111">
        <ele>140.97</ele>
        <time>2017-07-31T09:36:11Z</time>
      </trkpt>
      <trkpt lat="43.2320564613" lon="2.2314547375">
        <ele>140.97</ele>
        <time>2017-07-31T09:36:20Z</time>
      </trkpt>
      <trkpt lat="43.2320585568" lon="2.2314529773">
        <ele>140.49</ele>
        <time>2017-07-31T09:36:31Z</time>
      </trkpt>
      <trkpt lat="43.2320707105" lon="2.2314440086">
        <ele>140.49</ele>
        <time>2017-07-31T09:36:32Z</time>
      </trkpt>
      <trkpt lat="43.2320842892" lon="2.2314344533">
        <ele>140.01</ele>
        <time>2017-07-31T09:36:33Z</time>
      </trkpt>
      <trkpt lat="43.2320987899" lon="2.2314281669">
        <ele>140.49</ele>
        <time>2017-07-31T09:36:34Z</time>
      </trkpt>
      <trkpt lat="43.2321142126" lon="2.2314139176">
        <ele>141.93</ele>
        <time>2017-07-31T09:36:35Z</time>
      </trkpt>
      <trkpt lat="43.2321294677" lon="2.2313883528">
        <ele>142.89</ele>
        <time>2017-07-31T09:36:36Z</time>
      </trkpt>
      <trkpt lat="43.2321439683" lon="2.2313585132">
        <ele>141.93</ele>
        <time>2017-07-31T09:36:37Z</time>
      </trkpt>
      <trkpt lat="43.2321569603" lon="2.2313279193">
        <ele>140.97</ele>
        <time>2017-07-31T09:36:38Z</time>
      </trkpt>
      <trkpt lat="43.2321685273" lon="2.2312973253">
        <ele>140.49</ele>
        <time>2017-07-31T09:36:39Z</time>
      </trkpt>
      <trkpt lat="43.2321788371" lon="2.2312692460">
        <ele>140.01</ele>
        <time>2017-07-31T09:36:40Z</time>
      </trkpt>
      <trkpt lat="43.2323045656" lon="2.2308617178">
        <ele>139.53</ele>
        <time>2017-07-31T09:36:54Z</time>
      </trkpt>
      <trkpt lat="43.2325158734" lon="2.2305722907">
        <ele>139.05</ele>
        <time>2017-07-31T09:37:04Z</time>
      </trkpt>
      <trkpt lat="43.2328079827" lon="2.2303160559">
        <ele>139.05</ele>
        <time>2017-07-31T09:37:15Z</time>
      </trkpt>
      <trkpt lat="43.2329620421" lon="2.2300871462">
        <ele>140.01</ele>
        <time>2017-07-31T09:37:24Z</time>
      </trkpt>
      <trkpt lat="43.2330256607" lon="2.2300461587">
        <ele>140.01</ele>
        <time>2017-07-31T09:37:26Z</time>
      </trkpt>
      <trkpt lat="43.2330704201" lon="2.2300633416">
        <ele>139.53</ele>
        <time>2017-07-31T09:37:27Z</time>
      </trkpt>
      <trkpt lat="43.2331140060" lon="2.2301065084">
        <ele>139.05</ele>
        <time>2017-07-31T09:37:28Z</time>
      </trkpt>
      <trkpt lat="43.2331536524" lon="2.2301654331">
        <ele>138.57</ele>
        <time>2017-07-31T09:37:29Z</time>
      </trkpt>
      <trkpt lat="43.2331916224" lon="2.2302298062">
        <ele>138.09</ele>
        <time>2017-07-31T09:37:30Z</time>
      </trkpt>
      <trkpt lat="43.2336243801" lon="2.2310425993">
        <ele>136.64</ele>
        <time>2017-07-31T09:37:42Z</time>
      </trkpt>
      <trkpt lat="43.2336504478" lon="2.2311064694">
        <ele>137.13</ele>
        <time>2017-07-31T09:37:43Z</time>
      </trkpt>
      <trkpt lat="43.2336707320" lon="2.2311735246">
        <ele>137.61</ele>
        <time>2017-07-31T09:37:44Z</time>
      </trkpt>
      <trkpt lat="43.2337345183" lon="2.2313798033">
        <ele>136.16</ele>
        <time>2017-07-31T09:37:50Z</time>
      </trkpt>
      <trkpt lat="43.2337398827" lon="2.2314497922">
        <ele>136.16</ele>
        <time>2017-07-31T09:37:53Z</time>
      </trkpt>
      <trkpt lat="43.2337292377" lon="2.2314577550">
        <ele>136.16</ele>
        <time>2017-07-31T09:37:54Z</time>
      </trkpt>
      <trkpt lat="43.2337128092" lon="2.2313041147">
        <ele>136.16</ele>
        <time>2017-07-31T09:38:00Z</time>
      </trkpt>
      <trkpt lat="43.2336565666" lon="2.2312520631">
        <ele>138.09</ele>
        <time>2017-07-31T09:38:04Z</time>
      </trkpt>
      <trkpt lat="43.2336648647" lon="2.2313662246">
        <ele>136.64</ele>
        <time>2017-07-31T09:38:08Z</time>
      </trkpt>
      <trkpt lat="43.2336776052" lon="2.2318263073">
        <ele>137.13</ele>
        <time>2017-07-31T09:38:19Z</time>
      </trkpt>
      <trkpt lat="43.2336546388" lon="2.2320376150">
        <ele>137.13</ele>
        <time>2017-07-31T09:38:28Z</time>
      </trkpt>
      <trkpt lat="43.2336444128" lon="2.2320273053">
        <ele>136.64</ele>
        <time>2017-07-31T09:38:43Z</time>
      </trkpt>
      <trkpt lat="43.2336494420" lon="2.2320042551">
        <ele>136.64</ele>
        <time>2017-07-31T09:38:54Z</time>
      </trkpt>
      <trkpt lat="43.2336582430" lon="2.2319741640">
        <ele>136.16</ele>
        <time>2017-07-31T09:39:08Z</time>
      </trkpt>
      <trkpt lat="43.2336541358" lon="2.2320247069">
        <ele>136.64</ele>
        <time>2017-07-31T09:39:22Z</time>
      </trkpt>
      <trkpt lat="43.2336074486" lon="2.2322878148">
        <ele>136.16</ele>
        <time>2017-07-31T09:39:29Z</time>
      </trkpt>
      <trkpt lat="43.2334696501" lon="2.2326857038">
        <ele>135.68</ele>
        <time>2017-07-31T09:39:40Z</time>
      </trkpt>
      <trkpt lat="43.2333306782" lon="2.2329602111">
        <ele>135.68</ele>
        <time>2017-07-31T09:39:47Z</time>
      </trkpt>
      <trkpt lat="43.2331707515" lon="2.2331987601">
        <ele>136.16</ele>
        <time>2017-07-31T09:39:53Z</time>
      </trkpt>
      <trkpt lat="43.2328539155" lon="2.2334967367">
        <ele>136.16</ele>
        <time>2017-07-31T09:40:01Z</time>
      </trkpt>
      <trkpt lat="43.2327283546" lon="2.2335888539">
        <ele>136.16</ele>
        <time>2017-07-31T09:40:04Z</time>
      </trkpt>
      <trkpt lat="43.2323362492" lon="2.2339558974">
        <ele>136.16</ele>
        <time>2017-07-31T09:40:13Z</time>
      </trkpt>
      <trkpt lat="43.2323003747" lon="2.2339988966">
        <ele>137.13</ele>
        <time>2017-07-31T09:40:14Z</time>
      </trkpt>
      <trkpt lat="43.2319727261" lon="2.2344323248">
        <ele>136.16</ele>
        <time>2017-07-31T09:40:23Z</time>
      </trkpt>
      <trkpt lat="43.2317999750" lon="2.2346698679">
        <ele>136.16</ele>
        <time>2017-07-31T09:40:28Z</time>
      </trkpt>
      <trkpt lat="43.2316320855" lon="2.2349892184">
        <ele>135.68</ele>
        <time>2017-07-31T09:40:34Z</time>
      </trkpt>
      <trkpt lat="43.2314175088" lon="2.2354741953">
        <ele>135.68</ele>
        <time>2017-07-31T09:40:43Z</time>
      </trkpt>
      <trkpt lat="43.2313915249" lon="2.2355256602">
        <ele>135.20</ele>
        <time>2017-07-31T09:40:44Z</time>
      </trkpt>
      <trkpt lat="43.2311860844" lon="2.2359699849">
        <ele>135.68</ele>
        <time>2017-07-31T09:40:53Z</time>
      </trkpt>
      <trkpt lat="43.2311599329" lon="2.2360175941">
        <ele>135.68</ele>
        <time>2017-07-31T09:40:54Z</time>
      </trkpt>
      <trkpt lat="43.2308357209" lon="2.2366883978">
        <ele>135.68</ele>
        <time>2017-07-31T09:41:06Z</time>
      </trkpt>
      <trkpt lat="43.2305718586" lon="2.2371784039">
        <ele>136.16</ele>
        <time>2017-07-31T09:41:15Z</time>
      </trkpt>
      <trkpt lat="43.2305449527" lon="2.2372287791">
        <ele>135.68</ele>
        <time>2017-07-31T09:41:16Z</time>
      </trkpt>
      <trkpt lat="43.2303369138" lon="2.2375795618">
        <ele>136.16</ele>
        <time>2017-07-31T09:41:24Z</time>
      </trkpt>
      <trkpt lat="43.2301734667" lon="2.2378300969">
        <ele>136.64</ele>
        <time>2017-07-31T09:41:30Z</time>
      </trkpt>
      <trkpt lat="43.2301446330" lon="2.2378885187">
        <ele>136.64</ele>
        <time>2017-07-31T09:41:31Z</time>
      </trkpt>
      <trkpt lat="43.2300187368" lon="2.2381090466">
        <ele>136.16</ele>
        <time>2017-07-31T09:41:35Z</time>
      </trkpt>
      <trkpt lat="43.2299886458" lon="2.2381706536">
        <ele>136.16</ele>
        <time>2017-07-31T09:41:36Z</time>
      </trkpt>
      <trkpt lat="43.2299356721" lon="2.2382823005">
        <ele>136.16</ele>
        <time>2017-07-31T09:41:38Z</time>
      </trkpt>
      <trkpt lat="43.2297764160" lon="2.2385799419">
        <ele>136.16</ele>
        <time>2017-07-31T09:41:43Z</time>
      </trkpt>
      <trkpt lat="43.2297434751" lon="2.2386397049">
        <ele>136.16</ele>
        <time>2017-07-31T09:41:44Z</time>
      </trkpt>
      <trkpt lat="43.2295885775" lon="2.2389330715">
        <ele>136.16</ele>
        <time>2017-07-31T09:41:49Z</time>
      </trkpt>
      <trkpt lat="43.2294038404" lon="2.2393609677">
        <ele>136.64</ele>
        <time>2017-07-31T09:41:56Z</time>
      </trkpt>
      <trkpt lat="43.2293828856" lon="2.2394214850">
        <ele>136.16</ele>
        <time>2017-07-31T09:41:57Z</time>
      </trkpt>
      <trkpt lat="43.2293626852" lon="2.2394848522">
        <ele>136.16</ele>
        <time>2017-07-31T09:41:58Z</time>
      </trkpt>
      <trkpt lat="43.2292429917" lon="2.2399264108">
        <ele>136.16</ele>
        <time>2017-07-31T09:42:05Z</time>
      </trkpt>
      <trkpt lat="43.2292258088" lon="2.2400092240">
        <ele>136.16</ele>
        <time>2017-07-31T09:42:06Z</time>
      </trkpt>
      <trkpt lat="43.2292097155" lon="2.2401072923">
        <ele>136.16</ele>
        <time>2017-07-31T09:42:07Z</time>
      </trkpt>
      <trkpt lat="43.2291493658" lon="2.2405915987">
        <ele>136.16</ele>
        <time>2017-07-31T09:42:12Z</time>
      </trkpt>
      <trkpt lat="43.2291366253" lon="2.2406865656">
        <ele>136.16</ele>
        <time>2017-07-31T09:42:13Z</time>
      </trkpt>
      <trkpt lat="43.2291360386" lon="2.2407817841">
        <ele>136.16</ele>
        <time>2017-07-31T09:42:14Z</time>
      </trkpt>
      <trkpt lat="43.2291398942" lon="2.2408777568">
        <ele>136.64</ele>
        <time>2017-07-31T09:42:15Z</time>
      </trkpt>
      <trkpt lat="43.2291380502" lon="2.2409655992">
        <ele>136.16</ele>
        <time>2017-07-31T09:42:16Z</time>
      </trkpt>
      <trkpt lat="43.2291649561" lon="2.2414381709">
        <ele>136.64</ele>
        <time>2017-07-31T09:42:22Z</time>
      </trkpt>
      <trkpt lat="43.2291749306" lon="2.2415146139">
        <ele>136.64</ele>
        <time>2017-07-31T09:42:23Z</time>
      </trkpt>
      <trkpt lat="43.2292644493" lon="2.2422902752">
        <ele>136.64</ele>
        <time>2017-07-31T09:42:34Z</time>
      </trkpt>
      <trkpt lat="43.2293057721" lon="2.2425874136">
        <ele>136.16</ele>
        <time>2017-07-31T09:42:38Z</time>
      </trkpt>
      <trkpt lat="43.2293532975" lon="2.2431953531">
        <ele>136.64</ele>
        <time>2017-07-31T09:42:46Z</time>
      </trkpt>
      <trkpt lat="43.2293528784" lon="2.2432696167">
        <ele>136.64</ele>
        <time>2017-07-31T09:42:47Z</time>
      </trkpt>
      <trkpt lat="43.2293339353" lon="2.2437264305">
        <ele>137.13</ele>
        <time>2017-07-31T09:42:53Z</time>
      </trkpt>
      <trkpt lat="43.2292030100" lon="2.2444592603">
        <ele>136.64</ele>
        <time>2017-07-31T09:43:04Z</time>
      </trkpt>
      <trkpt lat="43.2291435823" lon="2.2447982244">
        <ele>137.13</ele>
        <time>2017-07-31T09:43:09Z</time>
      </trkpt>
      <trkpt lat="43.2291428279" lon="2.2448681295">
        <ele>137.13</ele>
        <time>2017-07-31T09:43:10Z</time>
      </trkpt>
      <trkpt lat="43.2291500363" lon="2.2450078558">
        <ele>137.13</ele>
        <time>2017-07-31T09:43:12Z</time>
      </trkpt>
      <trkpt lat="43.2291740086" lon="2.2451322433">
        <ele>137.61</ele>
        <time>2017-07-31T09:43:14Z</time>
      </trkpt>
      <trkpt lat="43.2291980647" lon="2.2451872285">
        <ele>137.13</ele>
        <time>2017-07-31T09:43:15Z</time>
      </trkpt>
      <trkpt lat="43.2292595040" lon="2.2452939302">
        <ele>137.13</ele>
        <time>2017-07-31T09:43:17Z</time>
      </trkpt>
      <trkpt lat="43.2292974740" lon="2.2453425452">
        <ele>136.64</ele>
        <time>2017-07-31T09:43:18Z</time>
      </trkpt>
      <trkpt lat="43.2293718215" lon="2.2454287950">
        <ele>136.64</ele>
        <time>2017-07-31T09:43:20Z</time>
      </trkpt>
      <trkpt lat="43.2294155750" lon="2.2454634123">
        <ele>136.16</ele>
        <time>2017-07-31T09:43:21Z</time>
      </trkpt>
      <trkpt lat="43.2295129728" lon="2.2455172241">
        <ele>136.64</ele>
        <time>2017-07-31T09:43:23Z</time>
      </trkpt>
      <trkpt lat="43.2295641862" lon="2.2455323115">
        <ele>136.64</ele>
        <time>2017-07-31T09:43:24Z</time>
      </trkpt>
      <trkpt lat="43.2296695467" lon="2.2455449682">
        <ele>136.64</ele>
        <time>2017-07-31T09:43:26Z</time>
      </trkpt>
      <trkpt lat="43.2297200896" lon="2.2455406096">
        <ele>136.64</ele>
        <time>2017-07-31T09:43:27Z</time>
      </trkpt>
      <trkpt lat="43.2298708800" lon="2.2455060761">
        <ele>136.16</ele>
        <time>2017-07-31T09:43:30Z</time>
      </trkpt>
      <trkpt lat="43.2299120352" lon="2.2454875521">
        <ele>136.16</ele>
        <time>2017-07-31T09:43:31Z</time>
      </trkpt>
      <trkpt lat="43.2300422899" lon="2.2454352491">
        <ele>136.16</ele>
        <time>2017-07-31T09:43:34Z</time>
      </trkpt>
      <trkpt lat="43.2305344753" lon="2.2451099474">
        <ele>136.64</ele>
        <time>2017-07-31T09:43:44Z</time>
      </trkpt>
      <trkpt lat="43.2308592740" lon="2.2448720690">
        <ele>136.16</ele>
        <time>2017-07-31T09:43:52Z</time>
      </trkpt>
      <trkpt lat="43.2308995910" lon="2.2448410559">
        <ele>136.16</ele>
        <time>2017-07-31T09:43:53Z</time>
      </trkpt>
      <trkpt lat="43.2311034389" lon="2.2446782794">
        <ele>137.13</ele>
        <time>2017-07-31T09:43:58Z</time>
      </trkpt>
      <trkpt lat="43.2312763575" lon="2.2445711587">
        <ele>136.16</ele>
        <time>2017-07-31T09:44:02Z</time>
      </trkpt>
      <trkpt lat="43.2313160039" lon="2.2445440851">
        <ele>136.16</ele>
        <time>2017-07-31T09:44:03Z</time>
      </trkpt>
      <trkpt lat="43.2313561533" lon="2.2445211187">
        <ele>135.68</ele>
        <time>2017-07-31T09:44:04Z</time>
      </trkpt>
      <trkpt lat="43.2313991524" lon="2.2445020080">
        <ele>136.16</ele>
        <time>2017-07-31T09:44:05Z</time>
      </trkpt>
      <trkpt lat="43.2314429898" lon="2.2444782034">
        <ele>135.68</ele>
        <time>2017-07-31T09:44:06Z</time>
      </trkpt>
      <trkpt lat="43.2314889226" lon="2.2444548178">
        <ele>135.68</ele>
        <time>2017-07-31T09:44:07Z</time>
      </trkpt>
      <trkpt lat="43.2315339334" lon="2.2444368806">
        <ele>135.68</ele>
        <time>2017-07-31T09:44:08Z</time>
      </trkpt>
      <trkpt lat="43.2315786090" lon="2.2444242239">
        <ele>135.68</ele>
        <time>2017-07-31T09:44:09Z</time>
      </trkpt>
      <trkpt lat="43.2319484185" lon="2.2443395667">
        <ele>136.16</ele>
        <time>2017-07-31T09:44:17Z</time>
      </trkpt>
      <trkpt lat="43.2321601454" lon="2.2442948073">
        <ele>135.68</ele>
        <time>2017-07-31T09:44:21Z</time>
      </trkpt>
      <trkpt lat="43.2326508220" lon="2.2441345453">
        <ele>135.20</ele>
        <time>2017-07-31T09:44:31Z</time>
      </trkpt>
      <trkpt lat="43.2326997723" lon="2.2441184521">
        <ele>140.97</ele>
        <time>2017-07-31T09:44:32Z</time>
      </trkpt>
      <trkpt lat="43.2327534165" lon="2.2440923005">
        <ele>136.64</ele>
        <time>2017-07-31T09:44:33Z</time>
      </trkpt>
      <trkpt lat="43.2328067254" lon="2.2440644726">
        <ele>136.16</ele>
        <time>2017-07-31T09:44:34Z</time>
      </trkpt>
      <trkpt lat="43.2329454459" lon="2.2440096550">
        <ele>134.72</ele>
        <time>2017-07-31T09:44:37Z</time>
      </trkpt>
      <trkpt lat="43.2329917140" lon="2.2439946514">
        <ele>138.57</ele>
        <time>2017-07-31T09:44:38Z</time>
      </trkpt>
      <trkpt lat="43.2330867648" lon="2.2439607047">
        <ele>136.16</ele>
        <time>2017-07-31T09:44:40Z</time>
      </trkpt>
      <trkpt lat="43.2331302669" lon="2.2439447790">
        <ele>136.16</ele>
        <time>2017-07-31T09:44:41Z</time>
      </trkpt>
      <trkpt lat="43.2331747748" lon="2.2439294402">
        <ele>136.16</ele>
        <time>2017-07-31T09:44:42Z</time>
      </trkpt>
      <trkpt lat="43.2332203723" lon="2.2439193819">
        <ele>136.16</ele>
        <time>2017-07-31T09:44:43Z</time>
      </trkpt>
      <trkpt lat="43.2332634553" lon="2.2439085692">
        <ele>136.16</ele>
        <time>2017-07-31T09:44:44Z</time>
      </trkpt>
      <trkpt lat="43.2336075325" lon="2.2438719403">
        <ele>134.72</ele>
        <time>2017-07-31T09:44:51Z</time>
      </trkpt>
      <trkpt lat="43.2336657029" lon="2.2438790649">
        <ele>135.20</ele>
        <time>2017-07-31T09:44:52Z</time>
      </trkpt>
      <trkpt lat="43.2338392921" lon="2.2439154424">
        <ele>136.64</ele>
        <time>2017-07-31T09:44:55Z</time>
      </trkpt>
      <trkpt lat="43.2341951877" lon="2.2441526502">
        <ele>136.16</ele>
        <time>2017-07-31T09:45:03Z</time>
      </trkpt>
      <trkpt lat="43.2342319842" lon="2.2441918775">
        <ele>135.68</ele>
        <time>2017-07-31T09:45:04Z</time>
      </trkpt>
      <trkpt lat="43.2344382629" lon="2.2444375511">
        <ele>135.68</ele>
        <time>2017-07-31T09:45:11Z</time>
      </trkpt>
      <trkpt lat="43.2346930727" lon="2.2449881583">
        <ele>136.16</ele>
        <time>2017-07-31T09:45:22Z</time>
      </trkpt>
      <trkpt lat="43.2347114291" lon="2.2450404614">
        <ele>136.16</ele>
        <time>2017-07-31T09:45:23Z</time>
      </trkpt>
      <trkpt lat="43.2347879559" lon="2.2453370970">
        <ele>137.13</ele>
        <time>2017-07-31T09:45:29Z</time>
      </trkpt>
      <trkpt lat="43.2348869462" lon="2.2456482332">
        <ele>135.68</ele>
        <time>2017-07-31T09:45:36Z</time>
      </trkpt>
      <trkpt lat="43.2350087352" lon="2.2459856048">
        <ele>133.76</ele>
        <time>2017-07-31T09:45:43Z</time>
      </trkpt>
      <trkpt lat="43.2350996789" lon="2.2463456076">
        <ele>133.76</ele>
        <time>2017-07-31T09:45:49Z</time>
      </trkpt>
      <trkpt lat="43.2351106592" lon="2.2464016825">
        <ele>133.76</ele>
        <time>2017-07-31T09:45:50Z</time>
      </trkpt>
      <trkpt lat="43.2352213841" lon="2.2468501143">
        <ele>133.28</ele>
        <time>2017-07-31T09:45:59Z</time>
      </trkpt>
      <trkpt lat="43.2353052869" lon="2.2472891584">
        <ele>132.80</ele>
        <time>2017-07-31T09:46:08Z</time>
      </trkpt>
      <trkpt lat="43.2353648823" lon="2.2477422841">
        <ele>133.28</ele>
        <time>2017-07-31T09:46:17Z</time>
      </trkpt>
      <trkpt lat="43.2354370505" lon="2.2482235730">
        <ele>132.80</ele>
        <time>2017-07-31T09:46:26Z</time>
      </trkpt>
      <trkpt lat="43.2354640402" lon="2.2484880220">
        <ele>133.28</ele>
        <time>2017-07-31T09:46:31Z</time>
      </trkpt>
      <trkpt lat="43.2355284970" lon="2.2492574807">
        <ele>133.76</ele>
        <time>2017-07-31T09:46:43Z</time>
      </trkpt>
      <trkpt lat="43.2355485298" lon="2.2498006281">
        <ele>133.28</ele>
        <time>2017-07-31T09:46:52Z</time>
      </trkpt>
      <trkpt lat="43.2355494518" lon="2.2498614807">
        <ele>133.28</ele>
        <time>2017-07-31T09:46:53Z</time>
      </trkpt>
      <trkpt lat="43.2355482783" lon="2.2499198187">
        <ele>133.28</ele>
        <time>2017-07-31T09:46:54Z</time>
      </trkpt>
      <trkpt lat="43.2355325203" lon="2.2502070665">
        <ele>133.76</ele>
        <time>2017-07-31T09:46:59Z</time>
      </trkpt>
      <trkpt lat="43.2355250604" lon="2.2502626386">
        <ele>133.76</ele>
        <time>2017-07-31T09:47:00Z</time>
      </trkpt>
      <trkpt lat="43.2354720868" lon="2.2506772075">
        <ele>133.76</ele>
        <time>2017-07-31T09:47:07Z</time>
      </trkpt>
      <trkpt lat="43.2354672253" lon="2.2507389821">
        <ele>133.76</ele>
        <time>2017-07-31T09:47:08Z</time>
      </trkpt>
      <trkpt lat="43.2354575861" lon="2.2508009244">
        <ele>133.76</ele>
        <time>2017-07-31T09:47:09Z</time>
      </trkpt>
      <trkpt lat="43.2354374696" lon="2.2509200312">
        <ele>133.76</ele>
        <time>2017-07-31T09:47:11Z</time>
      </trkpt>
      <trkpt lat="43.2354302611" lon="2.2509775311">
        <ele>133.76</ele>
        <time>2017-07-31T09:47:12Z</time>
      </trkpt>
      <trkpt lat="43.2354174368" lon="2.2510277387">
        <ele>133.76</ele>
        <time>2017-07-31T09:47:13Z</time>
      </trkpt>
      <trkpt lat="43.2354045287" lon="2.2510775272">
        <ele>133.76</ele>
        <time>2017-07-31T09:47:14Z</time>
      </trkpt>
      <trkpt lat="43.2353936322" lon="2.2511292435">
        <ele>133.28</ele>
        <time>2017-07-31T09:47:15Z</time>
      </trkpt>
      <trkpt lat="43.2353092264" lon="2.2516860534">
        <ele>133.76</ele>
        <time>2017-07-31T09:47:24Z</time>
      </trkpt>
      <trkpt lat="43.2353320252" lon="2.2522797436">
        <ele>133.76</ele>
        <time>2017-07-31T09:47:33Z</time>
      </trkpt>
      <trkpt lat="43.2353464421" lon="2.2523302864">
        <ele>133.76</ele>
        <time>2017-07-31T09:47:34Z</time>
      </trkpt>
      <trkpt lat="43.2353618648" lon="2.2523736209">
        <ele>133.76</ele>
        <time>2017-07-31T09:47:35Z</time>
      </trkpt>
      <trkpt lat="43.2356237993" lon="2.2526158579">
        <ele>133.28</ele>
        <time>2017-07-31T09:47:43Z</time>
      </trkpt>
      <trkpt lat="43.2357913535" lon="2.2526731063">
        <ele>135.20</ele>
        <time>2017-07-31T09:47:47Z</time>
      </trkpt>
      <trkpt lat="43.2358358614" lon="2.2526804823">
        <ele>133.28</ele>
        <time>2017-07-31T09:47:48Z</time>
      </trkpt>
      <trkpt lat="43.2362133823" lon="2.2527275048">
        <ele>134.72</ele>
        <time>2017-07-31T09:47:59Z</time>
      </trkpt>
      <trkpt lat="43.2363734767" lon="2.2526855115">
        <ele>136.64</ele>
        <time>2017-07-31T09:48:08Z</time>
      </trkpt>
      <trkpt lat="43.2365272846" lon="2.2526585218">
        <ele>136.16</ele>
        <time>2017-07-31T09:48:15Z</time>
      </trkpt>
      <trkpt lat="43.2365484908" lon="2.2526522353">
        <ele>135.20</ele>
        <time>2017-07-31T09:48:16Z</time>
      </trkpt>
      <trkpt lat="43.2365705352" lon="2.2526457813">
        <ele>135.20</ele>
        <time>2017-07-31T09:48:17Z</time>
      </trkpt>
      <trkpt lat="43.2368960883" lon="2.2525023669">
        <ele>133.76</ele>
        <time>2017-07-31T09:48:26Z</time>
      </trkpt>
      <trkpt lat="43.2369339745" lon="2.2524768859">
        <ele>132.80</ele>
        <time>2017-07-31T09:48:27Z</time>
      </trkpt>
      <trkpt lat="43.2370130997" lon="2.2524168715">
        <ele>132.80</ele>
        <time>2017-07-31T09:48:29Z</time>
      </trkpt>
      <trkpt lat="43.2371814921" lon="2.2522742115">
        <ele>133.28</ele>
        <time>2017-07-31T09:48:33Z</time>
      </trkpt>
      <trkpt lat="43.2372195460" lon="2.2522375826">
        <ele>133.28</ele>
        <time>2017-07-31T09:48:34Z</time>
      </trkpt>
      <trkpt lat="43.2372959889" lon="2.2521732096">
        <ele>133.28</ele>
        <time>2017-07-31T09:48:36Z</time>
      </trkpt>
      <trkpt lat="43.2374447677" lon="2.2520463914">
        <ele>132.80</ele>
        <time>2017-07-31T09:48:40Z</time>
      </trkpt>
      <trkpt lat="43.2374798041" lon="2.2520154621">
        <ele>132.80</ele>
        <time>2017-07-31T09:48:41Z</time>
      </trkpt>
      <trkpt lat="43.2375143375" lon="2.2519801743">
        <ele>132.80</ele>
        <time>2017-07-31T09:48:42Z</time>
      </trkpt>
      <trkpt lat="43.2377677225" lon="2.2517483309">
        <ele>132.32</ele>
        <time>2017-07-31T09:48:49Z</time>
      </trkpt>
      <trkpt lat="43.2378025074" lon="2.2517133784">
        <ele>132.32</ele>
        <time>2017-07-31T09:48:50Z</time>
      </trkpt>
      <trkpt lat="43.2379957940" lon="2.2515412141">
        <ele>132.80</ele>
        <time>2017-07-31T09:48:55Z</time>
      </trkpt>
      <trkpt lat="43.2380371168" lon="2.2515111230">
        <ele>132.80</ele>
        <time>2017-07-31T09:48:56Z</time>
      </trkpt>
      <trkpt lat="43.2380728237" lon="2.2514833789">
        <ele>132.80</ele>
        <time>2017-07-31T09:48:57Z</time>
      </trkpt>
      <trkpt lat="43.2381079439" lon="2.2514608316">
        <ele>133.76</ele>
        <time>2017-07-31T09:48:58Z</time>
      </trkpt>
      <trkpt lat="43.2381438185" lon="2.2514360212">
        <ele>133.76</ele>
        <time>2017-07-31T09:48:59Z</time>
      </trkpt>
      <trkpt lat="43.2381771784" lon="2.2514040023">
        <ele>133.28</ele>
        <time>2017-07-31T09:49:00Z</time>
      </trkpt>
      <trkpt lat="43.2382123824" lon="2.2513742466">
        <ele>132.80</ele>
        <time>2017-07-31T09:49:01Z</time>
      </trkpt>
      <trkpt lat="43.2382527832" lon="2.2513455804">
        <ele>132.32</ele>
        <time>2017-07-31T09:49:02Z</time>
      </trkpt>
      <trkpt lat="43.2383376081" lon="2.2512875777">
        <ele>131.84</ele>
        <time>2017-07-31T09:49:04Z</time>
      </trkpt>
      <trkpt lat="43.2383778412" lon="2.2512584087">
        <ele>131.84</ele>
        <time>2017-07-31T09:49:05Z</time>
      </trkpt>
      <trkpt lat="43.2384238578" lon="2.2512366995">
        <ele>131.84</ele>
        <time>2017-07-31T09:49:06Z</time>
      </trkpt>
      <trkpt lat="43.2384697068" lon="2.2512165830">
        <ele>131.84</ele>
        <time>2017-07-31T09:49:07Z</time>
      </trkpt>
      <trkpt lat="43.2385135442" lon="2.2511876654">
        <ele>131.84</ele>
        <time>2017-07-31T09:49:08Z</time>
      </trkpt>
      <trkpt lat="43.2389012072" lon="2.2509692330">
        <ele>132.32</ele>
        <time>2017-07-31T09:49:17Z</time>
      </trkpt>
      <trkpt lat="43.2389457151" lon="2.2509538941">
        <ele>132.32</ele>
        <time>2017-07-31T09:49:18Z</time>
      </trkpt>
      <trkpt lat="43.2389888819" lon="2.2509414051">
        <ele>132.32</ele>
        <time>2017-07-31T09:49:19Z</time>
      </trkpt>
      <trkpt lat="43.2390313782" lon="2.2509356216">
        <ele>132.32</ele>
        <time>2017-07-31T09:49:20Z</time>
      </trkpt>
      <trkpt lat="43.2390746288" lon="2.2509315144">
        <ele>132.32</ele>
        <time>2017-07-31T09:49:21Z</time>
      </trkpt>
      <trkpt lat="43.2391146943" lon="2.2509271558">
        <ele>132.32</ele>
        <time>2017-07-31T09:49:22Z</time>
      </trkpt>
      <trkpt lat="43.2391545922" lon="2.2509293351">
        <ele>132.32</ele>
        <time>2017-07-31T09:49:23Z</time>
      </trkpt>
      <trkpt lat="43.2391920593" lon="2.2509353701">
        <ele>132.32</ele>
        <time>2017-07-31T09:49:24Z</time>
      </trkpt>
      <trkpt lat="43.2392278500" lon="2.2509422433">
        <ele>132.80</ele>
        <time>2017-07-31T09:49:25Z</time>
      </trkpt>
      <trkpt lat="43.2395316940" lon="2.2511126474">
        <ele>132.32</ele>
        <time>2017-07-31T09:49:33Z</time>
      </trkpt>
      <trkpt lat="43.2397248968" lon="2.2514131386">
        <ele>131.84</ele>
        <time>2017-07-31T09:49:41Z</time>
      </trkpt>
      <trkpt lat="43.2397853304" lon="2.2515636776">
        <ele>131.36</ele>
        <time>2017-07-31T09:49:44Z</time>
      </trkpt>
      <trkpt lat="43.2397971489" lon="2.2516901605">
        <ele>131.84</ele>
        <time>2017-07-31T09:49:46Z</time>
      </trkpt>
      <trkpt lat="43.2397954725" lon="2.2517557908">
        <ele>131.84</ele>
        <time>2017-07-31T09:49:47Z</time>
      </trkpt>
      <trkpt lat="43.2397974003" lon="2.2518922482">
        <ele>132.32</ele>
        <time>2017-07-31T09:49:49Z</time>
      </trkpt>
      <trkpt lat="43.2397978194" lon="2.2519581299">
        <ele>132.32</ele>
        <time>2017-07-31T09:49:50Z</time>
      </trkpt>
      <trkpt lat="43.2397942990" lon="2.2521983553">
        <ele>132.32</ele>
        <time>2017-07-31T09:49:54Z</time>
      </trkpt>
      <trkpt lat="43.2397821452" lon="2.2526433505">
        <ele>132.32</ele>
        <time>2017-07-31T09:50:01Z</time>
      </trkpt>
      <trkpt lat="43.2397940475" lon="2.2527775448">
        <ele>132.32</ele>
        <time>2017-07-31T09:50:03Z</time>
      </trkpt>
      <trkpt lat="43.2398063689" lon="2.2528392356">
        <ele>132.32</ele>
        <time>2017-07-31T09:50:04Z</time>
      </trkpt>
      <trkpt lat="43.2398788724" lon="2.2530797124">
        <ele>132.32</ele>
        <time>2017-07-31T09:50:08Z</time>
      </trkpt>
      <trkpt lat="43.2398979831" lon="2.2531362064">
        <ele>131.84</ele>
        <time>2017-07-31T09:50:09Z</time>
      </trkpt>
      <trkpt lat="43.2399131544" lon="2.2531911917">
        <ele>131.84</ele>
        <time>2017-07-31T09:50:10Z</time>
      </trkpt>
      <trkpt lat="43.2399266493" lon="2.2532457579">
        <ele>131.84</ele>
        <time>2017-07-31T09:50:11Z</time>
      </trkpt>
      <trkpt lat="43.2399383839" lon="2.2532968875">
        <ele>131.84</ele>
        <time>2017-07-31T09:50:12Z</time>
      </trkpt>
      <trkpt lat="43.2399561536" lon="2.2533388808">
        <ele>131.36</ele>
        <time>2017-07-31T09:50:13Z</time>
      </trkpt>
      <trkpt lat="43.2399782818" lon="2.2533748392">
        <ele>131.84</ele>
        <time>2017-07-31T09:50:14Z</time>
      </trkpt>
      <trkpt lat="43.2402256317" lon="2.2536551300">
        <ele>130.88</ele>
        <time>2017-07-31T09:50:22Z</time>
      </trkpt>
      <trkpt lat="43.2405682839" lon="2.2538273782">
        <ele>130.88</ele>
        <time>2017-07-31T09:50:31Z</time>
      </trkpt>
      <trkpt lat="43.2406178210" lon="2.2538397834">
        <ele>130.88</ele>
        <time>2017-07-31T09:50:32Z</time>
      </trkpt>
      <trkpt lat="43.2407103572" lon="2.2538516019">
        <ele>131.36</ele>
        <time>2017-07-31T09:50:34Z</time>
      </trkpt>
      <trkpt lat="43.2408554479" lon="2.2538500931">
        <ele>130.88</ele>
        <time>2017-07-31T09:50:37Z</time>
      </trkpt>
      <trkpt lat="43.2408999559" lon="2.2538342513">
        <ele>130.88</ele>
        <time>2017-07-31T09:50:38Z</time>
      </trkpt>
      <trkpt lat="43.2409473136" lon="2.2538101953">
        <ele>130.88</ele>
        <time>2017-07-31T09:50:39Z</time>
      </trkpt>
      <trkpt lat="43.2409950905" lon="2.2537780926">
        <ele>130.88</ele>
        <time>2017-07-31T09:50:40Z</time>
      </trkpt>
      <trkpt lat="43.2410354074" lon="2.2537372727">
        <ele>131.36</ele>
        <time>2017-07-31T09:50:41Z</time>
      </trkpt>
      <trkpt lat="43.2410686836" lon="2.2536908370">
        <ele>131.36</ele>
        <time>2017-07-31T09:50:42Z</time>
      </trkpt>
      <trkpt lat="43.2410998642" lon="2.2536415514">
        <ele>131.36</ele>
        <time>2017-07-31T09:50:43Z</time>
      </trkpt>
      <trkpt lat="43.2411227468" lon="2.2535864823">
        <ele>130.88</ele>
        <time>2017-07-31T09:50:44Z</time>
      </trkpt>
      <trkpt lat="43.2411436178" lon="2.2535287309">
        <ele>131.36</ele>
        <time>2017-07-31T09:50:45Z</time>
      </trkpt>
      <trkpt lat="43.2412069850" lon="2.2533477657">
        <ele>131.36</ele>
        <time>2017-07-31T09:50:48Z</time>
      </trkpt>
      <trkpt lat="43.2412767224" lon="2.2531735897">
        <ele>131.36</ele>
        <time>2017-07-31T09:50:51Z</time>
      </trkpt>
      <trkpt lat="43.2413002755" lon="2.2531154193">
        <ele>131.36</ele>
        <time>2017-07-31T09:50:52Z</time>
      </trkpt>
      <trkpt lat="43.2413602062" lon="2.2529342864">
        <ele>131.84</ele>
        <time>2017-07-31T09:50:55Z</time>
      </trkpt>
      <trkpt lat="43.2413798198" lon="2.2528740205">
        <ele>131.84</ele>
        <time>2017-07-31T09:50:56Z</time>
      </trkpt>
      <trkpt lat="43.2414850127" lon="2.2525944840">
        <ele>131.84</ele>
        <time>2017-07-31T09:51:01Z</time>
      </trkpt>
      <trkpt lat="43.2414902933" lon="2.2525460366">
        <ele>131.84</ele>
        <time>2017-07-31T09:51:02Z</time>
      </trkpt>
      <trkpt lat="43.2414879464" lon="2.2525056358">
        <ele>132.32</ele>
        <time>2017-07-31T09:51:03Z</time>
      </trkpt>
      <trkpt lat="43.2414918020" lon="2.2524643131">
        <ele>132.80</ele>
        <time>2017-07-31T09:51:04Z</time>
      </trkpt>
      <trkpt lat="43.2415035367" lon="2.2524265945">
        <ele>133.28</ele>
        <time>2017-07-31T09:51:05Z</time>
      </trkpt>
      <trkpt lat="43.2415192947" lon="2.2523903009">
        <ele>133.28</ele>
        <time>2017-07-31T09:51:06Z</time>
      </trkpt>
      <trkpt lat="43.2417648844" lon="2.2520749737">
        <ele>133.76</ele>
        <time>2017-07-31T09:51:15Z</time>
      </trkpt>
      <trkpt lat="43.2420403138" lon="2.2519624885">
        <ele>134.24</ele>
        <time>2017-07-31T09:51:23Z</time>
      </trkpt>
      <trkpt lat="43.2422886696" lon="2.2520214971">
        <ele>136.16</ele>
        <time>2017-07-31T09:51:31Z</time>
      </trkpt>
      <trkpt lat="43.2424884103" lon="2.2522924002">
        <ele>135.20</ele>
        <time>2017-07-31T09:51:39Z</time>
      </trkpt>
      <trkpt lat="43.2425050903" lon="2.2523456253">
        <ele>134.72</ele>
        <time>2017-07-31T09:51:40Z</time>
      </trkpt>
      <trkpt lat="43.2425149810" lon="2.2524022032">
        <ele>134.24</ele>
        <time>2017-07-31T09:51:41Z</time>
      </trkpt>
      <trkpt lat="43.2425217703" lon="2.2524625529">
        <ele>134.24</ele>
        <time>2017-07-31T09:51:42Z</time>
      </trkpt>
      <trkpt lat="43.2425273862" lon="2.2525245789">
        <ele>134.24</ele>
        <time>2017-07-31T09:51:43Z</time>
      </trkpt>
      <trkpt lat="43.2425336726" lon="2.2526555881">
        <ele>133.76</ele>
        <time>2017-07-31T09:51:45Z</time>
      </trkpt>
      <trkpt lat="43.2425286435" lon="2.2527896147">
        <ele>133.76</ele>
        <time>2017-07-31T09:51:47Z</time>
      </trkpt>
      <trkpt lat="43.2425002288" lon="2.2529825661">
        <ele>133.28</ele>
        <time>2017-07-31T09:51:50Z</time>
      </trkpt>
      <trkpt lat="43.2424966246" lon="2.2530492023">
        <ele>133.76</ele>
        <time>2017-07-31T09:51:51Z</time>
      </trkpt>
      <trkpt lat="43.2424912602" lon="2.2531786188">
        <ele>132.80</ele>
        <time>2017-07-31T09:51:53Z</time>
      </trkpt>
      <trkpt lat="43.2424856443" lon="2.2532390524">
        <ele>132.80</ele>
        <time>2017-07-31T09:51:54Z</time>
      </trkpt>
      <trkpt lat="43.2424783520" lon="2.2533020005">
        <ele>132.80</ele>
        <time>2017-07-31T09:51:55Z</time>
      </trkpt>
      <trkpt lat="43.2424680423" lon="2.2533683851">
        <ele>133.28</ele>
        <time>2017-07-31T09:51:56Z</time>
      </trkpt>
      <trkpt lat="43.2424604986" lon="2.2534355242">
        <ele>133.28</ele>
        <time>2017-07-31T09:51:57Z</time>
      </trkpt>
      <trkpt lat="43.2424417231" lon="2.2535663657">
        <ele>132.80</ele>
        <time>2017-07-31T09:51:59Z</time>
      </trkpt>
      <trkpt lat="43.2424189243" lon="2.2536760848">
        <ele>132.80</ele>
        <time>2017-07-31T09:52:01Z</time>
      </trkpt>
      <trkpt lat="43.2424102910" lon="2.2537317406">
        <ele>132.32</ele>
        <time>2017-07-31T09:52:02Z</time>
      </trkpt>
      <trkpt lat="43.2423936948" lon="2.2538417112">
        <ele>131.84</ele>
        <time>2017-07-31T09:52:04Z</time>
      </trkpt>
      <trkpt lat="43.2424080279" lon="2.2538970318">
        <ele>131.84</ele>
        <time>2017-07-31T09:52:05Z</time>
      </trkpt>
      <trkpt lat="43.2424247917" lon="2.2539506759">
        <ele>131.36</ele>
        <time>2017-07-31T09:52:06Z</time>
      </trkpt>
      <trkpt lat="43.2424540445" lon="2.2540464811">
        <ele>131.36</ele>
        <time>2017-07-31T09:52:08Z</time>
      </trkpt>
      <trkpt lat="43.2424763404" lon="2.2540974431">
        <ele>131.36</ele>
        <time>2017-07-31T09:52:09Z</time>
      </trkpt>
      <trkpt lat="43.2425045874" lon="2.2541510873">
        <ele>131.36</ele>
        <time>2017-07-31T09:52:10Z</time>
      </trkpt>
      <trkpt lat="43.2425650209" lon="2.2542535979">
        <ele>131.84</ele>
        <time>2017-07-31T09:52:12Z</time>
      </trkpt>
      <trkpt lat="43.2425987162" lon="2.2543045599">
        <ele>131.84</ele>
        <time>2017-07-31T09:52:13Z</time>
      </trkpt>
      <trkpt lat="43.2428276259" lon="2.2546704300">
        <ele>131.84</ele>
        <time>2017-07-31T09:52:20Z</time>
      </trkpt>
      <trkpt lat="43.2428774145" lon="2.2547785565">
        <ele>131.36</ele>
        <time>2017-07-31T09:52:22Z</time>
      </trkpt>
      <trkpt lat="43.2429494150" lon="2.2550211288">
        <ele>131.84</ele>
        <time>2017-07-31T09:52:26Z</time>
      </trkpt>
      <trkpt lat="43.2430172246" lon="2.2556544654">
        <ele>131.84</ele>
        <time>2017-07-31T09:52:36Z</time>
      </trkpt>
      <trkpt lat="43.2430400234" lon="2.2562466469">
        <ele>131.36</ele>
        <time>2017-07-31T09:52:45Z</time>
      </trkpt>
      <trkpt lat="43.2430351619" lon="2.2566136904">
        <ele>131.84</ele>
        <time>2017-07-31T09:52:51Z</time>
      </trkpt>
      <trkpt lat="43.2430189010" lon="2.2571347095">
        <ele>131.84</ele>
        <time>2017-07-31T09:52:59Z</time>
      </trkpt>
      <trkpt lat="43.2429987844" lon="2.2573219612">
        <ele>131.84</ele>
        <time>2017-07-31T09:53:02Z</time>
      </trkpt>
      <trkpt lat="43.2429911569" lon="2.2573812213">
        <ele>131.36</ele>
        <time>2017-07-31T09:53:03Z</time>
      </trkpt>
      <trkpt lat="43.2429830264" lon="2.2574399784">
        <ele>131.36</ele>
        <time>2017-07-31T09:53:04Z</time>
      </trkpt>
      <trkpt lat="43.2429771591" lon="2.2574931197">
        <ele>131.36</ele>
        <time>2017-07-31T09:53:05Z</time>
      </trkpt>
      <trkpt lat="43.2429715432" lon="2.2575477697">
        <ele>130.88</ele>
        <time>2017-07-31T09:53:06Z</time>
      </trkpt>
      <trkpt lat="43.2429620717" lon="2.2576044314">
        <ele>131.36</ele>
        <time>2017-07-31T09:53:07Z</time>
      </trkpt>
      <trkpt lat="43.2428939268" lon="2.2579245362">
        <ele>131.36</ele>
        <time>2017-07-31T09:53:14Z</time>
      </trkpt>
      <trkpt lat="43.2428783365" lon="2.2579787672">
        <ele>131.84</ele>
        <time>2017-07-31T09:53:15Z</time>
      </trkpt>
      <trkpt lat="43.2427751552" lon="2.2584113572">
        <ele>131.84</ele>
        <time>2017-07-31T09:53:24Z</time>
      </trkpt>
      <trkpt lat="43.2427029870" lon="2.2586675081">
        <ele>131.36</ele>
        <time>2017-07-31T09:53:30Z</time>
      </trkpt>
      <trkpt lat="43.2426215149" lon="2.2589892056">
        <ele>130.40</ele>
        <time>2017-07-31T09:53:35Z</time>
      </trkpt>
      <trkpt lat="43.2426039129" lon="2.2590536624">
        <ele>130.88</ele>
        <time>2017-07-31T09:53:36Z</time>
      </trkpt>
      <trkpt lat="43.2425231952" lon="2.2593623679">
        <ele>130.88</ele>
        <time>2017-07-31T09:53:41Z</time>
      </trkpt>
      <trkpt lat="43.2425062638" lon="2.2594279982">
        <ele>130.88</ele>
        <time>2017-07-31T09:53:42Z</time>
      </trkpt>
      <trkpt lat="43.2424879074" lon="2.2594892699">
        <ele>130.88</ele>
        <time>2017-07-31T09:53:43Z</time>
      </trkpt>
      <trkpt lat="43.2424691319" lon="2.2595434170">
        <ele>130.88</ele>
        <time>2017-07-31T09:53:44Z</time>
      </trkpt>
      <trkpt lat="43.2424540445" lon="2.2595850751">
        <ele>130.88</ele>
        <time>2017-07-31T09:53:45Z</time>
      </trkpt>
      <trkpt lat="43.2424370293" lon="2.2596340254">
        <ele>130.88</ele>
        <time>2017-07-31T09:53:46Z</time>
      </trkpt>
      <trkpt lat="43.2424202655" lon="2.2596694808">
        <ele>130.40</ele>
        <time>2017-07-31T09:53:47Z</time>
      </trkpt>
      <trkpt lat="43.2423990592" lon="2.2597225383">
        <ele>130.40</ele>
        <time>2017-07-31T09:53:48Z</time>
      </trkpt>
      <trkpt lat="43.2423754223" lon="2.2597911023">
        <ele>130.40</ele>
        <time>2017-07-31T09:53:49Z</time>
      </trkpt>
      <trkpt lat="43.2423533779" lon="2.2598714009">
        <ele>130.40</ele>
        <time>2017-07-31T09:53:50Z</time>
      </trkpt>
      <trkpt lat="43.2422295772" lon="2.2602284700">
        <ele>130.88</ele>
        <time>2017-07-31T09:53:55Z</time>
      </trkpt>
      <trkpt lat="43.2421989832" lon="2.2603088524">
        <ele>130.88</ele>
        <time>2017-07-31T09:53:56Z</time>
      </trkpt>
      <trkpt lat="43.2420457620" lon="2.2607279476">
        <ele>129.43</ele>
        <time>2017-07-31T09:54:02Z</time>
      </trkpt>
      <trkpt lat="43.2419510465" lon="2.2609194741">
        <ele>129.92</ele>
        <time>2017-07-31T09:54:07Z</time>
      </trkpt>
      <trkpt lat="43.2419238053" lon="2.2609877028">
        <ele>129.92</ele>
        <time>2017-07-31T09:54:08Z</time>
      </trkpt>
      <trkpt lat="43.2418419141" lon="2.2612344660">
        <ele>130.88</ele>
        <time>2017-07-31T09:54:12Z</time>
      </trkpt>
      <trkpt lat="43.2417816482" lon="2.2615945525">
        <ele>131.36</ele>
        <time>2017-07-31T09:54:18Z</time>
      </trkpt>
      <trkpt lat="43.2417700812" lon="2.2617296688">
        <ele>131.84</ele>
        <time>2017-07-31T09:54:20Z</time>
      </trkpt>
      <trkpt lat="43.2417655550" lon="2.2618089616">
        <ele>131.36</ele>
        <time>2017-07-31T09:54:21Z</time>
      </trkpt>
      <trkpt lat="43.2417634595" lon="2.2618932836">
        <ele>131.36</ele>
        <time>2017-07-31T09:54:22Z</time>
      </trkpt>
      <trkpt lat="43.2417969033" lon="2.2622506879">
        <ele>130.40</ele>
        <time>2017-07-31T09:54:27Z</time>
      </trkpt>
      <trkpt lat="43.2418134995" lon="2.2623143904">
        <ele>130.40</ele>
        <time>2017-07-31T09:54:28Z</time>
      </trkpt>
      <trkpt lat="43.2418776210" lon="2.2625521012">
        <ele>129.92</ele>
        <time>2017-07-31T09:54:32Z</time>
      </trkpt>
      <trkpt lat="43.2418964803" lon="2.2626109421">
        <ele>129.92</ele>
        <time>2017-07-31T09:54:33Z</time>
      </trkpt>
      <trkpt lat="43.2419276610" lon="2.2627325635">
        <ele>130.40</ele>
        <time>2017-07-31T09:54:35Z</time>
      </trkpt>
      <trkpt lat="43.2419411559" lon="2.2627966013">
        <ele>130.40</ele>
        <time>2017-07-31T09:54:36Z</time>
      </trkpt>
      <trkpt lat="43.2419580035" lon="2.2628551070">
        <ele>130.40</ele>
        <time>2017-07-31T09:54:37Z</time>
      </trkpt>
      <trkpt lat="43.2420893479" lon="2.2632881999">
        <ele>128.47</ele>
        <time>2017-07-31T09:54:45Z</time>
      </trkpt>
      <trkpt lat="43.2421065308" lon="2.2633356415">
        <ele>132.80</ele>
        <time>2017-07-31T09:54:46Z</time>
      </trkpt>
      <trkpt lat="43.2422368694" lon="2.2637599334">
        <ele>130.40</ele>
        <time>2017-07-31T09:54:55Z</time>
      </trkpt>
      <trkpt lat="43.2422571536" lon="2.2638246417">
        <ele>131.36</ele>
        <time>2017-07-31T09:54:57Z</time>
      </trkpt>
      <trkpt lat="43.2422549743" lon="2.2638538107">
        <ele>130.88</ele>
        <time>2017-07-31T09:54:58Z</time>
      </trkpt>
      <trkpt lat="43.2422511186" lon="2.2639176808">
        <ele>130.40</ele>
        <time>2017-07-31T09:55:00Z</time>
      </trkpt>
      <trkpt lat="43.2422799524" lon="2.2640114743">
        <ele>130.88</ele>
        <time>2017-07-31T09:55:04Z</time>
      </trkpt>
      <trkpt lat="43.2422960456" lon="2.2640270647">
        <ele>130.88</ele>
        <time>2017-07-31T09:55:05Z</time>
      </trkpt>
      <trkpt lat="43.2423294894" lon="2.2640523780">
        <ele>129.92</ele>
        <time>2017-07-31T09:55:12Z</time>
      </trkpt>
      <trkpt lat="43.2423421461" lon="2.2640700638">
        <ele>129.92</ele>
        <time>2017-07-31T09:55:13Z</time>
      </trkpt>
      <trkpt lat="43.2423502766" lon="2.2640945390">
        <ele>130.40</ele>
        <time>2017-07-31T09:55:14Z</time>
      </trkpt>
      <trkpt lat="43.2424431480" lon="2.2644825373">
        <ele>131.36</ele>
        <time>2017-07-31T09:55:24Z</time>
      </trkpt>
      <trkpt lat="43.2425252069" lon="2.2648788337">
        <ele>130.40</ele>
        <time>2017-07-31T09:55:32Z</time>
      </trkpt>
      <trkpt lat="43.2425828744" lon="2.2652074881">
        <ele>130.88</ele>
        <time>2017-07-31T09:55:38Z</time>
      </trkpt>
      <trkpt lat="43.2425936870" lon="2.2652623057">
        <ele>130.40</ele>
        <time>2017-07-31T09:55:39Z</time>
      </trkpt>
      <trkpt lat="43.2426025718" lon="2.2653233260">
        <ele>130.40</ele>
        <time>2017-07-31T09:55:40Z</time>
      </trkpt>
      <trkpt lat="43.2426112890" lon="2.2653834242">
        <ele>130.40</ele>
        <time>2017-07-31T09:55:41Z</time>
      </trkpt>
      <trkpt lat="43.2426203415" lon="2.2654401697">
        <ele>130.40</ele>
        <time>2017-07-31T09:55:42Z</time>
      </trkpt>
      <trkpt lat="43.2426295616" lon="2.2654982563">
        <ele>130.40</ele>
        <time>2017-07-31T09:55:43Z</time>
      </trkpt>
      <trkpt lat="43.2426401228" lon="2.2655565944">
        <ele>130.40</ele>
        <time>2017-07-31T09:55:44Z</time>
      </trkpt>
      <trkpt lat="43.2427661028" lon="2.2659925371">
        <ele>130.40</ele>
        <time>2017-07-31T09:55:52Z</time>
      </trkpt>
      <trkpt lat="43.2427878119" lon="2.2660455108">
        <ele>129.92</ele>
        <time>2017-07-31T09:55:53Z</time>
      </trkpt>
      <trkpt lat="43.2428034861" lon="2.2660912760">
        <ele>129.92</ele>
        <time>2017-07-31T09:55:54Z</time>
      </trkpt>
      <trkpt lat="43.2428201661" lon="2.2661358677">
        <ele>130.40</ele>
        <time>2017-07-31T09:55:55Z</time>
      </trkpt>
      <trkpt lat="43.2428407017" lon="2.2661818005">
        <ele>130.40</ele>
        <time>2017-07-31T09:55:56Z</time>
      </trkpt>
      <trkpt lat="43.2430114411" lon="2.2664677911">
        <ele>129.92</ele>
        <time>2017-07-31T09:56:03Z</time>
      </trkpt>
      <trkpt lat="43.2430442981" lon="2.2665015701">
        <ele>129.92</ele>
        <time>2017-07-31T09:56:04Z</time>
      </trkpt>
      <trkpt lat="43.2430753112" lon="2.2665350139">
        <ele>129.92</ele>
        <time>2017-07-31T09:56:05Z</time>
      </trkpt>
      <trkpt lat="43.2431090064" lon="2.2665699665">
        <ele>129.92</ele>
        <time>2017-07-31T09:56:06Z</time>
      </trkpt>
      <trkpt lat="43.2431425340" lon="2.2666025721">
        <ele>129.92</ele>
        <time>2017-07-31T09:56:07Z</time>
      </trkpt>
      <trkpt lat="43.2433618885" lon="2.2666360158">
        <ele>129.43</ele>
        <time>2017-07-31T09:56:14Z</time>
      </trkpt>
      <trkpt lat="43.2436787244" lon="2.2664145660">
        <ele>129.92</ele>
        <time>2017-07-31T09:56:24Z</time>
      </trkpt>
      <trkpt lat="43.2440234721" lon="2.2661014181">
        <ele>129.92</ele>
        <time>2017-07-31T09:56:34Z</time>
      </trkpt>
      <trkpt lat="43.2442424912" lon="2.2658138350">
        <ele>130.88</ele>
        <time>2017-07-31T09:56:42Z</time>
      </trkpt>
      <trkpt lat="43.2445214409" lon="2.2655873559">
        <ele>131.36</ele>
        <time>2017-07-31T09:56:50Z</time>
      </trkpt>
      <trkpt lat="43.2448057551" lon="2.2656541597">
        <ele>131.84</ele>
        <time>2017-07-31T09:56:58Z</time>
      </trkpt>
      <trkpt lat="43.2448417135" lon="2.2656867653">
        <ele>131.84</ele>
        <time>2017-07-31T09:56:59Z</time>
      </trkpt>
      <trkpt lat="43.2448767498" lon="2.2657230590">
        <ele>132.32</ele>
        <time>2017-07-31T09:57:00Z</time>
      </trkpt>
      <trkpt lat="43.2449091040" lon="2.2657627054">
        <ele>131.84</ele>
        <time>2017-07-31T09:57:01Z</time>
      </trkpt>
      <trkpt lat="43.2449408714" lon="2.2658025194">
        <ele>131.84</ele>
        <time>2017-07-31T09:57:02Z</time>
      </trkpt>
      <trkpt lat="43.2449686155" lon="2.2658482008">
        <ele>131.36</ele>
        <time>2017-07-31T09:57:03Z</time>
      </trkpt>
      <trkpt lat="43.2449895702" lon="2.2658994980">
        <ele>131.36</ele>
        <time>2017-07-31T09:57:04Z</time>
      </trkpt>
      <trkpt lat="43.2450022269" lon="2.2659605183">
        <ele>131.36</ele>
        <time>2017-07-31T09:57:05Z</time>
      </trkpt>
      <trkpt lat="43.2450168114" lon="2.2660214547">
        <ele>131.36</ele>
        <time>2017-07-31T09:57:06Z</time>
      </trkpt>
      <trkpt lat="43.2450257801" lon="2.2660801280">
        <ele>130.88</ele>
        <time>2017-07-31T09:57:07Z</time>
      </trkpt>
      <trkpt lat="43.2450262830" lon="2.2661386337">
        <ele>131.36</ele>
        <time>2017-07-31T09:57:08Z</time>
      </trkpt>
      <trkpt lat="43.2450196613" lon="2.2662046831">
        <ele>131.36</ele>
        <time>2017-07-31T09:57:09Z</time>
      </trkpt>
      <trkpt lat="43.2450017240" lon="2.2663710639">
        <ele>131.36</ele>
        <time>2017-07-31T09:57:12Z</time>
      </trkpt>
      <trkpt lat="43.2449525222" lon="2.2667645942">
        <ele>130.88</ele>
        <time>2017-07-31T09:57:18Z</time>
      </trkpt>
      <trkpt lat="43.2449422963" lon="2.2668310627">
        <ele>130.88</ele>
        <time>2017-07-31T09:57:19Z</time>
      </trkpt>
      <trkpt lat="43.2449370995" lon="2.2668914124">
        <ele>130.88</ele>
        <time>2017-07-31T09:57:20Z</time>
      </trkpt>
      <trkpt lat="43.2449312322" lon="2.2669520136">
        <ele>130.88</ele>
        <time>2017-07-31T09:57:21Z</time>
      </trkpt>
      <trkpt lat="43.2449250296" lon="2.2670108546">
        <ele>130.88</ele>
        <time>2017-07-31T09:57:22Z</time>
      </trkpt>
      <trkpt lat="43.2449172344" lon="2.2670579609">
        <ele>130.88</ele>
        <time>2017-07-31T09:57:23Z</time>
      </trkpt>
      <trkpt lat="43.2449096907" lon="2.2671055701">
        <ele>131.36</ele>
        <time>2017-07-31T09:57:24Z</time>
      </trkpt>
      <trkpt lat="43.2449077629" lon="2.2671494074">
        <ele>131.36</ele>
        <time>2017-07-31T09:57:25Z</time>
      </trkpt>
      <trkpt lat="43.2448927592" lon="2.2673033830">
        <ele>130.88</ele>
        <time>2017-07-31T09:57:29Z</time>
      </trkpt>
      <trkpt lat="43.2448271289" lon="2.2675431054">
        <ele>130.40</ele>
        <time>2017-07-31T09:57:35Z</time>
      </trkpt>
      <trkpt lat="43.2448253687" lon="2.2675882839">
        <ele>129.92</ele>
        <time>2017-07-31T09:57:36Z</time>
      </trkpt>
      <trkpt lat="43.2448196691" lon="2.2676355578">
        <ele>129.92</ele>
        <time>2017-07-31T09:57:37Z</time>
      </trkpt>
      <trkpt lat="43.2448107842" lon="2.2676905431">
        <ele>130.40</ele>
        <time>2017-07-31T09:57:38Z</time>
      </trkpt>
      <trkpt lat="43.2448063418" lon="2.2677544132">
        <ele>130.40</ele>
        <time>2017-07-31T09:57:39Z</time>
      </trkpt>
      <trkpt lat="43.2447485905" lon="2.2681480274">
        <ele>130.40</ele>
        <time>2017-07-31T09:57:46Z</time>
      </trkpt>
      <trkpt lat="43.2447283063" lon="2.2685645241">
        <ele>130.40</ele>
        <time>2017-07-31T09:57:53Z</time>
      </trkpt>
      <trkpt lat="43.2447352633" lon="2.2686918452">
        <ele>130.88</ele>
        <time>2017-07-31T09:57:55Z</time>
      </trkpt>
      <trkpt lat="43.2447354309" lon="2.2688046657">
        <ele>130.88</ele>
        <time>2017-07-31T09:57:56Z</time>
      </trkpt>
      <trkpt lat="43.2447355147" lon="2.2689817753">
        <ele>130.88</ele>
        <time>2017-07-31T09:57:58Z</time>
      </trkpt>
      <trkpt lat="43.2447436452" lon="2.2690629959">
        <ele>130.88</ele>
        <time>2017-07-31T09:57:59Z</time>
      </trkpt>
      <trkpt lat="43.2447679527" lon="2.2692715377">
        <ele>130.88</ele>
        <time>2017-07-31T09:58:02Z</time>
      </trkpt>
      <trkpt lat="43.2447749097" lon="2.2693367489">
        <ele>130.88</ele>
        <time>2017-07-31T09:58:03Z</time>
      </trkpt>
      <trkpt lat="43.2447868120" lon="2.2693982720">
        <ele>130.88</ele>
        <time>2017-07-31T09:58:04Z</time>
      </trkpt>
      <trkpt lat="43.2448121253" lon="2.2695239168">
        <ele>130.88</ele>
        <time>2017-07-31T09:58:06Z</time>
      </trkpt>
      <trkpt lat="43.2448391151" lon="2.2698251624">
        <ele>130.88</ele>
        <time>2017-07-31T09:58:11Z</time>
      </trkpt>
      <trkpt lat="43.2448518556" lon="2.2698868532">
        <ele>130.88</ele>
        <time>2017-07-31T09:58:12Z</time>
      </trkpt>
      <trkpt lat="43.2448820304" lon="2.2701322753">
        <ele>131.84</ele>
        <time>2017-07-31T09:58:16Z</time>
      </trkpt>
      <trkpt lat="43.2448885683" lon="2.2701922897">
        <ele>130.88</ele>
        <time>2017-07-31T09:58:17Z</time>
      </trkpt>
      <trkpt lat="43.2448905800" lon="2.2702556569">
        <ele>131.36</ele>
        <time>2017-07-31T09:58:18Z</time>
      </trkpt>
      <trkpt lat="43.2448600698" lon="2.2707980499">
        <ele>130.88</ele>
        <time>2017-07-31T09:58:28Z</time>
      </trkpt>
      <trkpt lat="43.2447551284" lon="2.2712283768">
        <ele>130.88</ele>
        <time>2017-07-31T09:58:36Z</time>
      </trkpt>
      <trkpt lat="43.2446217723" lon="2.2718036268">
        <ele>130.40</ele>
        <time>2017-07-31T09:58:46Z</time>
      </trkpt>
      <trkpt lat="43.2445786055" lon="2.2720091511">
        <ele>130.40</ele>
        <time>2017-07-31T09:58:49Z</time>
      </trkpt>
      <trkpt lat="43.2444705628" lon="2.2725829761">
        <ele>129.92</ele>
        <time>2017-07-31T09:58:59Z</time>
      </trkpt>
      <trkpt lat="43.2444247976" lon="2.2729317471">
        <ele>130.40</ele>
        <time>2017-07-31T09:59:08Z</time>
      </trkpt>
      <trkpt lat="43.2443943713" lon="2.2733246908">
        <ele>130.40</ele>
        <time>2017-07-31T09:59:17Z</time>
      </trkpt>
      <trkpt lat="43.2443852350" lon="2.2734336555">
        <ele>130.40</ele>
        <time>2017-07-31T09:59:19Z</time>
      </trkpt>
      <trkpt lat="43.2443811279" lon="2.2734898981">
        <ele>130.40</ele>
        <time>2017-07-31T09:59:20Z</time>
      </trkpt>
      <trkpt lat="43.2443777751" lon="2.2735447995">
        <ele>130.40</ele>
        <time>2017-07-31T09:59:21Z</time>
      </trkpt>
      <trkpt lat="43.2443666272" lon="2.2737108450">
        <ele>130.40</ele>
        <time>2017-07-31T09:59:24Z</time>
      </trkpt>
      <trkpt lat="43.2443600055" lon="2.2737683449">
        <ele>130.88</ele>
        <time>2017-07-31T09:59:25Z</time>
      </trkpt>
      <trkpt lat="43.2443582453" lon="2.2738281917">
        <ele>130.40</ele>
        <time>2017-07-31T09:59:26Z</time>
      </trkpt>
      <trkpt lat="43.2443569880" lon="2.2739549261">
        <ele>130.40</ele>
        <time>2017-07-31T09:59:28Z</time>
      </trkpt>
      <trkpt lat="43.2443558145" lon="2.2740220651">
        <ele>130.40</ele>
        <time>2017-07-31T09:59:29Z</time>
      </trkpt>
      <trkpt lat="43.2443465944" lon="2.2746662982">
        <ele>130.88</ele>
        <time>2017-07-31T09:59:39Z</time>
      </trkpt>
      <trkpt lat="43.2442888431" lon="2.2752718069">
        <ele>130.88</ele>
        <time>2017-07-31T09:59:49Z</time>
      </trkpt>
      <trkpt lat="43.2442374621" lon="2.2756579611">
        <ele>130.40</ele>
        <time>2017-07-31T09:59:57Z</time>
      </trkpt>
      <trkpt lat="43.2441315986" lon="2.2760866117">
        <ele>130.40</ele>
        <time>2017-07-31T10:00:06Z</time>
      </trkpt>
      <trkpt lat="43.2440052833" lon="2.2764474526">
        <ele>129.92</ele>
        <time>2017-07-31T10:00:13Z</time>
      </trkpt>
      <trkpt lat="43.2438441832" lon="2.2769154981">
        <ele>129.43</ele>
        <time>2017-07-31T10:00:21Z</time>
      </trkpt>
      <trkpt lat="43.2438247371" lon="2.2769724112">
        <ele>129.92</ele>
        <time>2017-07-31T10:00:22Z</time>
      </trkpt>
      <trkpt lat="43.2436715998" lon="2.2774129640">
        <ele>129.92</ele>
        <time>2017-07-31T10:00:30Z</time>
      </trkpt>
      <trkpt lat="43.2436530758" lon="2.2774639260">
        <ele>130.40</ele>
        <time>2017-07-31T10:00:31Z</time>
      </trkpt>
      <trkpt lat="43.2436363958" lon="2.2775107808">
        <ele>129.92</ele>
        <time>2017-07-31T10:00:32Z</time>
      </trkpt>
      <trkpt lat="43.2434613816" lon="2.2779817600">
        <ele>129.92</ele>
        <time>2017-07-31T10:00:42Z</time>
      </trkpt>
      <trkpt lat="43.2432993595" lon="2.2784661502">
        <ele>129.92</ele>
        <time>2017-07-31T10:00:52Z</time>
      </trkpt>
      <trkpt lat="43.2431054860" lon="2.2790123988">
        <ele>129.92</ele>
        <time>2017-07-31T10:01:03Z</time>
      </trkpt>
      <trkpt lat="43.2429180667" lon="2.2795218509">
        <ele>130.40</ele>
        <time>2017-07-31T10:01:13Z</time>
      </trkpt>
      <trkpt lat="43.2427017298" lon="2.2799892258">
        <ele>130.40</ele>
        <time>2017-07-31T10:01:23Z</time>
      </trkpt>
      <trkpt lat="43.2423973829" lon="2.2804871108">
        <ele>130.40</ele>
        <time>2017-07-31T10:01:34Z</time>
      </trkpt>
      <trkpt lat="43.2421289105" lon="2.2808864247">
        <ele>130.40</ele>
        <time>2017-07-31T10:01:44Z</time>
      </trkpt>
      <trkpt lat="43.2421010826" lon="2.2809375543">
        <ele>130.40</ele>
        <time>2017-07-31T10:01:45Z</time>
      </trkpt>
      <trkpt lat="43.2419865020" lon="2.2811201960">
        <ele>129.92</ele>
        <time>2017-07-31T10:01:49Z</time>
      </trkpt>
      <trkpt lat="43.2419357076" lon="2.2812236287">
        <ele>129.92</ele>
        <time>2017-07-31T10:01:51Z</time>
      </trkpt>
      <trkpt lat="43.2418333646" lon="2.2814481799">
        <ele>129.92</ele>
        <time>2017-07-31T10:01:55Z</time>
      </trkpt>
      <trkpt lat="43.2418067101" lon="2.2815064341">
        <ele>129.92</ele>
        <time>2017-07-31T10:01:56Z</time>
      </trkpt>
      <trkpt lat="43.2416457776" lon="2.2819143813">
        <ele>129.43</ele>
        <time>2017-07-31T10:02:04Z</time>
      </trkpt>
      <trkpt lat="43.2416044548" lon="2.2820144612">
        <ele>131.36</ele>
        <time>2017-07-31T10:02:06Z</time>
      </trkpt>
      <trkpt lat="43.2415393274" lon="2.2821640782">
        <ele>130.88</ele>
        <time>2017-07-31T10:02:09Z</time>
      </trkpt>
      <trkpt lat="43.2415171992" lon="2.2822157107">
        <ele>127.03</ele>
        <time>2017-07-31T10:02:10Z</time>
      </trkpt>
      <trkpt lat="43.2415002678" lon="2.2822653316">
        <ele>128.95</ele>
        <time>2017-07-31T10:02:11Z</time>
      </trkpt>
      <trkpt lat="43.2414571010" lon="2.2823654953">
        <ele>129.92</ele>
        <time>2017-07-31T10:02:13Z</time>
      </trkpt>
      <trkpt lat="43.2413049694" lon="2.2827240732">
        <ele>129.43</ele>
        <time>2017-07-31T10:02:21Z</time>
      </trkpt>
      <trkpt lat="43.2411025465" lon="2.2831768636">
        <ele>129.92</ele>
        <time>2017-07-31T10:02:31Z</time>
      </trkpt>
      <trkpt lat="43.2410566136" lon="2.2832614370">
        <ele>130.40</ele>
        <time>2017-07-31T10:02:33Z</time>
      </trkpt>
      <trkpt lat="43.2408841979" lon="2.2836406343">
        <ele>130.88</ele>
        <time>2017-07-31T10:02:41Z</time>
      </trkpt>
      <trkpt lat="43.2407317311" lon="2.2839644272">
        <ele>130.40</ele>
        <time>2017-07-31T10:02:47Z</time>
      </trkpt>
      <trkpt lat="43.2406905759" lon="2.2840663511">
        <ele>130.40</ele>
        <time>2017-07-31T10:02:49Z</time>
      </trkpt>
      <trkpt lat="43.2403620053" lon="2.2845592909">
        <ele>131.36</ele>
        <time>2017-07-31T10:03:00Z</time>
      </trkpt>
      <trkpt lat="43.2400864922" lon="2.2848968301">
        <ele>130.40</ele>
        <time>2017-07-31T10:03:09Z</time>
      </trkpt>
      <trkpt lat="43.2398615219" lon="2.2851622850">
        <ele>130.40</ele>
        <time>2017-07-31T10:03:17Z</time>
      </trkpt>
      <trkpt lat="43.2396243140" lon="2.2854589205">
        <ele>130.40</ele>
        <time>2017-07-31T10:03:26Z</time>
      </trkpt>
      <trkpt lat="43.2393982541" lon="2.2857434023">
        <ele>129.43</ele>
        <time>2017-07-31T10:03:35Z</time>
      </trkpt>
      <trkpt lat="43.2392712682" lon="2.2859093640">
        <ele>130.40</ele>
        <time>2017-07-31T10:03:43Z</time>
      </trkpt>
      <trkpt lat="43.2392382436" lon="2.2859565541">
        <ele>128.95</ele>
        <time>2017-07-31T10:03:46Z</time>
      </trkpt>
      <trkpt lat="43.2390431128" lon="2.2862003837">
        <ele>128.47</ele>
        <time>2017-07-31T10:03:54Z</time>
      </trkpt>
      <trkpt lat="43.2389698550" lon="2.2862857953">
        <ele>127.03</ele>
        <time>2017-07-31T10:03:56Z</time>
      </trkpt>
      <trkpt lat="43.2385883108" lon="2.2867366578">
        <ele>125.11</ele>
        <time>2017-07-31T10:04:07Z</time>
      </trkpt>
      <trkpt lat="43.2383999694" lon="2.2869884502">
        <ele>124.15</ele>
        <time>2017-07-31T10:04:16Z</time>
      </trkpt>
      <trkpt lat="43.2381609175" lon="2.2873043641">
        <ele>124.15</ele>
        <time>2017-07-31T10:04:27Z</time>
      </trkpt>
      <trkpt lat="43.2379367016" lon="2.2875979822">
        <ele>123.19</ele>
        <time>2017-07-31T10:04:37Z</time>
      </trkpt>
      <trkpt lat="43.2377177663" lon="2.2878872417">
        <ele>124.63</ele>
        <time>2017-07-31T10:04:47Z</time>
      </trkpt>
      <trkpt lat="43.2375841588" lon="2.2880539577">
        <ele>124.63</ele>
        <time>2017-07-31T10:04:55Z</time>
      </trkpt>
      <trkpt lat="43.2375358790" lon="2.2881075181">
        <ele>124.63</ele>
        <time>2017-07-31T10:05:03Z</time>
      </trkpt>
      <trkpt lat="43.2374753617" lon="2.2881796025">
        <ele>124.15</ele>
        <time>2017-07-31T10:05:14Z</time>
      </trkpt>
      <trkpt lat="43.2374485396" lon="2.2881551273">
        <ele>122.71</ele>
        <time>2017-07-31T10:05:24Z</time>
      </trkpt>
      <trkpt lat="43.2374484558" lon="2.2881553788">
        <ele>122.71</ele>
        <time>2017-07-31T10:05:25Z</time>
      </trkpt>
      <trkpt lat="43.2374311890" lon="2.2881831229">
        <ele>127.03</ele>
        <time>2017-07-31T10:26:39Z</time>
      </trkpt>
      <trkpt lat="43.2374207955" lon="2.2881868109">
        <ele>126.55</ele>
        <time>2017-07-31T10:26:40Z</time>
      </trkpt>
      <trkpt lat="43.2374448515" lon="2.2881199233">
        <ele>123.19</ele>
        <time>2017-07-31T10:26:59Z</time>
      </trkpt>
      <trkpt lat="43.2374447677" lon="2.2881191690">
        <ele>121.74</ele>
        <time>2017-07-31T10:27:02Z</time>
      </trkpt>
      <trkpt lat="43.2374397386" lon="2.2881217673">
        <ele>118.38</ele>
        <time>2017-07-31T10:27:09Z</time>
      </trkpt>
      <trkpt lat="43.2374425884" lon="2.2881348431">
        <ele>116.46</ele>
        <time>2017-07-31T10:27:16Z</time>
      </trkpt>
      <trkpt lat="43.2374370564" lon="2.2881359328">
        <ele>116.46</ele>
        <time>2017-07-31T10:27:18Z</time>
      </trkpt>
      <trkpt lat="43.2373712584" lon="2.2882066760">
        <ele>116.46</ele>
        <time>2017-07-31T10:27:24Z</time>
      </trkpt>
      <trkpt lat="43.2372669876" lon="2.2884040698">
        <ele>114.53</ele>
        <time>2017-07-31T10:27:32Z</time>
      </trkpt>
      <trkpt lat="43.2372234855" lon="2.2884367593">
        <ele>114.53</ele>
        <time>2017-07-31T10:27:35Z</time>
      </trkpt>
      <trkpt lat="43.2371387444" lon="2.2885806765">
        <ele>112.61</ele>
        <time>2017-07-31T10:27:41Z</time>
      </trkpt>
      <trkpt lat="43.2370162848" lon="2.2887002863">
        <ele>111.65</ele>
        <time>2017-07-31T10:27:45Z</time>
      </trkpt>
      <trkpt lat="43.2369811647" lon="2.2887325566">
        <ele>111.65</ele>
        <time>2017-07-31T10:27:46Z</time>
      </trkpt>
      <trkpt lat="43.2369483914" lon="2.2887711134">
        <ele>111.65</ele>
        <time>2017-07-31T10:27:47Z</time>
      </trkpt>
      <trkpt lat="43.2369173784" lon="2.2888131067">
        <ele>112.13</ele>
        <time>2017-07-31T10:27:48Z</time>
      </trkpt>
      <trkpt lat="43.2368835993" lon="2.2888531722">
        <ele>111.65</ele>
        <time>2017-07-31T10:27:49Z</time>
      </trkpt>
      <trkpt lat="43.2368483115" lon="2.2888875380">
        <ele>110.69</ele>
        <time>2017-07-31T10:27:50Z</time>
      </trkpt>
      <trkpt lat="43.2368132751" lon="2.2889169585">
        <ele>110.69</ele>
        <time>2017-07-31T10:27:51Z</time>
      </trkpt>
      <trkpt lat="43.2367460523" lon="2.2889747098">
        <ele>109.73</ele>
        <time>2017-07-31T10:27:53Z</time>
      </trkpt>
      <trkpt lat="43.2364087645" lon="2.2893456090">
        <ele>109.25</ele>
        <time>2017-07-31T10:28:04Z</time>
      </trkpt>
      <trkpt lat="43.2362863049" lon="2.2894982435">
        <ele>108.77</ele>
        <time>2017-07-31T10:28:13Z</time>
      </trkpt>
      <trkpt lat="43.2362133823" lon="2.2896147519">
        <ele>109.25</ele>
        <time>2017-07-31T10:28:22Z</time>
      </trkpt>
      <trkpt lat="43.2360599935" lon="2.2898303345">
        <ele>108.77</ele>
        <time>2017-07-31T10:28:30Z</time>
      </trkpt>
      <trkpt lat="43.2358490210" lon="2.2900612559">
        <ele>109.25</ele>
        <time>2017-07-31T10:28:38Z</time>
      </trkpt>
      <trkpt lat="43.2355971448" lon="2.2903828695">
        <ele>109.73</ele>
        <time>2017-07-31T10:28:47Z</time>
      </trkpt>
      <trkpt lat="43.2353199553" lon="2.2907253541">
        <ele>109.73</ele>
        <time>2017-07-31T10:28:57Z</time>
      </trkpt>
      <trkpt lat="43.2350687496" lon="2.2910271026">
        <ele>109.73</ele>
        <time>2017-07-31T10:29:07Z</time>
      </trkpt>
      <trkpt lat="43.2348613814" lon="2.2912607901">
        <ele>109.73</ele>
        <time>2017-07-31T10:29:15Z</time>
      </trkpt>
      <trkpt lat="43.2346046437" lon="2.2915459424">
        <ele>109.73</ele>
        <time>2017-07-31T10:29:26Z</time>
      </trkpt>
      <trkpt lat="43.2345121074" lon="2.2916825674">
        <ele>109.73</ele>
        <time>2017-07-31T10:29:35Z</time>
      </trkpt>
      <trkpt lat="43.2343647536" lon="2.2918597609">
        <ele>109.73</ele>
        <time>2017-07-31T10:29:45Z</time>
      </trkpt>
      <trkpt lat="43.2342444733" lon="2.2920418158">
        <ele>110.21</ele>
        <time>2017-07-31T10:29:52Z</time>
      </trkpt>
      <trkpt lat="43.2342256140" lon="2.2920634411">
        <ele>110.69</ele>
        <time>2017-07-31T10:29:53Z</time>
      </trkpt>
      <trkpt lat="43.2342059165" lon="2.2920904309">
        <ele>110.69</ele>
        <time>2017-07-31T10:29:54Z</time>
      </trkpt>
      <trkpt lat="43.2341807708" lon="2.2921195161">
        <ele>110.21</ele>
        <time>2017-07-31T10:29:55Z</time>
      </trkpt>
      <trkpt lat="43.2341568824" lon="2.2921476793">
        <ele>110.69</ele>
        <time>2017-07-31T10:29:56Z</time>
      </trkpt>
      <trkpt lat="43.2341347542" lon="2.2921768483">
        <ele>110.21</ele>
        <time>2017-07-31T10:29:57Z</time>
      </trkpt>
      <trkpt lat="43.2339199260" lon="2.2924431413">
        <ele>110.69</ele>
        <time>2017-07-31T10:30:03Z</time>
      </trkpt>
      <trkpt lat="43.2338803634" lon="2.2924937680">
        <ele>110.69</ele>
        <time>2017-07-31T10:30:04Z</time>
      </trkpt>
      <trkpt lat="43.2335284073" lon="2.2929318901">
        <ele>110.69</ele>
        <time>2017-07-31T10:30:14Z</time>
      </trkpt>
      <trkpt lat="43.2332902774" lon="2.2932135221">
        <ele>109.73</ele>
        <time>2017-07-31T10:30:24Z</time>
      </trkpt>
      <trkpt lat="43.2329832483" lon="2.2935777996">
        <ele>110.69</ele>
        <time>2017-07-31T10:30:35Z</time>
      </trkpt>
      <trkpt lat="43.2327348925" lon="2.2938732617">
        <ele>109.73</ele>
        <time>2017-07-31T10:30:45Z</time>
      </trkpt>
      <trkpt lat="43.2325325534" lon="2.2941138223">
        <ele>109.73</ele>
        <time>2017-07-31T10:30:54Z</time>
      </trkpt>
      <trkpt lat="43.2321913261" lon="2.2945179977">
        <ele>109.25</ele>
        <time>2017-07-31T10:31:06Z</time>
      </trkpt>
      <trkpt lat="43.2318739872" lon="2.2948910762">
        <ele>109.73</ele>
        <time>2017-07-31T10:31:17Z</time>
      </trkpt>
      <trkpt lat="43.2316131424" lon="2.2952426970">
        <ele>110.69</ele>
        <time>2017-07-31T10:31:28Z</time>
      </trkpt>
      <trkpt lat="43.2314093783" lon="2.2956239898">
        <ele>109.25</ele>
        <time>2017-07-31T10:31:37Z</time>
      </trkpt>
      <trkpt lat="43.2311717514" lon="2.2961528879">
        <ele>109.73</ele>
        <time>2017-07-31T10:31:48Z</time>
      </trkpt>
      <trkpt lat="43.2310180273" lon="2.2965661995">
        <ele>109.73</ele>
        <time>2017-07-31T10:31:56Z</time>
      </trkpt>
      <trkpt lat="43.2308392413" lon="2.2971549444">
        <ele>110.21</ele>
        <time>2017-07-31T10:32:07Z</time>
      </trkpt>
      <trkpt lat="43.2306302804" lon="2.2978306096">
        <ele>110.69</ele>
        <time>2017-07-31T10:32:19Z</time>
      </trkpt>
      <trkpt lat="43.2304536738" lon="2.2983838152">
        <ele>110.21</ele>
        <time>2017-07-31T10:32:29Z</time>
      </trkpt>
      <trkpt lat="43.2302578725" lon="2.2989972029">
        <ele>110.69</ele>
        <time>2017-07-31T10:32:41Z</time>
      </trkpt>
      <trkpt lat="43.2300858758" lon="2.2995219100">
        <ele>110.21</ele>
        <time>2017-07-31T10:32:51Z</time>
      </trkpt>
      <trkpt lat="43.2299573813" lon="2.2999231517">
        <ele>111.17</ele>
        <time>2017-07-31T10:32:59Z</time>
      </trkpt>
      <trkpt lat="43.2299368456" lon="2.2999717668">
        <ele>110.69</ele>
        <time>2017-07-31T10:33:00Z</time>
      </trkpt>
      <trkpt lat="43.2299205847" lon="2.3000169452">
        <ele>110.69</ele>
        <time>2017-07-31T10:33:01Z</time>
      </trkpt>
      <trkpt lat="43.2297567185" lon="2.3004764412">
        <ele>111.65</ele>
        <time>2017-07-31T10:33:11Z</time>
      </trkpt>
      <trkpt lat="43.2296423893" lon="2.3006968852">
        <ele>111.17</ele>
        <time>2017-07-31T10:33:16Z</time>
      </trkpt>
      <trkpt lat="43.2296221890" lon="2.3007469252">
        <ele>111.17</ele>
        <time>2017-07-31T10:33:17Z</time>
      </trkpt>
      <trkpt lat="43.2296055090" lon="2.3007966299">
        <ele>110.69</ele>
        <time>2017-07-31T10:33:18Z</time>
      </trkpt>
      <trkpt lat="43.2295892481" lon="2.3008470051">
        <ele>110.69</ele>
        <time>2017-07-31T10:33:19Z</time>
      </trkpt>
      <trkpt lat="43.2295709755" lon="2.3008931056">
        <ele>111.17</ele>
        <time>2017-07-31T10:33:20Z</time>
      </trkpt>
      <trkpt lat="43.2295542955" lon="2.3009381164">
        <ele>111.17</ele>
        <time>2017-07-31T10:33:21Z</time>
      </trkpt>
      <trkpt lat="43.2295409683" lon="2.3009832948">
        <ele>110.69</ele>
        <time>2017-07-31T10:33:22Z</time>
      </trkpt>
      <trkpt lat="43.2294599991" lon="2.3013500031">
        <ele>109.25</ele>
        <time>2017-07-31T10:33:30Z</time>
      </trkpt>
      <trkpt lat="43.2292566542" lon="2.3019810766">
        <ele>108.29</ele>
        <time>2017-07-31T10:33:40Z</time>
      </trkpt>
      <trkpt lat="43.2290411554" lon="2.3025448434">
        <ele>107.81</ele>
        <time>2017-07-31T10:33:49Z</time>
      </trkpt>
      <trkpt lat="43.2289749384" lon="2.3027220368">
        <ele>108.77</ele>
        <time>2017-07-31T10:33:52Z</time>
      </trkpt>
      <trkpt lat="43.2289491221" lon="2.3027807940">
        <ele>108.77</ele>
        <time>2017-07-31T10:33:53Z</time>
      </trkpt>
      <trkpt lat="43.2287126686" lon="2.3035028111">
        <ele>108.29</ele>
        <time>2017-07-31T10:34:05Z</time>
      </trkpt>
      <trkpt lat="43.2285579387" lon="2.3039118480">
        <ele>108.29</ele>
        <time>2017-07-31T10:34:12Z</time>
      </trkpt>
      <trkpt lat="43.2284812443" lon="2.3040855210">
        <ele>107.81</ele>
        <time>2017-07-31T10:34:15Z</time>
      </trkpt>
      <trkpt lat="43.2284581941" lon="2.3041400872">
        <ele>107.32</ele>
        <time>2017-07-31T10:34:16Z</time>
      </trkpt>
      <trkpt lat="43.2283929829" lon="2.3042956553">
        <ele>108.29</ele>
        <time>2017-07-31T10:34:19Z</time>
      </trkpt>
      <trkpt lat="43.2283721957" lon="2.3043472040">
        <ele>108.29</ele>
        <time>2017-07-31T10:34:20Z</time>
      </trkpt>
      <trkpt lat="43.2281269412" lon="2.3049867433">
        <ele>108.29</ele>
        <time>2017-07-31T10:34:32Z</time>
      </trkpt>
      <trkpt lat="43.2281077467" lon="2.3050373700">
        <ele>108.29</ele>
        <time>2017-07-31T10:34:33Z</time>
      </trkpt>
      <trkpt lat="43.2279196568" lon="2.3056175653">
        <ele>108.29</ele>
        <time>2017-07-31T10:34:44Z</time>
      </trkpt>
      <trkpt lat="43.2278123684" lon="2.3059056513">
        <ele>108.29</ele>
        <time>2017-07-31T10:34:49Z</time>
      </trkpt>
      <trkpt lat="43.2277744822" lon="2.3060177173">
        <ele>108.29</ele>
        <time>2017-07-31T10:34:51Z</time>
      </trkpt>
      <trkpt lat="43.2276604045" lon="2.3063292727">
        <ele>108.29</ele>
        <time>2017-07-31T10:34:56Z</time>
      </trkpt>
      <trkpt lat="43.2276306488" lon="2.3063919693">
        <ele>108.29</ele>
        <time>2017-07-31T10:34:57Z</time>
      </trkpt>
      <trkpt lat="43.2274220232" lon="2.3069218732">
        <ele>107.81</ele>
        <time>2017-07-31T10:35:06Z</time>
      </trkpt>
      <trkpt lat="43.2273988053" lon="2.3069791216">
        <ele>107.81</ele>
        <time>2017-07-31T10:35:07Z</time>
      </trkpt>
      <trkpt lat="43.2271046843" lon="2.3076987918">
        <ele>107.81</ele>
        <time>2017-07-31T10:35:21Z</time>
      </trkpt>
      <trkpt lat="43.2268459350" lon="2.3082119320">
        <ele>107.81</ele>
        <time>2017-07-31T10:35:32Z</time>
      </trkpt>
      <trkpt lat="43.2266724296" lon="2.3086429294">
        <ele>108.29</ele>
        <time>2017-07-31T10:35:40Z</time>
      </trkpt>
      <trkpt lat="43.2266505528" lon="2.3091507889">
        <ele>108.29</ele>
        <time>2017-07-31T10:35:49Z</time>
      </trkpt>
      <trkpt lat="43.2266563363" lon="2.3092086241">
        <ele>107.81</ele>
        <time>2017-07-31T10:35:50Z</time>
      </trkpt>
      <trkpt lat="43.2267366350" lon="2.3098595627">
        <ele>109.25</ele>
        <time>2017-07-31T10:36:02Z</time>
      </trkpt>
      <trkpt lat="43.2267651334" lon="2.3102840222">
        <ele>108.77</ele>
        <time>2017-07-31T10:36:11Z</time>
      </trkpt>
      <trkpt lat="43.2268159278" lon="2.3108004313">
        <ele>108.29</ele>
        <time>2017-07-31T10:36:22Z</time>
      </trkpt>
      <trkpt lat="43.2268404868" lon="2.3112495337">
        <ele>108.29</ele>
        <time>2017-07-31T10:36:31Z</time>
      </trkpt>
      <trkpt lat="43.2268279977" lon="2.3114573210">
        <ele>109.25</ele>
        <time>2017-07-31T10:36:35Z</time>
      </trkpt>
      <trkpt lat="43.2268165145" lon="2.3115001526">
        <ele>108.77</ele>
        <time>2017-07-31T10:36:36Z</time>
      </trkpt>
      <trkpt lat="43.2268122397" lon="2.3115480971">
        <ele>108.77</ele>
        <time>2017-07-31T10:36:37Z</time>
      </trkpt>
      <trkpt lat="43.2267339528" lon="2.3120015580">
        <ele>108.29</ele>
        <time>2017-07-31T10:36:46Z</time>
      </trkpt>
      <trkpt lat="43.2265433483" lon="2.3125301208">
        <ele>107.81</ele>
        <time>2017-07-31T10:36:57Z</time>
      </trkpt>
      <trkpt lat="43.2263433561" lon="2.3129710928">
        <ele>107.81</ele>
        <time>2017-07-31T10:37:07Z</time>
      </trkpt>
      <trkpt lat="43.2262358163" lon="2.3132215440">
        <ele>107.32</ele>
        <time>2017-07-31T10:37:12Z</time>
      </trkpt>
      <trkpt lat="43.2261613011" lon="2.3137030005">
        <ele>107.32</ele>
        <time>2017-07-31T10:37:21Z</time>
      </trkpt>
      <trkpt lat="43.2261500694" lon="2.3140058387">
        <ele>110.21</ele>
        <time>2017-07-31T10:37:27Z</time>
      </trkpt>
      <trkpt lat="43.2261505723" lon="2.3140547890">
        <ele>105.88</ele>
        <time>2017-07-31T10:37:28Z</time>
      </trkpt>
      <trkpt lat="43.2261462137" lon="2.3145799991">
        <ele>107.32</ele>
        <time>2017-07-31T10:37:38Z</time>
      </trkpt>
      <trkpt lat="43.2261245046" lon="2.3151506390">
        <ele>107.32</ele>
        <time>2017-07-31T10:37:48Z</time>
      </trkpt>
      <trkpt lat="43.2260991912" lon="2.3157481011">
        <ele>107.81</ele>
        <time>2017-07-31T10:37:59Z</time>
      </trkpt>
      <trkpt lat="43.2260941621" lon="2.3161731474">
        <ele>107.81</ele>
        <time>2017-07-31T10:38:07Z</time>
      </trkpt>
      <trkpt lat="43.2260995265" lon="2.3162345868">
        <ele>108.29</ele>
        <time>2017-07-31T10:38:08Z</time>
      </trkpt>
      <trkpt lat="43.2262462936" lon="2.3167058174">
        <ele>107.81</ele>
        <time>2017-07-31T10:38:17Z</time>
      </trkpt>
      <trkpt lat="43.2262783125" lon="2.3167447094">
        <ele>107.81</ele>
        <time>2017-07-31T10:38:18Z</time>
      </trkpt>
      <trkpt lat="43.2263133489" lon="2.3167793266">
        <ele>107.81</ele>
        <time>2017-07-31T10:38:19Z</time>
      </trkpt>
      <trkpt lat="43.2265513111" lon="2.3169517424">
        <ele>107.81</ele>
        <time>2017-07-31T10:38:25Z</time>
      </trkpt>
      <trkpt lat="43.2265946455" lon="2.3169746250">
        <ele>107.81</ele>
        <time>2017-07-31T10:38:26Z</time>
      </trkpt>
      <trkpt lat="43.2266372256" lon="2.3169919755">
        <ele>107.81</ele>
        <time>2017-07-31T10:38:27Z</time>
      </trkpt>
      <trkpt lat="43.2266762853" lon="2.3170121759">
        <ele>107.81</ele>
        <time>2017-07-31T10:38:28Z</time>
      </trkpt>
      <trkpt lat="43.2267162669" lon="2.3170317896">
        <ele>108.29</ele>
        <time>2017-07-31T10:38:29Z</time>
      </trkpt>
      <trkpt lat="43.2270056102" lon="2.3172688298">
        <ele>107.32</ele>
        <time>2017-07-31T10:38:38Z</time>
      </trkpt>
      <trkpt lat="43.2270701509" lon="2.3173783813">
        <ele>107.81</ele>
        <time>2017-07-31T10:38:45Z</time>
      </trkpt>
      <trkpt lat="43.2270695642" lon="2.3173939716">
        <ele>107.81</ele>
        <time>2017-07-31T10:39:01Z</time>
      </trkpt>
      <trkpt lat="43.2270673010" lon="2.3174113221">
        <ele>107.81</ele>
        <time>2017-07-31T10:39:20Z</time>
      </trkpt>
      <trkpt lat="43.2270780299" lon="2.3174341209">
        <ele>107.81</ele>
        <time>2017-07-31T10:39:21Z</time>
      </trkpt>
      <trkpt lat="43.2270878367" lon="2.3174679000">
        <ele>107.81</ele>
        <time>2017-07-31T10:39:22Z</time>
      </trkpt>
      <trkpt lat="43.2271037623" lon="2.3175088037">
        <ele>107.81</ele>
        <time>2017-07-31T10:39:23Z</time>
      </trkpt>
      <trkpt lat="43.2271216996" lon="2.3175569158">
        <ele>107.32</ele>
        <time>2017-07-31T10:39:24Z</time>
      </trkpt>
      <trkpt lat="43.2271395531" lon="2.3176121525">
        <ele>107.32</ele>
        <time>2017-07-31T10:39:25Z</time>
      </trkpt>
      <trkpt lat="43.2271569036" lon="2.3176728375">
        <ele>107.81</ele>
        <time>2017-07-31T10:39:26Z</time>
      </trkpt>
      <trkpt lat="43.2271725778" lon="2.3177395575">
        <ele>107.81</ele>
        <time>2017-07-31T10:39:27Z</time>
      </trkpt>
      <trkpt lat="43.2271827199" lon="2.3178113904">
        <ele>107.81</ele>
        <time>2017-07-31T10:39:28Z</time>
      </trkpt>
      <trkpt lat="43.2271907665" lon="2.3178800382">
        <ele>107.81</ele>
        <time>2017-07-31T10:39:29Z</time>
      </trkpt>
      <trkpt lat="43.2271935325" lon="2.3179398011">
        <ele>107.81</ele>
        <time>2017-07-31T10:39:30Z</time>
      </trkpt>
      <trkpt lat="43.2271894254" lon="2.3180000670">
        <ele>107.81</ele>
        <time>2017-07-31T10:39:31Z</time>
      </trkpt>
      <trkpt lat="43.2271891739" lon="2.3180642724">
        <ele>108.29</ele>
        <time>2017-07-31T10:39:32Z</time>
      </trkpt>
      <trkpt lat="43.2271939516" lon="2.3181310762">
        <ele>108.29</ele>
        <time>2017-07-31T10:39:33Z</time>
      </trkpt>
      <trkpt lat="43.2271966338" lon="2.3181955330">
        <ele>108.29</ele>
        <time>2017-07-31T10:39:34Z</time>
      </trkpt>
      <trkpt lat="43.2271977235" lon="2.3182580620">
        <ele>108.29</ele>
        <time>2017-07-31T10:39:35Z</time>
      </trkpt>
      <trkpt lat="43.2272056863" lon="2.3183212616">
        <ele>108.29</ele>
        <time>2017-07-31T10:39:36Z</time>
      </trkpt>
      <trkpt lat="43.2272185944" lon="2.3183813598">
        <ele>108.29</ele>
        <time>2017-07-31T10:39:37Z</time>
      </trkpt>
      <trkpt lat="43.2272292394" lon="2.3184434697">
        <ele>107.81</ele>
        <time>2017-07-31T10:39:38Z</time>
      </trkpt>
      <trkpt lat="43.2272328436" lon="2.3185086809">
        <ele>108.29</ele>
        <time>2017-07-31T10:39:39Z</time>
      </trkpt>
      <trkpt lat="43.2272451650" lon="2.3189080786">
        <ele>107.81</ele>
        <time>2017-07-31T10:39:44Z</time>
      </trkpt>
      <trkpt lat="43.2272842247" lon="2.3193347175">
        <ele>107.81</ele>
        <time>2017-07-31T10:39:50Z</time>
      </trkpt>
      <trkpt lat="43.2272874098" lon="2.3194002640">
        <ele>107.81</ele>
        <time>2017-07-31T10:39:51Z</time>
      </trkpt>
      <trkpt lat="43.2272870746" lon="2.3194606137">
        <ele>107.81</ele>
        <time>2017-07-31T10:39:52Z</time>
      </trkpt>
      <trkpt lat="43.2272811234" lon="2.3195089772">
        <ele>107.81</ele>
        <time>2017-07-31T10:39:53Z</time>
      </trkpt>
      <trkpt lat="43.2272771839" lon="2.3195557483">
        <ele>107.81</ele>
        <time>2017-07-31T10:39:54Z</time>
      </trkpt>
      <trkpt lat="43.2272835542" lon="2.3196031060">
        <ele>107.81</ele>
        <time>2017-07-31T10:39:55Z</time>
      </trkpt>
      <trkpt lat="43.2272914331" lon="2.3196484521">
        <ele>107.81</ele>
        <time>2017-07-31T10:39:56Z</time>
      </trkpt>
      <trkpt lat="43.2272950374" lon="2.3196945526">
        <ele>108.29</ele>
        <time>2017-07-31T10:39:57Z</time>
      </trkpt>
      <trkpt lat="43.2273273915" lon="2.3201026674">
        <ele>108.29</ele>
        <time>2017-07-31T10:40:07Z</time>
      </trkpt>
      <trkpt lat="43.2273372822" lon="2.3202548828">
        <ele>107.81</ele>
        <time>2017-07-31T10:40:12Z</time>
      </trkpt>
      <trkpt lat="43.2273358572" lon="2.3202847224">
        <ele>107.81</ele>
        <time>2017-07-31T10:40:13Z</time>
      </trkpt>
      <trkpt lat="43.2273382042" lon="2.3203183338">
        <ele>108.29</ele>
        <time>2017-07-31T10:40:14Z</time>
      </trkpt>
      <trkpt lat="43.2273426466" lon="2.3203552980">
        <ele>108.29</ele>
        <time>2017-07-31T10:40:15Z</time>
      </trkpt>
      <trkpt lat="43.2273510285" lon="2.3203926813">
        <ele>108.29</ele>
        <time>2017-07-31T10:40:16Z</time>
      </trkpt>
      <trkpt lat="43.2273851428" lon="2.3208640795">
        <ele>108.77</ele>
        <time>2017-07-31T10:40:25Z</time>
      </trkpt>
      <trkpt lat="43.2273478433" lon="2.3212442826">
        <ele>108.29</ele>
        <time>2017-07-31T10:40:32Z</time>
      </trkpt>
      <trkpt lat="43.2273015752" lon="2.3217989132">
        <ele>108.29</ele>
        <time>2017-07-31T10:40:41Z</time>
      </trkpt>
      <trkpt lat="43.2271613460" lon="2.3224151507">
        <ele>108.29</ele>
        <time>2017-07-31T10:40:52Z</time>
      </trkpt>
      <trkpt lat="43.2270017546" lon="2.3229139578">
        <ele>108.29</ele>
        <time>2017-07-31T10:41:02Z</time>
      </trkpt>
      <trkpt lat="43.2268243935" lon="2.3233277723">
        <ele>107.81</ele>
        <time>2017-07-31T10:41:10Z</time>
      </trkpt>
      <trkpt lat="43.2266180310" lon="2.3236639705">
        <ele>108.29</ele>
        <time>2017-07-31T10:41:19Z</time>
      </trkpt>
      <trkpt lat="43.2263787277" lon="2.3239943851">
        <ele>108.29</ele>
        <time>2017-07-31T10:41:27Z</time>
      </trkpt>
      <trkpt lat="43.2260794938" lon="2.3243454192">
        <ele>108.77</ele>
        <time>2017-07-31T10:41:36Z</time>
      </trkpt>
      <trkpt lat="43.2256921660" lon="2.3247194197">
        <ele>108.29</ele>
        <time>2017-07-31T10:41:46Z</time>
      </trkpt>
      <trkpt lat="43.2252322510" lon="2.3249947652">
        <ele>108.29</ele>
        <time>2017-07-31T10:41:57Z</time>
      </trkpt>
      <trkpt lat="43.2248254772" lon="2.3251106031">
        <ele>108.77</ele>
        <time>2017-07-31T10:42:06Z</time>
      </trkpt>
      <trkpt lat="43.2244881056" lon="2.3251416162">
        <ele>109.25</ele>
        <time>2017-07-31T10:42:15Z</time>
      </trkpt>
      <trkpt lat="43.2241554279" lon="2.3251090944">
        <ele>110.21</ele>
        <time>2017-07-31T10:42:26Z</time>
      </trkpt>
      <trkpt lat="43.2237774041" lon="2.3251987807">
        <ele>110.21</ele>
        <time>2017-07-31T10:42:35Z</time>
      </trkpt>
      <trkpt lat="43.2235960197" lon="2.3252472281">
        <ele>110.21</ele>
        <time>2017-07-31T10:42:39Z</time>
      </trkpt>
      <trkpt lat="43.2233712170" lon="2.3253557738">
        <ele>110.21</ele>
        <time>2017-07-31T10:42:44Z</time>
      </trkpt>
      <trkpt lat="43.2233337499" lon="2.3253789078">
        <ele>109.73</ele>
        <time>2017-07-31T10:42:45Z</time>
      </trkpt>
      <trkpt lat="43.2232973725" lon="2.3254013713">
        <ele>109.73</ele>
        <time>2017-07-31T10:42:46Z</time>
      </trkpt>
      <trkpt lat="43.2232638448" lon="2.3254248407">
        <ele>110.21</ele>
        <time>2017-07-31T10:42:47Z</time>
      </trkpt>
      <trkpt lat="43.2232301496" lon="2.3254514951">
        <ele>110.21</ele>
        <time>2017-07-31T10:42:48Z</time>
      </trkpt>
      <trkpt lat="43.2229342684" lon="2.3256636411">
        <ele>109.73</ele>
        <time>2017-07-31T10:42:57Z</time>
      </trkpt>
      <trkpt lat="43.2227516267" lon="2.3258410022">
        <ele>109.73</ele>
        <time>2017-07-31T10:43:04Z</time>
      </trkpt>
      <trkpt lat="43.2225043606" lon="2.3261541501">
        <ele>110.21</ele>
        <time>2017-07-31T10:43:12Z</time>
      </trkpt>
      <trkpt lat="43.2223632094" lon="2.3263310082">
        <ele>110.69</ele>
        <time>2017-07-31T10:43:16Z</time>
      </trkpt>
      <trkpt lat="43.2222226448" lon="2.3265322577">
        <ele>110.21</ele>
        <time>2017-07-31T10:43:20Z</time>
      </trkpt>
      <trkpt lat="43.2218820881" lon="2.3270453140">
        <ele>110.69</ele>
        <time>2017-07-31T10:43:31Z</time>
      </trkpt>
      <trkpt lat="43.2217407692" lon="2.3272505868">
        <ele>111.17</ele>
        <time>2017-07-31T10:43:35Z</time>
      </trkpt>
      <trkpt lat="43.2216768153" lon="2.3273307178">
        <ele>110.69</ele>
        <time>2017-07-31T10:43:37Z</time>
      </trkpt>
      <trkpt lat="43.2215462252" lon="2.3275175504">
        <ele>110.69</ele>
        <time>2017-07-31T10:43:41Z</time>
      </trkpt>
      <trkpt lat="43.2212167326" lon="2.3279562593">
        <ele>110.69</ele>
        <time>2017-07-31T10:43:52Z</time>
      </trkpt>
      <trkpt lat="43.2209283113" lon="2.3283487000">
        <ele>109.73</ele>
        <time>2017-07-31T10:44:01Z</time>
      </trkpt>
      <trkpt lat="43.2207030896" lon="2.3286686372">
        <ele>115.01</ele>
        <time>2017-07-31T10:44:09Z</time>
      </trkpt>
      <trkpt lat="43.2206696458" lon="2.3287178390">
        <ele>110.21</ele>
        <time>2017-07-31T10:44:10Z</time>
      </trkpt>
      <trkpt lat="43.2203145884" lon="2.3291864712">
        <ele>110.21</ele>
        <time>2017-07-31T10:44:21Z</time>
      </trkpt>
      <trkpt lat="43.2200764585" lon="2.3294252716">
        <ele>110.69</ele>
        <time>2017-07-31T10:44:26Z</time>
      </trkpt>
      <trkpt lat="43.2200198807" lon="2.3294826876">
        <ele>110.69</ele>
        <time>2017-07-31T10:44:27Z</time>
      </trkpt>
      <trkpt lat="43.2196587883" lon="2.3298157845">
        <ele>110.69</ele>
        <time>2017-07-31T10:44:35Z</time>
      </trkpt>
      <trkpt lat="43.2193256076" lon="2.3300946504">
        <ele>111.65</ele>
        <time>2017-07-31T10:44:44Z</time>
      </trkpt>
      <trkpt lat="43.2192463148" lon="2.3301647231">
        <ele>111.65</ele>
        <time>2017-07-31T10:44:46Z</time>
      </trkpt>
      <trkpt lat="43.2189190853" lon="2.3304424156">
        <ele>111.65</ele>
        <time>2017-07-31T10:44:55Z</time>
      </trkpt>
      <trkpt lat="43.2186817937" lon="2.3306621052">
        <ele>111.17</ele>
        <time>2017-07-31T10:45:06Z</time>
      </trkpt>
      <trkpt lat="43.2183668017" lon="2.3310357705">
        <ele>113.09</ele>
        <time>2017-07-31T10:45:16Z</time>
      </trkpt>
      <trkpt lat="43.2181549910" lon="2.3314019758">
        <ele>111.65</ele>
        <time>2017-07-31T10:45:25Z</time>
      </trkpt>
      <trkpt lat="43.2180569228" lon="2.3315933347">
        <ele>112.61</ele>
        <time>2017-07-31T10:45:30Z</time>
      </trkpt>
      <trkpt lat="43.2180479541" lon="2.3316306341">
        <ele>112.13</ele>
        <time>2017-07-31T10:45:31Z</time>
      </trkpt>
      <trkpt lat="43.2180323638" lon="2.3316660896">
        <ele>112.61</ele>
        <time>2017-07-31T10:45:32Z</time>
      </trkpt>
      <trkpt lat="43.2180123311" lon="2.3317059875">
        <ele>112.61</ele>
        <time>2017-07-31T10:45:33Z</time>
      </trkpt>
      <trkpt lat="43.2179942261" lon="2.3317499924">
        <ele>112.61</ele>
        <time>2017-07-31T10:45:34Z</time>
      </trkpt>
      <trkpt lat="43.2178758737" lon="2.3320726119">
        <ele>112.13</ele>
        <time>2017-07-31T10:45:41Z</time>
      </trkpt>
      <trkpt lat="43.2177752070" lon="2.3323895317">
        <ele>112.13</ele>
        <time>2017-07-31T10:45:47Z</time>
      </trkpt>
      <trkpt lat="43.2175847702" lon="2.3328926973">
        <ele>111.65</ele>
        <time>2017-07-31T10:45:58Z</time>
      </trkpt>
      <trkpt lat="43.2174530067" lon="2.3332520295">
        <ele>111.65</ele>
        <time>2017-07-31T10:46:06Z</time>
      </trkpt>
      <trkpt lat="43.2173145376" lon="2.3335968610">
        <ele>113.09</ele>
        <time>2017-07-31T10:46:14Z</time>
      </trkpt>
      <trkpt lat="43.2172456384" lon="2.3338232562">
        <ele>109.73</ele>
        <time>2017-07-31T10:46:19Z</time>
      </trkpt>
      <trkpt lat="43.2172336522" lon="2.3338696919">
        <ele>114.53</ele>
        <time>2017-07-31T10:46:20Z</time>
      </trkpt>
      <trkpt lat="43.2171266992" lon="2.3341067322">
        <ele>109.73</ele>
        <time>2017-07-31T10:46:25Z</time>
      </trkpt>
      <trkpt lat="43.2171010505" lon="2.3341726139">
        <ele>113.57</ele>
        <time>2017-07-31T10:46:26Z</time>
      </trkpt>
      <trkpt lat="43.2169408724" lon="2.3346183635">
        <ele>111.65</ele>
        <time>2017-07-31T10:46:34Z</time>
      </trkpt>
      <trkpt lat="43.2169115357" lon="2.3346741032">
        <ele>111.65</ele>
        <time>2017-07-31T10:46:35Z</time>
      </trkpt>
      <trkpt lat="43.2167552132" lon="2.3351600859">
        <ele>112.61</ele>
        <time>2017-07-31T10:46:44Z</time>
      </trkpt>
      <trkpt lat="43.2166148163" lon="2.3355638422">
        <ele>112.61</ele>
        <time>2017-07-31T10:46:53Z</time>
      </trkpt>
      <trkpt lat="43.2164662890" lon="2.3359870445">
        <ele>112.13</ele>
        <time>2017-07-31T10:47:02Z</time>
      </trkpt>
      <trkpt lat="43.2163112238" lon="2.3364638910">
        <ele>112.13</ele>
        <time>2017-07-31T10:47:12Z</time>
      </trkpt>
      <trkpt lat="43.2161591761" lon="2.3368846625">
        <ele>112.13</ele>
        <time>2017-07-31T10:47:21Z</time>
      </trkpt>
      <trkpt lat="43.2160864212" lon="2.3371657077">
        <ele>111.65</ele>
        <time>2017-07-31T10:47:28Z</time>
      </trkpt>
      <trkpt lat="43.2160904445" lon="2.3371877521">
        <ele>111.17</ele>
        <time>2017-07-31T10:47:29Z</time>
      </trkpt>
      <trkpt lat="43.2160877623" lon="2.3372058570">
        <ele>111.17</ele>
        <time>2017-07-31T10:47:30Z</time>
      </trkpt>
      <trkpt lat="43.2160616945" lon="2.3372705653">
        <ele>111.17</ele>
        <time>2017-07-31T10:47:33Z</time>
      </trkpt>
      <trkpt lat="43.2160017639" lon="2.3373556416">
        <ele>112.13</ele>
        <time>2017-07-31T10:47:38Z</time>
      </trkpt>
      <trkpt lat="43.2159989979" lon="2.3373876605">
        <ele>112.13</ele>
        <time>2017-07-31T10:47:39Z</time>
      </trkpt>
      <trkpt lat="43.2159646321" lon="2.3376599886">
        <ele>112.13</ele>
        <time>2017-07-31T10:47:47Z</time>
      </trkpt>
      <trkpt lat="43.2159769535" lon="2.3377073463">
        <ele>111.17</ele>
        <time>2017-07-31T10:47:49Z</time>
      </trkpt>
      <trkpt lat="43.2159798034" lon="2.3377298098">
        <ele>111.17</ele>
        <time>2017-07-31T10:47:50Z</time>
      </trkpt>
      <trkpt lat="43.2159770373" lon="2.3377494235">
        <ele>111.17</ele>
        <time>2017-07-31T10:47:51Z</time>
      </trkpt>
      <trkpt lat="43.2159777079" lon="2.3377810232">
        <ele>112.61</ele>
        <time>2017-07-31T10:48:01Z</time>
      </trkpt>
      <trkpt lat="43.2159767859" lon="2.3377899081">
        <ele>112.13</ele>
        <time>2017-07-31T10:48:21Z</time>
      </trkpt>
      <trkpt lat="43.2159682363" lon="2.3378093541">
        <ele>112.13</ele>
        <time>2017-07-31T10:48:40Z</time>
      </trkpt>
      <trkpt lat="43.2159668114" lon="2.3378121201">
        <ele>111.17</ele>
        <time>2017-07-31T10:48:55Z</time>
      </trkpt>
      <trkpt lat="43.2159623690" lon="2.3378095217">
        <ele>112.13</ele>
        <time>2017-07-31T10:49:10Z</time>
      </trkpt>
      <trkpt lat="43.2159596030" lon="2.3378104437">
        <ele>111.17</ele>
        <time>2017-07-31T10:49:31Z</time>
      </trkpt>
      <trkpt lat="43.2159593515" lon="2.3378233518">
        <ele>111.17</ele>
        <time>2017-07-31T10:49:32Z</time>
      </trkpt>
      <trkpt lat="43.2159540709" lon="2.3378393613">
        <ele>111.17</ele>
        <time>2017-07-31T10:49:33Z</time>
      </trkpt>
      <trkpt lat="43.2159468625" lon="2.3378561251">
        <ele>112.13</ele>
        <time>2017-07-31T10:49:34Z</time>
      </trkpt>
      <trkpt lat="43.2159403246" lon="2.3379023094">
        <ele>113.09</ele>
        <time>2017-07-31T10:49:36Z</time>
      </trkpt>
      <trkpt lat="43.2159084734" lon="2.3380842805">
        <ele>113.09</ele>
        <time>2017-07-31T10:49:43Z</time>
      </trkpt>
      <trkpt lat="43.2159129158" lon="2.3382250965">
        <ele>113.09</ele>
        <time>2017-07-31T10:49:48Z</time>
      </trkpt>
      <trkpt lat="43.2157793920" lon="2.3385642283">
        <ele>114.53</ele>
        <time>2017-07-31T10:49:59Z</time>
      </trkpt>
      <trkpt lat="43.2156480476" lon="2.3389315233">
        <ele>113.57</ele>
        <time>2017-07-31T10:50:09Z</time>
      </trkpt>
      <trkpt lat="43.2155032922" lon="2.3392647039">
        <ele>114.05</ele>
        <time>2017-07-31T10:50:19Z</time>
      </trkpt>
      <trkpt lat="43.2154582813" lon="2.3394264746">
        <ele>114.05</ele>
        <time>2017-07-31T10:50:28Z</time>
      </trkpt>
      <trkpt lat="43.2154623047" lon="2.3394386284">
        <ele>113.57</ele>
        <time>2017-07-31T10:50:47Z</time>
      </trkpt>
      <trkpt lat="43.2154695969" lon="2.3394466750">
        <ele>114.05</ele>
        <time>2017-07-31T10:51:09Z</time>
      </trkpt>
      <trkpt lat="43.2154664956" lon="2.3394337669">
        <ele>114.05</ele>
        <time>2017-07-31T10:51:33Z</time>
      </trkpt>
      <trkpt lat="43.2154649869" lon="2.3394351918">
        <ele>113.57</ele>
        <time>2017-07-31T10:51:47Z</time>
      </trkpt>
      <trkpt lat="43.2154644001" lon="2.3394535482">
        <ele>113.57</ele>
        <time>2017-07-31T10:51:48Z</time>
      </trkpt>
      <trkpt lat="43.2154643163" lon="2.3394733295">
        <ele>113.57</ele>
        <time>2017-07-31T10:51:49Z</time>
      </trkpt>
      <trkpt lat="43.2154628076" lon="2.3394934461">
        <ele>113.57</ele>
        <time>2017-07-31T10:51:50Z</time>
      </trkpt>
      <trkpt lat="43.2154583652" lon="2.3395186756">
        <ele>113.57</ele>
        <time>2017-07-31T10:51:51Z</time>
      </trkpt>
      <trkpt lat="43.2154499833" lon="2.3395486828">
        <ele>113.57</ele>
        <time>2017-07-31T10:51:52Z</time>
      </trkpt>
      <trkpt lat="43.2154366560" lon="2.3395811208">
        <ele>113.57</ele>
        <time>2017-07-31T10:51:53Z</time>
      </trkpt>
      <trkpt lat="43.2154229097" lon="2.3396159057">
        <ele>113.57</ele>
        <time>2017-07-31T10:51:54Z</time>
      </trkpt>
      <trkpt lat="43.2153169625" lon="2.3399415426">
        <ele>114.53</ele>
        <time>2017-07-31T10:52:02Z</time>
      </trkpt>
      <trkpt lat="43.2151845284" lon="2.3403352406">
        <ele>114.53</ele>
        <time>2017-07-31T10:52:12Z</time>
      </trkpt>
      <trkpt lat="43.2150769886" lon="2.3406376597">
        <ele>114.53</ele>
        <time>2017-07-31T10:52:20Z</time>
      </trkpt>
      <trkpt lat="43.2149573788" lon="2.3409539089">
        <ele>115.50</ele>
        <time>2017-07-31T10:52:29Z</time>
      </trkpt>
      <trkpt lat="43.2148260344" lon="2.3413201142">
        <ele>115.01</ele>
        <time>2017-07-31T10:52:38Z</time>
      </trkpt>
      <trkpt lat="43.2147362642" lon="2.3415787797">
        <ele>115.98</ele>
        <time>2017-07-31T10:52:44Z</time>
      </trkpt>
      <trkpt lat="43.2146342564" lon="2.3420265410">
        <ele>117.42</ele>
        <time>2017-07-31T10:52:54Z</time>
      </trkpt>
      <trkpt lat="43.2146097813" lon="2.3425153736">
        <ele>118.86</ele>
        <time>2017-07-31T10:53:05Z</time>
      </trkpt>
      <trkpt lat="43.2146074343" lon="2.3427686747">
        <ele>119.82</ele>
        <time>2017-07-31T10:53:14Z</time>
      </trkpt>
      <trkpt lat="43.2146189176" lon="2.3427720275">
        <ele>119.34</ele>
        <time>2017-07-31T10:53:40Z</time>
      </trkpt>
      <trkpt lat="43.2146145590" lon="2.3427683394">
        <ele>119.34</ele>
        <time>2017-07-31T10:54:06Z</time>
      </trkpt>
      <trkpt lat="43.2146111224" lon="2.3427752964">
        <ele>120.30</ele>
        <time>2017-07-31T10:54:19Z</time>
      </trkpt>
      <trkpt lat="43.2146191690" lon="2.3428257555">
        <ele>119.82</ele>
        <time>2017-07-31T10:54:21Z</time>
      </trkpt>
      <trkpt lat="43.2146206778" lon="2.3428599536">
        <ele>119.82</ele>
        <time>2017-07-31T10:54:22Z</time>
      </trkpt>
      <trkpt lat="43.2146120444" lon="2.3433301784">
        <ele>120.78</ele>
        <time>2017-07-31T10:54:33Z</time>
      </trkpt>
      <trkpt lat="43.2146089431" lon="2.3439017404">
        <ele>123.19</ele>
        <time>2017-07-31T10:54:46Z</time>
      </trkpt>
      <trkpt lat="43.2146115415" lon="2.3444965202">
        <ele>124.15</ele>
        <time>2017-07-31T10:55:00Z</time>
      </trkpt>
      <trkpt lat="43.2145841327" lon="2.3449394200">
        <ele>125.11</ele>
        <time>2017-07-31T10:55:13Z</time>
      </trkpt>
      <trkpt lat="43.2145827077" lon="2.3449333850">
        <ele>125.59</ele>
        <time>2017-07-31T10:55:33Z</time>
      </trkpt>
      <trkpt lat="43.2145673689" lon="2.3449188005">
        <ele>125.11</ele>
        <time>2017-07-31T10:55:48Z</time>
      </trkpt>
      <trkpt lat="43.2145678718" lon="2.3449437786">
        <ele>125.59</ele>
        <time>2017-07-31T10:55:49Z</time>
      </trkpt>
      <trkpt lat="43.2145684585" lon="2.3449764680">
        <ele>126.07</ele>
        <time>2017-07-31T10:55:50Z</time>
      </trkpt>
      <trkpt lat="43.2145612501" lon="2.3450501449">
        <ele>126.07</ele>
        <time>2017-07-31T10:55:52Z</time>
      </trkpt>
      <trkpt lat="43.2145419717" lon="2.3450661544">
        <ele>126.55</ele>
        <time>2017-07-31T10:55:53Z</time>
      </trkpt>
      <trkpt lat="43.2145133056" lon="2.3450660706">
        <ele>127.03</ele>
        <time>2017-07-31T10:55:54Z</time>
      </trkpt>
      <trkpt lat="43.2144807000" lon="2.3450654838">
        <ele>127.03</ele>
        <time>2017-07-31T10:55:55Z</time>
      </trkpt>
      <trkpt lat="43.2144478429" lon="2.3450649809">
        <ele>126.55</ele>
        <time>2017-07-31T10:55:56Z</time>
      </trkpt>
      <trkpt lat="43.2144183386" lon="2.3450650647">
        <ele>127.03</ele>
        <time>2017-07-31T10:55:57Z</time>
      </trkpt>
      <trkpt lat="43.2140666340" lon="2.3450607061">
        <ele>126.55</ele>
        <time>2017-07-31T10:56:08Z</time>
      </trkpt>
      <trkpt lat="43.2139814738" lon="2.3450609576">
        <ele>125.59</ele>
        <time>2017-07-31T10:56:10Z</time>
      </trkpt>
      <trkpt lat="43.2138904463" lon="2.3450608738">
        <ele>125.11</ele>
        <time>2017-07-31T10:56:12Z</time>
      </trkpt>
      <trkpt lat="43.2137641311" lon="2.3450493068">
        <ele>127.51</ele>
        <time>2017-07-31T10:56:15Z</time>
      </trkpt>
      <trkpt lat="43.2135722693" lon="2.3450865224">
        <ele>126.07</ele>
        <time>2017-07-31T10:56:21Z</time>
      </trkpt>
      <trkpt lat="43.2135332096" lon="2.3450939823">
        <ele>127.03</ele>
        <time>2017-07-31T10:56:22Z</time>
      </trkpt>
      <trkpt lat="43.2134935632" lon="2.3450915515">
        <ele>126.07</ele>
        <time>2017-07-31T10:56:23Z</time>
      </trkpt>
      <trkpt lat="43.2131984364" lon="2.3450554255">
        <ele>125.59</ele>
        <time>2017-07-31T10:56:30Z</time>
      </trkpt>
      <trkpt lat="43.2131545153" lon="2.3450530786">
        <ele>125.59</ele>
        <time>2017-07-31T10:56:31Z</time>
      </trkpt>
      <trkpt lat="43.2130668405" lon="2.3450456187">
        <ele>125.59</ele>
        <time>2017-07-31T10:56:33Z</time>
      </trkpt>
      <trkpt lat="43.2127484120" lon="2.3450262565">
        <ele>128.95</ele>
        <time>2017-07-31T10:56:41Z</time>
      </trkpt>
      <trkpt lat="43.2126804348" lon="2.3450326268">
        <ele>125.59</ele>
        <time>2017-07-31T10:56:43Z</time>
      </trkpt>
      <trkpt lat="43.2126421295" lon="2.3450282682">
        <ele>125.59</ele>
        <time>2017-07-31T10:56:44Z</time>
      </trkpt>
      <trkpt lat="43.2124238648" lon="2.3450274300">
        <ele>127.99</ele>
        <time>2017-07-31T10:56:49Z</time>
      </trkpt>
      <trkpt lat="43.2123795245" lon="2.3450349737">
        <ele>127.51</ele>
        <time>2017-07-31T10:56:50Z</time>
      </trkpt>
      <trkpt lat="43.2123328373" lon="2.3450369854">
        <ele>127.03</ele>
        <time>2017-07-31T10:56:51Z</time>
      </trkpt>
      <trkpt lat="43.2121991459" lon="2.3450257536">
        <ele>126.07</ele>
        <time>2017-07-31T10:56:54Z</time>
      </trkpt>
      <trkpt lat="43.2117331959" lon="2.3449902143">
        <ele>125.59</ele>
        <time>2017-07-31T10:57:05Z</time>
      </trkpt>
      <trkpt lat="43.2112231571" lon="2.3449744564">
        <ele>127.51</ele>
        <time>2017-07-31T10:57:17Z</time>
      </trkpt>
      <trkpt lat="43.2110141125" lon="2.3449604586">
        <ele>127.51</ele>
        <time>2017-07-31T10:57:22Z</time>
      </trkpt>
      <trkpt lat="43.2109255996" lon="2.3449578602">
        <ele>126.55</ele>
        <time>2017-07-31T10:57:24Z</time>
      </trkpt>
      <trkpt lat="43.2108798344" lon="2.3449559323">
        <ele>126.07</ele>
        <time>2017-07-31T10:57:25Z</time>
      </trkpt>
      <trkpt lat="43.2108370028" lon="2.3449566029">
        <ele>127.03</ele>
        <time>2017-07-31T10:57:26Z</time>
      </trkpt>
      <trkpt lat="43.2107448019" lon="2.3449624702">
        <ele>127.99</ele>
        <time>2017-07-31T10:57:28Z</time>
      </trkpt>
      <trkpt lat="43.2106131222" lon="2.3449842632">
        <ele>127.51</ele>
        <time>2017-07-31T10:57:31Z</time>
      </trkpt>
      <trkpt lat="43.2105735596" lon="2.3450048827">
        <ele>127.99</ele>
        <time>2017-07-31T10:57:32Z</time>
      </trkpt>
      <trkpt lat="43.2105425466" lon="2.3450419307">
        <ele>127.99</ele>
        <time>2017-07-31T10:57:33Z</time>
      </trkpt>
      <trkpt lat="43.2105234358" lon="2.3450921383">
        <ele>127.99</ele>
        <time>2017-07-31T10:57:34Z</time>
      </trkpt>
      <trkpt lat="43.2105094381" lon="2.3451518174">
        <ele>127.99</ele>
        <time>2017-07-31T10:57:35Z</time>
      </trkpt>
      <trkpt lat="43.2104982901" lon="2.3452135082">
        <ele>127.99</ele>
        <time>2017-07-31T10:57:36Z</time>
      </trkpt>
      <trkpt lat="43.2104217634" lon="2.3457294982">
        <ele>127.51</ele>
        <time>2017-07-31T10:57:45Z</time>
      </trkpt>
      <trkpt lat="43.2103741542" lon="2.3460360244">
        <ele>127.99</ele>
        <time>2017-07-31T10:57:50Z</time>
      </trkpt>
      <trkpt lat="43.2103622518" lon="2.3460947815">
        <ele>127.51</ele>
        <time>2017-07-31T10:57:51Z</time>
      </trkpt>
      <trkpt lat="43.2102888264" lon="2.3465353344">
        <ele>127.03</ele>
        <time>2017-07-31T10:58:00Z</time>
      </trkpt>
      <trkpt lat="43.2102728169" lon="2.3469711095">
        <ele>126.55</ele>
        <time>2017-07-31T10:58:07Z</time>
      </trkpt>
      <trkpt lat="43.2102830429" lon="2.3477808852">
        <ele>125.11</ele>
        <time>2017-07-31T10:58:19Z</time>
      </trkpt>
      <trkpt lat="43.2102885749" lon="2.3478524666">
        <ele>124.15</ele>
        <time>2017-07-31T10:58:20Z</time>
      </trkpt>
      <trkpt lat="43.2102943584" lon="2.3479258921">
        <ele>124.15</ele>
        <time>2017-07-31T10:58:21Z</time>
      </trkpt>
      <trkpt lat="43.2102946937" lon="2.3479994014">
        <ele>124.15</ele>
        <time>2017-07-31T10:58:22Z</time>
      </trkpt>
      <trkpt lat="43.2103052549" lon="2.3489196505">
        <ele>121.74</ele>
        <time>2017-07-31T10:58:34Z</time>
      </trkpt>
      <trkpt lat="43.2103167381" lon="2.3499547318">
        <ele>118.86</ele>
        <time>2017-07-31T10:58:46Z</time>
      </trkpt>
      <trkpt lat="43.2103323285" lon="2.3508596420">
        <ele>116.46</ele>
        <time>2017-07-31T10:58:56Z</time>
      </trkpt>
      <trkpt lat="43.2103567198" lon="2.3516928870">
        <ele>114.53</ele>
        <time>2017-07-31T10:59:06Z</time>
      </trkpt>
      <trkpt lat="43.2103609107" lon="2.3517707549">
        <ele>114.05</ele>
        <time>2017-07-31T10:59:07Z</time>
      </trkpt>
      <trkpt lat="43.2103626709" lon="2.3518526461">
        <ele>114.53</ele>
        <time>2017-07-31T10:59:08Z</time>
      </trkpt>
      <trkpt lat="43.2103638444" lon="2.3519347887">
        <ele>114.53</ele>
        <time>2017-07-31T10:59:09Z</time>
      </trkpt>
      <trkpt lat="43.2103642635" lon="2.3520164285">
        <ele>114.53</ele>
        <time>2017-07-31T10:59:10Z</time>
      </trkpt>
      <trkpt lat="43.2103620842" lon="2.3520959727">
        <ele>114.53</ele>
        <time>2017-07-31T10:59:11Z</time>
      </trkpt>
      <trkpt lat="43.2103489246" lon="2.3521718290">
        <ele>114.05</ele>
        <time>2017-07-31T10:59:12Z</time>
      </trkpt>
      <trkpt lat="43.2103230245" lon="2.3522384651">
        <ele>114.53</ele>
        <time>2017-07-31T10:59:13Z</time>
      </trkpt>
      <trkpt lat="43.2102890778" lon="2.3522968870">
        <ele>114.53</ele>
        <time>2017-07-31T10:59:14Z</time>
      </trkpt>
      <trkpt lat="43.2102499343" lon="2.3523475975">
        <ele>115.01</ele>
        <time>2017-07-31T10:59:15Z</time>
      </trkpt>
      <trkpt lat="43.2102132216" lon="2.3523968831">
        <ele>115.50</ele>
        <time>2017-07-31T10:59:16Z</time>
      </trkpt>
      <trkpt lat="43.2101863157" lon="2.3524521198">
        <ele>115.50</ele>
        <time>2017-07-31T10:59:17Z</time>
      </trkpt>
      <trkpt lat="43.2101730723" lon="2.3525141459">
        <ele>115.01</ele>
        <time>2017-07-31T10:59:18Z</time>
      </trkpt>
      <trkpt lat="43.2101740781" lon="2.3525774293">
        <ele>115.01</ele>
        <time>2017-07-31T10:59:19Z</time>
      </trkpt>
      <trkpt lat="43.2101868186" lon="2.3526366893">
        <ele>114.05</ele>
        <time>2017-07-31T10:59:20Z</time>
      </trkpt>
      <trkpt lat="43.2102068514" lon="2.3526889086">
        <ele>113.57</ele>
        <time>2017-07-31T10:59:21Z</time>
      </trkpt>
      <trkpt lat="43.2102325838" lon="2.3527364340">
        <ele>113.57</ele>
        <time>2017-07-31T10:59:22Z</time>
      </trkpt>
      <trkpt lat="43.2102625072" lon="2.3527798522">
        <ele>113.09</ele>
        <time>2017-07-31T10:59:23Z</time>
      </trkpt>
      <trkpt lat="43.2103392016" lon="2.3529183213">
        <ele>112.61</ele>
        <time>2017-07-31T10:59:26Z</time>
      </trkpt>
      <trkpt lat="43.2103513554" lon="2.3529772460">
        <ele>113.09</ele>
        <time>2017-07-31T10:59:27Z</time>
      </trkpt>
      <trkpt lat="43.2103559654" lon="2.3530396912">
        <ele>113.09</ele>
        <time>2017-07-31T10:59:28Z</time>
      </trkpt>
      <trkpt lat="43.2103609107" lon="2.3531712033">
        <ele>113.09</ele>
        <time>2017-07-31T10:59:30Z</time>
      </trkpt>
      <trkpt lat="43.2103626709" lon="2.3533042241">
        <ele>113.09</ele>
        <time>2017-07-31T10:59:32Z</time>
      </trkpt>
      <trkpt lat="43.2103663590" lon="2.3540760297">
        <ele>113.09</ele>
        <time>2017-07-31T10:59:44Z</time>
      </trkpt>
      <trkpt lat="43.2103576418" lon="2.3548286408">
        <ele>111.17</ele>
        <time>2017-07-31T10:59:56Z</time>
      </trkpt>
      <trkpt lat="43.2103685383" lon="2.3550733924">
        <ele>110.69</ele>
        <time>2017-07-31T11:00:00Z</time>
      </trkpt>
      <trkpt lat="43.2104049157" lon="2.3551878892">
        <ele>109.73</ele>
        <time>2017-07-31T11:00:02Z</time>
      </trkpt>
      <trkpt lat="43.2104387786" lon="2.3552316427">
        <ele>110.21</ele>
        <time>2017-07-31T11:00:03Z</time>
      </trkpt>
      <trkpt lat="43.2104837056" lon="2.3552583810">
        <ele>110.21</ele>
        <time>2017-07-31T11:00:04Z</time>
      </trkpt>
      <trkpt lat="43.2105395291" lon="2.3552721273">
        <ele>110.21</ele>
        <time>2017-07-31T11:00:05Z</time>
      </trkpt>
      <trkpt lat="43.2105852105" lon="2.3552826047">
        <ele>109.73</ele>
        <time>2017-07-31T11:00:06Z</time>
      </trkpt>
      <trkpt lat="43.2110721152" lon="2.3553208262">
        <ele>108.77</ele>
        <time>2017-07-31T11:00:16Z</time>
      </trkpt>
      <trkpt lat="43.2112663239" lon="2.3553272802">
        <ele>109.25</ele>
        <time>2017-07-31T11:00:20Z</time>
      </trkpt>
      <trkpt lat="43.2113724388" lon="2.3553520069">
        <ele>109.25</ele>
        <time>2017-07-31T11:00:22Z</time>
      </trkpt>
      <trkpt lat="43.2116492931" lon="2.3554219119">
        <ele>108.29</ele>
        <time>2017-07-31T11:00:30Z</time>
      </trkpt>
      <trkpt lat="43.2118070405" lon="2.3554762267">
        <ele>107.81</ele>
        <time>2017-07-31T11:00:35Z</time>
      </trkpt>
      <trkpt lat="43.2118496206" lon="2.3555318825">
        <ele>108.29</ele>
        <time>2017-07-31T11:00:36Z</time>
      </trkpt>
      <trkpt lat="43.2118602656" lon="2.3555633146">
        <ele>108.29</ele>
        <time>2017-07-31T11:00:40Z</time>
      </trkpt>
      <trkpt lat="43.2118755206" lon="2.3555949982">
        <ele>108.77</ele>
        <time>2017-07-31T11:00:42Z</time>
      </trkpt>
      <trkpt lat="43.2118774485" lon="2.3556207307">
        <ele>108.77</ele>
        <time>2017-07-31T11:00:43Z</time>
      </trkpt>
      <trkpt lat="43.2118691504" lon="2.3556427751">
        <ele>108.29</ele>
        <time>2017-07-31T11:00:44Z</time>
      </trkpt>
      <trkpt lat="43.2118576672" lon="2.3556661606">
        <ele>108.77</ele>
        <time>2017-07-31T11:00:45Z</time>
      </trkpt>
      <trkpt lat="43.2118507102" lon="2.3557012808">
        <ele>108.77</ele>
        <time>2017-07-31T11:00:46Z</time>
      </trkpt>
      <trkpt lat="43.2118429989" lon="2.3557374068">
        <ele>108.77</ele>
        <time>2017-07-31T11:00:47Z</time>
      </trkpt>
      <trkpt lat="43.2118341140" lon="2.3557779752">
        <ele>108.77</ele>
        <time>2017-07-31T11:00:48Z</time>
      </trkpt>
      <trkpt lat="43.2118269894" lon="2.3558247462">
        <ele>108.77</ele>
        <time>2017-07-31T11:00:49Z</time>
      </trkpt>
      <trkpt lat="43.2118191104" lon="2.3558765464">
        <ele>108.77</ele>
        <time>2017-07-31T11:00:50Z</time>
      </trkpt>
      <trkpt lat="43.2118092198" lon="2.3559309449">
        <ele>108.77</ele>
        <time>2017-07-31T11:00:51Z</time>
      </trkpt>
      <trkpt lat="43.2117505465" lon="2.3562057875">
        <ele>109.25</ele>
        <time>2017-07-31T11:00:56Z</time>
      </trkpt>
      <trkpt lat="43.2116283383" lon="2.3565708194">
        <ele>109.25</ele>
        <time>2017-07-31T11:01:03Z</time>
      </trkpt>
      <trkpt lat="43.2116212137" lon="2.3566375393">
        <ele>109.25</ele>
        <time>2017-07-31T11:01:04Z</time>
      </trkpt>
      <trkpt lat="43.2116097305" lon="2.3570775893">
        <ele>109.73</ele>
        <time>2017-07-31T11:01:10Z</time>
      </trkpt>
      <trkpt lat="43.2115891948" lon="2.3573919944">
        <ele>109.25</ele>
        <time>2017-07-31T11:01:14Z</time>
      </trkpt>
      <trkpt lat="43.2115978282" lon="2.3574618995">
        <ele>109.73</ele>
        <time>2017-07-31T11:01:15Z</time>
      </trkpt>
      <trkpt lat="43.2116178609" lon="2.3575222492">
        <ele>109.73</ele>
        <time>2017-07-31T11:01:16Z</time>
      </trkpt>
      <trkpt lat="43.2116509695" lon="2.3575726245">
        <ele>109.73</ele>
        <time>2017-07-31T11:01:17Z</time>
      </trkpt>
      <trkpt lat="43.2116933819" lon="2.3576141987">
        <ele>109.73</ele>
        <time>2017-07-31T11:01:18Z</time>
      </trkpt>
      <trkpt lat="43.2117386442" lon="2.3576444574">
        <ele>109.73</ele>
        <time>2017-07-31T11:01:19Z</time>
      </trkpt>
      <trkpt lat="43.2117792964" lon="2.3576787394">
        <ele>109.73</ele>
        <time>2017-07-31T11:01:20Z</time>
      </trkpt>
      <trkpt lat="43.2118184399" lon="2.3577339761">
        <ele>110.21</ele>
        <time>2017-07-31T11:01:21Z</time>
      </trkpt>
      <trkpt lat="43.2118480280" lon="2.3577918112">
        <ele>110.69</ele>
        <time>2017-07-31T11:01:22Z</time>
      </trkpt>
      <trkpt lat="43.2118692342" lon="2.3578511551">
        <ele>110.69</ele>
        <time>2017-07-31T11:01:23Z</time>
      </trkpt>
      <trkpt lat="43.2118779514" lon="2.3579059727">
        <ele>110.69</ele>
        <time>2017-07-31T11:01:24Z</time>
      </trkpt>
      <trkpt lat="43.2118745148" lon="2.3579600360">
        <ele>110.69</ele>
        <time>2017-07-31T11:01:25Z</time>
      </trkpt>
      <trkpt lat="43.2118072920" lon="2.3582070507">
        <ele>110.69</ele>
        <time>2017-07-31T11:01:30Z</time>
      </trkpt>
      <trkpt lat="43.2117861696" lon="2.3582556657">
        <ele>110.69</ele>
        <time>2017-07-31T11:01:31Z</time>
      </trkpt>
      <trkpt lat="43.2117715850" lon="2.3583078012">
        <ele>110.69</ele>
        <time>2017-07-31T11:01:32Z</time>
      </trkpt>
      <trkpt lat="43.2117580064" lon="2.3583592661">
        <ele>110.69</ele>
        <time>2017-07-31T11:01:33Z</time>
      </trkpt>
      <trkpt lat="43.2117432542" lon="2.3584108148">
        <ele>110.69</ele>
        <time>2017-07-31T11:01:34Z</time>
      </trkpt>
      <trkpt lat="43.2117300946" lon="2.3584621120">
        <ele>110.69</ele>
        <time>2017-07-31T11:01:35Z</time>
      </trkpt>
      <trkpt lat="43.2116559986" lon="2.3588095419">
        <ele>111.17</ele>
        <time>2017-07-31T11:01:45Z</time>
      </trkpt>
      <trkpt lat="43.2116626203" lon="2.3588182591">
        <ele>109.73</ele>
        <time>2017-07-31T11:02:00Z</time>
      </trkpt>
      <trkpt lat="43.2116549928" lon="2.3588143196">
        <ele>111.17</ele>
        <time>2017-07-31T11:02:25Z</time>
      </trkpt>
      <trkpt lat="43.2116557471" lon="2.3588306643">
        <ele>110.69</ele>
        <time>2017-07-31T11:02:29Z</time>
      </trkpt>
      <trkpt lat="43.2116399892" lon="2.3589096218">
        <ele>109.73</ele>
        <time>2017-07-31T11:02:32Z</time>
      </trkpt>
      <trkpt lat="43.2116295956" lon="2.3589427304">
        <ele>109.25</ele>
        <time>2017-07-31T11:02:33Z</time>
      </trkpt>
      <trkpt lat="43.2115482073" lon="2.3592993803">
        <ele>110.21</ele>
        <time>2017-07-31T11:02:41Z</time>
      </trkpt>
      <trkpt lat="43.2113969140" lon="2.3597990256">
        <ele>110.69</ele>
        <time>2017-07-31T11:02:51Z</time>
      </trkpt>
      <trkpt lat="43.2112078182" lon="2.3604769539">
        <ele>111.65</ele>
        <time>2017-07-31T11:03:04Z</time>
      </trkpt>
      <trkpt lat="43.2110789884" lon="2.3609580752">
        <ele>111.17</ele>
        <time>2017-07-31T11:03:13Z</time>
      </trkpt>
      <trkpt lat="43.2108728774" lon="2.3617001250">
        <ele>111.17</ele>
        <time>2017-07-31T11:03:26Z</time>
      </trkpt>
      <trkpt lat="43.2108397689" lon="2.3618104309">
        <ele>110.69</ele>
        <time>2017-07-31T11:03:28Z</time>
      </trkpt>
      <trkpt lat="43.2107710373" lon="2.3620299529">
        <ele>111.65</ele>
        <time>2017-07-31T11:03:32Z</time>
      </trkpt>
      <trkpt lat="43.2107508369" lon="2.3620824236">
        <ele>112.13</ele>
        <time>2017-07-31T11:03:33Z</time>
      </trkpt>
      <trkpt lat="43.2107209973" lon="2.3621861916">
        <ele>111.65</ele>
        <time>2017-07-31T11:03:35Z</time>
      </trkpt>
      <trkpt lat="43.2107072510" lon="2.3622391652">
        <ele>111.65</ele>
        <time>2017-07-31T11:03:36Z</time>
      </trkpt>
      <trkpt lat="43.2106922474" lon="2.3622942343">
        <ele>111.65</ele>
        <time>2017-07-31T11:03:37Z</time>
      </trkpt>
      <trkpt lat="43.2106779981" lon="2.3623482976">
        <ele>111.65</ele>
        <time>2017-07-31T11:03:38Z</time>
      </trkpt>
      <trkpt lat="43.2106624916" lon="2.3624001816">
        <ele>111.65</ele>
        <time>2017-07-31T11:03:39Z</time>
      </trkpt>
      <trkpt lat="43.2104743179" lon="2.3631149903">
        <ele>110.69</ele>
        <time>2017-07-31T11:03:53Z</time>
      </trkpt>
      <trkpt lat="43.2104433049" lon="2.3632175010">
        <ele>110.69</ele>
        <time>2017-07-31T11:03:55Z</time>
      </trkpt>
      <trkpt lat="43.2104234397" lon="2.3632697202">
        <ele>110.21</ele>
        <time>2017-07-31T11:03:56Z</time>
      </trkpt>
      <trkpt lat="43.2104075141" lon="2.3633212689">
        <ele>110.69</ele>
        <time>2017-07-31T11:03:57Z</time>
      </trkpt>
      <trkpt lat="43.2102630939" lon="2.3637871351">
        <ele>111.17</ele>
        <time>2017-07-31T11:04:07Z</time>
      </trkpt>
      <trkpt lat="43.2101685461" lon="2.3641261831">
        <ele>111.17</ele>
        <time>2017-07-31T11:04:17Z</time>
      </trkpt>
      <trkpt lat="43.2101601642" lon="2.3641830962">
        <ele>112.13</ele>
        <time>2017-07-31T11:04:29Z</time>
      </trkpt>
      <trkpt lat="43.2100187615" lon="2.3647291772">
        <ele>113.09</ele>
        <time>2017-07-31T11:04:40Z</time>
      </trkpt>
      <trkpt lat="43.2098926138" lon="2.3652346898">
        <ele>113.57</ele>
        <time>2017-07-31T11:04:50Z</time>
      </trkpt>
      <trkpt lat="43.2097854931" lon="2.3655849695">
        <ele>115.50</ele>
        <time>2017-07-31T11:04:57Z</time>
      </trkpt>
      <trkpt lat="43.2096730918" lon="2.3659398593">
        <ele>115.50</ele>
        <time>2017-07-31T11:05:04Z</time>
      </trkpt>
      <trkpt lat="43.2096497901" lon="2.3659928329">
        <ele>115.50</ele>
        <time>2017-07-31T11:05:05Z</time>
      </trkpt>
      <trkpt lat="43.2096164301" lon="2.3660939187">
        <ele>115.98</ele>
        <time>2017-07-31T11:05:07Z</time>
      </trkpt>
      <trkpt lat="43.2096018456" lon="2.3661453836">
        <ele>115.98</ele>
        <time>2017-07-31T11:05:08Z</time>
      </trkpt>
      <trkpt lat="43.2095315214" lon="2.3663462140">
        <ele>116.94</ele>
        <time>2017-07-31T11:05:12Z</time>
      </trkpt>
      <trkpt lat="43.2094419189" lon="2.3665974196">
        <ele>116.46</ele>
        <time>2017-07-31T11:05:17Z</time>
      </trkpt>
      <trkpt lat="43.2094213832" lon="2.3666459508">
        <ele>116.46</ele>
        <time>2017-07-31T11:05:18Z</time>
      </trkpt>
      <trkpt lat="43.2092549186" lon="2.3671608511">
        <ele>117.90</ele>
        <time>2017-07-31T11:05:29Z</time>
      </trkpt>
      <trkpt lat="43.2091184612" lon="2.3676320817">
        <ele>118.38</ele>
        <time>2017-07-31T11:05:39Z</time>
      </trkpt>
      <trkpt lat="43.2091010269" lon="2.3677200917">
        <ele>119.34</ele>
        <time>2017-07-31T11:05:41Z</time>
      </trkpt>
      <trkpt lat="43.2089886256" lon="2.3682067450">
        <ele>118.86</ele>
        <time>2017-07-31T11:05:52Z</time>
      </trkpt>
      <trkpt lat="43.2088674232" lon="2.3687221482">
        <ele>121.26</ele>
        <time>2017-07-31T11:06:03Z</time>
      </trkpt>
      <trkpt lat="43.2088296209" lon="2.3689087294">
        <ele>122.22</ele>
        <time>2017-07-31T11:06:07Z</time>
      </trkpt>
      <trkpt lat="43.2087646611" lon="2.3693591729">
        <ele>121.74</ele>
        <time>2017-07-31T11:06:17Z</time>
      </trkpt>
      <trkpt lat="43.2086591329" lon="2.3697455786">
        <ele>122.22</ele>
        <time>2017-07-31T11:06:26Z</time>
      </trkpt>
      <trkpt lat="43.2085514255" lon="2.3701360077">
        <ele>122.71</ele>
        <time>2017-07-31T11:06:34Z</time>
      </trkpt>
      <trkpt lat="43.2084237691" lon="2.3706579488">
        <ele>122.71</ele>
        <time>2017-07-31T11:06:44Z</time>
      </trkpt>
      <trkpt lat="43.2083375193" lon="2.3709519021">
        <ele>123.19</ele>
        <time>2017-07-31T11:06:50Z</time>
      </trkpt>
      <trkpt lat="43.2083075959" lon="2.3709992599">
        <ele>122.71</ele>
        <time>2017-07-31T11:06:51Z</time>
      </trkpt>
      <trkpt lat="43.2082933467" lon="2.3710438516">
        <ele>123.19</ele>
        <time>2017-07-31T11:06:52Z</time>
      </trkpt>
      <trkpt lat="43.2081893273" lon="2.3714569956">
        <ele>122.71</ele>
        <time>2017-07-31T11:07:01Z</time>
      </trkpt>
      <trkpt lat="43.2080906723" lon="2.3718690500">
        <ele>122.71</ele>
        <time>2017-07-31T11:07:10Z</time>
      </trkpt>
      <trkpt lat="43.2079776004" lon="2.3724385165">
        <ele>125.59</ele>
        <time>2017-07-31T11:07:22Z</time>
      </trkpt>
      <trkpt lat="43.2079060189" lon="2.3731093202">
        <ele>125.11</ele>
        <time>2017-07-31T11:07:35Z</time>
      </trkpt>
      <trkpt lat="43.2078807056" lon="2.3734269105">
        <ele>125.59</ele>
        <time>2017-07-31T11:07:41Z</time>
      </trkpt>
      <trkpt lat="43.2078746706" lon="2.3734799679">
        <ele>124.63</ele>
        <time>2017-07-31T11:07:42Z</time>
      </trkpt>
      <trkpt lat="43.2078701444" lon="2.3735301755">
        <ele>126.55</ele>
        <time>2017-07-31T11:07:43Z</time>
      </trkpt>
      <trkpt lat="43.2078275643" lon="2.3741951119">
        <ele>124.15</ele>
        <time>2017-07-31T11:07:56Z</time>
      </trkpt>
      <trkpt lat="43.2078170869" lon="2.3742975388">
        <ele>127.99</ele>
        <time>2017-07-31T11:07:58Z</time>
      </trkpt>
      <trkpt lat="43.2078071963" lon="2.3744534422">
        <ele>123.67</ele>
        <time>2017-07-31T11:08:01Z</time>
      </trkpt>
      <trkpt lat="43.2078027539" lon="2.3745088466">
        <ele>125.11</ele>
        <time>2017-07-31T11:08:02Z</time>
      </trkpt>
      <trkpt lat="43.2077919412" lon="2.3746130336">
        <ele>128.47</ele>
        <time>2017-07-31T11:08:04Z</time>
      </trkpt>
      <trkpt lat="43.2077755127" lon="2.3749546800">
        <ele>125.11</ele>
        <time>2017-07-31T11:08:11Z</time>
      </trkpt>
      <trkpt lat="43.2077743392" lon="2.3750027083">
        <ele>128.95</ele>
        <time>2017-07-31T11:08:12Z</time>
      </trkpt>
      <trkpt lat="43.2077730820" lon="2.3750521615">
        <ele>127.99</ele>
        <time>2017-07-31T11:08:13Z</time>
      </trkpt>
      <trkpt lat="43.2077666279" lon="2.3751505651">
        <ele>125.11</ele>
        <time>2017-07-31T11:08:15Z</time>
      </trkpt>
      <trkpt lat="43.2077612635" lon="2.3751991801">
        <ele>130.40</ele>
        <time>2017-07-31T11:08:16Z</time>
      </trkpt>
      <trkpt lat="43.2077450026" lon="2.3754923791">
        <ele>127.03</ele>
        <time>2017-07-31T11:08:22Z</time>
      </trkpt>
      <trkpt lat="43.2076895982" lon="2.3760635220">
        <ele>129.43</ele>
        <time>2017-07-31T11:08:34Z</time>
      </trkpt>
      <trkpt lat="43.2076359540" lon="2.3765405361">
        <ele>130.88</ele>
        <time>2017-07-31T11:08:43Z</time>
      </trkpt>
      <trkpt lat="43.2076292485" lon="2.3767082579">
        <ele>128.95</ele>
        <time>2017-07-31T11:08:46Z</time>
      </trkpt>
      <trkpt lat="43.2076094672" lon="2.3770394269">
        <ele>132.32</ele>
        <time>2017-07-31T11:08:52Z</time>
      </trkpt>
      <trkpt lat="43.2076057792" lon="2.3770933226">
        <ele>128.95</ele>
        <time>2017-07-31T11:08:53Z</time>
      </trkpt>
      <trkpt lat="43.2001033053" lon="2.3533950839">
        <ele>76.08</ele>
        <time>2017-08-01T07:46:26Z</time>
      </trkpt>
      <trkpt lat="43.2001137827" lon="2.3533841036">
        <ele>76.56</ele>
        <time>2017-08-01T07:46:42Z</time>
      </trkpt>
      <trkpt lat="43.2001251820" lon="2.3533757217">
        <ele>80.89</ele>
        <time>2017-08-01T07:46:55Z</time>
      </trkpt>
      <trkpt lat="43.2001286186" lon="2.3533763085">
        <ele>85.69</ele>
        <time>2017-08-01T07:46:59Z</time>
      </trkpt>
      <trkpt lat="43.2001323067" lon="2.3533818405">
        <ele>86.66</ele>
        <time>2017-08-01T07:47:01Z</time>
      </trkpt>
      <trkpt lat="43.2001411915" lon="2.3533845227">
        <ele>90.02</ele>
        <time>2017-08-01T07:47:04Z</time>
      </trkpt>
      <trkpt lat="43.2001441251" lon="2.3533854447">
        <ele>88.58</ele>
        <time>2017-08-01T07:47:05Z</time>
      </trkpt>
      <trkpt lat="43.2001504116" lon="2.3533851933">
        <ele>91.94</ele>
        <time>2017-08-01T07:47:07Z</time>
      </trkpt>
      <trkpt lat="43.2001539320" lon="2.3533861153">
        <ele>91.46</ele>
        <time>2017-08-01T07:47:08Z</time>
      </trkpt>
      <trkpt lat="43.2001742162" lon="2.3533771466">
        <ele>94.83</ele>
        <time>2017-08-01T07:47:14Z</time>
      </trkpt>
      <trkpt lat="43.2001838554" lon="2.3533799965">
        <ele>96.75</ele>
        <time>2017-08-01T07:47:19Z</time>
      </trkpt>
      <trkpt lat="43.2001224998" lon="2.3535493948">
        <ele>99.15</ele>
        <time>2017-08-01T07:47:27Z</time>
      </trkpt>
      <trkpt lat="43.2000012137" lon="2.3536989279">
        <ele>102.52</ele>
        <time>2017-08-01T07:47:35Z</time>
      </trkpt>
      <trkpt lat="43.1999619026" lon="2.3538945615">
        <ele>104.92</ele>
        <time>2017-08-01T07:47:44Z</time>
      </trkpt>
      <trkpt lat="43.1999457255" lon="2.3543043528">
        <ele>106.36</ele>
        <time>2017-08-01T07:47:54Z</time>
      </trkpt>
      <trkpt lat="43.1998633314" lon="2.3547656089">
        <ele>106.84</ele>
        <time>2017-08-01T07:48:02Z</time>
      </trkpt>
      <trkpt lat="43.1996930111" lon="2.3557377420">
        <ele>107.81</ele>
        <time>2017-08-01T07:48:17Z</time>
      </trkpt>
      <trkpt lat="43.1996597350" lon="2.3564743437">
        <ele>108.77</ele>
        <time>2017-08-01T07:48:28Z</time>
      </trkpt>
      <trkpt lat="43.1996615790" lon="2.3565367889">
        <ele>108.77</ele>
        <time>2017-08-01T07:48:29Z</time>
      </trkpt>
      <trkpt lat="43.1996625848" lon="2.3565963842">
        <ele>108.77</ele>
        <time>2017-08-01T07:48:30Z</time>
      </trkpt>
      <trkpt lat="43.1997132953" lon="2.3572220095">
        <ele>109.73</ele>
        <time>2017-08-01T07:48:41Z</time>
      </trkpt>
      <trkpt lat="43.1998903211" lon="2.3579176236">
        <ele>109.25</ele>
        <time>2017-08-01T07:48:53Z</time>
      </trkpt>
      <trkpt lat="43.1999147963" lon="2.3579731956">
        <ele>109.25</ele>
        <time>2017-08-01T07:48:54Z</time>
      </trkpt>
      <trkpt lat="43.1999432947" lon="2.3580252472">
        <ele>109.25</ele>
        <time>2017-08-01T07:48:55Z</time>
      </trkpt>
      <trkpt lat="43.2000102662" lon="2.3581202142">
        <ele>109.25</ele>
        <time>2017-08-01T07:48:57Z</time>
      </trkpt>
      <trkpt lat="43.2000483200" lon="2.3581575137">
        <ele>109.25</ele>
        <time>2017-08-01T07:48:58Z</time>
      </trkpt>
      <trkpt lat="43.2001754735" lon="2.3582571745">
        <ele>109.25</ele>
        <time>2017-08-01T07:49:01Z</time>
      </trkpt>
      <trkpt lat="43.2002232503" lon="2.3582799733">
        <ele>109.25</ele>
        <time>2017-08-01T07:49:02Z</time>
      </trkpt>
      <trkpt lat="43.2002735417" lon="2.3582984135">
        <ele>109.25</ele>
        <time>2017-08-01T07:49:03Z</time>
      </trkpt>
      <trkpt lat="43.2003239170" lon="2.3583171889">
        <ele>109.25</ele>
        <time>2017-08-01T07:49:04Z</time>
      </trkpt>
      <trkpt lat="43.2003743760" lon="2.3583378084">
        <ele>109.25</ele>
        <time>2017-08-01T07:49:05Z</time>
      </trkpt>
      <trkpt lat="43.2008215506" lon="2.3586253915">
        <ele>108.77</ele>
        <time>2017-08-01T07:49:14Z</time>
      </trkpt>
      <trkpt lat="43.2009746879" lon="2.3588190135">
        <ele>109.25</ele>
        <time>2017-08-01T07:49:18Z</time>
      </trkpt>
      <trkpt lat="43.2009996660" lon="2.3588737473">
        <ele>109.25</ele>
        <time>2017-08-01T07:49:19Z</time>
      </trkpt>
      <trkpt lat="43.2010171004" lon="2.3589238711">
        <ele>109.25</ele>
        <time>2017-08-01T07:49:20Z</time>
      </trkpt>
      <trkpt lat="43.2010297570" lon="2.3589631822">
        <ele>109.25</ele>
        <time>2017-08-01T07:49:21Z</time>
      </trkpt>
      <trkpt lat="43.2010357082" lon="2.3589905072">
        <ele>109.25</ele>
        <time>2017-08-01T07:49:22Z</time>
      </trkpt>
      <trkpt lat="43.2010280807" lon="2.3590806965">
        <ele>109.73</ele>
        <time>2017-08-01T07:49:31Z</time>
      </trkpt>
      <trkpt lat="43.2010294218" lon="2.3591178283">
        <ele>109.73</ele>
        <time>2017-08-01T07:49:32Z</time>
      </trkpt>
      <trkpt lat="43.2010404021" lon="2.3591623362">
        <ele>109.73</ele>
        <time>2017-08-01T07:49:33Z</time>
      </trkpt>
      <trkpt lat="43.2010595966" lon="2.3592068441">
        <ele>109.73</ele>
        <time>2017-08-01T07:49:34Z</time>
      </trkpt>
      <trkpt lat="43.2010814734" lon="2.3592500947">
        <ele>109.73</ele>
        <time>2017-08-01T07:49:35Z</time>
      </trkpt>
      <trkpt lat="43.2011030987" lon="2.3592937645">
        <ele>109.73</ele>
        <time>2017-08-01T07:49:36Z</time>
      </trkpt>
      <trkpt lat="43.2011214551" lon="2.3593409546">
        <ele>109.73</ele>
        <time>2017-08-01T07:49:37Z</time>
      </trkpt>
      <trkpt lat="43.2011398114" lon="2.3593839537">
        <ele>109.25</ele>
        <time>2017-08-01T07:49:38Z</time>
      </trkpt>
      <trkpt lat="43.2011585031" lon="2.3594277911">
        <ele>109.73</ele>
        <time>2017-08-01T07:49:39Z</time>
      </trkpt>
      <trkpt lat="43.2011745125" lon="2.3594759032">
        <ele>109.73</ele>
        <time>2017-08-01T07:49:40Z</time>
      </trkpt>
      <trkpt lat="43.2011918630" lon="2.3595266137">
        <ele>109.73</ele>
        <time>2017-08-01T07:49:41Z</time>
      </trkpt>
      <trkpt lat="43.2012133207" lon="2.3595727142">
        <ele>109.73</ele>
        <time>2017-08-01T07:49:42Z</time>
      </trkpt>
      <trkpt lat="43.2012396399" lon="2.3596163839">
        <ele>109.73</ele>
        <time>2017-08-01T07:49:43Z</time>
      </trkpt>
      <trkpt lat="43.2012699824" lon="2.3596602213">
        <ele>109.73</ele>
        <time>2017-08-01T07:49:44Z</time>
      </trkpt>
      <trkpt lat="43.2013030071" lon="2.3597013764">
        <ele>109.73</ele>
        <time>2017-08-01T07:49:45Z</time>
      </trkpt>
      <trkpt lat="43.2015338447" lon="2.3599325493">
        <ele>108.77</ele>
        <time>2017-08-01T07:49:51Z</time>
      </trkpt>
      <trkpt lat="43.2015859801" lon="2.3599492293">
        <ele>108.77</ele>
        <time>2017-08-01T07:49:52Z</time>
      </trkpt>
      <trkpt lat="43.2016422227" lon="2.3599501513">
        <ele>108.77</ele>
        <time>2017-08-01T07:49:53Z</time>
      </trkpt>
      <trkpt lat="43.2017022371" lon="2.3599406797">
        <ele>108.29</ele>
        <time>2017-08-01T07:49:54Z</time>
      </trkpt>
      <trkpt lat="43.2017666101" lon="2.3599267658">
        <ele>107.81</ele>
        <time>2017-08-01T07:49:55Z</time>
      </trkpt>
      <trkpt lat="43.2026351430" lon="2.3597130273">
        <ele>106.36</ele>
        <time>2017-08-01T07:50:08Z</time>
      </trkpt>
      <trkpt lat="43.2027010247" lon="2.3597219121">
        <ele>106.36</ele>
        <time>2017-08-01T07:50:09Z</time>
      </trkpt>
      <trkpt lat="43.2032046095" lon="2.3599475529">
        <ele>106.36</ele>
        <time>2017-08-01T07:50:17Z</time>
      </trkpt>
      <trkpt lat="43.2038141415" lon="2.3603601940">
        <ele>105.88</ele>
        <time>2017-08-01T07:50:29Z</time>
      </trkpt>
      <trkpt lat="43.2038618345" lon="2.3603732698">
        <ele>105.88</ele>
        <time>2017-08-01T07:50:30Z</time>
      </trkpt>
      <trkpt lat="43.2039113715" lon="2.3603764549">
        <ele>105.88</ele>
        <time>2017-08-01T07:50:31Z</time>
      </trkpt>
      <trkpt lat="43.2039602380" lon="2.3603689112">
        <ele>105.88</ele>
        <time>2017-08-01T07:50:32Z</time>
      </trkpt>
      <trkpt lat="43.2040081825" lon="2.3603580985">
        <ele>106.36</ele>
        <time>2017-08-01T07:50:33Z</time>
      </trkpt>
      <trkpt lat="43.2044250984" lon="2.3602682445">
        <ele>106.84</ele>
        <time>2017-08-01T07:50:43Z</time>
      </trkpt>
      <trkpt lat="43.2044680137" lon="2.3602683283">
        <ele>106.84</ele>
        <time>2017-08-01T07:50:44Z</time>
      </trkpt>
      <trkpt lat="43.2045078278" lon="2.3602745309">
        <ele>106.36</ele>
        <time>2017-08-01T07:50:45Z</time>
      </trkpt>
      <trkpt lat="43.2049580198" lon="2.3603928834">
        <ele>105.88</ele>
        <time>2017-08-01T07:50:56Z</time>
      </trkpt>
      <trkpt lat="43.2050913759" lon="2.3604314402">
        <ele>105.40</ele>
        <time>2017-08-01T07:50:59Z</time>
      </trkpt>
      <trkpt lat="43.2051335368" lon="2.3604462761">
        <ele>105.40</ele>
        <time>2017-08-01T07:51:00Z</time>
      </trkpt>
      <trkpt lat="43.2052767836" lon="2.3604692426">
        <ele>104.92</ele>
        <time>2017-08-01T07:51:03Z</time>
      </trkpt>
      <trkpt lat="43.2053217106" lon="2.3604821507">
        <ele>104.92</ele>
        <time>2017-08-01T07:51:04Z</time>
      </trkpt>
      <trkpt lat="43.2053669728" lon="2.3604944721">
        <ele>104.44</ele>
        <time>2017-08-01T07:51:05Z</time>
      </trkpt>
      <trkpt lat="43.2058332581" lon="2.3605737649">
        <ele>104.44</ele>
        <time>2017-08-01T07:51:15Z</time>
      </trkpt>
      <trkpt lat="43.2062161434" lon="2.3606480286">
        <ele>103.96</ele>
        <time>2017-08-01T07:51:24Z</time>
      </trkpt>
      <trkpt lat="43.2065221667" lon="2.3607846536">
        <ele>103.48</ele>
        <time>2017-08-01T07:51:34Z</time>
      </trkpt>
      <trkpt lat="43.2067547645" lon="2.3610966280">
        <ele>103.48</ele>
        <time>2017-08-01T07:51:44Z</time>
      </trkpt>
      <trkpt lat="43.2070553396" lon="2.3612188362">
        <ele>104.44</ele>
        <time>2017-08-01T07:51:54Z</time>
      </trkpt>
      <trkpt lat="43.2073006779" lon="2.3613055889">
        <ele>103.96</ele>
        <time>2017-08-01T07:52:03Z</time>
      </trkpt>
      <trkpt lat="43.2073918730" lon="2.3612913396">
        <ele>103.96</ele>
        <time>2017-08-01T07:52:06Z</time>
      </trkpt>
      <trkpt lat="43.2077218685" lon="2.3612392880">
        <ele>103.00</ele>
        <time>2017-08-01T07:52:16Z</time>
      </trkpt>
      <trkpt lat="43.2079366967" lon="2.3611761723">
        <ele>103.00</ele>
        <time>2017-08-01T07:52:24Z</time>
      </trkpt>
      <trkpt lat="43.2082252018" lon="2.3610094562">
        <ele>103.48</ele>
        <time>2017-08-01T07:52:32Z</time>
      </trkpt>
      <trkpt lat="43.2084484957" lon="2.3608802073">
        <ele>103.48</ele>
        <time>2017-08-01T07:52:38Z</time>
      </trkpt>
      <trkpt lat="43.2085943408" lon="2.3607962206">
        <ele>103.00</ele>
        <time>2017-08-01T07:52:42Z</time>
      </trkpt>
      <trkpt lat="43.2090471312" lon="2.3605628684">
        <ele>103.00</ele>
        <time>2017-08-01T07:52:52Z</time>
      </trkpt>
      <trkpt lat="43.2091405056" lon="2.3605213780">
        <ele>103.00</ele>
        <time>2017-08-01T07:52:54Z</time>
      </trkpt>
      <trkpt lat="43.2092358917" lon="2.3604932148">
        <ele>103.00</ele>
        <time>2017-08-01T07:52:56Z</time>
      </trkpt>
      <trkpt lat="43.2092789747" lon="2.3604732659">
        <ele>103.00</ele>
        <time>2017-08-01T07:52:57Z</time>
      </trkpt>
      <trkpt lat="43.2093183696" lon="2.3604450189">
        <ele>102.52</ele>
        <time>2017-08-01T07:52:58Z</time>
      </trkpt>
      <trkpt lat="43.2093516458" lon="2.3604081385">
        <ele>103.00</ele>
        <time>2017-08-01T07:52:59Z</time>
      </trkpt>
      <trkpt lat="43.2093777973" lon="2.3603643011">
        <ele>102.52</ele>
        <time>2017-08-01T07:53:00Z</time>
      </trkpt>
      <trkpt lat="43.2094021048" lon="2.3603205476">
        <ele>102.52</ele>
        <time>2017-08-01T07:53:01Z</time>
      </trkpt>
      <trkpt lat="43.2094344590" lon="2.3602876905">
        <ele>102.52</ele>
        <time>2017-08-01T07:53:02Z</time>
      </trkpt>
      <trkpt lat="43.2094731834" lon="2.3602798115">
        <ele>102.52</ele>
        <time>2017-08-01T07:53:03Z</time>
      </trkpt>
      <trkpt lat="43.2095135842" lon="2.3602966592">
        <ele>102.52</ele>
        <time>2017-08-01T07:53:04Z</time>
      </trkpt>
      <trkpt lat="43.2095530629" lon="2.3603239842">
        <ele>102.52</ele>
        <time>2017-08-01T07:53:05Z</time>
      </trkpt>
      <trkpt lat="43.2095875964" lon="2.3603487946">
        <ele>102.52</ele>
        <time>2017-08-01T07:53:06Z</time>
      </trkpt>
      <trkpt lat="43.2096212916" lon="2.3603686597">
        <ele>102.52</ele>
        <time>2017-08-01T07:53:07Z</time>
      </trkpt>
      <trkpt lat="43.2098465133" lon="2.3604941368">
        <ele>103.00</ele>
        <time>2017-08-01T07:53:15Z</time>
      </trkpt>
      <trkpt lat="43.2098605949" lon="2.3605338670">
        <ele>103.00</ele>
        <time>2017-08-01T07:53:16Z</time>
      </trkpt>
      <trkpt lat="43.2098640315" lon="2.3605722561">
        <ele>103.00</ele>
        <time>2017-08-01T07:53:17Z</time>
      </trkpt>
      <trkpt lat="43.2098610140" lon="2.3606137466">
        <ele>103.00</ele>
        <time>2017-08-01T07:53:18Z</time>
      </trkpt>
      <trkpt lat="43.2098547276" lon="2.3606536444">
        <ele>103.00</ele>
        <time>2017-08-01T07:53:19Z</time>
      </trkpt>
      <trkpt lat="43.2098457590" lon="2.3606913630">
        <ele>103.00</ele>
        <time>2017-08-01T07:53:20Z</time>
      </trkpt>
      <trkpt lat="43.2097761892" lon="2.3609289899">
        <ele>103.00</ele>
        <time>2017-08-01T07:53:27Z</time>
      </trkpt>
      <trkpt lat="43.2097791228" lon="2.3609590810">
        <ele>103.00</ele>
        <time>2017-08-01T07:53:28Z</time>
      </trkpt>
      <trkpt lat="43.2097953837" lon="2.3609751742">
        <ele>103.48</ele>
        <time>2017-08-01T07:53:29Z</time>
      </trkpt>
      <trkpt lat="43.2098173443" lon="2.3609725758">
        <ele>103.48</ele>
        <time>2017-08-01T07:53:30Z</time>
      </trkpt>
      <trkpt lat="43.2098372094" lon="2.3609589972">
        <ele>103.48</ele>
        <time>2017-08-01T07:53:31Z</time>
      </trkpt>
      <trkpt lat="43.2098551467" lon="2.3609387968">
        <ele>103.48</ele>
        <time>2017-08-01T07:53:32Z</time>
      </trkpt>
      <trkpt lat="43.2098728325" lon="2.3609182611">
        <ele>103.48</ele>
        <time>2017-08-01T07:53:33Z</time>
      </trkpt>
      <trkpt lat="43.2098891772" lon="2.3608946241">
        <ele>103.96</ele>
        <time>2017-08-01T07:53:34Z</time>
      </trkpt>
      <trkpt lat="43.2099030912" lon="2.3608662933">
        <ele>103.96</ele>
        <time>2017-08-01T07:53:35Z</time>
      </trkpt>
      <trkpt lat="43.2099734992" lon="2.3605689872">
        <ele>106.84</ele>
        <time>2017-08-01T07:53:45Z</time>
      </trkpt>
      <trkpt lat="43.2100513671" lon="2.3602358066">
        <ele>108.29</ele>
        <time>2017-08-01T07:53:57Z</time>
      </trkpt>
      <trkpt lat="43.2101449929" lon="2.3597710300">
        <ele>108.77</ele>
        <time>2017-08-01T07:54:11Z</time>
      </trkpt>
      <trkpt lat="43.2101998944" lon="2.3594199121">
        <ele>108.77</ele>
        <time>2017-08-01T07:54:22Z</time>
      </trkpt>
      <trkpt lat="43.2102656085" lon="2.3590604123">
        <ele>108.77</ele>
        <time>2017-08-01T07:54:34Z</time>
      </trkpt>
      <trkpt lat="43.2102710567" lon="2.3590149824">
        <ele>108.77</ele>
        <time>2017-08-01T07:54:40Z</time>
      </trkpt>
      <trkpt lat="43.2102720626" lon="2.3589919321">
        <ele>108.29</ele>
        <time>2017-08-01T07:54:41Z</time>
      </trkpt>
      <trkpt lat="43.2102767564" lon="2.3589673731">
        <ele>108.77</ele>
        <time>2017-08-01T07:54:42Z</time>
      </trkpt>
      <trkpt lat="43.2102847192" lon="2.3589456640">
        <ele>108.77</ele>
        <time>2017-08-01T07:54:43Z</time>
      </trkpt>
      <trkpt lat="43.2102929335" lon="2.3589289002">
        <ele>108.77</ele>
        <time>2017-08-01T07:54:44Z</time>
      </trkpt>
      <trkpt lat="43.2103003934" lon="2.3589083645">
        <ele>108.77</ele>
        <time>2017-08-01T07:54:45Z</time>
      </trkpt>
      <trkpt lat="43.2103053387" lon="2.3588823806">
        <ele>108.77</ele>
        <time>2017-08-01T07:54:46Z</time>
      </trkpt>
      <trkpt lat="43.2103103679" lon="2.3588571511">
        <ele>108.77</ele>
        <time>2017-08-01T07:54:47Z</time>
      </trkpt>
      <trkpt lat="43.2103164028" lon="2.3588305805">
        <ele>108.29</ele>
        <time>2017-08-01T07:54:48Z</time>
      </trkpt>
      <trkpt lat="43.2103194203" lon="2.3588067759">
        <ele>108.77</ele>
        <time>2017-08-01T07:54:49Z</time>
      </trkpt>
      <trkpt lat="43.2103879005" lon="2.3584580887">
        <ele>108.29</ele>
        <time>2017-08-01T07:55:01Z</time>
      </trkpt>
      <trkpt lat="43.2103936840" lon="2.3584277462">
        <ele>107.81</ele>
        <time>2017-08-01T07:55:02Z</time>
      </trkpt>
      <trkpt lat="43.2104979549" lon="2.3580226488">
        <ele>105.40</ele>
        <time>2017-08-01T07:55:13Z</time>
      </trkpt>
      <trkpt lat="43.2105529401" lon="2.3578777257">
        <ele>104.44</ele>
        <time>2017-08-01T07:55:19Z</time>
      </trkpt>
      <trkpt lat="43.2105749007" lon="2.3578700982">
        <ele>104.44</ele>
        <time>2017-08-01T07:55:20Z</time>
      </trkpt>
      <trkpt lat="43.2106002979" lon="2.3578714393">
        <ele>104.44</ele>
        <time>2017-08-01T07:55:21Z</time>
      </trkpt>
      <trkpt lat="43.2106261142" lon="2.3578729481">
        <ele>104.44</ele>
        <time>2017-08-01T07:55:22Z</time>
      </trkpt>
      <trkpt lat="43.2106546126" lon="2.3578736186">
        <ele>103.96</ele>
        <time>2017-08-01T07:55:23Z</time>
      </trkpt>
      <trkpt lat="43.2108823489" lon="2.3578356486">
        <ele>103.96</ele>
        <time>2017-08-01T07:55:30Z</time>
      </trkpt>
      <trkpt lat="43.2112172060" lon="2.3577112611">
        <ele>103.48</ele>
        <time>2017-08-01T07:55:40Z</time>
      </trkpt>
      <trkpt lat="43.2115382329" lon="2.3575228360">
        <ele>103.96</ele>
        <time>2017-08-01T07:55:48Z</time>
      </trkpt>
      <trkpt lat="43.2116462756" lon="2.3576335609">
        <ele>104.44</ele>
        <time>2017-08-01T07:55:54Z</time>
      </trkpt>
      <trkpt lat="43.2116890233" lon="2.3576815892">
        <ele>104.44</ele>
        <time>2017-08-01T07:56:04Z</time>
      </trkpt>
      <trkpt lat="43.2117319386" lon="2.3576771468">
        <ele>104.44</ele>
        <time>2017-08-01T07:56:16Z</time>
      </trkpt>
      <trkpt lat="43.2117513847" lon="2.3576765601">
        <ele>104.44</ele>
        <time>2017-08-01T07:56:17Z</time>
      </trkpt>
      <trkpt lat="43.2117677294" lon="2.3576822598">
        <ele>104.44</ele>
        <time>2017-08-01T07:56:18Z</time>
      </trkpt>
      <trkpt lat="43.2117827330" lon="2.3576898873">
        <ele>104.92</ele>
        <time>2017-08-01T07:56:19Z</time>
      </trkpt>
      <trkpt lat="43.2117999159" lon="2.3576895520">
        <ele>104.92</ele>
        <time>2017-08-01T07:56:20Z</time>
      </trkpt>
      <trkpt lat="43.2118258998" lon="2.3576794937">
        <ele>104.92</ele>
        <time>2017-08-01T07:56:29Z</time>
      </trkpt>
      <trkpt lat="43.2118296716" lon="2.3576675914">
        <ele>104.92</ele>
        <time>2017-08-01T07:56:41Z</time>
      </trkpt>
      <trkpt lat="43.2118458487" lon="2.3576691840">
        <ele>104.92</ele>
        <time>2017-08-01T07:56:42Z</time>
      </trkpt>
      <trkpt lat="43.2118641213" lon="2.3576705251">
        <ele>104.92</ele>
        <time>2017-08-01T07:56:43Z</time>
      </trkpt>
      <trkpt lat="43.2118861657" lon="2.3576780688">
        <ele>104.92</ele>
        <time>2017-08-01T07:56:44Z</time>
      </trkpt>
      <trkpt lat="43.2119124848" lon="2.3576871213">
        <ele>104.92</ele>
        <time>2017-08-01T07:56:45Z</time>
      </trkpt>
      <trkpt lat="43.2122428995" lon="2.3577623069">
        <ele>105.40</ele>
        <time>2017-08-01T07:56:55Z</time>
      </trkpt>
      <trkpt lat="43.2122787740" lon="2.3577348143">
        <ele>104.92</ele>
        <time>2017-08-01T07:56:56Z</time>
      </trkpt>
      <trkpt lat="43.2123098709" lon="2.3576966766">
        <ele>104.92</ele>
        <time>2017-08-01T07:56:57Z</time>
      </trkpt>
      <trkpt lat="43.2123351842" lon="2.3576491512">
        <ele>104.92</ele>
        <time>2017-08-01T07:56:58Z</time>
      </trkpt>
      <trkpt lat="43.2123540435" lon="2.3575970158">
        <ele>104.92</ele>
        <time>2017-08-01T07:56:59Z</time>
      </trkpt>
      <trkpt lat="43.2123643532" lon="2.3575400189">
        <ele>104.92</ele>
        <time>2017-08-01T07:57:00Z</time>
      </trkpt>
      <trkpt lat="43.2123740762" lon="2.3574800882">
        <ele>104.92</ele>
        <time>2017-08-01T07:57:01Z</time>
      </trkpt>
      <trkpt lat="43.2124426402" lon="2.3569894116">
        <ele>104.92</ele>
        <time>2017-08-01T07:57:09Z</time>
      </trkpt>
      <trkpt lat="43.2124554645" lon="2.3569274694">
        <ele>104.92</ele>
        <time>2017-08-01T07:57:10Z</time>
      </trkpt>
      <trkpt lat="43.2124682888" lon="2.3568623420">
        <ele>104.92</ele>
        <time>2017-08-01T07:57:11Z</time>
      </trkpt>
      <trkpt lat="43.2126024831" lon="2.3559758719">
        <ele>104.44</ele>
        <time>2017-08-01T07:57:24Z</time>
      </trkpt>
      <trkpt lat="43.2126264554" lon="2.3558524903">
        <ele>104.44</ele>
        <time>2017-08-01T07:57:26Z</time>
      </trkpt>
      <trkpt lat="43.2126375195" lon="2.3557934817">
        <ele>103.96</ele>
        <time>2017-08-01T07:57:27Z</time>
      </trkpt>
      <trkpt lat="43.2126419619" lon="2.3557376582">
        <ele>103.96</ele>
        <time>2017-08-01T07:57:28Z</time>
      </trkpt>
      <trkpt lat="43.2126292214" lon="2.3554846086">
        <ele>103.48</ele>
        <time>2017-08-01T07:57:34Z</time>
      </trkpt>
      <trkpt lat="43.2126222644" lon="2.3554442078">
        <ele>103.48</ele>
        <time>2017-08-01T07:57:35Z</time>
      </trkpt>
      <trkpt lat="43.2126213424" lon="2.3553935811">
        <ele>103.00</ele>
        <time>2017-08-01T07:57:36Z</time>
      </trkpt>
      <trkpt lat="43.2126241922" lon="2.3553381767">
        <ele>103.00</ele>
        <time>2017-08-01T07:57:37Z</time>
      </trkpt>
      <trkpt lat="43.2126266230" lon="2.3552829400">
        <ele>103.00</ele>
        <time>2017-08-01T07:57:38Z</time>
      </trkpt>
      <trkpt lat="43.2126379386" lon="2.3545286525">
        <ele>102.52</ele>
        <time>2017-08-01T07:57:50Z</time>
      </trkpt>
      <trkpt lat="43.2126336638" lon="2.3542559892">
        <ele>102.52</ele>
        <time>2017-08-01T07:57:58Z</time>
      </trkpt>
      <trkpt lat="43.2126186602" lon="2.3540145066">
        <ele>102.52</ele>
        <time>2017-08-01T07:58:05Z</time>
      </trkpt>
      <trkpt lat="43.2125961129" lon="2.3535403423">
        <ele>102.52</ele>
        <time>2017-08-01T07:58:16Z</time>
      </trkpt>
      <trkpt lat="43.2125676982" lon="2.3531519249">
        <ele>103.00</ele>
        <time>2017-08-01T07:58:24Z</time>
      </trkpt>
      <trkpt lat="43.2125630043" lon="2.3530391883">
        <ele>103.00</ele>
        <time>2017-08-01T07:58:26Z</time>
      </trkpt>
      <trkpt lat="43.2125557121" lon="2.3529803474">
        <ele>103.00</ele>
        <time>2017-08-01T07:58:27Z</time>
      </trkpt>
      <trkpt lat="43.2125495095" lon="2.3529221769">
        <ele>103.48</ele>
        <time>2017-08-01T07:58:28Z</time>
      </trkpt>
      <trkpt lat="43.2125508506" lon="2.3528656829">
        <ele>103.48</ele>
        <time>2017-08-01T07:58:29Z</time>
      </trkpt>
      <trkpt lat="43.2125535328" lon="2.3528108653">
        <ele>103.48</ele>
        <time>2017-08-01T07:58:30Z</time>
      </trkpt>
      <trkpt lat="43.2125496771" lon="2.3527490906">
        <ele>103.48</ele>
        <time>2017-08-01T07:58:31Z</time>
      </trkpt>
      <trkpt lat="43.2125510182" lon="2.3525327537">
        <ele>103.48</ele>
        <time>2017-08-01T07:58:38Z</time>
      </trkpt>
      <trkpt lat="43.2125636749" lon="2.3525316641">
        <ele>103.48</ele>
        <time>2017-08-01T07:58:41Z</time>
      </trkpt>
      <trkpt lat="43.2126088534" lon="2.3525519483">
        <ele>103.00</ele>
        <time>2017-08-01T07:58:45Z</time>
      </trkpt>
      <trkpt lat="43.2126386091" lon="2.3524960410">
        <ele>103.48</ele>
        <time>2017-08-01T07:58:46Z</time>
      </trkpt>
      <trkpt lat="43.2126724720" lon="2.3524385411">
        <ele>103.48</ele>
        <time>2017-08-01T07:58:47Z</time>
      </trkpt>
      <trkpt lat="43.2127985358" lon="2.3523437418">
        <ele>103.48</ele>
        <time>2017-08-01T07:58:56Z</time>
      </trkpt>
      <trkpt lat="43.2128741406" lon="2.3523673788">
        <ele>103.00</ele>
        <time>2017-08-01T07:59:13Z</time>
      </trkpt>
      <trkpt lat="43.2129091769" lon="2.3523762636">
        <ele>103.00</ele>
        <time>2017-08-01T07:59:15Z</time>
      </trkpt>
      <trkpt lat="43.2129025552" lon="2.3523501121">
        <ele>103.48</ele>
        <time>2017-08-01T07:59:17Z</time>
      </trkpt>
      <trkpt lat="43.2128910720" lon="2.3522242159">
        <ele>103.48</ele>
        <time>2017-08-01T07:59:22Z</time>
      </trkpt>
      <trkpt lat="43.2128909044" lon="2.3521863297">
        <ele>103.48</ele>
        <time>2017-08-01T07:59:23Z</time>
      </trkpt>
      <trkpt lat="43.2128910720" lon="2.3521574121">
        <ele>103.48</ele>
        <time>2017-08-01T07:59:24Z</time>
      </trkpt>
      <trkpt lat="43.2128929161" lon="2.3521351162">
        <ele>103.48</ele>
        <time>2017-08-01T07:59:25Z</time>
      </trkpt>
      <trkpt lat="43.2128915749" lon="2.3521158379">
        <ele>103.48</ele>
        <time>2017-08-01T07:59:26Z</time>
      </trkpt>
      <trkpt lat="43.2129040640" lon="2.3519707471">
        <ele>103.48</ele>
        <time>2017-08-01T07:59:34Z</time>
      </trkpt>
      <trkpt lat="43.2129312214" lon="2.3518583458">
        <ele>103.96</ele>
        <time>2017-08-01T07:59:43Z</time>
      </trkpt>
      <trkpt lat="43.2129329816" lon="2.3518109880">
        <ele>103.48</ele>
        <time>2017-08-01T08:00:04Z</time>
      </trkpt>
      <trkpt lat="43.2129620668" lon="2.3517720960">
        <ele>103.96</ele>
        <time>2017-08-01T08:00:18Z</time>
      </trkpt>
      <trkpt lat="43.2130530942" lon="2.3518460244">
        <ele>103.48</ele>
        <time>2017-08-01T08:00:29Z</time>
      </trkpt>
      <trkpt lat="43.2131213229" lon="2.3519548215">
        <ele>103.48</ele>
        <time>2017-08-01T08:00:39Z</time>
      </trkpt>
      <trkpt lat="43.2131303754" lon="2.3519635387">
        <ele>103.48</ele>
        <time>2017-08-01T08:00:40Z</time>
      </trkpt>
      <trkpt lat="43.2131935749" lon="2.3519690707">
        <ele>103.48</ele>
        <time>2017-08-01T08:00:48Z</time>
      </trkpt>
      <trkpt lat="43.2132872008" lon="2.3519515526">
        <ele>103.00</ele>
        <time>2017-08-01T08:00:58Z</time>
      </trkpt>
      <trkpt lat="43.2133060601" lon="2.3519483674">
        <ele>103.00</ele>
        <time>2017-08-01T08:01:00Z</time>
      </trkpt>
      <trkpt lat="43.2132988516" lon="2.3518772889">
        <ele>103.00</ele>
        <time>2017-08-01T08:01:09Z</time>
      </trkpt>
      <trkpt lat="43.2133001089" lon="2.3518398218">
        <ele>103.48</ele>
        <time>2017-08-01T08:01:18Z</time>
      </trkpt>
      <trkpt lat="43.2132689282" lon="2.3518465273">
        <ele>103.48</ele>
        <time>2017-08-01T08:01:30Z</time>
      </trkpt>
      <trkpt lat="43.2132812496" lon="2.3518281709">
        <ele>103.48</ele>
        <time>2017-08-01T08:01:50Z</time>
      </trkpt>
      <trkpt lat="43.2132780645" lon="2.3518197890">
        <ele>103.48</ele>
        <time>2017-08-01T08:01:57Z</time>
      </trkpt>
      <trkpt lat="43.2132951636" lon="2.3518347088">
        <ele>103.48</ele>
        <time>2017-08-01T08:02:00Z</time>
      </trkpt>
      <trkpt lat="43.2133053057" lon="2.3518382292">
        <ele>103.48</ele>
        <time>2017-08-01T08:02:01Z</time>
      </trkpt>
      <trkpt lat="43.2132917270" lon="2.3518849164">
        <ele>103.48</ele>
        <time>2017-08-01T08:02:08Z</time>
      </trkpt>
      <trkpt lat="43.2132586185" lon="2.3518877663">
        <ele>103.48</ele>
        <time>2017-08-01T08:02:25Z</time>
      </trkpt>
      <trkpt lat="43.2132489793" lon="2.3518882692">
        <ele>103.96</ele>
        <time>2017-08-01T08:02:40Z</time>
      </trkpt>
      <trkpt lat="43.2132473029" lon="2.3518889397">
        <ele>103.96</ele>
        <time>2017-08-01T08:02:51Z</time>
      </trkpt>
      <trkpt lat="43.2132506557" lon="2.3518811446">
        <ele>103.96</ele>
        <time>2017-08-01T08:03:12Z</time>
      </trkpt>
      <trkpt lat="43.2132653240" lon="2.3518815637">
        <ele>103.96</ele>
        <time>2017-08-01T08:03:31Z</time>
      </trkpt>
      <trkpt lat="43.2132654078" lon="2.3518970702">
        <ele>103.96</ele>
        <time>2017-08-01T08:03:50Z</time>
      </trkpt>
      <trkpt lat="43.2132623065" lon="2.3519237246">
        <ele>103.96</ele>
        <time>2017-08-01T08:04:08Z</time>
      </trkpt>
      <trkpt lat="43.2132709399" lon="2.3519395664">
        <ele>103.96</ele>
        <time>2017-08-01T08:04:29Z</time>
      </trkpt>
      <trkpt lat="43.2132641505" lon="2.3519300949">
        <ele>103.96</ele>
        <time>2017-08-01T08:04:52Z</time>
      </trkpt>
      <trkpt lat="43.2132547628" lon="2.3519229703">
        <ele>103.96</ele>
        <time>2017-08-01T08:05:14Z</time>
      </trkpt>
      <trkpt lat="43.2132613007" lon="2.3519280832">
        <ele>104.44</ele>
        <time>2017-08-01T08:05:33Z</time>
      </trkpt>
      <trkpt lat="43.2132713590" lon="2.3519254010">
        <ele>104.44</ele>
        <time>2017-08-01T08:05:54Z</time>
      </trkpt>
      <trkpt lat="43.2132753823" lon="2.3519313522">
        <ele>104.44</ele>
        <time>2017-08-01T08:06:14Z</time>
      </trkpt>
      <trkpt lat="43.2132800762" lon="2.3519392312">
        <ele>104.44</ele>
        <time>2017-08-01T08:06:32Z</time>
      </trkpt>
      <trkpt lat="43.2132822555" lon="2.3519350402">
        <ele>104.44</ele>
        <time>2017-08-01T08:06:48Z</time>
      </trkpt>
      <trkpt lat="43.2132767234" lon="2.3519115709">
        <ele>104.44</ele>
        <time>2017-08-01T08:07:10Z</time>
      </trkpt>
      <trkpt lat="43.2132739574" lon="2.3518974893">
        <ele>104.44</ele>
        <time>2017-08-01T08:07:30Z</time>
      </trkpt>
      <trkpt lat="43.2132748794" lon="2.3518899456">
        <ele>104.92</ele>
        <time>2017-08-01T08:07:49Z</time>
      </trkpt>
      <trkpt lat="43.2132774778" lon="2.3519170191">
        <ele>104.92</ele>
        <time>2017-08-01T08:08:11Z</time>
      </trkpt>
      <trkpt lat="43.2132680900" lon="2.3519300949">
        <ele>104.92</ele>
        <time>2017-08-01T08:08:27Z</time>
      </trkpt>
      <trkpt lat="43.2132615522" lon="2.3519230541">
        <ele>104.92</ele>
        <time>2017-08-01T08:08:43Z</time>
      </trkpt>
      <trkpt lat="43.2132627256" lon="2.3519160133">
        <ele>104.92</ele>
        <time>2017-08-01T08:09:00Z</time>
      </trkpt>
      <trkpt lat="43.2132572774" lon="2.3519186117">
        <ele>104.92</ele>
        <time>2017-08-01T08:09:13Z</time>
      </trkpt>
      <trkpt lat="43.2132538408" lon="2.3519505467">
        <ele>104.92</ele>
        <time>2017-08-01T08:09:29Z</time>
      </trkpt>
      <trkpt lat="43.2132398430" lon="2.3519528937">
        <ele>104.92</ele>
        <time>2017-08-01T08:09:46Z</time>
      </trkpt>
      <trkpt lat="43.2132215705" lon="2.3519324418">
        <ele>105.40</ele>
        <time>2017-08-01T08:09:55Z</time>
      </trkpt>
      <trkpt lat="43.2132215705" lon="2.3518878501">
        <ele>105.40</ele>
        <time>2017-08-01T08:09:59Z</time>
      </trkpt>
      <trkpt lat="43.2132136077" lon="2.3518201243">
        <ele>105.40</ele>
        <time>2017-08-01T08:10:07Z</time>
      </trkpt>
      <trkpt lat="43.2132204808" lon="2.3517814837">
        <ele>105.40</ele>
        <time>2017-08-01T08:10:10Z</time>
      </trkpt>
      <trkpt lat="43.2132055610" lon="2.3517290130">
        <ele>105.40</ele>
        <time>2017-08-01T08:10:13Z</time>
      </trkpt>
      <trkpt lat="43.2132001128" lon="2.3517109919">
        <ele>105.40</ele>
        <time>2017-08-01T08:10:14Z</time>
      </trkpt>
      <trkpt lat="43.2131933235" lon="2.3516947310">
        <ele>105.40</ele>
        <time>2017-08-01T08:10:15Z</time>
      </trkpt>
      <trkpt lat="43.2131358236" lon="2.3514945712">
        <ele>105.88</ele>
        <time>2017-08-01T08:10:28Z</time>
      </trkpt>
      <trkpt lat="43.2131013740" lon="2.3514105845">
        <ele>105.88</ele>
        <time>2017-08-01T08:10:35Z</time>
      </trkpt>
      <trkpt lat="43.2130861189" lon="2.3513919767">
        <ele>105.88</ele>
        <time>2017-08-01T08:10:37Z</time>
      </trkpt>
      <trkpt lat="43.2130790781" lon="2.3513840139">
        <ele>105.88</ele>
        <time>2017-08-01T08:10:38Z</time>
      </trkpt>
      <trkpt lat="43.2130594645" lon="2.3513883725">
        <ele>106.84</ele>
        <time>2017-08-01T08:10:39Z</time>
      </trkpt>
      <trkpt lat="43.2130173873" lon="2.3513704352">
        <ele>105.88</ele>
        <time>2017-08-01T08:10:45Z</time>
      </trkpt>
      <trkpt lat="43.2130126934" lon="2.3513488099">
        <ele>105.88</ele>
        <time>2017-08-01T08:10:47Z</time>
      </trkpt>
      <trkpt lat="43.2130286191" lon="2.3513096664">
        <ele>105.88</ele>
        <time>2017-08-01T08:10:52Z</time>
      </trkpt>
      <trkpt lat="43.2130305469" lon="2.3513029609">
        <ele>105.88</ele>
        <time>2017-08-01T08:10:55Z</time>
      </trkpt>
      <trkpt lat="43.2130417787" lon="2.3512934055">
        <ele>104.92</ele>
        <time>2017-08-01T08:11:02Z</time>
      </trkpt>
      <trkpt lat="43.2130501606" lon="2.3512934893">
        <ele>104.44</ele>
        <time>2017-08-01T08:11:06Z</time>
      </trkpt>
      <trkpt lat="43.2145601604" lon="2.3512267694">
        <ele>104.92</ele>
        <time>2017-08-01T08:18:08Z</time>
      </trkpt>
      <trkpt lat="43.2145775110" lon="2.3512180522">
        <ele>105.40</ele>
        <time>2017-08-01T08:18:09Z</time>
      </trkpt>
      <trkpt lat="43.2148721348" lon="2.3511297908">
        <ele>104.92</ele>
        <time>2017-08-01T08:18:20Z</time>
      </trkpt>
      <trkpt lat="43.2150422875" lon="2.3511286173">
        <ele>107.32</ele>
        <time>2017-08-01T08:18:25Z</time>
      </trkpt>
      <trkpt lat="43.2152576186" lon="2.3511385918">
        <ele>110.69</ele>
        <time>2017-08-01T08:18:34Z</time>
      </trkpt>
      <trkpt lat="43.2154105045" lon="2.3511698563">
        <ele>114.53</ele>
        <time>2017-08-01T08:18:41Z</time>
      </trkpt>
      <trkpt lat="43.2156723551" lon="2.3510497436">
        <ele>115.98</ele>
        <time>2017-08-01T08:18:51Z</time>
      </trkpt>
      <trkpt lat="43.2156827487" lon="2.3510602210">
        <ele>115.98</ele>
        <time>2017-08-01T08:18:52Z</time>
      </trkpt>
      <trkpt lat="43.2156943157" lon="2.3512683436">
        <ele>116.46</ele>
        <time>2017-08-01T08:18:59Z</time>
      </trkpt>
      <trkpt lat="43.2157124206" lon="2.3517611995">
        <ele>115.98</ele>
        <time>2017-08-01T08:19:11Z</time>
      </trkpt>
      <trkpt lat="43.2157247420" lon="2.3518896103">
        <ele>115.98</ele>
        <time>2017-08-01T08:19:14Z</time>
      </trkpt>
      <trkpt lat="43.2157055475" lon="2.3520716652">
        <ele>115.50</ele>
        <time>2017-08-01T08:19:20Z</time>
      </trkpt>
      <trkpt lat="43.2157099061" lon="2.3520994931">
        <ele>115.50</ele>
        <time>2017-08-01T08:19:22Z</time>
      </trkpt>
      <trkpt lat="43.2158446033" lon="2.3521028459">
        <ele>116.46</ele>
        <time>2017-08-01T08:19:31Z</time>
      </trkpt>
      <trkpt lat="43.2161169313" lon="2.3520303424">
        <ele>116.94</ele>
        <time>2017-08-01T08:19:41Z</time>
      </trkpt>
      <trkpt lat="43.2161891833" lon="2.3520228826">
        <ele>117.42</ele>
        <time>2017-08-01T08:19:45Z</time>
      </trkpt>
      <trkpt lat="43.2162498683" lon="2.3520440888">
        <ele>117.90</ele>
        <time>2017-08-01T08:19:49Z</time>
      </trkpt>
      <trkpt lat="43.2163719088" lon="2.3519987427">
        <ele>117.90</ele>
        <time>2017-08-01T08:19:58Z</time>
      </trkpt>
      <trkpt lat="43.2163864095" lon="2.3519957252">
        <ele>117.90</ele>
        <time>2017-08-01T08:20:00Z</time>
      </trkpt>
      <trkpt lat="43.2164346054" lon="2.3520080466">
        <ele>118.38</ele>
        <time>2017-08-01T08:20:05Z</time>
      </trkpt>
      <trkpt lat="43.2165325899" lon="2.3519775365">
        <ele>118.38</ele>
        <time>2017-08-01T08:20:11Z</time>
      </trkpt>
      <trkpt lat="43.2165704761" lon="2.3519513011">
        <ele>118.38</ele>
        <time>2017-08-01T08:20:13Z</time>
      </trkpt>
      <trkpt lat="43.2167777605" lon="2.3519288376">
        <ele>118.38</ele>
        <time>2017-08-01T08:20:21Z</time>
      </trkpt>
      <trkpt lat="43.2171271183" lon="2.3519307654">
        <ele>118.86</ele>
        <time>2017-08-01T08:20:32Z</time>
      </trkpt>
      <trkpt lat="43.2172189839" lon="2.3519529775">
        <ele>118.86</ele>
        <time>2017-08-01T08:20:35Z</time>
      </trkpt>
      <trkpt lat="43.2172410283" lon="2.3520157579">
        <ele>118.38</ele>
        <time>2017-08-01T08:20:41Z</time>
      </trkpt>
      <trkpt lat="43.2172494102" lon="2.3520283308">
        <ele>117.90</ele>
        <time>2017-08-01T08:20:54Z</time>
      </trkpt>
      <trkpt lat="43.2172411121" lon="2.3520252295">
        <ele>117.90</ele>
        <time>2017-08-01T08:20:57Z</time>
      </trkpt>
      <trkpt lat="43.2172538526" lon="2.3519671429">
        <ele>118.38</ele>
        <time>2017-08-01T08:21:01Z</time>
      </trkpt>
      <trkpt lat="43.2174754702" lon="2.3519185279">
        <ele>118.38</ele>
        <time>2017-08-01T08:21:08Z</time>
      </trkpt>
      <trkpt lat="43.2177417632" lon="2.3519395664">
        <ele>118.38</ele>
        <time>2017-08-01T08:21:18Z</time>
      </trkpt>
      <trkpt lat="43.2178641390" lon="2.3519225512">
        <ele>118.86</ele>
        <time>2017-08-01T08:21:24Z</time>
      </trkpt>
      <trkpt lat="43.2179078925" lon="2.3519952223">
        <ele>119.34</ele>
        <time>2017-08-01T08:21:32Z</time>
      </trkpt>
      <trkpt lat="43.2179426774" lon="2.3519909475">
        <ele>118.86</ele>
        <time>2017-08-01T08:21:42Z</time>
      </trkpt>
      <trkpt lat="43.2179456949" lon="2.3519905284">
        <ele>119.34</ele>
        <time>2017-08-01T08:21:52Z</time>
      </trkpt>
      <trkpt lat="43.2179153524" lon="2.3520399816">
        <ele>118.86</ele>
        <time>2017-08-01T08:22:17Z</time>
      </trkpt>
      <trkpt lat="43.2179072220" lon="2.3520580027">
        <ele>118.86</ele>
        <time>2017-08-01T08:22:43Z</time>
      </trkpt>
      <trkpt lat="43.2179065514" lon="2.3520540632">
        <ele>118.38</ele>
        <time>2017-08-01T08:23:11Z</time>
      </trkpt>
      <trkpt lat="43.2179061323" lon="2.3520352039">
        <ele>118.38</ele>
        <time>2017-08-01T08:23:31Z</time>
      </trkpt>
      <trkpt lat="43.2179088984" lon="2.3520205356">
        <ele>118.38</ele>
        <time>2017-08-01T08:23:53Z</time>
      </trkpt>
      <trkpt lat="43.2179057132" lon="2.3520167638">
        <ele>118.38</ele>
        <time>2017-08-01T08:24:12Z</time>
      </trkpt>
      <trkpt lat="43.2179057971" lon="2.3520148359">
        <ele>118.38</ele>
        <time>2017-08-01T08:24:21Z</time>
      </trkpt>
      <trkpt lat="43.2179049589" lon="2.3520115670">
        <ele>118.38</ele>
        <time>2017-08-01T08:24:29Z</time>
      </trkpt>
      <trkpt lat="43.2178742811" lon="2.3519586772">
        <ele>117.90</ele>
        <time>2017-08-01T08:24:33Z</time>
      </trkpt>
      <trkpt lat="43.2177292742" lon="2.3518647160">
        <ele>117.42</ele>
        <time>2017-08-01T08:24:41Z</time>
      </trkpt>
      <trkpt lat="43.2174142823" lon="2.3518948071">
        <ele>117.42</ele>
        <time>2017-08-01T08:24:50Z</time>
      </trkpt>
      <trkpt lat="43.2172584627" lon="2.3519170191">
        <ele>116.94</ele>
        <time>2017-08-01T08:24:55Z</time>
      </trkpt>
      <trkpt lat="43.2172341552" lon="2.3519507144">
        <ele>116.94</ele>
        <time>2017-08-01T08:24:56Z</time>
      </trkpt>
      <trkpt lat="43.2172186486" lon="2.3519951385">
        <ele>116.94</ele>
        <time>2017-08-01T08:24:57Z</time>
      </trkpt>
      <trkpt lat="43.2171953470" lon="2.3522340227">
        <ele>115.98</ele>
        <time>2017-08-01T08:25:04Z</time>
      </trkpt>
      <trkpt lat="43.2172186486" lon="2.3522414826">
        <ele>115.98</ele>
        <time>2017-08-01T08:25:05Z</time>
      </trkpt>
      <trkpt lat="43.2172354963" lon="2.3522517085">
        <ele>115.98</ele>
        <time>2017-08-01T08:25:06Z</time>
      </trkpt>
      <trkpt lat="43.2172428723" lon="2.3522667959">
        <ele>115.50</ele>
        <time>2017-08-01T08:25:07Z</time>
      </trkpt>
      <trkpt lat="43.2172432914" lon="2.3522857390">
        <ele>115.50</ele>
        <time>2017-08-01T08:25:08Z</time>
      </trkpt>
      <trkpt lat="43.2172478177" lon="2.3523435742">
        <ele>115.50</ele>
        <time>2017-08-01T08:25:10Z</time>
      </trkpt>
      <trkpt lat="43.2172584627" lon="2.3523670435">
        <ele>115.01</ele>
        <time>2017-08-01T08:25:11Z</time>
      </trkpt>
      <trkpt lat="43.2172632404" lon="2.3523848969">
        <ele>115.01</ele>
        <time>2017-08-01T08:25:12Z</time>
      </trkpt>
      <trkpt lat="43.2172708679" lon="2.3524044268">
        <ele>115.01</ele>
        <time>2017-08-01T08:25:13Z</time>
      </trkpt>
      <trkpt lat="43.2172797527" lon="2.3524268903">
        <ele>115.01</ele>
        <time>2017-08-01T08:25:14Z</time>
      </trkpt>
      <trkpt lat="43.2172858715" lon="2.3524485156">
        <ele>114.53</ele>
        <time>2017-08-01T08:25:15Z</time>
      </trkpt>
      <trkpt lat="43.2172898110" lon="2.3524742480">
        <ele>114.53</ele>
        <time>2017-08-01T08:25:24Z</time>
      </trkpt>
      <trkpt lat="43.2172865421" lon="2.3524779361">
        <ele>114.53</ele>
        <time>2017-08-01T08:25:29Z</time>
      </trkpt>
      <trkpt lat="43.2180480380" lon="2.3522317596">
        <ele>114.53</ele>
        <time>2017-08-01T08:33:56Z</time>
      </trkpt>
      <trkpt lat="43.2179125864" lon="2.3523834720">
        <ele>114.05</ele>
        <time>2017-08-01T08:33:57Z</time>
      </trkpt>
      <trkpt lat="43.2175534219" lon="2.3524755891">
        <ele>118.38</ele>
        <time>2017-08-01T08:34:09Z</time>
      </trkpt>
      <trkpt lat="43.2175442856" lon="2.3524730746">
        <ele>115.98</ele>
        <time>2017-08-01T08:34:10Z</time>
      </trkpt>
      <trkpt lat="43.2174942456" lon="2.3524931911">
        <ele>120.30</ele>
        <time>2017-08-01T08:34:18Z</time>
      </trkpt>
      <trkpt lat="43.2174938265" lon="2.3524954543">
        <ele>119.82</ele>
        <time>2017-08-01T08:34:19Z</time>
      </trkpt>
      <trkpt lat="43.2174218260" lon="2.3524713982">
        <ele>120.78</ele>
        <time>2017-08-01T08:34:33Z</time>
      </trkpt>
      <trkpt lat="43.2174027152" lon="2.3524915148">
        <ele>120.78</ele>
        <time>2017-08-01T08:34:36Z</time>
      </trkpt>
      <trkpt lat="43.2174255140" lon="2.3526306543">
        <ele>120.30</ele>
        <time>2017-08-01T08:34:42Z</time>
      </trkpt>
      <trkpt lat="43.2175015379" lon="2.3527455702">
        <ele>119.34</ele>
        <time>2017-08-01T08:34:50Z</time>
      </trkpt>
      <trkpt lat="43.2175800763" lon="2.3530158866">
        <ele>118.86</ele>
        <time>2017-08-01T08:35:00Z</time>
      </trkpt>
      <trkpt lat="43.2176120952" lon="2.3530957662">
        <ele>118.86</ele>
        <time>2017-08-01T08:35:03Z</time>
      </trkpt>
      <trkpt lat="43.2178543322" lon="2.3533866182">
        <ele>118.86</ele>
        <time>2017-08-01T08:35:16Z</time>
      </trkpt>
      <trkpt lat="43.2180796377" lon="2.3535455391">
        <ele>118.86</ele>
        <time>2017-08-01T08:35:26Z</time>
      </trkpt>
      <trkpt lat="43.2181613613" lon="2.3535484727">
        <ele>118.86</ele>
        <time>2017-08-01T08:35:29Z</time>
      </trkpt>
      <trkpt lat="43.2183668856" lon="2.3536351416">
        <ele>118.86</ele>
        <time>2017-08-01T08:35:38Z</time>
      </trkpt>
      <trkpt lat="43.2184028439" lon="2.3536706809">
        <ele>118.86</ele>
        <time>2017-08-01T08:35:40Z</time>
      </trkpt>
      <trkpt lat="43.2184542250" lon="2.3537784722">
        <ele>118.86</ele>
        <time>2017-08-01T08:35:44Z</time>
      </trkpt>
      <trkpt lat="43.2187003177" lon="2.3539856728">
        <ele>119.34</ele>
        <time>2017-08-01T08:35:53Z</time>
      </trkpt>
      <trkpt lat="43.2189666945" lon="2.3541838210">
        <ele>118.86</ele>
        <time>2017-08-01T08:36:03Z</time>
      </trkpt>
      <trkpt lat="43.2192831114" lon="2.3544030916">
        <ele>118.86</ele>
        <time>2017-08-01T08:36:13Z</time>
      </trkpt>
      <trkpt lat="43.2195617259" lon="2.3546277266">
        <ele>118.86</ele>
        <time>2017-08-01T08:36:23Z</time>
      </trkpt>
      <trkpt lat="43.2197669148" lon="2.3547696322">
        <ele>118.86</ele>
        <time>2017-08-01T08:36:30Z</time>
      </trkpt>
      <trkpt lat="43.2198020350" lon="2.3547894135">
        <ele>118.86</ele>
        <time>2017-08-01T08:36:31Z</time>
      </trkpt>
      <trkpt lat="43.2198307849" lon="2.3548117932">
        <ele>118.86</ele>
        <time>2017-08-01T08:36:32Z</time>
      </trkpt>
      <trkpt lat="43.2198596187" lon="2.3548366036">
        <ele>118.86</ele>
        <time>2017-08-01T08:36:33Z</time>
      </trkpt>
      <trkpt lat="43.2198897935" lon="2.3548621684">
        <ele>118.86</ele>
        <time>2017-08-01T08:36:34Z</time>
      </trkpt>
      <trkpt lat="43.2199084852" lon="2.3548822850">
        <ele>118.86</ele>
        <time>2017-08-01T08:36:35Z</time>
      </trkpt>
      <trkpt lat="43.2199167833" lon="2.3548987135">
        <ele>118.86</ele>
        <time>2017-08-01T08:36:36Z</time>
      </trkpt>
      <trkpt lat="43.2199359778" lon="2.3549191654">
        <ele>118.86</ele>
        <time>2017-08-01T08:36:37Z</time>
      </trkpt>
      <trkpt lat="43.2199638058" lon="2.3549374379">
        <ele>118.86</ele>
        <time>2017-08-01T08:36:38Z</time>
      </trkpt>
      <trkpt lat="43.2199920528" lon="2.3549508490">
        <ele>118.86</ele>
        <time>2017-08-01T08:36:39Z</time>
      </trkpt>
      <trkpt lat="43.2201446872" lon="2.3550504260">
        <ele>118.86</ele>
        <time>2017-08-01T08:36:48Z</time>
      </trkpt>
      <trkpt lat="43.2203311846" lon="2.3551869672">
        <ele>118.86</ele>
        <time>2017-08-01T08:36:56Z</time>
      </trkpt>
      <trkpt lat="43.2206340227" lon="2.3554007057">
        <ele>118.86</ele>
        <time>2017-08-01T08:37:06Z</time>
      </trkpt>
      <trkpt lat="43.2210521959" lon="2.3557025380">
        <ele>118.38</ele>
        <time>2017-08-01T08:37:18Z</time>
      </trkpt>
      <trkpt lat="43.2212294731" lon="2.3558343016">
        <ele>118.38</ele>
        <time>2017-08-01T08:37:23Z</time>
      </trkpt>
      <trkpt lat="43.2212661859" lon="2.3558546696">
        <ele>118.38</ele>
        <time>2017-08-01T08:37:24Z</time>
      </trkpt>
      <trkpt lat="43.2213011384" lon="2.3558742832">
        <ele>118.38</ele>
        <time>2017-08-01T08:37:25Z</time>
      </trkpt>
      <trkpt lat="43.2215918228" lon="2.3560825735">
        <ele>118.38</ele>
        <time>2017-08-01T08:37:34Z</time>
      </trkpt>
      <trkpt lat="43.2217954192" lon="2.3562486190">
        <ele>118.38</ele>
        <time>2017-08-01T08:37:40Z</time>
      </trkpt>
      <trkpt lat="43.2218330540" lon="2.3562795483">
        <ele>118.38</ele>
        <time>2017-08-01T08:37:41Z</time>
      </trkpt>
      <trkpt lat="43.2218680065" lon="2.3563134111">
        <ele>118.38</ele>
        <time>2017-08-01T08:37:42Z</time>
      </trkpt>
      <trkpt lat="43.2220644783" lon="2.3565394711">
        <ele>118.38</ele>
        <time>2017-08-01T08:37:48Z</time>
      </trkpt>
      <trkpt lat="43.2220943179" lon="2.3565805424">
        <ele>118.38</ele>
        <time>2017-08-01T08:37:49Z</time>
      </trkpt>
      <trkpt lat="43.2221243251" lon="2.3566226196">
        <ele>118.38</ele>
        <time>2017-08-01T08:37:50Z</time>
      </trkpt>
      <trkpt lat="43.2222461980" lon="2.3567949515">
        <ele>118.38</ele>
        <time>2017-08-01T08:37:54Z</time>
      </trkpt>
      <trkpt lat="43.2222687453" lon="2.3568452429">
        <ele>118.38</ele>
        <time>2017-08-01T08:37:55Z</time>
      </trkpt>
      <trkpt lat="43.2223410811" lon="2.3570010625">
        <ele>118.38</ele>
        <time>2017-08-01T08:37:58Z</time>
      </trkpt>
      <trkpt lat="43.2223654725" lon="2.3570539523">
        <ele>118.38</ele>
        <time>2017-08-01T08:37:59Z</time>
      </trkpt>
      <trkpt lat="43.2224121597" lon="2.3571601510">
        <ele>118.38</ele>
        <time>2017-08-01T08:38:01Z</time>
      </trkpt>
      <trkpt lat="43.2224297617" lon="2.3572182376">
        <ele>118.38</ele>
        <time>2017-08-01T08:38:02Z</time>
      </trkpt>
      <trkpt lat="43.2224465255" lon="2.3572769109">
        <ele>118.38</ele>
        <time>2017-08-01T08:38:03Z</time>
      </trkpt>
      <trkpt lat="43.2224819809" lon="2.3573920783">
        <ele>118.38</ele>
        <time>2017-08-01T08:38:05Z</time>
      </trkpt>
      <trkpt lat="43.2224939670" lon="2.3574526794">
        <ele>118.38</ele>
        <time>2017-08-01T08:38:06Z</time>
      </trkpt>
      <trkpt lat="43.2225077134" lon="2.3575144541">
        <ele>118.38</ele>
        <time>2017-08-01T08:38:07Z</time>
      </trkpt>
      <trkpt lat="43.2226574980" lon="2.3580444418">
        <ele>118.38</ele>
        <time>2017-08-01T08:38:16Z</time>
      </trkpt>
      <trkpt lat="43.2228470128" lon="2.3586496990">
        <ele>118.38</ele>
        <time>2017-08-01T08:38:26Z</time>
      </trkpt>
      <trkpt lat="43.2228631899" lon="2.3587089591">
        <ele>117.90</ele>
        <time>2017-08-01T08:38:27Z</time>
      </trkpt>
      <trkpt lat="43.2228788640" lon="2.3587686382">
        <ele>118.38</ele>
        <time>2017-08-01T08:38:28Z</time>
      </trkpt>
      <trkpt lat="43.2228968851" lon="2.3588263895">
        <ele>118.38</ele>
        <time>2017-08-01T08:38:29Z</time>
      </trkpt>
      <trkpt lat="43.2229356933" lon="2.3589382041">
        <ele>117.90</ele>
        <time>2017-08-01T08:38:31Z</time>
      </trkpt>
      <trkpt lat="43.2230158243" lon="2.3592390306">
        <ele>118.38</ele>
        <time>2017-08-01T08:38:36Z</time>
      </trkpt>
      <trkpt lat="43.2230341807" lon="2.3592996318">
        <ele>118.38</ele>
        <time>2017-08-01T08:38:37Z</time>
      </trkpt>
      <trkpt lat="43.2232500985" lon="2.3600813281">
        <ele>118.38</ele>
        <time>2017-08-01T08:38:49Z</time>
      </trkpt>
      <trkpt lat="43.2234548684" lon="2.3607839830">
        <ele>117.90</ele>
        <time>2017-08-01T08:39:01Z</time>
      </trkpt>
      <trkpt lat="43.2235065848" lon="2.3609579075">
        <ele>117.90</ele>
        <time>2017-08-01T08:39:04Z</time>
      </trkpt>
      <trkpt lat="43.2237574551" lon="2.3618117720">
        <ele>117.90</ele>
        <time>2017-08-01T08:39:18Z</time>
      </trkpt>
      <trkpt lat="43.2239389233" lon="2.3625654727">
        <ele>117.42</ele>
        <time>2017-08-01T08:39:30Z</time>
      </trkpt>
      <trkpt lat="43.2239995245" lon="2.3632110469">
        <ele>117.42</ele>
        <time>2017-08-01T08:39:41Z</time>
      </trkpt>
      <trkpt lat="43.2240255922" lon="2.3636256997">
        <ele>116.94</ele>
        <time>2017-08-01T08:39:51Z</time>
      </trkpt>
      <trkpt lat="43.2240175456" lon="2.3640577029">
        <ele>116.94</ele>
        <time>2017-08-01T08:40:00Z</time>
      </trkpt>
      <trkpt lat="43.2240173779" lon="2.3641653266">
        <ele>116.94</ele>
        <time>2017-08-01T08:40:02Z</time>
      </trkpt>
      <trkpt lat="43.2240094151" lon="2.3645083979">
        <ele>116.94</ele>
        <time>2017-08-01T08:40:08Z</time>
      </trkpt>
      <trkpt lat="43.2240064815" lon="2.3645648081">
        <ele>116.94</ele>
        <time>2017-08-01T08:40:09Z</time>
      </trkpt>
      <trkpt lat="43.2239684276" lon="2.3651789501">
        <ele>116.94</ele>
        <time>2017-08-01T08:40:20Z</time>
      </trkpt>
      <trkpt lat="43.2239293680" lon="2.3657946847">
        <ele>116.46</ele>
        <time>2017-08-01T08:40:30Z</time>
      </trkpt>
      <trkpt lat="43.2239219081" lon="2.3663195595">
        <ele>116.46</ele>
        <time>2017-08-01T08:40:38Z</time>
      </trkpt>
      <trkpt lat="43.2239308767" lon="2.3663763888">
        <ele>116.46</ele>
        <time>2017-08-01T08:40:39Z</time>
      </trkpt>
      <trkpt lat="43.2239948306" lon="2.3667235672">
        <ele>116.46</ele>
        <time>2017-08-01T08:40:47Z</time>
      </trkpt>
      <trkpt lat="43.2240148634" lon="2.3668259941">
        <ele>116.46</ele>
        <time>2017-08-01T08:40:49Z</time>
      </trkpt>
      <trkpt lat="43.2240494806" lon="2.3669866752">
        <ele>116.46</ele>
        <time>2017-08-01T08:40:52Z</time>
      </trkpt>
      <trkpt lat="43.2241984271" lon="2.3673566524">
        <ele>116.46</ele>
        <time>2017-08-01T08:40:59Z</time>
      </trkpt>
      <trkpt lat="43.2242511492" lon="2.3674587440">
        <ele>115.98</ele>
        <time>2017-08-01T08:41:01Z</time>
      </trkpt>
      <trkpt lat="43.2244902849" lon="2.3678570520">
        <ele>115.98</ele>
        <time>2017-08-01T08:41:10Z</time>
      </trkpt>
      <trkpt lat="43.2248167600" lon="2.3681826051">
        <ele>115.98</ele>
        <time>2017-08-01T08:41:19Z</time>
      </trkpt>
      <trkpt lat="43.2251990587" lon="2.3684013728">
        <ele>115.98</ele>
        <time>2017-08-01T08:41:28Z</time>
      </trkpt>
      <trkpt lat="43.2252449077" lon="2.3684183881">
        <ele>115.98</ele>
        <time>2017-08-01T08:41:29Z</time>
      </trkpt>
      <trkpt lat="43.2256287150" lon="2.3685195576">
        <ele>115.98</ele>
        <time>2017-08-01T08:41:37Z</time>
      </trkpt>
      <trkpt lat="43.2260729559" lon="2.3686292768">
        <ele>115.98</ele>
        <time>2017-08-01T08:41:46Z</time>
      </trkpt>
      <trkpt lat="43.2264078967" lon="2.3687133472">
        <ele>115.98</ele>
        <time>2017-08-01T08:41:53Z</time>
      </trkpt>
      <trkpt lat="43.2264541648" lon="2.3687253334">
        <ele>115.50</ele>
        <time>2017-08-01T08:41:54Z</time>
      </trkpt>
      <trkpt lat="43.2264999300" lon="2.3687362298">
        <ele>115.50</ele>
        <time>2017-08-01T08:41:55Z</time>
      </trkpt>
      <trkpt lat="43.2267125789" lon="2.3688311130">
        <ele>115.50</ele>
        <time>2017-08-01T08:42:00Z</time>
      </trkpt>
      <trkpt lat="43.2267575059" lon="2.3688515648">
        <ele>115.50</ele>
        <time>2017-08-01T08:42:01Z</time>
      </trkpt>
      <trkpt lat="43.2267994154" lon="2.3688790575">
        <ele>115.50</ele>
        <time>2017-08-01T08:42:02Z</time>
      </trkpt>
      <trkpt lat="43.2269113977" lon="2.3689662293">
        <ele>115.50</ele>
        <time>2017-08-01T08:42:05Z</time>
      </trkpt>
      <trkpt lat="43.2269454282" lon="2.3690014333">
        <ele>115.98</ele>
        <time>2017-08-01T08:42:06Z</time>
      </trkpt>
      <trkpt lat="43.2269793749" lon="2.3690398224">
        <ele>115.50</ele>
        <time>2017-08-01T08:42:07Z</time>
      </trkpt>
      <trkpt lat="43.2273111306" lon="2.3694164213">
        <ele>115.50</ele>
        <time>2017-08-01T08:42:16Z</time>
      </trkpt>
      <trkpt lat="43.2273370307" lon="2.3694599234">
        <ele>115.50</ele>
        <time>2017-08-01T08:42:17Z</time>
      </trkpt>
      <trkpt lat="43.2273881603" lon="2.3695586622">
        <ele>115.98</ele>
        <time>2017-08-01T08:42:19Z</time>
      </trkpt>
      <trkpt lat="43.2274040021" lon="2.3696074449">
        <ele>115.98</ele>
        <time>2017-08-01T08:42:20Z</time>
      </trkpt>
      <trkpt lat="43.2274179161" lon="2.3696560599">
        <ele>115.50</ele>
        <time>2017-08-01T08:42:21Z</time>
      </trkpt>
      <trkpt lat="43.2274266332" lon="2.3697000649">
        <ele>115.98</ele>
        <time>2017-08-01T08:42:22Z</time>
      </trkpt>
      <trkpt lat="43.2274236996" lon="2.3697365262">
        <ele>115.50</ele>
        <time>2017-08-01T08:42:23Z</time>
      </trkpt>
      <trkpt lat="43.2274335064" lon="2.3697867338">
        <ele>115.50</ele>
        <time>2017-08-01T08:42:24Z</time>
      </trkpt>
      <trkpt lat="43.2274989691" lon="2.3699922580">
        <ele>115.50</ele>
        <time>2017-08-01T08:42:27Z</time>
      </trkpt>
      <trkpt lat="43.2275155652" lon="2.3700595647">
        <ele>115.50</ele>
        <time>2017-08-01T08:42:28Z</time>
      </trkpt>
      <trkpt lat="43.2275459077" lon="2.3701872211">
        <ele>115.50</ele>
        <time>2017-08-01T08:42:30Z</time>
      </trkpt>
      <trkpt lat="43.2275577262" lon="2.3702524323">
        <ele>115.50</ele>
        <time>2017-08-01T08:42:31Z</time>
      </trkpt>
      <trkpt lat="43.2275715563" lon="2.3703175597">
        <ele>115.98</ele>
        <time>2017-08-01T08:42:32Z</time>
      </trkpt>
      <trkpt lat="43.2275938522" lon="2.3703846149">
        <ele>115.50</ele>
        <time>2017-08-01T08:42:33Z</time>
      </trkpt>
      <trkpt lat="43.2276164833" lon="2.3704556096">
        <ele>115.50</ele>
        <time>2017-08-01T08:42:34Z</time>
      </trkpt>
      <trkpt lat="43.2276537828" lon="2.3705968447">
        <ele>115.50</ele>
        <time>2017-08-01T08:42:36Z</time>
      </trkpt>
      <trkpt lat="43.2277645078" lon="2.3714945465">
        <ele>115.50</ele>
        <time>2017-08-01T08:42:50Z</time>
      </trkpt>
      <trkpt lat="43.2277675252" lon="2.3716082051">
        <ele>115.50</ele>
        <time>2017-08-01T08:42:52Z</time>
      </trkpt>
      <trkpt lat="43.2277753204" lon="2.3716700636">
        <ele>115.50</ele>
        <time>2017-08-01T08:42:53Z</time>
      </trkpt>
      <trkpt lat="43.2278787531" lon="2.3724990338">
        <ele>115.50</ele>
        <time>2017-08-01T08:43:06Z</time>
      </trkpt>
      <trkpt lat="43.2278873865" lon="2.3725580424">
        <ele>115.50</ele>
        <time>2017-08-01T08:43:07Z</time>
      </trkpt>
      <trkpt lat="43.2279050723" lon="2.3726768978">
        <ele>115.50</ele>
        <time>2017-08-01T08:43:09Z</time>
      </trkpt>
      <trkpt lat="43.2279422041" lon="2.3729171231">
        <ele>115.50</ele>
        <time>2017-08-01T08:43:13Z</time>
      </trkpt>
      <trkpt lat="43.2280333992" lon="2.3732756171">
        <ele>115.50</ele>
        <time>2017-08-01T08:43:19Z</time>
      </trkpt>
      <trkpt lat="43.2281644922" lon="2.3736847378">
        <ele>115.50</ele>
        <time>2017-08-01T08:43:28Z</time>
      </trkpt>
      <trkpt lat="43.2283392549" lon="2.3740169965">
        <ele>115.01</ele>
        <time>2017-08-01T08:43:36Z</time>
      </trkpt>
      <trkpt lat="43.2283926476" lon="2.3741080239">
        <ele>115.01</ele>
        <time>2017-08-01T08:43:38Z</time>
      </trkpt>
      <trkpt lat="43.2285897061" lon="2.3744039889">
        <ele>115.50</ele>
        <time>2017-08-01T08:43:45Z</time>
      </trkpt>
      <trkpt lat="43.2286236528" lon="2.3744452279">
        <ele>115.50</ele>
        <time>2017-08-01T08:43:46Z</time>
      </trkpt>
      <trkpt lat="43.2286575157" lon="2.3744859640">
        <ele>115.50</ele>
        <time>2017-08-01T08:43:47Z</time>
      </trkpt>
      <trkpt lat="43.2286909595" lon="2.3745261971">
        <ele>115.50</ele>
        <time>2017-08-01T08:43:48Z</time>
      </trkpt>
      <trkpt lat="43.2287255768" lon="2.3745647538">
        <ele>115.50</ele>
        <time>2017-08-01T08:43:49Z</time>
      </trkpt>
      <trkpt lat="43.2287623733" lon="2.3746036459">
        <ele>115.50</ele>
        <time>2017-08-01T08:43:50Z</time>
      </trkpt>
      <trkpt lat="43.2287991699" lon="2.3746392690">
        <ele>115.50</ele>
        <time>2017-08-01T08:43:51Z</time>
      </trkpt>
      <trkpt lat="43.2291523833" lon="2.3749507405">
        <ele>115.50</ele>
        <time>2017-08-01T08:44:00Z</time>
      </trkpt>
      <trkpt lat="43.2295881584" lon="2.3752176203">
        <ele>115.50</ele>
        <time>2017-08-01T08:44:10Z</time>
      </trkpt>
      <trkpt lat="43.2300819363" lon="2.3753373977">
        <ele>115.50</ele>
        <time>2017-08-01T08:44:20Z</time>
      </trkpt>
      <trkpt lat="43.2306141034" lon="2.3752988409">
        <ele>115.50</ele>
        <time>2017-08-01T08:44:31Z</time>
      </trkpt>
      <trkpt lat="43.2307581045" lon="2.3752617091">
        <ele>115.50</ele>
        <time>2017-08-01T08:44:34Z</time>
      </trkpt>
      <trkpt lat="43.2312229648" lon="2.3750486411">
        <ele>115.50</ele>
        <time>2017-08-01T08:44:45Z</time>
      </trkpt>
      <trkpt lat="43.2316111308" lon="2.3748577852">
        <ele>115.50</ele>
        <time>2017-08-01T08:44:55Z</time>
      </trkpt>
      <trkpt lat="43.2319440600" lon="2.3746723775">
        <ele>115.50</ele>
        <time>2017-08-01T08:45:04Z</time>
      </trkpt>
      <trkpt lat="43.2321491651" lon="2.3745989520">
        <ele>116.46</ele>
        <time>2017-08-01T08:45:12Z</time>
      </trkpt>
      <trkpt lat="43.2321661804" lon="2.3746137042">
        <ele>116.46</ele>
        <time>2017-08-01T08:45:25Z</time>
      </trkpt>
      <trkpt lat="43.2321770769" lon="2.3746100999">
        <ele>116.46</ele>
        <time>2017-08-01T08:45:32Z</time>
      </trkpt>
      <trkpt lat="43.2321923319" lon="2.3746129498">
        <ele>116.46</ele>
        <time>2017-08-01T08:45:33Z</time>
      </trkpt>
      <trkpt lat="43.2322112750" lon="2.3746143747">
        <ele>116.94</ele>
        <time>2017-08-01T08:45:34Z</time>
      </trkpt>
      <trkpt lat="43.2322268654" lon="2.3746070825">
        <ele>116.94</ele>
        <time>2017-08-01T08:45:35Z</time>
      </trkpt>
      <trkpt lat="43.2322396059" lon="2.3745947611">
        <ele>116.94</ele>
        <time>2017-08-01T08:45:36Z</time>
      </trkpt>
      <trkpt lat="43.2322508376" lon="2.3745841160">
        <ele>116.94</ele>
        <time>2017-08-01T08:45:37Z</time>
      </trkpt>
      <trkpt lat="43.2322638296" lon="2.3745763209">
        <ele>116.94</ele>
        <time>2017-08-01T08:45:38Z</time>
      </trkpt>
      <trkpt lat="43.2322860416" lon="2.3745748959">
        <ele>116.46</ele>
        <time>2017-08-01T08:45:39Z</time>
      </trkpt>
      <trkpt lat="43.2323157135" lon="2.3745680228">
        <ele>115.98</ele>
        <time>2017-08-01T08:45:40Z</time>
      </trkpt>
      <trkpt lat="43.2326376624" lon="2.3744539451">
        <ele>114.05</ele>
        <time>2017-08-01T08:45:47Z</time>
      </trkpt>
      <trkpt lat="43.2327244151" lon="2.3744056653">
        <ele>114.05</ele>
        <time>2017-08-01T08:45:49Z</time>
      </trkpt>
      <trkpt lat="43.2330595236" lon="2.3742367700">
        <ele>113.09</ele>
        <time>2017-08-01T08:45:57Z</time>
      </trkpt>
      <trkpt lat="43.2332107332" lon="2.3741523642">
        <ele>113.09</ele>
        <time>2017-08-01T08:46:00Z</time>
      </trkpt>
      <trkpt lat="43.2332610246" lon="2.3741304874">
        <ele>113.09</ele>
        <time>2017-08-01T08:46:01Z</time>
      </trkpt>
      <trkpt lat="43.2334394753" lon="2.3740455788">
        <ele>113.09</ele>
        <time>2017-08-01T08:46:05Z</time>
      </trkpt>
      <trkpt lat="43.2339953631" lon="2.3737695627">
        <ele>112.61</ele>
        <time>2017-08-01T08:46:15Z</time>
      </trkpt>
      <trkpt lat="43.2340471633" lon="2.3737529665">
        <ele>112.61</ele>
        <time>2017-08-01T08:46:16Z</time>
      </trkpt>
      <trkpt lat="43.2342050783" lon="2.3736771103">
        <ele>112.61</ele>
        <time>2017-08-01T08:46:19Z</time>
      </trkpt>
      <trkpt lat="43.2342511788" lon="2.3736529704">
        <ele>112.61</ele>
        <time>2017-08-01T08:46:20Z</time>
      </trkpt>
      <trkpt lat="43.2343011349" lon="2.3736281600">
        <ele>112.61</ele>
        <time>2017-08-01T08:46:21Z</time>
      </trkpt>
      <trkpt lat="43.2343509234" lon="2.3736078758">
        <ele>112.61</ele>
        <time>2017-08-01T08:46:22Z</time>
      </trkpt>
      <trkpt lat="43.2343999576" lon="2.3735831492">
        <ele>112.61</ele>
        <time>2017-08-01T08:46:23Z</time>
      </trkpt>
      <trkpt lat="43.2344451360" lon="2.3735618591">
        <ele>112.61</ele>
        <time>2017-08-01T08:46:24Z</time>
      </trkpt>
      <trkpt lat="43.2348159514" lon="2.3733683210">
        <ele>112.61</ele>
        <time>2017-08-01T08:46:33Z</time>
      </trkpt>
      <trkpt lat="43.2348592859" lon="2.3733467795">
        <ele>113.09</ele>
        <time>2017-08-01T08:46:34Z</time>
      </trkpt>
      <trkpt lat="43.2349037938" lon="2.3733256571">
        <ele>113.09</ele>
        <time>2017-08-01T08:46:35Z</time>
      </trkpt>
      <trkpt lat="43.2349459548" lon="2.3733091448">
        <ele>113.09</ele>
        <time>2017-08-01T08:46:36Z</time>
      </trkpt>
      <trkpt lat="43.2349831704" lon="2.3732987512">
        <ele>113.09</ele>
        <time>2017-08-01T08:46:37Z</time>
      </trkpt>
      <trkpt lat="43.2352236472" lon="2.3731880262">
        <ele>113.09</ele>
        <time>2017-08-01T08:46:44Z</time>
      </trkpt>
      <trkpt lat="43.2354491204" lon="2.3730788939">
        <ele>112.61</ele>
        <time>2017-08-01T08:46:50Z</time>
      </trkpt>
      <trkpt lat="43.2357089594" lon="2.3729504831">
        <ele>113.09</ele>
        <time>2017-08-01T08:46:57Z</time>
      </trkpt>
      <trkpt lat="43.2360015716" lon="2.3728117626">
        <ele>113.09</ele>
        <time>2017-08-01T08:47:05Z</time>
      </trkpt>
      <trkpt lat="43.2363573834" lon="2.3726413585">
        <ele>113.57</ele>
        <time>2017-08-01T08:47:14Z</time>
      </trkpt>
      <trkpt lat="43.2368165441" lon="2.3725621495">
        <ele>113.57</ele>
        <time>2017-08-01T08:47:25Z</time>
      </trkpt>
      <trkpt lat="43.2369332202" lon="2.3725707829">
        <ele>113.57</ele>
        <time>2017-08-01T08:47:27Z</time>
      </trkpt>
      <trkpt lat="43.2372324541" lon="2.3727749661">
        <ele>113.09</ele>
        <time>2017-08-01T08:47:36Z</time>
      </trkpt>
      <trkpt lat="43.2374793012" lon="2.3729708511">
        <ele>112.13</ele>
        <time>2017-08-01T08:47:46Z</time>
      </trkpt>
      <trkpt lat="43.2376486156" lon="2.3732421733">
        <ele>112.61</ele>
        <time>2017-08-01T08:47:56Z</time>
      </trkpt>
      <trkpt lat="43.2377882581" lon="2.3735495377">
        <ele>112.61</ele>
        <time>2017-08-01T08:48:08Z</time>
      </trkpt>
      <trkpt lat="43.2378991507" lon="2.3738148250">
        <ele>112.13</ele>
        <time>2017-08-01T08:48:19Z</time>
      </trkpt>
      <trkpt lat="43.2379507832" lon="2.3738849815">
        <ele>112.13</ele>
        <time>2017-08-01T08:48:29Z</time>
      </trkpt>
      <trkpt lat="43.2379531302" lon="2.3738815449">
        <ele>112.61</ele>
        <time>2017-08-01T08:48:45Z</time>
      </trkpt>
      <trkpt lat="43.2379578240" lon="2.3738776892">
        <ele>112.61</ele>
        <time>2017-08-01T08:48:58Z</time>
      </trkpt>
      <trkpt lat="43.2379545551" lon="2.3738798685">
        <ele>112.13</ele>
        <time>2017-08-01T08:49:11Z</time>
      </trkpt>
      <trkpt lat="43.2379566506" lon="2.3738856521">
        <ele>112.13</ele>
        <time>2017-08-01T08:49:32Z</time>
      </trkpt>
      <trkpt lat="43.2379533816" lon="2.3738771863">
        <ele>112.13</ele>
        <time>2017-08-01T08:49:56Z</time>
      </trkpt>
      <trkpt lat="43.2379569858" lon="2.3738781083">
        <ele>112.13</ele>
        <time>2017-08-01T08:50:18Z</time>
      </trkpt>
      <trkpt lat="43.2379622664" lon="2.3739039246">
        <ele>112.13</ele>
        <time>2017-08-01T08:50:33Z</time>
      </trkpt>
      <trkpt lat="43.2379793655" lon="2.3739401344">
        <ele>112.13</ele>
        <time>2017-08-01T08:50:42Z</time>
      </trkpt>
      <trkpt lat="43.2379894238" lon="2.3739527911">
        <ele>112.13</ele>
        <time>2017-08-01T08:51:00Z</time>
      </trkpt>
      <trkpt lat="43.2379890885" lon="2.3739505280">
        <ele>112.13</ele>
        <time>2017-08-01T08:51:10Z</time>
      </trkpt>
      <trkpt lat="43.2379840594" lon="2.3739481810">
        <ele>112.13</ele>
        <time>2017-08-01T08:51:30Z</time>
      </trkpt>
      <trkpt lat="43.2379854005" lon="2.3739454150">
        <ele>112.13</ele>
        <time>2017-08-01T08:51:43Z</time>
      </trkpt>
      <trkpt lat="43.2379810419" lon="2.3739475943">
        <ele>112.61</ele>
        <time>2017-08-01T08:51:53Z</time>
      </trkpt>
      <trkpt lat="43.2379821315" lon="2.3739452474">
        <ele>112.13</ele>
        <time>2017-08-01T08:52:13Z</time>
      </trkpt>
      <trkpt lat="43.2379818801" lon="2.3739418108">
        <ele>111.65</ele>
        <time>2017-08-01T08:52:38Z</time>
      </trkpt>
      <trkpt lat="43.2379815448" lon="2.3739413079">
        <ele>111.17</ele>
        <time>2017-08-01T08:53:04Z</time>
      </trkpt>
      <trkpt lat="43.2379794493" lon="2.3739377037">
        <ele>111.17</ele>
        <time>2017-08-01T08:53:28Z</time>
      </trkpt>
      <trkpt lat="43.2379800361" lon="2.3739356920">
        <ele>111.17</ele>
        <time>2017-08-01T08:53:51Z</time>
      </trkpt>
      <trkpt lat="43.2379558962" lon="2.3739392962">
        <ele>110.69</ele>
        <time>2017-08-01T08:54:13Z</time>
      </trkpt>
      <trkpt lat="43.2379361987" lon="2.3739075288">
        <ele>110.69</ele>
        <time>2017-08-01T08:54:31Z</time>
      </trkpt>
      <trkpt lat="43.2379629370" lon="2.3739372008">
        <ele>110.69</ele>
        <time>2017-08-01T08:54:49Z</time>
      </trkpt>
      <trkpt lat="43.2379651163" lon="2.3739392124">
        <ele>110.69</ele>
        <time>2017-08-01T08:54:50Z</time>
      </trkpt>
      <trkpt lat="43.2379657030" lon="2.3739615083">
        <ele>110.69</ele>
        <time>2017-08-01T08:54:51Z</time>
      </trkpt>
      <trkpt lat="43.2379677147" lon="2.3739923537">
        <ele>110.69</ele>
        <time>2017-08-01T08:54:52Z</time>
      </trkpt>
      <trkpt lat="43.2379730791" lon="2.3740320001">
        <ele>110.69</ele>
        <time>2017-08-01T08:54:53Z</time>
      </trkpt>
      <trkpt lat="43.2379867416" lon="2.3740771785">
        <ele>110.21</ele>
        <time>2017-08-01T08:54:54Z</time>
      </trkpt>
      <trkpt lat="43.2380038407" lon="2.3741213512">
        <ele>109.73</ele>
        <time>2017-08-01T08:54:55Z</time>
      </trkpt>
      <trkpt lat="43.2380216941" lon="2.3741677031">
        <ele>109.25</ele>
        <time>2017-08-01T08:54:56Z</time>
      </trkpt>
      <trkpt lat="43.2380366139" lon="2.3742164019">
        <ele>108.77</ele>
        <time>2017-08-01T08:54:57Z</time>
      </trkpt>
      <trkpt lat="43.2380550541" lon="2.3742689565">
        <ele>108.29</ele>
        <time>2017-08-01T08:54:58Z</time>
      </trkpt>
      <trkpt lat="43.2381000649" lon="2.3743733950">
        <ele>107.32</ele>
        <time>2017-08-01T08:55:00Z</time>
      </trkpt>
      <trkpt lat="43.2381775975" lon="2.3745464813">
        <ele>105.40</ele>
        <time>2017-08-01T08:55:04Z</time>
      </trkpt>
      <trkpt lat="43.2383068465" lon="2.3749029636">
        <ele>104.44</ele>
        <time>2017-08-01T08:55:13Z</time>
      </trkpt>
      <trkpt lat="43.2384710480" lon="2.3751603719">
        <ele>103.96</ele>
        <time>2017-08-01T08:55:20Z</time>
      </trkpt>
      <trkpt lat="43.2386033982" lon="2.3755116574">
        <ele>103.96</ele>
        <time>2017-08-01T08:55:28Z</time>
      </trkpt>
      <trkpt lat="43.2386829425" lon="2.3756587598">
        <ele>103.48</ele>
        <time>2017-08-01T08:55:31Z</time>
      </trkpt>
      <trkpt lat="43.2387106027" lon="2.3757093865">
        <ele>103.48</ele>
        <time>2017-08-01T08:55:32Z</time>
      </trkpt>
      <trkpt lat="43.2388149574" lon="2.3759090435">
        <ele>103.48</ele>
        <time>2017-08-01T08:55:36Z</time>
      </trkpt>
      <trkpt lat="43.2390450407" lon="2.3763593193">
        <ele>103.00</ele>
        <time>2017-08-01T08:55:45Z</time>
      </trkpt>
      <trkpt lat="43.2392813265" lon="2.3768640775">
        <ele>103.00</ele>
        <time>2017-08-01T08:55:55Z</time>
      </trkpt>
      <trkpt lat="43.2393090706" lon="2.3769151233">
        <ele>103.00</ele>
        <time>2017-08-01T08:55:56Z</time>
      </trkpt>
      <trkpt lat="43.2396230567" lon="2.3775610328">
        <ele>103.00</ele>
        <time>2017-08-01T08:56:08Z</time>
      </trkpt>
      <trkpt lat="43.2397385594" lon="2.3777754419">
        <ele>103.00</ele>
        <time>2017-08-01T08:56:12Z</time>
      </trkpt>
      <trkpt lat="43.2400688063" lon="2.3784436472">
        <ele>103.00</ele>
        <time>2017-08-01T08:56:25Z</time>
      </trkpt>
      <trkpt lat="43.2402912620" lon="2.3788086791">
        <ele>103.00</ele>
        <time>2017-08-01T08:56:34Z</time>
      </trkpt>
      <trkpt lat="43.2404552959" lon="2.3791893851">
        <ele>103.00</ele>
        <time>2017-08-01T08:56:42Z</time>
      </trkpt>
      <trkpt lat="43.2406066731" lon="2.3795328755">
        <ele>103.48</ele>
        <time>2017-08-01T08:56:50Z</time>
      </trkpt>
      <trkpt lat="43.2406759076" lon="2.3798301816">
        <ele>104.92</ele>
        <time>2017-08-01T08:56:59Z</time>
      </trkpt>
      <trkpt lat="43.2407432981" lon="2.3800456803">
        <ele>105.88</ele>
        <time>2017-08-01T08:57:08Z</time>
      </trkpt>
      <trkpt lat="43.2407530211" lon="2.3800623603">
        <ele>105.88</ele>
        <time>2017-08-01T08:57:09Z</time>
      </trkpt>
      <trkpt lat="43.2407665998" lon="2.3800780345">
        <ele>105.88</ele>
        <time>2017-08-01T08:57:10Z</time>
      </trkpt>
      <trkpt lat="43.2407805976" lon="2.3800978158">
        <ele>105.88</ele>
        <time>2017-08-01T08:57:11Z</time>
      </trkpt>
      <trkpt lat="43.2408785820" lon="2.3802560661">
        <ele>104.44</ele>
        <time>2017-08-01T08:57:15Z</time>
      </trkpt>
      <trkpt lat="43.2411266863" lon="2.3805617541">
        <ele>103.00</ele>
        <time>2017-08-01T08:57:24Z</time>
      </trkpt>
      <trkpt lat="43.2414621301" lon="2.3810627405">
        <ele>103.00</ele>
        <time>2017-08-01T08:57:36Z</time>
      </trkpt>
      <trkpt lat="43.2416906208" lon="2.3813521676">
        <ele>102.52</ele>
        <time>2017-08-01T08:57:44Z</time>
      </trkpt>
      <trkpt lat="43.2419170998" lon="2.3817163613">
        <ele>103.00</ele>
        <time>2017-08-01T08:57:53Z</time>
      </trkpt>
      <trkpt lat="43.2421372086" lon="2.3820037767">
        <ele>103.00</ele>
        <time>2017-08-01T08:58:01Z</time>
      </trkpt>
      <trkpt lat="43.2423087861" lon="2.3823096324">
        <ele>103.00</ele>
        <time>2017-08-01T08:58:08Z</time>
      </trkpt>
      <trkpt lat="43.2425275538" lon="2.3826650251">
        <ele>102.52</ele>
        <time>2017-08-01T08:58:16Z</time>
      </trkpt>
      <trkpt lat="43.2428499218" lon="2.3832048196">
        <ele>103.00</ele>
        <time>2017-08-01T08:58:27Z</time>
      </trkpt>
      <trkpt lat="43.2432737108" lon="2.3841097299">
        <ele>103.48</ele>
        <time>2017-08-01T08:58:42Z</time>
      </trkpt>
      <trkpt lat="43.2433585357" lon="2.3843591753">
        <ele>103.00</ele>
        <time>2017-08-01T08:58:46Z</time>
      </trkpt>
      <trkpt lat="43.2434176281" lon="2.3845991492">
        <ele>103.00</ele>
        <time>2017-08-01T08:58:50Z</time>
      </trkpt>
      <trkpt lat="43.2434580289" lon="2.3852126207">
        <ele>103.00</ele>
        <time>2017-08-01T08:59:00Z</time>
      </trkpt>
      <trkpt lat="43.2434662431" lon="2.3855181411">
        <ele>103.00</ele>
        <time>2017-08-01T08:59:05Z</time>
      </trkpt>
      <trkpt lat="43.2434596214" lon="2.3857635632">
        <ele>103.00</ele>
        <time>2017-08-01T08:59:09Z</time>
      </trkpt>
      <trkpt lat="43.2434864435" lon="2.3863770347">
        <ele>103.00</ele>
        <time>2017-08-01T08:59:19Z</time>
      </trkpt>
      <trkpt lat="43.2434829231" lon="2.3868158273">
        <ele>103.48</ele>
        <time>2017-08-01T08:59:29Z</time>
      </trkpt>
      <trkpt lat="43.2434156165" lon="2.3872658517">
        <ele>103.00</ele>
        <time>2017-08-01T08:59:37Z</time>
      </trkpt>
      <trkpt lat="43.2432518341" lon="2.3878599610">
        <ele>103.48</ele>
        <time>2017-08-01T08:59:47Z</time>
      </trkpt>
      <trkpt lat="43.2430712041" lon="2.3883846682">
        <ele>103.48</ele>
        <time>2017-08-01T08:59:58Z</time>
      </trkpt>
      <trkpt lat="43.2429723814" lon="2.3886457644">
        <ele>103.00</ele>
        <time>2017-08-01T09:00:03Z</time>
      </trkpt>
      <trkpt lat="43.2426495105" lon="2.3891749978">
        <ele>103.48</ele>
        <time>2017-08-01T09:00:15Z</time>
      </trkpt>
      <trkpt lat="43.2425918430" lon="2.3892653547">
        <ele>103.48</ele>
        <time>2017-08-01T09:00:17Z</time>
      </trkpt>
      <trkpt lat="43.2425145619" lon="2.3893505149">
        <ele>103.48</ele>
        <time>2017-08-01T09:00:19Z</time>
      </trkpt>
      <trkpt lat="43.2424805313" lon="2.3893959448">
        <ele>103.48</ele>
        <time>2017-08-01T09:00:20Z</time>
      </trkpt>
      <trkpt lat="43.2424570620" lon="2.3894479964">
        <ele>103.00</ele>
        <time>2017-08-01T09:00:21Z</time>
      </trkpt>
      <trkpt lat="43.2424454112" lon="2.3895063344">
        <ele>103.00</ele>
        <time>2017-08-01T09:00:22Z</time>
      </trkpt>
      <trkpt lat="43.2424376160" lon="2.3895659298">
        <ele>103.00</ele>
        <time>2017-08-01T09:00:23Z</time>
      </trkpt>
      <trkpt lat="43.2423332613" lon="2.3903872725">
        <ele>103.48</ele>
        <time>2017-08-01T09:00:36Z</time>
      </trkpt>
      <trkpt lat="43.2422436588" lon="2.3909576610">
        <ele>103.00</ele>
        <time>2017-08-01T09:00:45Z</time>
      </trkpt>
      <trkpt lat="43.2421945408" lon="2.3913490959">
        <ele>103.00</ele>
        <time>2017-08-01T09:00:51Z</time>
      </trkpt>
      <trkpt lat="43.2421895955" lon="2.3915481661">
        <ele>103.00</ele>
        <time>2017-08-01T09:00:54Z</time>
      </trkpt>
      <trkpt lat="43.2423128095" lon="2.3924462870">
        <ele>102.52</ele>
        <time>2017-08-01T09:01:09Z</time>
      </trkpt>
      <trkpt lat="43.2424627617" lon="2.3933978844">
        <ele>102.52</ele>
        <time>2017-08-01T09:01:24Z</time>
      </trkpt>
      <trkpt lat="43.2425725646" lon="2.3940770701">
        <ele>102.52</ele>
        <time>2017-08-01T09:01:35Z</time>
      </trkpt>
      <trkpt lat="43.2425890770" lon="2.3941322230">
        <ele>102.52</ele>
        <time>2017-08-01T09:01:36Z</time>
      </trkpt>
      <trkpt lat="43.2427661028" lon="2.3944806587">
        <ele>103.00</ele>
        <time>2017-08-01T09:01:45Z</time>
      </trkpt>
      <trkpt lat="43.2427819446" lon="2.3944929801">
        <ele>103.00</ele>
        <time>2017-08-01T09:01:46Z</time>
      </trkpt>
      <trkpt lat="43.2427922543" lon="2.3945125937">
        <ele>102.52</ele>
        <time>2017-08-01T09:01:53Z</time>
      </trkpt>
      <trkpt lat="43.2428254467" lon="2.3945485521">
        <ele>102.52</ele>
        <time>2017-08-01T09:01:58Z</time>
      </trkpt>
      <trkpt lat="43.2428417914" lon="2.3945740331">
        <ele>102.52</ele>
        <time>2017-08-01T09:01:59Z</time>
      </trkpt>
      <trkpt lat="43.2428596448" lon="2.3946020287">
        <ele>102.52</ele>
        <time>2017-08-01T09:02:00Z</time>
      </trkpt>
      <trkpt lat="43.2428835332" lon="2.3946360592">
        <ele>102.52</ele>
        <time>2017-08-01T09:02:01Z</time>
      </trkpt>
      <trkpt lat="43.2429125346" lon="2.3946710955">
        <ele>102.04</ele>
        <time>2017-08-01T09:02:02Z</time>
      </trkpt>
      <trkpt lat="43.2429438829" lon="2.3947114125">
        <ele>102.04</ele>
        <time>2017-08-01T09:02:03Z</time>
      </trkpt>
      <trkpt lat="43.2429681066" lon="2.3947508074">
        <ele>102.52</ele>
        <time>2017-08-01T09:02:04Z</time>
      </trkpt>
      <trkpt lat="43.2429855410" lon="2.3947833292">
        <ele>102.52</ele>
        <time>2017-08-01T09:02:05Z</time>
      </trkpt>
      <trkpt lat="43.2430033106" lon="2.3948119953">
        <ele>101.08</ele>
        <time>2017-08-01T09:02:06Z</time>
      </trkpt>
      <trkpt lat="43.2430212479" lon="2.3948383145">
        <ele>103.96</ele>
        <time>2017-08-01T09:02:07Z</time>
      </trkpt>
      <trkpt lat="43.2430380117" lon="2.3948626220">
        <ele>102.52</ele>
        <time>2017-08-01T09:02:08Z</time>
      </trkpt>
      <trkpt lat="43.2430569548" lon="2.3948856723">
        <ele>102.52</ele>
        <time>2017-08-01T09:02:09Z</time>
      </trkpt>
      <trkpt lat="43.2430803403" lon="2.3949109018">
        <ele>102.52</ele>
        <time>2017-08-01T09:02:10Z</time>
      </trkpt>
      <trkpt lat="43.2432704419" lon="2.3951747641">
        <ele>102.52</ele>
        <time>2017-08-01T09:02:17Z</time>
      </trkpt>
      <trkpt lat="43.2436135132" lon="2.3956662789">
        <ele>102.52</ele>
        <time>2017-08-01T09:02:28Z</time>
      </trkpt>
      <trkpt lat="43.2436453644" lon="2.3957074340">
        <ele>102.52</ele>
        <time>2017-08-01T09:02:29Z</time>
      </trkpt>
      <trkpt lat="43.2436760422" lon="2.3957531154">
        <ele>102.04</ele>
        <time>2017-08-01T09:02:30Z</time>
      </trkpt>
      <trkpt lat="43.2437030319" lon="2.3957946897">
        <ele>102.04</ele>
        <time>2017-08-01T09:02:31Z</time>
      </trkpt>
      <trkpt lat="43.2437268365" lon="2.3958314024">
        <ele>102.04</ele>
        <time>2017-08-01T09:02:32Z</time>
      </trkpt>
      <trkpt lat="43.2437495515" lon="2.3958730604">
        <ele>102.04</ele>
        <time>2017-08-01T09:02:33Z</time>
      </trkpt>
      <trkpt lat="43.2437689137" lon="2.3959189095">
        <ele>102.04</ele>
        <time>2017-08-01T09:02:34Z</time>
      </trkpt>
      <trkpt lat="43.2437808998" lon="2.3959655128">
        <ele>102.04</ele>
        <time>2017-08-01T09:02:35Z</time>
      </trkpt>
      <trkpt lat="43.2437881920" lon="2.3960115295">
        <ele>102.04</ele>
        <time>2017-08-01T09:02:36Z</time>
      </trkpt>
      <trkpt lat="43.2437938917" lon="2.3960478231">
        <ele>102.52</ele>
        <time>2017-08-01T09:02:37Z</time>
      </trkpt>
      <trkpt lat="43.2438202109" lon="2.3964177165">
        <ele>102.04</ele>
        <time>2017-08-01T09:02:45Z</time>
      </trkpt>
      <trkpt lat="43.2437498029" lon="2.3969944753">
        <ele>102.04</ele>
        <time>2017-08-01T09:02:55Z</time>
      </trkpt>
      <trkpt lat="43.2436871063" lon="2.3973730020">
        <ele>102.04</ele>
        <time>2017-08-01T09:03:02Z</time>
      </trkpt>
      <trkpt lat="43.2435935643" lon="2.3977099545">
        <ele>102.04</ele>
        <time>2017-08-01T09:03:09Z</time>
      </trkpt>
      <trkpt lat="43.2435061410" lon="2.3980868887">
        <ele>101.56</ele>
        <time>2017-08-01T09:03:16Z</time>
      </trkpt>
      <trkpt lat="43.2434246689" lon="2.3984622303">
        <ele>102.04</ele>
        <time>2017-08-01T09:03:23Z</time>
      </trkpt>
      <trkpt lat="43.2433369104" lon="2.3989891168">
        <ele>101.56</ele>
        <time>2017-08-01T09:03:32Z</time>
      </trkpt>
      <trkpt lat="43.2432184741" lon="2.3996853177">
        <ele>101.56</ele>
        <time>2017-08-01T09:03:43Z</time>
      </trkpt>
      <trkpt lat="43.2432131097" lon="2.3997489363">
        <ele>101.56</ele>
        <time>2017-08-01T09:03:44Z</time>
      </trkpt>
      <trkpt lat="43.2431755587" lon="2.3999744933">
        <ele>101.56</ele>
        <time>2017-08-01T09:03:48Z</time>
      </trkpt>
      <trkpt lat="43.2431649975" lon="2.4000339210">
        <ele>101.56</ele>
        <time>2017-08-01T09:03:49Z</time>
      </trkpt>
      <trkpt lat="43.2431289554" lon="2.4002711289">
        <ele>101.56</ele>
        <time>2017-08-01T09:03:53Z</time>
      </trkpt>
      <trkpt lat="43.2431225013" lon="2.4003248569">
        <ele>102.52</ele>
        <time>2017-08-01T09:03:54Z</time>
      </trkpt>
      <trkpt lat="43.2430558652" lon="2.4006064888">
        <ele>101.56</ele>
        <time>2017-08-01T09:03:59Z</time>
      </trkpt>
      <trkpt lat="43.2430499978" lon="2.4006680120">
        <ele>101.56</ele>
        <time>2017-08-01T09:04:00Z</time>
      </trkpt>
      <trkpt lat="43.2429801766" lon="2.4011907075">
        <ele>101.08</ele>
        <time>2017-08-01T09:04:09Z</time>
      </trkpt>
      <trkpt lat="43.2429669332" lon="2.4012489617">
        <ele>101.56</ele>
        <time>2017-08-01T09:04:10Z</time>
      </trkpt>
      <trkpt lat="43.2429540250" lon="2.4013069645">
        <ele>101.08</ele>
        <time>2017-08-01T09:04:11Z</time>
      </trkpt>
      <trkpt lat="43.2428977825" lon="2.4016368762">
        <ele>101.08</ele>
        <time>2017-08-01T09:04:17Z</time>
      </trkpt>
      <trkpt lat="43.2427468244" lon="2.4024843704">
        <ele>101.08</ele>
        <time>2017-08-01T09:04:31Z</time>
      </trkpt>
      <trkpt lat="43.2426584791" lon="2.4030670803">
        <ele>101.08</ele>
        <time>2017-08-01T09:04:41Z</time>
      </trkpt>
      <trkpt lat="43.2426491752" lon="2.4031226523">
        <ele>101.08</ele>
        <time>2017-08-01T09:04:42Z</time>
      </trkpt>
      <trkpt lat="43.2426319923" lon="2.4035599362">
        <ele>101.08</ele>
        <time>2017-08-01T09:04:50Z</time>
      </trkpt>
      <trkpt lat="43.2426247839" lon="2.4037315138">
        <ele>101.08</ele>
        <time>2017-08-01T09:04:53Z</time>
      </trkpt>
      <trkpt lat="43.2426242810" lon="2.4037920311">
        <ele>101.08</ele>
        <time>2017-08-01T09:04:54Z</time>
      </trkpt>
      <trkpt lat="43.2426196709" lon="2.4038502853">
        <ele>101.08</ele>
        <time>2017-08-01T09:04:55Z</time>
      </trkpt>
      <trkpt lat="43.2426101994" lon="2.4039051868">
        <ele>101.08</ele>
        <time>2017-08-01T09:04:56Z</time>
      </trkpt>
      <trkpt lat="43.2426007278" lon="2.4039584957">
        <ele>101.08</ele>
        <time>2017-08-01T09:04:57Z</time>
      </trkpt>
      <trkpt lat="43.2425977103" lon="2.4040149897">
        <ele>101.08</ele>
        <time>2017-08-01T09:04:58Z</time>
      </trkpt>
      <trkpt lat="43.2425962854" lon="2.4040682148">
        <ele>100.60</ele>
        <time>2017-08-01T09:04:59Z</time>
      </trkpt>
      <trkpt lat="43.2425920945" lon="2.4041225296">
        <ele>101.08</ele>
        <time>2017-08-01T09:05:00Z</time>
      </trkpt>
      <trkpt lat="43.2425889093" lon="2.4041805323">
        <ele>101.08</ele>
        <time>2017-08-01T09:05:01Z</time>
      </trkpt>
      <trkpt lat="43.2425418869" lon="2.4048145395">
        <ele>101.08</ele>
        <time>2017-08-01T09:05:12Z</time>
      </trkpt>
      <trkpt lat="43.2425231114" lon="2.4049934931">
        <ele>101.08</ele>
        <time>2017-08-01T09:05:15Z</time>
      </trkpt>
      <trkpt lat="43.2424256299" lon="2.4056221358">
        <ele>101.08</ele>
        <time>2017-08-01T09:05:25Z</time>
      </trkpt>
      <trkpt lat="43.2423921023" lon="2.4056829885">
        <ele>101.08</ele>
        <time>2017-08-01T09:05:26Z</time>
      </trkpt>
      <trkpt lat="43.2423558924" lon="2.4057287537">
        <ele>101.08</ele>
        <time>2017-08-01T09:05:27Z</time>
      </trkpt>
      <trkpt lat="43.2423267234" lon="2.4057740159">
        <ele>101.08</ele>
        <time>2017-08-01T09:05:28Z</time>
      </trkpt>
      <trkpt lat="43.2422309183" lon="2.4060042668">
        <ele>101.08</ele>
        <time>2017-08-01T09:05:33Z</time>
      </trkpt>
      <trkpt lat="43.2422030903" lon="2.4060451705">
        <ele>101.08</ele>
        <time>2017-08-01T09:05:34Z</time>
      </trkpt>
      <trkpt lat="43.2419554051" lon="2.4063640181">
        <ele>100.11</ele>
        <time>2017-08-01T09:05:44Z</time>
      </trkpt>
      <trkpt lat="43.2416391559" lon="2.4066129606">
        <ele>101.08</ele>
        <time>2017-08-01T09:05:53Z</time>
      </trkpt>
      <trkpt lat="43.2416214701" lon="2.4066396989">
        <ele>101.08</ele>
        <time>2017-08-01T09:05:54Z</time>
      </trkpt>
      <trkpt lat="43.2415943127" lon="2.4066666886">
        <ele>101.56</ele>
        <time>2017-08-01T09:05:55Z</time>
      </trkpt>
      <trkpt lat="43.2412676699" lon="2.4068901502">
        <ele>101.08</ele>
        <time>2017-08-01T09:06:04Z</time>
      </trkpt>
      <trkpt lat="43.2410186436" lon="2.4070985243">
        <ele>101.08</ele>
        <time>2017-08-01T09:06:11Z</time>
      </trkpt>
      <trkpt lat="43.2409841940" lon="2.4071308784">
        <ele>101.08</ele>
        <time>2017-08-01T09:06:12Z</time>
      </trkpt>
      <trkpt lat="43.2406822778" lon="2.4074391648">
        <ele>101.08</ele>
        <time>2017-08-01T09:06:22Z</time>
      </trkpt>
      <trkpt lat="43.2404265460" lon="2.4077170249">
        <ele>101.08</ele>
        <time>2017-08-01T09:06:30Z</time>
      </trkpt>
      <trkpt lat="43.2403628435" lon="2.4077990837">
        <ele>100.60</ele>
        <time>2017-08-01T09:06:32Z</time>
      </trkpt>
      <trkpt lat="43.2403342612" lon="2.4078353774">
        <ele>100.60</ele>
        <time>2017-08-01T09:06:33Z</time>
      </trkpt>
      <trkpt lat="43.2403085288" lon="2.4078699946">
        <ele>100.60</ele>
        <time>2017-08-01T09:06:34Z</time>
      </trkpt>
      <trkpt lat="43.2400623523" lon="2.4082641117">
        <ele>100.60</ele>
        <time>2017-08-01T09:06:44Z</time>
      </trkpt>
      <trkpt lat="43.2398524694" lon="2.4086010642">
        <ele>101.08</ele>
        <time>2017-08-01T09:06:52Z</time>
      </trkpt>
      <trkpt lat="43.2396582607" lon="2.4089334067">
        <ele>100.60</ele>
        <time>2017-08-01T09:07:01Z</time>
      </trkpt>
      <trkpt lat="43.2394481264" lon="2.4093172140">
        <ele>100.60</ele>
        <time>2017-08-01T09:07:10Z</time>
      </trkpt>
      <trkpt lat="43.2391918916" lon="2.4097347166">
        <ele>100.60</ele>
        <time>2017-08-01T09:07:19Z</time>
      </trkpt>
      <trkpt lat="43.2391065639" lon="2.4098751135">
        <ele>100.60</ele>
        <time>2017-08-01T09:07:22Z</time>
      </trkpt>
      <trkpt lat="43.2390784007" lon="2.4099225551">
        <ele>100.60</ele>
        <time>2017-08-01T09:07:23Z</time>
      </trkpt>
      <trkpt lat="43.2390524168" lon="2.4099707510">
        <ele>101.08</ele>
        <time>2017-08-01T09:07:24Z</time>
      </trkpt>
      <trkpt lat="43.2388445456" lon="2.4103263952">
        <ele>100.60</ele>
        <time>2017-08-01T09:07:33Z</time>
      </trkpt>
      <trkpt lat="43.2387054060" lon="2.4105418939">
        <ele>100.60</ele>
        <time>2017-08-01T09:07:39Z</time>
      </trkpt>
      <trkpt lat="43.2385422103" lon="2.4107914232">
        <ele>100.60</ele>
        <time>2017-08-01T09:07:46Z</time>
      </trkpt>
      <trkpt lat="43.2381441537" lon="2.4111845344">
        <ele>100.60</ele>
        <time>2017-08-01T09:07:56Z</time>
      </trkpt>
      <trkpt lat="43.2376410719" lon="2.4115906376">
        <ele>100.60</ele>
        <time>2017-08-01T09:08:09Z</time>
      </trkpt>
      <trkpt lat="43.2372668199" lon="2.4118800648">
        <ele>100.60</ele>
        <time>2017-08-01T09:08:19Z</time>
      </trkpt>
      <trkpt lat="43.2370381616" lon="2.4120919593">
        <ele>100.60</ele>
        <time>2017-08-01T09:08:27Z</time>
      </trkpt>
      <trkpt lat="43.2366884686" lon="2.4123618565">
        <ele>100.60</ele>
        <time>2017-08-01T09:08:37Z</time>
      </trkpt>
      <trkpt lat="43.2363872230" lon="2.4125900120">
        <ele>100.60</ele>
        <time>2017-08-01T09:08:46Z</time>
      </trkpt>
      <trkpt lat="43.2360183354" lon="2.4128708057">
        <ele>100.60</ele>
        <time>2017-08-01T09:08:57Z</time>
      </trkpt>
      <trkpt lat="43.2357522938" lon="2.4130792636">
        <ele>100.60</ele>
        <time>2017-08-01T09:09:06Z</time>
      </trkpt>
      <trkpt lat="43.2354346197" lon="2.4132865481">
        <ele>100.60</ele>
        <time>2017-08-01T09:09:17Z</time>
      </trkpt>
      <trkpt lat="43.2351609506" lon="2.4135252647">
        <ele>99.15</ele>
        <time>2017-08-01T09:09:27Z</time>
      </trkpt>
      <trkpt lat="43.2348119281" lon="2.4138617143">
        <ele>98.19</ele>
        <time>2017-08-01T09:09:38Z</time>
      </trkpt>
      <trkpt lat="43.2347742934" lon="2.4138983432">
        <ele>98.19</ele>
        <time>2017-08-01T09:09:39Z</time>
      </trkpt>
      <trkpt lat="43.2342816051" lon="2.4143497087">
        <ele>97.23</ele>
        <time>2017-08-01T09:09:52Z</time>
      </trkpt>
      <trkpt lat="43.2339820359" lon="2.4146017525">
        <ele>97.23</ele>
        <time>2017-08-01T09:10:00Z</time>
      </trkpt>
      <trkpt lat="43.2339448202" lon="2.4146325141">
        <ele>97.23</ele>
        <time>2017-08-01T09:10:01Z</time>
      </trkpt>
      <trkpt lat="43.2334569935" lon="2.4150304031">
        <ele>97.23</ele>
        <time>2017-08-01T09:10:15Z</time>
      </trkpt>
      <trkpt lat="43.2331323624" lon="2.4152589776">
        <ele>97.23</ele>
        <time>2017-08-01T09:10:24Z</time>
      </trkpt>
      <trkpt lat="43.2327364013" lon="2.4154444691">
        <ele>96.75</ele>
        <time>2017-08-01T09:10:34Z</time>
      </trkpt>
      <trkpt lat="43.2323016319" lon="2.4155687727">
        <ele>97.23</ele>
        <time>2017-08-01T09:10:45Z</time>
      </trkpt>
      <trkpt lat="43.2318762504" lon="2.4156381749">
        <ele>96.75</ele>
        <time>2017-08-01T09:10:58Z</time>
      </trkpt>
      <trkpt lat="43.2314525452" lon="2.4156456348">
        <ele>97.23</ele>
        <time>2017-08-01T09:11:10Z</time>
      </trkpt>
      <trkpt lat="43.2311794627" lon="2.4155634921">
        <ele>97.23</ele>
        <time>2017-08-01T09:11:16Z</time>
      </trkpt>
      <trkpt lat="43.2310575899" lon="2.4154975265">
        <ele>97.23</ele>
        <time>2017-08-01T09:11:19Z</time>
      </trkpt>
      <trkpt lat="43.2308359724" lon="2.4153350852">
        <ele>97.23</ele>
        <time>2017-08-01T09:11:25Z</time>
      </trkpt>
      <trkpt lat="43.2308029477" lon="2.4152912479">
        <ele>97.23</ele>
        <time>2017-08-01T09:11:26Z</time>
      </trkpt>
      <trkpt lat="43.2307054661" lon="2.4151496775">
        <ele>97.23</ele>
        <time>2017-08-01T09:11:29Z</time>
      </trkpt>
      <trkpt lat="43.2303722855" lon="2.4145420734">
        <ele>97.23</ele>
        <time>2017-08-01T09:11:42Z</time>
      </trkpt>
      <trkpt lat="43.2301922422" lon="2.4141600262">
        <ele>97.23</ele>
        <time>2017-08-01T09:11:52Z</time>
      </trkpt>
      <trkpt lat="43.2300284598" lon="2.4138024542">
        <ele>96.75</ele>
        <time>2017-08-01T09:12:02Z</time>
      </trkpt>
      <trkpt lat="43.2299013063" lon="2.4134922400">
        <ele>96.75</ele>
        <time>2017-08-01T09:12:12Z</time>
      </trkpt>
      <trkpt lat="43.2299038209" lon="2.4134594668">
        <ele>97.23</ele>
        <time>2017-08-01T09:12:13Z</time>
      </trkpt>
      <trkpt lat="43.2299060002" lon="2.4134281185">
        <ele>97.23</ele>
        <time>2017-08-01T09:12:14Z</time>
      </trkpt>
      <trkpt lat="43.2299128734" lon="2.4133986142">
        <ele>97.23</ele>
        <time>2017-08-01T09:12:15Z</time>
      </trkpt>
      <trkpt lat="43.2299186569" lon="2.4133751448">
        <ele>97.23</ele>
        <time>2017-08-01T09:12:16Z</time>
      </trkpt>
      <trkpt lat="43.2299230993" lon="2.4133440480">
        <ele>97.71</ele>
        <time>2017-08-01T09:12:24Z</time>
      </trkpt>
      <trkpt lat="43.2299242727" lon="2.4133476522">
        <ele>97.71</ele>
        <time>2017-08-01T09:12:41Z</time>
      </trkpt>
      <trkpt lat="43.2299242727" lon="2.4133560341">
        <ele>97.23</ele>
        <time>2017-08-01T09:12:53Z</time>
      </trkpt>
      <trkpt lat="43.2299171481" lon="2.4133425392">
        <ele>97.23</ele>
        <time>2017-08-01T09:12:54Z</time>
      </trkpt>
      <trkpt lat="43.2299039047" lon="2.4133242667">
        <ele>97.71</ele>
        <time>2017-08-01T09:12:55Z</time>
      </trkpt>
      <trkpt lat="43.2298878953" lon="2.4133007973">
        <ele>97.71</ele>
        <time>2017-08-01T09:12:56Z</time>
      </trkpt>
      <trkpt lat="43.2298731431" lon="2.4132766575">
        <ele>97.71</ele>
        <time>2017-08-01T09:12:57Z</time>
      </trkpt>
      <trkpt lat="43.2298593130" lon="2.4132510927">
        <ele>97.71</ele>
        <time>2017-08-01T09:12:58Z</time>
      </trkpt>
      <trkpt lat="43.2298485842" lon="2.4132194091">
        <ele>97.71</ele>
        <time>2017-08-01T09:12:59Z</time>
      </trkpt>
      <trkpt lat="43.2298418786" lon="2.4131894019">
        <ele>97.71</ele>
        <time>2017-08-01T09:13:00Z</time>
      </trkpt>
      <trkpt lat="43.2297397871" lon="2.4129314069">
        <ele>98.19</ele>
        <time>2017-08-01T09:13:08Z</time>
      </trkpt>
      <trkpt lat="43.2295149844" lon="2.4124926142">
        <ele>97.71</ele>
        <time>2017-08-01T09:13:20Z</time>
      </trkpt>
      <trkpt lat="43.2292879187" lon="2.4122618604">
        <ele>97.23</ele>
        <time>2017-08-01T09:13:28Z</time>
      </trkpt>
      <trkpt lat="43.2289259881" lon="2.4120239820">
        <ele>96.75</ele>
        <time>2017-08-01T09:13:37Z</time>
      </trkpt>
      <trkpt lat="43.2287515607" lon="2.4119535740">
        <ele>96.75</ele>
        <time>2017-08-01T09:13:41Z</time>
      </trkpt>
      <trkpt lat="43.2287073042" lon="2.4119456951">
        <ele>96.75</ele>
        <time>2017-08-01T09:13:42Z</time>
      </trkpt>
      <trkpt lat="43.2281695213" lon="2.4118842557">
        <ele>97.23</ele>
        <time>2017-08-01T09:13:54Z</time>
      </trkpt>
      <trkpt lat="43.2276902441" lon="2.4119107425">
        <ele>96.75</ele>
        <time>2017-08-01T09:14:04Z</time>
      </trkpt>
      <trkpt lat="43.2270404790" lon="2.4120591860">
        <ele>95.79</ele>
        <time>2017-08-01T09:14:18Z</time>
      </trkpt>
      <trkpt lat="43.2269459311" lon="2.4120955635">
        <ele>96.27</ele>
        <time>2017-08-01T09:14:20Z</time>
      </trkpt>
      <trkpt lat="43.2268997468" lon="2.4121132493">
        <ele>95.79</ele>
        <time>2017-08-01T09:14:21Z</time>
      </trkpt>
      <trkpt lat="43.2268512994" lon="2.4121302646">
        <ele>95.31</ele>
        <time>2017-08-01T09:14:22Z</time>
      </trkpt>
      <trkpt lat="43.2264222298" lon="2.4122886825">
        <ele>95.31</ele>
        <time>2017-08-01T09:14:31Z</time>
      </trkpt>
      <trkpt lat="43.2258695271" lon="2.4125601724">
        <ele>95.31</ele>
        <time>2017-08-01T09:14:43Z</time>
      </trkpt>
      <trkpt lat="43.2253628410" lon="2.4128545448">
        <ele>95.31</ele>
        <time>2017-08-01T09:14:54Z</time>
      </trkpt>
      <trkpt lat="43.2250751741" lon="2.4130219314">
        <ele>95.79</ele>
        <time>2017-08-01T09:15:01Z</time>
      </trkpt>
      <trkpt lat="43.2246110681" lon="2.4133587163">
        <ele>95.79</ele>
        <time>2017-08-01T09:15:12Z</time>
      </trkpt>
      <trkpt lat="43.2245741040" lon="2.4133893102">
        <ele>95.31</ele>
        <time>2017-08-01T09:15:13Z</time>
      </trkpt>
      <trkpt lat="43.2242202200" lon="2.4136866163">
        <ele>95.79</ele>
        <time>2017-08-01T09:15:22Z</time>
      </trkpt>
      <trkpt lat="43.2241819985" lon="2.4137206469">
        <ele>95.79</ele>
        <time>2017-08-01T09:15:23Z</time>
      </trkpt>
      <trkpt lat="43.2241449505" lon="2.4137554318">
        <ele>95.79</ele>
        <time>2017-08-01T09:15:24Z</time>
      </trkpt>
      <trkpt lat="43.2238090876" lon="2.4141477048">
        <ele>95.31</ele>
        <time>2017-08-01T09:15:34Z</time>
      </trkpt>
      <trkpt lat="43.2237866241" lon="2.4142041989">
        <ele>95.31</ele>
        <time>2017-08-01T09:15:35Z</time>
      </trkpt>
      <trkpt lat="43.2237577904" lon="2.4142603576">
        <ele>94.83</ele>
        <time>2017-08-01T09:15:36Z</time>
      </trkpt>
      <trkpt lat="43.2237260230" lon="2.4143191148">
        <ele>94.35</ele>
        <time>2017-08-01T09:15:37Z</time>
      </trkpt>
      <trkpt lat="43.2236933336" lon="2.4143798836">
        <ele>93.87</ele>
        <time>2017-08-01T09:15:38Z</time>
      </trkpt>
      <trkpt lat="43.2236556988" lon="2.4144389760">
        <ele>93.87</ele>
        <time>2017-08-01T09:15:39Z</time>
      </trkpt>
      <trkpt lat="43.2236156333" lon="2.4144937098">
        <ele>93.87</ele>
        <time>2017-08-01T09:15:40Z</time>
      </trkpt>
      <trkpt lat="43.2235769928" lon="2.4145459291">
        <ele>93.87</ele>
        <time>2017-08-01T09:15:41Z</time>
      </trkpt>
      <trkpt lat="43.2235404477" lon="2.4145974778">
        <ele>93.87</ele>
        <time>2017-08-01T09:15:42Z</time>
      </trkpt>
      <trkpt lat="43.2231224421" lon="2.4151376076">
        <ele>93.39</ele>
        <time>2017-08-01T09:15:53Z</time>
      </trkpt>
      <trkpt lat="43.2229729090" lon="2.4153569620">
        <ele>93.87</ele>
        <time>2017-08-01T09:15:57Z</time>
      </trkpt>
      <trkpt lat="43.2228942029" lon="2.4154566228">
        <ele>93.87</ele>
        <time>2017-08-01T09:15:59Z</time>
      </trkpt>
      <trkpt lat="43.2227771077" lon="2.4155869614">
        <ele>93.39</ele>
        <time>2017-08-01T09:16:02Z</time>
      </trkpt>
      <trkpt lat="43.2226027641" lon="2.4158498179">
        <ele>93.39</ele>
        <time>2017-08-01T09:16:08Z</time>
      </trkpt>
      <trkpt lat="43.2225343678" lon="2.4159329664">
        <ele>93.39</ele>
        <time>2017-08-01T09:16:10Z</time>
      </trkpt>
      <trkpt lat="43.2223774586" lon="2.4161721859">
        <ele>93.39</ele>
        <time>2017-08-01T09:16:15Z</time>
      </trkpt>
      <trkpt lat="43.2223477028" lon="2.4162207171">
        <ele>93.39</ele>
        <time>2017-08-01T09:16:16Z</time>
      </trkpt>
      <trkpt lat="43.2222117484" lon="2.4164032750">
        <ele>93.39</ele>
        <time>2017-08-01T09:16:20Z</time>
      </trkpt>
      <trkpt lat="43.2221707609" lon="2.4164389819">
        <ele>93.39</ele>
        <time>2017-08-01T09:16:21Z</time>
      </trkpt>
      <trkpt lat="43.2221316174" lon="2.4164761975">
        <ele>93.39</ele>
        <time>2017-08-01T09:16:22Z</time>
      </trkpt>
      <trkpt lat="43.2220666576" lon="2.4165642913">
        <ele>93.39</ele>
        <time>2017-08-01T09:16:24Z</time>
      </trkpt>
      <trkpt lat="43.2219706010" lon="2.4166946299">
        <ele>93.39</ele>
        <time>2017-08-01T09:16:27Z</time>
      </trkpt>
      <trkpt lat="43.2216831855" lon="2.4171373621">
        <ele>93.39</ele>
        <time>2017-08-01T09:16:37Z</time>
      </trkpt>
      <trkpt lat="43.2216536812" lon="2.4171819538">
        <ele>93.39</ele>
        <time>2017-08-01T09:16:38Z</time>
      </trkpt>
      <trkpt lat="43.2216219138" lon="2.4172255397">
        <ele>93.39</ele>
        <time>2017-08-01T09:16:39Z</time>
      </trkpt>
      <trkpt lat="43.2215040643" lon="2.4174198322">
        <ele>93.39</ele>
        <time>2017-08-01T09:16:43Z</time>
      </trkpt>
      <trkpt lat="43.2214603107" lon="2.4175290484">
        <ele>93.39</ele>
        <time>2017-08-01T09:16:45Z</time>
      </trkpt>
      <trkpt lat="43.2214016374" lon="2.4176275358">
        <ele>93.39</ele>
        <time>2017-08-01T09:16:47Z</time>
      </trkpt>
      <trkpt lat="43.2213612366" lon="2.4176703673">
        <ele>93.39</ele>
        <time>2017-08-01T09:16:48Z</time>
      </trkpt>
      <trkpt lat="43.2213284634" lon="2.4177205749">
        <ele>93.39</ele>
        <time>2017-08-01T09:16:49Z</time>
      </trkpt>
      <trkpt lat="43.2211617474" lon="2.4180086609">
        <ele>93.39</ele>
        <time>2017-08-01T09:16:55Z</time>
      </trkpt>
      <trkpt lat="43.2209123019" lon="2.4184559193">
        <ele>93.39</ele>
        <time>2017-08-01T09:17:04Z</time>
      </trkpt>
      <trkpt lat="43.2208828814" lon="2.4185017683">
        <ele>93.39</ele>
        <time>2017-08-01T09:17:05Z</time>
      </trkpt>
      <trkpt lat="43.2208540477" lon="2.4185458571">
        <ele>93.39</ele>
        <time>2017-08-01T09:17:06Z</time>
      </trkpt>
      <trkpt lat="43.2206957135" lon="2.4187707435">
        <ele>93.39</ele>
        <time>2017-08-01T09:17:11Z</time>
      </trkpt>
      <trkpt lat="43.2206558157" lon="2.4188081268">
        <ele>93.39</ele>
        <time>2017-08-01T09:17:12Z</time>
      </trkpt>
      <trkpt lat="43.2206156664" lon="2.4188423250">
        <ele>93.39</ele>
        <time>2017-08-01T09:17:13Z</time>
      </trkpt>
      <trkpt lat="43.2205733377" lon="2.4188781157">
        <ele>93.39</ele>
        <time>2017-08-01T09:17:14Z</time>
      </trkpt>
      <trkpt lat="43.2205316797" lon="2.4189146608">
        <ele>93.39</ele>
        <time>2017-08-01T09:17:15Z</time>
      </trkpt>
      <trkpt lat="43.2204920333" lon="2.4189533852">
        <ele>93.39</ele>
        <time>2017-08-01T09:17:16Z</time>
      </trkpt>
      <trkpt lat="43.2204535604" lon="2.4189955462">
        <ele>93.39</ele>
        <time>2017-08-01T09:17:17Z</time>
      </trkpt>
      <trkpt lat="43.2204202842" lon="2.4190396350">
        <ele>93.39</ele>
        <time>2017-08-01T09:17:18Z</time>
      </trkpt>
      <trkpt lat="43.2203890197" lon="2.4190807901">
        <ele>92.90</ele>
        <time>2017-08-01T09:17:19Z</time>
      </trkpt>
      <trkpt lat="43.2203570008" lon="2.4191200174">
        <ele>93.39</ele>
        <time>2017-08-01T09:17:20Z</time>
      </trkpt>
      <trkpt lat="43.2201451063" lon="2.4193447363">
        <ele>93.39</ele>
        <time>2017-08-01T09:17:26Z</time>
      </trkpt>
      <trkpt lat="43.2199919689" lon="2.4194796011">
        <ele>92.90</ele>
        <time>2017-08-01T09:17:30Z</time>
      </trkpt>
      <trkpt lat="43.2196792401" lon="2.4197835289">
        <ele>93.39</ele>
        <time>2017-08-01T09:17:38Z</time>
      </trkpt>
      <trkpt lat="43.2195901405" lon="2.4198544398">
        <ele>93.39</ele>
        <time>2017-08-01T09:17:40Z</time>
      </trkpt>
      <trkpt lat="43.2194136176" lon="2.4200156238">
        <ele>93.39</ele>
        <time>2017-08-01T09:17:45Z</time>
      </trkpt>
      <trkpt lat="43.2193758991" lon="2.4200518336">
        <ele>92.90</ele>
        <time>2017-08-01T09:17:46Z</time>
      </trkpt>
      <trkpt lat="43.2193349954" lon="2.4200842716">
        <ele>93.39</ele>
        <time>2017-08-01T09:17:47Z</time>
      </trkpt>
      <trkpt lat="43.2192924153" lon="2.4201134406">
        <ele>93.39</ele>
        <time>2017-08-01T09:17:48Z</time>
      </trkpt>
      <trkpt lat="43.2192515116" lon="2.4201498181">
        <ele>93.39</ele>
        <time>2017-08-01T09:17:49Z</time>
      </trkpt>
      <trkpt lat="43.2190461550" lon="2.4203079846">
        <ele>93.39</ele>
        <time>2017-08-01T09:17:54Z</time>
      </trkpt>
      <trkpt lat="43.2190163154" lon="2.4203283526">
        <ele>93.39</ele>
        <time>2017-08-01T09:17:55Z</time>
      </trkpt>
      <trkpt lat="43.2190001383" lon="2.4203424342">
        <ele>93.87</ele>
        <time>2017-08-01T09:17:56Z</time>
      </trkpt>
      <trkpt lat="43.2189754117" lon="2.4203563482">
        <ele>93.39</ele>
        <time>2017-08-01T09:17:57Z</time>
      </trkpt>
      <trkpt lat="43.2189338375" lon="2.4203808233">
        <ele>93.39</ele>
        <time>2017-08-01T09:17:58Z</time>
      </trkpt>
      <trkpt lat="43.2188878208" lon="2.4204170331">
        <ele>93.39</ele>
        <time>2017-08-01T09:17:59Z</time>
      </trkpt>
      <trkpt lat="43.2188459951" lon="2.4204516504">
        <ele>93.39</ele>
        <time>2017-08-01T09:18:00Z</time>
      </trkpt>
      <trkpt lat="43.2187990565" lon="2.4204840045">
        <ele>93.39</ele>
        <time>2017-08-01T09:18:01Z</time>
      </trkpt>
      <trkpt lat="43.2187503576" lon="2.4205189571">
        <ele>93.39</ele>
        <time>2017-08-01T09:18:02Z</time>
      </trkpt>
      <trkpt lat="43.2186124753" lon="2.4206166901">
        <ele>93.39</ele>
        <time>2017-08-01T09:18:05Z</time>
      </trkpt>
      <trkpt lat="43.2185657043" lon="2.4206440151">
        <ele>92.90</ele>
        <time>2017-08-01T09:18:06Z</time>
      </trkpt>
      <trkpt lat="43.2182326075" lon="2.4208678119">
        <ele>93.39</ele>
        <time>2017-08-01T09:18:13Z</time>
      </trkpt>
      <trkpt lat="43.2181425858" lon="2.4209415726">
        <ele>92.90</ele>
        <time>2017-08-01T09:18:15Z</time>
      </trkpt>
      <trkpt lat="43.2178524043" lon="2.4211301655">
        <ele>92.90</ele>
        <time>2017-08-01T09:18:21Z</time>
      </trkpt>
      <trkpt lat="43.2178058010" lon="2.4211646151">
        <ele>92.90</ele>
        <time>2017-08-01T09:18:22Z</time>
      </trkpt>
      <trkpt lat="43.2176052220" lon="2.4213087838">
        <ele>92.90</ele>
        <time>2017-08-01T09:18:26Z</time>
      </trkpt>
      <trkpt lat="43.2173545193" lon="2.4214636814">
        <ele>92.90</ele>
        <time>2017-08-01T09:18:31Z</time>
      </trkpt>
      <trkpt lat="43.2173067424" lon="2.4214965384">
        <ele>92.90</ele>
        <time>2017-08-01T09:18:32Z</time>
      </trkpt>
      <trkpt lat="43.2172588818" lon="2.4215347599">
        <ele>92.90</ele>
        <time>2017-08-01T09:18:33Z</time>
      </trkpt>
      <trkpt lat="43.2172079198" lon="2.4215740710">
        <ele>92.90</ele>
        <time>2017-08-01T09:18:34Z</time>
      </trkpt>
      <trkpt lat="43.2171557005" lon="2.4216137175">
        <ele>92.90</ele>
        <time>2017-08-01T09:18:35Z</time>
      </trkpt>
      <trkpt lat="43.2169550378" lon="2.4217505101">
        <ele>92.90</ele>
        <time>2017-08-01T09:18:39Z</time>
      </trkpt>
      <trkpt lat="43.2164879981" lon="2.4221009575">
        <ele>92.90</ele>
        <time>2017-08-01T09:18:49Z</time>
      </trkpt>
      <trkpt lat="43.2162130717" lon="2.4224543385">
        <ele>92.90</ele>
        <time>2017-08-01T09:18:56Z</time>
      </trkpt>
      <trkpt lat="43.2161824778" lon="2.4225175381">
        <ele>92.90</ele>
        <time>2017-08-01T09:18:57Z</time>
      </trkpt>
      <trkpt lat="43.2161290012" lon="2.4226469547">
        <ele>92.42</ele>
        <time>2017-08-01T09:18:59Z</time>
      </trkpt>
      <trkpt lat="43.2160647120" lon="2.4228537362">
        <ele>92.42</ele>
        <time>2017-08-01T09:19:02Z</time>
      </trkpt>
      <trkpt lat="43.2159602735" lon="2.4238272104">
        <ele>92.42</ele>
        <time>2017-08-01T09:19:15Z</time>
      </trkpt>
      <trkpt lat="43.2159314398" lon="2.4248990044">
        <ele>91.94</ele>
        <time>2017-08-01T09:19:29Z</time>
      </trkpt>
      <trkpt lat="43.2159037795" lon="2.4255872425">
        <ele>92.42</ele>
        <time>2017-08-01T09:19:38Z</time>
      </trkpt>
      <trkpt lat="43.2157890312" lon="2.4265542626">
        <ele>91.94</ele>
        <time>2017-08-01T09:19:51Z</time>
      </trkpt>
      <trkpt lat="43.2156009413" lon="2.4275782797">
        <ele>92.42</ele>
        <time>2017-08-01T09:20:05Z</time>
      </trkpt>
      <trkpt lat="43.2154138573" lon="2.4282957707">
        <ele>91.94</ele>
        <time>2017-08-01T09:20:16Z</time>
      </trkpt>
      <trkpt lat="43.2153969258" lon="2.4283587188">
        <ele>91.94</ele>
        <time>2017-08-01T09:20:17Z</time>
      </trkpt>
      <trkpt lat="43.2151368354" lon="2.4291720986">
        <ele>91.94</ele>
        <time>2017-08-01T09:20:29Z</time>
      </trkpt>
      <trkpt lat="43.2147614099" lon="2.4301425554">
        <ele>91.94</ele>
        <time>2017-08-01T09:20:43Z</time>
      </trkpt>
      <trkpt lat="43.2143563963" lon="2.4308348168">
        <ele>91.94</ele>
        <time>2017-08-01T09:20:55Z</time>
      </trkpt>
      <trkpt lat="43.2139839046" lon="2.4315525591">
        <ele>91.94</ele>
        <time>2017-08-01T09:21:06Z</time>
      </trkpt>
      <trkpt lat="43.2138185296" lon="2.4325925019">
        <ele>91.94</ele>
        <time>2017-08-01T09:21:19Z</time>
      </trkpt>
      <trkpt lat="43.2138239779" lon="2.4334083963">
        <ele>91.94</ele>
        <time>2017-08-01T09:21:29Z</time>
      </trkpt>
      <trkpt lat="43.2139326073" lon="2.4342828803">
        <ele>92.90</ele>
        <time>2017-08-01T09:21:41Z</time>
      </trkpt>
      <trkpt lat="43.2139331102" lon="2.4344344251">
        <ele>93.87</ele>
        <time>2017-08-01T09:21:47Z</time>
      </trkpt>
      <trkpt lat="43.2139424980" lon="2.4344505183">
        <ele>93.87</ele>
        <time>2017-08-01T09:21:48Z</time>
      </trkpt>
      <trkpt lat="43.2139554899" lon="2.4344587326">
        <ele>93.87</ele>
        <time>2017-08-01T09:21:49Z</time>
      </trkpt>
      <trkpt lat="43.2139695715" lon="2.4344666116">
        <ele>93.87</ele>
        <time>2017-08-01T09:21:50Z</time>
      </trkpt>
      <trkpt lat="43.2139831502" lon="2.4344833754">
        <ele>93.87</ele>
        <time>2017-08-01T09:21:51Z</time>
      </trkpt>
      <trkpt lat="43.2140010875" lon="2.4345077667">
        <ele>93.87</ele>
        <time>2017-08-01T09:21:52Z</time>
      </trkpt>
      <trkpt lat="43.2140232157" lon="2.4345396180">
        <ele>93.39</ele>
        <time>2017-08-01T09:21:53Z</time>
      </trkpt>
      <trkpt lat="43.2143321726" lon="2.4349564500">
        <ele>92.42</ele>
        <time>2017-08-01T09:22:02Z</time>
      </trkpt>
      <trkpt lat="43.2145440672" lon="2.4353484716">
        <ele>92.42</ele>
        <time>2017-08-01T09:22:09Z</time>
      </trkpt>
      <trkpt lat="43.2145655248" lon="2.4354032055">
        <ele>92.42</ele>
        <time>2017-08-01T09:22:10Z</time>
      </trkpt>
      <trkpt lat="43.2145853061" lon="2.4354564305">
        <ele>92.42</ele>
        <time>2017-08-01T09:22:11Z</time>
      </trkpt>
      <trkpt lat="43.2146004774" lon="2.4355101585">
        <ele>92.42</ele>
        <time>2017-08-01T09:22:12Z</time>
      </trkpt>
      <trkpt lat="43.2146138884" lon="2.4355635513">
        <ele>92.42</ele>
        <time>2017-08-01T09:22:13Z</time>
      </trkpt>
      <trkpt lat="43.2146250363" lon="2.4356197100">
        <ele>91.94</ele>
        <time>2017-08-01T09:22:14Z</time>
      </trkpt>
      <trkpt lat="43.2146358490" lon="2.4356796406">
        <ele>91.94</ele>
        <time>2017-08-01T09:22:15Z</time>
      </trkpt>
      <trkpt lat="43.2146455720" lon="2.4357426725">
        <ele>92.42</ele>
        <time>2017-08-01T09:22:16Z</time>
      </trkpt>
      <trkpt lat="43.2146621682" lon="2.4361509550">
        <ele>91.94</ele>
        <time>2017-08-01T09:22:22Z</time>
      </trkpt>
      <trkpt lat="43.2146557141" lon="2.4362159148">
        <ele>91.94</ele>
        <time>2017-08-01T09:22:23Z</time>
      </trkpt>
      <trkpt lat="43.2145288121" lon="2.4371420313">
        <ele>91.94</ele>
        <time>2017-08-01T09:22:36Z</time>
      </trkpt>
      <trkpt lat="43.2144154049" lon="2.4379535671">
        <ele>91.94</ele>
        <time>2017-08-01T09:22:48Z</time>
      </trkpt>
      <trkpt lat="43.2143569831" lon="2.4388306495">
        <ele>91.46</ele>
        <time>2017-08-01T09:23:01Z</time>
      </trkpt>
      <trkpt lat="43.2143648621" lon="2.4388847128">
        <ele>91.46</ele>
        <time>2017-08-01T09:23:02Z</time>
      </trkpt>
      <trkpt lat="43.2143791951" lon="2.4389360100">
        <ele>91.94</ele>
        <time>2017-08-01T09:23:03Z</time>
      </trkpt>
      <trkpt lat="43.2144001499" lon="2.4389817752">
        <ele>91.46</ele>
        <time>2017-08-01T09:23:04Z</time>
      </trkpt>
      <trkpt lat="43.2144250441" lon="2.4390217569">
        <ele>91.46</ele>
        <time>2017-08-01T09:23:05Z</time>
      </trkpt>
      <trkpt lat="43.2145242020" lon="2.4393872079">
        <ele>91.46</ele>
        <time>2017-08-01T09:23:14Z</time>
      </trkpt>
      <trkpt lat="43.2145399600" lon="2.4397598673">
        <ele>91.46</ele>
        <time>2017-08-01T09:23:23Z</time>
      </trkpt>
      <trkpt lat="43.2145204302" lon="2.4401510507">
        <ele>91.94</ele>
        <time>2017-08-01T09:23:31Z</time>
      </trkpt>
      <trkpt lat="43.2144807000" lon="2.4402485322">
        <ele>92.42</ele>
        <time>2017-08-01T09:23:33Z</time>
      </trkpt>
      <trkpt lat="43.2144551352" lon="2.4402925372">
        <ele>92.42</ele>
        <time>2017-08-01T09:23:34Z</time>
      </trkpt>
      <trkpt lat="43.2144257985" lon="2.4403287470">
        <ele>92.42</ele>
        <time>2017-08-01T09:23:35Z</time>
      </trkpt>
      <trkpt lat="43.2143950369" lon="2.4403559882">
        <ele>92.42</ele>
        <time>2017-08-01T09:23:36Z</time>
      </trkpt>
      <trkpt lat="43.2143631857" lon="2.4403795414">
        <ele>92.42</ele>
        <time>2017-08-01T09:23:37Z</time>
      </trkpt>
      <trkpt lat="43.2142555621" lon="2.4404551461">
        <ele>92.42</ele>
        <time>2017-08-01T09:23:40Z</time>
      </trkpt>
      <trkpt lat="43.2142210286" lon="2.4404736701">
        <ele>92.42</ele>
        <time>2017-08-01T09:23:41Z</time>
      </trkpt>
      <trkpt lat="43.2140839007" lon="2.4405745883">
        <ele>92.42</ele>
        <time>2017-08-01T09:23:45Z</time>
      </trkpt>
      <trkpt lat="43.2140427455" lon="2.4406011589">
        <ele>92.42</ele>
        <time>2017-08-01T09:23:46Z</time>
      </trkpt>
      <trkpt lat="43.2138539013" lon="2.4407480098">
        <ele>92.42</ele>
        <time>2017-08-01T09:23:51Z</time>
      </trkpt>
      <trkpt lat="43.2133946568" lon="2.4410448130">
        <ele>92.42</ele>
        <time>2017-08-01T09:24:03Z</time>
      </trkpt>
      <trkpt lat="43.2132882904" lon="2.4411160592">
        <ele>92.42</ele>
        <time>2017-08-01T09:24:06Z</time>
      </trkpt>
      <trkpt lat="43.2129753940" lon="2.4413234275">
        <ele>92.42</ele>
        <time>2017-08-01T09:24:15Z</time>
      </trkpt>
      <trkpt lat="43.2125663571" lon="2.4415480625">
        <ele>92.42</ele>
        <time>2017-08-01T09:24:26Z</time>
      </trkpt>
      <trkpt lat="43.2122790255" lon="2.4416897167">
        <ele>92.90</ele>
        <time>2017-08-01T09:24:34Z</time>
      </trkpt>
      <trkpt lat="43.2119300030" lon="2.4418484699">
        <ele>93.39</ele>
        <time>2017-08-01T09:24:44Z</time>
      </trkpt>
      <trkpt lat="43.2115807291" lon="2.4420622922">
        <ele>94.83</ele>
        <time>2017-08-01T09:24:55Z</time>
      </trkpt>
      <trkpt lat="43.2113503106" lon="2.4422849994">
        <ele>95.79</ele>
        <time>2017-08-01T09:25:04Z</time>
      </trkpt>
      <trkpt lat="43.2112393342" lon="2.4423478637">
        <ele>96.27</ele>
        <time>2017-08-01T09:25:12Z</time>
      </trkpt>
      <trkpt lat="43.2110668346" lon="2.4425389711">
        <ele>95.79</ele>
        <time>2017-08-01T09:25:21Z</time>
      </trkpt>
      <trkpt lat="43.2110355701" lon="2.4425807968">
        <ele>93.87</ele>
        <time>2017-08-01T09:25:30Z</time>
      </trkpt>
      <trkpt lat="43.2110358216" lon="2.4425823055">
        <ele>93.87</ele>
        <time>2017-08-01T09:25:31Z</time>
      </trkpt>
      <trkpt lat="43.2110357378" lon="2.4425834790">
        <ele>98.19</ele>
        <time>2017-08-01T09:25:32Z</time>
      </trkpt>
      <trkpt lat="43.2110347319" lon="2.4425844848">
        <ele>95.31</ele>
        <time>2017-08-01T09:25:33Z</time>
      </trkpt>
      <trkpt lat="43.2110339776" lon="2.4425938725">
        <ele>95.79</ele>
        <time>2017-08-01T09:25:54Z</time>
      </trkpt>
      <trkpt lat="43.2103879005" lon="2.4428055156">
        <ele>102.04</ele>
        <time>2017-08-01T09:27:55Z</time>
      </trkpt>
      <trkpt lat="43.2103894092" lon="2.4427785259">
        <ele>102.04</ele>
        <time>2017-08-01T09:27:56Z</time>
      </trkpt>
      <trkpt lat="43.2103771716" lon="2.4426931981">
        <ele>102.04</ele>
        <time>2017-08-01T09:27:59Z</time>
      </trkpt>
      <trkpt lat="43.2103949413" lon="2.4426270649">
        <ele>102.04</ele>
        <time>2017-08-01T09:28:04Z</time>
      </trkpt>
      <trkpt lat="43.2100234553" lon="2.4425862450">
        <ele>99.15</ele>
        <time>2017-08-01T09:28:15Z</time>
      </trkpt>
      <trkpt lat="43.2097153366" lon="2.4424500391">
        <ele>96.75</ele>
        <time>2017-08-01T09:28:24Z</time>
      </trkpt>
      <trkpt lat="43.2096026000" lon="2.4423449300">
        <ele>94.83</ele>
        <time>2017-08-01T09:28:28Z</time>
      </trkpt>
      <trkpt lat="43.2094414998" lon="2.4421697482">
        <ele>93.39</ele>
        <time>2017-08-01T09:28:37Z</time>
      </trkpt>
      <trkpt lat="43.2094327826" lon="2.4422041140">
        <ele>92.42</ele>
        <time>2017-08-01T09:28:39Z</time>
      </trkpt>
      <trkpt lat="43.2094233949" lon="2.4422251526">
        <ele>92.42</ele>
        <time>2017-08-01T09:28:40Z</time>
      </trkpt>
      <trkpt lat="43.2093653083" lon="2.4423202872">
        <ele>89.54</ele>
        <time>2017-08-01T09:28:49Z</time>
      </trkpt>
      <trkpt lat="43.2093454432" lon="2.4423904438">
        <ele>89.54</ele>
        <time>2017-08-01T09:28:53Z</time>
      </trkpt>
      <trkpt lat="43.2093565911" lon="2.4424269050">
        <ele>89.06</ele>
        <time>2017-08-01T09:28:54Z</time>
      </trkpt>
      <trkpt lat="43.2093979139" lon="2.4425274879">
        <ele>88.58</ele>
        <time>2017-08-01T09:28:58Z</time>
      </trkpt>
      <trkpt lat="43.2094107382" lon="2.4425662123">
        <ele>88.10</ele>
        <time>2017-08-01T09:29:01Z</time>
      </trkpt>
      <trkpt lat="43.2094222214" lon="2.4425746780">
        <ele>88.10</ele>
        <time>2017-08-01T09:29:02Z</time>
      </trkpt>
      <trkpt lat="43.2094345428" lon="2.4425782822">
        <ele>88.10</ele>
        <time>2017-08-01T09:29:03Z</time>
      </trkpt>
      <trkpt lat="43.2094799727" lon="2.4426015001">
        <ele>88.10</ele>
        <time>2017-08-01T09:29:09Z</time>
      </trkpt>
      <trkpt lat="43.2094909530" lon="2.4426172581">
        <ele>88.10</ele>
        <time>2017-08-01T09:29:10Z</time>
      </trkpt>
      <trkpt lat="43.2095049508" lon="2.4426301662">
        <ele>87.62</ele>
        <time>2017-08-01T09:29:11Z</time>
      </trkpt>
      <trkpt lat="43.2095199544" lon="2.4426443316">
        <ele>88.10</ele>
        <time>2017-08-01T09:29:12Z</time>
      </trkpt>
      <trkpt lat="43.2095360477" lon="2.4426652864">
        <ele>88.58</ele>
        <time>2017-08-01T09:29:13Z</time>
      </trkpt>
      <trkpt lat="43.2095581759" lon="2.4426879175">
        <ele>88.58</ele>
        <time>2017-08-01T09:29:14Z</time>
      </trkpt>
      <trkpt lat="43.2095865905" lon="2.4427152425">
        <ele>89.06</ele>
        <time>2017-08-01T09:29:15Z</time>
      </trkpt>
      <trkpt lat="43.2096160110" lon="2.4427455850">
        <ele>89.06</ele>
        <time>2017-08-01T09:29:16Z</time>
      </trkpt>
      <trkpt lat="43.2097443379" lon="2.4428689666">
        <ele>90.50</ele>
        <time>2017-08-01T09:29:24Z</time>
      </trkpt>
      <trkpt lat="43.2097502053" lon="2.4428848084">
        <ele>90.50</ele>
        <time>2017-08-01T09:29:25Z</time>
      </trkpt>
      <trkpt lat="43.2097547315" lon="2.4429056793">
        <ele>90.50</ele>
        <time>2017-08-01T09:29:26Z</time>
      </trkpt>
      <trkpt lat="43.2097602636" lon="2.4429292325">
        <ele>90.50</ele>
        <time>2017-08-01T09:29:27Z</time>
      </trkpt>
      <trkpt lat="43.2097730879" lon="2.4429447390">
        <ele>90.50</ele>
        <time>2017-08-01T09:29:28Z</time>
      </trkpt>
      <trkpt lat="43.2097921986" lon="2.4429542944">
        <ele>90.50</ele>
        <time>2017-08-01T09:29:29Z</time>
      </trkpt>
      <trkpt lat="43.2098129857" lon="2.4429617543">
        <ele>90.98</ele>
        <time>2017-08-01T09:29:30Z</time>
      </trkpt>
      <trkpt lat="43.2098315097" lon="2.4429689627">
        <ele>90.98</ele>
        <time>2017-08-01T09:29:31Z</time>
      </trkpt>
      <trkpt lat="43.2099036779" lon="2.4430164881">
        <ele>91.94</ele>
        <time>2017-08-01T09:29:36Z</time>
      </trkpt>
      <trkpt lat="43.2099081203" lon="2.4430441484">
        <ele>91.94</ele>
        <time>2017-08-01T09:29:37Z</time>
      </trkpt>
      <trkpt lat="43.2099019177" lon="2.4430697132">
        <ele>92.42</ele>
        <time>2017-08-01T09:29:38Z</time>
      </trkpt>
      <trkpt lat="43.2098931167" lon="2.4430900812">
        <ele>91.94</ele>
        <time>2017-08-01T09:29:39Z</time>
      </trkpt>
      <trkpt lat="43.2098854892" lon="2.4431107845">
        <ele>92.42</ele>
        <time>2017-08-01T09:29:40Z</time>
      </trkpt>
      <trkpt lat="43.2098811306" lon="2.4431291409">
        <ele>92.42</ele>
        <time>2017-08-01T09:29:41Z</time>
      </trkpt>
      <trkpt lat="43.2098753471" lon="2.4432779197">
        <ele>93.39</ele>
        <time>2017-08-01T09:29:50Z</time>
      </trkpt>
      <trkpt lat="43.2098833099" lon="2.4432991259">
        <ele>92.42</ele>
        <time>2017-08-01T09:29:51Z</time>
      </trkpt>
      <trkpt lat="43.2098960504" lon="2.4433395267">
        <ele>92.42</ele>
        <time>2017-08-01T09:29:53Z</time>
      </trkpt>
      <trkpt lat="43.2099037617" lon="2.4433581345">
        <ele>92.42</ele>
        <time>2017-08-01T09:29:54Z</time>
      </trkpt>
      <trkpt lat="43.2099117246" lon="2.4433831125">
        <ele>92.42</ele>
        <time>2017-08-01T09:29:55Z</time>
      </trkpt>
      <trkpt lat="43.2099149935" lon="2.4434092641">
        <ele>92.42</ele>
        <time>2017-08-01T09:29:56Z</time>
      </trkpt>
      <trkpt lat="43.2099170052" lon="2.4434349127">
        <ele>91.94</ele>
        <time>2017-08-01T09:29:57Z</time>
      </trkpt>
      <trkpt lat="43.2099198550" lon="2.4434588850">
        <ele>91.94</ele>
        <time>2017-08-01T09:29:58Z</time>
      </trkpt>
      <trkpt lat="43.2099202741" lon="2.4434815161">
        <ele>91.94</ele>
        <time>2017-08-01T09:29:59Z</time>
      </trkpt>
      <trkpt lat="43.2098684739" lon="2.4436546862">
        <ele>91.94</ele>
        <time>2017-08-01T09:30:04Z</time>
      </trkpt>
      <trkpt lat="43.2098641153" lon="2.4436872080">
        <ele>91.94</ele>
        <time>2017-08-01T09:30:05Z</time>
      </trkpt>
      <trkpt lat="43.2098655403" lon="2.4437261838">
        <ele>91.94</ele>
        <time>2017-08-01T09:30:06Z</time>
      </trkpt>
      <trkpt lat="43.2098678034" lon="2.4437606335">
        <ele>91.94</ele>
        <time>2017-08-01T09:30:07Z</time>
      </trkpt>
      <trkpt lat="43.2098538056" lon="2.4438116793">
        <ele>91.94</ele>
        <time>2017-08-01T09:30:08Z</time>
      </trkpt>
      <trkpt lat="43.2098397240" lon="2.4438644014">
        <ele>91.94</ele>
        <time>2017-08-01T09:30:09Z</time>
      </trkpt>
      <trkpt lat="43.2098413166" lon="2.4439027067">
        <ele>91.94</ele>
        <time>2017-08-01T09:30:10Z</time>
      </trkpt>
      <trkpt lat="43.2098479383" lon="2.4439360667">
        <ele>91.94</ele>
        <time>2017-08-01T09:30:11Z</time>
      </trkpt>
      <trkpt lat="43.2098475192" lon="2.4439673312">
        <ele>91.46</ele>
        <time>2017-08-01T09:30:12Z</time>
      </trkpt>
      <trkpt lat="43.2098246366" lon="2.4440133478">
        <ele>91.94</ele>
        <time>2017-08-01T09:30:13Z</time>
      </trkpt>
      <trkpt lat="43.2098069508" lon="2.4440579396">
        <ele>91.94</ele>
        <time>2017-08-01T09:30:14Z</time>
      </trkpt>
      <trkpt lat="43.2097666338" lon="2.4441086501">
        <ele>91.94</ele>
        <time>2017-08-01T09:30:15Z</time>
      </trkpt>
      <trkpt lat="43.2097577490" lon="2.4441442732">
        <ele>91.94</ele>
        <time>2017-08-01T09:30:16Z</time>
      </trkpt>
      <trkpt lat="43.2097018417" lon="2.4445053656">
        <ele>91.94</ele>
        <time>2017-08-01T09:30:27Z</time>
      </trkpt>
      <trkpt lat="43.2096512150" lon="2.4448490236">
        <ele>91.46</ele>
        <time>2017-08-01T09:30:38Z</time>
      </trkpt>
      <trkpt lat="43.2095785439" lon="2.4452107865">
        <ele>91.94</ele>
        <time>2017-08-01T09:30:48Z</time>
      </trkpt>
      <trkpt lat="43.2094518933" lon="2.4456085917">
        <ele>92.90</ele>
        <time>2017-08-01T09:30:59Z</time>
      </trkpt>
      <trkpt lat="43.2092655636" lon="2.4460281059">
        <ele>92.90</ele>
        <time>2017-08-01T09:31:09Z</time>
      </trkpt>
      <trkpt lat="43.2090177946" lon="2.4465698283">
        <ele>93.39</ele>
        <time>2017-08-01T09:31:21Z</time>
      </trkpt>
      <trkpt lat="43.2089949958" lon="2.4466159288">
        <ele>93.39</ele>
        <time>2017-08-01T09:31:22Z</time>
      </trkpt>
      <trkpt lat="43.2088660821" lon="2.4468377978">
        <ele>93.39</ele>
        <time>2017-08-01T09:31:27Z</time>
      </trkpt>
      <trkpt lat="43.2087304629" lon="2.4470534641">
        <ele>92.90</ele>
        <time>2017-08-01T09:31:32Z</time>
      </trkpt>
      <trkpt lat="43.2084033173" lon="2.4475589767">
        <ele>92.90</ele>
        <time>2017-08-01T09:31:44Z</time>
      </trkpt>
      <trkpt lat="43.2081479207" lon="2.4479639903">
        <ele>92.42</ele>
        <time>2017-08-01T09:31:54Z</time>
      </trkpt>
      <trkpt lat="43.2079716492" lon="2.4482736178">
        <ele>92.42</ele>
        <time>2017-08-01T09:32:04Z</time>
      </trkpt>
      <trkpt lat="43.2077700645" lon="2.4485415034">
        <ele>91.94</ele>
        <time>2017-08-01T09:32:13Z</time>
      </trkpt>
      <trkpt lat="43.2074706629" lon="2.4487232231">
        <ele>91.94</ele>
        <time>2017-08-01T09:32:22Z</time>
      </trkpt>
      <trkpt lat="43.2072948944" lon="2.4487974867">
        <ele>91.94</ele>
        <time>2017-08-01T09:32:27Z</time>
      </trkpt>
      <trkpt lat="43.2072568405" lon="2.4488115683">
        <ele>91.94</ele>
        <time>2017-08-01T09:32:28Z</time>
      </trkpt>
      <trkpt lat="43.2072223909" lon="2.4488301761">
        <ele>91.94</ele>
        <time>2017-08-01T09:32:29Z</time>
      </trkpt>
      <trkpt lat="43.2069959119" lon="2.4489709921">
        <ele>91.94</ele>
        <time>2017-08-01T09:32:39Z</time>
      </trkpt>
      <trkpt lat="43.2069835905" lon="2.4489807989">
        <ele>91.46</ele>
        <time>2017-08-01T09:32:40Z</time>
      </trkpt>
      <trkpt lat="43.2069707662" lon="2.4489947129">
        <ele>91.94</ele>
        <time>2017-08-01T09:32:41Z</time>
      </trkpt>
      <trkpt lat="43.2069566008" lon="2.4490056094">
        <ele>91.94</ele>
        <time>2017-08-01T09:32:42Z</time>
      </trkpt>
      <trkpt lat="43.2069415972" lon="2.4490114767">
        <ele>91.46</ele>
        <time>2017-08-01T09:32:43Z</time>
      </trkpt>
      <trkpt lat="43.2069287729" lon="2.4490165059">
        <ele>91.46</ele>
        <time>2017-08-01T09:32:44Z</time>
      </trkpt>
      <trkpt lat="43.2069193851" lon="2.4490363710">
        <ele>91.46</ele>
        <time>2017-08-01T09:32:53Z</time>
      </trkpt>
      <trkpt lat="43.2069250010" lon="2.4490450881">
        <ele>91.46</ele>
        <time>2017-08-01T09:33:11Z</time>
      </trkpt>
      <trkpt lat="43.2069210615" lon="2.4490516260">
        <ele>91.46</ele>
        <time>2017-08-01T09:33:32Z</time>
      </trkpt>
      <trkpt lat="43.2069119252" lon="2.4490553979">
        <ele>91.46</ele>
        <time>2017-08-01T09:33:56Z</time>
      </trkpt>
      <trkpt lat="43.2069136016" lon="2.4490598403">
        <ele>91.46</ele>
        <time>2017-08-01T09:34:21Z</time>
      </trkpt>
      <trkpt lat="43.2069207262" lon="2.4490619358">
        <ele>91.46</ele>
        <time>2017-08-01T09:34:50Z</time>
      </trkpt>
      <trkpt lat="43.2068577781" lon="2.4490872491">
        <ele>91.46</ele>
        <time>2017-08-01T09:35:04Z</time>
      </trkpt>
      <trkpt lat="43.2066161279" lon="2.4491998181">
        <ele>90.50</ele>
        <time>2017-08-01T09:35:13Z</time>
      </trkpt>
      <trkpt lat="43.2064018864" lon="2.4492993951">
        <ele>88.58</ele>
        <time>2017-08-01T09:35:19Z</time>
      </trkpt>
      <trkpt lat="43.2060304005" lon="2.4494664464">
        <ele>86.18</ele>
        <time>2017-08-01T09:35:28Z</time>
      </trkpt>
      <trkpt lat="43.2059274707" lon="2.4495147262">
        <ele>85.21</ele>
        <time>2017-08-01T09:35:30Z</time>
      </trkpt>
      <trkpt lat="43.2058753353" lon="2.4495346751">
        <ele>84.73</ele>
        <time>2017-08-01T09:35:31Z</time>
      </trkpt>
      <trkpt lat="43.2058252115" lon="2.4495585635">
        <ele>85.21</ele>
        <time>2017-08-01T09:35:32Z</time>
      </trkpt>
      <trkpt lat="43.2056311704" lon="2.4496727251">
        <ele>84.73</ele>
        <time>2017-08-01T09:35:36Z</time>
      </trkpt>
      <trkpt lat="43.2055072021" lon="2.4497907422">
        <ele>84.73</ele>
        <time>2017-08-01T09:35:39Z</time>
      </trkpt>
      <trkpt lat="43.2054710761" lon="2.4498368427">
        <ele>85.21</ele>
        <time>2017-08-01T09:35:40Z</time>
      </trkpt>
      <trkpt lat="43.2054308429" lon="2.4498805963">
        <ele>84.73</ele>
        <time>2017-08-01T09:35:41Z</time>
      </trkpt>
      <trkpt lat="43.2053934596" lon="2.4499281216">
        <ele>85.21</ele>
        <time>2017-08-01T09:35:42Z</time>
      </trkpt>
      <trkpt lat="43.2053570822" lon="2.4499762338">
        <ele>85.21</ele>
        <time>2017-08-01T09:35:43Z</time>
      </trkpt>
      <trkpt lat="43.2053245604" lon="2.4500261899">
        <ele>84.73</ele>
        <time>2017-08-01T09:35:44Z</time>
      </trkpt>
      <trkpt lat="43.2051067986" lon="2.4504693411">
        <ele>84.73</ele>
        <time>2017-08-01T09:35:54Z</time>
      </trkpt>
      <trkpt lat="43.2049556728" lon="2.4508087244">
        <ele>85.21</ele>
        <time>2017-08-01T09:36:02Z</time>
      </trkpt>
      <trkpt lat="43.2048016973" lon="2.4511468504">
        <ele>85.21</ele>
        <time>2017-08-01T09:36:10Z</time>
      </trkpt>
      <trkpt lat="43.2046266831" lon="2.4516366050">
        <ele>84.73</ele>
        <time>2017-08-01T09:36:21Z</time>
      </trkpt>
      <trkpt lat="43.2045459654" lon="2.4519551173">
        <ele>84.73</ele>
        <time>2017-08-01T09:36:29Z</time>
      </trkpt>
      <trkpt lat="43.2044566981" lon="2.4523565266">
        <ele>84.73</ele>
        <time>2017-08-01T09:36:38Z</time>
      </trkpt>
      <trkpt lat="43.2043741364" lon="2.4528140109">
        <ele>84.73</ele>
        <time>2017-08-01T09:36:48Z</time>
      </trkpt>
      <trkpt lat="43.2042572089" lon="2.4532619398">
        <ele>84.73</ele>
        <time>2017-08-01T09:36:57Z</time>
      </trkpt>
      <trkpt lat="43.2040671911" lon="2.4536429811">
        <ele>84.73</ele>
        <time>2017-08-01T09:37:06Z</time>
      </trkpt>
      <trkpt lat="43.2039236091" lon="2.4539510999">
        <ele>84.73</ele>
        <time>2017-08-01T09:37:12Z</time>
      </trkpt>
      <trkpt lat="43.2037003990" lon="2.4543614779">
        <ele>85.21</ele>
        <time>2017-08-01T09:37:20Z</time>
      </trkpt>
      <trkpt lat="43.2036714815" lon="2.4544196483">
        <ele>85.21</ele>
        <time>2017-08-01T09:37:21Z</time>
      </trkpt>
      <trkpt lat="43.2036480960" lon="2.4544598814">
        <ele>85.21</ele>
        <time>2017-08-01T09:37:22Z</time>
      </trkpt>
      <trkpt lat="43.2036234532" lon="2.4544960074">
        <ele>85.21</ele>
        <time>2017-08-01T09:37:23Z</time>
      </trkpt>
      <trkpt lat="43.2036001515" lon="2.4545447901">
        <ele>85.21</ele>
        <time>2017-08-01T09:37:24Z</time>
      </trkpt>
      <trkpt lat="43.2035782747" lon="2.4545990210">
        <ele>85.69</ele>
        <time>2017-08-01T09:37:25Z</time>
      </trkpt>
      <trkpt lat="43.2035527099" lon="2.4546536710">
        <ele>85.69</ele>
        <time>2017-08-01T09:37:26Z</time>
      </trkpt>
      <trkpt lat="43.2035258878" lon="2.4547073990">
        <ele>85.69</ele>
        <time>2017-08-01T09:37:27Z</time>
      </trkpt>
      <trkpt lat="43.2032654621" lon="2.4551323615">
        <ele>85.69</ele>
        <time>2017-08-01T09:37:37Z</time>
      </trkpt>
      <trkpt lat="43.2029858418" lon="2.4555709027">
        <ele>85.69</ele>
        <time>2017-08-01T09:37:48Z</time>
      </trkpt>
      <trkpt lat="43.2027302776" lon="2.4559082743">
        <ele>86.18</ele>
        <time>2017-08-01T09:37:57Z</time>
      </trkpt>
      <trkpt lat="43.2023960073" lon="2.4563730508">
        <ele>86.18</ele>
        <time>2017-08-01T09:38:08Z</time>
      </trkpt>
      <trkpt lat="43.2019419596" lon="2.4569483008">
        <ele>85.69</ele>
        <time>2017-08-01T09:38:23Z</time>
      </trkpt>
      <trkpt lat="43.2016993035" lon="2.4572501332">
        <ele>85.69</ele>
        <time>2017-08-01T09:38:31Z</time>
      </trkpt>
      <trkpt lat="43.2012506202" lon="2.4578811228">
        <ele>85.69</ele>
        <time>2017-08-01T09:38:45Z</time>
      </trkpt>
      <trkpt lat="43.2007853407" lon="2.4585417844">
        <ele>85.69</ele>
        <time>2017-08-01T09:39:00Z</time>
      </trkpt>
      <trkpt lat="43.2003706042" lon="2.4591322895">
        <ele>85.69</ele>
        <time>2017-08-01T09:39:13Z</time>
      </trkpt>
      <trkpt lat="43.2000100985" lon="2.4596365448">
        <ele>85.21</ele>
        <time>2017-08-01T09:39:24Z</time>
      </trkpt>
      <trkpt lat="43.1997102778" lon="2.4600782711">
        <ele>85.21</ele>
        <time>2017-08-01T09:39:33Z</time>
      </trkpt>
      <trkpt lat="43.1993012410" lon="2.4607841112">
        <ele>85.21</ele>
        <time>2017-08-01T09:39:47Z</time>
      </trkpt>
      <trkpt lat="43.1988956407" lon="2.4615902826">
        <ele>85.21</ele>
        <time>2017-08-01T09:40:02Z</time>
      </trkpt>
      <trkpt lat="43.1987298466" lon="2.4619310070">
        <ele>87.14</ele>
        <time>2017-08-01T09:40:11Z</time>
      </trkpt>
      <trkpt lat="43.1986334547" lon="2.4622308277">
        <ele>87.14</ele>
        <time>2017-08-01T09:40:22Z</time>
      </trkpt>
      <trkpt lat="43.1985016912" lon="2.4627419561">
        <ele>85.21</ele>
        <time>2017-08-01T09:40:30Z</time>
      </trkpt>
      <trkpt lat="43.1983041298" lon="2.4634416774">
        <ele>84.73</ele>
        <time>2017-08-01T09:40:41Z</time>
      </trkpt>
      <trkpt lat="43.1982877851" lon="2.4635021109">
        <ele>84.73</ele>
        <time>2017-08-01T09:40:42Z</time>
      </trkpt>
      <trkpt lat="43.1982707698" lon="2.4635605328">
        <ele>84.73</ele>
        <time>2017-08-01T09:40:43Z</time>
      </trkpt>
      <trkpt lat="43.1980339810" lon="2.4644984677">
        <ele>84.73</ele>
        <time>2017-08-01T09:40:59Z</time>
      </trkpt>
      <trkpt lat="43.1979375891" lon="2.4651256856">
        <ele>84.73</ele>
        <time>2017-08-01T09:41:11Z</time>
      </trkpt>
      <trkpt lat="43.1979160476" lon="2.4655674119">
        <ele>84.73</ele>
        <time>2017-08-01T09:41:24Z</time>
      </trkpt>
      <trkpt lat="43.1979187299" lon="2.4656338803">
        <ele>84.73</ele>
        <time>2017-08-01T09:41:29Z</time>
      </trkpt>
      <trkpt lat="43.1979197357" lon="2.4656626303">
        <ele>84.73</ele>
        <time>2017-08-01T09:41:30Z</time>
      </trkpt>
      <trkpt lat="43.1979274470" lon="2.4661922827">
        <ele>85.21</ele>
        <time>2017-08-01T09:41:43Z</time>
      </trkpt>
      <trkpt lat="43.1979197357" lon="2.4664316699">
        <ele>84.73</ele>
        <time>2017-08-01T09:41:52Z</time>
      </trkpt>
      <trkpt lat="43.1979256030" lon="2.4664330948">
        <ele>85.21</ele>
        <time>2017-08-01T09:42:08Z</time>
      </trkpt>
      <trkpt lat="43.1979282852" lon="2.4664587434">
        <ele>85.21</ele>
        <time>2017-08-01T09:42:09Z</time>
      </trkpt>
      <trkpt lat="43.1979496591" lon="2.4669083487">
        <ele>87.14</ele>
        <time>2017-08-01T09:42:19Z</time>
      </trkpt>
      <trkpt lat="43.1979468092" lon="2.4676886201">
        <ele>85.21</ele>
        <time>2017-08-01T09:42:32Z</time>
      </trkpt>
      <trkpt lat="43.1978818495" lon="2.4684678856">
        <ele>84.73</ele>
        <time>2017-08-01T09:42:45Z</time>
      </trkpt>
      <trkpt lat="43.1978561170" lon="2.4686490186">
        <ele>84.73</ele>
        <time>2017-08-01T09:42:48Z</time>
      </trkpt>
      <trkpt lat="43.1977401953" lon="2.4695734587">
        <ele>84.73</ele>
        <time>2017-08-01T09:43:03Z</time>
      </trkpt>
      <trkpt lat="43.1977219228" lon="2.4696934037">
        <ele>84.73</ele>
        <time>2017-08-01T09:43:05Z</time>
      </trkpt>
      <trkpt lat="43.1977128703" lon="2.4697524961">
        <ele>84.73</ele>
        <time>2017-08-01T09:43:06Z</time>
      </trkpt>
      <trkpt lat="43.1977035664" lon="2.4698124267">
        <ele>84.73</ele>
        <time>2017-08-01T09:43:07Z</time>
      </trkpt>
      <trkpt lat="43.1976940110" lon="2.4698728602">
        <ele>84.73</ele>
        <time>2017-08-01T09:43:08Z</time>
      </trkpt>
      <trkpt lat="43.1976825278" lon="2.4699349701">
        <ele>84.73</ele>
        <time>2017-08-01T09:43:09Z</time>
      </trkpt>
      <trkpt lat="43.1976738106" lon="2.4699963257">
        <ele>85.21</ele>
        <time>2017-08-01T09:43:10Z</time>
      </trkpt>
      <trkpt lat="43.1975488365" lon="2.4709143117">
        <ele>84.73</ele>
        <time>2017-08-01T09:43:25Z</time>
      </trkpt>
      <trkpt lat="43.1974451523" lon="2.4715933297">
        <ele>84.73</ele>
        <time>2017-08-01T09:43:36Z</time>
      </trkpt>
      <trkpt lat="43.1972764246" lon="2.4725343660">
        <ele>85.69</ele>
        <time>2017-08-01T09:43:51Z</time>
      </trkpt>
      <trkpt lat="43.1971206889" lon="2.4732945208">
        <ele>84.25</ele>
        <time>2017-08-01T09:44:03Z</time>
      </trkpt>
      <trkpt lat="43.1969464291" lon="2.4739835132">
        <ele>84.25</ele>
        <time>2017-08-01T09:44:14Z</time>
      </trkpt>
      <trkpt lat="43.1967657153" lon="2.4747252278">
        <ele>84.25</ele>
        <time>2017-08-01T09:44:26Z</time>
      </trkpt>
      <trkpt lat="43.1965482049" lon="2.4756408669">
        <ele>84.25</ele>
        <time>2017-08-01T09:44:41Z</time>
      </trkpt>
      <trkpt lat="43.1963649765" lon="2.4764037039">
        <ele>84.25</ele>
        <time>2017-08-01T09:44:53Z</time>
      </trkpt>
      <trkpt lat="43.1961940695" lon="2.4771107174">
        <ele>84.25</ele>
        <time>2017-08-01T09:45:04Z</time>
      </trkpt>
      <trkpt lat="43.1960068177" lon="2.4778764043">
        <ele>83.77</ele>
        <time>2017-08-01T09:45:16Z</time>
      </trkpt>
      <trkpt lat="43.1959914789" lon="2.4779403582">
        <ele>83.77</ele>
        <time>2017-08-01T09:45:17Z</time>
      </trkpt>
      <trkpt lat="43.1957909837" lon="2.4787709210">
        <ele>83.77</ele>
        <time>2017-08-01T09:45:30Z</time>
      </trkpt>
      <trkpt lat="43.1956687756" lon="2.4792533834">
        <ele>83.77</ele>
        <time>2017-08-01T09:45:38Z</time>
      </trkpt>
      <trkpt lat="43.1956549454" lon="2.4793120567">
        <ele>83.77</ele>
        <time>2017-08-01T09:45:39Z</time>
      </trkpt>
      <trkpt lat="43.1954422966" lon="2.4800474010">
        <ele>83.77</ele>
        <time>2017-08-01T09:45:51Z</time>
      </trkpt>
      <trkpt lat="43.1951166596" lon="2.4805690069">
        <ele>83.77</ele>
        <time>2017-08-01T09:46:01Z</time>
      </trkpt>
      <trkpt lat="43.1950829644" lon="2.4806104973">
        <ele>83.77</ele>
        <time>2017-08-01T09:46:02Z</time>
      </trkpt>
      <trkpt lat="43.1948361173" lon="2.4809127487">
        <ele>84.73</ele>
        <time>2017-08-01T09:46:11Z</time>
      </trkpt>
      <trkpt lat="43.1947254762" lon="2.4810961448">
        <ele>86.18</ele>
        <time>2017-08-01T09:46:20Z</time>
      </trkpt>
      <trkpt lat="43.1947258953" lon="2.4811140820">
        <ele>85.69</ele>
        <time>2017-08-01T09:46:21Z</time>
      </trkpt>
      <trkpt lat="43.1947270688" lon="2.4811341986">
        <ele>86.18</ele>
        <time>2017-08-01T09:46:22Z</time>
      </trkpt>
      <trkpt lat="43.1947294157" lon="2.4811516330">
        <ele>85.69</ele>
        <time>2017-08-01T09:46:23Z</time>
      </trkpt>
      <trkpt lat="43.1947347801" lon="2.4811720010">
        <ele>85.69</ele>
        <time>2017-08-01T09:46:24Z</time>
      </trkpt>
      <trkpt lat="43.1947452575" lon="2.4812001642">
        <ele>85.69</ele>
        <time>2017-08-01T09:46:25Z</time>
      </trkpt>
      <trkpt lat="43.1947595067" lon="2.4812191073">
        <ele>86.18</ele>
        <time>2017-08-01T09:46:26Z</time>
      </trkpt>
      <trkpt lat="43.1947754323" lon="2.4812329374">
        <ele>86.18</ele>
        <time>2017-08-01T09:46:27Z</time>
      </trkpt>
      <trkpt lat="43.1947898492" lon="2.4812458456">
        <ele>86.66</ele>
        <time>2017-08-01T09:46:28Z</time>
      </trkpt>
      <trkpt lat="43.1948022544" lon="2.4812621903">
        <ele>86.66</ele>
        <time>2017-08-01T09:46:29Z</time>
      </trkpt>
      <trkpt lat="43.1948165875" lon="2.4812767748">
        <ele>87.14</ele>
        <time>2017-08-01T09:46:30Z</time>
      </trkpt>
      <trkpt lat="43.1948326807" lon="2.4812892638">
        <ele>87.14</ele>
        <time>2017-08-01T09:46:31Z</time>
      </trkpt>
      <trkpt lat="43.1948461756" lon="2.4813009147">
        <ele>87.62</ele>
        <time>2017-08-01T09:46:32Z</time>
      </trkpt>
      <trkpt lat="43.1948574074" lon="2.4813116435">
        <ele>87.62</ele>
        <time>2017-08-01T09:46:33Z</time>
      </trkpt>
      <trkpt lat="43.1949666236" lon="2.4814143218">
        <ele>85.69</ele>
        <time>2017-08-01T09:46:41Z</time>
      </trkpt>
      <trkpt lat="43.1949656177" lon="2.4814298283">
        <ele>85.21</ele>
        <time>2017-08-01T09:46:42Z</time>
      </trkpt>
      <trkpt lat="43.1949397177" lon="2.4814259727">
        <ele>85.69</ele>
        <time>2017-08-01T09:46:49Z</time>
      </trkpt>
      <trkpt lat="43.1949239597" lon="2.4814167526">
        <ele>85.21</ele>
        <time>2017-08-01T09:47:08Z</time>
      </trkpt>
      <trkpt lat="43.1949159969" lon="2.4813983962">
        <ele>85.21</ele>
        <time>2017-08-01T09:47:17Z</time>
      </trkpt>
      <trkpt lat="43.1949046813" lon="2.4813857395">
        <ele>85.69</ele>
        <time>2017-08-01T09:47:18Z</time>
      </trkpt>
      <trkpt lat="43.1947874185" lon="2.4812918622">
        <ele>87.14</ele>
        <time>2017-08-01T09:47:26Z</time>
      </trkpt>
      <trkpt lat="43.1946366280" lon="2.4812771101">
        <ele>85.21</ele>
        <time>2017-08-01T09:47:32Z</time>
      </trkpt>
      <trkpt lat="43.1946161762" lon="2.4813094642">
        <ele>84.73</ele>
        <time>2017-08-01T09:47:33Z</time>
      </trkpt>
      <trkpt lat="43.1946052797" lon="2.4813434947">
        <ele>84.73</ele>
        <time>2017-08-01T09:47:34Z</time>
      </trkpt>
      <trkpt lat="43.1945934612" lon="2.4813808780">
        <ele>84.73</ele>
        <time>2017-08-01T09:47:35Z</time>
      </trkpt>
      <trkpt lat="43.1945796311" lon="2.4814128969">
        <ele>84.25</ele>
        <time>2017-08-01T09:47:36Z</time>
      </trkpt>
      <trkpt lat="43.1945669744" lon="2.4814435747">
        <ele>84.25</ele>
        <time>2017-08-01T09:47:37Z</time>
      </trkpt>
      <trkpt lat="43.1945569161" lon="2.4814758450">
        <ele>83.77</ele>
        <time>2017-08-01T09:47:38Z</time>
      </trkpt>
      <trkpt lat="43.1945504621" lon="2.4815068580">
        <ele>83.77</ele>
        <time>2017-08-01T09:47:39Z</time>
      </trkpt>
      <trkpt lat="43.1945440918" lon="2.4815303273">
        <ele>83.77</ele>
        <time>2017-08-01T09:47:40Z</time>
      </trkpt>
      <trkpt lat="43.1945347879" lon="2.4815631006">
        <ele>83.77</ele>
        <time>2017-08-01T09:47:50Z</time>
      </trkpt>
      <trkpt lat="43.1945346203" lon="2.4815472588">
        <ele>83.77</ele>
        <time>2017-08-01T09:48:00Z</time>
      </trkpt>
      <trkpt lat="43.1945127435" lon="2.4815401342">
        <ele>83.77</ele>
        <time>2017-08-01T09:48:11Z</time>
      </trkpt>
      <trkpt lat="43.1945173535" lon="2.4815346021">
        <ele>83.29</ele>
        <time>2017-08-01T09:48:24Z</time>
      </trkpt>
      <trkpt lat="43.1945089716" lon="2.4815313332">
        <ele>83.77</ele>
        <time>2017-08-01T09:48:48Z</time>
      </trkpt>
      <trkpt lat="43.1945154257" lon="2.4815394636">
        <ele>83.77</ele>
        <time>2017-08-01T09:49:16Z</time>
      </trkpt>
      <trkpt lat="43.1945041940" lon="2.4816311616">
        <ele>83.29</ele>
        <time>2017-08-01T09:49:31Z</time>
      </trkpt>
      <trkpt lat="43.1944479514" lon="2.4819257017">
        <ele>83.29</ele>
        <time>2017-08-01T09:49:39Z</time>
      </trkpt>
      <trkpt lat="43.1944006775" lon="2.4823749717">
        <ele>83.77</ele>
        <time>2017-08-01T09:49:48Z</time>
      </trkpt>
      <trkpt lat="43.1944027729" lon="2.4831088074">
        <ele>83.77</ele>
        <time>2017-08-01T09:50:01Z</time>
      </trkpt>
      <trkpt lat="43.1944241468" lon="2.4834263138">
        <ele>83.77</ele>
        <time>2017-08-01T09:50:06Z</time>
      </trkpt>
      <trkpt lat="43.1944363005" lon="2.4835467618">
        <ele>83.77</ele>
        <time>2017-08-01T09:50:08Z</time>
      </trkpt>
      <trkpt lat="43.1944663916" lon="2.4842539430">
        <ele>83.77</ele>
        <time>2017-08-01T09:50:19Z</time>
      </trkpt>
      <trkpt lat="43.1944932975" lon="2.4849549215">
        <ele>83.77</ele>
        <time>2017-08-01T09:50:29Z</time>
      </trkpt>
      <trkpt lat="43.1944888551" lon="2.4857740849">
        <ele>83.77</ele>
        <time>2017-08-01T09:50:41Z</time>
      </trkpt>
      <trkpt lat="43.1944687385" lon="2.4867409375">
        <ele>83.77</ele>
        <time>2017-08-01T09:50:56Z</time>
      </trkpt>
      <trkpt lat="43.1944669783" lon="2.4868011195">
        <ele>83.77</ele>
        <time>2017-08-01T09:50:57Z</time>
      </trkpt>
      <trkpt lat="43.1944584288" lon="2.4870420992">
        <ele>83.77</ele>
        <time>2017-08-01T09:51:01Z</time>
      </trkpt>
      <trkpt lat="43.1944556627" lon="2.4870988447">
        <ele>83.77</ele>
        <time>2017-08-01T09:51:02Z</time>
      </trkpt>
      <trkpt lat="43.1944526453" lon="2.4871555902">
        <ele>83.77</ele>
        <time>2017-08-01T09:51:03Z</time>
      </trkpt>
      <trkpt lat="43.1944478676" lon="2.4872115813">
        <ele>83.77</ele>
        <time>2017-08-01T09:51:04Z</time>
      </trkpt>
      <trkpt lat="43.1944414135" lon="2.4872653093">
        <ele>83.77</ele>
        <time>2017-08-01T09:51:05Z</time>
      </trkpt>
      <trkpt lat="43.1944192853" lon="2.4874308519">
        <ele>83.77</ele>
        <time>2017-08-01T09:51:08Z</time>
      </trkpt>
      <trkpt lat="43.1943746097" lon="2.4877082929">
        <ele>83.77</ele>
        <time>2017-08-01T09:51:14Z</time>
      </trkpt>
      <trkpt lat="43.1943740230" lon="2.4878143240">
        <ele>83.77</ele>
        <time>2017-08-01T09:51:16Z</time>
      </trkpt>
      <trkpt lat="43.1942320336" lon="2.4884146359">
        <ele>84.25</ele>
        <time>2017-08-01T09:51:26Z</time>
      </trkpt>
      <trkpt lat="43.1941337138" lon="2.4888792448">
        <ele>84.25</ele>
        <time>2017-08-01T09:51:33Z</time>
      </trkpt>
      <trkpt lat="43.1941213086" lon="2.4889452942">
        <ele>84.25</ele>
        <time>2017-08-01T09:51:34Z</time>
      </trkpt>
      <trkpt lat="43.1939164549" lon="2.4895497970">
        <ele>84.25</ele>
        <time>2017-08-01T09:51:45Z</time>
      </trkpt>
      <trkpt lat="43.1937927380" lon="2.4900925253">
        <ele>84.25</ele>
        <time>2017-08-01T09:51:54Z</time>
      </trkpt>
      <trkpt lat="43.1937882956" lon="2.4902256299">
        <ele>84.25</ele>
        <time>2017-08-01T09:51:56Z</time>
      </trkpt>
      <trkpt lat="43.1938117649" lon="2.4907906540">
        <ele>84.25</ele>
        <time>2017-08-01T09:52:05Z</time>
      </trkpt>
      <trkpt lat="43.1938365754" lon="2.4909115210">
        <ele>84.73</ele>
        <time>2017-08-01T09:52:07Z</time>
      </trkpt>
      <trkpt lat="43.1939362362" lon="2.4912842643">
        <ele>84.25</ele>
        <time>2017-08-01T09:52:15Z</time>
      </trkpt>
      <trkpt lat="43.1940274313" lon="2.4915826600">
        <ele>84.73</ele>
        <time>2017-08-01T09:52:21Z</time>
      </trkpt>
      <trkpt lat="43.1941809878" lon="2.4919259828">
        <ele>84.73</ele>
        <time>2017-08-01T09:52:27Z</time>
      </trkpt>
      <trkpt lat="43.1943718437" lon="2.4923838861">
        <ele>85.21</ele>
        <time>2017-08-01T09:52:34Z</time>
      </trkpt>
      <trkpt lat="43.1944331992" lon="2.4925583974">
        <ele>84.73</ele>
        <time>2017-08-01T09:52:37Z</time>
      </trkpt>
      <trkpt lat="43.1944601052" lon="2.4926125444">
        <ele>84.73</ele>
        <time>2017-08-01T09:52:38Z</time>
      </trkpt>
      <trkpt lat="43.1945242267" lon="2.4927152228">
        <ele>85.21</ele>
        <time>2017-08-01T09:52:40Z</time>
      </trkpt>
      <trkpt lat="43.1945643760" lon="2.4927626643">
        <ele>84.73</ele>
        <time>2017-08-01T09:52:41Z</time>
      </trkpt>
      <trkpt lat="43.1946101412" lon="2.4928052444">
        <ele>85.21</ele>
        <time>2017-08-01T09:52:42Z</time>
      </trkpt>
      <trkpt lat="43.1946611870" lon="2.4928427115">
        <ele>85.21</ele>
        <time>2017-08-01T09:52:43Z</time>
      </trkpt>
      <trkpt lat="43.1947127357" lon="2.4928752333">
        <ele>85.21</ele>
        <time>2017-08-01T09:52:44Z</time>
      </trkpt>
      <trkpt lat="43.1948659569" lon="2.4929734692">
        <ele>85.21</ele>
        <time>2017-08-01T09:52:47Z</time>
      </trkpt>
      <trkpt lat="43.1949110515" lon="2.4930200726">
        <ele>85.21</ele>
        <time>2017-08-01T09:52:48Z</time>
      </trkpt>
      <trkpt lat="43.1949517038" lon="2.4930761475">
        <ele>85.21</ele>
        <time>2017-08-01T09:52:49Z</time>
      </trkpt>
      <trkpt lat="43.1949903443" lon="2.4931370001">
        <ele>85.21</ele>
        <time>2017-08-01T09:52:50Z</time>
      </trkpt>
      <trkpt lat="43.1950259674" lon="2.4931992777">
        <ele>85.21</ele>
        <time>2017-08-01T09:52:51Z</time>
      </trkpt>
      <trkpt lat="43.1950573996" lon="2.4932652432">
        <ele>85.21</ele>
        <time>2017-08-01T09:52:52Z</time>
      </trkpt>
      <trkpt lat="43.1950806174" lon="2.4933338910">
        <ele>85.21</ele>
        <time>2017-08-01T09:52:53Z</time>
      </trkpt>
      <trkpt lat="43.1950967945" lon="2.4934052210">
        <ele>85.21</ele>
        <time>2017-08-01T09:52:54Z</time>
      </trkpt>
      <trkpt lat="43.1951060146" lon="2.4934804067">
        <ele>85.21</ele>
        <time>2017-08-01T09:52:55Z</time>
      </trkpt>
      <trkpt lat="43.1951071881" lon="2.4935567658">
        <ele>85.21</ele>
        <time>2017-08-01T09:52:56Z</time>
      </trkpt>
      <trkpt lat="43.1950638536" lon="2.4938470311">
        <ele>85.21</ele>
        <time>2017-08-01T09:53:01Z</time>
      </trkpt>
      <trkpt lat="43.1949330121" lon="2.4943797849">
        <ele>85.21</ele>
        <time>2017-08-01T09:53:08Z</time>
      </trkpt>
      <trkpt lat="43.1949202716" lon="2.4944548868">
        <ele>85.21</ele>
        <time>2017-08-01T09:53:09Z</time>
      </trkpt>
      <trkpt lat="43.1949083693" lon="2.4945304915">
        <ele>85.21</ele>
        <time>2017-08-01T09:53:10Z</time>
      </trkpt>
      <trkpt lat="43.1948851515" lon="2.4950992037">
        <ele>87.14</ele>
        <time>2017-08-01T09:53:19Z</time>
      </trkpt>
      <trkpt lat="43.1949228700" lon="2.4955179635">
        <ele>87.14</ele>
        <time>2017-08-01T09:53:27Z</time>
      </trkpt>
      <trkpt lat="43.1949810404" lon="2.4959413335">
        <ele>86.18</ele>
        <time>2017-08-01T09:53:33Z</time>
      </trkpt>
      <trkpt lat="43.1949965470" lon="2.4960178602">
        <ele>86.18</ele>
        <time>2017-08-01T09:53:34Z</time>
      </trkpt>
      <trkpt lat="43.1951175816" lon="2.4970705435">
        <ele>86.18</ele>
        <time>2017-08-01T09:53:47Z</time>
      </trkpt>
      <trkpt lat="43.1951626763" lon="2.4981048703">
        <ele>86.18</ele>
        <time>2017-08-01T09:54:00Z</time>
      </trkpt>
      <trkpt lat="43.1951425597" lon="2.4983361270">
        <ele>85.69</ele>
        <time>2017-08-01T09:54:03Z</time>
      </trkpt>
      <trkpt lat="43.1950719841" lon="2.4987173360">
        <ele>85.69</ele>
        <time>2017-08-01T09:54:08Z</time>
      </trkpt>
      <trkpt lat="43.1950091198" lon="2.4989355169">
        <ele>86.18</ele>
        <time>2017-08-01T09:54:11Z</time>
      </trkpt>
      <trkpt lat="43.1949894223" lon="2.4990086909">
        <ele>86.18</ele>
        <time>2017-08-01T09:54:12Z</time>
      </trkpt>
      <trkpt lat="43.1948214490" lon="2.4997663312">
        <ele>86.18</ele>
        <time>2017-08-01T09:54:22Z</time>
      </trkpt>
      <trkpt lat="43.1948035117" lon="2.5006307568">
        <ele>86.18</ele>
        <time>2017-08-01T09:54:33Z</time>
      </trkpt>
      <trkpt lat="43.1949079502" lon="2.5015445519">
        <ele>86.18</ele>
        <time>2017-08-01T09:54:45Z</time>
      </trkpt>
      <trkpt lat="43.1949221157" lon="2.5016168039">
        <ele>85.69</ele>
        <time>2017-08-01T09:54:46Z</time>
      </trkpt>
      <trkpt lat="43.1950807013" lon="2.5024268311">
        <ele>85.69</ele>
        <time>2017-08-01T09:54:57Z</time>
      </trkpt>
      <trkpt lat="43.1953900773" lon="2.5033961143">
        <ele>85.69</ele>
        <time>2017-08-01T09:55:10Z</time>
      </trkpt>
      <trkpt lat="43.1956350803" lon="2.5043675769">
        <ele>85.69</ele>
        <time>2017-08-01T09:55:23Z</time>
      </trkpt>
      <trkpt lat="43.1956779957" lon="2.5045908708">
        <ele>85.69</ele>
        <time>2017-08-01T09:55:26Z</time>
      </trkpt>
      <trkpt lat="43.1956899818" lon="2.5046659727">
        <ele>85.69</ele>
        <time>2017-08-01T09:55:27Z</time>
      </trkpt>
      <trkpt lat="43.1957065780" lon="2.5047435891">
        <ele>85.69</ele>
        <time>2017-08-01T09:55:28Z</time>
      </trkpt>
      <trkpt lat="43.1957282871" lon="2.5048189424">
        <ele>85.69</ele>
        <time>2017-08-01T09:55:29Z</time>
      </trkpt>
      <trkpt lat="43.1957539357" lon="2.5048906915">
        <ele>85.69</ele>
        <time>2017-08-01T09:55:30Z</time>
      </trkpt>
      <trkpt lat="43.1957836915" lon="2.5049598422">
        <ele>85.69</ele>
        <time>2017-08-01T09:55:31Z</time>
      </trkpt>
      <trkpt lat="43.1958145369" lon="2.5050263945">
        <ele>85.69</ele>
        <time>2017-08-01T09:55:32Z</time>
      </trkpt>
      <trkpt lat="43.1958468072" lon="2.5050880015">
        <ele>85.69</ele>
        <time>2017-08-01T09:55:33Z</time>
      </trkpt>
      <trkpt lat="43.1959174667" lon="2.5052025821">
        <ele>85.69</ele>
        <time>2017-08-01T09:55:35Z</time>
      </trkpt>
      <trkpt lat="43.1964520644" lon="2.5057712942">
        <ele>86.18</ele>
        <time>2017-08-01T09:55:47Z</time>
      </trkpt>
      <trkpt lat="43.1970100477" lon="2.5063057244">
        <ele>85.69</ele>
        <time>2017-08-01T09:56:00Z</time>
      </trkpt>
      <trkpt lat="43.1977259461" lon="2.5069953036">
        <ele>85.69</ele>
        <time>2017-08-01T09:56:17Z</time>
      </trkpt>
      <trkpt lat="43.1979560293" lon="2.5072110537">
        <ele>85.69</ele>
        <time>2017-08-01T09:56:23Z</time>
      </trkpt>
      <trkpt lat="43.1979908142" lon="2.5072392169">
        <ele>86.18</ele>
        <time>2017-08-01T09:56:24Z</time>
      </trkpt>
      <trkpt lat="43.1980237551" lon="2.5072717387">
        <ele>86.18</ele>
        <time>2017-08-01T09:56:25Z</time>
      </trkpt>
      <trkpt lat="43.1980582885" lon="2.5073074456">
        <ele>86.18</ele>
        <time>2017-08-01T09:56:26Z</time>
      </trkpt>
      <trkpt lat="43.1980954204" lon="2.5073444936">
        <ele>86.18</ele>
        <time>2017-08-01T09:56:27Z</time>
      </trkpt>
      <trkpt lat="43.1981710251" lon="2.5074291509">
        <ele>86.18</ele>
        <time>2017-08-01T09:56:29Z</time>
      </trkpt>
      <trkpt lat="43.1982473005" lon="2.5075185858">
        <ele>85.69</ele>
        <time>2017-08-01T09:56:31Z</time>
      </trkpt>
      <trkpt lat="43.1986246537" lon="2.5079510082">
        <ele>86.18</ele>
        <time>2017-08-01T09:56:41Z</time>
      </trkpt>
      <trkpt lat="43.1987019349" lon="2.5080677681">
        <ele>86.18</ele>
        <time>2017-08-01T09:56:43Z</time>
      </trkpt>
      <trkpt lat="43.1987636257" lon="2.5081915688">
        <ele>85.69</ele>
        <time>2017-08-01T09:56:45Z</time>
      </trkpt>
      <trkpt lat="43.1987841614" lon="2.5082540978">
        <ele>85.69</ele>
        <time>2017-08-01T09:56:46Z</time>
      </trkpt>
      <trkpt lat="43.1988029368" lon="2.5083189737">
        <ele>85.69</ele>
        <time>2017-08-01T09:56:47Z</time>
      </trkpt>
      <trkpt lat="43.1988195330" lon="2.5083898846">
        <ele>85.69</ele>
        <time>2017-08-01T09:56:48Z</time>
      </trkpt>
      <trkpt lat="43.1988281664" lon="2.5084535871">
        <ele>85.69</ele>
        <time>2017-08-01T09:56:49Z</time>
      </trkpt>
      <trkpt lat="43.1988345366" lon="2.5085183792">
        <ele>85.69</ele>
        <time>2017-08-01T09:56:50Z</time>
      </trkpt>
      <trkpt lat="43.1989386398" lon="2.5091741793">
        <ele>86.18</ele>
        <time>2017-08-01T09:57:00Z</time>
      </trkpt>
      <trkpt lat="43.1989792082" lon="2.5094638579">
        <ele>86.18</ele>
        <time>2017-08-01T09:57:08Z</time>
      </trkpt>
      <trkpt lat="43.1989932898" lon="2.5094944518">
        <ele>86.18</ele>
        <time>2017-08-01T09:57:25Z</time>
      </trkpt>
      <trkpt lat="43.1989971455" lon="2.5095019117">
        <ele>86.18</ele>
        <time>2017-08-01T09:57:45Z</time>
      </trkpt>
      <trkpt lat="43.1990134902" lon="2.5095106289">
        <ele>86.18</ele>
        <time>2017-08-01T09:58:06Z</time>
      </trkpt>
      <trkpt lat="43.1990171783" lon="2.5095084496">
        <ele>86.18</ele>
        <time>2017-08-01T09:58:25Z</time>
      </trkpt>
      <trkpt lat="43.1990128197" lon="2.5095064379">
        <ele>86.18</ele>
        <time>2017-08-01T09:58:38Z</time>
      </trkpt>
      <trkpt lat="43.1990090478" lon="2.5095159933">
        <ele>86.18</ele>
        <time>2017-08-01T09:58:53Z</time>
      </trkpt>
      <trkpt lat="43.1990054436" lon="2.5095162448">
        <ele>86.18</ele>
        <time>2017-08-01T09:59:15Z</time>
      </trkpt>
      <trkpt lat="43.1990042701" lon="2.5095174182">
        <ele>85.69</ele>
        <time>2017-08-01T09:59:36Z</time>
      </trkpt>
      <trkpt lat="43.1990134064" lon="2.5095895864">
        <ele>85.69</ele>
        <time>2017-08-01T09:59:49Z</time>
      </trkpt>
      <trkpt lat="43.1990128197" lon="2.5096140616">
        <ele>85.69</ele>
        <time>2017-08-01T09:59:50Z</time>
      </trkpt>
      <trkpt lat="43.1990182679" lon="2.5096389558">
        <ele>85.69</ele>
        <time>2017-08-01T09:59:51Z</time>
      </trkpt>
      <trkpt lat="43.1990248058" lon="2.5096640177">
        <ele>86.18</ele>
        <time>2017-08-01T09:59:52Z</time>
      </trkpt>
      <trkpt lat="43.1990260631" lon="2.5096913427">
        <ele>86.66</ele>
        <time>2017-08-01T09:59:53Z</time>
      </trkpt>
      <trkpt lat="43.1990278233" lon="2.5097213499">
        <ele>85.69</ele>
        <time>2017-08-01T09:59:54Z</time>
      </trkpt>
      <trkpt lat="43.1990353670" lon="2.5097542908">
        <ele>85.69</ele>
        <time>2017-08-01T09:59:55Z</time>
      </trkpt>
      <trkpt lat="43.1990429945" lon="2.5097892433">
        <ele>85.69</ele>
        <time>2017-08-01T09:59:56Z</time>
      </trkpt>
      <trkpt lat="43.1990511250" lon="2.5098252855">
        <ele>86.18</ele>
        <time>2017-08-01T09:59:57Z</time>
      </trkpt>
      <trkpt lat="43.1990617700" lon="2.5098598190">
        <ele>85.69</ele>
        <time>2017-08-01T09:59:58Z</time>
      </trkpt>
      <trkpt lat="43.1991851516" lon="2.5101976935">
        <ele>85.69</ele>
        <time>2017-08-01T10:00:07Z</time>
      </trkpt>
      <trkpt lat="43.1993418094" lon="2.5105093326">
        <ele>85.69</ele>
        <time>2017-08-01T10:00:15Z</time>
      </trkpt>
      <trkpt lat="43.1994971260" lon="2.5108312815">
        <ele>85.69</ele>
        <time>2017-08-01T10:00:24Z</time>
      </trkpt>
      <trkpt lat="43.1997682806" lon="2.5112894364">
        <ele>85.69</ele>
        <time>2017-08-01T10:00:34Z</time>
      </trkpt>
      <trkpt lat="43.2000054047" lon="2.5116782729">
        <ele>86.18</ele>
        <time>2017-08-01T10:00:43Z</time>
      </trkpt>
      <trkpt lat="43.2003012020" lon="2.5121435523">
        <ele>85.69</ele>
        <time>2017-08-01T10:00:53Z</time>
      </trkpt>
      <trkpt lat="43.2006568462" lon="2.5126639009">
        <ele>85.69</ele>
        <time>2017-08-01T10:01:03Z</time>
      </trkpt>
      <trkpt lat="43.2011161745" lon="2.5133793801">
        <ele>86.18</ele>
        <time>2017-08-01T10:01:17Z</time>
      </trkpt>
      <trkpt lat="43.2015061844" lon="2.5140285585">
        <ele>86.18</ele>
        <time>2017-08-01T10:01:30Z</time>
      </trkpt>
      <trkpt lat="43.2015909255" lon="2.5141819473">
        <ele>86.18</ele>
        <time>2017-08-01T10:01:33Z</time>
      </trkpt>
      <trkpt lat="43.2016157359" lon="2.5142390281">
        <ele>86.18</ele>
        <time>2017-08-01T10:01:34Z</time>
      </trkpt>
      <trkpt lat="43.2016410492" lon="2.5142996293">
        <ele>86.18</ele>
        <time>2017-08-01T10:01:35Z</time>
      </trkpt>
      <trkpt lat="43.2017816976" lon="2.5146173034">
        <ele>86.18</ele>
        <time>2017-08-01T10:01:40Z</time>
      </trkpt>
      <trkpt lat="43.2018059213" lon="2.5146800000">
        <ele>86.18</ele>
        <time>2017-08-01T10:01:41Z</time>
      </trkpt>
      <trkpt lat="43.2019636687" lon="2.5151787233">
        <ele>86.18</ele>
        <time>2017-08-01T10:01:49Z</time>
      </trkpt>
      <trkpt lat="43.2021147944" lon="2.5157504529">
        <ele>86.18</ele>
        <time>2017-08-01T10:01:58Z</time>
      </trkpt>
      <trkpt lat="43.2021282893" lon="2.5158025045">
        <ele>86.18</ele>
        <time>2017-08-01T10:01:59Z</time>
      </trkpt>
      <trkpt lat="43.2021448854" lon="2.5158604234">
        <ele>86.66</ele>
        <time>2017-08-01T10:02:00Z</time>
      </trkpt>
      <trkpt lat="43.2021595538" lon="2.5159220304">
        <ele>86.18</ele>
        <time>2017-08-01T10:02:01Z</time>
      </trkpt>
      <trkpt lat="43.2022442948" lon="2.5162870623">
        <ele>86.66</ele>
        <time>2017-08-01T10:02:07Z</time>
      </trkpt>
      <trkpt lat="43.2023770642" lon="2.5169664994">
        <ele>86.66</ele>
        <time>2017-08-01T10:02:17Z</time>
      </trkpt>
      <trkpt lat="43.2024248410" lon="2.5176281668">
        <ele>86.66</ele>
        <time>2017-08-01T10:02:26Z</time>
      </trkpt>
      <trkpt lat="43.2023682632" lon="2.5184068456">
        <ele>86.66</ele>
        <time>2017-08-01T10:02:37Z</time>
      </trkpt>
      <trkpt lat="43.2022657525" lon="2.5189276133">
        <ele>87.14</ele>
        <time>2017-08-01T10:02:44Z</time>
      </trkpt>
      <trkpt lat="43.2020711247" lon="2.5197965652">
        <ele>87.14</ele>
        <time>2017-08-01T10:02:56Z</time>
      </trkpt>
      <trkpt lat="43.2019619085" lon="2.5202644430">
        <ele>87.62</ele>
        <time>2017-08-01T10:03:03Z</time>
      </trkpt>
      <trkpt lat="43.2019530237" lon="2.5203280617">
        <ele>87.14</ele>
        <time>2017-08-01T10:03:04Z</time>
      </trkpt>
      <trkpt lat="43.2019411214" lon="2.5203906745">
        <ele>87.62</ele>
        <time>2017-08-01T10:03:05Z</time>
      </trkpt>
      <trkpt lat="43.2018503454" lon="2.5210430380">
        <ele>87.62</ele>
        <time>2017-08-01T10:03:15Z</time>
      </trkpt>
      <trkpt lat="43.2018326595" lon="2.5217743590">
        <ele>87.62</ele>
        <time>2017-08-01T10:03:25Z</time>
      </trkpt>
      <trkpt lat="43.2018795982" lon="2.5226049218">
        <ele>87.14</ele>
        <time>2017-08-01T10:03:37Z</time>
      </trkpt>
      <trkpt lat="43.2018870581" lon="2.5228215102">
        <ele>87.62</ele>
        <time>2017-08-01T10:03:40Z</time>
      </trkpt>
      <trkpt lat="43.2018790115" lon="2.5228944328">
        <ele>87.62</ele>
        <time>2017-08-01T10:03:41Z</time>
      </trkpt>
      <trkpt lat="43.2018652651" lon="2.5229701214">
        <ele>87.62</ele>
        <time>2017-08-01T10:03:42Z</time>
      </trkpt>
      <trkpt lat="43.2018475793" lon="2.5230443850">
        <ele>87.62</ele>
        <time>2017-08-01T10:03:43Z</time>
      </trkpt>
      <trkpt lat="43.2018261217" lon="2.5231149606">
        <ele>87.62</ele>
        <time>2017-08-01T10:03:44Z</time>
      </trkpt>
      <trkpt lat="43.2018029038" lon="2.5231840275">
        <ele>87.62</ele>
        <time>2017-08-01T10:03:45Z</time>
      </trkpt>
      <trkpt lat="43.2017341722" lon="2.5233881269">
        <ele>87.62</ele>
        <time>2017-08-01T10:03:48Z</time>
      </trkpt>
      <trkpt lat="43.2017141394" lon="2.5234544277">
        <ele>87.62</ele>
        <time>2017-08-01T10:03:49Z</time>
      </trkpt>
      <trkpt lat="43.2015774306" lon="2.5240174402">
        <ele>87.14</ele>
        <time>2017-08-01T10:03:57Z</time>
      </trkpt>
      <trkpt lat="43.2015665341" lon="2.5240818132">
        <ele>87.14</ele>
        <time>2017-08-01T10:03:58Z</time>
      </trkpt>
      <trkpt lat="43.2015584875" lon="2.5241476949">
        <ele>87.14</ele>
        <time>2017-08-01T10:03:59Z</time>
      </trkpt>
      <trkpt lat="43.2015093695" lon="2.5247300696">
        <ele>87.62</ele>
        <time>2017-08-01T10:04:07Z</time>
      </trkpt>
      <trkpt lat="43.2013606746" lon="2.5255950820">
        <ele>88.10</ele>
        <time>2017-08-01T10:04:19Z</time>
      </trkpt>
      <trkpt lat="43.2013415638" lon="2.5256656576">
        <ele>88.10</ele>
        <time>2017-08-01T10:04:20Z</time>
      </trkpt>
      <trkpt lat="43.2011921983" lon="2.5262983236">
        <ele>87.62</ele>
        <time>2017-08-01T10:04:30Z</time>
      </trkpt>
      <trkpt lat="43.2012310065" lon="2.5267558079">
        <ele>88.10</ele>
        <time>2017-08-01T10:04:38Z</time>
      </trkpt>
      <trkpt lat="43.2013019174" lon="2.5276798289">
        <ele>88.10</ele>
        <time>2017-08-01T10:04:48Z</time>
      </trkpt>
      <trkpt lat="43.2013609260" lon="2.5282249879">
        <ele>88.10</ele>
        <time>2017-08-01T10:04:55Z</time>
      </trkpt>
      <trkpt lat="43.2013620157" lon="2.5283024367">
        <ele>88.10</ele>
        <time>2017-08-01T10:04:56Z</time>
      </trkpt>
      <trkpt lat="43.2013413124" lon="2.5285969768">
        <ele>88.10</ele>
        <time>2017-08-01T10:05:00Z</time>
      </trkpt>
      <trkpt lat="43.2013297454" lon="2.5286695641">
        <ele>88.10</ele>
        <time>2017-08-01T10:05:01Z</time>
      </trkpt>
      <trkpt lat="43.2012784481" lon="2.5291662756">
        <ele>88.10</ele>
        <time>2017-08-01T10:05:08Z</time>
      </trkpt>
      <trkpt lat="43.2012786157" lon="2.5293099415">
        <ele>88.10</ele>
        <time>2017-08-01T10:05:10Z</time>
      </trkpt>
      <trkpt lat="43.2011710759" lon="2.5299619697">
        <ele>88.10</ele>
        <time>2017-08-01T10:05:19Z</time>
      </trkpt>
      <trkpt lat="43.2011574134" lon="2.5300381612">
        <ele>88.10</ele>
        <time>2017-08-01T10:05:20Z</time>
      </trkpt>
      <trkpt lat="43.2010886818" lon="2.5306253135">
        <ele>88.58</ele>
        <time>2017-08-01T10:05:28Z</time>
      </trkpt>
      <trkpt lat="43.2011131570" lon="2.5317177270">
        <ele>88.10</ele>
        <time>2017-08-01T10:05:42Z</time>
      </trkpt>
      <trkpt lat="43.2011290826" lon="2.5319426134">
        <ele>88.10</ele>
        <time>2017-08-01T10:05:45Z</time>
      </trkpt>
      <trkpt lat="43.2011404820" lon="2.5320192240">
        <ele>88.10</ele>
        <time>2017-08-01T10:05:46Z</time>
      </trkpt>
      <trkpt lat="43.2012237981" lon="2.5323687494">
        <ele>89.54</ele>
        <time>2017-08-01T10:05:52Z</time>
      </trkpt>
      <trkpt lat="43.2014054339" lon="2.5325925462">
        <ele>88.10</ele>
        <time>2017-08-01T10:05:58Z</time>
      </trkpt>
      <trkpt lat="43.2014439069" lon="2.5326192845">
        <ele>87.62</ele>
        <time>2017-08-01T10:05:59Z</time>
      </trkpt>
      <trkpt lat="43.2016481739" lon="2.5327941310">
        <ele>88.10</ele>
        <time>2017-08-01T10:06:04Z</time>
      </trkpt>
      <trkpt lat="43.2018373534" lon="2.5330947060">
        <ele>88.10</ele>
        <time>2017-08-01T10:06:10Z</time>
      </trkpt>
      <trkpt lat="43.2018571347" lon="2.5331527926">
        <ele>88.10</ele>
        <time>2017-08-01T10:06:11Z</time>
      </trkpt>
      <trkpt lat="43.2018739823" lon="2.5332148187">
        <ele>88.10</ele>
        <time>2017-08-01T10:06:12Z</time>
      </trkpt>
      <trkpt lat="43.2018869743" lon="2.5332799461">
        <ele>88.10</ele>
        <time>2017-08-01T10:06:13Z</time>
      </trkpt>
      <trkpt lat="43.2018968649" lon="2.5333462469">
        <ele>88.10</ele>
        <time>2017-08-01T10:06:14Z</time>
      </trkpt>
      <trkpt lat="43.2019180711" lon="2.5334765855">
        <ele>88.58</ele>
        <time>2017-08-01T10:06:16Z</time>
      </trkpt>
      <trkpt lat="43.2019188255" lon="2.5335475802">
        <ele>88.10</ele>
        <time>2017-08-01T10:06:17Z</time>
      </trkpt>
      <trkpt lat="43.2019124553" lon="2.5337624084">
        <ele>88.10</ele>
        <time>2017-08-01T10:06:20Z</time>
      </trkpt>
      <trkpt lat="43.2018210087" lon="2.5343168713">
        <ele>88.10</ele>
        <time>2017-08-01T10:06:29Z</time>
      </trkpt>
      <trkpt lat="43.2017957792" lon="2.5345689990">
        <ele>88.58</ele>
        <time>2017-08-01T10:06:33Z</time>
      </trkpt>
      <trkpt lat="43.2017863076" lon="2.5346459448">
        <ele>88.10</ele>
        <time>2017-08-01T10:06:34Z</time>
      </trkpt>
      <trkpt lat="43.2017805241" lon="2.5347199570">
        <ele>88.58</ele>
        <time>2017-08-01T10:06:35Z</time>
      </trkpt>
      <trkpt lat="43.2017817814" lon="2.5347930472">
        <ele>88.58</ele>
        <time>2017-08-01T10:06:36Z</time>
      </trkpt>
      <trkpt lat="43.2017864753" lon="2.5348649640">
        <ele>88.58</ele>
        <time>2017-08-01T10:06:37Z</time>
      </trkpt>
      <trkpt lat="43.2017937675" lon="2.5349368807">
        <ele>88.10</ele>
        <time>2017-08-01T10:06:38Z</time>
      </trkpt>
      <trkpt lat="43.2019717991" lon="2.5356069300">
        <ele>88.10</ele>
        <time>2017-08-01T10:06:48Z</time>
      </trkpt>
      <trkpt lat="43.2019910775" lon="2.5356710516">
        <ele>88.58</ele>
        <time>2017-08-01T10:06:49Z</time>
      </trkpt>
      <trkpt lat="43.2021009643" lon="2.5359387696">
        <ele>88.58</ele>
        <time>2017-08-01T10:06:56Z</time>
      </trkpt>
      <trkpt lat="43.2021085080" lon="2.5359997060">
        <ele>88.58</ele>
        <time>2017-08-01T10:07:02Z</time>
      </trkpt>
      <trkpt lat="43.2021155488" lon="2.5360355806">
        <ele>88.58</ele>
        <time>2017-08-01T10:07:03Z</time>
      </trkpt>
      <trkpt lat="43.2021216676" lon="2.5360688567">
        <ele>88.58</ele>
        <time>2017-08-01T10:07:04Z</time>
      </trkpt>
      <trkpt lat="43.2022287045" lon="2.5365173724">
        <ele>88.58</ele>
        <time>2017-08-01T10:07:14Z</time>
      </trkpt>
      <trkpt lat="43.2022518385" lon="2.5366191287">
        <ele>88.58</ele>
        <time>2017-08-01T10:07:16Z</time>
      </trkpt>
      <trkpt lat="43.2022634055" lon="2.5366705935">
        <ele>88.58</ele>
        <time>2017-08-01T10:07:17Z</time>
      </trkpt>
      <trkpt lat="43.2022752240" lon="2.5367218908">
        <ele>88.58</ele>
        <time>2017-08-01T10:07:18Z</time>
      </trkpt>
      <trkpt lat="43.2022888027" lon="2.5367752835">
        <ele>88.58</ele>
        <time>2017-08-01T10:07:19Z</time>
      </trkpt>
      <trkpt lat="43.2023025490" lon="2.5368333701">
        <ele>88.58</ele>
        <time>2017-08-01T10:07:20Z</time>
      </trkpt>
      <trkpt lat="43.2023157086" lon="2.5368921272">
        <ele>88.58</ele>
        <time>2017-08-01T10:07:21Z</time>
      </trkpt>
      <trkpt lat="43.2023312990" lon="2.5369485375">
        <ele>88.58</ele>
        <time>2017-08-01T10:07:22Z</time>
      </trkpt>
      <trkpt lat="43.2023466378" lon="2.5370045286">
        <ele>88.58</ele>
        <time>2017-08-01T10:07:23Z</time>
      </trkpt>
      <trkpt lat="43.2023593783" lon="2.5370594300">
        <ele>88.58</ele>
        <time>2017-08-01T10:07:24Z</time>
      </trkpt>
      <trkpt lat="43.2024710253" lon="2.5374704786">
        <ele>88.58</ele>
        <time>2017-08-01T10:07:31Z</time>
      </trkpt>
      <trkpt lat="43.2025208138" lon="2.5376609992">
        <ele>88.58</ele>
        <time>2017-08-01T10:07:34Z</time>
      </trkpt>
      <trkpt lat="43.2025763858" lon="2.5378422160">
        <ele>88.58</ele>
        <time>2017-08-01T10:07:37Z</time>
      </trkpt>
      <trkpt lat="43.2025929820" lon="2.5378984585">
        <ele>88.58</ele>
        <time>2017-08-01T10:07:38Z</time>
      </trkpt>
      <trkpt lat="43.2026075665" lon="2.5379545335">
        <ele>88.58</ele>
        <time>2017-08-01T10:07:39Z</time>
      </trkpt>
      <trkpt lat="43.2026934810" lon="2.5382958446">
        <ele>88.58</ele>
        <time>2017-08-01T10:07:45Z</time>
      </trkpt>
      <trkpt lat="43.2027178723" lon="2.5383541826">
        <ele>88.58</ele>
        <time>2017-08-01T10:07:46Z</time>
      </trkpt>
      <trkpt lat="43.2027463708" lon="2.5384100061">
        <ele>88.58</ele>
        <time>2017-08-01T10:07:47Z</time>
      </trkpt>
      <trkpt lat="43.2027756236" lon="2.5384601299">
        <ele>89.06</ele>
        <time>2017-08-01T10:07:48Z</time>
      </trkpt>
      <trkpt lat="43.2028071396" lon="2.5385011174">
        <ele>88.58</ele>
        <time>2017-08-01T10:07:49Z</time>
      </trkpt>
      <trkpt lat="43.2031005062" lon="2.5388209708">
        <ele>89.54</ele>
        <time>2017-08-01T10:07:57Z</time>
      </trkpt>
      <trkpt lat="43.2033452578" lon="2.5389668997">
        <ele>91.46</ele>
        <time>2017-08-01T10:08:05Z</time>
      </trkpt>
      <trkpt lat="43.2034448348" lon="2.5390326977">
        <ele>92.42</ele>
        <time>2017-08-01T10:08:15Z</time>
      </trkpt>
      <trkpt lat="43.2034367882" lon="2.5390881859">
        <ele>92.42</ele>
        <time>2017-08-01T10:08:20Z</time>
      </trkpt>
      <trkpt lat="43.2034279872" lon="2.5391090568">
        <ele>92.42</ele>
        <time>2017-08-01T10:08:21Z</time>
      </trkpt>
      <trkpt lat="43.2033527177" lon="2.5394888408">
        <ele>91.94</ele>
        <time>2017-08-01T10:08:30Z</time>
      </trkpt>
      <trkpt lat="43.2031970657" lon="2.5401964411">
        <ele>91.46</ele>
        <time>2017-08-01T10:08:43Z</time>
      </trkpt>
      <trkpt lat="43.2031403203" lon="2.5408212282">
        <ele>94.83</ele>
        <time>2017-08-01T10:08:56Z</time>
      </trkpt>
      <trkpt lat="43.2031424157" lon="2.5408668257">
        <ele>94.83</ele>
        <time>2017-08-01T10:08:57Z</time>
      </trkpt>
      <trkpt lat="43.2031551562" lon="2.5414478593">
        <ele>97.23</ele>
        <time>2017-08-01T10:09:10Z</time>
      </trkpt>
      <trkpt lat="43.2031122409" lon="2.5417728256">
        <ele>99.15</ele>
        <time>2017-08-01T10:09:20Z</time>
      </trkpt>
      <trkpt lat="43.2031101454" lon="2.5419025775">
        <ele>100.11</ele>
        <time>2017-08-01T10:09:28Z</time>
      </trkpt>
      <trkpt lat="43.2031278312" lon="2.5419134740">
        <ele>100.11</ele>
        <time>2017-08-01T10:09:33Z</time>
      </trkpt>
      <trkpt lat="43.2031424996" lon="2.5419120491">
        <ele>100.11</ele>
        <time>2017-08-01T10:09:34Z</time>
      </trkpt>
      <trkpt lat="43.2031604368" lon="2.5419057626">
        <ele>100.11</ele>
        <time>2017-08-01T10:09:35Z</time>
      </trkpt>
      <trkpt lat="43.2031819783" lon="2.5418944471">
        <ele>99.63</ele>
        <time>2017-08-01T10:09:36Z</time>
      </trkpt>
      <trkpt lat="43.2032038551" lon="2.5418817904">
        <ele>100.11</ele>
        <time>2017-08-01T10:09:37Z</time>
      </trkpt>
      <trkpt lat="43.2032280788" lon="2.5418785214">
        <ele>100.11</ele>
        <time>2017-08-01T10:09:38Z</time>
      </trkpt>
      <trkpt lat="43.2032481954" lon="2.5418771803">
        <ele>100.11</ele>
        <time>2017-08-01T10:09:39Z</time>
      </trkpt>
      <trkpt lat="43.2032658812" lon="2.5418743305">
        <ele>100.60</ele>
        <time>2017-08-01T10:09:40Z</time>
      </trkpt>
      <trkpt lat="43.2032863330" lon="2.5418770965">
        <ele>100.60</ele>
        <time>2017-08-01T10:09:41Z</time>
      </trkpt>
      <trkpt lat="43.2033083774" lon="2.5418794435">
        <ele>100.60</ele>
        <time>2017-08-01T10:09:42Z</time>
      </trkpt>
      <trkpt lat="43.2033303380" lon="2.5418805331">
        <ele>101.08</ele>
        <time>2017-08-01T10:09:43Z</time>
      </trkpt>
      <trkpt lat="43.2035801187" lon="2.5419488456">
        <ele>102.52</ele>
        <time>2017-08-01T10:09:54Z</time>
      </trkpt>
      <trkpt lat="43.2037326694" lon="2.5422292203">
        <ele>103.00</ele>
        <time>2017-08-01T10:10:06Z</time>
      </trkpt>
      <trkpt lat="43.2037205994" lon="2.5424049888">
        <ele>104.44</ele>
        <time>2017-08-01T10:10:12Z</time>
      </trkpt>
      <trkpt lat="43.2037128042" lon="2.5424333196">
        <ele>104.92</ele>
        <time>2017-08-01T10:10:13Z</time>
      </trkpt>
      <trkpt lat="43.2037088647" lon="2.5424620695">
        <ele>104.92</ele>
        <time>2017-08-01T10:10:14Z</time>
      </trkpt>
      <trkpt lat="43.2037058473" lon="2.5424872991">
        <ele>105.40</ele>
        <time>2017-08-01T10:10:15Z</time>
      </trkpt>
      <trkpt lat="43.2037003990" lon="2.5425116066">
        <ele>105.40</ele>
        <time>2017-08-01T10:10:16Z</time>
      </trkpt>
      <trkpt lat="43.2036916818" lon="2.5425327290">
        <ele>105.40</ele>
        <time>2017-08-01T10:10:17Z</time>
      </trkpt>
      <trkpt lat="43.2035986427" lon="2.5425924920">
        <ele>106.84</ele>
        <time>2017-08-01T10:10:23Z</time>
      </trkpt>
      <trkpt lat="43.2035796996" lon="2.5425820984">
        <ele>106.84</ele>
        <time>2017-08-01T10:10:24Z</time>
      </trkpt>
      <trkpt lat="43.2035657018" lon="2.5425637420">
        <ele>107.32</ele>
        <time>2017-08-01T10:10:25Z</time>
      </trkpt>
      <trkpt lat="43.2035581581" lon="2.5425438769">
        <ele>107.32</ele>
        <time>2017-08-01T10:10:26Z</time>
      </trkpt>
      <trkpt lat="43.2035550568" lon="2.5425258558">
        <ele>107.32</ele>
        <time>2017-08-01T10:10:27Z</time>
      </trkpt>
      <trkpt lat="43.2035514526" lon="2.5425065774">
        <ele>107.81</ele>
        <time>2017-08-01T10:10:28Z</time>
      </trkpt>
      <trkpt lat="43.2034941204" lon="2.5423526019">
        <ele>107.32</ele>
        <time>2017-08-01T10:10:36Z</time>
      </trkpt>
      <trkpt lat="43.2034760993" lon="2.5423319824">
        <ele>107.32</ele>
        <time>2017-08-01T10:10:38Z</time>
      </trkpt>
      <trkpt lat="43.2034526300" lon="2.5423094351">
        <ele>107.32</ele>
        <time>2017-08-01T10:10:49Z</time>
      </trkpt>
      <trkpt lat="43.2034489419" lon="2.5423101056">
        <ele>107.32</ele>
        <time>2017-08-01T10:11:10Z</time>
      </trkpt>
      <trkpt lat="43.2034467626" lon="2.5423085969">
        <ele>107.81</ele>
        <time>2017-08-01T10:11:31Z</time>
      </trkpt>
      <trkpt lat="43.2034450863" lon="2.5423089322">
        <ele>106.84</ele>
        <time>2017-08-01T10:11:52Z</time>
      </trkpt>
      <trkpt lat="43.2034617662" lon="2.5422980357">
        <ele>107.32</ele>
        <time>2017-08-01T10:12:12Z</time>
      </trkpt>
      <trkpt lat="43.2034711540" lon="2.5423044898">
        <ele>106.84</ele>
        <time>2017-08-01T10:12:33Z</time>
      </trkpt>
      <trkpt lat="43.2034714054" lon="2.5423018076">
        <ele>106.84</ele>
        <time>2017-08-01T10:12:56Z</time>
      </trkpt>
      <trkpt lat="43.2034729142" lon="2.5423024781">
        <ele>106.84</ele>
        <time>2017-08-01T10:13:13Z</time>
      </trkpt>
      <trkpt lat="43.2034777757" lon="2.5422977004">
        <ele>106.36</ele>
        <time>2017-08-01T10:13:25Z</time>
      </trkpt>
      <trkpt lat="43.2034806255" lon="2.5422937609">
        <ele>106.36</ele>
        <time>2017-08-01T10:13:37Z</time>
      </trkpt>
      <trkpt lat="43.2034786139" lon="2.5422967784">
        <ele>106.36</ele>
        <time>2017-08-01T10:13:51Z</time>
      </trkpt>
      <trkpt lat="43.2034652866" lon="2.5423041545">
        <ele>106.36</ele>
        <time>2017-08-01T10:14:05Z</time>
      </trkpt>
      <trkpt lat="43.2034506183" lon="2.5423168950">
        <ele>106.36</ele>
        <time>2017-08-01T10:14:06Z</time>
      </trkpt>
      <trkpt lat="43.2034366205" lon="2.5423372630">
        <ele>105.88</ele>
        <time>2017-08-01T10:14:07Z</time>
      </trkpt>
      <trkpt lat="43.2034305856" lon="2.5423584692">
        <ele>105.88</ele>
        <time>2017-08-01T10:14:08Z</time>
      </trkpt>
      <trkpt lat="43.2034321781" lon="2.5423780829">
        <ele>105.88</ele>
        <time>2017-08-01T10:14:09Z</time>
      </trkpt>
      <trkpt lat="43.2034368720" lon="2.5423996244">
        <ele>105.88</ele>
        <time>2017-08-01T10:14:10Z</time>
      </trkpt>
      <trkpt lat="43.2034399733" lon="2.5424282067">
        <ele>105.88</ele>
        <time>2017-08-01T10:14:11Z</time>
      </trkpt>
      <trkpt lat="43.2034406438" lon="2.5424627401">
        <ele>105.88</ele>
        <time>2017-08-01T10:14:12Z</time>
      </trkpt>
      <trkpt lat="43.2034461759" lon="2.5424937531">
        <ele>106.36</ele>
        <time>2017-08-01T10:14:13Z</time>
      </trkpt>
      <trkpt lat="43.2034528814" lon="2.5425211620">
        <ele>106.36</ele>
        <time>2017-08-01T10:14:14Z</time>
      </trkpt>
      <trkpt lat="43.2034632750" lon="2.5425457209">
        <ele>106.36</ele>
        <time>2017-08-01T10:14:15Z</time>
      </trkpt>
      <trkpt lat="43.2034738362" lon="2.5425686873">
        <ele>106.36</ele>
        <time>2017-08-01T10:14:16Z</time>
      </trkpt>
      <trkpt lat="43.2034843136" lon="2.5425815117">
        <ele>106.36</ele>
        <time>2017-08-01T10:14:17Z</time>
      </trkpt>
      <trkpt lat="43.2034960482" lon="2.5425824337">
        <ele>106.36</ele>
        <time>2017-08-01T10:14:18Z</time>
      </trkpt>
      <trkpt lat="43.2035605889" lon="2.5426106807">
        <ele>106.36</ele>
        <time>2017-08-01T10:14:21Z</time>
      </trkpt>
      <trkpt lat="43.2035947032" lon="2.5426202361">
        <ele>105.40</ele>
        <time>2017-08-01T10:14:28Z</time>
      </trkpt>
      <trkpt lat="43.2036128081" lon="2.5426105969">
        <ele>105.40</ele>
        <time>2017-08-01T10:14:29Z</time>
      </trkpt>
      <trkpt lat="43.2036349364" lon="2.5425950903">
        <ele>105.40</ele>
        <time>2017-08-01T10:14:30Z</time>
      </trkpt>
      <trkpt lat="43.2036799472" lon="2.5425508339">
        <ele>104.92</ele>
        <time>2017-08-01T10:14:32Z</time>
      </trkpt>
      <trkpt lat="43.2036937773" lon="2.5425163843">
        <ele>104.44</ele>
        <time>2017-08-01T10:14:33Z</time>
      </trkpt>
      <trkpt lat="43.2037027460" lon="2.5424800906">
        <ele>104.44</ele>
        <time>2017-08-01T10:14:34Z</time>
      </trkpt>
      <trkpt lat="43.2037052605" lon="2.5424430426">
        <ele>103.96</ele>
        <time>2017-08-01T10:14:35Z</time>
      </trkpt>
      <trkpt lat="43.2037055120" lon="2.5423969422">
        <ele>103.48</ele>
        <time>2017-08-01T10:14:36Z</time>
      </trkpt>
      <trkpt lat="43.2036499400" lon="2.5420171581">
        <ele>101.08</ele>
        <time>2017-08-01T10:14:44Z</time>
      </trkpt>
      <trkpt lat="43.2035189308" lon="2.5419031642">
        <ele>100.60</ele>
        <time>2017-08-01T10:14:52Z</time>
      </trkpt>
      <trkpt lat="43.2034785300" lon="2.5418879092">
        <ele>99.63</ele>
        <time>2017-08-01T10:15:04Z</time>
      </trkpt>
      <trkpt lat="43.2033672184" lon="2.5418729056">
        <ele>99.63</ele>
        <time>2017-08-01T10:15:13Z</time>
      </trkpt>
      <trkpt lat="43.2033075392" lon="2.5418598298">
        <ele>99.63</ele>
        <time>2017-08-01T10:15:20Z</time>
      </trkpt>
      <trkpt lat="43.2032876741" lon="2.5418589916">
        <ele>99.15</ele>
        <time>2017-08-01T10:15:21Z</time>
      </trkpt>
      <trkpt lat="43.2032661326" lon="2.5418602489">
        <ele>99.15</ele>
        <time>2017-08-01T10:15:22Z</time>
      </trkpt>
      <trkpt lat="43.2032448426" lon="2.5418590754">
        <ele>99.15</ele>
        <time>2017-08-01T10:15:23Z</time>
      </trkpt>
      <trkpt lat="43.2032248937" lon="2.5418553036">
        <ele>99.15</ele>
        <time>2017-08-01T10:15:24Z</time>
      </trkpt>
      <trkpt lat="43.2031823974" lon="2.5418317504">
        <ele>98.19</ele>
        <time>2017-08-01T10:15:32Z</time>
      </trkpt>
      <trkpt lat="43.2031474449" lon="2.5417964626">
        <ele>98.19</ele>
        <time>2017-08-01T10:15:42Z</time>
      </trkpt>
      <trkpt lat="43.2031419966" lon="2.5417578220">
        <ele>97.71</ele>
        <time>2017-08-01T10:15:43Z</time>
      </trkpt>
      <trkpt lat="43.2031472772" lon="2.5417188462">
        <ele>97.71</ele>
        <time>2017-08-01T10:15:44Z</time>
      </trkpt>
      <trkpt lat="43.2031536475" lon="2.5416749250">
        <ele>97.23</ele>
        <time>2017-08-01T10:15:45Z</time>
      </trkpt>
      <trkpt lat="43.2031551562" lon="2.5416206941">
        <ele>97.23</ele>
        <time>2017-08-01T10:15:46Z</time>
      </trkpt>
      <trkpt lat="43.2031548209" lon="2.5415589195">
        <ele>96.75</ele>
        <time>2017-08-01T10:15:47Z</time>
      </trkpt>
      <trkpt lat="43.2031632867" lon="2.5408400875">
        <ele>94.35</ele>
        <time>2017-08-01T10:15:55Z</time>
      </trkpt>
      <trkpt lat="43.2031630352" lon="2.5407385826">
        <ele>93.39</ele>
        <time>2017-08-01T10:15:56Z</time>
      </trkpt>
      <trkpt lat="43.2032590918" lon="2.5400212593">
        <ele>90.50</ele>
        <time>2017-08-01T10:16:03Z</time>
      </trkpt>
      <trkpt lat="43.2032805495" lon="2.5399248675">
        <ele>90.02</ele>
        <time>2017-08-01T10:16:04Z</time>
      </trkpt>
      <trkpt lat="43.2034310047" lon="2.5392274093">
        <ele>90.50</ele>
        <time>2017-08-01T10:16:13Z</time>
      </trkpt>
      <trkpt lat="43.2035623491" lon="2.5387194660">
        <ele>90.98</ele>
        <time>2017-08-01T10:16:23Z</time>
      </trkpt>
      <trkpt lat="43.2035840582" lon="2.5387055520">
        <ele>91.46</ele>
        <time>2017-08-01T10:16:24Z</time>
      </trkpt>
      <trkpt lat="43.2036074437" lon="2.5386995170">
        <ele>90.98</ele>
        <time>2017-08-01T10:16:25Z</time>
      </trkpt>
      <trkpt lat="43.2037102897" lon="2.5387183763">
        <ele>90.02</ele>
        <time>2017-08-01T10:16:28Z</time>
      </trkpt>
      <trkpt lat="43.2037552167" lon="2.5387404207">
        <ele>90.02</ele>
        <time>2017-08-01T10:16:29Z</time>
      </trkpt>
      <trkpt lat="43.2040399499" lon="2.5389176141">
        <ele>88.10</ele>
        <time>2017-08-01T10:16:38Z</time>
      </trkpt>
      <trkpt lat="43.2041695341" lon="2.5390186999">
        <ele>87.62</ele>
        <time>2017-08-01T10:16:48Z</time>
      </trkpt>
      <trkpt lat="43.2043112721" lon="2.5391466916">
        <ele>87.62</ele>
        <time>2017-08-01T10:16:58Z</time>
      </trkpt>
      <trkpt lat="43.2044394314" lon="2.5393711589">
        <ele>89.54</ele>
        <time>2017-08-01T10:17:07Z</time>
      </trkpt>
      <trkpt lat="43.2044739649" lon="2.5394353643">
        <ele>86.18</ele>
        <time>2017-08-01T10:17:14Z</time>
      </trkpt>
      <trkpt lat="43.2044740487" lon="2.5394450035">
        <ele>87.62</ele>
        <time>2017-08-01T10:17:24Z</time>
      </trkpt>
      <trkpt lat="43.2044711988" lon="2.5394431595">
        <ele>87.62</ele>
        <time>2017-08-01T10:17:26Z</time>
      </trkpt>
      <trkpt lat="43.2043703645" lon="2.5392119028">
        <ele>88.10</ele>
        <time>2017-08-01T10:17:35Z</time>
      </trkpt>
      <trkpt lat="43.2042171434" lon="2.5390465278">
        <ele>87.62</ele>
        <time>2017-08-01T10:17:44Z</time>
      </trkpt>
      <trkpt lat="43.2040180732" lon="2.5388901215">
        <ele>87.62</ele>
        <time>2017-08-01T10:17:53Z</time>
      </trkpt>
      <trkpt lat="43.2037128042" lon="2.5387201365">
        <ele>89.54</ele>
        <time>2017-08-01T10:18:04Z</time>
      </trkpt>
      <trkpt lat="43.2036037557" lon="2.5386764668">
        <ele>91.46</ele>
        <time>2017-08-01T10:18:12Z</time>
      </trkpt>
      <trkpt lat="43.2035664562" lon="2.5386833400">
        <ele>91.46</ele>
        <time>2017-08-01T10:18:22Z</time>
      </trkpt>
      <trkpt lat="43.2035512011" lon="2.5387017801">
        <ele>91.46</ele>
        <time>2017-08-01T10:18:23Z</time>
      </trkpt>
      <trkpt lat="43.2035381254" lon="2.5387335476">
        <ele>91.46</ele>
        <time>2017-08-01T10:18:24Z</time>
      </trkpt>
      <trkpt lat="43.2035284862" lon="2.5387730263">
        <ele>91.46</ele>
        <time>2017-08-01T10:18:25Z</time>
      </trkpt>
      <trkpt lat="43.2035181765" lon="2.5388159417">
        <ele>90.98</ele>
        <time>2017-08-01T10:18:26Z</time>
      </trkpt>
      <trkpt lat="43.2034827210" lon="2.5390465278">
        <ele>90.98</ele>
        <time>2017-08-01T10:18:31Z</time>
      </trkpt>
      <trkpt lat="43.2034925278" lon="2.5390728470">
        <ele>90.98</ele>
        <time>2017-08-01T10:18:32Z</time>
      </trkpt>
      <trkpt lat="43.2035051845" lon="2.5391212106">
        <ele>90.98</ele>
        <time>2017-08-01T10:18:37Z</time>
      </trkpt>
      <trkpt lat="43.2034973055" lon="2.5391404890">
        <ele>90.98</ele>
        <time>2017-08-01T10:18:38Z</time>
      </trkpt>
      <trkpt lat="43.2034897618" lon="2.5391664729">
        <ele>90.98</ele>
        <time>2017-08-01T10:18:39Z</time>
      </trkpt>
      <trkpt lat="43.2034814637" lon="2.5391979888">
        <ele>90.98</ele>
        <time>2017-08-01T10:18:40Z</time>
      </trkpt>
      <trkpt lat="43.2034724113" lon="2.5392357074">
        <ele>90.98</ele>
        <time>2017-08-01T10:18:41Z</time>
      </trkpt>
      <trkpt lat="43.2034631073" lon="2.5392779522">
        <ele>90.98</ele>
        <time>2017-08-01T10:18:42Z</time>
      </trkpt>
      <trkpt lat="43.2034522109" lon="2.5393235497">
        <ele>90.98</ele>
        <time>2017-08-01T10:18:43Z</time>
      </trkpt>
      <trkpt lat="43.2033563219" lon="2.5398265477">
        <ele>89.54</ele>
        <time>2017-08-01T10:18:54Z</time>
      </trkpt>
      <trkpt lat="43.2033693139" lon="2.5398725644">
        <ele>89.54</ele>
        <time>2017-08-01T10:18:56Z</time>
      </trkpt>
      <trkpt lat="43.2033803780" lon="2.5398902502">
        <ele>89.54</ele>
        <time>2017-08-01T10:18:57Z</time>
      </trkpt>
      <trkpt lat="43.2033949625" lon="2.5399043318">
        <ele>89.54</ele>
        <time>2017-08-01T10:18:58Z</time>
      </trkpt>
      <trkpt lat="43.2034177613" lon="2.5399044156">
        <ele>89.54</ele>
        <time>2017-08-01T10:18:59Z</time>
      </trkpt>
      <trkpt lat="43.2034436613" lon="2.5398835447">
        <ele>89.06</ele>
        <time>2017-08-01T10:19:00Z</time>
      </trkpt>
      <trkpt lat="43.2034642808" lon="2.5398433954">
        <ele>89.06</ele>
        <time>2017-08-01T10:19:01Z</time>
      </trkpt>
      <trkpt lat="43.2034809608" lon="2.5397917628">
        <ele>89.06</ele>
        <time>2017-08-01T10:19:02Z</time>
      </trkpt>
      <trkpt lat="43.2034936175" lon="2.5397334248">
        <ele>89.06</ele>
        <time>2017-08-01T10:19:03Z</time>
      </trkpt>
      <trkpt lat="43.2035051007" lon="2.5396744162">
        <ele>89.06</ele>
        <time>2017-08-01T10:19:04Z</time>
      </trkpt>
      <trkpt lat="43.2035275642" lon="2.5394949596">
        <ele>88.58</ele>
        <time>2017-08-01T10:19:07Z</time>
      </trkpt>
      <trkpt lat="43.2035350241" lon="2.5394370407">
        <ele>89.06</ele>
        <time>2017-08-01T10:19:08Z</time>
      </trkpt>
      <trkpt lat="43.2035377901" lon="2.5393788703">
        <ele>88.58</ele>
        <time>2017-08-01T10:19:09Z</time>
      </trkpt>
      <trkpt lat="43.2035403047" lon="2.5393229630">
        <ele>89.06</ele>
        <time>2017-08-01T10:19:10Z</time>
      </trkpt>
      <trkpt lat="43.2035472617" lon="2.5392705761">
        <ele>89.06</ele>
        <time>2017-08-01T10:19:11Z</time>
      </trkpt>
      <trkpt lat="43.2035589963" lon="2.5392222963">
        <ele>89.06</ele>
        <time>2017-08-01T10:19:12Z</time>
      </trkpt>
      <trkpt lat="43.2035828009" lon="2.5391881820">
        <ele>88.58</ele>
        <time>2017-08-01T10:19:13Z</time>
      </trkpt>
      <trkpt lat="43.2036146522" lon="2.5391792133">
        <ele>89.06</ele>
        <time>2017-08-01T10:19:14Z</time>
      </trkpt>
      <trkpt lat="43.2036491018" lon="2.5391871762">
        <ele>89.06</ele>
        <time>2017-08-01T10:19:15Z</time>
      </trkpt>
      <trkpt lat="43.2036877424" lon="2.5392023474">
        <ele>88.58</ele>
        <time>2017-08-01T10:19:16Z</time>
      </trkpt>
      <trkpt lat="43.2039037440" lon="2.5393016730">
        <ele>88.10</ele>
        <time>2017-08-01T10:19:21Z</time>
      </trkpt>
      <trkpt lat="43.2039443124" lon="2.5393350329">
        <ele>88.10</ele>
        <time>2017-08-01T10:19:22Z</time>
      </trkpt>
      <trkpt lat="43.2040231023" lon="2.5394131523">
        <ele>88.10</ele>
        <time>2017-08-01T10:19:24Z</time>
      </trkpt>
      <trkpt lat="43.2040577196" lon="2.5394614320">
        <ele>87.62</ele>
        <time>2017-08-01T10:19:25Z</time>
      </trkpt>
      <trkpt lat="43.2042194903" lon="2.5397161581">
        <ele>87.62</ele>
        <time>2017-08-01T10:19:30Z</time>
      </trkpt>
      <trkpt lat="43.2042458933" lon="2.5397766754">
        <ele>87.62</ele>
        <time>2017-08-01T10:19:31Z</time>
      </trkpt>
      <trkpt lat="43.2044575363" lon="2.5404777378">
        <ele>87.62</ele>
        <time>2017-08-01T10:19:43Z</time>
      </trkpt>
      <trkpt lat="43.2045199815" lon="2.5412075501">
        <ele>88.58</ele>
        <time>2017-08-01T10:19:56Z</time>
      </trkpt>
      <trkpt lat="43.2045344822" lon="2.5418000668">
        <ele>89.06</ele>
        <time>2017-08-01T10:20:08Z</time>
      </trkpt>
      <trkpt lat="43.2045348175" lon="2.5424250215">
        <ele>89.54</ele>
        <time>2017-08-01T10:20:20Z</time>
      </trkpt>
      <trkpt lat="43.2045457140" lon="2.5429006107">
        <ele>90.02</ele>
        <time>2017-08-01T10:20:29Z</time>
      </trkpt>
      <trkpt lat="43.2045526709" lon="2.5436401460">
        <ele>88.10</ele>
        <time>2017-08-01T10:20:40Z</time>
      </trkpt>
      <trkpt lat="43.2045592088" lon="2.5442754943">
        <ele>87.14</ele>
        <time>2017-08-01T10:20:48Z</time>
      </trkpt>
      <trkpt lat="43.2045659982" lon="2.5443548709">
        <ele>87.14</ele>
        <time>2017-08-01T10:20:49Z</time>
      </trkpt>
      <trkpt lat="43.2045764755" lon="2.5444294699">
        <ele>87.14</ele>
        <time>2017-08-01T10:20:50Z</time>
      </trkpt>
      <trkpt lat="43.2046157029" lon="2.5446439628">
        <ele>87.14</ele>
        <time>2017-08-01T10:20:53Z</time>
      </trkpt>
      <trkpt lat="43.2046317123" lon="2.5447867066">
        <ele>87.14</ele>
        <time>2017-08-01T10:20:55Z</time>
      </trkpt>
      <trkpt lat="43.2046364900" lon="2.5448594615">
        <ele>87.14</ele>
        <time>2017-08-01T10:20:56Z</time>
      </trkpt>
      <trkpt lat="43.2046450395" lon="2.5449318811">
        <ele>87.14</ele>
        <time>2017-08-01T10:20:57Z</time>
      </trkpt>
      <trkpt lat="43.2047310378" lon="2.5456772000">
        <ele>87.14</ele>
        <time>2017-08-01T10:21:09Z</time>
      </trkpt>
      <trkpt lat="43.2047828380" lon="2.5460886676">
        <ele>87.62</ele>
        <time>2017-08-01T10:21:16Z</time>
      </trkpt>
      <trkpt lat="43.2047898788" lon="2.5461439881">
        <ele>87.62</ele>
        <time>2017-08-01T10:21:17Z</time>
      </trkpt>
      <trkpt lat="43.2047947403" lon="2.5461981352">
        <ele>87.62</ele>
        <time>2017-08-01T10:21:18Z</time>
      </trkpt>
      <trkpt lat="43.2048189640" lon="2.5466817711">
        <ele>89.06</ele>
        <time>2017-08-01T10:21:28Z</time>
      </trkpt>
      <trkpt lat="43.2048445288" lon="2.5470335595">
        <ele>88.58</ele>
        <time>2017-08-01T10:21:36Z</time>
      </trkpt>
      <trkpt lat="43.2048512343" lon="2.5470987707">
        <ele>88.10</ele>
        <time>2017-08-01T10:21:37Z</time>
      </trkpt>
      <trkpt lat="43.2048790623" lon="2.5475295167">
        <ele>88.10</ele>
        <time>2017-08-01T10:21:44Z</time>
      </trkpt>
      <trkpt lat="43.2048834208" lon="2.5476424210">
        <ele>88.10</ele>
        <time>2017-08-01T10:21:46Z</time>
      </trkpt>
      <trkpt lat="43.2049360592" lon="2.5481501129">
        <ele>89.54</ele>
        <time>2017-08-01T10:21:56Z</time>
      </trkpt>
      <trkpt lat="43.2050136756" lon="2.5483558886">
        <ele>89.06</ele>
        <time>2017-08-01T10:22:00Z</time>
      </trkpt>
      <trkpt lat="43.2050363068" lon="2.5484074373">
        <ele>88.58</ele>
        <time>2017-08-01T10:22:01Z</time>
      </trkpt>
      <trkpt lat="43.2051519770" lon="2.5487123709">
        <ele>88.10</ele>
        <time>2017-08-01T10:22:07Z</time>
      </trkpt>
      <trkpt lat="43.2052139193" lon="2.5488548633">
        <ele>88.10</ele>
        <time>2017-08-01T10:22:10Z</time>
      </trkpt>
      <trkpt lat="43.2053396478" lon="2.5492248405">
        <ele>88.10</ele>
        <time>2017-08-01T10:22:17Z</time>
      </trkpt>
      <trkpt lat="43.2053510472" lon="2.5492823403">
        <ele>87.62</ele>
        <time>2017-08-01T10:22:18Z</time>
      </trkpt>
      <trkpt lat="43.2053728402" lon="2.5493950769">
        <ele>87.62</ele>
        <time>2017-08-01T10:22:20Z</time>
      </trkpt>
      <trkpt lat="43.2053854130" lon="2.5494498108">
        <ele>87.62</ele>
        <time>2017-08-01T10:22:21Z</time>
      </trkpt>
      <trkpt lat="43.2053946331" lon="2.5495054666">
        <ele>87.62</ele>
        <time>2017-08-01T10:22:22Z</time>
      </trkpt>
      <trkpt lat="43.2054267358" lon="2.5497344602">
        <ele>87.14</ele>
        <time>2017-08-01T10:22:26Z</time>
      </trkpt>
      <trkpt lat="43.2054419909" lon="2.5497892778">
        <ele>87.14</ele>
        <time>2017-08-01T10:22:27Z</time>
      </trkpt>
      <trkpt lat="43.2054622751" lon="2.5498415809">
        <ele>87.14</ele>
        <time>2017-08-01T10:22:28Z</time>
      </trkpt>
      <trkpt lat="43.2054867502" lon="2.5498903636">
        <ele>87.14</ele>
        <time>2017-08-01T10:22:29Z</time>
      </trkpt>
      <trkpt lat="43.2055171765" lon="2.5499326922">
        <ele>87.14</ele>
        <time>2017-08-01T10:22:30Z</time>
      </trkpt>
      <trkpt lat="43.2055540569" lon="2.5499632023">
        <ele>87.14</ele>
        <time>2017-08-01T10:22:31Z</time>
      </trkpt>
      <trkpt lat="43.2055942062" lon="2.5499788765">
        <ele>87.14</ele>
        <time>2017-08-01T10:22:32Z</time>
      </trkpt>
      <trkpt lat="43.2056379598" lon="2.5499760266">
        <ele>87.14</ele>
        <time>2017-08-01T10:22:33Z</time>
      </trkpt>
      <trkpt lat="43.2056805398" lon="2.5499595143">
        <ele>87.14</ele>
        <time>2017-08-01T10:22:34Z</time>
      </trkpt>
      <trkpt lat="43.2057152409" lon="2.5499388110">
        <ele>87.14</ele>
        <time>2017-08-01T10:22:35Z</time>
      </trkpt>
      <trkpt lat="43.2057443261" lon="2.5499233883">
        <ele>86.66</ele>
        <time>2017-08-01T10:22:36Z</time>
      </trkpt>
      <trkpt lat="43.2057972997" lon="2.5499182753">
        <ele>86.66</ele>
        <time>2017-08-01T10:22:38Z</time>
      </trkpt>
      <trkpt lat="43.2058270555" lon="2.5499337818">
        <ele>86.66</ele>
        <time>2017-08-01T10:22:39Z</time>
      </trkpt>
      <trkpt lat="43.2058526203" lon="2.5499570835">
        <ele>86.18</ele>
        <time>2017-08-01T10:22:40Z</time>
      </trkpt>
      <trkpt lat="43.2058708090" lon="2.5499889348">
        <ele>86.18</ele>
        <time>2017-08-01T10:22:41Z</time>
      </trkpt>
      <trkpt lat="43.2058790233" lon="2.5500287488">
        <ele>85.69</ele>
        <time>2017-08-01T10:22:42Z</time>
      </trkpt>
      <trkpt lat="43.2058808673" lon="2.5500743464">
        <ele>85.69</ele>
        <time>2017-08-01T10:22:43Z</time>
      </trkpt>
      <trkpt lat="43.2059244532" lon="2.5506054237">
        <ele>83.29</ele>
        <time>2017-08-01T10:22:52Z</time>
      </trkpt>
      <trkpt lat="43.2059220225" lon="2.5506695453">
        <ele>83.29</ele>
        <time>2017-08-01T10:22:53Z</time>
      </trkpt>
      <trkpt lat="43.2059208490" lon="2.5507310685">
        <ele>83.29</ele>
        <time>2017-08-01T10:22:54Z</time>
      </trkpt>
      <trkpt lat="43.2059157360" lon="2.5510312244">
        <ele>82.81</ele>
        <time>2017-08-01T10:23:02Z</time>
      </trkpt>
      <trkpt lat="43.2059308235" lon="2.5513524190">
        <ele>83.29</ele>
        <time>2017-08-01T10:23:11Z</time>
      </trkpt>
      <trkpt lat="43.2059739903" lon="2.5520023517">
        <ele>83.29</ele>
        <time>2017-08-01T10:23:23Z</time>
      </trkpt>
      <trkpt lat="43.2059770916" lon="2.5525662862">
        <ele>82.81</ele>
        <time>2017-08-01T10:23:32Z</time>
      </trkpt>
      <trkpt lat="43.2059932686" lon="2.5528949406">
        <ele>83.29</ele>
        <time>2017-08-01T10:23:37Z</time>
      </trkpt>
      <trkpt lat="43.2060040813" lon="2.5530266203">
        <ele>83.29</ele>
        <time>2017-08-01T10:23:39Z</time>
      </trkpt>
      <trkpt lat="43.2060091104" lon="2.5535696000">
        <ele>83.29</ele>
        <time>2017-08-01T10:23:47Z</time>
      </trkpt>
      <trkpt lat="43.2060111221" lon="2.5536415167">
        <ele>82.81</ele>
        <time>2017-08-01T10:23:48Z</time>
      </trkpt>
      <trkpt lat="43.2060134690" lon="2.5537126791">
        <ele>82.81</ele>
        <time>2017-08-01T10:23:49Z</time>
      </trkpt>
      <trkpt lat="43.2060185820" lon="2.5537832547">
        <ele>82.81</ele>
        <time>2017-08-01T10:23:50Z</time>
      </trkpt>
      <trkpt lat="43.2060269639" lon="2.5538516510">
        <ele>82.81</ele>
        <time>2017-08-01T10:23:51Z</time>
      </trkpt>
      <trkpt lat="43.2060397044" lon="2.5539179519">
        <ele>82.81</ele>
        <time>2017-08-01T10:23:52Z</time>
      </trkpt>
      <trkpt lat="43.2060546242" lon="2.5539847557">
        <ele>82.81</ele>
        <time>2017-08-01T10:23:53Z</time>
      </trkpt>
      <trkpt lat="43.2060804404" lon="2.5541209616">
        <ele>83.29</ele>
        <time>2017-08-01T10:23:55Z</time>
      </trkpt>
      <trkpt lat="43.2060877327" lon="2.5541912019">
        <ele>83.77</ele>
        <time>2017-08-01T10:23:56Z</time>
      </trkpt>
      <trkpt lat="43.2060906664" lon="2.5542593468">
        <ele>83.29</ele>
        <time>2017-08-01T10:23:57Z</time>
      </trkpt>
      <trkpt lat="43.2060940191" lon="2.5543253962">
        <ele>82.81</ele>
        <time>2017-08-01T10:23:58Z</time>
      </trkpt>
      <trkpt lat="43.2061012276" lon="2.5543905236">
        <ele>82.81</ele>
        <time>2017-08-01T10:23:59Z</time>
      </trkpt>
      <trkpt lat="43.2061136328" lon="2.5544528011">
        <ele>83.29</ele>
        <time>2017-08-01T10:24:00Z</time>
      </trkpt>
      <trkpt lat="43.2061319053" lon="2.5545141567">
        <ele>82.81</ele>
        <time>2017-08-01T10:24:01Z</time>
      </trkpt>
      <trkpt lat="43.2061536983" lon="2.5545735843">
        <ele>82.81</ele>
        <time>2017-08-01T10:24:02Z</time>
      </trkpt>
      <trkpt lat="43.2061754912" lon="2.5546320062">
        <ele>82.81</ele>
        <time>2017-08-01T10:24:03Z</time>
      </trkpt>
      <trkpt lat="43.2061915845" lon="2.5546883326">
        <ele>83.29</ele>
        <time>2017-08-01T10:24:04Z</time>
      </trkpt>
      <trkpt lat="43.2062072586" lon="2.5547364447">
        <ele>82.81</ele>
        <time>2017-08-01T10:24:05Z</time>
      </trkpt>
      <trkpt lat="43.2062250283" lon="2.5547853950">
        <ele>83.29</ele>
        <time>2017-08-01T10:24:06Z</time>
      </trkpt>
      <trkpt lat="43.2062419597" lon="2.5548361894">
        <ele>83.29</ele>
        <time>2017-08-01T10:24:07Z</time>
      </trkpt>
      <trkpt lat="43.2062911615" lon="2.5549860578">
        <ele>82.81</ele>
        <time>2017-08-01T10:24:10Z</time>
      </trkpt>
      <trkpt lat="43.2063111104" lon="2.5550348405">
        <ele>82.81</ele>
        <time>2017-08-01T10:24:11Z</time>
      </trkpt>
      <trkpt lat="43.2063287962" lon="2.5550788455">
        <ele>82.81</ele>
        <time>2017-08-01T10:24:12Z</time>
      </trkpt>
      <trkpt lat="43.2063536905" lon="2.5551219285">
        <ele>83.29</ele>
        <time>2017-08-01T10:24:13Z</time>
      </trkpt>
      <trkpt lat="43.2063836977" lon="2.5551682804">
        <ele>82.81</ele>
        <time>2017-08-01T10:24:14Z</time>
      </trkpt>
      <trkpt lat="43.2065209933" lon="2.5554264430">
        <ele>82.81</ele>
        <time>2017-08-01T10:24:19Z</time>
      </trkpt>
      <trkpt lat="43.2066714484" lon="2.5557234976">
        <ele>82.81</ele>
        <time>2017-08-01T10:24:24Z</time>
      </trkpt>
      <trkpt lat="43.2066975161" lon="2.5557804108">
        <ele>82.81</ele>
        <time>2017-08-01T10:24:25Z</time>
      </trkpt>
      <trkpt lat="43.2070415933" lon="2.5564550702">
        <ele>83.29</ele>
        <time>2017-08-01T10:24:36Z</time>
      </trkpt>
      <trkpt lat="43.2072902005" lon="2.5570894964">
        <ele>82.81</ele>
        <time>2017-08-01T10:24:46Z</time>
      </trkpt>
      <trkpt lat="43.2073101494" lon="2.5571522769">
        <ele>82.81</ele>
        <time>2017-08-01T10:24:47Z</time>
      </trkpt>
      <trkpt lat="43.2073496282" lon="2.5572806038">
        <ele>82.81</ele>
        <time>2017-08-01T10:24:49Z</time>
      </trkpt>
      <trkpt lat="43.2075652946" lon="2.5580955762">
        <ele>82.81</ele>
        <time>2017-08-01T10:25:02Z</time>
      </trkpt>
      <trkpt lat="43.2075836509" lon="2.5581589434">
        <ele>82.81</ele>
        <time>2017-08-01T10:25:03Z</time>
      </trkpt>
      <trkpt lat="43.2076021750" lon="2.5582228135">
        <ele>82.81</ele>
        <time>2017-08-01T10:25:04Z</time>
      </trkpt>
      <trkpt lat="43.2076177653" lon="2.5582882762">
        <ele>82.81</ele>
        <time>2017-08-01T10:25:05Z</time>
      </trkpt>
      <trkpt lat="43.2076323498" lon="2.5583539903">
        <ele>82.81</ele>
        <time>2017-08-01T10:25:06Z</time>
      </trkpt>
      <trkpt lat="43.2076480240" lon="2.5584209617">
        <ele>82.81</ele>
        <time>2017-08-01T10:25:07Z</time>
      </trkpt>
      <trkpt lat="43.2076996565" lon="2.5586157572">
        <ele>82.81</ele>
        <time>2017-08-01T10:25:10Z</time>
      </trkpt>
      <trkpt lat="43.2077156659" lon="2.5586808845">
        <ele>82.81</ele>
        <time>2017-08-01T10:25:11Z</time>
      </trkpt>
      <trkpt lat="43.2078844775" lon="2.5593521912">
        <ele>82.81</ele>
        <time>2017-08-01T10:25:21Z</time>
      </trkpt>
      <trkpt lat="43.2080729026" lon="2.5600850210">
        <ele>82.81</ele>
        <time>2017-08-01T10:25:32Z</time>
      </trkpt>
      <trkpt lat="43.2081350964" lon="2.5606569182">
        <ele>82.33</ele>
        <time>2017-08-01T10:25:41Z</time>
      </trkpt>
      <trkpt lat="43.2081090286" lon="2.5612325035">
        <ele>82.33</ele>
        <time>2017-08-01T10:25:51Z</time>
      </trkpt>
      <trkpt lat="43.2080362737" lon="2.5616391934">
        <ele>82.33</ele>
        <time>2017-08-01T10:25:59Z</time>
      </trkpt>
      <trkpt lat="43.2080238685" lon="2.5616907421">
        <ele>82.33</ele>
        <time>2017-08-01T10:26:00Z</time>
      </trkpt>
      <trkpt lat="43.2079137303" lon="2.5619645789">
        <ele>82.33</ele>
        <time>2017-08-01T10:26:05Z</time>
      </trkpt>
      <trkpt lat="43.2078931108" lon="2.5620226655">
        <ele>82.33</ele>
        <time>2017-08-01T10:26:06Z</time>
      </trkpt>
      <trkpt lat="43.2078714017" lon="2.5620848592">
        <ele>82.33</ele>
        <time>2017-08-01T10:26:07Z</time>
      </trkpt>
      <trkpt lat="43.2077113073" lon="2.5627834909">
        <ele>82.33</ele>
        <time>2017-08-01T10:26:18Z</time>
      </trkpt>
      <trkpt lat="43.2075596787" lon="2.5632097945">
        <ele>82.33</ele>
        <time>2017-08-01T10:26:25Z</time>
      </trkpt>
      <trkpt lat="43.2073083892" lon="2.5637136307">
        <ele>82.81</ele>
        <time>2017-08-01T10:26:34Z</time>
      </trkpt>
      <trkpt lat="43.2072807290" lon="2.5638365094">
        <ele>82.81</ele>
        <time>2017-08-01T10:26:36Z</time>
      </trkpt>
      <trkpt lat="43.2072681561" lon="2.5639018882">
        <ele>82.81</ele>
        <time>2017-08-01T10:26:37Z</time>
      </trkpt>
      <trkpt lat="43.2072559185" lon="2.5639692787">
        <ele>82.33</ele>
        <time>2017-08-01T10:26:38Z</time>
      </trkpt>
      <trkpt lat="43.2072471175" lon="2.5641062390">
        <ele>82.81</ele>
        <time>2017-08-01T10:26:40Z</time>
      </trkpt>
      <trkpt lat="43.2072432619" lon="2.5641654152">
        <ele>82.33</ele>
        <time>2017-08-01T10:26:41Z</time>
      </trkpt>
      <trkpt lat="43.2072362211" lon="2.5642245077">
        <ele>82.33</ele>
        <time>2017-08-01T10:26:42Z</time>
      </trkpt>
      <trkpt lat="43.2072305214" lon="2.5643462129">
        <ele>82.33</ele>
        <time>2017-08-01T10:26:44Z</time>
      </trkpt>
      <trkpt lat="43.2072246540" lon="2.5645929761">
        <ele>82.33</ele>
        <time>2017-08-01T10:26:48Z</time>
      </trkpt>
      <trkpt lat="43.2072157692" lon="2.5646560080">
        <ele>82.33</ele>
        <time>2017-08-01T10:26:49Z</time>
      </trkpt>
      <trkpt lat="43.2071958203" lon="2.5647848379">
        <ele>82.33</ele>
        <time>2017-08-01T10:26:51Z</time>
      </trkpt>
      <trkpt lat="43.2071793918" lon="2.5648484565">
        <ele>82.33</ele>
        <time>2017-08-01T10:26:52Z</time>
      </trkpt>
      <trkpt lat="43.2071612030" lon="2.5649125781">
        <ele>82.33</ele>
        <time>2017-08-01T10:26:53Z</time>
      </trkpt>
      <trkpt lat="43.2071301062" lon="2.5650326908">
        <ele>82.33</ele>
        <time>2017-08-01T10:26:55Z</time>
      </trkpt>
      <trkpt lat="43.2069237437" lon="2.5656078570">
        <ele>82.33</ele>
        <time>2017-08-01T10:27:05Z</time>
      </trkpt>
      <trkpt lat="43.2069033757" lon="2.5656631775">
        <ele>82.33</ele>
        <time>2017-08-01T10:27:06Z</time>
      </trkpt>
      <trkpt lat="43.2068812475" lon="2.5657221861">
        <ele>82.81</ele>
        <time>2017-08-01T10:27:07Z</time>
      </trkpt>
      <trkpt lat="43.2067727018" lon="2.5660493318">
        <ele>82.33</ele>
        <time>2017-08-01T10:27:12Z</time>
      </trkpt>
      <trkpt lat="43.2067538425" lon="2.5661150459">
        <ele>82.33</ele>
        <time>2017-08-01T10:27:13Z</time>
      </trkpt>
      <trkpt lat="43.2067006174" lon="2.5663119368">
        <ele>82.81</ele>
        <time>2017-08-01T10:27:16Z</time>
      </trkpt>
      <trkpt lat="43.2065153774" lon="2.5669825729">
        <ele>82.33</ele>
        <time>2017-08-01T10:27:27Z</time>
      </trkpt>
      <trkpt lat="43.2064949255" lon="2.5670523942">
        <ele>82.81</ele>
        <time>2017-08-01T10:27:28Z</time>
      </trkpt>
      <trkpt lat="43.2064361684" lon="2.5672454294">
        <ele>82.33</ele>
        <time>2017-08-01T10:27:31Z</time>
      </trkpt>
      <trkpt lat="43.2064126991" lon="2.5673098024">
        <ele>82.33</ele>
        <time>2017-08-01T10:27:32Z</time>
      </trkpt>
      <trkpt lat="43.2063924149" lon="2.5673750974">
        <ele>82.33</ele>
        <time>2017-08-01T10:27:33Z</time>
      </trkpt>
      <trkpt lat="43.2063135412" lon="2.5676778518">
        <ele>82.33</ele>
        <time>2017-08-01T10:27:38Z</time>
      </trkpt>
      <trkpt lat="43.2063003816" lon="2.5677435659">
        <ele>82.33</ele>
        <time>2017-08-01T10:27:39Z</time>
      </trkpt>
      <trkpt lat="43.2062264532" lon="2.5681121182">
        <ele>82.81</ele>
        <time>2017-08-01T10:27:46Z</time>
      </trkpt>
      <trkpt lat="43.2062282972" lon="2.5682064984">
        <ele>82.81</ele>
        <time>2017-08-01T10:27:48Z</time>
      </trkpt>
      <trkpt lat="43.2062133774" lon="2.5682585500">
        <ele>82.81</ele>
        <time>2017-08-01T10:27:49Z</time>
      </trkpt>
      <trkpt lat="43.2062018104" lon="2.5683069974">
        <ele>82.33</ele>
        <time>2017-08-01T10:27:50Z</time>
      </trkpt>
      <trkpt lat="43.2061950210" lon="2.5683618989">
        <ele>82.33</ele>
        <time>2017-08-01T10:27:51Z</time>
      </trkpt>
      <trkpt lat="43.2061938476" lon="2.5684204046">
        <ele>82.33</ele>
        <time>2017-08-01T10:27:52Z</time>
      </trkpt>
      <trkpt lat="43.2062616572" lon="2.5687229075">
        <ele>82.81</ele>
        <time>2017-08-01T10:27:57Z</time>
      </trkpt>
      <trkpt lat="43.2062857132" lon="2.5687823351">
        <ele>82.81</ele>
        <time>2017-08-01T10:27:58Z</time>
      </trkpt>
      <trkpt lat="43.2063147984" lon="2.5688370690">
        <ele>82.33</ele>
        <time>2017-08-01T10:27:59Z</time>
      </trkpt>
      <trkpt lat="43.2063995395" lon="2.5689912960">
        <ele>82.81</ele>
        <time>2017-08-01T10:28:02Z</time>
      </trkpt>
      <trkpt lat="43.2064200751" lon="2.5690572616">
        <ele>82.81</ele>
        <time>2017-08-01T10:28:03Z</time>
      </trkpt>
      <trkpt lat="43.2064896449" lon="2.5692548230">
        <ele>82.81</ele>
        <time>2017-08-01T10:28:06Z</time>
      </trkpt>
      <trkpt lat="43.2065090071" lon="2.5693109818">
        <ele>82.81</ele>
        <time>2017-08-01T10:28:07Z</time>
      </trkpt>
      <trkpt lat="43.2065265253" lon="2.5693676434">
        <ele>82.81</ele>
        <time>2017-08-01T10:28:08Z</time>
      </trkpt>
      <trkpt lat="43.2065359969" lon="2.5694252271">
        <ele>82.81</ele>
        <time>2017-08-01T10:28:09Z</time>
      </trkpt>
      <trkpt lat="43.2065473124" lon="2.5694818050">
        <ele>82.81</ele>
        <time>2017-08-01T10:28:10Z</time>
      </trkpt>
      <trkpt lat="43.2065623160" lon="2.5695383828">
        <ele>82.81</ele>
        <time>2017-08-01T10:28:11Z</time>
      </trkpt>
      <trkpt lat="43.2065815106" lon="2.5695977267">
        <ele>82.81</ele>
        <time>2017-08-01T10:28:12Z</time>
      </trkpt>
      <trkpt lat="43.2067022938" lon="2.5699744094">
        <ele>82.81</ele>
        <time>2017-08-01T10:28:19Z</time>
      </trkpt>
      <trkpt lat="43.2067270204" lon="2.5700357649">
        <ele>82.81</ele>
        <time>2017-08-01T10:28:20Z</time>
      </trkpt>
      <trkpt lat="43.2068617176" lon="2.5704215001">
        <ele>82.81</ele>
        <time>2017-08-01T10:28:26Z</time>
      </trkpt>
      <trkpt lat="43.2068695966" lon="2.5704840291">
        <ele>82.81</ele>
        <time>2017-08-01T10:28:27Z</time>
      </trkpt>
      <trkpt lat="43.2068701833" lon="2.5705436245">
        <ele>82.81</ele>
        <time>2017-08-01T10:28:28Z</time>
      </trkpt>
      <trkpt lat="43.2068718597" lon="2.5706058182">
        <ele>82.81</ele>
        <time>2017-08-01T10:28:29Z</time>
      </trkpt>
      <trkpt lat="43.2068693452" lon="2.5706710294">
        <ele>82.81</ele>
        <time>2017-08-01T10:28:30Z</time>
      </trkpt>
      <trkpt lat="43.2068853546" lon="2.5707495678">
        <ele>82.81</ele>
        <time>2017-08-01T10:28:31Z</time>
      </trkpt>
      <trkpt lat="43.2069059741" lon="2.5708251726">
        <ele>82.81</ele>
        <time>2017-08-01T10:28:32Z</time>
      </trkpt>
      <trkpt lat="43.2069249172" lon="2.5708991010">
        <ele>82.81</ele>
        <time>2017-08-01T10:28:33Z</time>
      </trkpt>
      <trkpt lat="43.2070699241" lon="2.5716137420">
        <ele>82.81</ele>
        <time>2017-08-01T10:28:43Z</time>
      </trkpt>
      <trkpt lat="43.2071052119" lon="2.5718278997">
        <ele>82.81</ele>
        <time>2017-08-01T10:28:46Z</time>
      </trkpt>
      <trkpt lat="43.2072057109" lon="2.5723161455">
        <ele>82.81</ele>
        <time>2017-08-01T10:28:53Z</time>
      </trkpt>
      <trkpt lat="43.2073898613" lon="2.5728848577">
        <ele>82.81</ele>
        <time>2017-08-01T10:29:02Z</time>
      </trkpt>
      <trkpt lat="43.2074326929" lon="2.5730021205">
        <ele>82.81</ele>
        <time>2017-08-01T10:29:04Z</time>
      </trkpt>
      <trkpt lat="43.2074515522" lon="2.5730623864">
        <ele>82.81</ele>
        <time>2017-08-01T10:29:05Z</time>
      </trkpt>
      <trkpt lat="43.2074729260" lon="2.5731191318">
        <ele>82.81</ele>
        <time>2017-08-01T10:29:06Z</time>
      </trkpt>
      <trkpt lat="43.2075122371" lon="2.5732259173">
        <ele>82.81</ele>
        <time>2017-08-01T10:29:08Z</time>
      </trkpt>
      <trkpt lat="43.2075270731" lon="2.5732803997">
        <ele>82.81</ele>
        <time>2017-08-01T10:29:09Z</time>
      </trkpt>
      <trkpt lat="43.2075449266" lon="2.5733340438">
        <ele>82.81</ele>
        <time>2017-08-01T10:29:10Z</time>
      </trkpt>
      <trkpt lat="43.2076075394" lon="2.5734859239">
        <ele>82.81</ele>
        <time>2017-08-01T10:29:13Z</time>
      </trkpt>
      <trkpt lat="43.2076370437" lon="2.5735258218">
        <ele>82.81</ele>
        <time>2017-08-01T10:29:14Z</time>
      </trkpt>
      <trkpt lat="43.2077295799" lon="2.5736316852">
        <ele>82.81</ele>
        <time>2017-08-01T10:29:17Z</time>
      </trkpt>
      <trkpt lat="43.2079808693" lon="2.5739034265">
        <ele>83.29</ele>
        <time>2017-08-01T10:29:24Z</time>
      </trkpt>
      <trkpt lat="43.2080132235" lon="2.5739451684">
        <ele>83.29</ele>
        <time>2017-08-01T10:29:25Z</time>
      </trkpt>
      <trkpt lat="43.2080421411" lon="2.5739900954">
        <ele>83.29</ele>
        <time>2017-08-01T10:29:26Z</time>
      </trkpt>
      <trkpt lat="43.2081909198" lon="2.5742929336">
        <ele>83.29</ele>
        <time>2017-08-01T10:29:32Z</time>
      </trkpt>
      <trkpt lat="43.2082179934" lon="2.5743527804">
        <ele>83.29</ele>
        <time>2017-08-01T10:29:33Z</time>
      </trkpt>
      <trkpt lat="43.2083329093" lon="2.5745922513">
        <ele>83.29</ele>
        <time>2017-08-01T10:29:37Z</time>
      </trkpt>
      <trkpt lat="43.2083614916" lon="2.5746498350">
        <ele>83.29</ele>
        <time>2017-08-01T10:29:38Z</time>
      </trkpt>
      <trkpt lat="43.2085329015" lon="2.5750432815">
        <ele>83.29</ele>
        <time>2017-08-01T10:29:45Z</time>
      </trkpt>
      <trkpt lat="43.2085572090" lon="2.5750980992">
        <ele>83.29</ele>
        <time>2017-08-01T10:29:46Z</time>
      </trkpt>
      <trkpt lat="43.2085736375" lon="2.5751535874">
        <ele>83.29</ele>
        <time>2017-08-01T10:29:47Z</time>
      </trkpt>
      <trkpt lat="43.2085839473" lon="2.5752112549">
        <ele>83.29</ele>
        <time>2017-08-01T10:29:48Z</time>
      </trkpt>
      <trkpt lat="43.2085928321" lon="2.5752694253">
        <ele>83.29</ele>
        <time>2017-08-01T10:29:49Z</time>
      </trkpt>
      <trkpt lat="43.2086049020" lon="2.5753260031">
        <ele>83.29</ele>
        <time>2017-08-01T10:29:50Z</time>
      </trkpt>
      <trkpt lat="43.2086170558" lon="2.5753830839">
        <ele>83.29</ele>
        <time>2017-08-01T10:29:51Z</time>
      </trkpt>
      <trkpt lat="43.2086325623" lon="2.5754424278">
        <ele>83.29</ele>
        <time>2017-08-01T10:29:52Z</time>
      </trkpt>
      <trkpt lat="43.2086523436" lon="2.5754998438">
        <ele>83.29</ele>
        <time>2017-08-01T10:29:53Z</time>
      </trkpt>
      <trkpt lat="43.2086913195" lon="2.5756170228">
        <ele>83.29</ele>
        <time>2017-08-01T10:29:55Z</time>
      </trkpt>
      <trkpt lat="43.2087156270" lon="2.5756798033">
        <ele>83.29</ele>
        <time>2017-08-01T10:29:56Z</time>
      </trkpt>
      <trkpt lat="43.2087780721" lon="2.5758491177">
        <ele>83.29</ele>
        <time>2017-08-01T10:29:59Z</time>
      </trkpt>
      <trkpt lat="43.2088630646" lon="2.5760346930">
        <ele>82.81</ele>
        <time>2017-08-01T10:30:02Z</time>
      </trkpt>
      <trkpt lat="43.2088949159" lon="2.5760943722">
        <ele>83.29</ele>
        <time>2017-08-01T10:30:03Z</time>
      </trkpt>
      <trkpt lat="43.2090205606" lon="2.5763529539">
        <ele>83.29</ele>
        <time>2017-08-01T10:30:07Z</time>
      </trkpt>
      <trkpt lat="43.2090524957" lon="2.5764152315">
        <ele>83.29</ele>
        <time>2017-08-01T10:30:08Z</time>
      </trkpt>
      <trkpt lat="43.2091447804" lon="2.5766106974">
        <ele>83.29</ele>
        <time>2017-08-01T10:30:11Z</time>
      </trkpt>
      <trkpt lat="43.2092288509" lon="2.5767914951">
        <ele>83.29</ele>
        <time>2017-08-01T10:30:14Z</time>
      </trkpt>
      <trkpt lat="43.2092897035" lon="2.5769058242">
        <ele>82.81</ele>
        <time>2017-08-01T10:30:16Z</time>
      </trkpt>
      <trkpt lat="43.2093128376" lon="2.5769701134">
        <ele>82.81</ele>
        <time>2017-08-01T10:30:17Z</time>
      </trkpt>
      <trkpt lat="43.2093412522" lon="2.5770335644">
        <ele>82.81</ele>
        <time>2017-08-01T10:30:18Z</time>
      </trkpt>
      <trkpt lat="43.2093675714" lon="2.5770975184">
        <ele>83.29</ele>
        <time>2017-08-01T10:30:19Z</time>
      </trkpt>
      <trkpt lat="43.2093907893" lon="2.5771621428">
        <ele>83.29</ele>
        <time>2017-08-01T10:30:20Z</time>
      </trkpt>
      <trkpt lat="43.2095782924" lon="2.5777681544">
        <ele>83.29</ele>
        <time>2017-08-01T10:30:29Z</time>
      </trkpt>
      <trkpt lat="43.2095890213" lon="2.5778236426">
        <ele>83.77</ele>
        <time>2017-08-01T10:30:30Z</time>
      </trkpt>
      <trkpt lat="43.2095996663" lon="2.5778717548">
        <ele>83.29</ele>
        <time>2017-08-01T10:30:31Z</time>
      </trkpt>
      <trkpt lat="43.2096065395" lon="2.5779177714">
        <ele>83.29</ele>
        <time>2017-08-01T10:30:32Z</time>
      </trkpt>
      <trkpt lat="43.2096146699" lon="2.5779635366">
        <ele>83.29</ele>
        <time>2017-08-01T10:30:33Z</time>
      </trkpt>
      <trkpt lat="43.2096244767" lon="2.5780082121">
        <ele>83.29</ele>
        <time>2017-08-01T10:30:34Z</time>
      </trkpt>
      <trkpt lat="43.2096235547" lon="2.5780608505">
        <ele>83.29</ele>
        <time>2017-08-01T10:30:35Z</time>
      </trkpt>
      <trkpt lat="43.2096189447" lon="2.5781144947">
        <ele>83.29</ele>
        <time>2017-08-01T10:30:36Z</time>
      </trkpt>
      <trkpt lat="43.2096162625" lon="2.5781618524">
        <ele>83.29</ele>
        <time>2017-08-01T10:30:37Z</time>
      </trkpt>
      <trkpt lat="43.2096106466" lon="2.5782006606">
        <ele>83.29</ele>
        <time>2017-08-01T10:30:38Z</time>
      </trkpt>
      <trkpt lat="43.2096072938" lon="2.5782359485">
        <ele>83.29</ele>
        <time>2017-08-01T10:30:39Z</time>
      </trkpt>
      <trkpt lat="43.2096079644" lon="2.5782715715">
        <ele>83.29</ele>
        <time>2017-08-01T10:30:40Z</time>
      </trkpt>
      <trkpt lat="43.2096077129" lon="2.5783054344">
        <ele>83.29</ele>
        <time>2017-08-01T10:30:41Z</time>
      </trkpt>
      <trkpt lat="43.2096120715" lon="2.5783476792">
        <ele>83.29</ele>
        <time>2017-08-01T10:30:42Z</time>
      </trkpt>
      <trkpt lat="43.2096347027" lon="2.5787321571">
        <ele>83.29</ele>
        <time>2017-08-01T10:30:50Z</time>
      </trkpt>
      <trkpt lat="43.2096693199" lon="2.5792186428">
        <ele>83.29</ele>
        <time>2017-08-01T10:30:59Z</time>
      </trkpt>
      <trkpt lat="43.2097643707" lon="2.5797278434">
        <ele>82.81</ele>
        <time>2017-08-01T10:31:07Z</time>
      </trkpt>
      <trkpt lat="43.2098859083" lon="2.5801260676">
        <ele>83.29</ele>
        <time>2017-08-01T10:31:15Z</time>
      </trkpt>
      <trkpt lat="43.2099841442" lon="2.5804147404">
        <ele>82.81</ele>
        <time>2017-08-01T10:31:21Z</time>
      </trkpt>
      <trkpt lat="43.2100023329" lon="2.5804690551">
        <ele>82.81</ele>
        <time>2017-08-01T10:31:22Z</time>
      </trkpt>
      <trkpt lat="43.2100506127" lon="2.5806315802">
        <ele>82.81</ele>
        <time>2017-08-01T10:31:25Z</time>
      </trkpt>
      <trkpt lat="43.2100673765" lon="2.5806856435">
        <ele>82.81</ele>
        <time>2017-08-01T10:31:26Z</time>
      </trkpt>
      <trkpt lat="43.2100821286" lon="2.5807392038">
        <ele>82.81</ele>
        <time>2017-08-01T10:31:27Z</time>
      </trkpt>
      <trkpt lat="43.2101527881" lon="2.5810536928">
        <ele>83.29</ele>
        <time>2017-08-01T10:31:33Z</time>
      </trkpt>
      <trkpt lat="43.2101690490" lon="2.5811065827">
        <ele>82.81</ele>
        <time>2017-08-01T10:31:34Z</time>
      </trkpt>
      <trkpt lat="43.2101825438" lon="2.5811613165">
        <ele>82.81</ele>
        <time>2017-08-01T10:31:35Z</time>
      </trkpt>
      <trkpt lat="43.2101937756" lon="2.5812197383">
        <ele>83.29</ele>
        <time>2017-08-01T10:31:36Z</time>
      </trkpt>
      <trkpt lat="43.2102066837" lon="2.5812801719">
        <ele>83.29</ele>
        <time>2017-08-01T10:31:37Z</time>
      </trkpt>
      <trkpt lat="43.2102572266" lon="2.5815214869">
        <ele>82.81</ele>
        <time>2017-08-01T10:31:41Z</time>
      </trkpt>
      <trkpt lat="43.2102678716" lon="2.5815806631">
        <ele>82.81</ele>
        <time>2017-08-01T10:31:42Z</time>
      </trkpt>
      <trkpt lat="43.2103732321" lon="2.5820858404">
        <ele>82.81</ele>
        <time>2017-08-01T10:31:51Z</time>
      </trkpt>
      <trkpt lat="43.2103896607" lon="2.5821974035">
        <ele>82.81</ele>
        <time>2017-08-01T10:31:53Z</time>
      </trkpt>
      <trkpt lat="43.2104148902" lon="2.5823091343">
        <ele>82.81</ele>
        <time>2017-08-01T10:31:55Z</time>
      </trkpt>
      <trkpt lat="43.2104277145" lon="2.5823646225">
        <ele>82.81</ele>
        <time>2017-08-01T10:31:56Z</time>
      </trkpt>
      <trkpt lat="43.2104373537" lon="2.5824212003">
        <ele>83.77</ele>
        <time>2017-08-01T10:31:57Z</time>
      </trkpt>
      <trkpt lat="43.2104433049" lon="2.5824762695">
        <ele>82.81</ele>
        <time>2017-08-01T10:31:58Z</time>
      </trkpt>
      <trkpt lat="43.2104504295" lon="2.5825273991">
        <ele>82.81</ele>
        <time>2017-08-01T10:31:59Z</time>
      </trkpt>
      <trkpt lat="43.2104607392" lon="2.5825774390">
        <ele>82.81</ele>
        <time>2017-08-01T10:32:00Z</time>
      </trkpt>
      <trkpt lat="43.2105216756" lon="2.5829917565">
        <ele>82.81</ele>
        <time>2017-08-01T10:32:09Z</time>
      </trkpt>
      <trkpt lat="43.2106035668" lon="2.5834269449">
        <ele>82.81</ele>
        <time>2017-08-01T10:32:19Z</time>
      </trkpt>
      <trkpt lat="43.2106986176" lon="2.5838417653">
        <ele>82.33</ele>
        <time>2017-08-01T10:32:29Z</time>
      </trkpt>
      <trkpt lat="43.2108208258" lon="2.5842479523">
        <ele>82.81</ele>
        <time>2017-08-01T10:32:39Z</time>
      </trkpt>
      <trkpt lat="43.2108445466" lon="2.5842720084">
        <ele>82.81</ele>
        <time>2017-08-01T10:32:40Z</time>
      </trkpt>
      <trkpt lat="43.2108657528" lon="2.5842941366">
        <ele>82.81</ele>
        <time>2017-08-01T10:32:41Z</time>
      </trkpt>
      <trkpt lat="43.2109494880" lon="2.5844414905">
        <ele>82.33</ele>
        <time>2017-08-01T10:32:48Z</time>
      </trkpt>
      <trkpt lat="43.2109547686" lon="2.5844625290">
        <ele>82.33</ele>
        <time>2017-08-01T10:32:53Z</time>
      </trkpt>
      <trkpt lat="43.2110050600" lon="2.5846931152">
        <ele>82.33</ele>
        <time>2017-08-01T10:33:00Z</time>
      </trkpt>
      <trkpt lat="43.2109823450" lon="2.5848195143">
        <ele>82.33</ele>
        <time>2017-08-01T10:33:04Z</time>
      </trkpt>
      <trkpt lat="43.2110503223" lon="2.5851322431">
        <ele>80.89</ele>
        <time>2017-08-01T10:33:12Z</time>
      </trkpt>
      <trkpt lat="43.2110961713" lon="2.5852949359">
        <ele>79.93</ele>
        <time>2017-08-01T10:33:15Z</time>
      </trkpt>
      <trkpt lat="43.2111070678" lon="2.5853492506">
        <ele>79.45</ele>
        <time>2017-08-01T10:33:16Z</time>
      </trkpt>
      <trkpt lat="43.2111783978" lon="2.5856446289">
        <ele>77.52</ele>
        <time>2017-08-01T10:33:21Z</time>
      </trkpt>
      <trkpt lat="43.2112006098" lon="2.5856995303">
        <ele>77.52</ele>
        <time>2017-08-01T10:33:22Z</time>
      </trkpt>
      <trkpt lat="43.2112229895" lon="2.5857520849">
        <ele>76.56</ele>
        <time>2017-08-01T10:33:23Z</time>
      </trkpt>
      <trkpt lat="43.2112610433" lon="2.5858679228">
        <ele>76.56</ele>
        <time>2017-08-01T10:33:25Z</time>
      </trkpt>
      <trkpt lat="43.2112784777" lon="2.5859344751">
        <ele>76.08</ele>
        <time>2017-08-01T10:33:26Z</time>
      </trkpt>
      <trkpt lat="43.2113317866" lon="2.5861462019">
        <ele>75.12</ele>
        <time>2017-08-01T10:33:29Z</time>
      </trkpt>
      <trkpt lat="43.2115254086" lon="2.5867062807">
        <ele>74.16</ele>
        <time>2017-08-01T10:33:37Z</time>
      </trkpt>
      <trkpt lat="43.2115385681" lon="2.5867704861">
        <ele>74.16</ele>
        <time>2017-08-01T10:33:38Z</time>
      </trkpt>
      <trkpt lat="43.2116255723" lon="2.5872417167">
        <ele>73.68</ele>
        <time>2017-08-01T10:33:46Z</time>
      </trkpt>
      <trkpt lat="43.2116808929" lon="2.5876158848">
        <ele>73.68</ele>
        <time>2017-08-01T10:33:53Z</time>
      </trkpt>
      <trkpt lat="43.2117433380" lon="2.5880599581">
        <ele>73.68</ele>
        <time>2017-08-01T10:34:01Z</time>
      </trkpt>
      <trkpt lat="43.2118310966" lon="2.5885932148">
        <ele>73.68</ele>
        <time>2017-08-01T10:34:10Z</time>
      </trkpt>
      <trkpt lat="43.2118741795" lon="2.5887844060">
        <ele>73.20</ele>
        <time>2017-08-01T10:34:13Z</time>
      </trkpt>
      <trkpt lat="43.2118926197" lon="2.5888403133">
        <ele>73.68</ele>
        <time>2017-08-01T10:34:14Z</time>
      </trkpt>
      <trkpt lat="43.2119097188" lon="2.5888973940">
        <ele>73.68</ele>
        <time>2017-08-01T10:34:15Z</time>
      </trkpt>
      <trkpt lat="43.2120997366" lon="2.5895106141">
        <ele>73.20</ele>
        <time>2017-08-01T10:34:24Z</time>
      </trkpt>
      <trkpt lat="43.2121219486" lon="2.5895758253">
        <ele>73.20</ele>
        <time>2017-08-01T10:34:25Z</time>
      </trkpt>
      <trkpt lat="43.2121509500" lon="2.5896380190">
        <ele>73.20</ele>
        <time>2017-08-01T10:34:26Z</time>
      </trkpt>
      <trkpt lat="43.2122364454" lon="2.5898125302">
        <ele>73.20</ele>
        <time>2017-08-01T10:34:29Z</time>
      </trkpt>
      <trkpt lat="43.2122651953" lon="2.5898683537">
        <ele>73.20</ele>
        <time>2017-08-01T10:34:30Z</time>
      </trkpt>
      <trkpt lat="43.2123434823" lon="2.5900471397">
        <ele>73.20</ele>
        <time>2017-08-01T10:34:33Z</time>
      </trkpt>
      <trkpt lat="43.2123664487" lon="2.5901027955">
        <ele>73.20</ele>
        <time>2017-08-01T10:34:34Z</time>
      </trkpt>
      <trkpt lat="43.2124135550" lon="2.5902093295">
        <ele>73.20</ele>
        <time>2017-08-01T10:34:36Z</time>
      </trkpt>
      <trkpt lat="43.2125369366" lon="2.5904727727">
        <ele>73.20</ele>
        <time>2017-08-01T10:34:41Z</time>
      </trkpt>
      <trkpt lat="43.2127032336" lon="2.5908674765">
        <ele>72.72</ele>
        <time>2017-08-01T10:34:48Z</time>
      </trkpt>
      <trkpt lat="43.2127314806" lon="2.5909168459">
        <ele>73.20</ele>
        <time>2017-08-01T10:34:49Z</time>
      </trkpt>
      <trkpt lat="43.2129530143" lon="2.5914216042">
        <ele>73.20</ele>
        <time>2017-08-01T10:35:00Z</time>
      </trkpt>
      <trkpt lat="43.2131453790" lon="2.5918610673">
        <ele>72.72</ele>
        <time>2017-08-01T10:35:09Z</time>
      </trkpt>
      <trkpt lat="43.2132898830" lon="2.5921799149">
        <ele>72.72</ele>
        <time>2017-08-01T10:35:16Z</time>
      </trkpt>
      <trkpt lat="43.2133146096" lon="2.5922284462">
        <ele>72.72</ele>
        <time>2017-08-01T10:35:17Z</time>
      </trkpt>
      <trkpt lat="43.2134535816" lon="2.5924871117">
        <ele>72.72</ele>
        <time>2017-08-01T10:35:23Z</time>
      </trkpt>
      <trkpt lat="43.2134616282" lon="2.5925236568">
        <ele>72.72</ele>
        <time>2017-08-01T10:35:24Z</time>
      </trkpt>
      <trkpt lat="43.2134886179" lon="2.5926388241">
        <ele>72.72</ele>
        <time>2017-08-01T10:35:32Z</time>
      </trkpt>
      <trkpt lat="43.2135070581" lon="2.5926715136">
        <ele>72.72</ele>
        <time>2017-08-01T10:35:34Z</time>
      </trkpt>
      <trkpt lat="43.2135187089" lon="2.5926939771">
        <ele>72.72</ele>
        <time>2017-08-01T10:35:35Z</time>
      </trkpt>
      <trkpt lat="43.2136368100" lon="2.5929233897">
        <ele>72.72</ele>
        <time>2017-08-01T10:35:43Z</time>
      </trkpt>
      <trkpt lat="43.2137597725" lon="2.5931357872">
        <ele>72.24</ele>
        <time>2017-08-01T10:35:49Z</time>
      </trkpt>
      <trkpt lat="43.2137889415" lon="2.5931843184">
        <ele>72.24</ele>
        <time>2017-08-01T10:35:50Z</time>
      </trkpt>
      <trkpt lat="43.2139154244" lon="2.5933742523">
        <ele>72.72</ele>
        <time>2017-08-01T10:35:54Z</time>
      </trkpt>
      <trkpt lat="43.2139453478" lon="2.5934235379">
        <ele>72.72</ele>
        <time>2017-08-01T10:35:55Z</time>
      </trkpt>
      <trkpt lat="43.2141780294" lon="2.5937616639">
        <ele>72.72</ele>
        <time>2017-08-01T10:36:02Z</time>
      </trkpt>
      <trkpt lat="43.2146002259" lon="2.5942764804">
        <ele>72.72</ele>
        <time>2017-08-01T10:36:13Z</time>
      </trkpt>
      <trkpt lat="43.2150624879" lon="2.5948310271">
        <ele>72.72</ele>
        <time>2017-08-01T10:36:24Z</time>
      </trkpt>
      <trkpt lat="43.2155192178" lon="2.5953650381">
        <ele>72.72</ele>
        <time>2017-08-01T10:36:35Z</time>
      </trkpt>
      <trkpt lat="43.2159837428" lon="2.5959022343">
        <ele>73.20</ele>
        <time>2017-08-01T10:36:46Z</time>
      </trkpt>
      <trkpt lat="43.2161949668" lon="2.5961357541">
        <ele>72.72</ele>
        <time>2017-08-01T10:36:51Z</time>
      </trkpt>
      <trkpt lat="43.2162359543" lon="2.5961747300">
        <ele>72.72</ele>
        <time>2017-08-01T10:36:52Z</time>
      </trkpt>
      <trkpt lat="43.2163859066" lon="2.5963325612">
        <ele>72.72</ele>
        <time>2017-08-01T10:36:56Z</time>
      </trkpt>
      <trkpt lat="43.2164631039" lon="2.5964017119">
        <ele>72.72</ele>
        <time>2017-08-01T10:36:58Z</time>
      </trkpt>
      <trkpt lat="43.2165413909" lon="2.5964625645">
        <ele>72.72</ele>
        <time>2017-08-01T10:37:00Z</time>
      </trkpt>
      <trkpt lat="43.2165807858" lon="2.5964851957">
        <ele>72.72</ele>
        <time>2017-08-01T10:37:01Z</time>
      </trkpt>
      <trkpt lat="43.2167424727" lon="2.5965670869">
        <ele>72.72</ele>
        <time>2017-08-01T10:37:05Z</time>
      </trkpt>
      <trkpt lat="43.2167822029" lon="2.5965795759">
        <ele>72.72</ele>
        <time>2017-08-01T10:37:06Z</time>
      </trkpt>
      <trkpt lat="43.2171640825" lon="2.5966932345">
        <ele>72.24</ele>
        <time>2017-08-01T10:37:17Z</time>
      </trkpt>
      <trkpt lat="43.2174673397" lon="2.5967307016">
        <ele>71.76</ele>
        <time>2017-08-01T10:37:27Z</time>
      </trkpt>
      <trkpt lat="43.2176370732" lon="2.5967791490">
        <ele>71.27</ele>
        <time>2017-08-01T10:37:34Z</time>
      </trkpt>
      <trkpt lat="43.2176942378" lon="2.5967469625">
        <ele>71.27</ele>
        <time>2017-08-01T10:37:37Z</time>
      </trkpt>
      <trkpt lat="43.2177130971" lon="2.5967421010">
        <ele>71.27</ele>
        <time>2017-08-01T10:37:38Z</time>
      </trkpt>
      <trkpt lat="43.2177354768" lon="2.5967487227">
        <ele>71.27</ele>
        <time>2017-08-01T10:37:39Z</time>
      </trkpt>
      <trkpt lat="43.2179107424" lon="2.5968048815">
        <ele>69.83</ele>
        <time>2017-08-01T10:37:44Z</time>
      </trkpt>
      <trkpt lat="43.2182808872" lon="2.5968313683">
        <ele>67.91</ele>
        <time>2017-08-01T10:37:51Z</time>
      </trkpt>
      <trkpt lat="43.2183367107" lon="2.5968209747">
        <ele>67.43</ele>
        <time>2017-08-01T10:37:52Z</time>
      </trkpt>
      <trkpt lat="43.2188098691" lon="2.5966690946">
        <ele>66.95</ele>
        <time>2017-08-01T10:38:02Z</time>
      </trkpt>
      <trkpt lat="43.2190026529" lon="2.5966261793">
        <ele>66.95</ele>
        <time>2017-08-01T10:38:07Z</time>
      </trkpt>
      <trkpt lat="43.2190433890" lon="2.5966161210">
        <ele>66.95</ele>
        <time>2017-08-01T10:38:08Z</time>
      </trkpt>
      <trkpt lat="43.2190837059" lon="2.5966073200">
        <ele>66.95</ele>
        <time>2017-08-01T10:38:09Z</time>
      </trkpt>
      <trkpt lat="43.2192055788" lon="2.5966037996">
        <ele>66.95</ele>
        <time>2017-08-01T10:38:12Z</time>
      </trkpt>
      <trkpt lat="43.2193779945" lon="2.5966424402">
        <ele>67.43</ele>
        <time>2017-08-01T10:38:16Z</time>
      </trkpt>
      <trkpt lat="43.2194635738" lon="2.5966658257">
        <ele>66.95</ele>
        <time>2017-08-01T10:38:18Z</time>
      </trkpt>
      <trkpt lat="43.2198067289" lon="2.5969016086">
        <ele>67.43</ele>
        <time>2017-08-01T10:38:27Z</time>
      </trkpt>
      <trkpt lat="43.2201383170" lon="2.5972367171">
        <ele>67.43</ele>
        <time>2017-08-01T10:38:37Z</time>
      </trkpt>
      <trkpt lat="43.2201736886" lon="2.5972691551">
        <ele>67.43</ele>
        <time>2017-08-01T10:38:38Z</time>
      </trkpt>
      <trkpt lat="43.2202103175" lon="2.5973005034">
        <ele>67.43</ele>
        <time>2017-08-01T10:38:39Z</time>
      </trkpt>
      <trkpt lat="43.2203240599" lon="2.5973958895">
        <ele>66.95</ele>
        <time>2017-08-01T10:38:42Z</time>
      </trkpt>
      <trkpt lat="43.2203632873" lon="2.5974232145">
        <ele>66.95</ele>
        <time>2017-08-01T10:38:43Z</time>
      </trkpt>
      <trkpt lat="43.2206601743" lon="2.5976082869">
        <ele>66.95</ele>
        <time>2017-08-01T10:38:50Z</time>
      </trkpt>
      <trkpt lat="43.2210307382" lon="2.5978012383">
        <ele>66.95</ele>
        <time>2017-08-01T10:38:59Z</time>
      </trkpt>
      <trkpt lat="43.2214526832" lon="2.5980124623">
        <ele>66.95</ele>
        <time>2017-08-01T10:39:08Z</time>
      </trkpt>
      <trkpt lat="43.2219774742" lon="2.5982536934">
        <ele>66.95</ele>
        <time>2017-08-01T10:39:19Z</time>
      </trkpt>
      <trkpt lat="43.2221627142" lon="2.5983468164">
        <ele>66.95</ele>
        <time>2017-08-01T10:39:23Z</time>
      </trkpt>
      <trkpt lat="43.2222114131" lon="2.5983723812">
        <ele>66.95</ele>
        <time>2017-08-01T10:39:24Z</time>
      </trkpt>
      <trkpt lat="43.2227906864" lon="2.5985908136">
        <ele>66.95</ele>
        <time>2017-08-01T10:39:36Z</time>
      </trkpt>
      <trkpt lat="43.2228817139" lon="2.5986301247">
        <ele>67.43</ele>
        <time>2017-08-01T10:39:38Z</time>
      </trkpt>
      <trkpt lat="43.2234288007" lon="2.5987716950">
        <ele>67.43</ele>
        <time>2017-08-01T10:39:49Z</time>
      </trkpt>
      <trkpt lat="43.2236784138" lon="2.5988199748">
        <ele>67.43</ele>
        <time>2017-08-01T10:39:54Z</time>
      </trkpt>
      <trkpt lat="43.2238794118" lon="2.5988654885">
        <ele>67.91</ele>
        <time>2017-08-01T10:39:58Z</time>
      </trkpt>
      <trkpt lat="43.2239311282" lon="2.5988757145">
        <ele>67.43</ele>
        <time>2017-08-01T10:39:59Z</time>
      </trkpt>
      <trkpt lat="43.2240324654" lon="2.5988898799">
        <ele>67.43</ele>
        <time>2017-08-01T10:40:01Z</time>
      </trkpt>
      <trkpt lat="43.2240819186" lon="2.5988976751">
        <ele>67.43</ele>
        <time>2017-08-01T10:40:02Z</time>
      </trkpt>
      <trkpt lat="43.2246222999" lon="2.5990189612">
        <ele>67.43</ele>
        <time>2017-08-01T10:40:13Z</time>
      </trkpt>
      <trkpt lat="43.2249488588" lon="2.5991297700">
        <ele>66.95</ele>
        <time>2017-08-01T10:40:20Z</time>
      </trkpt>
      <trkpt lat="43.2250879146" lon="2.5991757866">
        <ele>66.95</ele>
        <time>2017-08-01T10:40:23Z</time>
      </trkpt>
      <trkpt lat="43.2252209354" lon="2.5992448535">
        <ele>66.95</ele>
        <time>2017-08-01T10:40:26Z</time>
      </trkpt>
      <trkpt lat="43.2252608333" lon="2.5992703345">
        <ele>66.95</ele>
        <time>2017-08-01T10:40:27Z</time>
      </trkpt>
      <trkpt lat="43.2254432235" lon="2.5993519742">
        <ele>67.43</ele>
        <time>2017-08-01T10:40:31Z</time>
      </trkpt>
      <trkpt lat="43.2260339800" lon="2.5996243022">
        <ele>67.43</ele>
        <time>2017-08-01T10:40:43Z</time>
      </trkpt>
      <trkpt lat="43.2265338767" lon="2.5998693053">
        <ele>67.43</ele>
        <time>2017-08-01T10:40:54Z</time>
      </trkpt>
      <trkpt lat="43.2269730046" lon="2.6000743266">
        <ele>67.91</ele>
        <time>2017-08-01T10:41:04Z</time>
      </trkpt>
      <trkpt lat="43.2272335980" lon="2.6001837943">
        <ele>67.43</ele>
        <time>2017-08-01T10:41:10Z</time>
      </trkpt>
      <trkpt lat="43.2277122047" lon="2.6003585570">
        <ele>67.43</ele>
        <time>2017-08-01T10:41:21Z</time>
      </trkpt>
      <trkpt lat="43.2279612310" lon="2.6004524343">
        <ele>67.43</ele>
        <time>2017-08-01T10:41:28Z</time>
      </trkpt>
      <trkpt lat="43.2282300387" lon="2.6005635783">
        <ele>67.43</ele>
        <time>2017-08-01T10:41:35Z</time>
      </trkpt>
      <trkpt lat="43.2285959087" lon="2.6007298753">
        <ele>67.43</ele>
        <time>2017-08-01T10:41:44Z</time>
      </trkpt>
      <trkpt lat="43.2290676422" lon="2.6010220684">
        <ele>67.43</ele>
        <time>2017-08-01T10:41:54Z</time>
      </trkpt>
      <trkpt lat="43.2291058637" lon="2.6010496449">
        <ele>67.43</ele>
        <time>2017-08-01T10:41:55Z</time>
      </trkpt>
      <trkpt lat="43.2291370444" lon="2.6010815799">
        <ele>67.43</ele>
        <time>2017-08-01T10:41:56Z</time>
      </trkpt>
      <trkpt lat="43.2291720808" lon="2.6011208072">
        <ele>67.43</ele>
        <time>2017-08-01T10:41:57Z</time>
      </trkpt>
      <trkpt lat="43.2292088773" lon="2.6011618786">
        <ele>67.91</ele>
        <time>2017-08-01T10:41:58Z</time>
      </trkpt>
      <trkpt lat="43.2293735817" lon="2.6013791375">
        <ele>67.43</ele>
        <time>2017-08-01T10:42:03Z</time>
      </trkpt>
      <trkpt lat="43.2294009905" lon="2.6014323626">
        <ele>67.43</ele>
        <time>2017-08-01T10:42:04Z</time>
      </trkpt>
      <trkpt lat="43.2294207718" lon="2.6014880184">
        <ele>67.43</ele>
        <time>2017-08-01T10:42:05Z</time>
      </trkpt>
      <trkpt lat="43.2294641063" lon="2.6016550697">
        <ele>67.43</ele>
        <time>2017-08-01T10:42:08Z</time>
      </trkpt>
      <trkpt lat="43.2294725720" lon="2.6017057803">
        <ele>67.91</ele>
        <time>2017-08-01T10:42:09Z</time>
      </trkpt>
      <trkpt lat="43.2294752542" lon="2.6020575687">
        <ele>67.91</ele>
        <time>2017-08-01T10:42:17Z</time>
      </trkpt>
      <trkpt lat="43.2294743322" lon="2.6024626661">
        <ele>67.91</ele>
        <time>2017-08-01T10:42:24Z</time>
      </trkpt>
      <trkpt lat="43.2294174191" lon="2.6030676719">
        <ele>67.43</ele>
        <time>2017-08-01T10:42:33Z</time>
      </trkpt>
      <trkpt lat="43.2294069417" lon="2.6032817457">
        <ele>67.43</ele>
        <time>2017-08-01T10:42:36Z</time>
      </trkpt>
      <trkpt lat="43.2294113003" lon="2.6033457834">
        <ele>67.43</ele>
        <time>2017-08-01T10:42:37Z</time>
      </trkpt>
      <trkpt lat="43.2294120546" lon="2.6035417523">
        <ele>67.43</ele>
        <time>2017-08-01T10:42:40Z</time>
      </trkpt>
      <trkpt lat="43.2294208556" lon="2.6036076341">
        <ele>67.43</ele>
        <time>2017-08-01T10:42:41Z</time>
      </trkpt>
      <trkpt lat="43.2295126375" lon="2.6041504461">
        <ele>67.43</ele>
        <time>2017-08-01T10:42:50Z</time>
      </trkpt>
      <trkpt lat="43.2295264676" lon="2.6042036712">
        <ele>67.43</ele>
        <time>2017-08-01T10:42:51Z</time>
      </trkpt>
      <trkpt lat="43.2295416389" lon="2.6042531244">
        <ele>67.43</ele>
        <time>2017-08-01T10:42:52Z</time>
      </trkpt>
      <trkpt lat="43.2295583189" lon="2.6042971294">
        <ele>67.43</ele>
        <time>2017-08-01T10:42:53Z</time>
      </trkpt>
      <trkpt lat="43.2295703050" lon="2.6043386199">
        <ele>67.43</ele>
        <time>2017-08-01T10:42:54Z</time>
      </trkpt>
      <trkpt lat="43.2295790222" lon="2.6043730695">
        <ele>67.43</ele>
        <time>2017-08-01T10:42:55Z</time>
      </trkpt>
      <trkpt lat="43.2296684571" lon="2.6046929229">
        <ele>67.43</ele>
        <time>2017-08-01T10:43:02Z</time>
      </trkpt>
      <trkpt lat="43.2297618315" lon="2.6050717011">
        <ele>67.43</ele>
        <time>2017-08-01T10:43:10Z</time>
      </trkpt>
      <trkpt lat="43.2297708001" lon="2.6051193941">
        <ele>67.43</ele>
        <time>2017-08-01T10:43:11Z</time>
      </trkpt>
      <trkpt lat="43.2297631726" lon="2.6051530894">
        <ele>67.43</ele>
        <time>2017-08-01T10:43:12Z</time>
      </trkpt>
      <trkpt lat="43.2297557965" lon="2.6051890478">
        <ele>67.43</ele>
        <time>2017-08-01T10:43:13Z</time>
      </trkpt>
      <trkpt lat="43.2297444809" lon="2.6052215695">
        <ele>67.43</ele>
        <time>2017-08-01T10:43:14Z</time>
      </trkpt>
      <trkpt lat="43.2297246996" lon="2.6052524988">
        <ele>67.43</ele>
        <time>2017-08-01T10:43:15Z</time>
      </trkpt>
      <trkpt lat="43.2297112048" lon="2.6052854396">
        <ele>67.91</ele>
        <time>2017-08-01T10:43:16Z</time>
      </trkpt>
      <trkpt lat="43.2297184970" lon="2.6053345576">
        <ele>67.91</ele>
        <time>2017-08-01T10:43:17Z</time>
      </trkpt>
      <trkpt lat="43.2297219336" lon="2.6053797361">
        <ele>67.91</ele>
        <time>2017-08-01T10:43:18Z</time>
      </trkpt>
      <trkpt lat="43.2297277171" lon="2.6054217294">
        <ele>67.91</ele>
        <time>2017-08-01T10:43:19Z</time>
      </trkpt>
      <trkpt lat="43.2297332492" lon="2.6054605376">
        <ele>67.91</ele>
        <time>2017-08-01T10:43:20Z</time>
      </trkpt>
      <trkpt lat="43.2297421340" lon="2.6054905448">
        <ele>67.91</ele>
        <time>2017-08-01T10:43:21Z</time>
      </trkpt>
      <trkpt lat="43.2297548745" lon="2.6055229828">
        <ele>67.91</ele>
        <time>2017-08-01T10:43:22Z</time>
      </trkpt>
      <trkpt lat="43.2297691237" lon="2.6055673230">
        <ele>66.95</ele>
        <time>2017-08-01T10:43:23Z</time>
      </trkpt>
      <trkpt lat="43.2297781762" lon="2.6056137588">
        <ele>66.47</ele>
        <time>2017-08-01T10:43:24Z</time>
      </trkpt>
      <trkpt lat="43.2297938503" lon="2.6056558359">
        <ele>66.47</ele>
        <time>2017-08-01T10:43:25Z</time>
      </trkpt>
      <trkpt lat="43.2298123743" lon="2.6057073008">
        <ele>66.47</ele>
        <time>2017-08-01T10:43:26Z</time>
      </trkpt>
      <trkpt lat="43.2298291381" lon="2.6057643816">
        <ele>66.47</ele>
        <time>2017-08-01T10:43:27Z</time>
      </trkpt>
      <trkpt lat="43.2298412919" lon="2.6058173552">
        <ele>65.99</ele>
        <time>2017-08-01T10:43:28Z</time>
      </trkpt>
      <trkpt lat="43.2298517693" lon="2.6059064548">
        <ele>65.99</ele>
        <time>2017-08-01T10:43:30Z</time>
      </trkpt>
      <trkpt lat="43.2298428006" lon="2.6059753541">
        <ele>65.99</ele>
        <time>2017-08-01T10:43:38Z</time>
      </trkpt>
      <trkpt lat="43.2298089378" lon="2.6059989911">
        <ele>65.03</ele>
        <time>2017-08-01T10:43:51Z</time>
      </trkpt>
      <trkpt lat="43.2298068423" lon="2.6060025115">
        <ele>65.03</ele>
        <time>2017-08-01T10:44:04Z</time>
      </trkpt>
      <trkpt lat="43.2298050821" lon="2.6060051098">
        <ele>65.03</ele>
        <time>2017-08-01T10:44:16Z</time>
      </trkpt>
      <trkpt lat="43.2298017293" lon="2.6060153358">
        <ele>65.03</ele>
        <time>2017-08-01T10:44:41Z</time>
      </trkpt>
      <trkpt lat="43.2297905814" lon="2.6060273219">
        <ele>65.03</ele>
        <time>2017-08-01T10:45:09Z</time>
      </trkpt>
      <trkpt lat="43.2298009750" lon="2.6060372125">
        <ele>65.03</ele>
        <time>2017-08-01T10:45:36Z</time>
      </trkpt>
      <trkpt lat="43.2298158109" lon="2.6060353685">
        <ele>65.03</ele>
        <time>2017-08-01T10:46:02Z</time>
      </trkpt>
      <trkpt lat="43.2298165653" lon="2.6060406491">
        <ele>65.03</ele>
        <time>2017-08-01T10:46:33Z</time>
      </trkpt>
      <trkpt lat="43.2298139669" lon="2.6060358714">
        <ele>65.03</ele>
        <time>2017-08-01T10:46:48Z</time>
      </trkpt>
      <trkpt lat="43.2298014779" lon="2.6060454268">
        <ele>64.55</ele>
        <time>2017-08-01T10:47:01Z</time>
      </trkpt>
      <trkpt lat="43.2298014779" lon="2.6060456783">
        <ele>64.55</ele>
        <time>2017-08-01T10:47:02Z</time>
      </trkpt>
      <trkpt lat="43.2298163138" lon="2.6061016694">
        <ele>64.55</ele>
        <time>2017-08-01T10:47:05Z</time>
      </trkpt>
      <trkpt lat="43.2298283838" lon="2.6061208639">
        <ele>64.55</ele>
        <time>2017-08-01T10:47:06Z</time>
      </trkpt>
      <trkpt lat="43.2298806868" lon="2.6062154118">
        <ele>65.51</ele>
        <time>2017-08-01T10:47:11Z</time>
      </trkpt>
      <trkpt lat="43.2298816089" lon="2.6062379591">
        <ele>65.51</ele>
        <time>2017-08-01T10:47:12Z</time>
      </trkpt>
      <trkpt lat="43.2298813574" lon="2.6062572375">
        <ele>65.99</ele>
        <time>2017-08-01T10:47:13Z</time>
      </trkpt>
      <trkpt lat="43.2298750710" lon="2.6062807906">
        <ele>65.99</ele>
        <time>2017-08-01T10:47:14Z</time>
      </trkpt>
      <trkpt lat="43.2298654318" lon="2.6063007396">
        <ele>65.99</ele>
        <time>2017-08-01T10:47:15Z</time>
      </trkpt>
      <trkpt lat="43.2298526913" lon="2.6063137315">
        <ele>65.99</ele>
        <time>2017-08-01T10:47:16Z</time>
      </trkpt>
      <trkpt lat="43.2298391964" lon="2.6063144021">
        <ele>65.99</ele>
        <time>2017-08-01T10:47:17Z</time>
      </trkpt>
      <trkpt lat="43.2298239414" lon="2.6063183416">
        <ele>65.99</ele>
        <time>2017-08-01T10:47:18Z</time>
      </trkpt>
      <trkpt lat="43.2298040763" lon="2.6063262206">
        <ele>66.47</ele>
        <time>2017-08-01T10:47:19Z</time>
      </trkpt>
      <trkpt lat="43.2297799364" lon="2.6063327584">
        <ele>65.99</ele>
        <time>2017-08-01T10:47:20Z</time>
      </trkpt>
      <trkpt lat="43.2297573052" lon="2.6063423976">
        <ele>65.99</ele>
        <time>2017-08-01T10:47:21Z</time>
      </trkpt>
      <trkpt lat="43.2297364343" lon="2.6063583232">
        <ele>65.99</ele>
        <time>2017-08-01T10:47:22Z</time>
      </trkpt>
      <trkpt lat="43.2297111209" lon="2.6063705608">
        <ele>65.99</ele>
        <time>2017-08-01T10:47:23Z</time>
      </trkpt>
      <trkpt lat="43.2296874002" lon="2.6063751709">
        <ele>65.99</ele>
        <time>2017-08-01T10:47:24Z</time>
      </trkpt>
      <trkpt lat="43.2296482567" lon="2.6063725725">
        <ele>65.51</ele>
        <time>2017-08-01T10:47:26Z</time>
      </trkpt>
      <trkpt lat="43.2296332531" lon="2.6063569821">
        <ele>65.51</ele>
        <time>2017-08-01T10:47:27Z</time>
      </trkpt>
      <trkpt lat="43.2296249550" lon="2.6063375361">
        <ele>65.99</ele>
        <time>2017-08-01T10:47:28Z</time>
      </trkpt>
      <trkpt lat="43.2296227757" lon="2.6063170843">
        <ele>65.99</ele>
        <time>2017-08-01T10:47:29Z</time>
      </trkpt>
      <trkpt lat="43.2296193391" lon="2.6062947884">
        <ele>65.99</ele>
        <time>2017-08-01T10:47:30Z</time>
      </trkpt>
      <trkpt lat="43.2296111248" lon="2.6062692236">
        <ele>65.99</ele>
        <time>2017-08-01T10:47:31Z</time>
      </trkpt>
      <trkpt lat="43.2295717299" lon="2.6059908606">
        <ele>65.99</ele>
        <time>2017-08-01T10:47:41Z</time>
      </trkpt>
      <trkpt lat="43.2295523677" lon="2.6058688201">
        <ele>65.99</ele>
        <time>2017-08-01T10:47:51Z</time>
      </trkpt>
      <trkpt lat="43.2295544632" lon="2.6058771182">
        <ele>65.99</ele>
        <time>2017-08-01T10:48:00Z</time>
      </trkpt>
      <trkpt lat="43.2296779286" lon="2.6063202694">
        <ele>65.51</ele>
        <time>2017-08-01T10:59:53Z</time>
      </trkpt>
      <trkpt lat="43.2296736538" lon="2.6063089538">
        <ele>65.03</ele>
        <time>2017-08-01T10:59:54Z</time>
      </trkpt>
      <trkpt lat="43.2296257932" lon="2.6063684653">
        <ele>65.03</ele>
        <time>2017-08-01T11:00:11Z</time>
      </trkpt>
      <trkpt lat="43.2296404615" lon="2.6063636877">
        <ele>65.03</ele>
        <time>2017-08-01T11:00:33Z</time>
      </trkpt>
      <trkpt lat="43.2296362706" lon="2.6063538808">
        <ele>65.03</ele>
        <time>2017-08-01T11:00:53Z</time>
      </trkpt>
      <trkpt lat="43.2296373602" lon="2.6063511986">
        <ele>64.55</ele>
        <time>2017-08-01T11:01:14Z</time>
      </trkpt>
      <trkpt lat="43.2296451554" lon="2.6063450798">
        <ele>64.55</ele>
        <time>2017-08-01T11:01:37Z</time>
      </trkpt>
      <trkpt lat="43.2296518609" lon="2.6063470077">
        <ele>64.55</ele>
        <time>2017-08-01T11:01:55Z</time>
      </trkpt>
      <trkpt lat="43.2296517771" lon="2.6063491032">
        <ele>64.55</ele>
        <time>2017-08-01T11:01:56Z</time>
      </trkpt>
      <trkpt lat="43.2296427246" lon="2.6064149011">
        <ele>64.55</ele>
        <time>2017-08-01T11:02:04Z</time>
      </trkpt>
      <trkpt lat="43.2296936866" lon="2.6067047473">
        <ele>62.62</ele>
        <time>2017-08-01T11:02:12Z</time>
      </trkpt>
      <trkpt lat="43.2297305670" lon="2.6068802644">
        <ele>62.62</ele>
        <time>2017-08-01T11:02:15Z</time>
      </trkpt>
      <trkpt lat="43.2297458220" lon="2.6069370937">
        <ele>62.62</ele>
        <time>2017-08-01T11:02:16Z</time>
      </trkpt>
      <trkpt lat="43.2297559641" lon="2.6069961861">
        <ele>62.14</ele>
        <time>2017-08-01T11:02:17Z</time>
      </trkpt>
      <trkpt lat="43.2297652680" lon="2.6070582960">
        <ele>61.66</ele>
        <time>2017-08-01T11:02:18Z</time>
      </trkpt>
      <trkpt lat="43.2297796849" lon="2.6071186457">
        <ele>61.66</ele>
        <time>2017-08-01T11:02:19Z</time>
      </trkpt>
      <trkpt lat="43.2297908328" lon="2.6071766485">
        <ele>61.66</ele>
        <time>2017-08-01T11:02:20Z</time>
      </trkpt>
      <trkpt lat="43.2297959458" lon="2.6072347350">
        <ele>61.66</ele>
        <time>2017-08-01T11:02:21Z</time>
      </trkpt>
      <trkpt lat="43.2297920063" lon="2.6074095815">
        <ele>61.18</ele>
        <time>2017-08-01T11:02:24Z</time>
      </trkpt>
      <trkpt lat="43.2297281362" lon="2.6079674810">
        <ele>61.18</ele>
        <time>2017-08-01T11:02:35Z</time>
      </trkpt>
      <trkpt lat="43.2297682855" lon="2.6083239634">
        <ele>61.18</ele>
        <time>2017-08-01T11:02:45Z</time>
      </trkpt>
      <trkpt lat="43.2300304715" lon="2.6086677052">
        <ele>61.18</ele>
        <time>2017-08-01T11:02:56Z</time>
      </trkpt>
      <trkpt lat="43.2301789150" lon="2.6087289769">
        <ele>60.70</ele>
        <time>2017-08-01T11:03:00Z</time>
      </trkpt>
      <trkpt lat="43.2302195672" lon="2.6087310724">
        <ele>60.70</ele>
        <time>2017-08-01T11:03:01Z</time>
      </trkpt>
      <trkpt lat="43.2302582916" lon="2.6087253727">
        <ele>60.70</ele>
        <time>2017-08-01T11:03:02Z</time>
      </trkpt>
      <trkpt lat="43.2304908894" lon="2.6087067649">
        <ele>60.70</ele>
        <time>2017-08-01T11:03:10Z</time>
      </trkpt>
      <trkpt lat="43.2307255827" lon="2.6088405401">
        <ele>60.70</ele>
        <time>2017-08-01T11:03:19Z</time>
      </trkpt>
      <trkpt lat="43.2310372218" lon="2.6091174781">
        <ele>60.70</ele>
        <time>2017-08-01T11:03:32Z</time>
      </trkpt>
      <trkpt lat="43.2312494516" lon="2.6093340665">
        <ele>60.70</ele>
        <time>2017-08-01T11:03:41Z</time>
      </trkpt>
      <trkpt lat="43.2312679756" lon="2.6093537640">
        <ele>60.70</ele>
        <time>2017-08-01T11:03:42Z</time>
      </trkpt>
      <trkpt lat="43.2312854938" lon="2.6093752217">
        <ele>60.70</ele>
        <time>2017-08-01T11:03:43Z</time>
      </trkpt>
      <trkpt lat="43.2312959712" lon="2.6093939971">
        <ele>60.70</ele>
        <time>2017-08-01T11:03:44Z</time>
      </trkpt>
      <trkpt lat="43.2313018385" lon="2.6093990263">
        <ele>60.70</ele>
        <time>2017-08-01T11:03:54Z</time>
      </trkpt>
      <trkpt lat="43.2313201111" lon="2.6094245072">
        <ele>60.70</ele>
        <time>2017-08-01T11:03:56Z</time>
      </trkpt>
      <trkpt lat="43.2313339412" lon="2.6094352361">
        <ele>60.70</ele>
        <time>2017-08-01T11:03:57Z</time>
      </trkpt>
      <trkpt lat="43.2313465979" lon="2.6094491500">
        <ele>60.70</ele>
        <time>2017-08-01T11:03:58Z</time>
      </trkpt>
      <trkpt lat="43.2313615177" lon="2.6094685122">
        <ele>60.70</ele>
        <time>2017-08-01T11:03:59Z</time>
      </trkpt>
      <trkpt lat="43.2313793711" lon="2.6094878744">
        <ele>60.70</ele>
        <time>2017-08-01T11:04:00Z</time>
      </trkpt>
      <trkpt lat="43.2316251285" lon="2.6097579394">
        <ele>60.70</ele>
        <time>2017-08-01T11:04:11Z</time>
      </trkpt>
      <trkpt lat="43.2318995520" lon="2.6100510545">
        <ele>60.70</ele>
        <time>2017-08-01T11:04:23Z</time>
      </trkpt>
      <trkpt lat="43.2320999634" lon="2.6102767792">
        <ele>60.22</ele>
        <time>2017-08-01T11:04:32Z</time>
      </trkpt>
      <trkpt lat="43.2323968504" lon="2.6106102113">
        <ele>60.22</ele>
        <time>2017-08-01T11:04:45Z</time>
      </trkpt>
      <trkpt lat="43.2326439489" lon="2.6109146420">
        <ele>60.22</ele>
        <time>2017-08-01T11:04:56Z</time>
      </trkpt>
      <trkpt lat="43.2328593638" lon="2.6111930888">
        <ele>60.22</ele>
        <time>2017-08-01T11:05:06Z</time>
      </trkpt>
      <trkpt lat="43.2331270818" lon="2.6115104277">
        <ele>60.22</ele>
        <time>2017-08-01T11:05:17Z</time>
      </trkpt>
      <trkpt lat="43.2333391439" lon="2.6117781457">
        <ele>60.22</ele>
        <time>2017-08-01T11:05:26Z</time>
      </trkpt>
      <trkpt lat="43.2336578239" lon="2.6121952292">
        <ele>60.22</ele>
        <time>2017-08-01T11:05:40Z</time>
      </trkpt>
      <trkpt lat="43.2338589057" lon="2.6124697365">
        <ele>60.22</ele>
        <time>2017-08-01T11:05:49Z</time>
      </trkpt>
      <trkpt lat="43.2340699621" lon="2.6127815433">
        <ele>60.22</ele>
        <time>2017-08-01T11:05:59Z</time>
      </trkpt>
      <trkpt lat="43.2342612371" lon="2.6131716371">
        <ele>60.22</ele>
        <time>2017-08-01T11:06:10Z</time>
      </trkpt>
      <trkpt lat="43.2343241852" lon="2.6134934183">
        <ele>59.74</ele>
        <time>2017-08-01T11:06:19Z</time>
      </trkpt>
      <trkpt lat="43.2342911605" lon="2.6139997691">
        <ele>59.74</ele>
        <time>2017-08-01T11:06:31Z</time>
      </trkpt>
      <trkpt lat="43.2341920864" lon="2.6144135837">
        <ele>59.74</ele>
        <time>2017-08-01T11:06:41Z</time>
      </trkpt>
      <trkpt lat="43.2340276334" lon="2.6148282364">
        <ele>59.74</ele>
        <time>2017-08-01T11:06:51Z</time>
      </trkpt>
      <trkpt lat="43.2339153159" lon="2.6150850579">
        <ele>59.74</ele>
        <time>2017-08-01T11:06:59Z</time>
      </trkpt>
      <trkpt lat="43.2337405533" lon="2.6155105233">
        <ele>59.26</ele>
        <time>2017-08-01T11:07:10Z</time>
      </trkpt>
      <trkpt lat="43.2336154953" lon="2.6157187298">
        <ele>59.74</ele>
        <time>2017-08-01T11:07:19Z</time>
      </trkpt>
      <trkpt lat="43.2335691433" lon="2.6157429535">
        <ele>59.74</ele>
        <time>2017-08-01T11:07:27Z</time>
      </trkpt>
      <trkpt lat="43.2335567381" lon="2.6157560293">
        <ele>59.74</ele>
        <time>2017-08-01T11:07:28Z</time>
      </trkpt>
      <trkpt lat="43.2335458416" lon="2.6157738827">
        <ele>59.26</ele>
        <time>2017-08-01T11:07:29Z</time>
      </trkpt>
      <trkpt lat="43.2334281597" lon="2.6159879565">
        <ele>59.26</ele>
        <time>2017-08-01T11:07:38Z</time>
      </trkpt>
      <trkpt lat="43.2332548220" lon="2.6163244061">
        <ele>59.26</ele>
        <time>2017-08-01T11:07:47Z</time>
      </trkpt>
      <trkpt lat="43.2330862619" lon="2.6166633703">
        <ele>59.74</ele>
        <time>2017-08-01T11:07:57Z</time>
      </trkpt>
      <trkpt lat="43.2329629641" lon="2.6169688068">
        <ele>60.22</ele>
        <time>2017-08-01T11:08:06Z</time>
      </trkpt>
      <trkpt lat="43.2328468747" lon="2.6172896661">
        <ele>59.74</ele>
        <time>2017-08-01T11:08:16Z</time>
      </trkpt>
      <trkpt lat="43.2327553444" lon="2.6175547857">
        <ele>59.74</ele>
        <time>2017-08-01T11:08:24Z</time>
      </trkpt>
      <trkpt lat="43.2326183841" lon="2.6179677621">
        <ele>60.22</ele>
        <time>2017-08-01T11:08:34Z</time>
      </trkpt>
      <trkpt lat="43.2325964235" lon="2.6180095039">
        <ele>60.22</ele>
        <time>2017-08-01T11:08:35Z</time>
      </trkpt>
      <trkpt lat="43.2325812522" lon="2.6180545148">
        <ele>60.22</ele>
        <time>2017-08-01T11:08:36Z</time>
      </trkpt>
      <trkpt lat="43.2323516719" lon="2.6185743604">
        <ele>60.22</ele>
        <time>2017-08-01T11:08:48Z</time>
      </trkpt>
      <trkpt lat="43.2322116103" lon="2.6187688205">
        <ele>60.22</ele>
        <time>2017-08-01T11:08:56Z</time>
      </trkpt>
      <trkpt lat="43.2320364285" lon="2.6190493628">
        <ele>59.74</ele>
        <time>2017-08-01T11:09:04Z</time>
      </trkpt>
      <trkpt lat="43.2317516115" lon="2.6195107028">
        <ele>59.26</ele>
        <time>2017-08-01T11:09:14Z</time>
      </trkpt>
      <trkpt lat="43.2317257952" lon="2.6195524447">
        <ele>58.78</ele>
        <time>2017-08-01T11:09:15Z</time>
      </trkpt>
      <trkpt lat="43.2317005657" lon="2.6195981260">
        <ele>58.78</ele>
        <time>2017-08-01T11:09:16Z</time>
      </trkpt>
      <trkpt lat="43.2315385435" lon="2.6199151296">
        <ele>59.26</ele>
        <time>2017-08-01T11:09:23Z</time>
      </trkpt>
      <trkpt lat="43.2315218635" lon="2.6199700311">
        <ele>59.26</ele>
        <time>2017-08-01T11:09:24Z</time>
      </trkpt>
      <trkpt lat="43.2315091230" lon="2.6200244296">
        <ele>59.26</ele>
        <time>2017-08-01T11:09:25Z</time>
      </trkpt>
      <trkpt lat="43.2314950414" lon="2.6200760622">
        <ele>59.74</ele>
        <time>2017-08-01T11:09:26Z</time>
      </trkpt>
      <trkpt lat="43.2314806245" lon="2.6201287843">
        <ele>59.74</ele>
        <time>2017-08-01T11:09:27Z</time>
      </trkpt>
      <trkpt lat="43.2314705662" lon="2.6201768965">
        <ele>59.74</ele>
        <time>2017-08-01T11:09:28Z</time>
      </trkpt>
      <trkpt lat="43.2313892618" lon="2.6205493044">
        <ele>60.22</ele>
        <time>2017-08-01T11:09:36Z</time>
      </trkpt>
      <trkpt lat="43.2313191891" lon="2.6210135780">
        <ele>60.22</ele>
        <time>2017-08-01T11:09:46Z</time>
      </trkpt>
      <trkpt lat="43.2313175127" lon="2.6215242036">
        <ele>60.22</ele>
        <time>2017-08-01T11:09:59Z</time>
      </trkpt>
      <trkpt lat="43.2313104719" lon="2.6218133792">
        <ele>60.70</ele>
        <time>2017-08-01T11:10:06Z</time>
      </trkpt>
      <trkpt lat="43.2312929537" lon="2.6221158821">
        <ele>61.18</ele>
        <time>2017-08-01T11:10:14Z</time>
      </trkpt>
      <trkpt lat="43.2313013356" lon="2.6224155352">
        <ele>60.70</ele>
        <time>2017-08-01T11:10:22Z</time>
      </trkpt>
      <trkpt lat="43.2312756032" lon="2.6224552654">
        <ele>60.70</ele>
        <time>2017-08-01T11:10:23Z</time>
      </trkpt>
      <trkpt lat="43.2312424947" lon="2.6224802434">
        <ele>60.22</ele>
        <time>2017-08-01T11:10:24Z</time>
      </trkpt>
      <trkpt lat="43.2311256509" lon="2.6225332171">
        <ele>59.74</ele>
        <time>2017-08-01T11:10:27Z</time>
      </trkpt>
      <trkpt lat="43.2309637126" lon="2.6225752104">
        <ele>59.26</ele>
        <time>2017-08-01T11:10:31Z</time>
      </trkpt>
      <trkpt lat="43.2308740262" lon="2.6225825865">
        <ele>58.78</ele>
        <time>2017-08-01T11:10:33Z</time>
      </trkpt>
      <trkpt lat="43.2307798974" lon="2.6226041280">
        <ele>58.78</ele>
        <time>2017-08-01T11:10:35Z</time>
      </trkpt>
      <trkpt lat="43.2307332102" lon="2.6226114202">
        <ele>58.78</ele>
        <time>2017-08-01T11:10:36Z</time>
      </trkpt>
      <trkpt lat="43.2306826673" lon="2.6226172876">
        <ele>58.78</ele>
        <time>2017-08-01T11:10:37Z</time>
      </trkpt>
      <trkpt lat="43.2303183060" lon="2.6226373203">
        <ele>57.82</ele>
        <time>2017-08-01T11:10:44Z</time>
      </trkpt>
      <trkpt lat="43.2302696910" lon="2.6226385776">
        <ele>57.82</ele>
        <time>2017-08-01T11:10:45Z</time>
      </trkpt>
      <trkpt lat="43.2301761489" lon="2.6226500608">
        <ele>57.82</ele>
        <time>2017-08-01T11:10:47Z</time>
      </trkpt>
      <trkpt lat="43.2299994584" lon="2.6226885337">
        <ele>57.82</ele>
        <time>2017-08-01T11:10:51Z</time>
      </trkpt>
      <trkpt lat="43.2299562916" lon="2.6226890367">
        <ele>57.82</ele>
        <time>2017-08-01T11:10:52Z</time>
      </trkpt>
      <trkpt lat="43.2297494262" lon="2.6226707641">
        <ele>57.34</ele>
        <time>2017-08-01T11:10:57Z</time>
      </trkpt>
      <trkpt lat="43.2297069300" lon="2.6226695068">
        <ele>57.82</ele>
        <time>2017-08-01T11:10:58Z</time>
      </trkpt>
      <trkpt lat="43.2292009145" lon="2.6225895435">
        <ele>57.34</ele>
        <time>2017-08-01T11:11:11Z</time>
      </trkpt>
      <trkpt lat="43.2289058715" lon="2.6225348096">
        <ele>56.86</ele>
        <time>2017-08-01T11:11:19Z</time>
      </trkpt>
      <trkpt lat="43.2284614630" lon="2.6224566065">
        <ele>56.86</ele>
        <time>2017-08-01T11:11:31Z</time>
      </trkpt>
      <trkpt lat="43.2280100975" lon="2.6224526670">
        <ele>56.86</ele>
        <time>2017-08-01T11:11:43Z</time>
      </trkpt>
      <trkpt lat="43.2277785894" lon="2.6224571932">
        <ele>56.37</ele>
        <time>2017-08-01T11:11:49Z</time>
      </trkpt>
      <trkpt lat="43.2271952089" lon="2.6224457938">
        <ele>56.37</ele>
        <time>2017-08-01T11:12:03Z</time>
      </trkpt>
      <trkpt lat="43.2270269841" lon="2.6224452071">
        <ele>56.37</ele>
        <time>2017-08-01T11:12:07Z</time>
      </trkpt>
      <trkpt lat="43.2268093061" lon="2.6224428602">
        <ele>56.37</ele>
        <time>2017-08-01T11:12:12Z</time>
      </trkpt>
      <trkpt lat="43.2263237424" lon="2.6224438660">
        <ele>56.37</ele>
        <time>2017-08-01T11:12:23Z</time>
      </trkpt>
      <trkpt lat="43.2258247677" lon="2.6224577799">
        <ele>55.89</ele>
        <time>2017-08-01T11:12:34Z</time>
      </trkpt>
      <trkpt lat="43.2256605662" lon="2.6224662457">
        <ele>55.89</ele>
        <time>2017-08-01T11:12:38Z</time>
      </trkpt>
      <trkpt lat="43.2256184053" lon="2.6224694308">
        <ele>55.89</ele>
        <time>2017-08-01T11:12:39Z</time>
      </trkpt>
      <trkpt lat="43.2251949515" lon="2.6225156989">
        <ele>55.89</ele>
        <time>2017-08-01T11:12:50Z</time>
      </trkpt>
      <trkpt lat="43.2249746751" lon="2.6225553453">
        <ele>56.37</ele>
        <time>2017-08-01T11:12:58Z</time>
      </trkpt>
      <trkpt lat="43.2246768661" lon="2.6225987636">
        <ele>55.41</ele>
        <time>2017-08-01T11:13:08Z</time>
      </trkpt>
      <trkpt lat="43.2244732697" lon="2.6228026114">
        <ele>55.41</ele>
        <time>2017-08-01T11:13:16Z</time>
      </trkpt>
      <trkpt lat="43.2243122533" lon="2.6231686492">
        <ele>56.37</ele>
        <time>2017-08-01T11:13:27Z</time>
      </trkpt>
      <trkpt lat="43.2243100740" lon="2.6232336927">
        <ele>56.37</ele>
        <time>2017-08-01T11:13:30Z</time>
      </trkpt>
      <trkpt lat="43.2243166119" lon="2.6232567430">
        <ele>56.37</ele>
        <time>2017-08-01T11:13:31Z</time>
      </trkpt>
      <trkpt lat="43.2243248262" lon="2.6232823916">
        <ele>56.37</ele>
        <time>2017-08-01T11:13:32Z</time>
      </trkpt>
      <trkpt lat="43.2243375666" lon="2.6233051065">
        <ele>56.37</ele>
        <time>2017-08-01T11:13:33Z</time>
      </trkpt>
      <trkpt lat="43.2243508101" lon="2.6233292464">
        <ele>56.86</ele>
        <time>2017-08-01T11:13:34Z</time>
      </trkpt>
      <trkpt lat="43.2243643049" lon="2.6233530510">
        <ele>56.86</ele>
        <time>2017-08-01T11:13:35Z</time>
      </trkpt>
      <trkpt lat="43.2243746147" lon="2.6233745925">
        <ele>57.34</ele>
        <time>2017-08-01T11:13:36Z</time>
      </trkpt>
      <trkpt lat="43.2243824936" lon="2.6233937033">
        <ele>57.34</ele>
        <time>2017-08-01T11:13:37Z</time>
      </trkpt>
      <trkpt lat="43.2243980840" lon="2.6234045997">
        <ele>57.34</ele>
        <time>2017-08-01T11:13:38Z</time>
      </trkpt>
      <trkpt lat="43.2244120818" lon="2.6234170049">
        <ele>57.34</ele>
        <time>2017-08-01T11:13:39Z</time>
      </trkpt>
      <trkpt lat="43.2244213857" lon="2.6234353613">
        <ele>57.34</ele>
        <time>2017-08-01T11:13:40Z</time>
      </trkpt>
      <trkpt lat="43.2244239002" lon="2.6234610938">
        <ele>57.82</ele>
        <time>2017-08-01T11:13:41Z</time>
      </trkpt>
      <trkpt lat="43.2244228944" lon="2.6234900951">
        <ele>57.82</ele>
        <time>2017-08-01T11:13:42Z</time>
      </trkpt>
      <trkpt lat="43.2244246546" lon="2.6235167496">
        <ele>58.30</ele>
        <time>2017-08-01T11:13:43Z</time>
      </trkpt>
      <trkpt lat="43.2244305220" lon="2.6235438231">
        <ele>58.30</ele>
        <time>2017-08-01T11:13:44Z</time>
      </trkpt>
      <trkpt lat="43.2244333718" lon="2.6235709805">
        <ele>58.30</ele>
        <time>2017-08-01T11:13:45Z</time>
      </trkpt>
      <trkpt lat="43.2243503071" lon="2.6236895844">
        <ele>59.26</ele>
        <time>2017-08-01T11:13:54Z</time>
      </trkpt>
      <trkpt lat="43.2243187074" lon="2.6236631814">
        <ele>59.26</ele>
        <time>2017-08-01T11:13:57Z</time>
      </trkpt>
      <trkpt lat="43.2243035361" lon="2.6236623432">
        <ele>59.74</ele>
        <time>2017-08-01T11:13:58Z</time>
      </trkpt>
      <trkpt lat="43.2242266741" lon="2.6236524526">
        <ele>60.22</ele>
        <time>2017-08-01T11:14:02Z</time>
      </trkpt>
      <trkpt lat="43.2240596227" lon="2.6236975472">
        <ele>62.14</ele>
        <time>2017-08-01T11:14:11Z</time>
      </trkpt>
      <trkpt lat="43.2239596266" lon="2.6238156483">
        <ele>63.58</ele>
        <time>2017-08-01T11:14:20Z</time>
      </trkpt>
      <trkpt lat="43.2239199802" lon="2.6239662711">
        <ele>64.55</ele>
        <time>2017-08-01T11:14:27Z</time>
      </trkpt>
      <trkpt lat="43.2239218242" lon="2.6239896566">
        <ele>64.55</ele>
        <time>2017-08-01T11:14:28Z</time>
      </trkpt>
      <trkpt lat="43.2239121851" lon="2.6240091026">
        <ele>64.55</ele>
        <time>2017-08-01T11:14:29Z</time>
      </trkpt>
      <trkpt lat="43.2239048928" lon="2.6240287162">
        <ele>65.03</ele>
        <time>2017-08-01T11:14:30Z</time>
      </trkpt>
      <trkpt lat="43.2239000313" lon="2.6240514312">
        <ele>65.03</ele>
        <time>2017-08-01T11:14:31Z</time>
      </trkpt>
      <trkpt lat="43.2238949183" lon="2.6240752358">
        <ele>65.03</ele>
        <time>2017-08-01T11:14:32Z</time>
      </trkpt>
      <trkpt lat="43.2238943316" lon="2.6241026446">
        <ele>65.03</ele>
        <time>2017-08-01T11:14:33Z</time>
      </trkpt>
      <trkpt lat="43.2239027135" lon="2.6241313107">
        <ele>65.03</ele>
        <time>2017-08-01T11:14:34Z</time>
      </trkpt>
      <trkpt lat="43.2239152864" lon="2.6241609827">
        <ele>65.03</ele>
        <time>2017-08-01T11:14:35Z</time>
      </trkpt>
      <trkpt lat="43.2239332236" lon="2.6242051553">
        <ele>65.03</ele>
        <time>2017-08-01T11:14:37Z</time>
      </trkpt>
      <trkpt lat="43.2239367440" lon="2.6242287923">
        <ele>65.51</ele>
        <time>2017-08-01T11:14:38Z</time>
      </trkpt>
      <trkpt lat="43.2240717765" lon="2.6244261023">
        <ele>66.47</ele>
        <time>2017-08-01T11:14:50Z</time>
      </trkpt>
      <trkpt lat="43.2242115028" lon="2.6245030481">
        <ele>66.95</ele>
        <time>2017-08-01T11:14:58Z</time>
      </trkpt>
      <trkpt lat="43.2243437693" lon="2.6245741267">
        <ele>67.43</ele>
        <time>2017-08-01T11:15:10Z</time>
      </trkpt>
      <trkpt lat="43.2243647240" lon="2.6245478913">
        <ele>67.43</ele>
        <time>2017-08-01T11:15:28Z</time>
      </trkpt>
      <trkpt lat="43.2243683282" lon="2.6245493162">
        <ele>67.43</ele>
        <time>2017-08-01T11:15:47Z</time>
      </trkpt>
      <trkpt lat="43.2243895344" lon="2.6245963387">
        <ele>66.95</ele>
        <time>2017-08-01T11:15:58Z</time>
      </trkpt>
      <trkpt lat="43.2244132552" lon="2.6246158686">
        <ele>66.95</ele>
        <time>2017-08-01T11:15:59Z</time>
      </trkpt>
      <trkpt lat="43.2244431786" lon="2.6246119291">
        <ele>66.47</ele>
        <time>2017-08-01T11:16:00Z</time>
      </trkpt>
      <trkpt lat="43.2244669832" lon="2.6246198080">
        <ele>66.47</ele>
        <time>2017-08-01T11:16:01Z</time>
      </trkpt>
      <trkpt lat="43.2244891115" lon="2.6246286929">
        <ele>65.99</ele>
        <time>2017-08-01T11:16:02Z</time>
      </trkpt>
      <trkpt lat="43.2245179452" lon="2.6246243343">
        <ele>65.51</ele>
        <time>2017-08-01T11:16:03Z</time>
      </trkpt>
      <trkpt lat="43.2245480362" lon="2.6246207301">
        <ele>65.51</ele>
        <time>2017-08-01T11:16:04Z</time>
      </trkpt>
      <trkpt lat="43.2245824020" lon="2.6246131025">
        <ele>65.51</ele>
        <time>2017-08-01T11:16:05Z</time>
      </trkpt>
      <trkpt lat="43.2246880140" lon="2.6246188860">
        <ele>64.07</ele>
        <time>2017-08-01T11:16:08Z</time>
      </trkpt>
      <trkpt lat="43.2248226274" lon="2.6246851031">
        <ele>62.62</ele>
        <time>2017-08-01T11:16:14Z</time>
      </trkpt>
      <trkpt lat="43.2248352002" lon="2.6246959995">
        <ele>62.62</ele>
        <time>2017-08-01T11:16:15Z</time>
      </trkpt>
      <trkpt lat="43.2249023393" lon="2.6247077342">
        <ele>62.62</ele>
        <time>2017-08-01T11:16:19Z</time>
      </trkpt>
      <trkpt lat="43.2249247190" lon="2.6247105841">
        <ele>62.62</ele>
        <time>2017-08-01T11:16:20Z</time>
      </trkpt>
      <trkpt lat="43.2249520440" lon="2.6246716082">
        <ele>62.62</ele>
        <time>2017-08-01T11:16:23Z</time>
      </trkpt>
      <trkpt lat="43.2249556482" lon="2.6246540900">
        <ele>62.62</ele>
        <time>2017-08-01T11:16:24Z</time>
      </trkpt>
      <trkpt lat="43.2249558996" lon="2.6246383321">
        <ele>62.62</ele>
        <time>2017-08-01T11:16:33Z</time>
      </trkpt>
      <trkpt lat="43.2249558158" lon="2.6246369071">
        <ele>62.62</ele>
        <time>2017-08-01T11:16:35Z</time>
      </trkpt>
      <trkpt lat="43.2249377947" lon="2.6246221550">
        <ele>62.62</ele>
        <time>2017-08-01T11:16:37Z</time>
      </trkpt>
      <trkpt lat="43.2249242160" lon="2.6246282738">
        <ele>63.10</ele>
        <time>2017-08-01T11:16:38Z</time>
      </trkpt>
      <trkpt lat="43.2249128167" lon="2.6246421039">
        <ele>63.10</ele>
        <time>2017-08-01T11:16:39Z</time>
      </trkpt>
      <trkpt lat="43.2249050215" lon="2.6246570237">
        <ele>62.62</ele>
        <time>2017-08-01T11:16:40Z</time>
      </trkpt>
      <trkpt lat="43.2248965558" lon="2.6246720273">
        <ele>63.10</ele>
        <time>2017-08-01T11:16:41Z</time>
      </trkpt>
      <trkpt lat="43.2248877548" lon="2.6246851031">
        <ele>62.62</ele>
        <time>2017-08-01T11:16:42Z</time>
      </trkpt>
      <trkpt lat="43.2248778641" lon="2.6246944908">
        <ele>62.62</ele>
        <time>2017-08-01T11:16:43Z</time>
      </trkpt>
      <trkpt lat="43.2247188594" lon="2.6248345524">
        <ele>62.14</ele>
        <time>2017-08-01T11:16:52Z</time>
      </trkpt>
      <trkpt lat="43.2244558353" lon="2.6250505541">
        <ele>60.70</ele>
        <time>2017-08-01T11:17:03Z</time>
      </trkpt>
      <trkpt lat="43.2241892908" lon="2.6251072157">
        <ele>60.22</ele>
        <time>2017-08-01T11:17:12Z</time>
      </trkpt>
      <trkpt lat="43.2239974290" lon="2.6250070520">
        <ele>60.22</ele>
        <time>2017-08-01T11:17:20Z</time>
      </trkpt>
      <trkpt lat="43.2238303777" lon="2.6248146035">
        <ele>60.70</ele>
        <time>2017-08-01T11:17:31Z</time>
      </trkpt>
      <trkpt lat="43.2236919086" lon="2.6245774794">
        <ele>60.70</ele>
        <time>2017-08-01T11:17:41Z</time>
      </trkpt>
      <trkpt lat="43.2236710377" lon="2.6245678402">
        <ele>60.70</ele>
        <time>2017-08-01T11:17:44Z</time>
      </trkpt>
      <trkpt lat="43.2236575428" lon="2.6245798264">
        <ele>60.70</ele>
        <time>2017-08-01T11:17:45Z</time>
      </trkpt>
      <trkpt lat="43.2233929262" lon="2.6247690059">
        <ele>60.22</ele>
        <time>2017-08-01T11:17:56Z</time>
      </trkpt>
      <trkpt lat="43.2231633458" lon="2.6249347162">
        <ele>60.22</ele>
        <time>2017-08-01T11:18:07Z</time>
      </trkpt>
      <trkpt lat="43.2231005654" lon="2.6249391586">
        <ele>59.74</ele>
        <time>2017-08-01T11:18:11Z</time>
      </trkpt>
      <trkpt lat="43.2230848074" lon="2.6249324530">
        <ele>59.74</ele>
        <time>2017-08-01T11:18:12Z</time>
      </trkpt>
      <trkpt lat="43.2230737433" lon="2.6249218918">
        <ele>59.74</ele>
        <time>2017-08-01T11:18:13Z</time>
      </trkpt>
      <trkpt lat="43.2230622601" lon="2.6249149349">
        <ele>59.74</ele>
        <time>2017-08-01T11:18:14Z</time>
      </trkpt>
      <trkpt lat="43.2230476756" lon="2.6249113306">
        <ele>59.74</ele>
        <time>2017-08-01T11:18:15Z</time>
      </trkpt>
      <trkpt lat="43.2230325043" lon="2.6249078941">
        <ele>59.26</ele>
        <time>2017-08-01T11:18:16Z</time>
      </trkpt>
      <trkpt lat="43.2229731604" lon="2.6249042898">
        <ele>59.26</ele>
        <time>2017-08-01T11:18:24Z</time>
      </trkpt>
      <trkpt lat="43.2228366192" lon="2.6248529088">
        <ele>59.74</ele>
        <time>2017-08-01T11:18:30Z</time>
      </trkpt>
      <trkpt lat="43.2228336018" lon="2.6248148549">
        <ele>59.74</ele>
        <time>2017-08-01T11:18:31Z</time>
      </trkpt>
      <trkpt lat="43.2228338532" lon="2.6247788128">
        <ele>59.74</ele>
        <time>2017-08-01T11:18:32Z</time>
      </trkpt>
      <trkpt lat="43.2228367031" lon="2.6247441955">
        <ele>59.74</ele>
        <time>2017-08-01T11:18:33Z</time>
      </trkpt>
      <trkpt lat="43.2228450850" lon="2.6247124281">
        <ele>59.26</ele>
        <time>2017-08-01T11:18:34Z</time>
      </trkpt>
      <trkpt lat="43.2228595018" lon="2.6246803254">
        <ele>59.26</ele>
        <time>2017-08-01T11:18:35Z</time>
      </trkpt>
      <trkpt lat="43.2228754275" lon="2.6246488094">
        <ele>59.74</ele>
        <time>2017-08-01T11:18:36Z</time>
      </trkpt>
      <trkpt lat="43.2229773514" lon="2.6244603004">
        <ele>59.74</ele>
        <time>2017-08-01T11:18:45Z</time>
      </trkpt>
      <trkpt lat="43.2229847275" lon="2.6244527567">
        <ele>60.22</ele>
        <time>2017-08-01T11:19:03Z</time>
      </trkpt>
      <trkpt lat="43.2229697239" lon="2.6244275272">
        <ele>60.22</ele>
        <time>2017-08-01T11:19:27Z</time>
      </trkpt>
      <trkpt lat="43.2229463384" lon="2.6244050637">
        <ele>60.70</ele>
        <time>2017-08-01T11:19:51Z</time>
      </trkpt>
      <trkpt lat="43.2229421474" lon="2.6244145352">
        <ele>60.22</ele>
        <time>2017-08-01T11:20:04Z</time>
      </trkpt>
      <trkpt lat="43.2229054347" lon="2.6244495716">
        <ele>60.22</ele>
        <time>2017-08-01T11:20:13Z</time>
      </trkpt>
      <trkpt lat="43.2229025848" lon="2.6244889665">
        <ele>60.70</ele>
        <time>2017-08-01T11:20:24Z</time>
      </trkpt>
      <trkpt lat="43.2229056861" lon="2.6245216560">
        <ele>58.78</ele>
        <time>2017-08-01T11:20:27Z</time>
      </trkpt>
      <trkpt lat="43.2229840569" lon="2.6248477958">
        <ele>57.82</ele>
        <time>2017-08-01T11:52:19Z</time>
      </trkpt>
      <trkpt lat="43.2230555546" lon="2.6247985102">
        <ele>58.30</ele>
        <time>2017-08-01T11:52:28Z</time>
      </trkpt>
      <trkpt lat="43.2230320014" lon="2.6249046251">
        <ele>59.26</ele>
        <time>2017-08-01T11:52:38Z</time>
      </trkpt>
      <trkpt lat="43.2230187580" lon="2.6249223948">
        <ele>59.74</ele>
        <time>2017-08-01T11:52:45Z</time>
      </trkpt>
      <trkpt lat="43.2230480108" lon="2.6249938086">
        <ele>59.26</ele>
        <time>2017-08-01T11:52:51Z</time>
      </trkpt>
      <trkpt lat="43.2230682112" lon="2.6249938086">
        <ele>59.26</ele>
        <time>2017-08-01T11:52:53Z</time>
      </trkpt>
      <trkpt lat="43.2231723145" lon="2.6251588482">
        <ele>59.74</ele>
        <time>2017-08-01T11:53:01Z</time>
      </trkpt>
      <trkpt lat="43.2231982984" lon="2.6252666395">
        <ele>58.30</ele>
        <time>2017-08-01T11:53:04Z</time>
      </trkpt>
      <trkpt lat="43.2233278826" lon="2.6258014049">
        <ele>58.78</ele>
        <time>2017-08-01T11:53:17Z</time>
      </trkpt>
      <trkpt lat="43.2233680319" lon="2.6258807816">
        <ele>58.30</ele>
        <time>2017-08-01T11:53:26Z</time>
      </trkpt>
      <trkpt lat="43.2233750727" lon="2.6258819550">
        <ele>58.30</ele>
        <time>2017-08-01T11:53:30Z</time>
      </trkpt>
      <trkpt lat="43.2233676966" lon="2.6257542986">
        <ele>59.26</ele>
        <time>2017-08-01T11:53:35Z</time>
      </trkpt>
      <trkpt lat="43.2232640963" lon="2.6253046934">
        <ele>58.78</ele>
        <time>2017-08-01T11:53:48Z</time>
      </trkpt>
      <trkpt lat="43.2231957000" lon="2.6249545813">
        <ele>59.26</ele>
        <time>2017-08-01T11:53:58Z</time>
      </trkpt>
      <trkpt lat="43.2232917566" lon="2.6248779707">
        <ele>59.74</ele>
        <time>2017-08-01T11:54:03Z</time>
      </trkpt>
      <trkpt lat="43.2235506736" lon="2.6247035433">
        <ele>60.22</ele>
        <time>2017-08-01T11:54:14Z</time>
      </trkpt>
      <trkpt lat="43.2236411981" lon="2.6246338896">
        <ele>59.74</ele>
        <time>2017-08-01T11:54:18Z</time>
      </trkpt>
      <trkpt lat="43.2237047330" lon="2.6246644836">
        <ele>60.70</ele>
        <time>2017-08-01T11:54:22Z</time>
      </trkpt>
      <trkpt lat="43.2238918170" lon="2.6249339618">
        <ele>60.22</ele>
        <time>2017-08-01T11:54:33Z</time>
      </trkpt>
      <trkpt lat="43.2241791487" lon="2.6251195371">
        <ele>60.22</ele>
        <time>2017-08-01T11:54:43Z</time>
      </trkpt>
      <trkpt lat="43.2245269138" lon="2.6250671502">
        <ele>60.22</ele>
        <time>2017-08-01T11:54:54Z</time>
      </trkpt>
      <trkpt lat="43.2247212902" lon="2.6248848438">
        <ele>61.18</ele>
        <time>2017-08-01T11:55:03Z</time>
      </trkpt>
      <trkpt lat="43.2247529738" lon="2.6248416770">
        <ele>61.66</ele>
        <time>2017-08-01T11:55:05Z</time>
      </trkpt>
      <trkpt lat="43.2247239724" lon="2.6247778069">
        <ele>61.66</ele>
        <time>2017-08-01T11:55:09Z</time>
      </trkpt>
      <trkpt lat="43.2245024387" lon="2.6247891225">
        <ele>63.10</ele>
        <time>2017-08-01T11:55:20Z</time>
      </trkpt>
      <trkpt lat="43.2241865247" lon="2.6248030365">
        <ele>62.62</ele>
        <time>2017-08-01T11:55:32Z</time>
      </trkpt>
      <trkpt lat="43.2239362411" lon="2.6247023698">
        <ele>60.70</ele>
        <time>2017-08-01T11:55:41Z</time>
      </trkpt>
      <trkpt lat="43.2238613069" lon="2.6244837698">
        <ele>62.62</ele>
        <time>2017-08-01T11:55:51Z</time>
      </trkpt>
      <trkpt lat="43.2238494046" lon="2.6244244259">
        <ele>62.62</ele>
        <time>2017-08-01T11:55:57Z</time>
      </trkpt>
      <trkpt lat="43.2238526735" lon="2.6243992802">
        <ele>63.10</ele>
        <time>2017-08-01T11:55:59Z</time>
      </trkpt>
      <trkpt lat="43.2238748018" lon="2.6241834462">
        <ele>64.07</ele>
        <time>2017-08-01T11:56:10Z</time>
      </trkpt>
      <trkpt lat="43.2238630671" lon="2.6241448894">
        <ele>64.55</ele>
        <time>2017-08-01T11:56:12Z</time>
      </trkpt>
      <trkpt lat="43.2238758076" lon="2.6240579691">
        <ele>65.99</ele>
        <time>2017-08-01T11:56:16Z</time>
      </trkpt>
      <trkpt lat="43.2239631470" lon="2.6237808634">
        <ele>63.58</ele>
        <time>2017-08-01T11:56:26Z</time>
      </trkpt>
      <trkpt lat="43.2241444476" lon="2.6236873213">
        <ele>62.14</ele>
        <time>2017-08-01T11:56:32Z</time>
      </trkpt>
      <trkpt lat="43.2243974134" lon="2.6235906780">
        <ele>59.26</ele>
        <time>2017-08-01T11:56:39Z</time>
      </trkpt>
      <trkpt lat="43.2244129200" lon="2.6235434879">
        <ele>58.78</ele>
        <time>2017-08-01T11:56:40Z</time>
      </trkpt>
      <trkpt lat="43.2244145125" lon="2.6234889217">
        <ele>58.30</ele>
        <time>2017-08-01T11:56:41Z</time>
      </trkpt>
      <trkpt lat="43.2244097348" lon="2.6234377921">
        <ele>58.30</ele>
        <time>2017-08-01T11:56:42Z</time>
      </trkpt>
      <trkpt lat="43.2243991736" lon="2.6233864110">
        <ele>58.30</ele>
        <time>2017-08-01T11:56:43Z</time>
      </trkpt>
      <trkpt lat="43.2243873551" lon="2.6233384665">
        <ele>57.82</ele>
        <time>2017-08-01T11:56:44Z</time>
      </trkpt>
      <trkpt lat="43.2244080584" lon="2.6230982412">
        <ele>56.37</ele>
        <time>2017-08-01T11:56:49Z</time>
      </trkpt>
      <trkpt lat="43.2244319469" lon="2.6230485365">
        <ele>56.86</ele>
        <time>2017-08-01T11:56:50Z</time>
      </trkpt>
      <trkpt lat="43.2244545780" lon="2.6229985803">
        <ele>56.86</ele>
        <time>2017-08-01T11:56:51Z</time>
      </trkpt>
      <trkpt lat="43.2246880140" lon="2.6226255018">
        <ele>55.89</ele>
        <time>2017-08-01T11:57:01Z</time>
      </trkpt>
      <trkpt lat="43.2247156743" lon="2.6226192154">
        <ele>55.89</ele>
        <time>2017-08-01T11:57:02Z</time>
      </trkpt>
      <trkpt lat="43.2250015810" lon="2.6225582790">
        <ele>56.37</ele>
        <time>2017-08-01T11:57:12Z</time>
      </trkpt>
      <trkpt lat="43.2253055926" lon="2.6225052215">
        <ele>55.89</ele>
        <time>2017-08-01T11:57:23Z</time>
      </trkpt>
      <trkpt lat="43.2256838679" lon="2.6224721968">
        <ele>55.89</ele>
        <time>2017-08-01T11:57:34Z</time>
      </trkpt>
      <trkpt lat="43.2262055576" lon="2.6224572770">
        <ele>56.37</ele>
        <time>2017-08-01T11:57:47Z</time>
      </trkpt>
      <trkpt lat="43.2267921232" lon="2.6224529184">
        <ele>56.37</ele>
        <time>2017-08-01T11:58:01Z</time>
      </trkpt>
      <trkpt lat="43.2268789597" lon="2.6224571094">
        <ele>56.37</ele>
        <time>2017-08-01T11:58:03Z</time>
      </trkpt>
      <trkpt lat="43.2269205339" lon="2.6224592049">
        <ele>56.37</ele>
        <time>2017-08-01T11:58:04Z</time>
      </trkpt>
      <trkpt lat="43.2270443346" lon="2.6224614680">
        <ele>56.37</ele>
        <time>2017-08-01T11:58:07Z</time>
      </trkpt>
      <trkpt lat="43.2270858251" lon="2.6224664971">
        <ele>56.37</ele>
        <time>2017-08-01T11:58:08Z</time>
      </trkpt>
      <trkpt lat="43.2271275669" lon="2.6224693470">
        <ele>56.37</ele>
        <time>2017-08-01T11:58:09Z</time>
      </trkpt>
      <trkpt lat="43.2272523735" lon="2.6224660780">
        <ele>55.89</ele>
        <time>2017-08-01T11:58:12Z</time>
      </trkpt>
      <trkpt lat="43.2272956241" lon="2.6224636473">
        <ele>56.37</ele>
        <time>2017-08-01T11:58:13Z</time>
      </trkpt>
      <trkpt lat="43.2278417889" lon="2.6224713586">
        <ele>56.37</ele>
        <time>2017-08-01T11:58:26Z</time>
      </trkpt>
      <trkpt lat="43.2283110917" lon="2.6224504877">
        <ele>56.86</ele>
        <time>2017-08-01T11:58:38Z</time>
      </trkpt>
      <trkpt lat="43.2283886243" lon="2.6224566065">
        <ele>56.37</ele>
        <time>2017-08-01T11:58:40Z</time>
      </trkpt>
      <trkpt lat="43.2288032770" lon="2.6225118432">
        <ele>56.86</ele>
        <time>2017-08-01T11:58:51Z</time>
      </trkpt>
      <trkpt lat="43.2291321829" lon="2.6225780603">
        <ele>56.86</ele>
        <time>2017-08-01T11:59:00Z</time>
      </trkpt>
      <trkpt lat="43.2295486797" lon="2.6226563472">
        <ele>57.34</ele>
        <time>2017-08-01T11:59:11Z</time>
      </trkpt>
      <trkpt lat="43.2296687085" lon="2.6226730272">
        <ele>57.34</ele>
        <time>2017-08-01T11:59:14Z</time>
      </trkpt>
      <trkpt lat="43.2297499292" lon="2.6226758771">
        <ele>57.34</ele>
        <time>2017-08-01T11:59:16Z</time>
      </trkpt>
      <trkpt lat="43.2302324753" lon="2.6226692554">
        <ele>57.82</ele>
        <time>2017-08-01T11:59:28Z</time>
      </trkpt>
      <trkpt lat="43.2306997664" lon="2.6226159465">
        <ele>58.78</ele>
        <time>2017-08-01T11:59:40Z</time>
      </trkpt>
      <trkpt lat="43.2310524769" lon="2.6225581113">
        <ele>59.26</ele>
        <time>2017-08-01T11:59:51Z</time>
      </trkpt>
      <trkpt lat="43.2312509604" lon="2.6224954985">
        <ele>60.22</ele>
        <time>2017-08-01T11:59:58Z</time>
      </trkpt>
      <trkpt lat="43.2312698197" lon="2.6225042995">
        <ele>60.22</ele>
        <time>2017-08-01T11:59:59Z</time>
      </trkpt>
      <trkpt lat="43.2312885113" lon="2.6225167885">
        <ele>60.22</ele>
        <time>2017-08-01T12:00:00Z</time>
      </trkpt>
      <trkpt lat="43.2313037664" lon="2.6225353125">
        <ele>60.22</ele>
        <time>2017-08-01T12:00:01Z</time>
      </trkpt>
      <trkpt lat="43.2313145790" lon="2.6225566026">
        <ele>60.22</ele>
        <time>2017-08-01T12:00:02Z</time>
      </trkpt>
      <trkpt lat="43.2313288283" lon="2.6225702651">
        <ele>60.22</ele>
        <time>2017-08-01T12:00:03Z</time>
      </trkpt>
      <trkpt lat="43.2313444186" lon="2.6225821674">
        <ele>59.74</ele>
        <time>2017-08-01T12:00:04Z</time>
      </trkpt>
      <trkpt lat="43.2313541416" lon="2.6226042956">
        <ele>60.22</ele>
        <time>2017-08-01T12:00:05Z</time>
      </trkpt>
      <trkpt lat="43.2313569076" lon="2.6226306148">
        <ele>59.74</ele>
        <time>2017-08-01T12:00:06Z</time>
      </trkpt>
      <trkpt lat="43.2313564047" lon="2.6226631366">
        <ele>60.22</ele>
        <time>2017-08-01T12:00:07Z</time>
      </trkpt>
      <trkpt lat="43.2313563209" lon="2.6226978377">
        <ele>60.22</ele>
        <time>2017-08-01T12:00:08Z</time>
      </trkpt>
      <trkpt lat="43.2313574106" lon="2.6227334607">
        <ele>59.74</ele>
        <time>2017-08-01T12:00:09Z</time>
      </trkpt>
      <trkpt lat="43.2313461788" lon="2.6232192758">
        <ele>59.74</ele>
        <time>2017-08-01T12:00:20Z</time>
      </trkpt>
      <trkpt lat="43.2313493639" lon="2.6237070188">
        <ele>59.74</ele>
        <time>2017-08-01T12:00:31Z</time>
      </trkpt>
      <trkpt lat="43.2313341927" lon="2.6244097576">
        <ele>59.74</ele>
        <time>2017-08-01T12:00:47Z</time>
      </trkpt>
      <trkpt lat="43.2313386351" lon="2.6244424470">
        <ele>59.74</ele>
        <time>2017-08-01T12:00:48Z</time>
      </trkpt>
      <trkpt lat="43.2313423231" lon="2.6244744658">
        <ele>59.74</ele>
        <time>2017-08-01T12:00:49Z</time>
      </trkpt>
      <trkpt lat="43.2313315105" lon="2.6249140967">
        <ele>59.74</ele>
        <time>2017-08-01T12:01:00Z</time>
      </trkpt>
      <trkpt lat="43.2313223742" lon="2.6255808771">
        <ele>59.74</ele>
        <time>2017-08-01T12:01:15Z</time>
      </trkpt>
      <trkpt lat="43.2313240506" lon="2.6261225156">
        <ele>59.74</ele>
        <time>2017-08-01T12:01:27Z</time>
      </trkpt>
      <trkpt lat="43.2313196920" lon="2.6266824268">
        <ele>59.74</ele>
        <time>2017-08-01T12:01:39Z</time>
      </trkpt>
      <trkpt lat="43.2313046046" lon="2.6271562558">
        <ele>59.74</ele>
        <time>2017-08-01T12:01:51Z</time>
      </trkpt>
      <trkpt lat="43.2312944625" lon="2.6276111417">
        <ele>59.74</ele>
        <time>2017-08-01T12:02:03Z</time>
      </trkpt>
      <trkpt lat="43.2312890980" lon="2.6280122157">
        <ele>59.74</ele>
        <time>2017-08-01T12:02:14Z</time>
      </trkpt>
      <trkpt lat="43.2312682271" lon="2.6280198433">
        <ele>60.22</ele>
        <time>2017-08-01T12:02:22Z</time>
      </trkpt>
      <trkpt lat="43.2312298380" lon="2.6280495990">
        <ele>60.22</ele>
        <time>2017-08-01T12:02:31Z</time>
      </trkpt>
      <trkpt lat="43.2312353700" lon="2.6280395407">
        <ele>59.74</ele>
        <time>2017-08-01T12:02:47Z</time>
      </trkpt>
      <trkpt lat="43.2312279940" lon="2.6280506048">
        <ele>59.74</ele>
        <time>2017-08-01T12:03:16Z</time>
      </trkpt>
      <trkpt lat="43.2312229648" lon="2.6280481741">
        <ele>59.74</ele>
        <time>2017-08-01T12:03:42Z</time>
      </trkpt>
      <trkpt lat="43.2312239707" lon="2.6280436479">
        <ele>60.22</ele>
        <time>2017-08-01T12:04:03Z</time>
      </trkpt>
      <trkpt lat="43.2312212046" lon="2.6282182429">
        <ele>59.74</ele>
        <time>2017-08-01T12:04:13Z</time>
      </trkpt>
      <trkpt lat="43.2312209532" lon="2.6288128551">
        <ele>60.22</ele>
        <time>2017-08-01T12:04:26Z</time>
      </trkpt>
      <trkpt lat="43.2312156726" lon="2.6294113230">
        <ele>60.22</ele>
        <time>2017-08-01T12:04:37Z</time>
      </trkpt>
      <trkpt lat="43.2312015910" lon="2.6300150715">
        <ele>60.22</ele>
        <time>2017-08-01T12:04:48Z</time>
      </trkpt>
      <trkpt lat="43.2311818097" lon="2.6306271181">
        <ele>61.18</ele>
        <time>2017-08-01T12:05:01Z</time>
      </trkpt>
      <trkpt lat="43.2311523054" lon="2.6313379873">
        <ele>62.62</ele>
        <time>2017-08-01T12:05:16Z</time>
      </trkpt>
      <trkpt lat="43.2311423309" lon="2.6318366267">
        <ele>63.58</ele>
        <time>2017-08-01T12:05:26Z</time>
      </trkpt>
      <trkpt lat="43.2311369665" lon="2.6325568836">
        <ele>63.10</ele>
        <time>2017-08-01T12:05:38Z</time>
      </trkpt>
      <trkpt lat="43.2311275788" lon="2.6334345527">
        <ele>62.62</ele>
        <time>2017-08-01T12:05:51Z</time>
      </trkpt>
      <trkpt lat="43.2310920395" lon="2.6339796279">
        <ele>62.14</ele>
        <time>2017-08-01T12:05:59Z</time>
      </trkpt>
      <trkpt lat="43.2310761139" lon="2.6340393908">
        <ele>62.14</ele>
        <time>2017-08-01T12:06:00Z</time>
      </trkpt>
      <trkpt lat="43.2310555782" lon="2.6340974774">
        <ele>61.66</ele>
        <time>2017-08-01T12:06:01Z</time>
      </trkpt>
      <trkpt lat="43.2310305163" lon="2.6341495290">
        <ele>61.66</ele>
        <time>2017-08-01T12:06:02Z</time>
      </trkpt>
      <trkpt lat="43.2310029399" lon="2.6341938693">
        <ele>62.14</ele>
        <time>2017-08-01T12:06:03Z</time>
      </trkpt>
      <trkpt lat="43.2309785485" lon="2.6342268940">
        <ele>62.62</ele>
        <time>2017-08-01T12:06:04Z</time>
      </trkpt>
      <trkpt lat="43.2309445180" lon="2.6342964638">
        <ele>63.10</ele>
        <time>2017-08-01T12:06:07Z</time>
      </trkpt>
      <trkpt lat="43.2309380639" lon="2.6343454979">
        <ele>63.10</ele>
        <time>2017-08-01T12:06:09Z</time>
      </trkpt>
      <trkpt lat="43.2308126707" lon="2.6345828734">
        <ele>61.66</ele>
        <time>2017-08-01T12:06:15Z</time>
      </trkpt>
      <trkpt lat="43.2306198869" lon="2.6350061595">
        <ele>61.18</ele>
        <time>2017-08-01T12:06:26Z</time>
      </trkpt>
      <trkpt lat="43.2303938270" lon="2.6356072258">
        <ele>60.22</ele>
        <time>2017-08-01T12:06:38Z</time>
      </trkpt>
      <trkpt lat="43.2302234229" lon="2.6362598408">
        <ele>59.74</ele>
        <time>2017-08-01T12:06:50Z</time>
      </trkpt>
      <trkpt lat="43.2302029710" lon="2.6366992202">
        <ele>59.26</ele>
        <time>2017-08-01T12:07:00Z</time>
      </trkpt>
      <trkpt lat="43.2302412763" lon="2.6371207461">
        <ele>59.74</ele>
        <time>2017-08-01T12:07:09Z</time>
      </trkpt>
      <trkpt lat="43.2302945852" lon="2.6373245940">
        <ele>59.74</ele>
        <time>2017-08-01T12:07:13Z</time>
      </trkpt>
      <trkpt lat="43.2303158753" lon="2.6373763103">
        <ele>59.26</ele>
        <time>2017-08-01T12:07:14Z</time>
      </trkpt>
      <trkpt lat="43.2304313779" lon="2.6376495603">
        <ele>59.26</ele>
        <time>2017-08-01T12:07:20Z</time>
      </trkpt>
      <trkpt lat="43.2304351497" lon="2.6376809087">
        <ele>59.26</ele>
        <time>2017-08-01T12:07:21Z</time>
      </trkpt>
      <trkpt lat="43.2304381672" lon="2.6377059706">
        <ele>59.26</ele>
        <time>2017-08-01T12:07:22Z</time>
      </trkpt>
      <trkpt lat="43.2304408494" lon="2.6377294399">
        <ele>59.26</ele>
        <time>2017-08-01T12:07:23Z</time>
      </trkpt>
      <trkpt lat="43.2304478902" lon="2.6377503946">
        <ele>59.26</ele>
        <time>2017-08-01T12:07:24Z</time>
      </trkpt>
      <trkpt lat="43.2304638997" lon="2.6377650630">
        <ele>59.26</ele>
        <time>2017-08-01T12:07:25Z</time>
      </trkpt>
      <trkpt lat="43.2304830104" lon="2.6377798151">
        <ele>59.26</ele>
        <time>2017-08-01T12:07:26Z</time>
      </trkpt>
      <trkpt lat="43.2305025402" lon="2.6377980877">
        <ele>59.26</ele>
        <time>2017-08-01T12:07:27Z</time>
      </trkpt>
      <trkpt lat="43.2305598725" lon="2.6378537435">
        <ele>58.78</ele>
        <time>2017-08-01T12:07:30Z</time>
      </trkpt>
      <trkpt lat="43.2305731159" lon="2.6378803980">
        <ele>59.26</ele>
        <time>2017-08-01T12:07:31Z</time>
      </trkpt>
      <trkpt lat="43.2307221461" lon="2.6382320188">
        <ele>58.78</ele>
        <time>2017-08-01T12:07:43Z</time>
      </trkpt>
      <trkpt lat="43.2307688333" lon="2.6383550651">
        <ele>58.78</ele>
        <time>2017-08-01T12:07:51Z</time>
      </trkpt>
      <trkpt lat="43.2308068871" lon="2.6383871678">
        <ele>59.26</ele>
        <time>2017-08-01T12:08:01Z</time>
      </trkpt>
      <trkpt lat="43.2308052946" lon="2.6383856591">
        <ele>59.74</ele>
        <time>2017-08-01T12:08:17Z</time>
      </trkpt>
      <trkpt lat="43.2308041211" lon="2.6383821387">
        <ele>57.82</ele>
        <time>2017-08-01T12:08:20Z</time>
      </trkpt>
      <trkpt lat="43.2308041211" lon="2.6383816358">
        <ele>59.26</ele>
        <time>2017-08-01T12:08:22Z</time>
      </trkpt>
      <trkpt lat="43.2308779657" lon="2.6388949435">
        <ele>60.70</ele>
        <time>2017-08-01T12:30:06Z</time>
      </trkpt>
      <trkpt lat="43.2310463581" lon="2.6392481569">
        <ele>60.22</ele>
        <time>2017-08-01T12:30:16Z</time>
      </trkpt>
      <trkpt lat="43.2311866712" lon="2.6395841874">
        <ele>56.37</ele>
        <time>2017-08-01T12:30:25Z</time>
      </trkpt>
      <trkpt lat="43.2312015910" lon="2.6396164577">
        <ele>61.66</ele>
        <time>2017-08-01T12:30:26Z</time>
      </trkpt>
      <trkpt lat="43.2313450892" lon="2.6399451960">
        <ele>59.74</ele>
        <time>2017-08-01T12:30:35Z</time>
      </trkpt>
      <trkpt lat="43.2314294111" lon="2.6401761174">
        <ele>59.26</ele>
        <time>2017-08-01T12:30:40Z</time>
      </trkpt>
      <trkpt lat="43.2314505335" lon="2.6402251516">
        <ele>59.26</ele>
        <time>2017-08-01T12:30:41Z</time>
      </trkpt>
      <trkpt lat="43.2317701355" lon="2.6409371942">
        <ele>58.78</ele>
        <time>2017-08-01T12:30:55Z</time>
      </trkpt>
      <trkpt lat="43.2321127038" lon="2.6417012885">
        <ele>58.30</ele>
        <time>2017-08-01T12:31:09Z</time>
      </trkpt>
      <trkpt lat="43.2323858701" lon="2.6423202921">
        <ele>59.26</ele>
        <time>2017-08-01T12:31:21Z</time>
      </trkpt>
      <trkpt lat="43.2326689269" lon="2.6429538801">
        <ele>58.30</ele>
        <time>2017-08-01T12:31:34Z</time>
      </trkpt>
      <trkpt lat="43.2329512294" lon="2.6435811818">
        <ele>57.82</ele>
        <time>2017-08-01T12:31:47Z</time>
      </trkpt>
      <trkpt lat="43.2332535647" lon="2.6442633010">
        <ele>56.86</ele>
        <time>2017-08-01T12:32:00Z</time>
      </trkpt>
      <trkpt lat="43.2336399704" lon="2.6451377850">
        <ele>57.34</ele>
        <time>2017-08-01T12:32:16Z</time>
      </trkpt>
      <trkpt lat="43.2339993026" lon="2.6459189784">
        <ele>57.34</ele>
        <time>2017-08-01T12:32:31Z</time>
      </trkpt>
      <trkpt lat="43.2343189046" lon="2.6465561707">
        <ele>56.86</ele>
        <time>2017-08-01T12:32:44Z</time>
      </trkpt>
      <trkpt lat="43.2347171288" lon="2.6473257970">
        <ele>57.34</ele>
        <time>2017-08-01T12:33:00Z</time>
      </trkpt>
      <trkpt lat="43.2350277621" lon="2.6479277853">
        <ele>57.34</ele>
        <time>2017-08-01T12:33:13Z</time>
      </trkpt>
      <trkpt lat="43.2352280896" lon="2.6483075693">
        <ele>56.86</ele>
        <time>2017-08-01T12:33:21Z</time>
      </trkpt>
      <trkpt lat="43.2355468534" lon="2.6489016786">
        <ele>57.34</ele>
        <time>2017-08-01T12:33:33Z</time>
      </trkpt>
      <trkpt lat="43.2359014917" lon="2.6495748293">
        <ele>57.34</ele>
        <time>2017-08-01T12:33:46Z</time>
      </trkpt>
      <trkpt lat="43.2362412941" lon="2.6502316352">
        <ele>56.86</ele>
        <time>2017-08-01T12:33:59Z</time>
      </trkpt>
      <trkpt lat="43.2365163043" lon="2.6507716812">
        <ele>57.82</ele>
        <time>2017-08-01T12:34:11Z</time>
      </trkpt>
      <trkpt lat="43.2367787417" lon="2.6512826420">
        <ele>58.78</ele>
        <time>2017-08-01T12:34:23Z</time>
      </trkpt>
      <trkpt lat="43.2370301988" lon="2.6517573092">
        <ele>60.22</ele>
        <time>2017-08-01T12:34:35Z</time>
      </trkpt>
      <trkpt lat="43.2373333722" lon="2.6522758137">
        <ele>60.22</ele>
        <time>2017-08-01T12:34:47Z</time>
      </trkpt>
      <trkpt lat="43.2378059439" lon="2.6529879402">
        <ele>59.26</ele>
        <time>2017-08-01T12:35:01Z</time>
      </trkpt>
      <trkpt lat="43.2382902503" lon="2.6536298264">
        <ele>58.30</ele>
        <time>2017-08-01T12:35:14Z</time>
      </trkpt>
      <trkpt lat="43.2387951761" lon="2.6542733889">
        <ele>58.30</ele>
        <time>2017-08-01T12:35:28Z</time>
      </trkpt>
      <trkpt lat="43.2392551750" lon="2.6548073161">
        <ele>57.34</ele>
        <time>2017-08-01T12:35:40Z</time>
      </trkpt>
      <trkpt lat="43.2397830673" lon="2.6553266589">
        <ele>57.34</ele>
        <time>2017-08-01T12:35:54Z</time>
      </trkpt>
      <trkpt lat="43.2403133065" lon="2.6556802075">
        <ele>57.34</ele>
        <time>2017-08-01T12:36:07Z</time>
      </trkpt>
      <trkpt lat="43.2403514441" lon="2.6556992345">
        <ele>57.34</ele>
        <time>2017-08-01T12:36:08Z</time>
      </trkpt>
      <trkpt lat="43.2403892465" lon="2.6557132322">
        <ele>57.34</ele>
        <time>2017-08-01T12:36:09Z</time>
      </trkpt>
      <trkpt lat="43.2404251210" lon="2.6557256375">
        <ele>57.82</ele>
        <time>2017-08-01T12:36:10Z</time>
      </trkpt>
      <trkpt lat="43.2404604089" lon="2.6557444967">
        <ele>57.34</ele>
        <time>2017-08-01T12:36:11Z</time>
      </trkpt>
      <trkpt lat="43.2404972892" lon="2.6557687204">
        <ele>57.34</ele>
        <time>2017-08-01T12:36:12Z</time>
      </trkpt>
      <trkpt lat="43.2409610599" lon="2.6560429763">
        <ele>57.82</ele>
        <time>2017-08-01T12:36:24Z</time>
      </trkpt>
      <trkpt lat="43.2414089888" lon="2.6564871334">
        <ele>57.82</ele>
        <time>2017-08-01T12:36:36Z</time>
      </trkpt>
      <trkpt lat="43.2417468634" lon="2.6571486332">
        <ele>57.82</ele>
        <time>2017-08-01T12:36:48Z</time>
      </trkpt>
      <trkpt lat="43.2421797886" lon="2.6580915973">
        <ele>57.34</ele>
        <time>2017-08-01T12:37:04Z</time>
      </trkpt>
      <trkpt lat="43.2425090298" lon="2.6589512452">
        <ele>57.82</ele>
        <time>2017-08-01T12:37:18Z</time>
      </trkpt>
      <trkpt lat="43.2428035699" lon="2.6597678103">
        <ele>57.82</ele>
        <time>2017-08-01T12:37:31Z</time>
      </trkpt>
      <trkpt lat="43.2429105230" lon="2.6599988993">
        <ele>57.82</ele>
        <time>2017-08-01T12:37:35Z</time>
      </trkpt>
      <trkpt lat="43.2431470603" lon="2.6603542920">
        <ele>57.82</ele>
        <time>2017-08-01T12:37:42Z</time>
      </trkpt>
      <trkpt lat="43.2431857008" lon="2.6603961177">
        <ele>57.82</ele>
        <time>2017-08-01T12:37:43Z</time>
      </trkpt>
      <trkpt lat="43.2436697558" lon="2.6608790830">
        <ele>57.34</ele>
        <time>2017-08-01T12:37:55Z</time>
      </trkpt>
      <trkpt lat="43.2441569120" lon="2.6612499822">
        <ele>56.86</ele>
        <time>2017-08-01T12:38:07Z</time>
      </trkpt>
      <trkpt lat="43.2443647832" lon="2.6613560133">
        <ele>57.34</ele>
        <time>2017-08-01T12:38:12Z</time>
      </trkpt>
      <trkpt lat="43.2444099616" lon="2.6613683347">
        <ele>57.34</ele>
        <time>2017-08-01T12:38:13Z</time>
      </trkpt>
      <trkpt lat="43.2444543019" lon="2.6613747887">
        <ele>57.82</ele>
        <time>2017-08-01T12:38:14Z</time>
      </trkpt>
      <trkpt lat="43.2444987260" lon="2.6613765489">
        <ele>57.82</ele>
        <time>2017-08-01T12:38:15Z</time>
      </trkpt>
      <trkpt lat="43.2445444074" lon="2.6613779739">
        <ele>57.34</ele>
        <time>2017-08-01T12:38:16Z</time>
      </trkpt>
      <trkpt lat="43.2451089285" lon="2.6612447016">
        <ele>58.30</ele>
        <time>2017-08-01T12:38:29Z</time>
      </trkpt>
      <trkpt lat="43.2455819193" lon="2.6609817613">
        <ele>57.82</ele>
        <time>2017-08-01T12:38:41Z</time>
      </trkpt>
      <trkpt lat="43.2461475302" lon="2.6605753228">
        <ele>58.30</ele>
        <time>2017-08-01T12:38:55Z</time>
      </trkpt>
      <trkpt lat="43.2464895956" lon="2.6603128016">
        <ele>58.30</ele>
        <time>2017-08-01T12:39:04Z</time>
      </trkpt>
      <trkpt lat="43.2465293258" lon="2.6602851413">
        <ele>58.30</ele>
        <time>2017-08-01T12:39:05Z</time>
      </trkpt>
      <trkpt lat="43.2467703894" lon="2.6601186767">
        <ele>58.78</ele>
        <time>2017-08-01T12:39:11Z</time>
      </trkpt>
      <trkpt lat="43.2468110416" lon="2.6600914355">
        <ele>58.78</ele>
        <time>2017-08-01T12:39:12Z</time>
      </trkpt>
      <trkpt lat="43.2472544443" lon="2.6598200295">
        <ele>58.78</ele>
        <time>2017-08-01T12:39:24Z</time>
      </trkpt>
      <trkpt lat="43.2475048956" lon="2.6597196981">
        <ele>59.26</ele>
        <time>2017-08-01T12:39:32Z</time>
      </trkpt>
      <trkpt lat="43.2475719508" lon="2.6597082987">
        <ele>59.74</ele>
        <time>2017-08-01T12:39:36Z</time>
      </trkpt>
      <trkpt lat="43.2475880440" lon="2.6597086340">
        <ele>59.74</ele>
        <time>2017-08-01T12:39:37Z</time>
      </trkpt>
      <trkpt lat="43.2476126868" lon="2.6597026829">
        <ele>59.26</ele>
        <time>2017-08-01T12:39:38Z</time>
      </trkpt>
      <trkpt lat="43.2478693407" lon="2.6596600190">
        <ele>57.82</ele>
        <time>2017-08-01T12:39:47Z</time>
      </trkpt>
      <trkpt lat="43.2480064686" lon="2.6597528905">
        <ele>56.37</ele>
        <time>2017-08-01T12:39:51Z</time>
      </trkpt>
      <trkpt lat="43.2480461989" lon="2.6597953029">
        <ele>55.89</ele>
        <time>2017-08-01T12:39:52Z</time>
      </trkpt>
      <trkpt lat="43.2481513917" lon="2.6599287428">
        <ele>55.41</ele>
        <time>2017-08-01T12:39:55Z</time>
      </trkpt>
      <trkpt lat="43.2481730171" lon="2.6599792019">
        <ele>55.41</ele>
        <time>2017-08-01T12:39:56Z</time>
      </trkpt>
      <trkpt lat="43.2481879368" lon="2.6600256376">
        <ele>55.41</ele>
        <time>2017-08-01T12:39:57Z</time>
      </trkpt>
      <trkpt lat="43.2482515555" lon="2.6603459939">
        <ele>56.86</ele>
        <time>2017-08-01T12:40:04Z</time>
      </trkpt>
      <trkpt lat="43.2482535671" lon="2.6603997219">
        <ele>55.89</ele>
        <time>2017-08-01T12:40:05Z</time>
      </trkpt>
      <trkpt lat="43.2482565846" lon="2.6604510192">
        <ele>55.89</ele>
        <time>2017-08-01T12:40:06Z</time>
      </trkpt>
      <trkpt lat="43.2482534833" lon="2.6605015621">
        <ele>55.89</ele>
        <time>2017-08-01T12:40:07Z</time>
      </trkpt>
      <trkpt lat="43.2482470293" lon="2.6605501771">
        <ele>55.89</ele>
        <time>2017-08-01T12:40:08Z</time>
      </trkpt>
      <trkpt lat="43.2482419163" lon="2.6606002171">
        <ele>55.89</ele>
        <time>2017-08-01T12:40:09Z</time>
      </trkpt>
      <trkpt lat="43.2482354622" lon="2.6606532745">
        <ele>55.89</ele>
        <time>2017-08-01T12:40:10Z</time>
      </trkpt>
      <trkpt lat="43.2482273318" lon="2.6607045718">
        <ele>55.89</ele>
        <time>2017-08-01T12:40:11Z</time>
      </trkpt>
      <trkpt lat="43.2481631264" lon="2.6610729564">
        <ele>56.37</ele>
        <time>2017-08-01T12:40:18Z</time>
      </trkpt>
      <trkpt lat="43.2481116615" lon="2.6613360643">
        <ele>56.37</ele>
        <time>2017-08-01T12:40:23Z</time>
      </trkpt>
      <trkpt lat="43.2481031958" lon="2.6613915525">
        <ele>56.37</ele>
        <time>2017-08-01T12:40:24Z</time>
      </trkpt>
      <trkpt lat="43.2479670737" lon="2.6620305050">
        <ele>56.37</ele>
        <time>2017-08-01T12:40:36Z</time>
      </trkpt>
      <trkpt lat="43.2478556782" lon="2.6623545494">
        <ele>57.82</ele>
        <time>2017-08-01T12:40:44Z</time>
      </trkpt>
      <trkpt lat="43.2477588672" lon="2.6628570445">
        <ele>57.82</ele>
        <time>2017-08-01T12:40:54Z</time>
      </trkpt>
      <trkpt lat="43.2476274390" lon="2.6634816639">
        <ele>57.82</ele>
        <time>2017-08-01T12:41:05Z</time>
      </trkpt>
      <trkpt lat="43.2476161234" lon="2.6635394990">
        <ele>57.82</ele>
        <time>2017-08-01T12:41:06Z</time>
      </trkpt>
      <trkpt lat="43.2475696877" lon="2.6637622900">
        <ele>57.82</ele>
        <time>2017-08-01T12:41:10Z</time>
      </trkpt>
      <trkpt lat="43.2475446258" lon="2.6639445126">
        <ele>57.34</ele>
        <time>2017-08-01T12:41:13Z</time>
      </trkpt>
      <trkpt lat="43.2474654168" lon="2.6643071137">
        <ele>57.34</ele>
        <time>2017-08-01T12:41:19Z</time>
      </trkpt>
      <trkpt lat="43.2473924104" lon="2.6646386180">
        <ele>58.30</ele>
        <time>2017-08-01T12:41:25Z</time>
      </trkpt>
      <trkpt lat="43.2473803405" lon="2.6646977942">
        <ele>58.30</ele>
        <time>2017-08-01T12:41:26Z</time>
      </trkpt>
      <trkpt lat="43.2472681068" lon="2.6652514189">
        <ele>57.82</ele>
        <time>2017-08-01T12:41:36Z</time>
      </trkpt>
      <trkpt lat="43.2471625786" lon="2.6658477914">
        <ele>57.82</ele>
        <time>2017-08-01T12:41:46Z</time>
      </trkpt>
      <trkpt lat="43.2471568789" lon="2.6661011763">
        <ele>57.82</ele>
        <time>2017-08-01T12:41:50Z</time>
      </trkpt>
      <trkpt lat="43.2472508401" lon="2.6665318385">
        <ele>57.82</ele>
        <time>2017-08-01T12:41:58Z</time>
      </trkpt>
      <trkpt lat="43.2472842000" lon="2.6666437369">
        <ele>58.30</ele>
        <time>2017-08-01T12:42:00Z</time>
      </trkpt>
      <trkpt lat="43.2474182267" lon="2.6670379378">
        <ele>57.82</ele>
        <time>2017-08-01T12:42:07Z</time>
      </trkpt>
      <trkpt lat="43.2476195600" lon="2.6676188875">
        <ele>57.82</ele>
        <time>2017-08-01T12:42:17Z</time>
      </trkpt>
      <trkpt lat="43.2478075661" lon="2.6680789702">
        <ele>55.41</ele>
        <time>2017-08-01T12:42:25Z</time>
      </trkpt>
      <trkpt lat="43.2478363160" lon="2.6681261603">
        <ele>56.86</ele>
        <time>2017-08-01T12:42:26Z</time>
      </trkpt>
      <trkpt lat="43.2478684187" lon="2.6681699138">
        <ele>56.37</ele>
        <time>2017-08-01T12:42:27Z</time>
      </trkpt>
      <trkpt lat="43.2479005214" lon="2.6682145894">
        <ele>56.37</ele>
        <time>2017-08-01T12:42:28Z</time>
      </trkpt>
      <trkpt lat="43.2479293551" lon="2.6682637073">
        <ele>56.37</ele>
        <time>2017-08-01T12:42:29Z</time>
      </trkpt>
      <trkpt lat="43.2479881961" lon="2.6683610212">
        <ele>56.37</ele>
        <time>2017-08-01T12:42:31Z</time>
      </trkpt>
      <trkpt lat="43.2480214722" lon="2.6684020087">
        <ele>56.37</ele>
        <time>2017-08-01T12:42:32Z</time>
      </trkpt>
      <trkpt lat="43.2484302577" lon="2.6688355207">
        <ele>56.37</ele>
        <time>2017-08-01T12:42:43Z</time>
      </trkpt>
      <trkpt lat="43.2484729216" lon="2.6688723173">
        <ele>56.37</ele>
        <time>2017-08-01T12:42:44Z</time>
      </trkpt>
      <trkpt lat="43.2485151663" lon="2.6689010672">
        <ele>56.37</ele>
        <time>2017-08-01T12:42:45Z</time>
      </trkpt>
      <trkpt lat="43.2485587522" lon="2.6689231955">
        <ele>56.37</ele>
        <time>2017-08-01T12:42:46Z</time>
      </trkpt>
      <trkpt lat="43.2486030925" lon="2.6689430606">
        <ele>56.37</ele>
        <time>2017-08-01T12:42:47Z</time>
      </trkpt>
      <trkpt lat="43.2486447506" lon="2.6689635962">
        <ele>56.37</ele>
        <time>2017-08-01T12:42:48Z</time>
      </trkpt>
      <trkpt lat="43.2487213612" lon="2.6690119598">
        <ele>56.37</ele>
        <time>2017-08-01T12:42:50Z</time>
      </trkpt>
      <trkpt lat="43.2487644441" lon="2.6690316573">
        <ele>56.37</ele>
        <time>2017-08-01T12:42:51Z</time>
      </trkpt>
      <trkpt lat="43.2488072757" lon="2.6690447330">
        <ele>56.37</ele>
        <time>2017-08-01T12:42:52Z</time>
      </trkpt>
      <trkpt lat="43.2489521988" lon="2.6690631732">
        <ele>56.37</ele>
        <time>2017-08-01T12:42:56Z</time>
      </trkpt>
      <trkpt lat="43.2489797752" lon="2.6690397039">
        <ele>56.37</ele>
        <time>2017-08-01T12:42:57Z</time>
      </trkpt>
      <trkpt lat="43.2490015682" lon="2.6690089423">
        <ele>56.37</ele>
        <time>2017-08-01T12:42:58Z</time>
      </trkpt>
      <trkpt lat="43.2490230259" lon="2.6689781807">
        <ele>57.34</ele>
        <time>2017-08-01T12:42:59Z</time>
      </trkpt>
      <trkpt lat="43.2490486745" lon="2.6689561363">
        <ele>57.34</ele>
        <time>2017-08-01T12:43:00Z</time>
      </trkpt>
      <trkpt lat="43.2490760833" lon="2.6689414680">
        <ele>57.34</ele>
        <time>2017-08-01T12:43:01Z</time>
      </trkpt>
      <trkpt lat="43.2491056714" lon="2.6689316612">
        <ele>57.34</ele>
        <time>2017-08-01T12:43:02Z</time>
      </trkpt>
      <trkpt lat="43.2491351757" lon="2.6689224411">
        <ele>57.82</ele>
        <time>2017-08-01T12:43:03Z</time>
      </trkpt>
      <trkpt lat="43.2491578907" lon="2.6689147297">
        <ele>57.82</ele>
        <time>2017-08-01T12:43:04Z</time>
      </trkpt>
      <trkpt lat="43.2491754927" lon="2.6689080242">
        <ele>58.30</ele>
        <time>2017-08-01T12:43:05Z</time>
      </trkpt>
      <trkpt lat="43.2491942681" lon="2.6689009834">
        <ele>58.30</ele>
        <time>2017-08-01T12:43:06Z</time>
      </trkpt>
      <trkpt lat="43.2492103614" lon="2.6688926015">
        <ele>58.78</ele>
        <time>2017-08-01T12:43:07Z</time>
      </trkpt>
      <trkpt lat="43.2492281310" lon="2.6688889973">
        <ele>59.26</ele>
        <time>2017-08-01T12:43:08Z</time>
      </trkpt>
      <trkpt lat="43.2492467389" lon="2.6688922662">
        <ele>59.74</ele>
        <time>2017-08-01T12:43:09Z</time>
      </trkpt>
      <trkpt lat="43.2492689509" lon="2.6689019054">
        <ele>59.74</ele>
        <time>2017-08-01T12:43:10Z</time>
      </trkpt>
      <trkpt lat="43.2492935099" lon="2.6689152326">
        <ele>59.74</ele>
        <time>2017-08-01T12:43:11Z</time>
      </trkpt>
      <trkpt lat="43.2493146323" lon="2.6689226087">
        <ele>59.74</ele>
        <time>2017-08-01T12:43:12Z</time>
      </trkpt>
      <trkpt lat="43.2493340783" lon="2.6689236984">
        <ele>59.74</ele>
        <time>2017-08-01T12:43:13Z</time>
      </trkpt>
      <trkpt lat="43.2493563741" lon="2.6689220220">
        <ele>59.74</ele>
        <time>2017-08-01T12:43:14Z</time>
      </trkpt>
      <trkpt lat="43.2493767422" lon="2.6689198427">
        <ele>59.26</ele>
        <time>2017-08-01T12:43:15Z</time>
      </trkpt>
      <trkpt lat="43.2493966073" lon="2.6689141430">
        <ele>59.26</ele>
        <time>2017-08-01T12:43:16Z</time>
      </trkpt>
      <trkpt lat="43.2496041432" lon="2.6688461658">
        <ele>56.37</ele>
        <time>2017-08-01T12:43:22Z</time>
      </trkpt>
      <trkpt lat="43.2498970069" lon="2.6687092893">
        <ele>56.37</ele>
        <time>2017-08-01T12:43:29Z</time>
      </trkpt>
      <trkpt lat="43.2499626372" lon="2.6685657911">
        <ele>57.34</ele>
        <time>2017-08-01T12:43:37Z</time>
      </trkpt>
      <trkpt lat="43.2499933150" lon="2.6684844866">
        <ele>57.34</ele>
        <time>2017-08-01T12:43:43Z</time>
      </trkpt>
      <trkpt lat="43.2500234060" lon="2.6683865022">
        <ele>57.34</ele>
        <time>2017-08-01T12:43:50Z</time>
      </trkpt>
      <trkpt lat="43.2500327099" lon="2.6683693193">
        <ele>57.82</ele>
        <time>2017-08-01T12:43:51Z</time>
      </trkpt>
      <trkpt lat="43.2500415947" lon="2.6683538128">
        <ele>57.82</ele>
        <time>2017-08-01T12:43:52Z</time>
      </trkpt>
      <trkpt lat="43.2500482164" lon="2.6683366299">
        <ele>57.34</ele>
        <time>2017-08-01T12:43:53Z</time>
      </trkpt>
      <trkpt lat="43.2500545029" lon="2.6683175191">
        <ele>57.34</ele>
        <time>2017-08-01T12:43:54Z</time>
      </trkpt>
      <trkpt lat="43.2500608731" lon="2.6683012582">
        <ele>57.34</ele>
        <time>2017-08-01T12:43:55Z</time>
      </trkpt>
      <trkpt lat="43.2501087338" lon="2.6681557484">
        <ele>57.34</ele>
        <time>2017-08-01T12:44:05Z</time>
      </trkpt>
      <trkpt lat="43.2501429319" lon="2.6680505555">
        <ele>56.86</ele>
        <time>2017-08-01T12:44:11Z</time>
      </trkpt>
      <trkpt lat="43.2501938939" lon="2.6679065544">
        <ele>56.86</ele>
        <time>2017-08-01T12:44:21Z</time>
      </trkpt>
      <trkpt lat="43.2502348814" lon="2.6677939855">
        <ele>55.89</ele>
        <time>2017-08-01T12:44:31Z</time>
      </trkpt>
      <trkpt lat="43.2502468675" lon="2.6677679177">
        <ele>55.89</ele>
        <time>2017-08-01T12:44:41Z</time>
      </trkpt>
      <trkpt lat="43.2502603624" lon="2.6677466277">
        <ele>55.89</ele>
        <time>2017-08-01T12:44:43Z</time>
      </trkpt>
      <trkpt lat="43.2502698340" lon="2.6677208114">
        <ele>55.89</ele>
        <time>2017-08-01T12:44:44Z</time>
      </trkpt>
      <trkpt lat="43.2502831612" lon="2.6676871162">
        <ele>55.89</ele>
        <time>2017-08-01T12:44:45Z</time>
      </trkpt>
      <trkpt lat="43.2502971590" lon="2.6676497329">
        <ele>55.89</ele>
        <time>2017-08-01T12:44:46Z</time>
      </trkpt>
      <trkpt lat="43.2503088936" lon="2.6676053088">
        <ele>55.89</ele>
        <time>2017-08-01T12:44:47Z</time>
      </trkpt>
      <trkpt lat="43.2503212150" lon="2.6675535925">
        <ele>55.89</ele>
        <time>2017-08-01T12:44:48Z</time>
      </trkpt>
      <trkpt lat="43.2505064551" lon="2.6670338307">
        <ele>55.89</ele>
        <time>2017-08-01T12:44:59Z</time>
      </trkpt>
      <trkpt lat="43.2507557329" lon="2.6666910108">
        <ele>55.89</ele>
        <time>2017-08-01T12:45:08Z</time>
      </trkpt>
      <trkpt lat="43.2508234587" lon="2.6664183475">
        <ele>55.89</ele>
        <time>2017-08-01T12:45:15Z</time>
      </trkpt>
      <trkpt lat="43.2508591656" lon="2.6662419923">
        <ele>55.41</ele>
        <time>2017-08-01T12:45:23Z</time>
      </trkpt>
      <trkpt lat="43.2509319205" lon="2.6660232246">
        <ele>56.37</ele>
        <time>2017-08-01T12:45:33Z</time>
      </trkpt>
      <trkpt lat="43.2509444933" lon="2.6660057064">
        <ele>56.37</ele>
        <time>2017-08-01T12:45:34Z</time>
      </trkpt>
      <trkpt lat="43.2509623468" lon="2.6659883559">
        <ele>55.89</ele>
        <time>2017-08-01T12:45:35Z</time>
      </trkpt>
      <trkpt lat="43.2510502730" lon="2.6658963226">
        <ele>57.34</ele>
        <time>2017-08-01T12:45:41Z</time>
      </trkpt>
      <trkpt lat="43.2510613371" lon="2.6658715121">
        <ele>57.34</ele>
        <time>2017-08-01T12:45:42Z</time>
      </trkpt>
      <trkpt lat="43.2510859799" lon="2.6658197120">
        <ele>57.82</ele>
        <time>2017-08-01T12:45:44Z</time>
      </trkpt>
      <trkpt lat="43.2511040848" lon="2.6658023614">
        <ele>58.30</ele>
        <time>2017-08-01T12:45:45Z</time>
      </trkpt>
      <trkpt lat="43.2511221897" lon="2.6657905430">
        <ele>58.30</ele>
        <time>2017-08-01T12:45:46Z</time>
      </trkpt>
      <trkpt lat="43.2511376962" lon="2.6657690853">
        <ele>58.30</ele>
        <time>2017-08-01T12:45:47Z</time>
      </trkpt>
      <trkpt lat="43.2511523645" lon="2.6657378208">
        <ele>58.30</ele>
        <time>2017-08-01T12:45:48Z</time>
      </trkpt>
      <trkpt lat="43.2511695474" lon="2.6657128427">
        <ele>58.30</ele>
        <time>2017-08-01T12:45:49Z</time>
      </trkpt>
      <trkpt lat="43.2514275424" lon="2.6655612979">
        <ele>58.30</ele>
        <time>2017-08-01T12:45:57Z</time>
      </trkpt>
      <trkpt lat="43.2517323922" lon="2.6657856815">
        <ele>58.30</ele>
        <time>2017-08-01T12:46:05Z</time>
      </trkpt>
      <trkpt lat="43.2518867031" lon="2.6659566723">
        <ele>57.82</ele>
        <time>2017-08-01T12:46:09Z</time>
      </trkpt>
      <trkpt lat="43.2523491327" lon="2.6664620172">
        <ele>58.78</ele>
        <time>2017-08-01T12:46:23Z</time>
      </trkpt>
      <trkpt lat="43.2524160203" lon="2.6665299945">
        <ele>58.78</ele>
        <time>2017-08-01T12:46:25Z</time>
      </trkpt>
      <trkpt lat="43.2527667191" lon="2.6669227704">
        <ele>58.78</ele>
        <time>2017-08-01T12:46:36Z</time>
      </trkpt>
      <trkpt lat="43.2527973130" lon="2.6669598185">
        <ele>58.78</ele>
        <time>2017-08-01T12:46:37Z</time>
      </trkpt>
      <trkpt lat="43.2528257277" lon="2.6670020632">
        <ele>58.78</ele>
        <time>2017-08-01T12:46:38Z</time>
      </trkpt>
      <trkpt lat="43.2528549805" lon="2.6670444757">
        <ele>58.30</ele>
        <time>2017-08-01T12:46:39Z</time>
      </trkpt>
      <trkpt lat="43.2528877538" lon="2.6670855470">
        <ele>58.78</ele>
        <time>2017-08-01T12:46:40Z</time>
      </trkpt>
      <trkpt lat="43.2529207785" lon="2.6671262830">
        <ele>58.78</ele>
        <time>2017-08-01T12:46:41Z</time>
      </trkpt>
      <trkpt lat="43.2531088684" lon="2.6673799194">
        <ele>58.78</ele>
        <time>2017-08-01T12:46:47Z</time>
      </trkpt>
      <trkpt lat="43.2532299869" lon="2.6675599627">
        <ele>58.30</ele>
        <time>2017-08-01T12:46:51Z</time>
      </trkpt>
      <trkpt lat="43.2534303144" lon="2.6679430157">
        <ele>57.82</ele>
        <time>2017-08-01T12:46:58Z</time>
      </trkpt>
      <trkpt lat="43.2534437254" lon="2.6680024434">
        <ele>57.34</ele>
        <time>2017-08-01T12:46:59Z</time>
      </trkpt>
      <trkpt lat="43.2534475811" lon="2.6680555847">
        <ele>57.82</ele>
        <time>2017-08-01T12:47:00Z</time>
      </trkpt>
      <trkpt lat="43.2534490060" lon="2.6681014337">
        <ele>57.82</ele>
        <time>2017-08-01T12:47:01Z</time>
      </trkpt>
      <trkpt lat="43.2534538675" lon="2.6681451034">
        <ele>58.30</ele>
        <time>2017-08-01T12:47:02Z</time>
      </trkpt>
      <trkpt lat="43.2534613274" lon="2.6681898627">
        <ele>58.30</ele>
        <time>2017-08-01T12:47:03Z</time>
      </trkpt>
      <trkpt lat="43.2535334118" lon="2.6684611011">
        <ele>58.78</ele>
        <time>2017-08-01T12:47:09Z</time>
      </trkpt>
      <trkpt lat="43.2536162250" lon="2.6686647814">
        <ele>58.78</ele>
        <time>2017-08-01T12:47:13Z</time>
      </trkpt>
      <trkpt lat="43.2536366768" lon="2.6687163301">
        <ele>58.78</ele>
        <time>2017-08-01T12:47:14Z</time>
      </trkpt>
      <trkpt lat="43.2538926601" lon="2.6692473236">
        <ele>58.78</ele>
        <time>2017-08-01T12:47:25Z</time>
      </trkpt>
      <trkpt lat="43.2541087456" lon="2.6696468890">
        <ele>58.78</ele>
        <time>2017-08-01T12:47:36Z</time>
      </trkpt>
      <trkpt lat="43.2542844303" lon="2.6699344721">
        <ele>59.26</ele>
        <time>2017-08-01T12:47:46Z</time>
      </trkpt>
      <trkpt lat="43.2545146812" lon="2.6703203749">
        <ele>59.26</ele>
        <time>2017-08-01T12:47:55Z</time>
      </trkpt>
      <trkpt lat="43.2546689082" lon="2.6706046890">
        <ele>58.78</ele>
        <time>2017-08-01T12:48:01Z</time>
      </trkpt>
      <trkpt lat="43.2549196947" lon="2.6710696332">
        <ele>63.10</ele>
        <time>2017-08-01T12:48:12Z</time>
      </trkpt>
      <trkpt lat="43.2549439184" lon="2.6711133029">
        <ele>60.70</ele>
        <time>2017-08-01T12:48:13Z</time>
      </trkpt>
      <trkpt lat="43.2550727483" lon="2.6713320706">
        <ele>57.34</ele>
        <time>2017-08-01T12:48:18Z</time>
      </trkpt>
      <trkpt lat="43.2550995704" lon="2.6713760756">
        <ele>63.10</ele>
        <time>2017-08-01T12:48:19Z</time>
      </trkpt>
      <trkpt lat="43.2551273145" lon="2.6714194939">
        <ele>59.26</ele>
        <time>2017-08-01T12:48:20Z</time>
      </trkpt>
      <trkpt lat="43.2554501016" lon="2.6719461288">
        <ele>59.74</ele>
        <time>2017-08-01T12:48:31Z</time>
      </trkpt>
      <trkpt lat="43.2554806955" lon="2.6719973423">
        <ele>59.74</ele>
        <time>2017-08-01T12:48:32Z</time>
      </trkpt>
      <trkpt lat="43.2559067477" lon="2.6726732589">
        <ele>59.26</ele>
        <time>2017-08-01T12:48:45Z</time>
      </trkpt>
      <trkpt lat="43.2564215641" lon="2.6733985450">
        <ele>58.78</ele>
        <time>2017-08-01T12:48:59Z</time>
      </trkpt>
      <trkpt lat="43.2568003424" lon="2.6739442069">
        <ele>58.30</ele>
        <time>2017-08-01T12:49:10Z</time>
      </trkpt>
      <trkpt lat="43.2569102291" lon="2.6740809157">
        <ele>58.78</ele>
        <time>2017-08-01T12:49:13Z</time>
      </trkpt>
      <trkpt lat="43.2569439244" lon="2.6741330512">
        <ele>58.30</ele>
        <time>2017-08-01T12:49:14Z</time>
      </trkpt>
      <trkpt lat="43.2572729979" lon="2.6745796390">
        <ele>58.78</ele>
        <time>2017-08-01T12:49:23Z</time>
      </trkpt>
      <trkpt lat="43.2573097106" lon="2.6746236440">
        <ele>58.30</ele>
        <time>2017-08-01T12:49:24Z</time>
      </trkpt>
      <trkpt lat="43.2577347569" lon="2.6751534641">
        <ele>58.78</ele>
        <time>2017-08-01T12:49:35Z</time>
      </trkpt>
      <trkpt lat="43.2581998687" lon="2.6756999642">
        <ele>58.30</ele>
        <time>2017-08-01T12:49:47Z</time>
      </trkpt>
      <trkpt lat="43.2582418621" lon="2.6757384371">
        <ele>58.30</ele>
        <time>2017-08-01T12:49:48Z</time>
      </trkpt>
      <trkpt lat="43.2587158587" lon="2.6762483083">
        <ele>58.30</ele>
        <time>2017-08-01T12:50:00Z</time>
      </trkpt>
      <trkpt lat="43.2591781206" lon="2.6768545713">
        <ele>58.78</ele>
        <time>2017-08-01T12:50:12Z</time>
      </trkpt>
      <trkpt lat="43.2592361234" lon="2.6769815572">
        <ele>58.30</ele>
        <time>2017-08-01T12:50:14Z</time>
      </trkpt>
      <trkpt lat="43.2592581678" lon="2.6770504564">
        <ele>58.30</ele>
        <time>2017-08-01T12:50:15Z</time>
      </trkpt>
      <trkpt lat="43.2592765242" lon="2.6771208644">
        <ele>58.30</ele>
        <time>2017-08-01T12:50:16Z</time>
      </trkpt>
      <trkpt lat="43.2593163382" lon="2.6773417275">
        <ele>57.82</ele>
        <time>2017-08-01T12:50:19Z</time>
      </trkpt>
      <trkpt lat="43.2593149971" lon="2.6774168294">
        <ele>57.82</ele>
        <time>2017-08-01T12:50:20Z</time>
      </trkpt>
      <trkpt lat="43.2593140751" lon="2.6774924342">
        <ele>57.82</ele>
        <time>2017-08-01T12:50:21Z</time>
      </trkpt>
      <trkpt lat="43.2593210321" lon="2.6775687933">
        <ele>57.82</ele>
        <time>2017-08-01T12:50:22Z</time>
      </trkpt>
      <trkpt lat="43.2593299169" lon="2.6776443981">
        <ele>57.82</ele>
        <time>2017-08-01T12:50:23Z</time>
      </trkpt>
      <trkpt lat="43.2593859080" lon="2.6782783214">
        <ele>57.82</ele>
        <time>2017-08-01T12:50:31Z</time>
      </trkpt>
      <trkpt lat="43.2595374528" lon="2.6792398095">
        <ele>57.34</ele>
        <time>2017-08-01T12:50:44Z</time>
      </trkpt>
      <trkpt lat="43.2596610859" lon="2.6796097867">
        <ele>57.82</ele>
        <time>2017-08-01T12:50:50Z</time>
      </trkpt>
      <trkpt lat="43.2599567156" lon="2.6802392676">
        <ele>57.34</ele>
        <time>2017-08-01T12:51:01Z</time>
      </trkpt>
      <trkpt lat="43.2600034028" lon="2.6803410240">
        <ele>57.34</ele>
        <time>2017-08-01T12:51:03Z</time>
      </trkpt>
      <trkpt lat="43.2600524370" lon="2.6804338116">
        <ele>57.34</ele>
        <time>2017-08-01T12:51:05Z</time>
      </trkpt>
      <trkpt lat="43.2600744814" lon="2.6804800797">
        <ele>57.34</ele>
        <time>2017-08-01T12:51:06Z</time>
      </trkpt>
      <trkpt lat="43.2603588793" lon="2.6810752787">
        <ele>56.86</ele>
        <time>2017-08-01T12:51:17Z</time>
      </trkpt>
      <trkpt lat="43.2604417764" lon="2.6812673081">
        <ele>56.86</ele>
        <time>2017-08-01T12:51:20Z</time>
      </trkpt>
      <trkpt lat="43.2605003659" lon="2.6813909411">
        <ele>56.86</ele>
        <time>2017-08-01T12:51:22Z</time>
      </trkpt>
      <trkpt lat="43.2605276071" lon="2.6814519614">
        <ele>57.34</ele>
        <time>2017-08-01T12:51:23Z</time>
      </trkpt>
      <trkpt lat="43.2605588716" lon="2.6815105509">
        <ele>57.34</ele>
        <time>2017-08-01T12:51:24Z</time>
      </trkpt>
      <trkpt lat="43.2608273439" lon="2.6820518542">
        <ele>57.34</ele>
        <time>2017-08-01T12:51:33Z</time>
      </trkpt>
      <trkpt lat="43.2608471252" lon="2.6821202505">
        <ele>57.82</ele>
        <time>2017-08-01T12:51:34Z</time>
      </trkpt>
      <trkpt lat="43.2608671580" lon="2.6821884792">
        <ele>57.82</ele>
        <time>2017-08-01T12:51:35Z</time>
      </trkpt>
      <trkpt lat="43.2610526495" lon="2.6828713529">
        <ele>57.34</ele>
        <time>2017-08-01T12:51:45Z</time>
      </trkpt>
      <trkpt lat="43.2611897774" lon="2.6836114749">
        <ele>57.34</ele>
        <time>2017-08-01T12:51:55Z</time>
      </trkpt>
      <trkpt lat="43.2613344491" lon="2.6844029780">
        <ele>57.34</ele>
        <time>2017-08-01T12:52:06Z</time>
      </trkpt>
      <trkpt lat="43.2614911906" lon="2.6852189563">
        <ele>57.34</ele>
        <time>2017-08-01T12:52:18Z</time>
      </trkpt>
      <trkpt lat="43.2615227904" lon="2.6854062919">
        <ele>57.34</ele>
        <time>2017-08-01T12:52:21Z</time>
      </trkpt>
      <trkpt lat="43.2615372073" lon="2.6854694914">
        <ele>57.34</ele>
        <time>2017-08-01T12:52:22Z</time>
      </trkpt>
      <trkpt lat="43.2615522109" lon="2.6855329424">
        <ele>57.34</ele>
        <time>2017-08-01T12:52:23Z</time>
      </trkpt>
      <trkpt lat="43.2616025861" lon="2.6857930329">
        <ele>56.86</ele>
        <time>2017-08-01T12:52:27Z</time>
      </trkpt>
      <trkpt lat="43.2616237085" lon="2.6858507004">
        <ele>56.86</ele>
        <time>2017-08-01T12:52:28Z</time>
      </trkpt>
      <trkpt lat="43.2616781071" lon="2.6860234514">
        <ele>56.86</ele>
        <time>2017-08-01T12:52:31Z</time>
      </trkpt>
      <trkpt lat="43.2616902608" lon="2.6860902552">
        <ele>56.86</ele>
        <time>2017-08-01T12:52:32Z</time>
      </trkpt>
      <trkpt lat="43.2617164962" lon="2.6862254553">
        <ele>56.86</ele>
        <time>2017-08-01T12:52:34Z</time>
      </trkpt>
      <trkpt lat="43.2617324218" lon="2.6862916723">
        <ele>56.86</ele>
        <time>2017-08-01T12:52:35Z</time>
      </trkpt>
      <trkpt lat="43.2617961243" lon="2.6865400281">
        <ele>55.89</ele>
        <time>2017-08-01T12:52:39Z</time>
      </trkpt>
      <trkpt lat="43.2618527021" lon="2.6866982784">
        <ele>56.86</ele>
        <time>2017-08-01T12:52:42Z</time>
      </trkpt>
      <trkpt lat="43.2619034126" lon="2.6871643122">
        <ele>55.89</ele>
        <time>2017-08-01T12:52:51Z</time>
      </trkpt>
      <trkpt lat="43.2619034965" lon="2.6872317027">
        <ele>55.89</ele>
        <time>2017-08-01T12:52:52Z</time>
      </trkpt>
      <trkpt lat="43.2618996408" lon="2.6873809006">
        <ele>55.41</ele>
        <time>2017-08-01T12:52:54Z</time>
      </trkpt>
      <trkpt lat="43.2619050052" lon="2.6874599420">
        <ele>55.41</ele>
        <time>2017-08-01T12:52:55Z</time>
      </trkpt>
      <trkpt lat="43.2620391995" lon="2.6882703044">
        <ele>54.45</ele>
        <time>2017-08-01T12:53:06Z</time>
      </trkpt>
      <trkpt lat="43.2621420454" lon="2.6887948439">
        <ele>54.45</ele>
        <time>2017-08-01T12:53:13Z</time>
      </trkpt>
      <trkpt lat="43.2621752378" lon="2.6889331453">
        <ele>54.45</ele>
        <time>2017-08-01T12:53:15Z</time>
      </trkpt>
      <trkpt lat="43.2623306382" lon="2.6897592656">
        <ele>54.45</ele>
        <time>2017-08-01T12:53:26Z</time>
      </trkpt>
      <trkpt lat="43.2624054048" lon="2.6901614293">
        <ele>53.97</ele>
        <time>2017-08-01T12:53:31Z</time>
      </trkpt>
      <trkpt lat="43.2626070734" lon="2.6912582014">
        <ele>53.97</ele>
        <time>2017-08-01T12:53:45Z</time>
      </trkpt>
      <trkpt lat="43.2626831811" lon="2.6917125005">
        <ele>54.45</ele>
        <time>2017-08-01T12:53:51Z</time>
      </trkpt>
      <trkpt lat="43.2628886215" lon="2.6928276289">
        <ele>54.45</ele>
        <time>2017-08-01T12:54:05Z</time>
      </trkpt>
      <trkpt lat="43.2631306071" lon="2.6937829144">
        <ele>54.45</ele>
        <time>2017-08-01T12:54:18Z</time>
      </trkpt>
      <trkpt lat="43.2634233870" lon="2.6946263015">
        <ele>53.97</ele>
        <time>2017-08-01T12:54:30Z</time>
      </trkpt>
      <trkpt lat="43.2635674719" lon="2.6950318180">
        <ele>53.97</ele>
        <time>2017-08-01T12:54:36Z</time>
      </trkpt>
      <trkpt lat="43.2635906059" lon="2.6950956881">
        <ele>53.49</ele>
        <time>2017-08-01T12:54:37Z</time>
      </trkpt>
      <trkpt lat="43.2636134047" lon="2.6951595582">
        <ele>53.97</ele>
        <time>2017-08-01T12:54:38Z</time>
      </trkpt>
      <trkpt lat="43.2638740819" lon="2.6959087327">
        <ele>53.49</ele>
        <time>2017-08-01T12:54:50Z</time>
      </trkpt>
      <trkpt lat="43.2638978027" lon="2.6959670708">
        <ele>53.49</ele>
        <time>2017-08-01T12:54:51Z</time>
      </trkpt>
      <trkpt lat="43.2639241219" lon="2.6960174460">
        <ele>53.49</ele>
        <time>2017-08-01T12:54:52Z</time>
      </trkpt>
      <trkpt lat="43.2639843877" lon="2.6961093955">
        <ele>53.49</ele>
        <time>2017-08-01T12:54:54Z</time>
      </trkpt>
      <trkpt lat="43.2640212681" lon="2.6961499639">
        <ele>53.49</ele>
        <time>2017-08-01T12:54:55Z</time>
      </trkpt>
      <trkpt lat="43.2640594896" lon="2.6961923763">
        <ele>53.49</ele>
        <time>2017-08-01T12:54:56Z</time>
      </trkpt>
      <trkpt lat="43.2640920952" lon="2.6962440088">
        <ele>53.49</ele>
        <time>2017-08-01T12:54:57Z</time>
      </trkpt>
      <trkpt lat="43.2641174085" lon="2.6963030174">
        <ele>53.49</ele>
        <time>2017-08-01T12:54:58Z</time>
      </trkpt>
      <trkpt lat="43.2641377766" lon="2.6963637862">
        <ele>53.49</ele>
        <time>2017-08-01T12:54:59Z</time>
      </trkpt>
      <trkpt lat="43.2641548757" lon="2.6964254770">
        <ele>53.49</ele>
        <time>2017-08-01T12:55:00Z</time>
      </trkpt>
      <trkpt lat="43.2642687019" lon="2.6967940293">
        <ele>53.49</ele>
        <time>2017-08-01T12:55:06Z</time>
      </trkpt>
      <trkpt lat="43.2642873097" lon="2.6968495175">
        <ele>53.49</ele>
        <time>2017-08-01T12:55:07Z</time>
      </trkpt>
      <trkpt lat="43.2643408701" lon="2.6970210951">
        <ele>53.97</ele>
        <time>2017-08-01T12:55:10Z</time>
      </trkpt>
      <trkpt lat="43.2643615734" lon="2.6970775891">
        <ele>53.49</ele>
        <time>2017-08-01T12:55:11Z</time>
      </trkpt>
      <trkpt lat="43.2644159719" lon="2.6972497534">
        <ele>53.97</ele>
        <time>2017-08-01T12:55:14Z</time>
      </trkpt>
      <trkpt lat="43.2644302212" lon="2.6973106060">
        <ele>53.97</ele>
        <time>2017-08-01T12:55:15Z</time>
      </trkpt>
      <trkpt lat="43.2645638287" lon="2.6977902185">
        <ele>55.89</ele>
        <time>2017-08-01T12:55:26Z</time>
      </trkpt>
      <trkpt lat="43.2645697799" lon="2.6978153642">
        <ele>55.89</ele>
        <time>2017-08-01T12:55:27Z</time>
      </trkpt>
      <trkpt lat="43.2646727934" lon="2.6981420070">
        <ele>54.93</ele>
        <time>2017-08-01T12:55:36Z</time>
      </trkpt>
      <trkpt lat="43.2646960951" lon="2.6981998421">
        <ele>54.93</ele>
        <time>2017-08-01T12:55:37Z</time>
      </trkpt>
      <trkpt lat="43.2647475600" lon="2.6983214635">
        <ele>54.45</ele>
        <time>2017-08-01T12:55:39Z</time>
      </trkpt>
      <trkpt lat="43.2647641562" lon="2.6983888540">
        <ele>54.45</ele>
        <time>2017-08-01T12:55:40Z</time>
      </trkpt>
      <trkpt lat="43.2647944987" lon="2.6985169295">
        <ele>53.97</ele>
        <time>2017-08-01T12:55:42Z</time>
      </trkpt>
      <trkpt lat="43.2650046330" lon="2.6991625875">
        <ele>53.97</ele>
        <time>2017-08-01T12:55:54Z</time>
      </trkpt>
      <trkpt lat="43.2652777154" lon="2.6998768933">
        <ele>54.93</ele>
        <time>2017-08-01T12:56:07Z</time>
      </trkpt>
      <trkpt lat="43.2654180285" lon="2.7002476249">
        <ele>54.93</ele>
        <time>2017-08-01T12:56:14Z</time>
      </trkpt>
      <trkpt lat="43.2654381450" lon="2.7003046218">
        <ele>54.93</ele>
        <time>2017-08-01T12:56:15Z</time>
      </trkpt>
      <trkpt lat="43.2654585969" lon="2.7003608644">
        <ele>54.93</ele>
        <time>2017-08-01T12:56:16Z</time>
      </trkpt>
      <trkpt lat="43.2655160967" lon="2.7005273290">
        <ele>54.93</ele>
        <time>2017-08-01T12:56:19Z</time>
      </trkpt>
      <trkpt lat="43.2657252252" lon="2.7011852246">
        <ele>55.89</ele>
        <time>2017-08-01T12:56:31Z</time>
      </trkpt>
      <trkpt lat="43.2658302505" lon="2.7015527710">
        <ele>53.97</ele>
        <time>2017-08-01T12:56:40Z</time>
      </trkpt>
      <trkpt lat="43.2658135705" lon="2.7015800122">
        <ele>53.97</ele>
        <time>2017-08-01T12:56:41Z</time>
      </trkpt>
      <trkpt lat="43.2657856587" lon="2.7015961893">
        <ele>53.97</ele>
        <time>2017-08-01T12:56:42Z</time>
      </trkpt>
      <trkpt lat="43.2657554001" lon="2.7016051579">
        <ele>53.97</ele>
        <time>2017-08-01T12:56:43Z</time>
      </trkpt>
      <trkpt lat="43.2657247223" lon="2.7016098518">
        <ele>53.97</ele>
        <time>2017-08-01T12:56:44Z</time>
      </trkpt>
      <trkpt lat="43.2656922843" lon="2.7016080078">
        <ele>53.97</ele>
        <time>2017-08-01T12:56:45Z</time>
      </trkpt>
      <trkpt lat="43.2656601816" lon="2.7016012184">
        <ele>53.97</ele>
        <time>2017-08-01T12:56:46Z</time>
      </trkpt>
      <trkpt lat="43.2656294201" lon="2.7015963569">
        <ele>53.97</ele>
        <time>2017-08-01T12:56:47Z</time>
      </trkpt>
      <trkpt lat="43.2652964909" lon="2.7016215865">
        <ele>53.97</ele>
        <time>2017-08-01T12:56:56Z</time>
      </trkpt>
      <trkpt lat="43.2650431059" lon="2.7017824352">
        <ele>53.97</ele>
        <time>2017-08-01T12:57:04Z</time>
      </trkpt>
      <trkpt lat="43.2650322933" lon="2.7018344868">
        <ele>53.97</ele>
        <time>2017-08-01T12:57:05Z</time>
      </trkpt>
      <trkpt lat="43.2650294434" lon="2.7018896397">
        <ele>53.97</ele>
        <time>2017-08-01T12:57:06Z</time>
      </trkpt>
      <trkpt lat="43.2650445309" lon="2.7020753827">
        <ele>53.97</ele>
        <time>2017-08-01T12:57:09Z</time>
      </trkpt>
      <trkpt lat="43.2650514040" lon="2.7021367382">
        <ele>53.97</ele>
        <time>2017-08-01T12:57:10Z</time>
      </trkpt>
      <trkpt lat="43.2650563493" lon="2.7021948248">
        <ele>53.97</ele>
        <time>2017-08-01T12:57:11Z</time>
      </trkpt>
      <trkpt lat="43.2650906313" lon="2.7024911251">
        <ele>53.97</ele>
        <time>2017-08-01T12:57:16Z</time>
      </trkpt>
      <trkpt lat="43.2651074789" lon="2.7025462780">
        <ele>53.97</ele>
        <time>2017-08-01T12:57:17Z</time>
      </trkpt>
      <trkpt lat="43.2651271764" lon="2.7025990840">
        <ele>53.97</ele>
        <time>2017-08-01T12:57:18Z</time>
      </trkpt>
      <trkpt lat="43.2651500590" lon="2.7026487887">
        <ele>53.97</ele>
        <time>2017-08-01T12:57:19Z</time>
      </trkpt>
      <trkpt lat="43.2651742827" lon="2.7026969008">
        <ele>53.97</ele>
        <time>2017-08-01T12:57:20Z</time>
      </trkpt>
      <trkpt lat="43.2653650548" lon="2.7030954603">
        <ele>53.49</ele>
        <time>2017-08-01T12:57:29Z</time>
      </trkpt>
      <trkpt lat="43.2654512208" lon="2.7034137212">
        <ele>53.97</ele>
        <time>2017-08-01T12:57:35Z</time>
      </trkpt>
      <trkpt lat="43.2654565852" lon="2.7034719754">
        <ele>53.97</ele>
        <time>2017-08-01T12:57:36Z</time>
      </trkpt>
      <trkpt lat="43.2654581778" lon="2.7035296429">
        <ele>53.97</ele>
        <time>2017-08-01T12:57:37Z</time>
      </trkpt>
      <trkpt lat="43.2654578425" lon="2.7035825327">
        <ele>53.97</ele>
        <time>2017-08-01T12:57:38Z</time>
      </trkpt>
      <trkpt lat="43.2654608600" lon="2.7036364283">
        <ele>53.97</ele>
        <time>2017-08-01T12:57:39Z</time>
      </trkpt>
      <trkpt lat="43.2654704154" lon="2.7036874741">
        <ele>53.49</ele>
        <time>2017-08-01T12:57:40Z</time>
      </trkpt>
      <trkpt lat="43.2654885203" lon="2.7037326526">
        <ele>53.49</ele>
        <time>2017-08-01T12:57:41Z</time>
      </trkpt>
      <trkpt lat="43.2655139174" lon="2.7037731372">
        <ele>53.97</ele>
        <time>2017-08-01T12:57:42Z</time>
      </trkpt>
      <trkpt lat="43.2655443437" lon="2.7038029768">
        <ele>53.97</ele>
        <time>2017-08-01T12:57:43Z</time>
      </trkpt>
      <trkpt lat="43.2655839901" lon="2.7038206626">
        <ele>53.97</ele>
        <time>2017-08-01T12:57:44Z</time>
      </trkpt>
      <trkpt lat="43.2656283304" lon="2.7038221713">
        <ele>53.97</ele>
        <time>2017-08-01T12:57:45Z</time>
      </trkpt>
      <trkpt lat="43.2656743471" lon="2.7038132865">
        <ele>53.97</ele>
        <time>2017-08-01T12:57:46Z</time>
      </trkpt>
      <trkpt lat="43.2657206152" lon="2.7038009651">
        <ele>53.97</ele>
        <time>2017-08-01T12:57:47Z</time>
      </trkpt>
      <trkpt lat="43.2657657098" lon="2.7037850395">
        <ele>53.97</ele>
        <time>2017-08-01T12:57:48Z</time>
      </trkpt>
      <trkpt lat="43.2658098824" lon="2.7037749812">
        <ele>53.97</ele>
        <time>2017-08-01T12:57:49Z</time>
      </trkpt>
      <trkpt lat="43.2658548094" lon="2.7037745621">
        <ele>53.97</ele>
        <time>2017-08-01T12:57:50Z</time>
      </trkpt>
      <trkpt lat="43.2659017481" lon="2.7037688624">
        <ele>53.97</ele>
        <time>2017-08-01T12:57:51Z</time>
      </trkpt>
      <trkpt lat="43.2659472618" lon="2.7037498355">
        <ele>54.45</ele>
        <time>2017-08-01T12:57:52Z</time>
      </trkpt>
      <trkpt lat="43.2659939490" lon="2.7037237678">
        <ele>54.45</ele>
        <time>2017-08-01T12:57:53Z</time>
      </trkpt>
      <trkpt lat="43.2660402171" lon="2.7037034836">
        <ele>53.97</ele>
        <time>2017-08-01T12:57:54Z</time>
      </trkpt>
      <trkpt lat="43.2661304064" lon="2.7036713809">
        <ele>53.97</ele>
        <time>2017-08-01T12:57:56Z</time>
      </trkpt>
      <trkpt lat="43.2662178297" lon="2.7036582213">
        <ele>53.97</ele>
        <time>2017-08-01T12:57:58Z</time>
      </trkpt>
      <trkpt lat="43.2662615832" lon="2.7036595624">
        <ele>53.97</ele>
        <time>2017-08-01T12:57:59Z</time>
      </trkpt>
      <trkpt lat="43.2663038280" lon="2.7036720514">
        <ele>53.97</ele>
        <time>2017-08-01T12:58:00Z</time>
      </trkpt>
      <trkpt lat="43.2663426362" lon="2.7036945149">
        <ele>53.97</ele>
        <time>2017-08-01T12:58:01Z</time>
      </trkpt>
      <trkpt lat="43.2663756609" lon="2.7037228458">
        <ele>53.97</ele>
        <time>2017-08-01T12:58:02Z</time>
      </trkpt>
      <trkpt lat="43.2664031535" lon="2.7037501708">
        <ele>53.97</ele>
        <time>2017-08-01T12:58:03Z</time>
      </trkpt>
      <trkpt lat="43.2664987072" lon="2.7039514203">
        <ele>53.97</ele>
        <time>2017-08-01T12:58:08Z</time>
      </trkpt>
      <trkpt lat="43.2665240206" lon="2.7040648274">
        <ele>53.97</ele>
        <time>2017-08-01T12:58:10Z</time>
      </trkpt>
      <trkpt lat="43.2665512618" lon="2.7041787375">
        <ele>53.97</ele>
        <time>2017-08-01T12:58:12Z</time>
      </trkpt>
      <trkpt lat="43.2666321471" lon="2.7045309450">
        <ele>53.97</ele>
        <time>2017-08-01T12:58:18Z</time>
      </trkpt>
      <trkpt lat="43.2666428760" lon="2.7045944799">
        <ele>53.97</ele>
        <time>2017-08-01T12:58:19Z</time>
      </trkpt>
      <trkpt lat="43.2666531019" lon="2.7046584338">
        <ele>53.97</ele>
        <time>2017-08-01T12:58:20Z</time>
      </trkpt>
      <trkpt lat="43.2666569576" lon="2.7047209628">
        <ele>53.97</ele>
        <time>2017-08-01T12:58:21Z</time>
      </trkpt>
      <trkpt lat="43.2666612323" lon="2.7047828212">
        <ele>53.97</ele>
        <time>2017-08-01T12:58:22Z</time>
      </trkpt>
      <trkpt lat="43.2666676026" lon="2.7048430871">
        <ele>53.97</ele>
        <time>2017-08-01T12:58:23Z</time>
      </trkpt>
      <trkpt lat="43.2666723803" lon="2.7049053647">
        <ele>53.97</ele>
        <time>2017-08-01T12:58:24Z</time>
      </trkpt>
      <trkpt lat="43.2666792534" lon="2.7049663011">
        <ele>53.97</ele>
        <time>2017-08-01T12:58:25Z</time>
      </trkpt>
      <trkpt lat="43.2666923292" lon="2.7050205320">
        <ele>53.97</ele>
        <time>2017-08-01T12:58:26Z</time>
      </trkpt>
      <trkpt lat="43.2667641621" lon="2.7052279003">
        <ele>53.97</ele>
        <time>2017-08-01T12:58:30Z</time>
      </trkpt>
      <trkpt lat="43.2667736337" lon="2.7052905969">
        <ele>53.97</ele>
        <time>2017-08-01T12:58:31Z</time>
      </trkpt>
      <trkpt lat="43.2667837758" lon="2.7054248750">
        <ele>53.97</ele>
        <time>2017-08-01T12:58:33Z</time>
      </trkpt>
      <trkpt lat="43.2668024674" lon="2.7057443932">
        <ele>53.97</ele>
        <time>2017-08-01T12:58:38Z</time>
      </trkpt>
      <trkpt lat="43.2667722087" lon="2.7061919030">
        <ele>53.49</ele>
        <time>2017-08-01T12:58:45Z</time>
      </trkpt>
      <trkpt lat="43.2667600550" lon="2.7063236665">
        <ele>53.49</ele>
        <time>2017-08-01T12:58:47Z</time>
      </trkpt>
      <trkpt lat="43.2667558640" lon="2.7063866984">
        <ele>53.49</ele>
        <time>2017-08-01T12:58:48Z</time>
      </trkpt>
      <trkpt lat="43.2667536847" lon="2.7064502332">
        <ele>53.49</ele>
        <time>2017-08-01T12:58:49Z</time>
      </trkpt>
      <trkpt lat="43.2667302992" lon="2.7067831624">
        <ele>53.49</ele>
        <time>2017-08-01T12:58:54Z</time>
      </trkpt>
      <trkpt lat="43.2667245157" lon="2.7068517264">
        <ele>53.49</ele>
        <time>2017-08-01T12:58:55Z</time>
      </trkpt>
      <trkpt lat="43.2666792534" lon="2.7076883242">
        <ele>53.49</ele>
        <time>2017-08-01T12:59:07Z</time>
      </trkpt>
      <trkpt lat="43.2666769065" lon="2.7077558823">
        <ele>53.49</ele>
        <time>2017-08-01T12:59:08Z</time>
      </trkpt>
      <trkpt lat="43.2666729670" lon="2.7078236919">
        <ele>53.49</ele>
        <time>2017-08-01T12:59:09Z</time>
      </trkpt>
      <trkpt lat="43.2666525152" lon="2.7084401809">
        <ele>53.01</ele>
        <time>2017-08-01T12:59:18Z</time>
      </trkpt>
      <trkpt lat="43.2666638307" lon="2.7093087137">
        <ele>53.01</ele>
        <time>2017-08-01T12:59:30Z</time>
      </trkpt>
      <trkpt lat="43.2667297125" lon="2.7102475706">
        <ele>53.01</ele>
        <time>2017-08-01T12:59:42Z</time>
      </trkpt>
      <trkpt lat="43.2668764796" lon="2.7112678997">
        <ele>53.01</ele>
        <time>2017-08-01T12:59:56Z</time>
      </trkpt>
      <trkpt lat="43.2671067305" lon="2.7123367600">
        <ele>52.53</ele>
        <time>2017-08-01T13:00:11Z</time>
      </trkpt>
      <trkpt lat="43.2672683336" lon="2.7131203841">
        <ele>53.01</ele>
        <time>2017-08-01T13:00:22Z</time>
      </trkpt>
      <trkpt lat="43.2673184574" lon="2.7135207877">
        <ele>53.01</ele>
        <time>2017-08-01T13:00:28Z</time>
      </trkpt>
      <trkpt lat="43.2673215587" lon="2.7135819755">
        <ele>53.01</ele>
        <time>2017-08-01T13:00:29Z</time>
      </trkpt>
      <trkpt lat="43.2673269231" lon="2.7136372123">
        <ele>53.49</ele>
        <time>2017-08-01T13:00:30Z</time>
      </trkpt>
      <trkpt lat="43.2673369814" lon="2.7136905212">
        <ele>53.49</ele>
        <time>2017-08-01T13:00:31Z</time>
      </trkpt>
      <trkpt lat="43.2673493866" lon="2.7137450874">
        <ele>53.49</ele>
        <time>2017-08-01T13:00:32Z</time>
      </trkpt>
      <trkpt lat="43.2673646417" lon="2.7137981448">
        <ele>53.49</ele>
        <time>2017-08-01T13:00:33Z</time>
      </trkpt>
      <trkpt lat="43.2673818246" lon="2.7138500288">
        <ele>53.49</ele>
        <time>2017-08-01T13:00:34Z</time>
      </trkpt>
      <trkpt lat="43.2673967443" lon="2.7139079478">
        <ele>53.49</ele>
        <time>2017-08-01T13:00:35Z</time>
      </trkpt>
      <trkpt lat="43.2674126700" lon="2.7139677107">
        <ele>53.49</ele>
        <time>2017-08-01T13:00:36Z</time>
      </trkpt>
      <trkpt lat="43.2674306910" lon="2.7140290663">
        <ele>53.01</ele>
        <time>2017-08-01T13:00:37Z</time>
      </trkpt>
      <trkpt lat="43.2674442697" lon="2.7140923496">
        <ele>53.01</ele>
        <time>2017-08-01T13:00:38Z</time>
      </trkpt>
      <trkpt lat="43.2674637157" lon="2.7142240293">
        <ele>53.01</ele>
        <time>2017-08-01T13:00:40Z</time>
      </trkpt>
      <trkpt lat="43.2675978262" lon="2.7147787437">
        <ele>53.01</ele>
        <time>2017-08-01T13:00:49Z</time>
      </trkpt>
      <trkpt lat="43.2676196191" lon="2.7148851939">
        <ele>53.01</ele>
        <time>2017-08-01T13:00:51Z</time>
      </trkpt>
      <trkpt lat="43.2676347066" lon="2.7149377484">
        <ele>53.01</ele>
        <time>2017-08-01T13:00:52Z</time>
      </trkpt>
      <trkpt lat="43.2676476147" lon="2.7149932366">
        <ele>53.01</ele>
        <time>2017-08-01T13:00:53Z</time>
      </trkpt>
      <trkpt lat="43.2676707488" lon="2.7151080687">
        <ele>53.01</ele>
        <time>2017-08-01T13:00:55Z</time>
      </trkpt>
      <trkpt lat="43.2676820643" lon="2.7151648141">
        <ele>53.01</ele>
        <time>2017-08-01T13:00:56Z</time>
      </trkpt>
      <trkpt lat="43.2677969802" lon="2.7157365438">
        <ele>53.01</ele>
        <time>2017-08-01T13:01:07Z</time>
      </trkpt>
      <trkpt lat="43.2679188531" lon="2.7162867319">
        <ele>52.53</ele>
        <time>2017-08-01T13:01:18Z</time>
      </trkpt>
      <trkpt lat="43.2680081204" lon="2.7166492492">
        <ele>52.53</ele>
        <time>2017-08-01T13:01:27Z</time>
      </trkpt>
      <trkpt lat="43.2681497745" lon="2.7171722800">
        <ele>52.53</ele>
        <time>2017-08-01T13:01:40Z</time>
      </trkpt>
      <trkpt lat="43.2681473438" lon="2.7171953302">
        <ele>52.53</ele>
        <time>2017-08-01T13:01:41Z</time>
      </trkpt>
      <trkpt lat="43.2681229524" lon="2.7172728628">
        <ele>52.53</ele>
        <time>2017-08-01T13:01:48Z</time>
      </trkpt>
      <trkpt lat="43.2681286521" lon="2.7172950748">
        <ele>52.53</ele>
        <time>2017-08-01T13:01:49Z</time>
      </trkpt>
      <trkpt lat="43.2681302447" lon="2.7173212264">
        <ele>52.53</ele>
        <time>2017-08-01T13:01:50Z</time>
      </trkpt>
      <trkpt lat="43.2681278978" lon="2.7173495572">
        <ele>52.53</ele>
        <time>2017-08-01T13:01:51Z</time>
      </trkpt>
      <trkpt lat="43.2681266405" lon="2.7173755411">
        <ele>52.53</ele>
        <time>2017-08-01T13:01:52Z</time>
      </trkpt>
      <trkpt lat="43.2681287359" lon="2.7173997648">
        <ele>52.53</ele>
        <time>2017-08-01T13:01:53Z</time>
      </trkpt>
      <trkpt lat="43.2681327593" lon="2.7174204681">
        <ele>53.01</ele>
        <time>2017-08-01T13:01:54Z</time>
      </trkpt>
      <trkpt lat="43.2681454159" lon="2.7174654789">
        <ele>52.53</ele>
        <time>2017-08-01T13:01:56Z</time>
      </trkpt>
      <trkpt lat="43.2681553904" lon="2.7174849249">
        <ele>52.53</ele>
        <time>2017-08-01T13:01:57Z</time>
      </trkpt>
      <trkpt lat="43.2681657840" lon="2.7175048739">
        <ele>52.53</ele>
        <time>2017-08-01T13:01:58Z</time>
      </trkpt>
      <trkpt lat="43.2681741659" lon="2.7175297681">
        <ele>52.53</ele>
        <time>2017-08-01T13:01:59Z</time>
      </trkpt>
      <trkpt lat="43.2681820448" lon="2.7175549138">
        <ele>52.53</ele>
        <time>2017-08-01T13:02:00Z</time>
      </trkpt>
      <trkpt lat="43.2681910973" lon="2.7175791375">
        <ele>52.53</ele>
        <time>2017-08-01T13:02:01Z</time>
      </trkpt>
      <trkpt lat="43.2681980543" lon="2.7176000085">
        <ele>52.53</ele>
        <time>2017-08-01T13:02:02Z</time>
      </trkpt>
      <trkpt lat="43.2682375330" lon="2.7176651359">
        <ele>53.01</ele>
        <time>2017-08-01T13:02:06Z</time>
      </trkpt>
      <trkpt lat="43.2682415564" lon="2.7176845819">
        <ele>52.53</ele>
        <time>2017-08-01T13:02:07Z</time>
      </trkpt>
      <trkpt lat="43.2682411373" lon="2.7177067101">
        <ele>52.53</ele>
        <time>2017-08-01T13:02:08Z</time>
      </trkpt>
      <trkpt lat="43.2682434842" lon="2.7177336160">
        <ele>52.53</ele>
        <time>2017-08-01T13:02:09Z</time>
      </trkpt>
      <trkpt lat="43.2682530396" lon="2.7177671436">
        <ele>52.53</ele>
        <time>2017-08-01T13:02:10Z</time>
      </trkpt>
      <trkpt lat="43.2682651933" lon="2.7178025991">
        <ele>52.53</ele>
        <time>2017-08-01T13:02:11Z</time>
      </trkpt>
      <trkpt lat="43.2682756707" lon="2.7178392280">
        <ele>52.53</ele>
        <time>2017-08-01T13:02:12Z</time>
      </trkpt>
      <trkpt lat="43.2682844717" lon="2.7178790420">
        <ele>52.53</ele>
        <time>2017-08-01T13:02:13Z</time>
      </trkpt>
      <trkpt lat="43.2682919316" lon="2.7179156709">
        <ele>52.53</ele>
        <time>2017-08-01T13:02:14Z</time>
      </trkpt>
      <trkpt lat="43.2683766726" lon="2.7181954589">
        <ele>52.05</ele>
        <time>2017-08-01T13:02:24Z</time>
      </trkpt>
      <trkpt lat="43.2684127148" lon="2.7185124625">
        <ele>52.53</ele>
        <time>2017-08-01T13:02:34Z</time>
      </trkpt>
      <trkpt lat="43.2684457395" lon="2.7188426256">
        <ele>52.05</ele>
        <time>2017-08-01T13:02:43Z</time>
      </trkpt>
      <trkpt lat="43.2684850506" lon="2.7191481460">
        <ele>52.05</ele>
        <time>2017-08-01T13:02:53Z</time>
      </trkpt>
      <trkpt lat="43.2684580609" lon="2.7193225734">
        <ele>52.05</ele>
        <time>2017-08-01T13:03:00Z</time>
      </trkpt>
      <trkpt lat="43.2684691250" lon="2.7193410136">
        <ele>52.05</ele>
        <time>2017-08-01T13:03:01Z</time>
      </trkpt>
      <trkpt lat="43.2684874814" lon="2.7193475515">
        <ele>52.05</ele>
        <time>2017-08-01T13:03:02Z</time>
      </trkpt>
      <trkpt lat="43.2685081847" lon="2.7193511557">
        <ele>52.05</ele>
        <time>2017-08-01T13:03:03Z</time>
      </trkpt>
      <trkpt lat="43.2685261220" lon="2.7193689253">
        <ele>52.05</ele>
        <time>2017-08-01T13:03:04Z</time>
      </trkpt>
      <trkpt lat="43.2685326599" lon="2.7193979267">
        <ele>52.05</ele>
        <time>2017-08-01T13:03:05Z</time>
      </trkpt>
      <trkpt lat="43.2685249485" lon="2.7194229048">
        <ele>52.05</ele>
        <time>2017-08-01T13:03:06Z</time>
      </trkpt>
      <trkpt lat="43.2685126271" lon="2.7194364835">
        <ele>52.05</ele>
        <time>2017-08-01T13:03:07Z</time>
      </trkpt>
      <trkpt lat="43.2685001381" lon="2.7194266766">
        <ele>52.05</ele>
        <time>2017-08-01T13:03:08Z</time>
      </trkpt>
      <trkpt lat="43.2684933487" lon="2.7194005251">
        <ele>52.05</ele>
        <time>2017-08-01T13:03:09Z</time>
      </trkpt>
      <trkpt lat="43.2684931811" lon="2.7193743736">
        <ele>52.05</ele>
        <time>2017-08-01T13:03:10Z</time>
      </trkpt>
      <trkpt lat="43.2684938516" lon="2.7193500660">
        <ele>52.05</ele>
        <time>2017-08-01T13:03:11Z</time>
      </trkpt>
      <trkpt lat="43.2684905827" lon="2.7193351462">
        <ele>52.05</ele>
        <time>2017-08-01T13:03:19Z</time>
      </trkpt>
      <trkpt lat="43.2684873138" lon="2.7193381637">
        <ele>52.05</ele>
        <time>2017-08-01T13:03:36Z</time>
      </trkpt>
      <trkpt lat="43.2684951928" lon="2.7193553466">
        <ele>51.57</ele>
        <time>2017-08-01T13:03:45Z</time>
      </trkpt>
      <trkpt lat="43.2684955280" lon="2.7193726972">
        <ele>51.57</ele>
        <time>2017-08-01T13:03:46Z</time>
      </trkpt>
      <trkpt lat="43.2684893254" lon="2.7194041293">
        <ele>51.57</ele>
        <time>2017-08-01T13:03:48Z</time>
      </trkpt>
      <trkpt lat="43.2684930135" lon="2.7194265928">
        <ele>51.57</ele>
        <time>2017-08-01T13:03:49Z</time>
      </trkpt>
      <trkpt lat="43.2685703784" lon="2.7197495475">
        <ele>51.57</ele>
        <time>2017-08-01T13:04:00Z</time>
      </trkpt>
      <trkpt lat="43.2686091028" lon="2.7198549919">
        <ele>53.49</ele>
        <time>2017-08-01T13:04:09Z</time>
      </trkpt>
      <trkpt lat="43.2686172333" lon="2.7198601887">
        <ele>51.57</ele>
        <time>2017-08-01T13:04:11Z</time>
      </trkpt>
      <trkpt lat="43.2686400320" lon="2.7198496275">
        <ele>51.09</ele>
        <time>2017-08-01T13:04:13Z</time>
      </trkpt>
      <trkpt lat="43.2686500903" lon="2.7198357973">
        <ele>51.09</ele>
        <time>2017-08-01T13:04:14Z</time>
      </trkpt>
      <trkpt lat="43.2686693687" lon="2.7198267449">
        <ele>51.09</ele>
        <time>2017-08-01T13:04:17Z</time>
      </trkpt>
      <trkpt lat="43.2686811034" lon="2.7198438440">
        <ele>51.09</ele>
        <time>2017-08-01T13:04:18Z</time>
      </trkpt>
      <trkpt lat="43.2686910778" lon="2.7198651340">
        <ele>51.09</ele>
        <time>2017-08-01T13:04:19Z</time>
      </trkpt>
      <trkpt lat="43.2687001303" lon="2.7198876813">
        <ele>51.09</ele>
        <time>2017-08-01T13:04:20Z</time>
      </trkpt>
      <trkpt lat="43.2687116973" lon="2.7199097257">
        <ele>51.09</ele>
        <time>2017-08-01T13:04:21Z</time>
      </trkpt>
      <trkpt lat="43.2687269524" lon="2.7199336141">
        <ele>51.09</ele>
        <time>2017-08-01T13:04:22Z</time>
      </trkpt>
      <trkpt lat="43.2687444706" lon="2.7199585922">
        <ele>51.09</ele>
        <time>2017-08-01T13:04:23Z</time>
      </trkpt>
      <trkpt lat="43.2687656768" lon="2.7199838217">
        <ele>51.09</ele>
        <time>2017-08-01T13:04:24Z</time>
      </trkpt>
      <trkpt lat="43.2689051516" lon="2.7201422397">
        <ele>51.09</ele>
        <time>2017-08-01T13:04:33Z</time>
      </trkpt>
      <trkpt lat="43.2689135335" lon="2.7202024218">
        <ele>51.09</ele>
        <time>2017-08-01T13:04:36Z</time>
      </trkpt>
      <trkpt lat="43.2689002063" lon="2.7202232927">
        <ele>51.09</ele>
        <time>2017-08-01T13:04:37Z</time>
      </trkpt>
      <trkpt lat="43.2688906509" lon="2.7202494442">
        <ele>51.09</ele>
        <time>2017-08-01T13:04:38Z</time>
      </trkpt>
      <trkpt lat="43.2688837778" lon="2.7202763502">
        <ele>51.09</ele>
        <time>2017-08-01T13:04:39Z</time>
      </trkpt>
      <trkpt lat="43.2688828558" lon="2.7203047648">
        <ele>51.09</ele>
        <time>2017-08-01T13:04:40Z</time>
      </trkpt>
      <trkpt lat="43.2688898128" lon="2.7203336824">
        <ele>51.09</ele>
        <time>2017-08-01T13:04:41Z</time>
      </trkpt>
      <trkpt lat="43.2688944228" lon="2.7203657012">
        <ele>51.09</ele>
        <time>2017-08-01T13:04:42Z</time>
      </trkpt>
      <trkpt lat="43.2688967697" lon="2.7204004861">
        <ele>51.09</ele>
        <time>2017-08-01T13:04:43Z</time>
      </trkpt>
      <trkpt lat="43.2689009607" lon="2.7204334270">
        <ele>51.09</ele>
        <time>2017-08-01T13:04:44Z</time>
      </trkpt>
      <trkpt lat="43.2689390983" lon="2.7208060864">
        <ele>51.09</ele>
        <time>2017-08-01T13:04:54Z</time>
      </trkpt>
      <trkpt lat="43.2690079138" lon="2.7211251855">
        <ele>50.61</ele>
        <time>2017-08-01T13:05:03Z</time>
      </trkpt>
      <trkpt lat="43.2691224944" lon="2.7214909717">
        <ele>51.09</ele>
        <time>2017-08-01T13:05:12Z</time>
      </trkpt>
      <trkpt lat="43.2691209018" lon="2.7215327136">
        <ele>51.09</ele>
        <time>2017-08-01T13:05:13Z</time>
      </trkpt>
      <trkpt lat="43.2691202313" lon="2.7215743717">
        <ele>51.57</ele>
        <time>2017-08-01T13:05:14Z</time>
      </trkpt>
      <trkpt lat="43.2691220753" lon="2.7216156945">
        <ele>51.57</ele>
        <time>2017-08-01T13:05:15Z</time>
      </trkpt>
      <trkpt lat="43.2691277750" lon="2.7216574363">
        <ele>51.57</ele>
        <time>2017-08-01T13:05:16Z</time>
      </trkpt>
      <trkpt lat="43.2691359892" lon="2.7216970827">
        <ele>51.57</ele>
        <time>2017-08-01T13:05:17Z</time>
      </trkpt>
      <trkpt lat="43.2692488097" lon="2.7221596800">
        <ele>52.05</ele>
        <time>2017-08-01T13:05:27Z</time>
      </trkpt>
      <trkpt lat="43.2694038749" lon="2.7228089422">
        <ele>52.05</ele>
        <time>2017-08-01T13:05:38Z</time>
      </trkpt>
      <trkpt lat="43.2695170306" lon="2.7232789155">
        <ele>52.05</ele>
        <time>2017-08-01T13:05:45Z</time>
      </trkpt>
      <trkpt lat="43.2696390711" lon="2.7238398325">
        <ele>52.05</ele>
        <time>2017-08-01T13:05:53Z</time>
      </trkpt>
      <trkpt lat="43.2696896978" lon="2.7246651985">
        <ele>51.09</ele>
        <time>2017-08-01T13:06:04Z</time>
      </trkpt>
      <trkpt lat="43.2696603611" lon="2.7253383491">
        <ele>51.09</ele>
        <time>2017-08-01T13:06:14Z</time>
      </trkpt>
      <trkpt lat="43.2696597744" lon="2.7254034765">
        <ele>51.09</ele>
        <time>2017-08-01T13:06:15Z</time>
      </trkpt>
      <trkpt lat="43.2696513925" lon="2.7259135153">
        <ele>51.09</ele>
        <time>2017-08-01T13:06:25Z</time>
      </trkpt>
      <trkpt lat="43.2696467824" lon="2.7262906171">
        <ele>51.09</ele>
        <time>2017-08-01T13:06:33Z</time>
      </trkpt>
      <trkpt lat="43.2696477044" lon="2.7263516374">
        <ele>51.09</ele>
        <time>2017-08-01T13:06:34Z</time>
      </trkpt>
      <trkpt lat="43.2696459442" lon="2.7264115680">
        <ele>51.09</ele>
        <time>2017-08-01T13:06:35Z</time>
      </trkpt>
      <trkpt lat="43.2696445193" lon="2.7265358716">
        <ele>51.09</ele>
        <time>2017-08-01T13:06:37Z</time>
      </trkpt>
      <trkpt lat="43.2696459442" lon="2.7266008314">
        <ele>51.09</ele>
        <time>2017-08-01T13:06:38Z</time>
      </trkpt>
      <trkpt lat="43.2696486264" lon="2.7267363667">
        <ele>51.09</ele>
        <time>2017-08-01T13:06:40Z</time>
      </trkpt>
      <trkpt lat="43.2696496323" lon="2.7268052660">
        <ele>51.09</ele>
        <time>2017-08-01T13:06:41Z</time>
      </trkpt>
      <trkpt lat="43.2696460281" lon="2.7268712316">
        <ele>51.09</ele>
        <time>2017-08-01T13:06:42Z</time>
      </trkpt>
      <trkpt lat="43.2696430944" lon="2.7269413881">
        <ele>51.09</ele>
        <time>2017-08-01T13:06:43Z</time>
      </trkpt>
      <trkpt lat="43.2696395740" lon="2.7270124666">
        <ele>51.09</ele>
        <time>2017-08-01T13:06:44Z</time>
      </trkpt>
      <trkpt lat="43.2696360536" lon="2.7270838805">
        <ele>51.09</ele>
        <time>2017-08-01T13:06:45Z</time>
      </trkpt>
      <trkpt lat="43.2696339581" lon="2.7271543723">
        <ele>51.09</ele>
        <time>2017-08-01T13:06:46Z</time>
      </trkpt>
      <trkpt lat="43.2696333714" lon="2.7272216789">
        <ele>51.09</ele>
        <time>2017-08-01T13:06:47Z</time>
      </trkpt>
      <trkpt lat="43.2696328685" lon="2.7275414485">
        <ele>51.57</ele>
        <time>2017-08-01T13:06:52Z</time>
      </trkpt>
      <trkpt lat="43.2696306054" lon="2.7276764810">
        <ele>51.57</ele>
        <time>2017-08-01T13:06:54Z</time>
      </trkpt>
      <trkpt lat="43.2696351316" lon="2.7278167941">
        <ele>51.57</ele>
        <time>2017-08-01T13:06:56Z</time>
      </trkpt>
      <trkpt lat="43.2696360536" lon="2.7278872859">
        <ele>51.57</ele>
        <time>2017-08-01T13:06:57Z</time>
      </trkpt>
      <trkpt lat="43.2696596067" lon="2.7289116383">
        <ele>51.09</ele>
        <time>2017-08-01T13:07:11Z</time>
      </trkpt>
      <trkpt lat="43.2696700003" lon="2.7290523704">
        <ele>51.09</ele>
        <time>2017-08-01T13:07:13Z</time>
      </trkpt>
      <trkpt lat="43.2696831599" lon="2.7292622533">
        <ele>51.09</ele>
        <time>2017-08-01T13:07:16Z</time>
      </trkpt>
      <trkpt lat="43.2697083056" lon="2.7296736371">
        <ele>50.13</ele>
        <time>2017-08-01T13:07:23Z</time>
      </trkpt>
      <trkpt lat="43.2697244827" lon="2.7296914067">
        <ele>50.13</ele>
        <time>2017-08-01T13:07:24Z</time>
      </trkpt>
      <trkpt lat="43.2697406597" lon="2.7297118586">
        <ele>49.65</ele>
        <time>2017-08-01T13:07:25Z</time>
      </trkpt>
      <trkpt lat="43.2697487902" lon="2.7297437098">
        <ele>49.65</ele>
        <time>2017-08-01T13:07:26Z</time>
      </trkpt>
      <trkpt lat="43.2697480358" lon="2.7297805902">
        <ele>49.65</ele>
        <time>2017-08-01T13:07:27Z</time>
      </trkpt>
      <trkpt lat="43.2697433420" lon="2.7298201527">
        <ele>49.65</ele>
        <time>2017-08-01T13:07:28Z</time>
      </trkpt>
      <trkpt lat="43.2697932143" lon="2.7301421016">
        <ele>49.65</ele>
        <time>2017-08-01T13:07:35Z</time>
      </trkpt>
      <trkpt lat="43.2698072959" lon="2.7306414954">
        <ele>49.65</ele>
        <time>2017-08-01T13:07:45Z</time>
      </trkpt>
      <trkpt lat="43.2697871793" lon="2.7309320122">
        <ele>49.16</ele>
        <time>2017-08-01T13:07:51Z</time>
      </trkpt>
      <trkpt lat="43.2697780430" lon="2.7309815492">
        <ele>49.16</ele>
        <time>2017-08-01T13:07:52Z</time>
      </trkpt>
      <trkpt lat="43.2697764505" lon="2.7310346067">
        <ele>48.68</ele>
        <time>2017-08-01T13:07:53Z</time>
      </trkpt>
      <trkpt lat="43.2697779592" lon="2.7310906816">
        <ele>48.68</ele>
        <time>2017-08-01T13:07:54Z</time>
      </trkpt>
      <trkpt lat="43.2697820663" lon="2.7311501093">
        <ele>48.68</ele>
        <time>2017-08-01T13:07:55Z</time>
      </trkpt>
      <trkpt lat="43.2698046137" lon="2.7314639278">
        <ele>48.20</ele>
        <time>2017-08-01T13:08:00Z</time>
      </trkpt>
      <trkpt lat="43.2698039431" lon="2.7315925062">
        <ele>48.20</ele>
        <time>2017-08-01T13:08:02Z</time>
      </trkpt>
      <trkpt lat="43.2698126603" lon="2.7320109308">
        <ele>48.68</ele>
        <time>2017-08-01T13:08:08Z</time>
      </trkpt>
      <trkpt lat="43.2698564138" lon="2.7325622085">
        <ele>47.24</ele>
        <time>2017-08-01T13:08:17Z</time>
      </trkpt>
      <trkpt lat="43.2698968984" lon="2.7332552243">
        <ele>46.76</ele>
        <time>2017-08-01T13:08:28Z</time>
      </trkpt>
      <trkpt lat="43.2699010894" lon="2.7333860658">
        <ele>46.76</ele>
        <time>2017-08-01T13:08:30Z</time>
      </trkpt>
      <trkpt lat="43.2699009217" lon="2.7334507741">
        <ele>46.76</ele>
        <time>2017-08-01T13:08:31Z</time>
      </trkpt>
      <trkpt lat="43.2699168473" lon="2.7341723721">
        <ele>46.76</ele>
        <time>2017-08-01T13:08:42Z</time>
      </trkpt>
      <trkpt lat="43.2699183561" lon="2.7342313807">
        <ele>46.28</ele>
        <time>2017-08-01T13:08:43Z</time>
      </trkpt>
      <trkpt lat="43.2699226309" lon="2.7342934906">
        <ele>46.28</ele>
        <time>2017-08-01T13:08:44Z</time>
      </trkpt>
      <trkpt lat="43.2699222118" lon="2.7343572769">
        <ele>46.28</ele>
        <time>2017-08-01T13:08:45Z</time>
      </trkpt>
      <trkpt lat="43.2699202839" lon="2.7344239131">
        <ele>46.76</ele>
        <time>2017-08-01T13:08:46Z</time>
      </trkpt>
      <trkpt lat="43.2699240558" lon="2.7344894595">
        <ele>46.28</ele>
        <time>2017-08-01T13:08:47Z</time>
      </trkpt>
      <trkpt lat="43.2699277438" lon="2.7345552575">
        <ele>46.28</ele>
        <time>2017-08-01T13:08:48Z</time>
      </trkpt>
      <trkpt lat="43.2699640375" lon="2.7354460023">
        <ele>45.80</ele>
        <time>2017-08-01T13:09:01Z</time>
      </trkpt>
      <trkpt lat="43.2699797116" lon="2.7356373612">
        <ele>46.28</ele>
        <time>2017-08-01T13:09:04Z</time>
      </trkpt>
      <trkpt lat="43.2699809689" lon="2.7357718069">
        <ele>45.80</ele>
        <time>2017-08-01T13:09:06Z</time>
      </trkpt>
      <trkpt lat="43.2699798793" lon="2.7358353417">
        <ele>45.80</ele>
        <time>2017-08-01T13:09:07Z</time>
      </trkpt>
      <trkpt lat="43.2699775323" lon="2.7359001338">
        <ele>46.28</ele>
        <time>2017-08-01T13:09:08Z</time>
      </trkpt>
      <trkpt lat="43.2700155862" lon="2.7367805690">
        <ele>45.80</ele>
        <time>2017-08-01T13:09:21Z</time>
      </trkpt>
      <trkpt lat="43.2700143289" lon="2.7370362170">
        <ele>45.80</ele>
        <time>2017-08-01T13:09:25Z</time>
      </trkpt>
      <trkpt lat="43.2698989101" lon="2.7375938650">
        <ele>45.80</ele>
        <time>2017-08-01T13:09:35Z</time>
      </trkpt>
      <trkpt lat="43.2697935496" lon="2.7380353399">
        <ele>45.32</ele>
        <time>2017-08-01T13:09:44Z</time>
      </trkpt>
      <trkpt lat="43.2697037794" lon="2.7383519243">
        <ele>44.36</ele>
        <time>2017-08-01T13:09:51Z</time>
      </trkpt>
      <trkpt lat="43.2696688268" lon="2.7384768147">
        <ele>44.36</ele>
        <time>2017-08-01T13:09:53Z</time>
      </trkpt>
      <trkpt lat="43.2696474530" lon="2.7385439537">
        <ele>43.88</ele>
        <time>2017-08-01T13:09:54Z</time>
      </trkpt>
      <trkpt lat="43.2695569284" lon="2.7389177028">
        <ele>42.44</ele>
        <time>2017-08-01T13:09:59Z</time>
      </trkpt>
      <trkpt lat="43.2694539148" lon="2.7392984927">
        <ele>40.51</ele>
        <time>2017-08-01T13:10:03Z</time>
      </trkpt>
      <trkpt lat="43.2694196329" lon="2.7393895201">
        <ele>40.51</ele>
        <time>2017-08-01T13:10:04Z</time>
      </trkpt>
      <trkpt lat="43.2693768013" lon="2.7394720819">
        <ele>40.51</ele>
        <time>2017-08-01T13:10:05Z</time>
      </trkpt>
      <trkpt lat="43.2693266775" lon="2.7395463455">
        <ele>40.03</ele>
        <time>2017-08-01T13:10:06Z</time>
      </trkpt>
      <trkpt lat="43.2692708541" lon="2.7396109700">
        <ele>40.03</ele>
        <time>2017-08-01T13:10:07Z</time>
      </trkpt>
      <trkpt lat="43.2692093309" lon="2.7396641951">
        <ele>40.99</ele>
        <time>2017-08-01T13:10:08Z</time>
      </trkpt>
      <trkpt lat="43.2691453770" lon="2.7397092897">
        <ele>40.03</ele>
        <time>2017-08-01T13:10:09Z</time>
      </trkpt>
      <trkpt lat="43.2688394375" lon="2.7398819569">
        <ele>39.55</ele>
        <time>2017-08-01T13:10:14Z</time>
      </trkpt>
      <trkpt lat="43.2687805127" lon="2.7398872375">
        <ele>39.55</ele>
        <time>2017-08-01T13:10:15Z</time>
      </trkpt>
      <trkpt lat="43.2686668541" lon="2.7398832981">
        <ele>39.55</ele>
        <time>2017-08-01T13:10:17Z</time>
      </trkpt>
      <trkpt lat="43.2684387825" lon="2.7398584038">
        <ele>40.03</ele>
        <time>2017-08-01T13:10:24Z</time>
      </trkpt>
      <trkpt lat="43.2682349347" lon="2.7398611698">
        <ele>40.03</ele>
        <time>2017-08-01T13:10:32Z</time>
      </trkpt>
      <trkpt lat="43.2679570746" lon="2.7397129778">
        <ele>36.67</ele>
        <time>2017-08-01T13:10:40Z</time>
      </trkpt>
      <trkpt lat="43.2679287437" lon="2.7397026680">
        <ele>41.95</ele>
        <time>2017-08-01T13:10:41Z</time>
      </trkpt>
      <trkpt lat="43.2678761054" lon="2.7396887541">
        <ele>37.63</ele>
        <time>2017-08-01T13:10:43Z</time>
      </trkpt>
      <trkpt lat="43.2678481936" lon="2.7396881673">
        <ele>41.95</ele>
        <time>2017-08-01T13:10:44Z</time>
      </trkpt>
      <trkpt lat="43.2676118240" lon="2.7396728285">
        <ele>40.03</ele>
        <time>2017-08-01T13:10:51Z</time>
      </trkpt>
      <trkpt lat="43.2674004324" lon="2.7397274785">
        <ele>40.51</ele>
        <time>2017-08-01T13:10:56Z</time>
      </trkpt>
      <trkpt lat="43.2672325429" lon="2.7398015745">
        <ele>40.51</ele>
        <time>2017-08-01T13:11:00Z</time>
      </trkpt>
      <trkpt lat="43.2671928965" lon="2.7398231160">
        <ele>40.51</ele>
        <time>2017-08-01T13:11:01Z</time>
      </trkpt>
      <trkpt lat="43.2668283675" lon="2.7400666941">
        <ele>40.51</ele>
        <time>2017-08-01T13:11:10Z</time>
      </trkpt>
      <trkpt lat="43.2667623181" lon="2.7401485015">
        <ele>40.51</ele>
        <time>2017-08-01T13:11:12Z</time>
      </trkpt>
      <trkpt lat="43.2667301316" lon="2.7401993796">
        <ele>40.51</ele>
        <time>2017-08-01T13:11:13Z</time>
      </trkpt>
      <trkpt lat="43.2666990347" lon="2.7402597293">
        <ele>40.03</ele>
        <time>2017-08-01T13:11:14Z</time>
      </trkpt>
      <trkpt lat="43.2665663492" lon="2.7404991165">
        <ele>40.03</ele>
        <time>2017-08-01T13:11:18Z</time>
      </trkpt>
      <trkpt lat="43.2665371802" lon="2.7405425347">
        <ele>40.03</ele>
        <time>2017-08-01T13:11:19Z</time>
      </trkpt>
      <trkpt lat="43.2665132917" lon="2.7405838575">
        <ele>40.03</ele>
        <time>2017-08-01T13:11:20Z</time>
      </trkpt>
      <trkpt lat="43.2664150558" lon="2.7408601250">
        <ele>39.55</ele>
        <time>2017-08-01T13:11:26Z</time>
      </trkpt>
      <trkpt lat="43.2663372718" lon="2.7409880329">
        <ele>40.03</ele>
        <time>2017-08-01T13:11:29Z</time>
      </trkpt>
      <trkpt lat="43.2662962005" lon="2.7410182077">
        <ele>39.55</ele>
        <time>2017-08-01T13:11:30Z</time>
      </trkpt>
      <trkpt lat="43.2661677059" lon="2.7412168588">
        <ele>40.03</ele>
        <time>2017-08-01T13:11:37Z</time>
      </trkpt>
      <trkpt lat="43.2660558913" lon="2.7413347922">
        <ele>40.99</ele>
        <time>2017-08-01T13:11:44Z</time>
      </trkpt>
      <trkpt lat="43.2660540473" lon="2.7413642965">
        <ele>40.99</ele>
        <time>2017-08-01T13:11:45Z</time>
      </trkpt>
      <trkpt lat="43.2660532091" lon="2.7414017636">
        <ele>40.99</ele>
        <time>2017-08-01T13:11:46Z</time>
      </trkpt>
      <trkpt lat="43.2660413906" lon="2.7414430864">
        <ele>40.51</ele>
        <time>2017-08-01T13:11:47Z</time>
      </trkpt>
      <trkpt lat="43.2660186756" lon="2.7414834872">
        <ele>40.51</ele>
        <time>2017-08-01T13:11:48Z</time>
      </trkpt>
      <trkpt lat="43.2659931947" lon="2.7415262349">
        <ele>40.51</ele>
        <time>2017-08-01T13:11:49Z</time>
      </trkpt>
      <trkpt lat="43.2657485269" lon="2.7419599146">
        <ele>40.03</ele>
        <time>2017-08-01T13:11:58Z</time>
      </trkpt>
      <trkpt lat="43.2656045258" lon="2.7422128804">
        <ele>39.55</ele>
        <time>2017-08-01T13:12:03Z</time>
      </trkpt>
      <trkpt lat="43.2655764464" lon="2.7422645967">
        <ele>39.55</ele>
        <time>2017-08-01T13:12:04Z</time>
      </trkpt>
      <trkpt lat="43.2655485347" lon="2.7423170675">
        <ele>39.55</ele>
        <time>2017-08-01T13:12:05Z</time>
      </trkpt>
      <trkpt lat="43.2655172702" lon="2.7423676942">
        <ele>39.55</ele>
        <time>2017-08-01T13:12:06Z</time>
      </trkpt>
      <trkpt lat="43.2654879335" lon="2.7424187399">
        <ele>39.55</ele>
        <time>2017-08-01T13:12:07Z</time>
      </trkpt>
      <trkpt lat="43.2654593512" lon="2.7424691990">
        <ele>40.51</ele>
        <time>2017-08-01T13:12:08Z</time>
      </trkpt>
      <trkpt lat="43.2651130110" lon="2.7430830058">
        <ele>39.55</ele>
        <time>2017-08-01T13:12:19Z</time>
      </trkpt>
      <trkpt lat="43.2647748012" lon="2.7436871734">
        <ele>39.07</ele>
        <time>2017-08-01T13:12:29Z</time>
      </trkpt>
      <trkpt lat="43.2643665187" lon="2.7444260381">
        <ele>39.07</ele>
        <time>2017-08-01T13:12:41Z</time>
      </trkpt>
      <trkpt lat="43.2639157400" lon="2.7452350594">
        <ele>38.59</ele>
        <time>2017-08-01T13:12:54Z</time>
      </trkpt>
      <trkpt lat="43.2634015102" lon="2.7461482678">
        <ele>38.59</ele>
        <time>2017-08-01T13:13:08Z</time>
      </trkpt>
      <trkpt lat="43.2633008435" lon="2.7463311609">
        <ele>38.11</ele>
        <time>2017-08-01T13:13:11Z</time>
      </trkpt>
      <trkpt lat="43.2632691599" lon="2.7463915106">
        <ele>38.11</ele>
        <time>2017-08-01T13:13:12Z</time>
      </trkpt>
      <trkpt lat="43.2628328819" lon="2.7471753862">
        <ele>37.63</ele>
        <time>2017-08-01T13:13:25Z</time>
      </trkpt>
      <trkpt lat="43.2623649202" lon="2.7479885984">
        <ele>37.63</ele>
        <time>2017-08-01T13:13:39Z</time>
      </trkpt>
      <trkpt lat="43.2623315603" lon="2.7480372135">
        <ele>37.63</ele>
        <time>2017-08-01T13:13:40Z</time>
      </trkpt>
      <trkpt lat="43.2620549574" lon="2.7485739067">
        <ele>37.15</ele>
        <time>2017-08-01T13:13:51Z</time>
      </trkpt>
      <trkpt lat="43.2620299794" lon="2.7486162353">
        <ele>37.63</ele>
        <time>2017-08-01T13:13:52Z</time>
      </trkpt>
      <trkpt lat="43.2620031573" lon="2.7486573067">
        <ele>37.63</ele>
        <time>2017-08-01T13:13:53Z</time>
      </trkpt>
      <trkpt lat="43.2619792689" lon="2.7486998867">
        <ele>37.63</ele>
        <time>2017-08-01T13:13:54Z</time>
      </trkpt>
      <trkpt lat="43.2619084418" lon="2.7488371823">
        <ele>37.63</ele>
        <time>2017-08-01T13:13:57Z</time>
      </trkpt>
      <trkpt lat="43.2616877463" lon="2.7491306327">
        <ele>37.15</ele>
        <time>2017-08-01T13:14:04Z</time>
      </trkpt>
      <trkpt lat="43.2616501115" lon="2.7491602208">
        <ele>37.63</ele>
        <time>2017-08-01T13:14:05Z</time>
      </trkpt>
      <trkpt lat="43.2611898612" lon="2.7493956685">
        <ele>38.11</ele>
        <time>2017-08-01T13:14:16Z</time>
      </trkpt>
      <trkpt lat="43.2611493766" lon="2.7494139411">
        <ele>37.63</ele>
        <time>2017-08-01T13:14:17Z</time>
      </trkpt>
      <trkpt lat="43.2611068804" lon="2.7494376618">
        <ele>37.63</ele>
        <time>2017-08-01T13:14:18Z</time>
      </trkpt>
      <trkpt lat="43.2610187028" lon="2.7494840976">
        <ele>37.63</ele>
        <time>2017-08-01T13:14:20Z</time>
      </trkpt>
      <trkpt lat="43.2607939001" lon="2.7495902963">
        <ele>37.63</ele>
        <time>2017-08-01T13:14:25Z</time>
      </trkpt>
      <trkpt lat="43.2607557625" lon="2.7496082336">
        <ele>37.63</ele>
        <time>2017-08-01T13:14:26Z</time>
      </trkpt>
      <trkpt lat="43.2605961710" lon="2.7496804018">
        <ele>37.63</ele>
        <time>2017-08-01T13:14:30Z</time>
      </trkpt>
      <trkpt lat="43.2605566084" lon="2.7497028653">
        <ele>37.63</ele>
        <time>2017-08-01T13:14:31Z</time>
      </trkpt>
      <trkpt lat="43.2601873856" lon="2.7498819027">
        <ele>37.15</ele>
        <time>2017-08-01T13:14:41Z</time>
      </trkpt>
      <trkpt lat="43.2599474955" lon="2.7500088047">
        <ele>37.63</ele>
        <time>2017-08-01T13:14:47Z</time>
      </trkpt>
      <trkpt lat="43.2594052702" lon="2.7503052726">
        <ele>37.63</ele>
        <time>2017-08-01T13:15:00Z</time>
      </trkpt>
      <trkpt lat="43.2592767756" lon="2.7503890079">
        <ele>37.63</ele>
        <time>2017-08-01T13:15:03Z</time>
      </trkpt>
      <trkpt lat="43.2592332736" lon="2.7504175063">
        <ele>37.63</ele>
        <time>2017-08-01T13:15:04Z</time>
      </trkpt>
      <trkpt lat="43.2591910288" lon="2.7504513692">
        <ele>37.15</ele>
        <time>2017-08-01T13:15:05Z</time>
      </trkpt>
      <trkpt lat="43.2588219736" lon="2.7507274691">
        <ele>37.63</ele>
        <time>2017-08-01T13:15:14Z</time>
      </trkpt>
      <trkpt lat="43.2583106775" lon="2.7511587180">
        <ele>37.63</ele>
        <time>2017-08-01T13:15:28Z</time>
      </trkpt>
      <trkpt lat="43.2582754735" lon="2.7511885576">
        <ele>37.63</ele>
        <time>2017-08-01T13:15:29Z</time>
      </trkpt>
      <trkpt lat="43.2578935940" lon="2.7515029628">
        <ele>37.63</ele>
        <time>2017-08-01T13:15:40Z</time>
      </trkpt>
      <trkpt lat="43.2578579709" lon="2.7515347302">
        <ele>37.63</ele>
        <time>2017-08-01T13:15:41Z</time>
      </trkpt>
      <trkpt lat="43.2573108003" lon="2.7519810665">
        <ele>38.11</ele>
        <time>2017-08-01T13:15:55Z</time>
      </trkpt>
      <trkpt lat="43.2568858378" lon="2.7523260657">
        <ele>38.11</ele>
        <time>2017-08-01T13:16:07Z</time>
      </trkpt>
      <trkpt lat="43.2568513043" lon="2.7523543127">
        <ele>38.11</ele>
        <time>2017-08-01T13:16:08Z</time>
      </trkpt>
      <trkpt lat="43.2567477040" lon="2.7524386346">
        <ele>37.63</ele>
        <time>2017-08-01T13:16:11Z</time>
      </trkpt>
      <trkpt lat="43.2566758711" lon="2.7524959669">
        <ele>37.63</ele>
        <time>2017-08-01T13:16:13Z</time>
      </trkpt>
      <trkpt lat="43.2565975003" lon="2.7525433246">
        <ele>37.63</ele>
        <time>2017-08-01T13:16:15Z</time>
      </trkpt>
      <trkpt lat="43.2561703585" lon="2.7528714761">
        <ele>37.63</ele>
        <time>2017-08-01T13:16:26Z</time>
      </trkpt>
      <trkpt lat="43.2559381798" lon="2.7530587278">
        <ele>38.11</ele>
        <time>2017-08-01T13:16:32Z</time>
      </trkpt>
      <trkpt lat="43.2555439789" lon="2.7533466462">
        <ele>38.59</ele>
        <time>2017-08-01T13:16:43Z</time>
      </trkpt>
      <trkpt lat="43.2551145740" lon="2.7536533400">
        <ele>38.59</ele>
        <time>2017-08-01T13:16:55Z</time>
      </trkpt>
      <trkpt lat="43.2547154278" lon="2.7539218962">
        <ele>38.59</ele>
        <time>2017-08-01T13:17:06Z</time>
      </trkpt>
      <trkpt lat="43.2546372246" lon="2.7539725229">
        <ele>38.59</ele>
        <time>2017-08-01T13:17:08Z</time>
      </trkpt>
      <trkpt lat="43.2543698419" lon="2.7541501354">
        <ele>39.07</ele>
        <time>2017-08-01T13:17:15Z</time>
      </trkpt>
      <trkpt lat="43.2543293573" lon="2.7541777119">
        <ele>38.59</ele>
        <time>2017-08-01T13:17:16Z</time>
      </trkpt>
      <trkpt lat="43.2539295405" lon="2.7544419095">
        <ele>39.07</ele>
        <time>2017-08-01T13:17:27Z</time>
      </trkpt>
      <trkpt lat="43.2535854634" lon="2.7546736691">
        <ele>39.07</ele>
        <time>2017-08-01T13:17:38Z</time>
      </trkpt>
      <trkpt lat="43.2532261312" lon="2.7549085300">
        <ele>39.07</ele>
        <time>2017-08-01T13:17:49Z</time>
      </trkpt>
      <trkpt lat="43.2527467702" lon="2.7552223485">
        <ele>39.07</ele>
        <time>2017-08-01T13:18:02Z</time>
      </trkpt>
      <trkpt lat="43.2523167785" lon="2.7555106021">
        <ele>39.07</ele>
        <time>2017-08-01T13:18:15Z</time>
      </trkpt>
      <trkpt lat="43.2518929895" lon="2.7557773143">
        <ele>39.07</ele>
        <time>2017-08-01T13:18:27Z</time>
      </trkpt>
      <trkpt lat="43.2518566120" lon="2.7558034658">
        <ele>39.07</ele>
        <time>2017-08-01T13:18:28Z</time>
      </trkpt>
      <trkpt lat="43.2517468929" lon="2.7558795735">
        <ele>39.55</ele>
        <time>2017-08-01T13:18:31Z</time>
      </trkpt>
      <trkpt lat="43.2517102640" lon="2.7559077367">
        <ele>39.55</ele>
        <time>2017-08-01T13:18:32Z</time>
      </trkpt>
      <trkpt lat="43.2513929252" lon="2.7561166976">
        <ele>39.55</ele>
        <time>2017-08-01T13:18:40Z</time>
      </trkpt>
      <trkpt lat="43.2513035741" lon="2.7561675757">
        <ele>39.07</ele>
        <time>2017-08-01T13:18:42Z</time>
      </trkpt>
      <trkpt lat="43.2512210961" lon="2.7562237345">
        <ele>39.55</ele>
        <time>2017-08-01T13:18:44Z</time>
      </trkpt>
      <trkpt lat="43.2508811262" lon="2.7564470284">
        <ele>39.07</ele>
        <time>2017-08-01T13:18:54Z</time>
      </trkpt>
      <trkpt lat="43.2507805433" lon="2.7565328591">
        <ele>39.07</ele>
        <time>2017-08-01T13:18:59Z</time>
      </trkpt>
      <trkpt lat="43.2507619355" lon="2.7565378044">
        <ele>39.07</ele>
        <time>2017-08-01T13:19:00Z</time>
      </trkpt>
      <trkpt lat="43.2507456746" lon="2.7565362956">
        <ele>39.07</ele>
        <time>2017-08-01T13:19:01Z</time>
      </trkpt>
      <trkpt lat="43.2507335208" lon="2.7565288357">
        <ele>39.07</ele>
        <time>2017-08-01T13:19:02Z</time>
      </trkpt>
      <trkpt lat="43.2507227082" lon="2.7565213758">
        <ele>39.07</ele>
        <time>2017-08-01T13:19:03Z</time>
      </trkpt>
      <trkpt lat="43.2507123984" lon="2.7565218788">
        <ele>38.59</ele>
        <time>2017-08-01T13:19:04Z</time>
      </trkpt>
      <trkpt lat="43.2507007476" lon="2.7565347031">
        <ele>38.59</ele>
        <time>2017-08-01T13:19:05Z</time>
      </trkpt>
      <trkpt lat="43.2506852411" lon="2.7565502934">
        <ele>38.59</ele>
        <time>2017-08-01T13:19:06Z</time>
      </trkpt>
      <trkpt lat="43.2506657951" lon="2.7565714158">
        <ele>38.59</ele>
        <time>2017-08-01T13:19:07Z</time>
      </trkpt>
      <trkpt lat="43.2506455947" lon="2.7565992437">
        <ele>38.59</ele>
        <time>2017-08-01T13:19:08Z</time>
      </trkpt>
      <trkpt lat="43.2505875081" lon="2.7566512953">
        <ele>38.59</ele>
        <time>2017-08-01T13:19:11Z</time>
      </trkpt>
      <trkpt lat="43.2505756896" lon="2.7566428296">
        <ele>38.59</ele>
        <time>2017-08-01T13:19:12Z</time>
      </trkpt>
      <trkpt lat="43.2505559083" lon="2.7566142473">
        <ele>38.11</ele>
        <time>2017-08-01T13:19:14Z</time>
      </trkpt>
      <trkpt lat="43.2505428325" lon="2.7566165105">
        <ele>38.11</ele>
        <time>2017-08-01T13:19:15Z</time>
      </trkpt>
      <trkpt lat="43.2505289186" lon="2.7566285804">
        <ele>38.11</ele>
        <time>2017-08-01T13:19:16Z</time>
      </trkpt>
      <trkpt lat="43.2505193632" lon="2.7566533070">
        <ele>38.11</ele>
        <time>2017-08-01T13:19:17Z</time>
      </trkpt>
      <trkpt lat="43.2505129930" lon="2.7566778660">
        <ele>38.11</ele>
        <time>2017-08-01T13:19:18Z</time>
      </trkpt>
      <trkpt lat="43.2505028509" lon="2.7566958871">
        <ele>38.11</ele>
        <time>2017-08-01T13:19:19Z</time>
      </trkpt>
      <trkpt lat="43.2504876796" lon="2.7567103878">
        <ele>38.11</ele>
        <time>2017-08-01T13:19:20Z</time>
      </trkpt>
      <trkpt lat="43.2504694071" lon="2.7567220386">
        <ele>38.11</ele>
        <time>2017-08-01T13:19:21Z</time>
      </trkpt>
      <trkpt lat="43.2504485361" lon="2.7567320131">
        <ele>38.11</ele>
        <time>2017-08-01T13:19:22Z</time>
      </trkpt>
      <trkpt lat="43.2504327781" lon="2.7567398921">
        <ele>38.11</ele>
        <time>2017-08-01T13:19:23Z</time>
      </trkpt>
      <trkpt lat="43.2504233904" lon="2.7567517944">
        <ele>38.11</ele>
        <time>2017-08-01T13:19:24Z</time>
      </trkpt>
      <trkpt lat="43.2504142541" lon="2.7567636967">
        <ele>38.11</ele>
        <time>2017-08-01T13:19:25Z</time>
      </trkpt>
      <trkpt lat="43.2504056208" lon="2.7567747608">
        <ele>38.11</ele>
        <time>2017-08-01T13:19:26Z</time>
      </trkpt>
      <trkpt lat="43.2502934709" lon="2.7568520419">
        <ele>38.11</ele>
        <time>2017-08-01T13:19:35Z</time>
      </trkpt>
      <trkpt lat="43.2500806544" lon="2.7569204383">
        <ele>37.15</ele>
        <time>2017-08-01T13:19:46Z</time>
      </trkpt>
      <trkpt lat="43.2498488948" lon="2.7570365276">
        <ele>35.71</ele>
        <time>2017-08-01T13:19:54Z</time>
      </trkpt>
      <trkpt lat="43.2496499922" lon="2.7571159042">
        <ele>34.26</ele>
        <time>2017-08-01T13:20:02Z</time>
      </trkpt>
      <trkpt lat="43.2496098429" lon="2.7571133897">
        <ele>34.26</ele>
        <time>2017-08-01T13:20:03Z</time>
      </trkpt>
      <trkpt lat="43.2495717891" lon="2.7571055107">
        <ele>34.26</ele>
        <time>2017-08-01T13:20:04Z</time>
      </trkpt>
      <trkpt lat="43.2495335676" lon="2.7571094502">
        <ele>34.26</ele>
        <time>2017-08-01T13:20:05Z</time>
      </trkpt>
      <trkpt lat="43.2494980283" lon="2.7571155690">
        <ele>34.26</ele>
        <time>2017-08-01T13:20:06Z</time>
      </trkpt>
      <trkpt lat="43.2494623214" lon="2.7571216878">
        <ele>34.26</ele>
        <time>2017-08-01T13:20:07Z</time>
      </trkpt>
      <trkpt lat="43.2494282071" lon="2.7571299858">
        <ele>34.74</ele>
        <time>2017-08-01T13:20:08Z</time>
      </trkpt>
      <trkpt lat="43.2493925001" lon="2.7571360208">
        <ele>35.71</ele>
        <time>2017-08-01T13:20:09Z</time>
      </trkpt>
      <trkpt lat="43.2493628282" lon="2.7571413014">
        <ele>34.74</ele>
        <time>2017-08-01T13:20:10Z</time>
      </trkpt>
      <trkpt lat="43.2493342459" lon="2.7571530361">
        <ele>35.23</ele>
        <time>2017-08-01T13:20:11Z</time>
      </trkpt>
      <trkpt lat="43.2493040711" lon="2.7571651898">
        <ele>35.23</ele>
        <time>2017-08-01T13:20:12Z</time>
      </trkpt>
      <trkpt lat="43.2492703758" lon="2.7571780141">
        <ele>35.71</ele>
        <time>2017-08-01T13:20:13Z</time>
      </trkpt>
      <trkpt lat="43.2491278835" lon="2.7572387829">
        <ele>34.74</ele>
        <time>2017-08-01T13:20:21Z</time>
      </trkpt>
      <trkpt lat="43.2491302304" lon="2.7572392859">
        <ele>38.59</ele>
        <time>2017-08-01T13:20:22Z</time>
      </trkpt>
      <trkpt lat="43.2491367683" lon="2.7572470810">
        <ele>36.19</ele>
        <time>2017-08-01T13:20:36Z</time>
      </trkpt>
      <trkpt lat="43.2491233572" lon="2.7572566364">
        <ele>35.71</ele>
        <time>2017-08-01T13:20:37Z</time>
      </trkpt>
      <trkpt lat="43.2491018157" lon="2.7572707180">
        <ele>36.19</ele>
        <time>2017-08-01T13:20:38Z</time>
      </trkpt>
      <trkpt lat="43.2490700483" lon="2.7572921757">
        <ele>36.19</ele>
        <time>2017-08-01T13:20:39Z</time>
      </trkpt>
      <trkpt lat="43.2490333356" lon="2.7573219314">
        <ele>35.71</ele>
        <time>2017-08-01T13:20:40Z</time>
      </trkpt>
      <trkpt lat="43.2489994727" lon="2.7573568001">
        <ele>35.71</ele>
        <time>2017-08-01T13:20:41Z</time>
      </trkpt>
      <trkpt lat="43.2489669509" lon="2.7573977038">
        <ele>35.71</ele>
        <time>2017-08-01T13:20:42Z</time>
      </trkpt>
      <trkpt lat="43.2488801144" lon="2.7575380169">
        <ele>35.23</ele>
        <time>2017-08-01T13:20:45Z</time>
      </trkpt>
      <trkpt lat="43.2488322537" lon="2.7576534357">
        <ele>35.23</ele>
        <time>2017-08-01T13:20:47Z</time>
      </trkpt>
      <trkpt lat="43.2487553079" lon="2.7578737121">
        <ele>35.23</ele>
        <time>2017-08-01T13:20:51Z</time>
      </trkpt>
      <trkpt lat="43.2487092912" lon="2.7583433501">
        <ele>34.74</ele>
        <time>2017-08-01T13:21:00Z</time>
      </trkpt>
      <trkpt lat="43.2487277314" lon="2.7585730981">
        <ele>35.23</ele>
        <time>2017-08-01T13:21:04Z</time>
      </trkpt>
      <trkpt lat="43.2486995682" lon="2.7589483559">
        <ele>34.74</ele>
        <time>2017-08-01T13:21:11Z</time>
      </trkpt>
      <trkpt lat="43.2486792002" lon="2.7589937020">
        <ele>34.74</ele>
        <time>2017-08-01T13:21:12Z</time>
      </trkpt>
      <trkpt lat="43.2486561500" lon="2.7590383776">
        <ele>34.74</ele>
        <time>2017-08-01T13:21:13Z</time>
      </trkpt>
      <trkpt lat="43.2485515438" lon="2.7593558002">
        <ele>32.82</ele>
        <time>2017-08-01T13:21:21Z</time>
      </trkpt>
      <trkpt lat="43.2485336065" lon="2.7593929321">
        <ele>32.82</ele>
        <time>2017-08-01T13:21:22Z</time>
      </trkpt>
      <trkpt lat="43.2485141605" lon="2.7594247833">
        <ele>32.82</ele>
        <time>2017-08-01T13:21:23Z</time>
      </trkpt>
      <trkpt lat="43.2482026052" lon="2.7598690242">
        <ele>32.34</ele>
        <time>2017-08-01T13:21:37Z</time>
      </trkpt>
      <trkpt lat="43.2481396571" lon="2.7599447127">
        <ele>32.82</ele>
        <time>2017-08-01T13:21:45Z</time>
      </trkpt>
      <trkpt lat="43.2481377292" lon="2.7599634882">
        <ele>32.34</ele>
        <time>2017-08-01T13:21:52Z</time>
      </trkpt>
      <trkpt lat="43.2481272519" lon="2.7599804197">
        <ele>32.34</ele>
        <time>2017-08-01T13:21:53Z</time>
      </trkpt>
      <trkpt lat="43.2481149305" lon="2.7599974349">
        <ele>32.34</ele>
        <time>2017-08-01T13:21:54Z</time>
      </trkpt>
      <trkpt lat="43.2479336299" lon="2.7602601238">
        <ele>31.86</ele>
        <time>2017-08-01T13:22:04Z</time>
      </trkpt>
      <trkpt lat="43.2477069832" lon="2.7606099006">
        <ele>31.86</ele>
        <time>2017-08-01T13:22:13Z</time>
      </trkpt>
      <trkpt lat="43.2472316455" lon="2.7611872461">
        <ele>32.34</ele>
        <time>2017-08-01T13:22:28Z</time>
      </trkpt>
      <trkpt lat="43.2471290510" lon="2.7612822969">
        <ele>32.34</ele>
        <time>2017-08-01T13:22:31Z</time>
      </trkpt>
      <trkpt lat="43.2470952719" lon="2.7613135614">
        <ele>32.34</ele>
        <time>2017-08-01T13:22:32Z</time>
      </trkpt>
      <trkpt lat="43.2469838765" lon="2.7613910940">
        <ele>32.34</ele>
        <time>2017-08-01T13:22:35Z</time>
      </trkpt>
      <trkpt lat="43.2469463255" lon="2.7614161558">
        <ele>32.34</ele>
        <time>2017-08-01T13:22:36Z</time>
      </trkpt>
      <trkpt lat="43.2469088584" lon="2.7614418045">
        <ele>32.34</ele>
        <time>2017-08-01T13:22:37Z</time>
      </trkpt>
      <trkpt lat="43.2468729001" lon="2.7614647709">
        <ele>32.34</ele>
        <time>2017-08-01T13:22:38Z</time>
      </trkpt>
      <trkpt lat="43.2468353491" lon="2.7614852227">
        <ele>32.34</ele>
        <time>2017-08-01T13:22:39Z</time>
      </trkpt>
      <trkpt lat="43.2467593253" lon="2.7615261264">
        <ele>32.34</ele>
        <time>2017-08-01T13:22:41Z</time>
      </trkpt>
      <trkpt lat="43.2462875918" lon="2.7617610712">
        <ele>32.34</ele>
        <time>2017-08-01T13:22:53Z</time>
      </trkpt>
      <trkpt lat="43.2460187841" lon="2.7618814353">
        <ele>32.34</ele>
        <time>2017-08-01T13:23:00Z</time>
      </trkpt>
      <trkpt lat="43.2459792215" lon="2.7619005460">
        <ele>32.34</ele>
        <time>2017-08-01T13:23:01Z</time>
      </trkpt>
      <trkpt lat="43.2454019599" lon="2.7621821780">
        <ele>32.82</ele>
        <time>2017-08-01T13:23:15Z</time>
      </trkpt>
      <trkpt lat="43.2448742352" lon="2.7624274325">
        <ele>32.82</ele>
        <time>2017-08-01T13:23:27Z</time>
      </trkpt>
      <trkpt lat="43.2447925117" lon="2.7624761313">
        <ele>32.82</ele>
        <time>2017-08-01T13:23:29Z</time>
      </trkpt>
      <trkpt lat="43.2447490934" lon="2.7624917217">
        <ele>32.34</ele>
        <time>2017-08-01T13:23:30Z</time>
      </trkpt>
      <trkpt lat="43.2447044179" lon="2.7625129279">
        <ele>32.82</ele>
        <time>2017-08-01T13:23:31Z</time>
      </trkpt>
      <trkpt lat="43.2446594909" lon="2.7625340503">
        <ele>32.34</ele>
        <time>2017-08-01T13:23:32Z</time>
      </trkpt>
      <trkpt lat="43.2446138933" lon="2.7625537477">
        <ele>32.82</ele>
        <time>2017-08-01T13:23:33Z</time>
      </trkpt>
      <trkpt lat="43.2443889230" lon="2.7626601141">
        <ele>32.34</ele>
        <time>2017-08-01T13:23:38Z</time>
      </trkpt>
      <trkpt lat="43.2443488576" lon="2.7626810689">
        <ele>32.34</ele>
        <time>2017-08-01T13:23:39Z</time>
      </trkpt>
      <trkpt lat="43.2440300100" lon="2.7628180292">
        <ele>32.34</ele>
        <time>2017-08-01T13:23:46Z</time>
      </trkpt>
      <trkpt lat="43.2439881843" lon="2.7628417499">
        <ele>32.34</ele>
        <time>2017-08-01T13:23:47Z</time>
      </trkpt>
      <trkpt lat="43.2435166184" lon="2.7630760241">
        <ele>32.34</ele>
        <time>2017-08-01T13:23:58Z</time>
      </trkpt>
      <trkpt lat="43.2434281893" lon="2.7631159220">
        <ele>31.86</ele>
        <time>2017-08-01T13:24:00Z</time>
      </trkpt>
      <trkpt lat="43.2433837652" lon="2.7631382179">
        <ele>32.34</ele>
        <time>2017-08-01T13:24:01Z</time>
      </trkpt>
      <trkpt lat="43.2429052424" lon="2.7633618470">
        <ele>32.34</ele>
        <time>2017-08-01T13:24:13Z</time>
      </trkpt>
      <trkpt lat="43.2426099479" lon="2.7635083627">
        <ele>32.34</ele>
        <time>2017-08-01T13:24:21Z</time>
      </trkpt>
      <trkpt lat="43.2423120551" lon="2.7636447363">
        <ele>32.34</ele>
        <time>2017-08-01T13:24:29Z</time>
      </trkpt>
      <trkpt lat="43.2422706485" lon="2.7636621706">
        <ele>32.34</ele>
        <time>2017-08-01T13:24:30Z</time>
      </trkpt>
      <trkpt lat="43.2421111409" lon="2.7637371887">
        <ele>32.34</ele>
        <time>2017-08-01T13:24:34Z</time>
      </trkpt>
      <trkpt lat="43.2420678902" lon="2.7637611609">
        <ele>32.34</ele>
        <time>2017-08-01T13:24:35Z</time>
      </trkpt>
      <trkpt lat="43.2420247234" lon="2.7637854684">
        <ele>32.34</ele>
        <time>2017-08-01T13:24:36Z</time>
      </trkpt>
      <trkpt lat="43.2415354718" lon="2.7640349139">
        <ele>32.34</ele>
        <time>2017-08-01T13:24:46Z</time>
      </trkpt>
      <trkpt lat="43.2414842583" lon="2.7640578803">
        <ele>32.82</ele>
        <time>2017-08-01T13:24:47Z</time>
      </trkpt>
      <trkpt lat="43.2410157938" lon="2.7643466368">
        <ele>32.82</ele>
        <time>2017-08-01T13:24:57Z</time>
      </trkpt>
      <trkpt lat="43.2409726270" lon="2.7643776499">
        <ele>32.82</ele>
        <time>2017-08-01T13:24:58Z</time>
      </trkpt>
      <trkpt lat="43.2409297954" lon="2.7644085791">
        <ele>32.82</ele>
        <time>2017-08-01T13:24:59Z</time>
      </trkpt>
      <trkpt lat="43.2407323178" lon="2.7646070626">
        <ele>32.82</ele>
        <time>2017-08-01T13:25:04Z</time>
      </trkpt>
      <trkpt lat="43.2406010572" lon="2.7647923026">
        <ele>32.82</ele>
        <time>2017-08-01T13:25:08Z</time>
      </trkpt>
      <trkpt lat="43.2405722234" lon="2.7648400795">
        <ele>33.30</ele>
        <time>2017-08-01T13:25:09Z</time>
      </trkpt>
      <trkpt lat="43.2405425515" lon="2.7648855932">
        <ele>32.82</ele>
        <time>2017-08-01T13:25:10Z</time>
      </trkpt>
      <trkpt lat="43.2403060142" lon="2.7653028443">
        <ele>33.30</ele>
        <time>2017-08-01T13:25:20Z</time>
      </trkpt>
      <trkpt lat="43.2402033359" lon="2.7655442432">
        <ele>34.74</ele>
        <time>2017-08-01T13:25:28Z</time>
      </trkpt>
      <trkpt lat="43.2401802018" lon="2.7655644435">
        <ele>35.23</ele>
        <time>2017-08-01T13:25:30Z</time>
      </trkpt>
      <trkpt lat="43.2401697244" lon="2.7655803692">
        <ele>35.23</ele>
        <time>2017-08-01T13:25:31Z</time>
      </trkpt>
      <trkpt lat="43.2401589956" lon="2.7656087838">
        <ele>34.74</ele>
        <time>2017-08-01T13:25:32Z</time>
      </trkpt>
      <trkpt lat="43.2401507813" lon="2.7656442393">
        <ele>34.26</ele>
        <time>2017-08-01T13:25:33Z</time>
      </trkpt>
      <trkpt lat="43.2401469257" lon="2.7656859811">
        <ele>34.26</ele>
        <time>2017-08-01T13:25:34Z</time>
      </trkpt>
      <trkpt lat="43.2401471771" lon="2.7657361887">
        <ele>34.26</ele>
        <time>2017-08-01T13:25:35Z</time>
      </trkpt>
      <trkpt lat="43.2401439920" lon="2.7657912578">
        <ele>34.26</ele>
        <time>2017-08-01T13:25:36Z</time>
      </trkpt>
      <trkpt lat="43.2401396334" lon="2.7658485901">
        <ele>33.78</ele>
        <time>2017-08-01T13:25:37Z</time>
      </trkpt>
      <trkpt lat="43.2400701474" lon="2.7663642447">
        <ele>33.30</ele>
        <time>2017-08-01T13:25:47Z</time>
      </trkpt>
      <trkpt lat="43.2399570756" lon="2.7667726111">
        <ele>33.30</ele>
        <time>2017-08-01T13:25:55Z</time>
      </trkpt>
      <trkpt lat="43.2399038505" lon="2.7670012694">
        <ele>33.30</ele>
        <time>2017-08-01T13:25:59Z</time>
      </trkpt>
      <trkpt lat="43.2398915291" lon="2.7670585178">
        <ele>33.30</ele>
        <time>2017-08-01T13:26:00Z</time>
      </trkpt>
      <trkpt lat="43.2398607675" lon="2.7672226354">
        <ele>33.30</ele>
        <time>2017-08-01T13:26:03Z</time>
      </trkpt>
      <trkpt lat="43.2398129068" lon="2.7674397267">
        <ele>32.82</ele>
        <time>2017-08-01T13:26:07Z</time>
      </trkpt>
      <trkpt lat="43.2397999987" lon="2.7674955502">
        <ele>33.30</ele>
        <time>2017-08-01T13:26:08Z</time>
      </trkpt>
      <trkpt lat="43.2396511361" lon="2.7681772504">
        <ele>33.30</ele>
        <time>2017-08-01T13:26:21Z</time>
      </trkpt>
      <trkpt lat="43.2395880204" lon="2.7684061602">
        <ele>33.30</ele>
        <time>2017-08-01T13:26:26Z</time>
      </trkpt>
      <trkpt lat="43.2395694125" lon="2.7684333175">
        <ele>33.30</ele>
        <time>2017-08-01T13:26:27Z</time>
      </trkpt>
      <trkpt lat="43.2395563368" lon="2.7684607264">
        <ele>33.30</ele>
        <time>2017-08-01T13:26:28Z</time>
      </trkpt>
      <trkpt lat="43.2395554986" lon="2.7684898116">
        <ele>32.82</ele>
        <time>2017-08-01T13:26:29Z</time>
      </trkpt>
      <trkpt lat="43.2395632099" lon="2.7685227524">
        <ele>33.30</ele>
        <time>2017-08-01T13:26:30Z</time>
      </trkpt>
      <trkpt lat="43.2395691611" lon="2.7685587946">
        <ele>33.30</ele>
        <time>2017-08-01T13:26:31Z</time>
      </trkpt>
      <trkpt lat="43.2395630423" lon="2.7685981896">
        <ele>33.30</ele>
        <time>2017-08-01T13:26:32Z</time>
      </trkpt>
      <trkpt lat="43.2395513915" lon="2.7686359920">
        <ele>32.82</ele>
        <time>2017-08-01T13:26:33Z</time>
      </trkpt>
      <trkpt lat="43.2395428419" lon="2.7686778177">
        <ele>32.82</ele>
        <time>2017-08-01T13:26:34Z</time>
      </trkpt>
      <trkpt lat="43.2395338733" lon="2.7687235828">
        <ele>32.82</ele>
        <time>2017-08-01T13:26:35Z</time>
      </trkpt>
      <trkpt lat="43.2395233959" lon="2.7687709406">
        <ele>32.82</ele>
        <time>2017-08-01T13:26:36Z</time>
      </trkpt>
      <trkpt lat="43.2393778861" lon="2.7694108151">
        <ele>32.82</ele>
        <time>2017-08-01T13:26:48Z</time>
      </trkpt>
      <trkpt lat="43.2393005211" lon="2.7697773557">
        <ele>32.82</ele>
        <time>2017-08-01T13:26:54Z</time>
      </trkpt>
      <trkpt lat="43.2392881159" lon="2.7698372863">
        <ele>33.30</ele>
        <time>2017-08-01T13:26:55Z</time>
      </trkpt>
      <trkpt lat="43.2391827554" lon="2.7705325652">
        <ele>33.30</ele>
        <time>2017-08-01T13:27:07Z</time>
      </trkpt>
      <trkpt lat="43.2392290235" lon="2.7715029381">
        <ele>33.30</ele>
        <time>2017-08-01T13:27:21Z</time>
      </trkpt>
      <trkpt lat="43.2392718550" lon="2.7723019011">
        <ele>33.30</ele>
        <time>2017-08-01T13:27:32Z</time>
      </trkpt>
      <trkpt lat="43.2393371500" lon="2.7734962385">
        <ele>33.78</ele>
        <time>2017-08-01T13:27:48Z</time>
      </trkpt>
      <trkpt lat="43.2393915486" lon="2.7745850477">
        <ele>33.30</ele>
        <time>2017-08-01T13:28:02Z</time>
      </trkpt>
      <trkpt lat="43.2394467853" lon="2.7757219691">
        <ele>33.78</ele>
        <time>2017-08-01T13:28:16Z</time>
      </trkpt>
      <trkpt lat="43.2395004295" lon="2.7768056653">
        <ele>33.30</ele>
        <time>2017-08-01T13:28:29Z</time>
      </trkpt>
      <trkpt lat="43.2395592704" lon="2.7779341210">
        <ele>33.30</ele>
        <time>2017-08-01T13:28:43Z</time>
      </trkpt>
      <trkpt lat="43.2395682391" lon="2.7780897729">
        <ele>33.78</ele>
        <time>2017-08-01T13:28:45Z</time>
      </trkpt>
      <trkpt lat="43.2395927142" lon="2.7786713094">
        <ele>33.30</ele>
        <time>2017-08-01T13:28:53Z</time>
      </trkpt>
      <trkpt lat="43.2395839132" lon="2.7787250374">
        <ele>33.78</ele>
        <time>2017-08-01T13:28:54Z</time>
      </trkpt>
      <trkpt lat="43.2395728491" lon="2.7787707187">
        <ele>33.30</ele>
        <time>2017-08-01T13:28:55Z</time>
      </trkpt>
      <trkpt lat="43.2395736035" lon="2.7788102813">
        <ele>33.30</ele>
        <time>2017-08-01T13:28:56Z</time>
      </trkpt>
      <trkpt lat="43.2395823207" lon="2.7788412943">
        <ele>33.30</ele>
        <time>2017-08-01T13:28:57Z</time>
      </trkpt>
      <trkpt lat="43.2395967375" lon="2.7788740676">
        <ele>33.30</ele>
        <time>2017-08-01T13:28:58Z</time>
      </trkpt>
      <trkpt lat="43.2396115735" lon="2.7789111156">
        <ele>33.30</ele>
        <time>2017-08-01T13:28:59Z</time>
      </trkpt>
      <trkpt lat="43.2396230567" lon="2.7789528575">
        <ele>33.30</ele>
        <time>2017-08-01T13:29:00Z</time>
      </trkpt>
      <trkpt lat="43.2396319415" lon="2.7789968625">
        <ele>33.78</ele>
        <time>2017-08-01T13:29:01Z</time>
      </trkpt>
      <trkpt lat="43.2396371383" lon="2.7790453937">
        <ele>33.30</ele>
        <time>2017-08-01T13:29:02Z</time>
      </trkpt>
      <trkpt lat="43.2396429218" lon="2.7790897340">
        <ele>33.78</ele>
        <time>2017-08-01T13:29:03Z</time>
      </trkpt>
      <trkpt lat="43.2396442629" lon="2.7793998644">
        <ele>33.30</ele>
        <time>2017-08-01T13:29:12Z</time>
      </trkpt>
      <trkpt lat="43.2396378089" lon="2.7794253454">
        <ele>32.82</ele>
        <time>2017-08-01T13:29:19Z</time>
      </trkpt>
      <trkpt lat="43.2396415807" lon="2.7794264350">
        <ele>32.82</ele>
        <time>2017-08-01T13:29:39Z</time>
      </trkpt>
      <trkpt lat="43.2396426704" lon="2.7794290334">
        <ele>33.30</ele>
        <time>2017-08-01T13:29:59Z</time>
      </trkpt>
      <trkpt lat="43.2396415807" lon="2.7794297040">
        <ele>32.82</ele>
        <time>2017-08-01T13:30:07Z</time>
      </trkpt>
      <trkpt lat="43.2396429218" lon="2.7794503234">
        <ele>32.82</ele>
        <time>2017-08-01T13:30:08Z</time>
      </trkpt>
      <trkpt lat="43.2396466099" lon="2.7794785704">
        <ele>32.82</ele>
        <time>2017-08-01T13:30:09Z</time>
      </trkpt>
      <trkpt lat="43.2396520581" lon="2.7795139421">
        <ele>33.30</ele>
        <time>2017-08-01T13:30:10Z</time>
      </trkpt>
      <trkpt lat="43.2396581769" lon="2.7795529179">
        <ele>32.34</ele>
        <time>2017-08-01T13:30:11Z</time>
      </trkpt>
      <trkpt lat="43.2396616973" lon="2.7795975097">
        <ele>32.34</ele>
        <time>2017-08-01T13:30:12Z</time>
      </trkpt>
      <trkpt lat="43.2396644633" lon="2.7796480525">
        <ele>32.34</ele>
        <time>2017-08-01T13:30:13Z</time>
      </trkpt>
      <trkpt lat="43.2396697439" lon="2.7796976734">
        <ele>31.86</ele>
        <time>2017-08-01T13:30:14Z</time>
      </trkpt>
      <trkpt lat="43.2396744378" lon="2.7797477134">
        <ele>31.38</ele>
        <time>2017-08-01T13:30:15Z</time>
      </trkpt>
      <trkpt lat="43.2396768685" lon="2.7797983401">
        <ele>29.94</ele>
        <time>2017-08-01T13:30:16Z</time>
      </trkpt>
      <trkpt lat="43.2396802213" lon="2.7798521519">
        <ele>33.30</ele>
        <time>2017-08-01T13:30:17Z</time>
      </trkpt>
      <trkpt lat="43.2396858372" lon="2.7799052931">
        <ele>31.86</ele>
        <time>2017-08-01T13:30:18Z</time>
      </trkpt>
      <trkpt lat="43.2396906149" lon="2.7799611166">
        <ele>32.34</ele>
        <time>2017-08-01T13:30:19Z</time>
      </trkpt>
      <trkpt lat="43.2397607714" lon="2.7807469200">
        <ele>31.38</ele>
        <time>2017-08-01T13:30:32Z</time>
      </trkpt>
      <trkpt lat="43.2398441713" lon="2.7817041334">
        <ele>31.38</ele>
        <time>2017-08-01T13:30:48Z</time>
      </trkpt>
      <trkpt lat="43.2399083767" lon="2.7823268250">
        <ele>31.38</ele>
        <time>2017-08-01T13:30:58Z</time>
      </trkpt>
      <trkpt lat="43.2399202790" lon="2.7823909465">
        <ele>30.90</ele>
        <time>2017-08-01T13:30:59Z</time>
      </trkpt>
      <trkpt lat="43.2400402240" lon="2.7831913345">
        <ele>31.38</ele>
        <time>2017-08-01T13:31:12Z</time>
      </trkpt>
      <trkpt lat="43.2402116340" lon="2.7839462087">
        <ele>31.38</ele>
        <time>2017-08-01T13:31:24Z</time>
      </trkpt>
      <trkpt lat="43.2403795235" lon="2.7844466083">
        <ele>31.38</ele>
        <time>2017-08-01T13:31:32Z</time>
      </trkpt>
      <trkpt lat="43.2406808529" lon="2.7851697151">
        <ele>31.38</ele>
        <time>2017-08-01T13:31:44Z</time>
      </trkpt>
      <trkpt lat="43.2410197333" lon="2.7857650816">
        <ele>31.38</ele>
        <time>2017-08-01T13:31:55Z</time>
      </trkpt>
      <trkpt lat="43.2414594479" lon="2.7864377294">
        <ele>31.38</ele>
        <time>2017-08-01T13:32:08Z</time>
      </trkpt>
      <trkpt lat="43.2416273374" lon="2.7866933774">
        <ele>31.38</ele>
        <time>2017-08-01T13:32:13Z</time>
      </trkpt>
      <trkpt lat="43.2418628689" lon="2.7870470099">
        <ele>31.38</ele>
        <time>2017-08-01T13:32:20Z</time>
      </trkpt>
      <trkpt lat="43.2422373723" lon="2.7876921650">
        <ele>31.38</ele>
        <time>2017-08-01T13:32:32Z</time>
      </trkpt>
      <trkpt lat="43.2422584109" lon="2.7877539396">
        <ele>31.38</ele>
        <time>2017-08-01T13:32:33Z</time>
      </trkpt>
      <trkpt lat="43.2422728278" lon="2.7878217492">
        <ele>31.38</ele>
        <time>2017-08-01T13:32:34Z</time>
      </trkpt>
      <trkpt lat="43.2422962133" lon="2.7879569493">
        <ele>31.38</ele>
        <time>2017-08-01T13:32:36Z</time>
      </trkpt>
      <trkpt lat="43.2423009071" lon="2.7880248427">
        <ele>31.38</ele>
        <time>2017-08-01T13:32:37Z</time>
      </trkpt>
      <trkpt lat="43.2423001528" lon="2.7880908083">
        <ele>31.38</ele>
        <time>2017-08-01T13:32:38Z</time>
      </trkpt>
      <trkpt lat="43.2422955427" lon="2.7881571092">
        <ele>31.38</ele>
        <time>2017-08-01T13:32:39Z</time>
      </trkpt>
      <trkpt lat="43.2422886696" lon="2.7882241644">
        <ele>31.38</ele>
        <time>2017-08-01T13:32:40Z</time>
      </trkpt>
      <trkpt lat="43.2422772702" lon="2.7882902138">
        <ele>31.38</ele>
        <time>2017-08-01T13:32:41Z</time>
      </trkpt>
      <trkpt lat="43.2422641106" lon="2.7883551735">
        <ele>31.38</ele>
        <time>2017-08-01T13:32:42Z</time>
      </trkpt>
      <trkpt lat="43.2421891764" lon="2.7888184413">
        <ele>31.38</ele>
        <time>2017-08-01T13:32:49Z</time>
      </trkpt>
      <trkpt lat="43.2421780284" lon="2.7888852451">
        <ele>31.38</ele>
        <time>2017-08-01T13:32:50Z</time>
      </trkpt>
      <trkpt lat="43.2421641983" lon="2.7889531385">
        <ele>31.38</ele>
        <time>2017-08-01T13:32:51Z</time>
      </trkpt>
      <trkpt lat="43.2420362066" lon="2.7896900754">
        <ele>31.38</ele>
        <time>2017-08-01T13:33:02Z</time>
      </trkpt>
      <trkpt lat="43.2420144975" lon="2.7898142114">
        <ele>31.38</ele>
        <time>2017-08-01T13:33:04Z</time>
      </trkpt>
      <trkpt lat="43.2420046907" lon="2.7898712922">
        <ele>31.38</ele>
        <time>2017-08-01T13:33:05Z</time>
      </trkpt>
      <trkpt lat="43.2419995777" lon="2.7899250202">
        <ele>31.38</ele>
        <time>2017-08-01T13:33:06Z</time>
      </trkpt>
      <trkpt lat="43.2419919502" lon="2.7899836097">
        <ele>31.38</ele>
        <time>2017-08-01T13:33:07Z</time>
      </trkpt>
      <trkpt lat="43.2419795450" lon="2.7900487371">
        <ele>31.38</ele>
        <time>2017-08-01T13:33:08Z</time>
      </trkpt>
      <trkpt lat="43.2419567462" lon="2.7901765611">
        <ele>31.38</ele>
        <time>2017-08-01T13:33:10Z</time>
      </trkpt>
      <trkpt lat="43.2419435028" lon="2.7902420238">
        <ele>31.38</ele>
        <time>2017-08-01T13:33:11Z</time>
      </trkpt>
      <trkpt lat="43.2419177704" lon="2.7904441953">
        <ele>31.38</ele>
        <time>2017-08-01T13:33:14Z</time>
      </trkpt>
      <trkpt lat="43.2419097237" lon="2.7911012527">
        <ele>31.38</ele>
        <time>2017-08-01T13:33:23Z</time>
      </trkpt>
      <trkpt lat="43.2419124059" lon="2.7911699004">
        <ele>31.38</ele>
        <time>2017-08-01T13:33:24Z</time>
      </trkpt>
      <trkpt lat="43.2419165969" lon="2.7912405599">
        <ele>31.38</ele>
        <time>2017-08-01T13:33:25Z</time>
      </trkpt>
      <trkpt lat="43.2419259846" lon="2.7917421330">
        <ele>31.38</ele>
        <time>2017-08-01T13:33:32Z</time>
      </trkpt>
      <trkpt lat="43.2419260684" lon="2.7918135468">
        <ele>31.38</ele>
        <time>2017-08-01T13:33:33Z</time>
      </trkpt>
      <trkpt lat="43.2419401500" lon="2.7923005354">
        <ele>31.86</ele>
        <time>2017-08-01T13:33:40Z</time>
      </trkpt>
      <trkpt lat="43.2419410720" lon="2.7923704404">
        <ele>31.86</ele>
        <time>2017-08-01T13:33:41Z</time>
      </trkpt>
      <trkpt lat="43.2419194467" lon="2.7931710798">
        <ele>31.86</ele>
        <time>2017-08-01T13:33:52Z</time>
      </trkpt>
      <trkpt lat="43.2418504637" lon="2.7940644231">
        <ele>31.86</ele>
        <time>2017-08-01T13:34:05Z</time>
      </trkpt>
      <trkpt lat="43.2417963166" lon="2.7946618851">
        <ele>31.86</ele>
        <time>2017-08-01T13:34:14Z</time>
      </trkpt>
      <trkpt lat="43.2417853363" lon="2.7947317902">
        <ele>31.86</ele>
        <time>2017-08-01T13:34:15Z</time>
      </trkpt>
      <trkpt lat="43.2417807262" lon="2.7948022820">
        <ele>31.86</ele>
        <time>2017-08-01T13:34:16Z</time>
      </trkpt>
      <trkpt lat="43.2417484559" lon="2.7960033249">
        <ele>32.34</ele>
        <time>2017-08-01T13:34:32Z</time>
      </trkpt>
      <trkpt lat="43.2417504676" lon="2.7960782591">
        <ele>31.86</ele>
        <time>2017-08-01T13:34:33Z</time>
      </trkpt>
      <trkpt lat="43.2417587657" lon="2.7965866216">
        <ele>32.34</ele>
        <time>2017-08-01T13:34:40Z</time>
      </trkpt>
      <trkpt lat="43.2417570055" lon="2.7966549341">
        <ele>32.34</ele>
        <time>2017-08-01T13:34:41Z</time>
      </trkpt>
      <trkpt lat="43.2417657226" lon="2.7968512382">
        <ele>32.34</ele>
        <time>2017-08-01T13:34:44Z</time>
      </trkpt>
      <trkpt lat="43.2417820673" lon="2.7969843429">
        <ele>32.82</ele>
        <time>2017-08-01T13:34:46Z</time>
      </trkpt>
      <trkpt lat="43.2418339513" lon="2.7973259054">
        <ele>32.34</ele>
        <time>2017-08-01T13:34:51Z</time>
      </trkpt>
      <trkpt lat="43.2418984920" lon="2.7976071183">
        <ele>32.82</ele>
        <time>2017-08-01T13:34:55Z</time>
      </trkpt>
      <trkpt lat="43.2419143338" lon="2.7976761851">
        <ele>32.82</ele>
        <time>2017-08-01T13:34:56Z</time>
      </trkpt>
      <trkpt lat="43.2419289183" lon="2.7977437433">
        <ele>32.82</ele>
        <time>2017-08-01T13:34:57Z</time>
      </trkpt>
      <trkpt lat="43.2421260606" lon="2.7983894851">
        <ele>33.30</ele>
        <time>2017-08-01T13:35:07Z</time>
      </trkpt>
      <trkpt lat="43.2421727479" lon="2.7985075861">
        <ele>32.34</ele>
        <time>2017-08-01T13:35:09Z</time>
      </trkpt>
      <trkpt lat="43.2422177587" lon="2.7986221667">
        <ele>32.34</ele>
        <time>2017-08-01T13:35:11Z</time>
      </trkpt>
      <trkpt lat="43.2423014939" lon="2.7987943310">
        <ele>32.82</ele>
        <time>2017-08-01T13:35:14Z</time>
      </trkpt>
      <trkpt lat="43.2423309144" lon="2.7988510765">
        <ele>32.82</ele>
        <time>2017-08-01T13:35:15Z</time>
      </trkpt>
      <trkpt lat="43.2423593290" lon="2.7989079058">
        <ele>32.82</ele>
        <time>2017-08-01T13:35:16Z</time>
      </trkpt>
      <trkpt lat="43.2424673717" lon="2.7991214767">
        <ele>32.82</ele>
        <time>2017-08-01T13:35:20Z</time>
      </trkpt>
      <trkpt lat="43.2425203454" lon="2.7992228139">
        <ele>32.82</ele>
        <time>2017-08-01T13:35:22Z</time>
      </trkpt>
      <trkpt lat="43.2425449044" lon="2.7992736921">
        <ele>32.82</ele>
        <time>2017-08-01T13:35:23Z</time>
      </trkpt>
      <trkpt lat="43.2425734866" lon="2.7993215527">
        <ele>32.82</ele>
        <time>2017-08-01T13:35:24Z</time>
      </trkpt>
      <trkpt lat="43.2426009793" lon="2.7993606124">
        <ele>32.82</ele>
        <time>2017-08-01T13:35:25Z</time>
      </trkpt>
      <trkpt lat="43.2426295616" lon="2.7993930504">
        <ele>32.82</ele>
        <time>2017-08-01T13:35:26Z</time>
      </trkpt>
      <trkpt lat="43.2426577248" lon="2.7994209621">
        <ele>32.82</ele>
        <time>2017-08-01T13:35:27Z</time>
      </trkpt>
      <trkpt lat="43.2427483331" lon="2.7995448466">
        <ele>32.82</ele>
        <time>2017-08-01T13:35:31Z</time>
      </trkpt>
      <trkpt lat="43.2428971119" lon="2.7996864170">
        <ele>32.82</ele>
        <time>2017-08-01T13:35:36Z</time>
      </trkpt>
      <trkpt lat="43.2429241017" lon="2.7997300029">
        <ele>32.34</ele>
        <time>2017-08-01T13:35:37Z</time>
      </trkpt>
      <trkpt lat="43.2430217508" lon="2.7998556476">
        <ele>32.34</ele>
        <time>2017-08-01T13:35:40Z</time>
      </trkpt>
      <trkpt lat="43.2432531752" lon="2.8000972979">
        <ele>32.82</ele>
        <time>2017-08-01T13:35:49Z</time>
      </trkpt>
      <trkpt lat="43.2435378246" lon="2.8004003037">
        <ele>33.30</ele>
        <time>2017-08-01T13:36:01Z</time>
      </trkpt>
      <trkpt lat="43.2437119167" lon="2.8005854599">
        <ele>32.82</ele>
        <time>2017-08-01T13:36:10Z</time>
      </trkpt>
      <trkpt lat="43.2440809719" lon="2.8009298723">
        <ele>32.82</ele>
        <time>2017-08-01T13:36:21Z</time>
      </trkpt>
      <trkpt lat="43.2444167510" lon="2.8011396714">
        <ele>32.82</ele>
        <time>2017-08-01T13:36:31Z</time>
      </trkpt>
      <trkpt lat="43.2446386199" lon="2.8012693394">
        <ele>32.82</ele>
        <time>2017-08-01T13:36:37Z</time>
      </trkpt>
      <trkpt lat="43.2449921686" lon="2.8014980815">
        <ele>33.30</ele>
        <time>2017-08-01T13:36:46Z</time>
      </trkpt>
      <trkpt lat="43.2454510778" lon="2.8018345311">
        <ele>33.30</ele>
        <time>2017-08-01T13:36:58Z</time>
      </trkpt>
      <trkpt lat="43.2454871200" lon="2.8018714953">
        <ele>33.30</ele>
        <time>2017-08-01T13:36:59Z</time>
      </trkpt>
      <trkpt lat="43.2456556801" lon="2.8020992316">
        <ele>33.30</ele>
        <time>2017-08-01T13:37:04Z</time>
      </trkpt>
      <trkpt lat="43.2459720131" lon="2.8026067559">
        <ele>33.30</ele>
        <time>2017-08-01T13:37:15Z</time>
      </trkpt>
      <trkpt lat="43.2463037688" lon="2.8031666670">
        <ele>33.78</ele>
        <time>2017-08-01T13:37:27Z</time>
      </trkpt>
      <trkpt lat="43.2463931199" lon="2.8033175413">
        <ele>34.74</ele>
        <time>2017-08-01T13:37:32Z</time>
      </trkpt>
      <trkpt lat="43.2464429084" lon="2.8034735285">
        <ele>37.15</ele>
        <time>2017-08-01T13:37:38Z</time>
      </trkpt>
      <trkpt lat="43.2464638632" lon="2.8034819104">
        <ele>36.19</ele>
        <time>2017-08-01T13:37:39Z</time>
      </trkpt>
      <trkpt lat="43.2464833930" lon="2.8034874424">
        <ele>35.71</ele>
        <time>2017-08-01T13:37:40Z</time>
      </trkpt>
      <trkpt lat="43.2464999892" lon="2.8035024460">
        <ele>35.71</ele>
        <time>2017-08-01T13:37:41Z</time>
      </trkpt>
      <trkpt lat="43.2465128135" lon="2.8035249934">
        <ele>35.71</ele>
        <time>2017-08-01T13:37:42Z</time>
      </trkpt>
      <trkpt lat="43.2465258054" lon="2.8035459481">
        <ele>35.71</ele>
        <time>2017-08-01T13:37:43Z</time>
      </trkpt>
      <trkpt lat="43.2465459220" lon="2.8035627957">
        <ele>35.71</ele>
        <time>2017-08-01T13:37:44Z</time>
      </trkpt>
      <trkpt lat="43.2465705648" lon="2.8035795595">
        <ele>35.71</ele>
        <time>2017-08-01T13:37:45Z</time>
      </trkpt>
      <trkpt lat="43.2465972193" lon="2.8036010172">
        <ele>34.74</ele>
        <time>2017-08-01T13:37:46Z</time>
      </trkpt>
      <trkpt lat="43.2468273863" lon="2.8037663922">
        <ele>34.74</ele>
        <time>2017-08-01T13:37:53Z</time>
      </trkpt>
      <trkpt lat="43.2471567951" lon="2.8040358704">
        <ele>34.74</ele>
        <time>2017-08-01T13:38:03Z</time>
      </trkpt>
      <trkpt lat="43.2473064959" lon="2.8042825498">
        <ele>35.23</ele>
        <time>2017-08-01T13:38:11Z</time>
      </trkpt>
      <trkpt lat="43.2474701945" lon="2.8045661934">
        <ele>34.74</ele>
        <time>2017-08-01T13:38:19Z</time>
      </trkpt>
      <trkpt lat="43.2476983499" lon="2.8049196582">
        <ele>34.74</ele>
        <time>2017-08-01T13:38:28Z</time>
      </trkpt>
      <trkpt lat="43.2477448694" lon="2.8050085902">
        <ele>34.74</ele>
        <time>2017-08-01T13:38:30Z</time>
      </trkpt>
      <trkpt lat="43.2477718592" lon="2.8050534334">
        <ele>34.74</ele>
        <time>2017-08-01T13:38:31Z</time>
      </trkpt>
      <trkpt lat="43.2481290121" lon="2.8056403343">
        <ele>35.23</ele>
        <time>2017-08-01T13:38:43Z</time>
      </trkpt>
      <trkpt lat="43.2486689743" lon="2.8064742498">
        <ele>35.23</ele>
        <time>2017-08-01T13:38:57Z</time>
      </trkpt>
      <trkpt lat="43.2493241876" lon="2.8074276075">
        <ele>34.74</ele>
        <time>2017-08-01T13:39:12Z</time>
      </trkpt>
      <trkpt lat="43.2498153672" lon="2.8082069568">
        <ele>34.74</ele>
        <time>2017-08-01T13:39:25Z</time>
      </trkpt>
      <trkpt lat="43.2500528265" lon="2.8090056684">
        <ele>34.74</ele>
        <time>2017-08-01T13:39:36Z</time>
      </trkpt>
      <trkpt lat="43.2502885256" lon="2.8099232353">
        <ele>35.23</ele>
        <time>2017-08-01T13:39:49Z</time>
      </trkpt>
      <trkpt lat="43.2504808065" lon="2.8106299136">
        <ele>35.23</ele>
        <time>2017-08-01T13:40:01Z</time>
      </trkpt>
      <trkpt lat="43.2506452594" lon="2.8111512680">
        <ele>35.23</ele>
        <time>2017-08-01T13:40:13Z</time>
      </trkpt>
      <trkpt lat="43.2507543918" lon="2.8114981111">
        <ele>35.23</ele>
        <time>2017-08-01T13:40:19Z</time>
      </trkpt>
      <trkpt lat="43.2507947087" lon="2.8116768133">
        <ele>36.19</ele>
        <time>2017-08-01T13:40:22Z</time>
      </trkpt>
      <trkpt lat="43.2508074492" lon="2.8117336426">
        <ele>35.71</ele>
        <time>2017-08-01T13:40:23Z</time>
      </trkpt>
      <trkpt lat="43.2508128136" lon="2.8117932379">
        <ele>35.23</ele>
        <time>2017-08-01T13:40:24Z</time>
      </trkpt>
      <trkpt lat="43.2508127298" lon="2.8119160328">
        <ele>34.74</ele>
        <time>2017-08-01T13:40:26Z</time>
      </trkpt>
      <trkpt lat="43.2508210279" lon="2.8119748738">
        <ele>34.74</ele>
        <time>2017-08-01T13:40:27Z</time>
      </trkpt>
      <trkpt lat="43.2508341037" lon="2.8120275121">
        <ele>35.23</ele>
        <time>2017-08-01T13:40:28Z</time>
      </trkpt>
      <trkpt lat="43.2508503646" lon="2.8120749537">
        <ele>35.23</ele>
        <time>2017-08-01T13:40:29Z</time>
      </trkpt>
      <trkpt lat="43.2508705650" lon="2.8121160250">
        <ele>35.23</ele>
        <time>2017-08-01T13:40:30Z</time>
      </trkpt>
      <trkpt lat="43.2508930285" lon="2.8121521510">
        <ele>35.23</ele>
        <time>2017-08-01T13:40:31Z</time>
      </trkpt>
      <trkpt lat="43.2509163301" lon="2.8121828288">
        <ele>35.23</ele>
        <time>2017-08-01T13:40:32Z</time>
      </trkpt>
      <trkpt lat="43.2509399671" lon="2.8122072201">
        <ele>35.23</ele>
        <time>2017-08-01T13:40:33Z</time>
      </trkpt>
      <trkpt lat="43.2509594969" lon="2.8122365568">
        <ele>35.23</ele>
        <time>2017-08-01T13:40:34Z</time>
      </trkpt>
      <trkpt lat="43.2509746682" lon="2.8122783825">
        <ele>35.23</ele>
        <time>2017-08-01T13:40:35Z</time>
      </trkpt>
      <trkpt lat="43.2509864029" lon="2.8123279195">
        <ele>35.23</ele>
        <time>2017-08-01T13:40:36Z</time>
      </trkpt>
      <trkpt lat="43.2509953715" lon="2.8123818152">
        <ele>35.23</ele>
        <time>2017-08-01T13:40:37Z</time>
      </trkpt>
      <trkpt lat="43.2510066032" lon="2.8124354593">
        <ele>35.23</ele>
        <time>2017-08-01T13:40:38Z</time>
      </trkpt>
      <trkpt lat="43.2510189246" lon="2.8124856669">
        <ele>35.23</ele>
        <time>2017-08-01T13:40:39Z</time>
      </trkpt>
      <trkpt lat="43.2510283124" lon="2.8125337791">
        <ele>33.30</ele>
        <time>2017-08-01T13:40:40Z</time>
      </trkpt>
      <trkpt lat="43.2510370295" lon="2.8125803825">
        <ele>36.67</ele>
        <time>2017-08-01T13:40:41Z</time>
      </trkpt>
      <trkpt lat="43.2510678750" lon="2.8127772734">
        <ele>33.30</ele>
        <time>2017-08-01T13:40:45Z</time>
      </trkpt>
      <trkpt lat="43.2511006482" lon="2.8132694587">
        <ele>36.19</ele>
        <time>2017-08-01T13:40:55Z</time>
      </trkpt>
      <trkpt lat="43.2511351816" lon="2.8138228320">
        <ele>36.67</ele>
        <time>2017-08-01T13:41:06Z</time>
      </trkpt>
      <trkpt lat="43.2511793543" lon="2.8144243173">
        <ele>37.15</ele>
        <time>2017-08-01T13:41:17Z</time>
      </trkpt>
      <trkpt lat="43.2512203418" lon="2.8150164150">
        <ele>36.67</ele>
        <time>2017-08-01T13:41:27Z</time>
      </trkpt>
      <trkpt lat="43.2512201741" lon="2.8150757588">
        <ele>36.19</ele>
        <time>2017-08-01T13:41:28Z</time>
      </trkpt>
      <trkpt lat="43.2512255386" lon="2.8151370306">
        <ele>36.19</ele>
        <time>2017-08-01T13:41:29Z</time>
      </trkpt>
      <trkpt lat="43.2512298971" lon="2.8151965421">
        <ele>36.19</ele>
        <time>2017-08-01T13:41:30Z</time>
      </trkpt>
      <trkpt lat="43.2512331661" lon="2.8152587358">
        <ele>36.19</ele>
        <time>2017-08-01T13:41:31Z</time>
      </trkpt>
      <trkpt lat="43.2512722258" lon="2.8156630788">
        <ele>36.19</ele>
        <time>2017-08-01T13:41:37Z</time>
      </trkpt>
      <trkpt lat="43.2514290512" lon="2.8164027818">
        <ele>36.19</ele>
        <time>2017-08-01T13:41:49Z</time>
      </trkpt>
      <trkpt lat="43.2514437195" lon="2.8164547496">
        <ele>36.19</ele>
        <time>2017-08-01T13:41:50Z</time>
      </trkpt>
      <trkpt lat="43.2514595613" lon="2.8165077232">
        <ele>36.19</ele>
        <time>2017-08-01T13:41:51Z</time>
      </trkpt>
      <trkpt lat="43.2514917478" lon="2.8166221362">
        <ele>36.19</ele>
        <time>2017-08-01T13:41:53Z</time>
      </trkpt>
      <trkpt lat="43.2515121158" lon="2.8166755289">
        <ele>36.19</ele>
        <time>2017-08-01T13:41:54Z</time>
      </trkpt>
      <trkpt lat="43.2515305560" lon="2.8167310171">
        <ele>36.19</ele>
        <time>2017-08-01T13:41:55Z</time>
      </trkpt>
      <trkpt lat="43.2515457273" lon="2.8167957254">
        <ele>36.19</ele>
        <time>2017-08-01T13:41:56Z</time>
      </trkpt>
      <trkpt lat="43.2515607309" lon="2.8168680612">
        <ele>36.19</ele>
        <time>2017-08-01T13:41:57Z</time>
      </trkpt>
      <trkpt lat="43.2516747247" lon="2.8172677103">
        <ele>36.19</ele>
        <time>2017-08-01T13:42:04Z</time>
      </trkpt>
      <trkpt lat="43.2517006248" lon="2.8172892518">
        <ele>36.19</ele>
        <time>2017-08-01T13:42:05Z</time>
      </trkpt>
      <trkpt lat="43.2517177239" lon="2.8173255455">
        <ele>36.19</ele>
        <time>2017-08-01T13:42:06Z</time>
      </trkpt>
      <trkpt lat="43.2517416123" lon="2.8174261283">
        <ele>35.71</ele>
        <time>2017-08-01T13:42:08Z</time>
      </trkpt>
      <trkpt lat="43.2517531794" lon="2.8174854722">
        <ele>35.71</ele>
        <time>2017-08-01T13:42:09Z</time>
      </trkpt>
      <trkpt lat="43.2517655008" lon="2.8175454866">
        <ele>35.71</ele>
        <time>2017-08-01T13:42:10Z</time>
      </trkpt>
      <trkpt lat="43.2517747208" lon="2.8176102787">
        <ele>35.71</ele>
        <time>2017-08-01T13:42:11Z</time>
      </trkpt>
      <trkpt lat="43.2517820969" lon="2.8176738136">
        <ele>36.67</ele>
        <time>2017-08-01T13:42:12Z</time>
      </trkpt>
      <trkpt lat="43.2517909817" lon="2.8177353367">
        <ele>36.19</ele>
        <time>2017-08-01T13:42:13Z</time>
      </trkpt>
      <trkpt lat="43.2518094219" lon="2.8182094172">
        <ele>36.19</ele>
        <time>2017-08-01T13:42:22Z</time>
      </trkpt>
      <trkpt lat="43.2517942507" lon="2.8186021093">
        <ele>35.71</ele>
        <time>2017-08-01T13:42:29Z</time>
      </trkpt>
      <trkpt lat="43.2517665066" lon="2.8192839772">
        <ele>36.19</ele>
        <time>2017-08-01T13:42:39Z</time>
      </trkpt>
      <trkpt lat="43.2517587114" lon="2.8194356058">
        <ele>36.19</ele>
        <time>2017-08-01T13:42:41Z</time>
      </trkpt>
      <trkpt lat="43.2517566159" lon="2.8195127193">
        <ele>35.71</ele>
        <time>2017-08-01T13:42:42Z</time>
      </trkpt>
      <trkpt lat="43.2517442945" lon="2.8197403718">
        <ele>36.19</ele>
        <time>2017-08-01T13:42:45Z</time>
      </trkpt>
      <trkpt lat="43.2516509201" lon="2.8207118344">
        <ele>36.19</ele>
        <time>2017-08-01T13:42:58Z</time>
      </trkpt>
      <trkpt lat="43.2515233476" lon="2.8213375434">
        <ele>36.19</ele>
        <time>2017-08-01T13:43:07Z</time>
      </trkpt>
      <trkpt lat="43.2515015546" lon="2.8214067779">
        <ele>36.19</ele>
        <time>2017-08-01T13:43:08Z</time>
      </trkpt>
      <trkpt lat="43.2513376046" lon="2.8218495101">
        <ele>36.67</ele>
        <time>2017-08-01T13:43:15Z</time>
      </trkpt>
      <trkpt lat="43.2513108663" lon="2.8219035733">
        <ele>36.67</ele>
        <time>2017-08-01T13:43:16Z</time>
      </trkpt>
      <trkpt lat="43.2511530351" lon="2.8222525120">
        <ele>36.67</ele>
        <time>2017-08-01T13:43:22Z</time>
      </trkpt>
      <trkpt lat="43.2510300726" lon="2.8225451242">
        <ele>36.67</ele>
        <time>2017-08-01T13:43:27Z</time>
      </trkpt>
      <trkpt lat="43.2507668808" lon="2.8231422510">
        <ele>36.67</ele>
        <time>2017-08-01T13:43:38Z</time>
      </trkpt>
      <trkpt lat="43.2505575009" lon="2.8236564808">
        <ele>36.67</ele>
        <time>2017-08-01T13:43:47Z</time>
      </trkpt>
      <trkpt lat="43.2504251506" lon="2.8242756519">
        <ele>37.15</ele>
        <time>2017-08-01T13:43:59Z</time>
      </trkpt>
      <trkpt lat="43.2504138350" lon="2.8243086766">
        <ele>37.63</ele>
        <time>2017-08-01T13:44:00Z</time>
      </trkpt>
      <trkpt lat="43.2504000049" lon="2.8243352473">
        <ele>37.63</ele>
        <time>2017-08-01T13:44:01Z</time>
      </trkpt>
      <trkpt lat="43.2503972389" lon="2.8243608959">
        <ele>38.11</ele>
        <time>2017-08-01T13:44:02Z</time>
      </trkpt>
      <trkpt lat="43.2503946405" lon="2.8246245906">
        <ele>38.11</ele>
        <time>2017-08-01T13:44:08Z</time>
      </trkpt>
      <trkpt lat="43.2503568381" lon="2.8249224834">
        <ele>38.11</ele>
        <time>2017-08-01T13:44:17Z</time>
      </trkpt>
      <trkpt lat="43.2503555808" lon="2.8249214776">
        <ele>38.11</ele>
        <time>2017-08-01T13:44:27Z</time>
      </trkpt>
      <trkpt lat="43.2503568381" lon="2.8249061387">
        <ele>38.11</ele>
        <time>2017-08-01T13:44:28Z</time>
      </trkpt>
      <trkpt lat="43.2503588498" lon="2.8248893749">
        <ele>38.11</ele>
        <time>2017-08-01T13:44:29Z</time>
      </trkpt>
      <trkpt lat="43.2503617834" lon="2.8248717729">
        <ele>38.11</ele>
        <time>2017-08-01T13:44:30Z</time>
      </trkpt>
      <trkpt lat="43.2503658067" lon="2.8248535842">
        <ele>38.11</ele>
        <time>2017-08-01T13:44:31Z</time>
      </trkpt>
      <trkpt lat="43.2503702492" lon="2.8248345573">
        <ele>38.11</ele>
        <time>2017-08-01T13:44:32Z</time>
      </trkpt>
      <trkpt lat="43.2503736019" lon="2.8248156980">
        <ele>38.59</ele>
        <time>2017-08-01T13:44:33Z</time>
      </trkpt>
      <trkpt lat="43.2504093926" lon="2.8244922403">
        <ele>38.59</ele>
        <time>2017-08-01T13:44:49Z</time>
      </trkpt>
      <trkpt lat="43.2503932994" lon="2.8243652545">
        <ele>39.55</ele>
        <time>2017-08-01T13:44:57Z</time>
      </trkpt>
      <trkpt lat="43.2503961492" lon="2.8243473172">
        <ele>39.55</ele>
        <time>2017-08-01T13:44:58Z</time>
      </trkpt>
      <trkpt lat="43.2504036929" lon="2.8243289609">
        <ele>39.55</ele>
        <time>2017-08-01T13:44:59Z</time>
      </trkpt>
      <trkpt lat="43.2504127454" lon="2.8243095987">
        <ele>39.07</ele>
        <time>2017-08-01T13:45:00Z</time>
      </trkpt>
      <trkpt lat="43.2504188642" lon="2.8242924158">
        <ele>38.59</ele>
        <time>2017-08-01T13:45:01Z</time>
      </trkpt>
      <trkpt lat="43.2504221331" lon="2.8242756519">
        <ele>38.59</ele>
        <time>2017-08-01T13:45:02Z</time>
      </trkpt>
      <trkpt lat="43.2504238095" lon="2.8242564574">
        <ele>38.59</ele>
        <time>2017-08-01T13:45:03Z</time>
      </trkpt>
      <trkpt lat="43.2504262403" lon="2.8241913300">
        <ele>38.59</ele>
        <time>2017-08-01T13:45:06Z</time>
      </trkpt>
      <trkpt lat="43.2504169364" lon="2.8241690341">
        <ele>38.59</ele>
        <time>2017-08-01T13:45:07Z</time>
      </trkpt>
      <trkpt lat="43.2503901981" lon="2.8241255321">
        <ele>40.03</ele>
        <time>2017-08-01T13:45:14Z</time>
      </trkpt>
      <trkpt lat="43.2503891084" lon="2.8241231013">
        <ele>40.51</ele>
        <time>2017-08-01T13:45:21Z</time>
      </trkpt>
      <trkpt lat="43.2503715064" lon="2.8241247777">
        <ele>40.51</ele>
        <time>2017-08-01T13:45:22Z</time>
      </trkpt>
      <trkpt lat="43.2503591012" lon="2.8241404518">
        <ele>40.51</ele>
        <time>2017-08-01T13:45:23Z</time>
      </trkpt>
      <trkpt lat="43.2503562514" lon="2.8241663519">
        <ele>40.51</ele>
        <time>2017-08-01T13:45:24Z</time>
      </trkpt>
      <trkpt lat="43.2503534015" lon="2.8241965268">
        <ele>40.51</ele>
        <time>2017-08-01T13:45:25Z</time>
      </trkpt>
      <trkpt lat="43.2503499649" lon="2.8242304735">
        <ele>40.51</ele>
        <time>2017-08-01T13:45:26Z</time>
      </trkpt>
      <trkpt lat="43.2503479533" lon="2.8242665157">
        <ele>40.51</ele>
        <time>2017-08-01T13:45:27Z</time>
      </trkpt>
      <trkpt lat="43.2503316086" lon="2.8247486427">
        <ele>40.03</ele>
        <time>2017-08-01T13:45:37Z</time>
      </trkpt>
      <trkpt lat="43.2502109930" lon="2.8254124057">
        <ele>40.51</ele>
        <time>2017-08-01T13:45:49Z</time>
      </trkpt>
      <trkpt lat="43.2501697540" lon="2.8256008308">
        <ele>40.51</ele>
        <time>2017-08-01T13:45:52Z</time>
      </trkpt>
      <trkpt lat="43.2501563430" lon="2.8256608453">
        <ele>40.51</ele>
        <time>2017-08-01T13:45:53Z</time>
      </trkpt>
      <trkpt lat="43.2501404174" lon="2.8257222846">
        <ele>40.51</ele>
        <time>2017-08-01T13:45:54Z</time>
      </trkpt>
      <trkpt lat="43.2498856913" lon="2.8266375046">
        <ele>40.51</ele>
        <time>2017-08-01T13:46:08Z</time>
      </trkpt>
      <trkpt lat="43.2496006228" lon="2.8276446741">
        <ele>40.99</ele>
        <time>2017-08-01T13:46:22Z</time>
      </trkpt>
      <trkpt lat="43.2493818551" lon="2.8284365125">
        <ele>40.99</ele>
        <time>2017-08-01T13:46:33Z</time>
      </trkpt>
      <trkpt lat="43.2491050009" lon="2.8293892834">
        <ele>41.47</ele>
        <time>2017-08-01T13:46:46Z</time>
      </trkpt>
      <trkpt lat="43.2488563098" lon="2.8302725684">
        <ele>41.47</ele>
        <time>2017-08-01T13:46:58Z</time>
      </trkpt>
      <trkpt lat="43.2486460917" lon="2.8312630579">
        <ele>41.47</ele>
        <time>2017-08-01T13:47:11Z</time>
      </trkpt>
      <trkpt lat="43.2486120611" lon="2.8316573426">
        <ele>41.47</ele>
        <time>2017-08-01T13:47:16Z</time>
      </trkpt>
      <trkpt lat="43.2486255560" lon="2.8325848840">
        <ele>41.47</ele>
        <time>2017-08-01T13:47:28Z</time>
      </trkpt>
      <trkpt lat="43.2486201078" lon="2.8329556156">
        <ele>48.20</ele>
        <time>2017-08-01T13:47:33Z</time>
      </trkpt>
      <trkpt lat="43.2486196049" lon="2.8330277838">
        <ele>41.95</ele>
        <time>2017-08-01T13:47:34Z</time>
      </trkpt>
      <trkpt lat="43.2486140728" lon="2.8333423566">
        <ele>41.95</ele>
        <time>2017-08-01T13:47:39Z</time>
      </trkpt>
      <trkpt lat="43.2486111391" lon="2.8333984315">
        <ele>42.44</ele>
        <time>2017-08-01T13:47:40Z</time>
      </trkpt>
      <trkpt lat="43.2486098818" lon="2.8334512375">
        <ele>42.44</ele>
        <time>2017-08-01T13:47:41Z</time>
      </trkpt>
      <trkpt lat="43.2486480195" lon="2.8337324504">
        <ele>43.40</ele>
        <time>2017-08-01T13:47:50Z</time>
      </trkpt>
      <trkpt lat="43.2486703154" lon="2.8337363061">
        <ele>43.40</ele>
        <time>2017-08-01T13:47:51Z</time>
      </trkpt>
      <trkpt lat="43.2486932818" lon="2.8337373957">
        <ele>43.40</ele>
        <time>2017-08-01T13:47:52Z</time>
      </trkpt>
      <trkpt lat="43.2487160806" lon="2.8337351326">
        <ele>43.88</ele>
        <time>2017-08-01T13:47:53Z</time>
      </trkpt>
      <trkpt lat="43.2487399690" lon="2.8337340429">
        <ele>43.88</ele>
        <time>2017-08-01T13:47:54Z</time>
      </trkpt>
      <trkpt lat="43.2487636898" lon="2.8337350488">
        <ele>43.88</ele>
        <time>2017-08-01T13:47:55Z</time>
      </trkpt>
      <trkpt lat="43.2489801943" lon="2.8337788023">
        <ele>45.80</ele>
        <time>2017-08-01T13:48:04Z</time>
      </trkpt>
      <trkpt lat="43.2489957009" lon="2.8337974101">
        <ele>45.80</ele>
        <time>2017-08-01T13:48:05Z</time>
      </trkpt>
      <trkpt lat="43.2490019873" lon="2.8338209633">
        <ele>45.80</ele>
        <time>2017-08-01T13:48:06Z</time>
      </trkpt>
      <trkpt lat="43.2489988860" lon="2.8338466957">
        <ele>45.80</ele>
        <time>2017-08-01T13:48:07Z</time>
      </trkpt>
      <trkpt lat="43.2489924319" lon="2.8338715900">
        <ele>45.80</ele>
        <time>2017-08-01T13:48:08Z</time>
      </trkpt>
      <trkpt lat="43.2489862293" lon="2.8338981606">
        <ele>45.80</ele>
        <time>2017-08-01T13:48:09Z</time>
      </trkpt>
      <trkpt lat="43.2489840500" lon="2.8339268267">
        <ele>45.80</ele>
        <time>2017-08-01T13:48:10Z</time>
      </trkpt>
      <trkpt lat="43.2489446551" lon="2.8340239730">
        <ele>45.80</ele>
        <time>2017-08-01T13:48:18Z</time>
      </trkpt>
      <trkpt lat="43.2489523664" lon="2.8340203688">
        <ele>45.80</ele>
        <time>2017-08-01T13:48:38Z</time>
      </trkpt>
      <trkpt lat="43.2489736564" lon="2.8340417426">
        <ele>45.80</ele>
        <time>2017-08-01T13:48:43Z</time>
      </trkpt>
      <trkpt lat="43.2489744946" lon="2.8340268228">
        <ele>45.32</ele>
        <time>2017-08-01T13:48:44Z</time>
      </trkpt>
      <trkpt lat="43.2489746623" lon="2.8340096399">
        <ele>45.80</ele>
        <time>2017-08-01T13:48:45Z</time>
      </trkpt>
      <trkpt lat="43.2489746623" lon="2.8339905292">
        <ele>45.80</ele>
        <time>2017-08-01T13:48:46Z</time>
      </trkpt>
      <trkpt lat="43.2489759196" lon="2.8339667246">
        <ele>45.32</ele>
        <time>2017-08-01T13:48:47Z</time>
      </trkpt>
      <trkpt lat="43.2489801943" lon="2.8339391481">
        <ele>45.32</ele>
        <time>2017-08-01T13:48:48Z</time>
      </trkpt>
      <trkpt lat="43.2489819545" lon="2.8339102305">
        <ele>45.32</ele>
        <time>2017-08-01T13:48:49Z</time>
      </trkpt>
      <trkpt lat="43.2489852235" lon="2.8338801395">
        <ele>45.32</ele>
        <time>2017-08-01T13:48:50Z</time>
      </trkpt>
      <trkpt lat="43.2489932701" lon="2.8338516410">
        <ele>45.32</ele>
        <time>2017-08-01T13:48:51Z</time>
      </trkpt>
      <trkpt lat="43.2490047533" lon="2.8338239808">
        <ele>44.84</ele>
        <time>2017-08-01T13:48:52Z</time>
      </trkpt>
      <trkpt lat="43.2490157336" lon="2.8337979130">
        <ele>44.84</ele>
        <time>2017-08-01T13:48:53Z</time>
      </trkpt>
      <trkpt lat="43.2490571402" lon="2.8337209672">
        <ele>45.32</ele>
        <time>2017-08-01T13:49:01Z</time>
      </trkpt>
      <trkpt lat="43.2490629237" lon="2.8337108251">
        <ele>44.84</ele>
        <time>2017-08-01T13:49:16Z</time>
      </trkpt>
      <trkpt lat="43.2490607444" lon="2.8337100707">
        <ele>44.36</ele>
        <time>2017-08-01T13:49:19Z</time>
      </trkpt>
      <trkpt lat="43.2490485068" lon="2.8337017726">
        <ele>44.36</ele>
        <time>2017-08-01T13:49:20Z</time>
      </trkpt>
      <trkpt lat="43.2490369398" lon="2.8336897865">
        <ele>44.36</ele>
        <time>2017-08-01T13:49:21Z</time>
      </trkpt>
      <trkpt lat="43.2490233611" lon="2.8336787224">
        <ele>44.36</ele>
        <time>2017-08-01T13:49:22Z</time>
      </trkpt>
      <trkpt lat="43.2490079384" lon="2.8336751182">
        <ele>44.36</ele>
        <time>2017-08-01T13:49:23Z</time>
      </trkpt>
      <trkpt lat="43.2489891630" lon="2.8336783871">
        <ele>43.88</ele>
        <time>2017-08-01T13:49:24Z</time>
      </trkpt>
      <trkpt lat="43.2489667833" lon="2.8336830810">
        <ele>43.88</ele>
        <time>2017-08-01T13:49:25Z</time>
      </trkpt>
      <trkpt lat="43.2489423081" lon="2.8336930554">
        <ele>43.88</ele>
        <time>2017-08-01T13:49:26Z</time>
      </trkpt>
      <trkpt lat="43.2489151508" lon="2.8337083943">
        <ele>43.40</ele>
        <time>2017-08-01T13:49:27Z</time>
      </trkpt>
      <trkpt lat="43.2488860656" lon="2.8337215539">
        <ele>43.40</ele>
        <time>2017-08-01T13:49:28Z</time>
      </trkpt>
      <trkpt lat="43.2488557231" lon="2.8337247390">
        <ele>43.40</ele>
        <time>2017-08-01T13:49:29Z</time>
      </trkpt>
      <trkpt lat="43.2488285657" lon="2.8337203804">
        <ele>43.40</ele>
        <time>2017-08-01T13:49:30Z</time>
      </trkpt>
      <trkpt lat="43.2488054316" lon="2.8337161895">
        <ele>42.92</ele>
        <time>2017-08-01T13:49:31Z</time>
      </trkpt>
      <trkpt lat="43.2487786096" lon="2.8337152675">
        <ele>42.92</ele>
        <time>2017-08-01T13:49:32Z</time>
      </trkpt>
      <trkpt lat="43.2486413978" lon="2.8337419219">
        <ele>41.95</ele>
        <time>2017-08-01T13:49:36Z</time>
      </trkpt>
      <trkpt lat="43.2486196887" lon="2.8337814845">
        <ele>41.47</ele>
        <time>2017-08-01T13:49:37Z</time>
      </trkpt>
      <trkpt lat="43.2486124802" lon="2.8338347096">
        <ele>40.99</ele>
        <time>2017-08-01T13:49:38Z</time>
      </trkpt>
      <trkpt lat="43.2486294117" lon="2.8345966246">
        <ele>39.07</ele>
        <time>2017-08-01T13:49:48Z</time>
      </trkpt>
      <trkpt lat="43.2487076987" lon="2.8354280256">
        <ele>38.59</ele>
        <time>2017-08-01T13:49:58Z</time>
      </trkpt>
      <trkpt lat="43.2487258036" lon="2.8356836736">
        <ele>38.11</ele>
        <time>2017-08-01T13:50:01Z</time>
      </trkpt>
      <trkpt lat="43.2487040106" lon="2.8366360255">
        <ele>38.11</ele>
        <time>2017-08-01T13:50:12Z</time>
      </trkpt>
      <trkpt lat="43.2486520428" lon="2.8375403490">
        <ele>37.63</ele>
        <time>2017-08-01T13:50:22Z</time>
      </trkpt>
      <trkpt lat="43.2485904358" lon="2.8386776894">
        <ele>37.15</ele>
        <time>2017-08-01T13:50:34Z</time>
      </trkpt>
      <trkpt lat="43.2485835627" lon="2.8388567269">
        <ele>30.42</ele>
        <time>2017-08-01T13:50:36Z</time>
      </trkpt>
      <trkpt lat="43.2485794555" lon="2.8389337566">
        <ele>37.63</ele>
        <time>2017-08-01T13:50:37Z</time>
      </trkpt>
      <trkpt lat="43.2485629432" lon="2.8390651010">
        <ele>37.15</ele>
        <time>2017-08-01T13:50:39Z</time>
      </trkpt>
      <trkpt lat="43.2485472690" lon="2.8391991276">
        <ele>36.67</ele>
        <time>2017-08-01T13:50:45Z</time>
      </trkpt>
      <trkpt lat="43.2485471014" lon="2.8392100241">
        <ele>36.67</ele>
        <time>2017-08-01T13:50:49Z</time>
      </trkpt>
      <trkpt lat="43.2486317586" lon="2.8393524326">
        <ele>35.71</ele>
        <time>2017-08-01T13:50:55Z</time>
      </trkpt>
      <trkpt lat="43.2486422360" lon="2.8393945936">
        <ele>35.71</ele>
        <time>2017-08-01T13:50:56Z</time>
      </trkpt>
      <trkpt lat="43.2487154100" lon="2.8395717870">
        <ele>35.71</ele>
        <time>2017-08-01T13:51:00Z</time>
      </trkpt>
      <trkpt lat="43.2487452496" lon="2.8396147862">
        <ele>35.71</ele>
        <time>2017-08-01T13:51:01Z</time>
      </trkpt>
      <trkpt lat="43.2487806212" lon="2.8396500740">
        <ele>35.23</ele>
        <time>2017-08-01T13:51:02Z</time>
      </trkpt>
      <trkpt lat="43.2489123847" lon="2.8397287801">
        <ele>35.23</ele>
        <time>2017-08-01T13:51:05Z</time>
      </trkpt>
      <trkpt lat="43.2495038118" lon="2.8398287762">
        <ele>34.26</ele>
        <time>2017-08-01T13:51:17Z</time>
      </trkpt>
      <trkpt lat="43.2501650602" lon="2.8397615533">
        <ele>33.78</ele>
        <time>2017-08-01T13:51:30Z</time>
      </trkpt>
      <trkpt lat="43.2508848142" lon="2.8396091703">
        <ele>32.82</ele>
        <time>2017-08-01T13:51:44Z</time>
      </trkpt>
      <trkpt lat="43.2515830267" lon="2.8394170571">
        <ele>32.34</ele>
        <time>2017-08-01T13:51:57Z</time>
      </trkpt>
      <trkpt lat="43.2521715201" lon="2.8391943499">
        <ele>31.86</ele>
        <time>2017-08-01T13:52:08Z</time>
      </trkpt>
      <trkpt lat="43.2526632026" lon="2.8388901707">
        <ele>30.90</ele>
        <time>2017-08-01T13:52:18Z</time>
      </trkpt>
      <trkpt lat="43.2530249655" lon="2.8386667930">
        <ele>30.42</ele>
        <time>2017-08-01T13:52:26Z</time>
      </trkpt>
      <trkpt lat="43.2530777715" lon="2.8386441618">
        <ele>30.42</ele>
        <time>2017-08-01T13:52:27Z</time>
      </trkpt>
      <trkpt lat="43.2531304937" lon="2.8386315890">
        <ele>30.42</ele>
        <time>2017-08-01T13:52:28Z</time>
      </trkpt>
      <trkpt lat="43.2531821262" lon="2.8386352770">
        <ele>30.42</ele>
        <time>2017-08-01T13:52:29Z</time>
      </trkpt>
      <trkpt lat="43.2532354351" lon="2.8386483528">
        <ele>30.42</ele>
        <time>2017-08-01T13:52:30Z</time>
      </trkpt>
      <trkpt lat="43.2532884087" lon="2.8386698104">
        <ele>29.94</ele>
        <time>2017-08-01T13:52:31Z</time>
      </trkpt>
      <trkpt lat="43.2533450704" lon="2.8386971354">
        <ele>29.94</ele>
        <time>2017-08-01T13:52:32Z</time>
      </trkpt>
      <trkpt lat="43.2534067612" lon="2.8387306631">
        <ele>29.94</ele>
        <time>2017-08-01T13:52:33Z</time>
      </trkpt>
      <trkpt lat="43.2534591481" lon="2.8387767635">
        <ele>29.94</ele>
        <time>2017-08-01T13:52:34Z</time>
      </trkpt>
      <trkpt lat="43.2535101101" lon="2.8388266359">
        <ele>29.94</ele>
        <time>2017-08-01T13:52:35Z</time>
      </trkpt>
      <trkpt lat="43.2538549416" lon="2.8392470721">
        <ele>29.46</ele>
        <time>2017-08-01T13:52:45Z</time>
      </trkpt>
      <trkpt lat="43.2539621461" lon="2.8394121118">
        <ele>28.50</ele>
        <time>2017-08-01T13:52:53Z</time>
      </trkpt>
      <trkpt lat="43.2541081589" lon="2.8396092542">
        <ele>28.02</ele>
        <time>2017-08-01T13:53:03Z</time>
      </trkpt>
      <trkpt lat="43.2542658225" lon="2.8398396727">
        <ele>27.53</ele>
        <time>2017-08-01T13:53:13Z</time>
      </trkpt>
      <trkpt lat="43.2543612923" lon="2.8401311114">
        <ele>27.53</ele>
        <time>2017-08-01T13:53:22Z</time>
      </trkpt>
      <trkpt lat="43.2543591131" lon="2.8405138291">
        <ele>27.05</ele>
        <time>2017-08-01T13:53:31Z</time>
      </trkpt>
      <trkpt lat="43.2543419302" lon="2.8406647034">
        <ele>27.53</ele>
        <time>2017-08-01T13:53:34Z</time>
      </trkpt>
      <trkpt lat="43.2543290220" lon="2.8407166712">
        <ele>27.53</ele>
        <time>2017-08-01T13:53:35Z</time>
      </trkpt>
      <trkpt lat="43.2543146051" lon="2.8407668788">
        <ele>27.53</ele>
        <time>2017-08-01T13:53:36Z</time>
      </trkpt>
      <trkpt lat="43.2542965002" lon="2.8408144880">
        <ele>27.53</ele>
        <time>2017-08-01T13:53:37Z</time>
      </trkpt>
      <trkpt lat="43.2542745396" lon="2.8408586606">
        <ele>27.53</ele>
        <time>2017-08-01T13:53:38Z</time>
      </trkpt>
      <trkpt lat="43.2542477176" lon="2.8408997320">
        <ele>27.53</ele>
        <time>2017-08-01T13:53:39Z</time>
      </trkpt>
      <trkpt lat="43.2542141899" lon="2.8409366962">
        <ele>27.05</ele>
        <time>2017-08-01T13:53:40Z</time>
      </trkpt>
      <trkpt lat="43.2541773096" lon="2.8409646079">
        <ele>27.05</ele>
        <time>2017-08-01T13:53:41Z</time>
      </trkpt>
      <trkpt lat="43.2541351486" lon="2.8409817070">
        <ele>27.05</ele>
        <time>2017-08-01T13:53:42Z</time>
      </trkpt>
      <trkpt lat="43.2540899701" lon="2.8409912623">
        <ele>27.05</ele>
        <time>2017-08-01T13:53:43Z</time>
      </trkpt>
      <trkpt lat="43.2540452946" lon="2.8409966268">
        <ele>27.05</ele>
        <time>2017-08-01T13:53:44Z</time>
      </trkpt>
      <trkpt lat="43.2540008705" lon="2.8409983870">
        <ele>27.05</ele>
        <time>2017-08-01T13:53:45Z</time>
      </trkpt>
      <trkpt lat="43.2539540157" lon="2.8409988899">
        <ele>27.05</ele>
        <time>2017-08-01T13:53:46Z</time>
      </trkpt>
      <trkpt lat="43.2539074961" lon="2.8409994766">
        <ele>27.05</ele>
        <time>2017-08-01T13:53:47Z</time>
      </trkpt>
      <trkpt lat="43.2535808533" lon="2.8410534561">
        <ele>26.57</ele>
        <time>2017-08-01T13:53:54Z</time>
      </trkpt>
      <trkpt lat="43.2534487545" lon="2.8411202598">
        <ele>26.57</ele>
        <time>2017-08-01T13:53:57Z</time>
      </trkpt>
      <trkpt lat="43.2534062583" lon="2.8411491774">
        <ele>26.57</ele>
        <time>2017-08-01T13:53:58Z</time>
      </trkpt>
      <trkpt lat="43.2529740036" lon="2.8414503392">
        <ele>26.09</ele>
        <time>2017-08-01T13:54:08Z</time>
      </trkpt>
      <trkpt lat="43.2523584366" lon="2.8419101704">
        <ele>25.61</ele>
        <time>2017-08-01T13:54:22Z</time>
      </trkpt>
      <trkpt lat="43.2518890500" lon="2.8422485478">
        <ele>25.61</ele>
        <time>2017-08-01T13:54:33Z</time>
      </trkpt>
      <trkpt lat="43.2518439554" lon="2.8422797285">
        <ele>25.61</ele>
        <time>2017-08-01T13:54:34Z</time>
      </trkpt>
      <trkpt lat="43.2517989445" lon="2.8423097357">
        <ele>26.09</ele>
        <time>2017-08-01T13:54:35Z</time>
      </trkpt>
      <trkpt lat="43.2512106188" lon="2.8427338600">
        <ele>25.13</ele>
        <time>2017-08-01T13:54:48Z</time>
      </trkpt>
      <trkpt lat="43.2505405694" lon="2.8431441542">
        <ele>25.61</ele>
        <time>2017-08-01T13:55:02Z</time>
      </trkpt>
      <trkpt lat="43.2498588692" lon="2.8433654364">
        <ele>25.61</ele>
        <time>2017-08-01T13:55:15Z</time>
      </trkpt>
      <trkpt lat="43.2494640816" lon="2.8435629141">
        <ele>25.61</ele>
        <time>2017-08-01T13:55:23Z</time>
      </trkpt>
      <trkpt lat="43.2494205795" lon="2.8436085954">
        <ele>25.13</ele>
        <time>2017-08-01T13:55:24Z</time>
      </trkpt>
      <trkpt lat="43.2493811846" lon="2.8436604794">
        <ele>25.13</ele>
        <time>2017-08-01T13:55:25Z</time>
      </trkpt>
      <trkpt lat="43.2489501033" lon="2.8443223145">
        <ele>25.61</ele>
        <time>2017-08-01T13:55:37Z</time>
      </trkpt>
      <trkpt lat="43.2487404719" lon="2.8446554951">
        <ele>26.09</ele>
        <time>2017-08-01T13:55:43Z</time>
      </trkpt>
      <trkpt lat="43.2484346163" lon="2.8453521151">
        <ele>26.09</ele>
        <time>2017-08-01T13:55:54Z</time>
      </trkpt>
      <trkpt lat="43.2482610270" lon="2.8463221528">
        <ele>26.57</ele>
        <time>2017-08-01T13:56:07Z</time>
      </trkpt>
      <trkpt lat="43.2481846679" lon="2.8471446689">
        <ele>27.05</ele>
        <time>2017-08-01T13:56:18Z</time>
      </trkpt>
      <trkpt lat="43.2481097337" lon="2.8483504057">
        <ele>27.53</ele>
        <time>2017-08-01T13:56:33Z</time>
      </trkpt>
      <trkpt lat="43.2480467018" lon="2.8489623684">
        <ele>28.02</ele>
        <time>2017-08-01T13:56:41Z</time>
      </trkpt>
      <trkpt lat="43.2479583565" lon="2.8497992177">
        <ele>28.02</ele>
        <time>2017-08-01T13:56:52Z</time>
      </trkpt>
      <trkpt lat="43.2479191292" lon="2.8508333769">
        <ele>28.98</ele>
        <time>2017-08-01T13:57:05Z</time>
      </trkpt>
      <trkpt lat="43.2479225658" lon="2.8517641872">
        <ele>28.98</ele>
        <time>2017-08-01T13:57:17Z</time>
      </trkpt>
      <trkpt lat="43.2479206380" lon="2.8526372463">
        <ele>28.98</ele>
        <time>2017-08-01T13:57:29Z</time>
      </trkpt>
      <trkpt lat="43.2479247451" lon="2.8535640333">
        <ele>29.46</ele>
        <time>2017-08-01T13:57:42Z</time>
      </trkpt>
      <trkpt lat="43.2478797343" lon="2.8543062508">
        <ele>29.94</ele>
        <time>2017-08-01T13:57:53Z</time>
      </trkpt>
      <trkpt lat="43.2478208095" lon="2.8547064029">
        <ele>29.94</ele>
        <time>2017-08-01T13:57:59Z</time>
      </trkpt>
      <trkpt lat="43.2477995194" lon="2.8548379149">
        <ele>29.94</ele>
        <time>2017-08-01T13:58:01Z</time>
      </trkpt>
      <trkpt lat="43.2476744615" lon="2.8556077089">
        <ele>31.38</ele>
        <time>2017-08-01T13:58:13Z</time>
      </trkpt>
      <trkpt lat="43.2476594578" lon="2.8556730039">
        <ele>30.42</ele>
        <time>2017-08-01T13:58:14Z</time>
      </trkpt>
      <trkpt lat="43.2475047279" lon="2.8563323244">
        <ele>30.90</ele>
        <time>2017-08-01T13:58:24Z</time>
      </trkpt>
      <trkpt lat="43.2474952564" lon="2.8564009722">
        <ele>30.90</ele>
        <time>2017-08-01T13:58:25Z</time>
      </trkpt>
      <trkpt lat="43.2474847790" lon="2.8564682789">
        <ele>30.90</ele>
        <time>2017-08-01T13:58:26Z</time>
      </trkpt>
      <trkpt lat="43.2474338170" lon="2.8574241512">
        <ele>31.38</ele>
        <time>2017-08-01T13:58:40Z</time>
      </trkpt>
      <trkpt lat="43.2473964337" lon="2.8579346091">
        <ele>30.90</ele>
        <time>2017-08-01T13:58:48Z</time>
      </trkpt>
      <trkpt lat="43.2473874651" lon="2.8579926956">
        <ele>31.38</ele>
        <time>2017-08-01T13:58:49Z</time>
      </trkpt>
      <trkpt lat="43.2473780774" lon="2.8580506146">
        <ele>30.90</ele>
        <time>2017-08-01T13:58:50Z</time>
      </trkpt>
      <trkpt lat="43.2473562006" lon="2.8581682127">
        <ele>31.38</ele>
        <time>2017-08-01T13:58:52Z</time>
      </trkpt>
      <trkpt lat="43.2472030632" lon="2.8586909920">
        <ele>31.38</ele>
        <time>2017-08-01T13:59:01Z</time>
      </trkpt>
      <trkpt lat="43.2471370138" lon="2.8588986956">
        <ele>31.38</ele>
        <time>2017-08-01T13:59:05Z</time>
      </trkpt>
      <trkpt lat="43.2471241895" lon="2.8589491546">
        <ele>31.38</ele>
        <time>2017-08-01T13:59:06Z</time>
      </trkpt>
      <trkpt lat="43.2471089344" lon="2.8590010386">
        <ele>31.38</ele>
        <time>2017-08-01T13:59:07Z</time>
      </trkpt>
      <trkpt lat="43.2470962778" lon="2.8590533417">
        <ele>31.86</ele>
        <time>2017-08-01T13:59:08Z</time>
      </trkpt>
      <trkpt lat="43.2470884826" lon="2.8591030464">
        <ele>31.86</ele>
        <time>2017-08-01T13:59:09Z</time>
      </trkpt>
      <trkpt lat="43.2470535301" lon="2.8592211474">
        <ele>31.86</ele>
        <time>2017-08-01T13:59:12Z</time>
      </trkpt>
      <trkpt lat="43.2470549550" lon="2.8592571057">
        <ele>31.86</ele>
        <time>2017-08-01T13:59:13Z</time>
      </trkpt>
      <trkpt lat="43.2470547035" lon="2.8592990153">
        <ele>31.86</ele>
        <time>2017-08-01T13:59:14Z</time>
      </trkpt>
      <trkpt lat="43.2470499258" lon="2.8593374882">
        <ele>31.86</ele>
        <time>2017-08-01T13:59:15Z</time>
      </trkpt>
      <trkpt lat="43.2470425498" lon="2.8593729436">
        <ele>31.86</ele>
        <time>2017-08-01T13:59:16Z</time>
      </trkpt>
      <trkpt lat="43.2470319048" lon="2.8594083153">
        <ele>31.86</ele>
        <time>2017-08-01T13:59:17Z</time>
      </trkpt>
      <trkpt lat="43.2469683699" lon="2.8597015142">
        <ele>32.34</ele>
        <time>2017-08-01T13:59:24Z</time>
      </trkpt>
      <trkpt lat="43.2469591498" lon="2.8599012550">
        <ele>33.30</ele>
        <time>2017-08-01T13:59:28Z</time>
      </trkpt>
      <trkpt lat="43.2469746564" lon="2.8599349502">
        <ele>33.78</ele>
        <time>2017-08-01T13:59:29Z</time>
      </trkpt>
      <trkpt lat="43.2471438870" lon="2.8600257263">
        <ele>34.74</ele>
        <time>2017-08-01T13:59:36Z</time>
      </trkpt>
      <trkpt lat="43.2472831104" lon="2.8599936236">
        <ele>34.26</ele>
        <time>2017-08-01T13:59:40Z</time>
      </trkpt>
      <trkpt lat="43.2473051548" lon="2.8599588387">
        <ele>34.26</ele>
        <time>2017-08-01T13:59:41Z</time>
      </trkpt>
      <trkpt lat="43.2473164704" lon="2.8599122353">
        <ele>33.78</ele>
        <time>2017-08-01T13:59:42Z</time>
      </trkpt>
      <trkpt lat="43.2473247685" lon="2.8598592617">
        <ele>33.78</ele>
        <time>2017-08-01T13:59:43Z</time>
      </trkpt>
      <trkpt lat="43.2473368384" lon="2.8598047793">
        <ele>33.78</ele>
        <time>2017-08-01T13:59:44Z</time>
      </trkpt>
      <trkpt lat="43.2473503333" lon="2.8597493749">
        <ele>33.78</ele>
        <time>2017-08-01T13:59:45Z</time>
      </trkpt>
      <trkpt lat="43.2474466413" lon="2.8593536653">
        <ele>32.82</ele>
        <time>2017-08-01T13:59:52Z</time>
      </trkpt>
      <trkpt lat="43.2474715356" lon="2.8592447843">
        <ele>31.86</ele>
        <time>2017-08-01T13:59:54Z</time>
      </trkpt>
      <trkpt lat="43.2475336455" lon="2.8589735460">
        <ele>31.86</ele>
        <time>2017-08-01T14:00:02Z</time>
      </trkpt>
      <trkpt lat="43.2475074939" lon="2.8589768149">
        <ele>31.38</ele>
        <time>2017-08-01T14:00:11Z</time>
      </trkpt>
      <trkpt lat="43.2474739663" lon="2.8589918185">
        <ele>29.46</ele>
        <time>2017-08-01T14:00:21Z</time>
      </trkpt>
      <trkpt lat="43.2474733796" lon="2.8589924891">
        <ele>30.42</ele>
        <time>2017-08-01T14:00:22Z</time>
      </trkpt>
      <trkpt lat="43.2476146985" lon="2.8586352523">
        <ele>33.78</ele>
        <time>2017-08-01T14:07:29Z</time>
      </trkpt>
      <trkpt lat="43.2475981023" lon="2.8586717136">
        <ele>33.30</ele>
        <time>2017-08-01T14:07:30Z</time>
      </trkpt>
      <trkpt lat="43.2474952564" lon="2.8590717819">
        <ele>31.86</ele>
        <time>2017-08-01T14:07:41Z</time>
      </trkpt>
      <trkpt lat="43.2473739702" lon="2.8596443497">
        <ele>32.82</ele>
        <time>2017-08-01T14:07:54Z</time>
      </trkpt>
      <trkpt lat="43.2473088428" lon="2.8599471878">
        <ele>33.78</ele>
        <time>2017-08-01T14:08:03Z</time>
      </trkpt>
      <trkpt lat="43.2471846230" lon="2.8600082919">
        <ele>34.74</ele>
        <time>2017-08-01T14:08:11Z</time>
      </trkpt>
      <trkpt lat="43.2470075134" lon="2.8599553183">
        <ele>34.74</ele>
        <time>2017-08-01T14:08:19Z</time>
      </trkpt>
      <trkpt lat="43.2469190843" lon="2.8601591662">
        <ele>32.82</ele>
        <time>2017-08-01T14:08:24Z</time>
      </trkpt>
      <trkpt lat="43.2469006442" lon="2.8603807837">
        <ele>31.38</ele>
        <time>2017-08-01T14:08:27Z</time>
      </trkpt>
      <trkpt lat="43.2467922661" lon="2.8612645715">
        <ele>30.42</ele>
        <time>2017-08-01T14:08:38Z</time>
      </trkpt>
      <trkpt lat="43.2467823755" lon="2.8613428585">
        <ele>30.42</ele>
        <time>2017-08-01T14:08:39Z</time>
      </trkpt>
      <trkpt lat="43.2467778493" lon="2.8614232410">
        <ele>30.42</ele>
        <time>2017-08-01T14:08:40Z</time>
      </trkpt>
      <trkpt lat="43.2467719819" lon="2.8615029529">
        <ele>30.42</ele>
        <time>2017-08-01T14:08:41Z</time>
      </trkpt>
      <trkpt lat="43.2466566470" lon="2.8624174185">
        <ele>30.42</ele>
        <time>2017-08-01T14:08:53Z</time>
      </trkpt>
      <trkpt lat="43.2465695590" lon="2.8631849494">
        <ele>29.94</ele>
        <time>2017-08-01T14:09:03Z</time>
      </trkpt>
      <trkpt lat="43.2465590816" lon="2.8632614762">
        <ele>30.42</ele>
        <time>2017-08-01T14:09:04Z</time>
      </trkpt>
      <trkpt lat="43.2465253025" lon="2.8641906101">
        <ele>29.94</ele>
        <time>2017-08-01T14:09:16Z</time>
      </trkpt>
      <trkpt lat="43.2465288229" lon="2.8642617725">
        <ele>30.42</ele>
        <time>2017-08-01T14:09:17Z</time>
      </trkpt>
      <trkpt lat="43.2465405576" lon="2.8644054383">
        <ele>29.94</ele>
        <time>2017-08-01T14:09:19Z</time>
      </trkpt>
      <trkpt lat="43.2465465087" lon="2.8644786961">
        <ele>29.94</ele>
        <time>2017-08-01T14:09:20Z</time>
      </trkpt>
      <trkpt lat="43.2465562318" lon="2.8646247089">
        <ele>29.94</ele>
        <time>2017-08-01T14:09:22Z</time>
      </trkpt>
      <trkpt lat="43.2465632726" lon="2.8646977991">
        <ele>29.94</ele>
        <time>2017-08-01T14:09:23Z</time>
      </trkpt>
      <trkpt lat="43.2465692237" lon="2.8647712246">
        <ele>30.42</ele>
        <time>2017-08-01T14:09:24Z</time>
      </trkpt>
      <trkpt lat="43.2465818804" lon="2.8649210930">
        <ele>31.38</ele>
        <time>2017-08-01T14:09:26Z</time>
      </trkpt>
      <trkpt lat="43.2465897594" lon="2.8649909142">
        <ele>30.90</ele>
        <time>2017-08-01T14:09:27Z</time>
      </trkpt>
      <trkpt lat="43.2466003206" lon="2.8650600649">
        <ele>30.42</ele>
        <time>2017-08-01T14:09:28Z</time>
      </trkpt>
      <trkpt lat="43.2466057688" lon="2.8651375137">
        <ele>30.42</ele>
        <time>2017-08-01T14:09:29Z</time>
      </trkpt>
      <trkpt lat="43.2466092892" lon="2.8652167227">
        <ele>30.42</ele>
        <time>2017-08-01T14:09:30Z</time>
      </trkpt>
      <trkpt lat="43.2466636039" lon="2.8661304340">
        <ele>30.42</ele>
        <time>2017-08-01T14:09:41Z</time>
      </trkpt>
      <trkpt lat="43.2468153164" lon="2.8670736495">
        <ele>30.42</ele>
        <time>2017-08-01T14:09:53Z</time>
      </trkpt>
      <trkpt lat="43.2468609978" lon="2.8672081791">
        <ele>30.42</ele>
        <time>2017-08-01T14:09:55Z</time>
      </trkpt>
      <trkpt lat="43.2468896639" lon="2.8672697861">
        <ele>30.42</ele>
        <time>2017-08-01T14:09:56Z</time>
      </trkpt>
      <trkpt lat="43.2472457271" lon="2.8678436112">
        <ele>29.94</ele>
        <time>2017-08-01T14:10:06Z</time>
      </trkpt>
      <trkpt lat="43.2476732880" lon="2.8684725054">
        <ele>30.42</ele>
        <time>2017-08-01T14:10:16Z</time>
      </trkpt>
      <trkpt lat="43.2477792352" lon="2.8686843999">
        <ele>30.42</ele>
        <time>2017-08-01T14:10:19Z</time>
      </trkpt>
      <trkpt lat="43.2478038780" lon="2.8687589150">
        <ele>30.42</ele>
        <time>2017-08-01T14:10:20Z</time>
      </trkpt>
      <trkpt lat="43.2478206418" lon="2.8688357770">
        <ele>30.42</ele>
        <time>2017-08-01T14:10:21Z</time>
      </trkpt>
      <trkpt lat="43.2478311192" lon="2.8689098731">
        <ele>30.42</ele>
        <time>2017-08-01T14:10:22Z</time>
      </trkpt>
      <trkpt lat="43.2478387468" lon="2.8689821251">
        <ele>30.42</ele>
        <time>2017-08-01T14:10:23Z</time>
      </trkpt>
      <trkpt lat="43.2478502300" lon="2.8691400401">
        <ele>30.42</ele>
        <time>2017-08-01T14:10:25Z</time>
      </trkpt>
      <trkpt lat="43.2479333784" lon="2.8701013606">
        <ele>30.42</ele>
        <time>2017-08-01T14:10:36Z</time>
      </trkpt>
      <trkpt lat="43.2480171137" lon="2.8708972223">
        <ele>29.94</ele>
        <time>2017-08-01T14:10:46Z</time>
      </trkpt>
      <trkpt lat="43.2479489688" lon="2.8717058245">
        <ele>30.42</ele>
        <time>2017-08-01T14:10:57Z</time>
      </trkpt>
      <trkpt lat="43.2478556782" lon="2.8726513870">
        <ele>30.42</ele>
        <time>2017-08-01T14:11:09Z</time>
      </trkpt>
      <trkpt lat="43.2478633896" lon="2.8732313309">
        <ele>30.42</ele>
        <time>2017-08-01T14:11:17Z</time>
      </trkpt>
      <trkpt lat="43.2479957398" lon="2.8736928385">
        <ele>29.94</ele>
        <time>2017-08-01T14:11:25Z</time>
      </trkpt>
      <trkpt lat="43.2480214722" lon="2.8737489972">
        <ele>31.38</ele>
        <time>2017-08-01T14:11:26Z</time>
      </trkpt>
      <trkpt lat="43.2480474561" lon="2.8737992048">
        <ele>29.94</ele>
        <time>2017-08-01T14:11:27Z</time>
      </trkpt>
      <trkpt lat="43.2481123321" lon="2.8738968540">
        <ele>29.94</ele>
        <time>2017-08-01T14:11:29Z</time>
      </trkpt>
      <trkpt lat="43.2481891103" lon="2.8739893902">
        <ele>30.42</ele>
        <time>2017-08-01T14:11:31Z</time>
      </trkpt>
      <trkpt lat="43.2485724986" lon="2.8743658215">
        <ele>30.42</ele>
        <time>2017-08-01T14:11:40Z</time>
      </trkpt>
      <trkpt lat="43.2486087084" lon="2.8744187113">
        <ele>30.42</ele>
        <time>2017-08-01T14:11:41Z</time>
      </trkpt>
      <trkpt lat="43.2486413140" lon="2.8744759597">
        <ele>29.94</ele>
        <time>2017-08-01T14:11:42Z</time>
      </trkpt>
      <trkpt lat="43.2486695610" lon="2.8745376505">
        <ele>30.42</ele>
        <time>2017-08-01T14:11:43Z</time>
      </trkpt>
      <trkpt lat="43.2486942038" lon="2.8746031970">
        <ele>29.94</ele>
        <time>2017-08-01T14:11:44Z</time>
      </trkpt>
      <trkpt lat="43.2487785257" lon="2.8748783749">
        <ele>30.42</ele>
        <time>2017-08-01T14:11:48Z</time>
      </trkpt>
      <trkpt lat="43.2489030808" lon="2.8757999651">
        <ele>30.42</ele>
        <time>2017-08-01T14:12:01Z</time>
      </trkpt>
      <trkpt lat="43.2489271369" lon="2.8766187932">
        <ele>30.42</ele>
        <time>2017-08-01T14:12:12Z</time>
      </trkpt>
      <trkpt lat="43.2490102854" lon="2.8774113860">
        <ele>30.90</ele>
        <time>2017-08-01T14:12:23Z</time>
      </trkpt>
      <trkpt lat="43.2490432262" lon="2.8775511123">
        <ele>30.42</ele>
        <time>2017-08-01T14:12:25Z</time>
      </trkpt>
      <trkpt lat="43.2491393667" lon="2.8778929263">
        <ele>30.42</ele>
        <time>2017-08-01T14:12:30Z</time>
      </trkpt>
      <trkpt lat="43.2491595671" lon="2.8779604845">
        <ele>30.90</ele>
        <time>2017-08-01T14:12:31Z</time>
      </trkpt>
      <trkpt lat="43.2492753211" lon="2.8782835230">
        <ele>30.42</ele>
        <time>2017-08-01T14:12:36Z</time>
      </trkpt>
      <trkpt lat="43.2495525107" lon="2.8788273409">
        <ele>30.90</ele>
        <time>2017-08-01T14:12:45Z</time>
      </trkpt>
      <trkpt lat="43.2499220688" lon="2.8793011699">
        <ele>31.86</ele>
        <time>2017-08-01T14:12:56Z</time>
      </trkpt>
      <trkpt lat="43.2500973344" lon="2.8794432431">
        <ele>33.30</ele>
        <time>2017-08-01T14:13:04Z</time>
      </trkpt>
      <trkpt lat="43.2501167804" lon="2.8794747591">
        <ele>32.82</ele>
        <time>2017-08-01T14:13:05Z</time>
      </trkpt>
      <trkpt lat="43.2501448598" lon="2.8795060236">
        <ele>32.34</ele>
        <time>2017-08-01T14:13:06Z</time>
      </trkpt>
      <trkpt lat="43.2503069658" lon="2.8796491027">
        <ele>31.38</ele>
        <time>2017-08-01T14:13:10Z</time>
      </trkpt>
      <trkpt lat="43.2503550779" lon="2.8796819597">
        <ele>29.94</ele>
        <time>2017-08-01T14:13:11Z</time>
      </trkpt>
      <trkpt lat="43.2504919544" lon="2.8798014857">
        <ele>30.90</ele>
        <time>2017-08-01T14:13:14Z</time>
      </trkpt>
      <trkpt lat="43.2509205211" lon="2.8802269511">
        <ele>30.90</ele>
        <time>2017-08-01T14:13:24Z</time>
      </trkpt>
      <trkpt lat="43.2513240259" lon="2.8806339763">
        <ele>30.90</ele>
        <time>2017-08-01T14:13:35Z</time>
      </trkpt>
      <trkpt lat="43.2517480664" lon="2.8810777143">
        <ele>31.38</ele>
        <time>2017-08-01T14:13:47Z</time>
      </trkpt>
      <trkpt lat="43.2522745337" lon="2.8816283215">
        <ele>30.90</ele>
        <time>2017-08-01T14:14:01Z</time>
      </trkpt>
      <trkpt lat="43.2523144316" lon="2.8816667106">
        <ele>30.90</ele>
        <time>2017-08-01T14:14:02Z</time>
      </trkpt>
      <trkpt lat="43.2528100535" lon="2.8822308127">
        <ele>30.90</ele>
        <time>2017-08-01T14:14:16Z</time>
      </trkpt>
      <trkpt lat="43.2530667912" lon="2.8827001993">
        <ele>31.38</ele>
        <time>2017-08-01T14:14:25Z</time>
      </trkpt>
      <trkpt lat="43.2532754168" lon="2.8833673149">
        <ele>31.38</ele>
        <time>2017-08-01T14:14:36Z</time>
      </trkpt>
      <trkpt lat="43.2533789333" lon="2.8837461770">
        <ele>30.90</ele>
        <time>2017-08-01T14:14:42Z</time>
      </trkpt>
      <trkpt lat="43.2535712142" lon="2.8844503406">
        <ele>30.90</ele>
        <time>2017-08-01T14:14:53Z</time>
      </trkpt>
      <trkpt lat="43.2535896543" lon="2.8845151328">
        <ele>30.90</ele>
        <time>2017-08-01T14:14:54Z</time>
      </trkpt>
      <trkpt lat="43.2536982000" lon="2.8848330583">
        <ele>30.90</ele>
        <time>2017-08-01T14:14:59Z</time>
      </trkpt>
      <trkpt lat="43.2537225075" lon="2.8848953359">
        <ele>30.90</ele>
        <time>2017-08-01T14:15:00Z</time>
      </trkpt>
      <trkpt lat="43.2537478209" lon="2.8849574458">
        <ele>30.90</ele>
        <time>2017-08-01T14:15:01Z</time>
      </trkpt>
      <trkpt lat="43.2537751459" lon="2.8850186337">
        <ele>30.90</ele>
        <time>2017-08-01T14:15:02Z</time>
      </trkpt>
      <trkpt lat="43.2538045663" lon="2.8850779776">
        <ele>30.90</ele>
        <time>2017-08-01T14:15:03Z</time>
      </trkpt>
      <trkpt lat="43.2538362499" lon="2.8851341363">
        <ele>30.90</ele>
        <time>2017-08-01T14:15:04Z</time>
      </trkpt>
      <trkpt lat="43.2538686041" lon="2.8851880319">
        <ele>30.90</ele>
        <time>2017-08-01T14:15:05Z</time>
      </trkpt>
      <trkpt lat="43.2543678302" lon="2.8859237954">
        <ele>30.90</ele>
        <time>2017-08-01T14:15:20Z</time>
      </trkpt>
      <trkpt lat="43.2548650447" lon="2.8863264620">
        <ele>30.90</ele>
        <time>2017-08-01T14:15:32Z</time>
      </trkpt>
      <trkpt lat="43.2554978784" lon="2.8866002988">
        <ele>31.38</ele>
        <time>2017-08-01T14:15:46Z</time>
      </trkpt>
      <trkpt lat="43.2563366555" lon="2.8869384248">
        <ele>30.90</ele>
        <time>2017-08-01T14:16:04Z</time>
      </trkpt>
      <trkpt lat="43.2568763662" lon="2.8872224037">
        <ele>30.90</ele>
        <time>2017-08-01T14:16:16Z</time>
      </trkpt>
      <trkpt lat="43.2573266421" lon="2.8876701649">
        <ele>30.90</ele>
        <time>2017-08-01T14:16:28Z</time>
      </trkpt>
      <trkpt lat="43.2576813642" lon="2.8881961294">
        <ele>30.42</ele>
        <time>2017-08-01T14:16:39Z</time>
      </trkpt>
      <trkpt lat="43.2579282951" lon="2.8888095170">
        <ele>30.42</ele>
        <time>2017-08-01T14:16:49Z</time>
      </trkpt>
      <trkpt lat="43.2580453902" lon="2.8893981781">
        <ele>30.42</ele>
        <time>2017-08-01T14:16:58Z</time>
      </trkpt>
      <trkpt lat="43.2580523472" lon="2.8894571029">
        <ele>30.42</ele>
        <time>2017-08-01T14:16:59Z</time>
      </trkpt>
      <trkpt lat="43.2580610644" lon="2.8896307759">
        <ele>29.94</ele>
        <time>2017-08-01T14:17:02Z</time>
      </trkpt>
      <trkpt lat="43.2580626570" lon="2.8896913771">
        <ele>29.94</ele>
        <time>2017-08-01T14:17:03Z</time>
      </trkpt>
      <trkpt lat="43.2580679376" lon="2.8898753598">
        <ele>29.94</ele>
        <time>2017-08-01T14:17:06Z</time>
      </trkpt>
      <trkpt lat="43.2580574602" lon="2.8899334464">
        <ele>29.94</ele>
        <time>2017-08-01T14:17:07Z</time>
      </trkpt>
      <trkpt lat="43.2580504194" lon="2.8899847437">
        <ele>29.94</ele>
        <time>2017-08-01T14:17:08Z</time>
      </trkpt>
      <trkpt lat="43.2579811849" lon="2.8905822895">
        <ele>29.94</ele>
        <time>2017-08-01T14:17:19Z</time>
      </trkpt>
      <trkpt lat="43.2579560392" lon="2.8907032404">
        <ele>29.94</ele>
        <time>2017-08-01T14:17:21Z</time>
      </trkpt>
      <trkpt lat="43.2579425443" lon="2.8907628357">
        <ele>29.94</ele>
        <time>2017-08-01T14:17:22Z</time>
      </trkpt>
      <trkpt lat="43.2578392792" lon="2.8911205754">
        <ele>29.94</ele>
        <time>2017-08-01T14:17:28Z</time>
      </trkpt>
      <trkpt lat="43.2578166481" lon="2.8911766503">
        <ele>29.94</ele>
        <time>2017-08-01T14:17:29Z</time>
      </trkpt>
      <trkpt lat="43.2576571405" lon="2.8915929794">
        <ele>29.94</ele>
        <time>2017-08-01T14:17:36Z</time>
      </trkpt>
      <trkpt lat="43.2573402207" lon="2.8923704848">
        <ele>29.46</ele>
        <time>2017-08-01T14:17:50Z</time>
      </trkpt>
      <trkpt lat="43.2572819665" lon="2.8925394639">
        <ele>29.46</ele>
        <time>2017-08-01T14:17:53Z</time>
      </trkpt>
      <trkpt lat="43.2572481036" lon="2.8926637676">
        <ele>29.46</ele>
        <time>2017-08-01T14:17:55Z</time>
      </trkpt>
      <trkpt lat="43.2571331877" lon="2.8935941588">
        <ele>28.98</ele>
        <time>2017-08-01T14:18:09Z</time>
      </trkpt>
      <trkpt lat="43.2571777795" lon="2.8944932017">
        <ele>28.98</ele>
        <time>2017-08-01T14:18:22Z</time>
      </trkpt>
      <trkpt lat="43.2572835591" lon="2.8952930868">
        <ele>28.50</ele>
        <time>2017-08-01T14:18:34Z</time>
      </trkpt>
      <trkpt lat="43.2574798632" lon="2.8960908763">
        <ele>28.50</ele>
        <time>2017-08-01T14:18:47Z</time>
      </trkpt>
      <trkpt lat="43.2576754130" lon="2.8966149129">
        <ele>28.50</ele>
        <time>2017-08-01T14:18:56Z</time>
      </trkpt>
      <trkpt lat="43.2580750622" lon="2.8973303922">
        <ele>28.50</ele>
        <time>2017-08-01T14:19:10Z</time>
      </trkpt>
      <trkpt lat="43.2581060752" lon="2.8973777499">
        <ele>28.50</ele>
        <time>2017-08-01T14:19:11Z</time>
      </trkpt>
      <trkpt lat="43.2581390161" lon="2.8974251915">
        <ele>28.50</ele>
        <time>2017-08-01T14:19:12Z</time>
      </trkpt>
      <trkpt lat="43.2582384255" lon="2.8975764010">
        <ele>28.50</ele>
        <time>2017-08-01T14:19:15Z</time>
      </trkpt>
      <trkpt lat="43.2585984282" lon="2.8980791476">
        <ele>28.50</ele>
        <time>2017-08-01T14:19:26Z</time>
      </trkpt>
      <trkpt lat="43.2589357160" lon="2.8985217959">
        <ele>28.50</ele>
        <time>2017-08-01T14:19:36Z</time>
      </trkpt>
      <trkpt lat="43.2590071298" lon="2.8986081295">
        <ele>28.50</ele>
        <time>2017-08-01T14:19:38Z</time>
      </trkpt>
      <trkpt lat="43.2590405736" lon="2.8986507095">
        <ele>28.50</ele>
        <time>2017-08-01T14:19:39Z</time>
      </trkpt>
      <trkpt lat="43.2591032702" lon="2.8987382166">
        <ele>28.50</ele>
        <time>2017-08-01T14:19:41Z</time>
      </trkpt>
      <trkpt lat="43.2591365464" lon="2.8987801261">
        <ele>28.50</ele>
        <time>2017-08-01T14:19:42Z</time>
      </trkpt>
      <trkpt lat="43.2591659669" lon="2.8988241311">
        <ele>28.50</ele>
        <time>2017-08-01T14:19:43Z</time>
      </trkpt>
      <trkpt lat="43.2591970637" lon="2.8988663759">
        <ele>28.50</ele>
        <time>2017-08-01T14:19:44Z</time>
      </trkpt>
      <trkpt lat="43.2592300884" lon="2.8989062738">
        <ele>28.50</ele>
        <time>2017-08-01T14:19:45Z</time>
      </trkpt>
      <trkpt lat="43.2592641190" lon="2.8989481833">
        <ele>28.50</ele>
        <time>2017-08-01T14:19:46Z</time>
      </trkpt>
      <trkpt lat="43.2596299052" lon="2.8995182365">
        <ele>28.50</ele>
        <time>2017-08-01T14:19:58Z</time>
      </trkpt>
      <trkpt lat="43.2596591581" lon="2.8995696176">
        <ele>28.50</ele>
        <time>2017-08-01T14:19:59Z</time>
      </trkpt>
      <trkpt lat="43.2597408816" lon="2.8997349925">
        <ele>28.50</ele>
        <time>2017-08-01T14:20:02Z</time>
      </trkpt>
      <trkpt lat="43.2597961184" lon="2.8998423647">
        <ele>28.50</ele>
        <time>2017-08-01T14:20:04Z</time>
      </trkpt>
      <trkpt lat="43.2598231919" lon="2.8998989426">
        <ele>28.50</ele>
        <time>2017-08-01T14:20:05Z</time>
      </trkpt>
      <trkpt lat="43.2602171414" lon="2.9006367177">
        <ele>28.50</ele>
        <time>2017-08-01T14:20:18Z</time>
      </trkpt>
      <trkpt lat="43.2605337258" lon="2.9012061004">
        <ele>28.50</ele>
        <time>2017-08-01T14:20:28Z</time>
      </trkpt>
      <trkpt lat="43.2606017031" lon="2.9013170768">
        <ele>28.50</ele>
        <time>2017-08-01T14:20:30Z</time>
      </trkpt>
      <trkpt lat="43.2606379967" lon="2.9013717268">
        <ele>28.50</ele>
        <time>2017-08-01T14:20:31Z</time>
      </trkpt>
      <trkpt lat="43.2610449381" lon="2.9020787403">
        <ele>28.50</ele>
        <time>2017-08-01T14:20:43Z</time>
      </trkpt>
      <trkpt lat="43.2614269014" lon="2.9027370550">
        <ele>28.50</ele>
        <time>2017-08-01T14:20:55Z</time>
      </trkpt>
      <trkpt lat="43.2616257202" lon="2.9030558188">
        <ele>28.50</ele>
        <time>2017-08-01T14:21:01Z</time>
      </trkpt>
      <trkpt lat="43.2620237768" lon="2.9036029894">
        <ele>28.98</ele>
        <time>2017-08-01T14:21:12Z</time>
      </trkpt>
      <trkpt lat="43.2623183168" lon="2.9039632436">
        <ele>28.50</ele>
        <time>2017-08-01T14:21:22Z</time>
      </trkpt>
      <trkpt lat="43.2625913993" lon="2.9041681811">
        <ele>28.98</ele>
        <time>2017-08-01T14:21:30Z</time>
      </trkpt>
      <trkpt lat="43.2627879549" lon="2.9042543471">
        <ele>28.50</ele>
        <time>2017-08-01T14:21:37Z</time>
      </trkpt>
      <trkpt lat="43.2628000248" lon="2.9042718653">
        <ele>28.50</ele>
        <time>2017-08-01T14:21:38Z</time>
      </trkpt>
      <trkpt lat="43.2629360631" lon="2.9044918902">
        <ele>28.98</ele>
        <time>2017-08-01T14:21:46Z</time>
      </trkpt>
      <trkpt lat="43.2631414197" lon="2.9047646374">
        <ele>29.46</ele>
        <time>2017-08-01T14:21:55Z</time>
      </trkpt>
      <trkpt lat="43.2633901108" lon="2.9049274139">
        <ele>29.46</ele>
        <time>2017-08-01T14:22:03Z</time>
      </trkpt>
      <trkpt lat="43.2636803761" lon="2.9050518852">
        <ele>29.46</ele>
        <time>2017-08-01T14:22:10Z</time>
      </trkpt>
      <trkpt lat="43.2637223694" lon="2.9050593451">
        <ele>29.46</ele>
        <time>2017-08-01T14:22:11Z</time>
      </trkpt>
      <trkpt lat="43.2637641951" lon="2.9050663020">
        <ele>29.46</ele>
        <time>2017-08-01T14:22:12Z</time>
      </trkpt>
      <trkpt lat="43.2638491876" lon="2.9050828144">
        <ele>29.46</ele>
        <time>2017-08-01T14:22:14Z</time>
      </trkpt>
      <trkpt lat="43.2639726531" lon="2.9050940461">
        <ele>29.46</ele>
        <time>2017-08-01T14:22:17Z</time>
      </trkpt>
      <trkpt lat="43.2641058415" lon="2.9050943814">
        <ele>29.46</ele>
        <time>2017-08-01T14:22:20Z</time>
      </trkpt>
      <trkpt lat="43.2642469089" lon="2.9050906934">
        <ele>29.46</ele>
        <time>2017-08-01T14:22:23Z</time>
      </trkpt>
      <trkpt lat="43.2643371820" lon="2.9050708283">
        <ele>29.46</ele>
        <time>2017-08-01T14:22:25Z</time>
      </trkpt>
      <trkpt lat="43.2643794268" lon="2.9050578363">
        <ele>29.94</ele>
        <time>2017-08-01T14:22:26Z</time>
      </trkpt>
      <trkpt lat="43.2644208334" lon="2.9050513823">
        <ele>29.46</ele>
        <time>2017-08-01T14:22:27Z</time>
      </trkpt>
      <trkpt lat="43.2644592226" lon="2.9050455149">
        <ele>29.94</ele>
        <time>2017-08-01T14:22:28Z</time>
      </trkpt>
      <trkpt lat="43.2644966897" lon="2.9050366301">
        <ele>29.46</ele>
        <time>2017-08-01T14:22:29Z</time>
      </trkpt>
      <trkpt lat="43.2649157848" lon="2.9049396515">
        <ele>29.94</ele>
        <time>2017-08-01T14:22:40Z</time>
      </trkpt>
      <trkpt lat="43.2652260829" lon="2.9047992546">
        <ele>29.94</ele>
        <time>2017-08-01T14:22:49Z</time>
      </trkpt>
      <trkpt lat="43.2656400651" lon="2.9046052974">
        <ele>29.46</ele>
        <time>2017-08-01T14:23:02Z</time>
      </trkpt>
      <trkpt lat="43.2657947950" lon="2.9045593645">
        <ele>29.46</ele>
        <time>2017-08-01T14:23:10Z</time>
      </trkpt>
      <trkpt lat="43.2658077031" lon="2.9045704287">
        <ele>29.46</ele>
        <time>2017-08-01T14:23:11Z</time>
      </trkpt>
      <trkpt lat="43.2658247184" lon="2.9045732785">
        <ele>29.46</ele>
        <time>2017-08-01T14:23:12Z</time>
      </trkpt>
      <trkpt lat="43.2658404764" lon="2.9045633040">
        <ele>29.46</ele>
        <time>2017-08-01T14:23:13Z</time>
      </trkpt>
      <trkpt lat="43.2658496127" lon="2.9045483004">
        <ele>29.46</ele>
        <time>2017-08-01T14:23:14Z</time>
      </trkpt>
      <trkpt lat="43.2658565696" lon="2.9045354761">
        <ele>29.94</ele>
        <time>2017-08-01T14:23:21Z</time>
      </trkpt>
      <trkpt lat="43.2658646163" lon="2.9045344703">
        <ele>29.94</ele>
        <time>2017-08-01T14:23:31Z</time>
      </trkpt>
      <trkpt lat="43.2658669632" lon="2.9045334645">
        <ele>28.98</ele>
        <time>2017-08-01T14:23:39Z</time>
      </trkpt>
      <trkpt lat="43.2661315799" lon="2.9047332052">
        <ele>28.98</ele>
        <time>2017-08-01T14:57:11Z</time>
      </trkpt>
      <trkpt lat="43.2661231142" lon="2.9047355521">
        <ele>28.98</ele>
        <time>2017-08-01T14:57:12Z</time>
      </trkpt>
      <trkpt lat="43.2661393750" lon="2.9047305230">
        <ele>28.98</ele>
        <time>2017-08-01T14:57:37Z</time>
      </trkpt>
      <trkpt lat="43.2661165763" lon="2.9047127534">
        <ele>28.98</ele>
        <time>2017-08-01T14:58:04Z</time>
      </trkpt>
      <trkpt lat="43.2661294006" lon="2.9047375638">
        <ele>28.98</ele>
        <time>2017-08-01T14:58:21Z</time>
      </trkpt>
      <trkpt lat="43.2661335077" lon="2.9047151003">
        <ele>29.46</ele>
        <time>2017-08-01T14:58:30Z</time>
      </trkpt>
      <trkpt lat="43.2662249543" lon="2.9046284314">
        <ele>29.46</ele>
        <time>2017-08-01T14:58:37Z</time>
      </trkpt>
      <trkpt lat="43.2663604897" lon="2.9044731986">
        <ele>29.46</ele>
        <time>2017-08-01T14:58:44Z</time>
      </trkpt>
      <trkpt lat="43.2666249387" lon="2.9042294528">
        <ele>28.98</ele>
        <time>2017-08-01T14:58:54Z</time>
      </trkpt>
      <trkpt lat="43.2666776609" lon="2.9041266907">
        <ele>28.98</ele>
        <time>2017-08-01T14:58:58Z</time>
      </trkpt>
      <trkpt lat="43.2667461410" lon="2.9039105214">
        <ele>29.46</ele>
        <time>2017-08-01T14:59:05Z</time>
      </trkpt>
      <trkpt lat="43.2668665051" lon="2.9038241878">
        <ele>29.46</ele>
        <time>2017-08-01T14:59:10Z</time>
      </trkpt>
      <trkpt lat="43.2670514099" lon="2.9037049972">
        <ele>29.46</ele>
        <time>2017-08-01T14:59:19Z</time>
      </trkpt>
      <trkpt lat="43.2670706045" lon="2.9037145525">
        <ele>29.46</ele>
        <time>2017-08-01T14:59:27Z</time>
      </trkpt>
      <trkpt lat="43.2670756336" lon="2.9036994651">
        <ele>29.46</ele>
        <time>2017-08-01T14:59:43Z</time>
      </trkpt>
      <trkpt lat="43.2671152800" lon="2.9036827851">
        <ele>29.46</ele>
        <time>2017-08-01T14:59:47Z</time>
      </trkpt>
      <trkpt lat="43.2671737857" lon="2.9036899097">
        <ele>29.46</ele>
        <time>2017-08-01T14:59:51Z</time>
      </trkpt>
      <trkpt lat="43.2673010230" lon="2.9036627524">
        <ele>29.46</ele>
        <time>2017-08-01T14:59:57Z</time>
      </trkpt>
      <trkpt lat="43.2674438506" lon="2.9036435578">
        <ele>29.46</ele>
        <time>2017-08-01T15:00:03Z</time>
      </trkpt>
      <trkpt lat="43.2677435875" lon="2.9036300629">
        <ele>30.90</ele>
        <time>2017-08-01T15:00:13Z</time>
      </trkpt>
      <trkpt lat="43.2680652849" lon="2.9037368484">
        <ele>29.46</ele>
        <time>2017-08-01T15:00:24Z</time>
      </trkpt>
      <trkpt lat="43.2681449968" lon="2.9037005547">
        <ele>29.46</ele>
        <time>2017-08-01T15:00:28Z</time>
      </trkpt>
      <trkpt lat="43.2683943585" lon="2.9038064182">
        <ele>29.46</ele>
        <time>2017-08-01T15:00:38Z</time>
      </trkpt>
      <trkpt lat="43.2687647548" lon="2.9039782472">
        <ele>28.98</ele>
        <time>2017-08-01T15:00:50Z</time>
      </trkpt>
      <trkpt lat="43.2691336423" lon="2.9041748028">
        <ele>28.98</ele>
        <time>2017-08-01T15:01:01Z</time>
      </trkpt>
      <trkpt lat="43.2693514880" lon="2.9042913113">
        <ele>28.98</ele>
        <time>2017-08-01T15:01:07Z</time>
      </trkpt>
      <trkpt lat="43.2697335351" lon="2.9045144375">
        <ele>28.98</ele>
        <time>2017-08-01T15:01:17Z</time>
      </trkpt>
      <trkpt lat="43.2701615989" lon="2.9047464486">
        <ele>28.98</ele>
        <time>2017-08-01T15:01:30Z</time>
      </trkpt>
      <trkpt lat="43.2703097910" lon="2.9048269149">
        <ele>28.50</ele>
        <time>2017-08-01T15:01:40Z</time>
      </trkpt>
      <trkpt lat="43.2705899980" lon="2.9049882665">
        <ele>28.98</ele>
        <time>2017-08-01T15:01:50Z</time>
      </trkpt>
      <trkpt lat="43.2711748034" lon="2.9053134844">
        <ele>28.50</ele>
        <time>2017-08-01T15:02:04Z</time>
      </trkpt>
      <trkpt lat="43.2714756299" lon="2.9055349343">
        <ele>28.50</ele>
        <time>2017-08-01T15:02:13Z</time>
      </trkpt>
      <trkpt lat="43.2715097442" lon="2.9055703059">
        <ele>28.50</ele>
        <time>2017-08-01T15:02:14Z</time>
      </trkpt>
      <trkpt lat="43.2715424336" lon="2.9056121316">
        <ele>28.98</ele>
        <time>2017-08-01T15:02:15Z</time>
      </trkpt>
      <trkpt lat="43.2715740334" lon="2.9056601599">
        <ele>28.50</ele>
        <time>2017-08-01T15:02:16Z</time>
      </trkpt>
      <trkpt lat="43.2716050465" lon="2.9057122115">
        <ele>28.50</ele>
        <time>2017-08-01T15:02:17Z</time>
      </trkpt>
      <trkpt lat="43.2718835771" lon="2.9063713644">
        <ele>28.98</ele>
        <time>2017-08-01T15:02:28Z</time>
      </trkpt>
      <trkpt lat="43.2719034422" lon="2.9064402636">
        <ele>28.98</ele>
        <time>2017-08-01T15:02:29Z</time>
      </trkpt>
      <trkpt lat="43.2720951363" lon="2.9073541425">
        <ele>28.50</ele>
        <time>2017-08-01T15:02:42Z</time>
      </trkpt>
      <trkpt lat="43.2722668815" lon="2.9082152154">
        <ele>28.50</ele>
        <time>2017-08-01T15:02:55Z</time>
      </trkpt>
      <trkpt lat="43.2724475116" lon="2.9091088101">
        <ele>28.98</ele>
        <time>2017-08-01T15:03:09Z</time>
      </trkpt>
      <trkpt lat="43.2724617608" lon="2.9091720935">
        <ele>28.50</ele>
        <time>2017-08-01T15:03:10Z</time>
      </trkpt>
      <trkpt lat="43.2725373656" lon="2.9095546436">
        <ele>28.50</ele>
        <time>2017-08-01T15:03:16Z</time>
      </trkpt>
      <trkpt lat="43.2725472562" lon="2.9096169211">
        <ele>28.50</ele>
        <time>2017-08-01T15:03:17Z</time>
      </trkpt>
      <trkpt lat="43.2725920156" lon="2.9099056777">
        <ele>28.50</ele>
        <time>2017-08-01T15:03:22Z</time>
      </trkpt>
      <trkpt lat="43.2726029959" lon="2.9099646863">
        <ele>28.50</ele>
        <time>2017-08-01T15:03:23Z</time>
      </trkpt>
      <trkpt lat="43.2726148143" lon="2.9100255389">
        <ele>28.50</ele>
        <time>2017-08-01T15:03:24Z</time>
      </trkpt>
      <trkpt lat="43.2727670297" lon="2.9108968377">
        <ele>28.50</ele>
        <time>2017-08-01T15:03:37Z</time>
      </trkpt>
      <trkpt lat="43.2728648465" lon="2.9115854949">
        <ele>28.50</ele>
        <time>2017-08-01T15:03:47Z</time>
      </trkpt>
      <trkpt lat="43.2729688659" lon="2.9123202525">
        <ele>28.50</ele>
        <time>2017-08-01T15:03:58Z</time>
      </trkpt>
      <trkpt lat="43.2729831990" lon="2.9123854637">
        <ele>28.50</ele>
        <time>2017-08-01T15:03:59Z</time>
      </trkpt>
      <trkpt lat="43.2730955165" lon="2.9127610568">
        <ele>28.50</ele>
        <time>2017-08-01T15:04:05Z</time>
      </trkpt>
      <trkpt lat="43.2731173933" lon="2.9128209036">
        <ele>28.50</ele>
        <time>2017-08-01T15:04:06Z</time>
      </trkpt>
      <trkpt lat="43.2731373422" lon="2.9128805827">
        <ele>28.50</ele>
        <time>2017-08-01T15:04:07Z</time>
      </trkpt>
      <trkpt lat="43.2731606439" lon="2.9129369091">
        <ele>28.50</ele>
        <time>2017-08-01T15:04:08Z</time>
      </trkpt>
      <trkpt lat="43.2731846161" lon="2.9129918106">
        <ele>28.50</ele>
        <time>2017-08-01T15:04:09Z</time>
      </trkpt>
      <trkpt lat="43.2732078340" lon="2.9130465444">
        <ele>28.50</ele>
        <time>2017-08-01T15:04:10Z</time>
      </trkpt>
      <trkpt lat="43.2736014482" lon="2.9138923623">
        <ele>28.50</ele>
        <time>2017-08-01T15:04:25Z</time>
      </trkpt>
      <trkpt lat="43.2740616146" lon="2.9147173930">
        <ele>28.50</ele>
        <time>2017-08-01T15:04:40Z</time>
      </trkpt>
      <trkpt lat="43.2742428314" lon="2.9149686825">
        <ele>28.98</ele>
        <time>2017-08-01T15:04:45Z</time>
      </trkpt>
      <trkpt lat="43.2744342741" lon="2.9151842650">
        <ele>28.50</ele>
        <time>2017-08-01T15:04:50Z</time>
      </trkpt>
      <trkpt lat="43.2745208591" lon="2.9152498953">
        <ele>28.50</ele>
        <time>2017-08-01T15:04:52Z</time>
      </trkpt>
      <trkpt lat="43.2748596556" lon="2.9154471215">
        <ele>28.50</ele>
        <time>2017-08-01T15:05:00Z</time>
      </trkpt>
      <trkpt lat="43.2752572093" lon="2.9155562539">
        <ele>28.98</ele>
        <time>2017-08-01T15:05:10Z</time>
      </trkpt>
      <trkpt lat="43.2757892087" lon="2.9155719280">
        <ele>28.50</ele>
        <time>2017-08-01T15:05:22Z</time>
      </trkpt>
      <trkpt lat="43.2761133369" lon="2.9155342095">
        <ele>28.50</ele>
        <time>2017-08-01T15:05:33Z</time>
      </trkpt>
      <trkpt lat="43.2765776105" lon="2.9154371470">
        <ele>28.98</ele>
        <time>2017-08-01T15:05:44Z</time>
      </trkpt>
      <trkpt lat="43.2768554706" lon="2.9153650627">
        <ele>28.98</ele>
        <time>2017-08-01T15:05:51Z</time>
      </trkpt>
      <trkpt lat="43.2772723865" lon="2.9152513202">
        <ele>28.98</ele>
        <time>2017-08-01T15:06:01Z</time>
      </trkpt>
      <trkpt lat="43.2773158047" lon="2.9152425192">
        <ele>28.98</ele>
        <time>2017-08-01T15:06:02Z</time>
      </trkpt>
      <trkpt lat="43.2776877936" lon="2.9151620530">
        <ele>29.94</ele>
        <time>2017-08-01T15:06:12Z</time>
      </trkpt>
      <trkpt lat="43.2780018635" lon="2.9149903078">
        <ele>29.46</ele>
        <time>2017-08-01T15:06:21Z</time>
      </trkpt>
      <trkpt lat="43.2780418452" lon="2.9149721190">
        <ele>29.46</ele>
        <time>2017-08-01T15:06:22Z</time>
      </trkpt>
      <trkpt lat="43.2781235687" lon="2.9149386752">
        <ele>29.46</ele>
        <time>2017-08-01T15:06:24Z</time>
      </trkpt>
      <trkpt lat="43.2781658135" lon="2.9149160441">
        <ele>29.46</ele>
        <time>2017-08-01T15:06:25Z</time>
      </trkpt>
      <trkpt lat="43.2782555837" lon="2.9148705304">
        <ele>28.98</ele>
        <time>2017-08-01T15:06:27Z</time>
      </trkpt>
      <trkpt lat="43.2782974932" lon="2.9148452170">
        <ele>28.98</ele>
        <time>2017-08-01T15:06:28Z</time>
      </trkpt>
      <trkpt lat="43.2783404086" lon="2.9148262739">
        <ele>28.98</ele>
        <time>2017-08-01T15:06:29Z</time>
      </trkpt>
      <trkpt lat="43.2783819828" lon="2.9148085043">
        <ele>28.98</ele>
        <time>2017-08-01T15:06:30Z</time>
      </trkpt>
      <trkpt lat="43.2784208748" lon="2.9147875495">
        <ele>28.98</ele>
        <time>2017-08-01T15:06:31Z</time>
      </trkpt>
      <trkpt lat="43.2784604374" lon="2.9147711210">
        <ele>28.98</ele>
        <time>2017-08-01T15:06:32Z</time>
      </trkpt>
      <trkpt lat="43.2784980722" lon="2.9147532675">
        <ele>28.98</ele>
        <time>2017-08-01T15:06:33Z</time>
      </trkpt>
      <trkpt lat="43.2785353716" lon="2.9147364199">
        <ele>28.98</ele>
        <time>2017-08-01T15:06:34Z</time>
      </trkpt>
      <trkpt lat="43.2785713300" lon="2.9147223383">
        <ele>28.98</ele>
        <time>2017-08-01T15:06:35Z</time>
      </trkpt>
      <trkpt lat="43.2786061987" lon="2.9147067480">
        <ele>28.98</ele>
        <time>2017-08-01T15:06:36Z</time>
      </trkpt>
      <trkpt lat="43.2789807022" lon="2.9145455640">
        <ele>28.98</ele>
        <time>2017-08-01T15:06:46Z</time>
      </trkpt>
      <trkpt lat="43.2791008987" lon="2.9145159759">
        <ele>28.98</ele>
        <time>2017-08-01T15:06:49Z</time>
      </trkpt>
      <trkpt lat="43.2792314049" lon="2.9145152215">
        <ele>28.98</ele>
        <time>2017-08-01T15:06:52Z</time>
      </trkpt>
      <trkpt lat="43.2792742364" lon="2.9145257827">
        <ele>28.98</ele>
        <time>2017-08-01T15:06:53Z</time>
      </trkpt>
      <trkpt lat="43.2793160621" lon="2.9145461507">
        <ele>28.98</ele>
        <time>2017-08-01T15:06:54Z</time>
      </trkpt>
      <trkpt lat="43.2793559600" lon="2.9145705421">
        <ele>28.50</ele>
        <time>2017-08-01T15:06:55Z</time>
      </trkpt>
      <trkpt lat="43.2793959416" lon="2.9145960230">
        <ele>28.98</ele>
        <time>2017-08-01T15:06:56Z</time>
      </trkpt>
      <trkpt lat="43.2795115281" lon="2.9146805964">
        <ele>28.50</ele>
        <time>2017-08-01T15:06:59Z</time>
      </trkpt>
      <trkpt lat="43.2797516696" lon="2.9150624759">
        <ele>29.46</ele>
        <time>2017-08-01T15:07:09Z</time>
      </trkpt>
      <trkpt lat="43.2799428608" lon="2.9152919725">
        <ele>28.50</ele>
        <time>2017-08-01T15:07:17Z</time>
      </trkpt>
      <trkpt lat="43.2800972555" lon="2.9155695811">
        <ele>28.50</ele>
        <time>2017-08-01T15:07:27Z</time>
      </trkpt>
      <trkpt lat="43.2802797295" lon="2.9159418214">
        <ele>28.50</ele>
        <time>2017-08-01T15:07:39Z</time>
      </trkpt>
      <trkpt lat="43.2803694997" lon="2.9161388800">
        <ele>28.50</ele>
        <time>2017-08-01T15:07:46Z</time>
      </trkpt>
      <trkpt lat="43.2803954836" lon="2.9161819629">
        <ele>28.98</ele>
        <time>2017-08-01T15:07:47Z</time>
      </trkpt>
      <trkpt lat="43.2804237306" lon="2.9162297398">
        <ele>28.50</ele>
        <time>2017-08-01T15:07:48Z</time>
      </trkpt>
      <trkpt lat="43.2804549951" lon="2.9162818752">
        <ele>28.50</ele>
        <time>2017-08-01T15:07:49Z</time>
      </trkpt>
      <trkpt lat="43.2804839965" lon="2.9163371958">
        <ele>28.98</ele>
        <time>2017-08-01T15:07:50Z</time>
      </trkpt>
      <trkpt lat="43.2805116568" lon="2.9163939413">
        <ele>28.50</ele>
        <time>2017-08-01T15:07:51Z</time>
      </trkpt>
      <trkpt lat="43.2805443462" lon="2.9164488427">
        <ele>28.98</ele>
        <time>2017-08-01T15:07:52Z</time>
      </trkpt>
      <trkpt lat="43.2806562446" lon="2.9166520201">
        <ele>28.98</ele>
        <time>2017-08-01T15:07:56Z</time>
      </trkpt>
      <trkpt lat="43.2806775346" lon="2.9166990425">
        <ele>28.98</ele>
        <time>2017-08-01T15:07:57Z</time>
      </trkpt>
      <trkpt lat="43.2808415685" lon="2.9170269426">
        <ele>28.98</ele>
        <time>2017-08-01T15:08:05Z</time>
      </trkpt>
      <trkpt lat="43.2810424827" lon="2.9174053017">
        <ele>28.98</ele>
        <time>2017-08-01T15:08:14Z</time>
      </trkpt>
      <trkpt lat="43.2810728252" lon="2.9174524080">
        <ele>28.98</ele>
        <time>2017-08-01T15:08:15Z</time>
      </trkpt>
      <trkpt lat="43.2810998987" lon="2.9174988437">
        <ele>28.98</ele>
        <time>2017-08-01T15:08:16Z</time>
      </trkpt>
      <trkpt lat="43.2813946065" lon="2.9180310946">
        <ele>29.46</ele>
        <time>2017-08-01T15:08:28Z</time>
      </trkpt>
      <trkpt lat="43.2816256955" lon="2.9184578173">
        <ele>29.46</ele>
        <time>2017-08-01T15:08:39Z</time>
      </trkpt>
      <trkpt lat="43.2817571238" lon="2.9187781736">
        <ele>28.98</ele>
        <time>2017-08-01T15:08:47Z</time>
      </trkpt>
      <trkpt lat="43.2817961834" lon="2.9188271239">
        <ele>28.98</ele>
        <time>2017-08-01T15:08:49Z</time>
      </trkpt>
      <trkpt lat="43.2817994524" lon="2.9188632499">
        <ele>28.98</ele>
        <time>2017-08-01T15:08:50Z</time>
      </trkpt>
      <trkpt lat="43.2817916572" lon="2.9189046565">
        <ele>28.98</ele>
        <time>2017-08-01T15:08:51Z</time>
      </trkpt>
      <trkpt lat="43.2817758154" lon="2.9190562852">
        <ele>28.98</ele>
        <time>2017-08-01T15:08:54Z</time>
      </trkpt>
      <trkpt lat="43.2817867119" lon="2.9191183113">
        <ele>28.98</ele>
        <time>2017-08-01T15:08:55Z</time>
      </trkpt>
      <trkpt lat="43.2818254363" lon="2.9193856101">
        <ele>29.46</ele>
        <time>2017-08-01T15:09:00Z</time>
      </trkpt>
      <trkpt lat="43.2818255201" lon="2.9194499832">
        <ele>28.98</ele>
        <time>2017-08-01T15:09:01Z</time>
      </trkpt>
      <trkpt lat="43.2818337344" lon="2.9195804894">
        <ele>29.46</ele>
        <time>2017-08-01T15:09:03Z</time>
      </trkpt>
      <trkpt lat="43.2818443794" lon="2.9196436051">
        <ele>29.46</ele>
        <time>2017-08-01T15:09:04Z</time>
      </trkpt>
      <trkpt lat="43.2818637416" lon="2.9197743628">
        <ele>29.46</ele>
        <time>2017-08-01T15:09:06Z</time>
      </trkpt>
      <trkpt lat="43.2818937488" lon="2.9199038632">
        <ele>29.46</ele>
        <time>2017-08-01T15:09:08Z</time>
      </trkpt>
      <trkpt lat="43.2820882089" lon="2.9204466753">
        <ele>29.46</ele>
        <time>2017-08-01T15:09:18Z</time>
      </trkpt>
      <trkpt lat="43.2821073197" lon="2.9204944521">
        <ele>28.98</ele>
        <time>2017-08-01T15:09:19Z</time>
      </trkpt>
      <trkpt lat="43.2821288612" lon="2.9205371998">
        <ele>29.46</ele>
        <time>2017-08-01T15:09:20Z</time>
      </trkpt>
      <trkpt lat="43.2823040430" lon="2.9208335001">
        <ele>29.46</ele>
        <time>2017-08-01T15:09:28Z</time>
      </trkpt>
      <trkpt lat="43.2824993413" lon="2.9211090133">
        <ele>29.46</ele>
        <time>2017-08-01T15:09:36Z</time>
      </trkpt>
      <trkpt lat="43.2826875150" lon="2.9213250987">
        <ele>29.46</ele>
        <time>2017-08-01T15:09:46Z</time>
      </trkpt>
      <trkpt lat="43.2827187795" lon="2.9213618115">
        <ele>29.46</ele>
        <time>2017-08-01T15:09:47Z</time>
      </trkpt>
      <trkpt lat="43.2830170076" lon="2.9216741212">
        <ele>29.46</ele>
        <time>2017-08-01T15:09:57Z</time>
      </trkpt>
      <trkpt lat="43.2831718214" lon="2.9219883587">
        <ele>29.94</ele>
        <time>2017-08-01T15:10:05Z</time>
      </trkpt>
      <trkpt lat="43.2830470987" lon="2.9222367983">
        <ele>30.90</ele>
        <time>2017-08-01T15:10:14Z</time>
      </trkpt>
      <trkpt lat="43.2827739324" lon="2.9225209448">
        <ele>30.42</ele>
        <time>2017-08-01T15:10:25Z</time>
      </trkpt>
      <trkpt lat="43.2825430110" lon="2.9227429815">
        <ele>30.42</ele>
        <time>2017-08-01T15:10:35Z</time>
      </trkpt>
      <trkpt lat="43.2823924720" lon="2.9229403753">
        <ele>30.42</ele>
        <time>2017-08-01T15:10:42Z</time>
      </trkpt>
      <trkpt lat="43.2820524182" lon="2.9232976958">
        <ele>29.94</ele>
        <time>2017-08-01T15:10:53Z</time>
      </trkpt>
      <trkpt lat="43.2818520069" lon="2.9235173017">
        <ele>29.94</ele>
        <time>2017-08-01T15:11:00Z</time>
      </trkpt>
      <trkpt lat="43.2815463189" lon="2.9238275159">
        <ele>29.94</ele>
        <time>2017-08-01T15:11:10Z</time>
      </trkpt>
      <trkpt lat="43.2814115379" lon="2.9239094071">
        <ele>29.46</ele>
        <time>2017-08-01T15:11:15Z</time>
      </trkpt>
      <trkpt lat="43.2813956123" lon="2.9239308648">
        <ele>29.46</ele>
        <time>2017-08-01T15:11:16Z</time>
      </trkpt>
      <trkpt lat="43.2812010683" lon="2.9242052883">
        <ele>28.98</ele>
        <time>2017-08-01T15:11:24Z</time>
      </trkpt>
      <trkpt lat="43.2809621003" lon="2.9244574998">
        <ele>28.98</ele>
        <time>2017-08-01T15:11:31Z</time>
      </trkpt>
      <trkpt lat="43.2806087192" lon="2.9248232022">
        <ele>28.98</ele>
        <time>2017-08-01T15:11:41Z</time>
      </trkpt>
      <trkpt lat="43.2804521453" lon="2.9249963723">
        <ele>28.50</ele>
        <time>2017-08-01T15:11:45Z</time>
      </trkpt>
      <trkpt lat="43.2800299488" lon="2.9254204966">
        <ele>28.50</ele>
        <time>2017-08-01T15:11:55Z</time>
      </trkpt>
      <trkpt lat="43.2799979299" lon="2.9254686926">
        <ele>28.50</ele>
        <time>2017-08-01T15:11:56Z</time>
      </trkpt>
      <trkpt lat="43.2799585350" lon="2.9255161341">
        <ele>28.50</ele>
        <time>2017-08-01T15:11:57Z</time>
      </trkpt>
      <trkpt lat="43.2795671001" lon="2.9259084910">
        <ele>28.02</ele>
        <time>2017-08-01T15:12:06Z</time>
      </trkpt>
      <trkpt lat="43.2794196624" lon="2.9260357283">
        <ele>28.02</ele>
        <time>2017-08-01T15:12:10Z</time>
      </trkpt>
      <trkpt lat="43.2791640144" lon="2.9263294302">
        <ele>28.02</ele>
        <time>2017-08-01T15:12:20Z</time>
      </trkpt>
      <trkpt lat="43.2790494338" lon="2.9264429212">
        <ele>27.53</ele>
        <time>2017-08-01T15:12:28Z</time>
      </trkpt>
      <trkpt lat="43.2790282276" lon="2.9264493752">
        <ele>27.53</ele>
        <time>2017-08-01T15:12:45Z</time>
      </trkpt>
      <trkpt lat="43.2790257968" lon="2.9264580924">
        <ele>28.02</ele>
        <time>2017-08-01T15:13:13Z</time>
      </trkpt>
      <trkpt lat="43.2790287305" lon="2.9264668096">
        <ele>27.53</ele>
        <time>2017-08-01T15:13:29Z</time>
      </trkpt>
      <trkpt lat="43.2790198456" lon="2.9264849983">
        <ele>28.02</ele>
        <time>2017-08-01T15:13:30Z</time>
      </trkpt>
      <trkpt lat="43.2790065184" lon="2.9265026841">
        <ele>28.02</ele>
        <time>2017-08-01T15:13:31Z</time>
      </trkpt>
      <trkpt lat="43.2789893355" lon="2.9265234713">
        <ele>27.53</ele>
        <time>2017-08-01T15:13:32Z</time>
      </trkpt>
      <trkpt lat="43.2789695542" lon="2.9265476111">
        <ele>27.53</ele>
        <time>2017-08-01T15:13:33Z</time>
      </trkpt>
      <trkpt lat="43.2789474260" lon="2.9265729245">
        <ele>27.53</ele>
        <time>2017-08-01T15:13:34Z</time>
      </trkpt>
      <trkpt lat="43.2787295803" lon="2.9268361162">
        <ele>27.53</ele>
        <time>2017-08-01T15:13:43Z</time>
      </trkpt>
      <trkpt lat="43.2785625290" lon="2.9269730765">
        <ele>27.53</ele>
        <time>2017-08-01T15:13:49Z</time>
      </trkpt>
      <trkpt lat="43.2783516403" lon="2.9271928500">
        <ele>27.53</ele>
        <time>2017-08-01T15:13:57Z</time>
      </trkpt>
      <trkpt lat="43.2781465352" lon="2.9274283815">
        <ele>27.05</ele>
        <time>2017-08-01T15:14:05Z</time>
      </trkpt>
      <trkpt lat="43.2778673340" lon="2.9277398530">
        <ele>24.65</ele>
        <time>2017-08-01T15:14:14Z</time>
      </trkpt>
      <trkpt lat="43.2778400928" lon="2.9277750570">
        <ele>30.90</ele>
        <time>2017-08-01T15:14:15Z</time>
      </trkpt>
      <trkpt lat="43.2778136898" lon="2.9278079979">
        <ele>27.05</ele>
        <time>2017-08-01T15:14:16Z</time>
      </trkpt>
      <trkpt lat="43.2775007095" lon="2.9281175416">
        <ele>27.05</ele>
        <time>2017-08-01T15:14:26Z</time>
      </trkpt>
      <trkpt lat="43.2774709538" lon="2.9281371552">
        <ele>27.05</ele>
        <time>2017-08-01T15:14:27Z</time>
      </trkpt>
      <trkpt lat="43.2774476521" lon="2.9281607922">
        <ele>27.05</ele>
        <time>2017-08-01T15:14:28Z</time>
      </trkpt>
      <trkpt lat="43.2774210814" lon="2.9281930625">
        <ele>27.05</ele>
        <time>2017-08-01T15:14:29Z</time>
      </trkpt>
      <trkpt lat="43.2773924153" lon="2.9282322899">
        <ele>27.05</ele>
        <time>2017-08-01T15:14:30Z</time>
      </trkpt>
      <trkpt lat="43.2773616537" lon="2.9282650631">
        <ele>27.05</ele>
        <time>2017-08-01T15:14:31Z</time>
      </trkpt>
      <trkpt lat="43.2773214206" lon="2.9282950703">
        <ele>27.05</ele>
        <time>2017-08-01T15:14:32Z</time>
      </trkpt>
      <trkpt lat="43.2772782538" lon="2.9283325374">
        <ele>27.05</ele>
        <time>2017-08-01T15:14:33Z</time>
      </trkpt>
      <trkpt lat="43.2772358414" lon="2.9283755366">
        <ele>26.57</ele>
        <time>2017-08-01T15:14:34Z</time>
      </trkpt>
      <trkpt lat="43.2771990448" lon="2.9284231458">
        <ele>27.05</ele>
        <time>2017-08-01T15:14:35Z</time>
      </trkpt>
      <trkpt lat="43.2771299779" lon="2.9285290930">
        <ele>27.05</ele>
        <time>2017-08-01T15:14:37Z</time>
      </trkpt>
      <trkpt lat="43.2770877331" lon="2.9285767861">
        <ele>27.05</ele>
        <time>2017-08-01T15:14:38Z</time>
      </trkpt>
      <trkpt lat="43.2768773474" lon="2.9288181011">
        <ele>27.05</ele>
        <time>2017-08-01T15:14:43Z</time>
      </trkpt>
      <trkpt lat="43.2768455800" lon="2.9288738407">
        <ele>26.57</ele>
        <time>2017-08-01T15:14:44Z</time>
      </trkpt>
      <trkpt lat="43.2768329233" lon="2.9289408959">
        <ele>26.57</ele>
        <time>2017-08-01T15:14:45Z</time>
      </trkpt>
      <trkpt lat="43.2768392097" lon="2.9290025868">
        <ele>26.57</ele>
        <time>2017-08-01T15:14:46Z</time>
      </trkpt>
      <trkpt lat="43.2768528722" lon="2.9290504474">
        <ele>26.57</ele>
        <time>2017-08-01T15:14:47Z</time>
      </trkpt>
      <trkpt lat="43.2768716477" lon="2.9290874116">
        <ele>27.05</ele>
        <time>2017-08-01T15:14:48Z</time>
      </trkpt>
      <trkpt lat="43.2768929377" lon="2.9291175026">
        <ele>27.05</ele>
        <time>2017-08-01T15:14:49Z</time>
      </trkpt>
      <trkpt lat="43.2769151498" lon="2.9291466717">
        <ele>27.05</ele>
        <time>2017-08-01T15:14:50Z</time>
      </trkpt>
      <trkpt lat="43.2769682910" lon="2.9292993899">
        <ele>26.57</ele>
        <time>2017-08-01T15:14:54Z</time>
      </trkpt>
      <trkpt lat="43.2769547123" lon="2.9293413833">
        <ele>26.57</ele>
        <time>2017-08-01T15:14:55Z</time>
      </trkpt>
      <trkpt lat="43.2769310754" lon="2.9293762520">
        <ele>26.57</ele>
        <time>2017-08-01T15:14:56Z</time>
      </trkpt>
      <trkpt lat="43.2766346913" lon="2.9296883941">
        <ele>26.09</ele>
        <time>2017-08-01T15:15:07Z</time>
      </trkpt>
      <trkpt lat="43.2765996549" lon="2.9297208320">
        <ele>26.09</ele>
        <time>2017-08-01T15:15:08Z</time>
      </trkpt>
      <trkpt lat="43.2765695639" lon="2.9297520965">
        <ele>26.09</ele>
        <time>2017-08-01T15:15:09Z</time>
      </trkpt>
      <trkpt lat="43.2765380479" lon="2.9297836963">
        <ele>26.57</ele>
        <time>2017-08-01T15:15:10Z</time>
      </trkpt>
      <trkpt lat="43.2765051071" lon="2.9298209120">
        <ele>26.09</ele>
        <time>2017-08-01T15:15:11Z</time>
      </trkpt>
      <trkpt lat="43.2764736749" lon="2.9298618156">
        <ele>26.09</ele>
        <time>2017-08-01T15:15:12Z</time>
      </trkpt>
      <trkpt lat="43.2763020974" lon="2.9300660826">
        <ele>25.61</ele>
        <time>2017-08-01T15:15:18Z</time>
      </trkpt>
      <trkpt lat="43.2762342039" lon="2.9301338922">
        <ele>25.61</ele>
        <time>2017-08-01T15:15:20Z</time>
      </trkpt>
      <trkpt lat="43.2761982456" lon="2.9301674198">
        <ele>25.61</ele>
        <time>2017-08-01T15:15:21Z</time>
      </trkpt>
      <trkpt lat="43.2758869417" lon="2.9304534104">
        <ele>24.65</ele>
        <time>2017-08-01T15:15:29Z</time>
      </trkpt>
      <trkpt lat="43.2755824272" lon="2.9308054503">
        <ele>23.69</ele>
        <time>2017-08-01T15:15:39Z</time>
      </trkpt>
      <trkpt lat="43.2755066548" lon="2.9308684822">
        <ele>23.69</ele>
        <time>2017-08-01T15:15:41Z</time>
      </trkpt>
      <trkpt lat="43.2754763961" lon="2.9308958072">
        <ele>23.69</ele>
        <time>2017-08-01T15:15:42Z</time>
      </trkpt>
      <trkpt lat="43.2752191555" lon="2.9311983939">
        <ele>24.17</ele>
        <time>2017-08-01T15:15:50Z</time>
      </trkpt>
      <trkpt lat="43.2749542873" lon="2.9314523656">
        <ele>23.69</ele>
        <time>2017-08-01T15:15:59Z</time>
      </trkpt>
      <trkpt lat="43.2747943606" lon="2.9316127114">
        <ele>23.69</ele>
        <time>2017-08-01T15:16:04Z</time>
      </trkpt>
      <trkpt lat="43.2745324261" lon="2.9319111072">
        <ele>23.21</ele>
        <time>2017-08-01T15:16:12Z</time>
      </trkpt>
      <trkpt lat="43.2745004073" lon="2.9319527652">
        <ele>23.69</ele>
        <time>2017-08-01T15:16:13Z</time>
      </trkpt>
      <trkpt lat="43.2742036879" lon="2.9322596267">
        <ele>23.21</ele>
        <time>2017-08-01T15:16:22Z</time>
      </trkpt>
      <trkpt lat="43.2739803940" lon="2.9325051326">
        <ele>23.21</ele>
        <time>2017-08-01T15:16:29Z</time>
      </trkpt>
      <trkpt lat="43.2739486266" lon="2.9325379059">
        <ele>22.73</ele>
        <time>2017-08-01T15:16:30Z</time>
      </trkpt>
      <trkpt lat="43.2739181165" lon="2.9325709306">
        <ele>22.73</ele>
        <time>2017-08-01T15:16:31Z</time>
      </trkpt>
      <trkpt lat="43.2738881931" lon="2.9326061346">
        <ele>22.73</ele>
        <time>2017-08-01T15:16:32Z</time>
      </trkpt>
      <trkpt lat="43.2738550846" lon="2.9326392431">
        <ele>23.21</ele>
        <time>2017-08-01T15:16:33Z</time>
      </trkpt>
      <trkpt lat="43.2738225628" lon="2.9326675739">
        <ele>22.73</ele>
        <time>2017-08-01T15:16:34Z</time>
      </trkpt>
      <trkpt lat="43.2737948187" lon="2.9326908756">
        <ele>22.73</ele>
        <time>2017-08-01T15:16:35Z</time>
      </trkpt>
      <trkpt lat="43.2735614665" lon="2.9329337832">
        <ele>22.73</ele>
        <time>2017-08-01T15:16:43Z</time>
      </trkpt>
      <trkpt lat="43.2734337263" lon="2.9331229627">
        <ele>22.73</ele>
        <time>2017-08-01T15:16:47Z</time>
      </trkpt>
      <trkpt lat="43.2733974326" lon="2.9331729189">
        <ele>22.25</ele>
        <time>2017-08-01T15:16:48Z</time>
      </trkpt>
      <trkpt lat="43.2733546011" lon="2.9332263116">
        <ele>22.25</ele>
        <time>2017-08-01T15:16:49Z</time>
      </trkpt>
      <trkpt lat="43.2732714526" lon="2.9333242122">
        <ele>16.00</ele>
        <time>2017-08-01T15:16:51Z</time>
      </trkpt>
      <trkpt lat="43.2732310519" lon="2.9333643615">
        <ele>25.13</ele>
        <time>2017-08-01T15:16:52Z</time>
      </trkpt>
      <trkpt lat="43.2731918246" lon="2.9334032536">
        <ele>22.25</ele>
        <time>2017-08-01T15:16:53Z</time>
      </trkpt>
      <trkpt lat="43.2730883919" lon="2.9335034173">
        <ele>22.25</ele>
        <time>2017-08-01T15:16:56Z</time>
      </trkpt>
      <trkpt lat="43.2730522659" lon="2.9335397948">
        <ele>22.25</ele>
        <time>2017-08-01T15:16:57Z</time>
      </trkpt>
      <trkpt lat="43.2730221748" lon="2.9335808661">
        <ele>22.25</ele>
        <time>2017-08-01T15:16:58Z</time>
      </trkpt>
      <trkpt lat="43.2729923353" lon="2.9336227756">
        <ele>22.25</ele>
        <time>2017-08-01T15:16:59Z</time>
      </trkpt>
      <trkpt lat="43.2729568798" lon="2.9336657748">
        <ele>22.25</ele>
        <time>2017-08-01T15:17:00Z</time>
      </trkpt>
      <trkpt lat="43.2727528643" lon="2.9338963609">
        <ele>22.25</ele>
        <time>2017-08-01T15:17:06Z</time>
      </trkpt>
      <trkpt lat="43.2727208454" lon="2.9339302238">
        <ele>21.77</ele>
        <time>2017-08-01T15:17:07Z</time>
      </trkpt>
      <trkpt lat="43.2726583164" lon="2.9340075888">
        <ele>21.77</ele>
        <time>2017-08-01T15:17:09Z</time>
      </trkpt>
      <trkpt lat="43.2723636087" lon="2.9343009554">
        <ele>21.77</ele>
        <time>2017-08-01T15:17:18Z</time>
      </trkpt>
      <trkpt lat="43.2721807156" lon="2.9344095010">
        <ele>20.81</ele>
        <time>2017-08-01T15:17:23Z</time>
      </trkpt>
      <trkpt lat="43.2721357886" lon="2.9344571102">
        <ele>20.81</ele>
        <time>2017-08-01T15:17:24Z</time>
      </trkpt>
      <trkpt lat="43.2718355488" lon="2.9348021932">
        <ele>19.84</ele>
        <time>2017-08-01T15:17:30Z</time>
      </trkpt>
      <trkpt lat="43.2712530065" lon="2.9354222026">
        <ele>19.36</ele>
        <time>2017-08-01T15:17:42Z</time>
      </trkpt>
      <trkpt lat="43.2711651642" lon="2.9355088715">
        <ele>19.36</ele>
        <time>2017-08-01T15:17:44Z</time>
      </trkpt>
      <trkpt lat="43.2709904015" lon="2.9357170779">
        <ele>19.36</ele>
        <time>2017-08-01T15:17:49Z</time>
      </trkpt>
      <trkpt lat="43.2709070016" lon="2.9358086921">
        <ele>19.36</ele>
        <time>2017-08-01T15:17:51Z</time>
      </trkpt>
      <trkpt lat="43.2708687801" lon="2.9358571395">
        <ele>19.36</ele>
        <time>2017-08-01T15:17:52Z</time>
      </trkpt>
      <trkpt lat="43.2708311453" lon="2.9358967021">
        <ele>19.36</ele>
        <time>2017-08-01T15:17:53Z</time>
      </trkpt>
      <trkpt lat="43.2705041673" lon="2.9362468142">
        <ele>19.36</ele>
        <time>2017-08-01T15:18:02Z</time>
      </trkpt>
      <trkpt lat="43.2703519519" lon="2.9364240915">
        <ele>19.36</ele>
        <time>2017-08-01T15:18:06Z</time>
      </trkpt>
      <trkpt lat="43.2700499520" lon="2.9367512371">
        <ele>18.88</ele>
        <time>2017-08-01T15:18:15Z</time>
      </trkpt>
      <trkpt lat="43.2696945593" lon="2.9371264949">
        <ele>18.88</ele>
        <time>2017-08-01T15:18:25Z</time>
      </trkpt>
      <trkpt lat="43.2695360575" lon="2.9373005871">
        <ele>19.36</ele>
        <time>2017-08-01T15:18:29Z</time>
      </trkpt>
      <trkpt lat="43.2693548407" lon="2.9374750145">
        <ele>18.88</ele>
        <time>2017-08-01T15:18:33Z</time>
      </trkpt>
      <trkpt lat="43.2693126798" lon="2.9375222046">
        <ele>18.88</ele>
        <time>2017-08-01T15:18:34Z</time>
      </trkpt>
      <trkpt lat="43.2689696085" lon="2.9379050061">
        <ele>18.88</ele>
        <time>2017-08-01T15:18:43Z</time>
      </trkpt>
      <trkpt lat="43.2689337339" lon="2.9379444849">
        <ele>18.88</ele>
        <time>2017-08-01T15:18:44Z</time>
      </trkpt>
      <trkpt lat="43.2688955963" lon="2.9379807785">
        <ele>19.36</ele>
        <time>2017-08-01T15:18:45Z</time>
      </trkpt>
      <trkpt lat="43.2688629068" lon="2.9380206764">
        <ele>19.36</ele>
        <time>2017-08-01T15:18:46Z</time>
      </trkpt>
      <trkpt lat="43.2688313071" lon="2.9380624183">
        <ele>19.36</ele>
        <time>2017-08-01T15:18:47Z</time>
      </trkpt>
      <trkpt lat="43.2687947620" lon="2.9381054174">
        <ele>19.36</ele>
        <time>2017-08-01T15:18:48Z</time>
      </trkpt>
      <trkpt lat="43.2687536068" lon="2.9381443933">
        <ele>19.36</ele>
        <time>2017-08-01T15:18:49Z</time>
      </trkpt>
      <trkpt lat="43.2687072549" lon="2.9381865542">
        <ele>19.36</ele>
        <time>2017-08-01T15:18:50Z</time>
      </trkpt>
      <trkpt lat="43.2683125511" lon="2.9386316333">
        <ele>18.88</ele>
        <time>2017-08-01T15:18:59Z</time>
      </trkpt>
      <trkpt lat="43.2682689652" lon="2.9386711121">
        <ele>19.36</ele>
        <time>2017-08-01T15:19:00Z</time>
      </trkpt>
      <trkpt lat="43.2678338606" lon="2.9391518142">
        <ele>19.84</ele>
        <time>2017-08-01T15:19:11Z</time>
      </trkpt>
      <trkpt lat="43.2675528154" lon="2.9394471087">
        <ele>18.88</ele>
        <time>2017-08-01T15:19:21Z</time>
      </trkpt>
      <trkpt lat="43.2674831618" lon="2.9394997470">
        <ele>18.88</ele>
        <time>2017-08-01T15:19:24Z</time>
      </trkpt>
      <trkpt lat="43.2671982609" lon="2.9398348555">
        <ele>18.40</ele>
        <time>2017-08-01T15:19:34Z</time>
      </trkpt>
      <trkpt lat="43.2671586983" lon="2.9398745019">
        <ele>18.40</ele>
        <time>2017-08-01T15:19:35Z</time>
      </trkpt>
      <trkpt lat="43.2671172079" lon="2.9399157409">
        <ele>17.92</ele>
        <time>2017-08-01T15:19:36Z</time>
      </trkpt>
      <trkpt lat="43.2670755498" lon="2.9399558902">
        <ele>17.92</ele>
        <time>2017-08-01T15:19:37Z</time>
      </trkpt>
      <trkpt lat="43.2668317202" lon="2.9401783459">
        <ele>17.92</ele>
        <time>2017-08-01T15:19:43Z</time>
      </trkpt>
      <trkpt lat="43.2667931635" lon="2.9402170703">
        <ele>17.92</ele>
        <time>2017-08-01T15:19:44Z</time>
      </trkpt>
      <trkpt lat="43.2667522598" lon="2.9402557947">
        <ele>17.92</ele>
        <time>2017-08-01T15:19:45Z</time>
      </trkpt>
      <trkpt lat="43.2666718774" lon="2.9403376020">
        <ele>17.92</ele>
        <time>2017-08-01T15:19:47Z</time>
      </trkpt>
      <trkpt lat="43.2666315604" lon="2.9403772485">
        <ele>17.44</ele>
        <time>2017-08-01T15:19:48Z</time>
      </trkpt>
      <trkpt lat="43.2665531896" lon="2.9404659290">
        <ele>17.44</ele>
        <time>2017-08-01T15:19:50Z</time>
      </trkpt>
      <trkpt lat="43.2665151358" lon="2.9405132867">
        <ele>17.44</ele>
        <time>2017-08-01T15:19:51Z</time>
      </trkpt>
      <trkpt lat="43.2660448272" lon="2.9410267621">
        <ele>17.44</ele>
        <time>2017-08-01T15:20:03Z</time>
      </trkpt>
      <trkpt lat="43.2655900251" lon="2.9415301792">
        <ele>17.44</ele>
        <time>2017-08-01T15:20:14Z</time>
      </trkpt>
      <trkpt lat="43.2655002549" lon="2.9416315164">
        <ele>16.96</ele>
        <time>2017-08-01T15:20:16Z</time>
      </trkpt>
      <trkpt lat="43.2650435250" lon="2.9421463329">
        <ele>16.48</ele>
        <time>2017-08-01T15:20:26Z</time>
      </trkpt>
      <trkpt lat="43.2646665908" lon="2.9425613210">
        <ele>16.00</ele>
        <time>2017-08-01T15:20:34Z</time>
      </trkpt>
      <trkpt lat="43.2641720586" lon="2.9430752154">
        <ele>15.52</ele>
        <time>2017-08-01T15:20:45Z</time>
      </trkpt>
      <trkpt lat="43.2639651932" lon="2.9432695080">
        <ele>16.00</ele>
        <time>2017-08-01T15:20:50Z</time>
      </trkpt>
      <trkpt lat="43.2639253791" lon="2.9433018621">
        <ele>16.00</ele>
        <time>2017-08-01T15:20:51Z</time>
      </trkpt>
      <trkpt lat="43.2638917677" lon="2.9433304444">
        <ele>16.00</ele>
        <time>2017-08-01T15:20:52Z</time>
      </trkpt>
      <trkpt lat="43.2638607547" lon="2.9433538299">
        <ele>16.00</ele>
        <time>2017-08-01T15:20:53Z</time>
      </trkpt>
      <trkpt lat="43.2638263050" lon="2.9433810711">
        <ele>16.00</ele>
        <time>2017-08-01T15:20:54Z</time>
      </trkpt>
      <trkpt lat="43.2637914363" lon="2.9434194602">
        <ele>16.00</ele>
        <time>2017-08-01T15:20:55Z</time>
      </trkpt>
      <trkpt lat="43.2637542207" lon="2.9434629623">
        <ele>16.00</ele>
        <time>2017-08-01T15:20:56Z</time>
      </trkpt>
      <trkpt lat="43.2633904461" lon="2.9438441712">
        <ele>16.00</ele>
        <time>2017-08-01T15:21:05Z</time>
      </trkpt>
      <trkpt lat="43.2633544039" lon="2.9438933730">
        <ele>16.00</ele>
        <time>2017-08-01T15:21:06Z</time>
      </trkpt>
      <trkpt lat="43.2633162662" lon="2.9439450055">
        <ele>16.00</ele>
        <time>2017-08-01T15:21:07Z</time>
      </trkpt>
      <trkpt lat="43.2632760331" lon="2.9439911060">
        <ele>15.52</ele>
        <time>2017-08-01T15:21:08Z</time>
      </trkpt>
      <trkpt lat="43.2632358000" lon="2.9440274835">
        <ele>15.52</ele>
        <time>2017-08-01T15:21:09Z</time>
      </trkpt>
      <trkpt lat="43.2631940581" lon="2.9440518748">
        <ele>15.52</ele>
        <time>2017-08-01T15:21:10Z</time>
      </trkpt>
      <trkpt lat="43.2631554175" lon="2.9440754279">
        <ele>16.48</ele>
        <time>2017-08-01T15:21:11Z</time>
      </trkpt>
      <trkpt lat="43.2631145138" lon="2.9441045970">
        <ele>15.52</ele>
        <time>2017-08-01T15:21:12Z</time>
      </trkpt>
      <trkpt lat="43.2627531700" lon="2.9444442317">
        <ele>15.04</ele>
        <time>2017-08-01T15:21:23Z</time>
      </trkpt>
      <trkpt lat="43.2625506632" lon="2.9446512647">
        <ele>14.08</ele>
        <time>2017-08-01T15:21:31Z</time>
      </trkpt>
      <trkpt lat="43.2625091728" lon="2.9446869716">
        <ele>13.60</ele>
        <time>2017-08-01T15:21:32Z</time>
      </trkpt>
      <trkpt lat="43.2624704484" lon="2.9447318148">
        <ele>13.60</ele>
        <time>2017-08-01T15:21:33Z</time>
      </trkpt>
      <trkpt lat="43.2623147964" lon="2.9448935017">
        <ele>13.60</ele>
        <time>2017-08-01T15:21:37Z</time>
      </trkpt>
      <trkpt lat="43.2619043346" lon="2.9453324620">
        <ele>13.12</ele>
        <time>2017-08-01T15:21:47Z</time>
      </trkpt>
      <trkpt lat="43.2617024984" lon="2.9455550015">
        <ele>13.12</ele>
        <time>2017-08-01T15:21:52Z</time>
      </trkpt>
      <trkpt lat="43.2614924479" lon="2.9457632918">
        <ele>12.63</ele>
        <time>2017-08-01T15:21:57Z</time>
      </trkpt>
      <trkpt lat="43.2614559866" lon="2.9458118230">
        <ele>12.63</ele>
        <time>2017-08-01T15:21:58Z</time>
      </trkpt>
      <trkpt lat="43.2614284102" lon="2.9458621982">
        <ele>12.63</ele>
        <time>2017-08-01T15:21:59Z</time>
      </trkpt>
      <trkpt lat="43.2614134066" lon="2.9459099751">
        <ele>12.63</ele>
        <time>2017-08-01T15:22:00Z</time>
      </trkpt>
      <trkpt lat="43.2613989059" lon="2.9459498730">
        <ele>13.12</ele>
        <time>2017-08-01T15:22:01Z</time>
      </trkpt>
      <trkpt lat="43.2613786217" lon="2.9459857475">
        <ele>13.60</ele>
        <time>2017-08-01T15:22:02Z</time>
      </trkpt>
      <trkpt lat="43.2611191180" lon="2.9462797847">
        <ele>13.60</ele>
        <time>2017-08-01T15:22:09Z</time>
      </trkpt>
      <trkpt lat="43.2610797230" lon="2.9463255499">
        <ele>13.60</ele>
        <time>2017-08-01T15:22:10Z</time>
      </trkpt>
      <trkpt lat="43.2609987538" lon="2.9464143142">
        <ele>13.60</ele>
        <time>2017-08-01T15:22:12Z</time>
      </trkpt>
      <trkpt lat="43.2609587722" lon="2.9464588221">
        <ele>13.60</ele>
        <time>2017-08-01T15:22:13Z</time>
      </trkpt>
      <trkpt lat="43.2607324608" lon="2.9466587305">
        <ele>13.60</ele>
        <time>2017-08-01T15:22:20Z</time>
      </trkpt>
      <trkpt lat="43.2604940794" lon="2.9469064157">
        <ele>13.12</ele>
        <time>2017-08-01T15:22:28Z</time>
      </trkpt>
      <trkpt lat="43.2602958474" lon="2.9471388459">
        <ele>13.12</ele>
        <time>2017-08-01T15:22:33Z</time>
      </trkpt>
      <trkpt lat="43.2602570392" lon="2.9471791629">
        <ele>13.12</ele>
        <time>2017-08-01T15:22:34Z</time>
      </trkpt>
      <trkpt lat="43.2601052430" lon="2.9473132733">
        <ele>12.63</ele>
        <time>2017-08-01T15:22:38Z</time>
      </trkpt>
      <trkpt lat="43.2600661833" lon="2.9473556858">
        <ele>12.63</ele>
        <time>2017-08-01T15:22:39Z</time>
      </trkpt>
      <trkpt lat="43.2600233518" lon="2.9474003613">
        <ele>12.63</ele>
        <time>2017-08-01T15:22:40Z</time>
      </trkpt>
      <trkpt lat="43.2599889021" lon="2.9474437796">
        <ele>12.63</ele>
        <time>2017-08-01T15:22:41Z</time>
      </trkpt>
      <trkpt lat="43.2599669416" lon="2.9474903829">
        <ele>12.63</ele>
        <time>2017-08-01T15:22:42Z</time>
      </trkpt>
      <trkpt lat="43.2599455677" lon="2.9475475475">
        <ele>12.63</ele>
        <time>2017-08-01T15:22:43Z</time>
      </trkpt>
      <trkpt lat="43.2596237864" lon="2.9480087198">
        <ele>12.15</ele>
        <time>2017-08-01T15:22:54Z</time>
      </trkpt>
      <trkpt lat="43.2593597565" lon="2.9481701553">
        <ele>12.15</ele>
        <time>2017-08-01T15:23:02Z</time>
      </trkpt>
      <trkpt lat="43.2591327745" lon="2.9484135658">
        <ele>12.15</ele>
        <time>2017-08-01T15:23:10Z</time>
      </trkpt>
      <trkpt lat="43.2590989117" lon="2.9484449141">
        <ele>13.12</ele>
        <time>2017-08-01T15:23:11Z</time>
      </trkpt>
      <trkpt lat="43.2590713352" lon="2.9484862369">
        <ele>12.15</ele>
        <time>2017-08-01T15:23:12Z</time>
      </trkpt>
      <trkpt lat="43.2590125781" lon="2.9485732410">
        <ele>12.15</ele>
        <time>2017-08-01T15:23:14Z</time>
      </trkpt>
      <trkpt lat="43.2589768711" lon="2.9486077745">
        <ele>12.15</ele>
        <time>2017-08-01T15:23:15Z</time>
      </trkpt>
      <trkpt lat="43.2589393202" lon="2.9486425593">
        <ele>12.15</ele>
        <time>2017-08-01T15:23:16Z</time>
      </trkpt>
      <trkpt lat="43.2587492187" lon="2.9488388635">
        <ele>12.15</ele>
        <time>2017-08-01T15:23:21Z</time>
      </trkpt>
      <trkpt lat="43.2582335640" lon="2.9493569490">
        <ele>11.67</ele>
        <time>2017-08-01T15:23:33Z</time>
      </trkpt>
      <trkpt lat="43.2577955257" lon="2.9497139342">
        <ele>11.19</ele>
        <time>2017-08-01T15:23:43Z</time>
      </trkpt>
      <trkpt lat="43.2574501075" lon="2.9499523155">
        <ele>11.19</ele>
        <time>2017-08-01T15:23:52Z</time>
      </trkpt>
      <trkpt lat="43.2573810406" lon="2.9499798082">
        <ele>11.19</ele>
        <time>2017-08-01T15:23:54Z</time>
      </trkpt>
      <trkpt lat="43.2570454292" lon="2.9501306824">
        <ele>10.71</ele>
        <time>2017-08-01T15:24:04Z</time>
      </trkpt>
      <trkpt lat="43.2568011805" lon="2.9502630327">
        <ele>7.83</ele>
        <time>2017-08-01T15:24:11Z</time>
      </trkpt>
      <trkpt lat="43.2567490451" lon="2.9502895195">
        <ele>7.35</ele>
        <time>2017-08-01T15:24:12Z</time>
      </trkpt>
      <trkpt lat="43.2566985860" lon="2.9503134917">
        <ele>7.35</ele>
        <time>2017-08-01T15:24:13Z</time>
      </trkpt>
      <trkpt lat="43.2565980032" lon="2.9503728356">
        <ele>7.83</ele>
        <time>2017-08-01T15:24:15Z</time>
      </trkpt>
      <trkpt lat="43.2565518189" lon="2.9504056927">
        <ele>7.83</ele>
        <time>2017-08-01T15:24:16Z</time>
      </trkpt>
      <trkpt lat="43.2560484018" lon="2.9507264681">
        <ele>7.83</ele>
        <time>2017-08-01T15:24:26Z</time>
      </trkpt>
      <trkpt lat="43.2554658595" lon="2.9510961100">
        <ele>8.31</ele>
        <time>2017-08-01T15:24:37Z</time>
      </trkpt>
      <trkpt lat="43.2551209442" lon="2.9513110220">
        <ele>8.31</ele>
        <time>2017-08-01T15:24:44Z</time>
      </trkpt>
      <trkpt lat="43.2545746956" lon="2.9516464658">
        <ele>8.31</ele>
        <time>2017-08-01T15:24:56Z</time>
      </trkpt>
      <trkpt lat="43.2539497409" lon="2.9520539101">
        <ele>9.75</ele>
        <time>2017-08-01T15:25:11Z</time>
      </trkpt>
      <trkpt lat="43.2538672630" lon="2.9521075543">
        <ele>8.79</ele>
        <time>2017-08-01T15:25:13Z</time>
      </trkpt>
      <trkpt lat="43.2538229227" lon="2.9521346278">
        <ele>8.79</ele>
        <time>2017-08-01T15:25:14Z</time>
      </trkpt>
      <trkpt lat="43.2535614073" lon="2.9523032717">
        <ele>8.79</ele>
        <time>2017-08-01T15:25:20Z</time>
      </trkpt>
      <trkpt lat="43.2535181567" lon="2.9523278307">
        <ele>8.79</ele>
        <time>2017-08-01T15:25:21Z</time>
      </trkpt>
      <trkpt lat="43.2530619297" lon="2.9526160005">
        <ele>8.79</ele>
        <time>2017-08-01T15:25:31Z</time>
      </trkpt>
      <trkpt lat="43.2525455207" lon="2.9529291485">
        <ele>9.27</ele>
        <time>2017-08-01T15:25:42Z</time>
      </trkpt>
      <trkpt lat="43.2519918960" lon="2.9532869719">
        <ele>9.27</ele>
        <time>2017-08-01T15:25:53Z</time>
      </trkpt>
      <trkpt lat="43.2515067514" lon="2.9535975214">
        <ele>9.27</ele>
        <time>2017-08-01T15:26:03Z</time>
      </trkpt>
      <trkpt lat="43.2509686332" lon="2.9539409280">
        <ele>9.27</ele>
        <time>2017-08-01T15:26:14Z</time>
      </trkpt>
      <trkpt lat="43.2505107298" lon="2.9542255774">
        <ele>9.27</ele>
        <time>2017-08-01T15:26:24Z</time>
      </trkpt>
      <trkpt lat="43.2504628692" lon="2.9542537406">
        <ele>9.27</ele>
        <time>2017-08-01T15:26:25Z</time>
      </trkpt>
      <trkpt lat="43.2501268387" lon="2.9544741008">
        <ele>9.27</ele>
        <time>2017-08-01T15:26:33Z</time>
      </trkpt>
      <trkpt lat="43.2500353921" lon="2.9545287509">
        <ele>9.27</ele>
        <time>2017-08-01T15:26:35Z</time>
      </trkpt>
      <trkpt lat="43.2499923091" lon="2.9545540642">
        <ele>9.27</ele>
        <time>2017-08-01T15:26:36Z</time>
      </trkpt>
      <trkpt lat="43.2495779078" lon="2.9548253026">
        <ele>8.79</ele>
        <time>2017-08-01T15:26:45Z</time>
      </trkpt>
      <trkpt lat="43.2490740716" lon="2.9551354330">
        <ele>8.31</ele>
        <time>2017-08-01T15:26:54Z</time>
      </trkpt>
      <trkpt lat="43.2484637015" lon="2.9555251077">
        <ele>7.83</ele>
        <time>2017-08-01T15:27:06Z</time>
      </trkpt>
      <trkpt lat="43.2481707539" lon="2.9557145387">
        <ele>7.83</ele>
        <time>2017-08-01T15:27:12Z</time>
      </trkpt>
      <trkpt lat="43.2481264975" lon="2.9557552747">
        <ele>7.83</ele>
        <time>2017-08-01T15:27:13Z</time>
      </trkpt>
      <trkpt lat="43.2480442710" lon="2.9558323044">
        <ele>8.31</ele>
        <time>2017-08-01T15:27:15Z</time>
      </trkpt>
      <trkpt lat="43.2478091586" lon="2.9559828434">
        <ele>9.75</ele>
        <time>2017-08-01T15:27:24Z</time>
      </trkpt>
      <trkpt lat="43.2476617210" lon="2.9560725298">
        <ele>9.75</ele>
        <time>2017-08-01T15:27:34Z</time>
      </trkpt>
      <trkpt lat="43.2476661634" lon="2.9560447857">
        <ele>9.27</ele>
        <time>2017-08-01T15:27:42Z</time>
      </trkpt>
      <trkpt lat="43.2476732042" lon="2.9560239147">
        <ele>9.75</ele>
        <time>2017-08-01T15:27:43Z</time>
      </trkpt>
      <trkpt lat="43.2476785686" lon="2.9559970088">
        <ele>9.75</ele>
        <time>2017-08-01T15:27:44Z</time>
      </trkpt>
      <trkpt lat="43.2476773951" lon="2.9559678398">
        <ele>9.75</ele>
        <time>2017-08-01T15:27:45Z</time>
      </trkpt>
      <trkpt lat="43.2476702705" lon="2.9559358209">
        <ele>9.75</ele>
        <time>2017-08-01T15:27:46Z</time>
      </trkpt>
      <trkpt lat="43.2476606313" lon="2.9559042212">
        <ele>9.75</ele>
        <time>2017-08-01T15:27:47Z</time>
      </trkpt>
      <trkpt lat="43.2476479746" lon="2.9558697715">
        <ele>9.75</ele>
        <time>2017-08-01T15:27:48Z</time>
      </trkpt>
      <trkpt lat="43.2474498264" lon="2.9555956833">
        <ele>8.79</ele>
        <time>2017-08-01T15:27:58Z</time>
      </trkpt>
      <trkpt lat="43.2474109344" lon="2.9555968568">
        <ele>8.79</ele>
        <time>2017-08-01T15:27:59Z</time>
      </trkpt>
      <trkpt lat="43.2473715395" lon="2.9556078371">
        <ele>8.31</ele>
        <time>2017-08-01T15:28:00Z</time>
      </trkpt>
      <trkpt lat="43.2473323960" lon="2.9556265287">
        <ele>8.31</ele>
        <time>2017-08-01T15:28:01Z</time>
      </trkpt>
      <trkpt lat="43.2472959347" lon="2.9556488246">
        <ele>8.31</ele>
        <time>2017-08-01T15:28:02Z</time>
      </trkpt>
      <trkpt lat="43.2472604793" lon="2.9556748085">
        <ele>7.83</ele>
        <time>2017-08-01T15:28:03Z</time>
      </trkpt>
      <trkpt lat="43.2469792664" lon="2.9558928218">
        <ele>6.87</ele>
        <time>2017-08-01T15:28:11Z</time>
      </trkpt>
      <trkpt lat="43.2467145659" lon="2.9559270199">
        <ele>7.35</ele>
        <time>2017-08-01T15:28:19Z</time>
      </trkpt>
      <trkpt lat="43.2464359514" lon="2.9559249245">
        <ele>7.35</ele>
        <time>2017-08-01T15:28:27Z</time>
      </trkpt>
      <trkpt lat="43.2462834008" lon="2.9558273591">
        <ele>7.35</ele>
        <time>2017-08-01T15:28:31Z</time>
      </trkpt>
      <trkpt lat="43.2462471910" lon="2.9557905626">
        <ele>7.35</ele>
        <time>2017-08-01T15:28:32Z</time>
      </trkpt>
      <trkpt lat="43.2460282557" lon="2.9554144666">
        <ele>6.87</ele>
        <time>2017-08-01T15:28:41Z</time>
      </trkpt>
      <trkpt lat="43.2460171077" lon="2.9553546198">
        <ele>6.39</ele>
        <time>2017-08-01T15:28:42Z</time>
      </trkpt>
      <trkpt lat="43.2460104860" lon="2.9552890733">
        <ele>6.39</ele>
        <time>2017-08-01T15:28:43Z</time>
      </trkpt>
      <trkpt lat="43.2460088097" lon="2.9552190844">
        <ele>5.91</ele>
        <time>2017-08-01T15:28:44Z</time>
      </trkpt>
      <trkpt lat="43.2460091449" lon="2.9551485088">
        <ele>5.91</ele>
        <time>2017-08-01T15:28:45Z</time>
      </trkpt>
      <trkpt lat="43.2460139226" lon="2.9550796095">
        <ele>5.42</ele>
        <time>2017-08-01T15:28:46Z</time>
      </trkpt>
      <trkpt lat="43.2460228074" lon="2.9550186731">
        <ele>5.42</ele>
        <time>2017-08-01T15:28:47Z</time>
      </trkpt>
      <trkpt lat="43.2462300919" lon="2.9546579998">
        <ele>5.91</ele>
        <time>2017-08-01T15:28:56Z</time>
      </trkpt>
      <trkpt lat="43.2463698182" lon="2.9545385577">
        <ele>5.42</ele>
        <time>2017-08-01T15:29:00Z</time>
      </trkpt>
      <trkpt lat="43.2464024238" lon="2.9545005877">
        <ele>5.91</ele>
        <time>2017-08-01T15:29:01Z</time>
      </trkpt>
      <trkpt lat="43.2464315929" lon="2.9544587620">
        <ele>5.42</ele>
        <time>2017-08-01T15:29:02Z</time>
      </trkpt>
      <trkpt lat="43.2464585826" lon="2.9544169363">
        <ele>5.42</ele>
        <time>2017-08-01T15:29:03Z</time>
      </trkpt>
      <trkpt lat="43.2464828063" lon="2.9543754458">
        <ele>5.42</ele>
        <time>2017-08-01T15:29:04Z</time>
      </trkpt>
      <trkpt lat="43.2465044316" lon="2.9543317761">
        <ele>5.42</ele>
        <time>2017-08-01T15:29:05Z</time>
      </trkpt>
      <trkpt lat="43.2465782762" lon="2.9540653992">
        <ele>5.91</ele>
        <time>2017-08-01T15:29:12Z</time>
      </trkpt>
      <trkpt lat="43.2465885021" lon="2.9540400021">
        <ele>4.94</ele>
        <time>2017-08-01T15:29:13Z</time>
      </trkpt>
      <trkpt lat="43.2466015778" lon="2.9540098272">
        <ele>4.94</ele>
        <time>2017-08-01T15:29:14Z</time>
      </trkpt>
      <trkpt lat="43.2466211077" lon="2.9539763834">
        <ele>5.42</ele>
        <time>2017-08-01T15:29:15Z</time>
      </trkpt>
      <trkpt lat="43.2466444932" lon="2.9539371561">
        <ele>5.42</ele>
        <time>2017-08-01T15:29:16Z</time>
      </trkpt>
      <trkpt lat="43.2466635201" lon="2.9538882058">
        <ele>5.42</ele>
        <time>2017-08-01T15:29:17Z</time>
      </trkpt>
      <trkpt lat="43.2466825470" lon="2.9538379982">
        <ele>5.91</ele>
        <time>2017-08-01T15:29:18Z</time>
      </trkpt>
      <trkpt lat="43.2467452437" lon="2.9535109363">
        <ele>8.79</ele>
        <time>2017-08-01T15:29:24Z</time>
      </trkpt>
      <trkpt lat="43.2467542961" lon="2.9532884806">
        <ele>5.42</ele>
        <time>2017-08-01T15:29:28Z</time>
      </trkpt>
      <trkpt lat="43.2467581518" lon="2.9530793522">
        <ele>2.06</ele>
        <time>2017-08-01T15:29:32Z</time>
      </trkpt>
      <trkpt lat="43.2467570622" lon="2.9530293960">
        <ele>9.75</ele>
        <time>2017-08-01T15:29:33Z</time>
      </trkpt>
      <trkpt lat="43.2467557210" lon="2.9529808648">
        <ele>2.54</ele>
        <time>2017-08-01T15:29:34Z</time>
      </trkpt>
      <trkpt lat="43.2467557210" lon="2.9529337585">
        <ele>10.71</ele>
        <time>2017-08-01T15:29:35Z</time>
      </trkpt>
      <trkpt lat="43.2467549667" lon="2.9528926872">
        <ele>4.46</ele>
        <time>2017-08-01T15:29:36Z</time>
      </trkpt>
      <trkpt lat="43.2467594091" lon="2.9527870752">
        <ele>6.87</ele>
        <time>2017-08-01T15:29:43Z</time>
      </trkpt>
      <trkpt lat="43.2467466686" lon="2.9527698085">
        <ele>6.39</ele>
        <time>2017-08-01T15:29:52Z</time>
      </trkpt>
      <trkpt lat="43.2467416395" lon="2.9527617618">
        <ele>7.35</ele>
        <time>2017-08-01T15:30:14Z</time>
      </trkpt>
      <trkpt lat="43.2467458304" lon="2.9526889231">
        <ele>8.79</ele>
        <time>2017-08-01T15:30:25Z</time>
      </trkpt>
      <trkpt lat="43.2467574812" lon="2.9526802897">
        <ele>8.31</ele>
        <time>2017-08-01T15:30:46Z</time>
      </trkpt>
      <trkpt lat="43.2467590738" lon="2.9526730813">
        <ele>8.31</ele>
        <time>2017-08-01T15:31:08Z</time>
      </trkpt>
      <trkpt lat="43.2467527874" lon="2.9526670463">
        <ele>8.31</ele>
        <time>2017-08-01T15:31:30Z</time>
      </trkpt>
      <trkpt lat="43.2467548829" lon="2.9526672140">
        <ele>8.31</ele>
        <time>2017-08-01T15:31:56Z</time>
      </trkpt>
      <trkpt lat="43.2467574812" lon="2.9526693095">
        <ele>8.31</ele>
        <time>2017-08-01T15:32:17Z</time>
      </trkpt>
      <trkpt lat="43.2467602473" lon="2.9526900966">
        <ele>7.83</ele>
        <time>2017-08-01T15:32:27Z</time>
      </trkpt>
      <trkpt lat="43.2467556372" lon="2.9526877496">
        <ele>7.83</ele>
        <time>2017-08-01T15:32:44Z</time>
      </trkpt>
      <trkpt lat="43.2467547990" lon="2.9526893422">
        <ele>7.35</ele>
        <time>2017-08-01T15:33:05Z</time>
      </trkpt>
      <trkpt lat="43.2467588224" lon="2.9526965506">
        <ele>7.35</ele>
        <time>2017-08-01T15:33:25Z</time>
      </trkpt>
      <trkpt lat="43.2467636000" lon="2.9526993167">
        <ele>7.35</ele>
        <time>2017-08-01T15:33:48Z</time>
      </trkpt>
      <trkpt lat="43.2467647735" lon="2.9527022503">
        <ele>6.87</ele>
        <time>2017-08-01T15:34:11Z</time>
      </trkpt>
      <trkpt lat="43.2467617560" lon="2.9527123086">
        <ele>7.35</ele>
        <time>2017-08-01T15:34:18Z</time>
      </trkpt>
      <trkpt lat="43.2467597444" lon="2.9527322575">
        <ele>6.87</ele>
        <time>2017-08-01T15:34:19Z</time>
      </trkpt>
      <trkpt lat="43.2467595767" lon="2.9527584091">
        <ele>7.35</ele>
        <time>2017-08-01T15:34:20Z</time>
      </trkpt>
      <trkpt lat="43.2467539608" lon="2.9531320743">
        <ele>7.35</ele>
        <time>2017-08-01T15:34:29Z</time>
      </trkpt>
      <trkpt lat="43.2467381191" lon="2.9534648359">
        <ele>7.35</ele>
        <time>2017-08-01T15:34:35Z</time>
      </trkpt>
      <trkpt lat="43.2466502767" lon="2.9538077395">
        <ele>7.35</ele>
        <time>2017-08-01T15:34:41Z</time>
      </trkpt>
      <trkpt lat="43.2465751749" lon="2.9539674148">
        <ele>6.87</ele>
        <time>2017-08-01T15:34:44Z</time>
      </trkpt>
      <trkpt lat="43.2465523761" lon="2.9540172033">
        <ele>6.87</ele>
        <time>2017-08-01T15:34:45Z</time>
      </trkpt>
      <trkpt lat="43.2465392165" lon="2.9540689196">
        <ele>6.87</ele>
        <time>2017-08-01T15:34:46Z</time>
      </trkpt>
      <trkpt lat="43.2465341873" lon="2.9541220609">
        <ele>6.39</ele>
        <time>2017-08-01T15:34:47Z</time>
      </trkpt>
      <trkpt lat="43.2465290744" lon="2.9541736096">
        <ele>6.39</ele>
        <time>2017-08-01T15:34:48Z</time>
      </trkpt>
      <trkpt lat="43.2465206925" lon="2.9542180337">
        <ele>6.39</ele>
        <time>2017-08-01T15:34:49Z</time>
      </trkpt>
      <trkpt lat="43.2465087902" lon="2.9542565066">
        <ele>6.39</ele>
        <time>2017-08-01T15:34:50Z</time>
      </trkpt>
      <trkpt lat="43.2464905176" lon="2.9542904533">
        <ele>6.87</ele>
        <time>2017-08-01T15:34:51Z</time>
      </trkpt>
      <trkpt lat="43.2462777011" lon="2.9545941297">
        <ele>7.35</ele>
        <time>2017-08-01T15:35:00Z</time>
      </trkpt>
      <trkpt lat="43.2460425049" lon="2.9548888374">
        <ele>7.35</ele>
        <time>2017-08-01T15:35:09Z</time>
      </trkpt>
      <trkpt lat="43.2459870167" lon="2.9553194996">
        <ele>7.35</ele>
        <time>2017-08-01T15:35:19Z</time>
      </trkpt>
      <trkpt lat="43.2460887730" lon="2.9556194041">
        <ele>8.79</ele>
        <time>2017-08-01T15:35:28Z</time>
      </trkpt>
      <trkpt lat="43.2463053614" lon="2.9558582883">
        <ele>9.27</ele>
        <time>2017-08-01T15:35:37Z</time>
      </trkpt>
      <trkpt lat="43.2465760969" lon="2.9559767246">
        <ele>9.75</ele>
        <time>2017-08-01T15:35:45Z</time>
      </trkpt>
      <trkpt lat="43.2468975428" lon="2.9559573624">
        <ele>9.75</ele>
        <time>2017-08-01T15:35:53Z</time>
      </trkpt>
      <trkpt lat="43.2469405420" lon="2.9559363239">
        <ele>9.75</ele>
        <time>2017-08-01T15:35:54Z</time>
      </trkpt>
      <trkpt lat="43.2470700424" lon="2.9558506608">
        <ele>9.75</ele>
        <time>2017-08-01T15:35:57Z</time>
      </trkpt>
      <trkpt lat="43.2473903988" lon="2.9555955995">
        <ele>11.19</ele>
        <time>2017-08-01T15:36:06Z</time>
      </trkpt>
      <trkpt lat="43.2476095855" lon="2.9557396006">
        <ele>12.63</ele>
        <time>2017-08-01T15:36:14Z</time>
      </trkpt>
      <trkpt lat="43.2477058098" lon="2.9560259264">
        <ele>12.15</ele>
        <time>2017-08-01T15:36:22Z</time>
      </trkpt>
      <trkpt lat="43.2476949133" lon="2.9560598731">
        <ele>12.15</ele>
        <time>2017-08-01T15:36:23Z</time>
      </trkpt>
      <trkpt lat="43.2476748805" lon="2.9560816661">
        <ele>12.15</ele>
        <time>2017-08-01T15:36:24Z</time>
      </trkpt>
      <trkpt lat="43.2476509083" lon="2.9560963344">
        <ele>12.15</ele>
        <time>2017-08-01T15:36:25Z</time>
      </trkpt>
      <trkpt lat="43.2476260979" lon="2.9561099969">
        <ele>12.15</ele>
        <time>2017-08-01T15:36:26Z</time>
      </trkpt>
      <trkpt lat="43.2474043127" lon="2.9562413413">
        <ele>12.63</ele>
        <time>2017-08-01T15:36:35Z</time>
      </trkpt>
      <trkpt lat="43.2472500857" lon="2.9564362206">
        <ele>11.67</ele>
        <time>2017-08-01T15:36:42Z</time>
      </trkpt>
      <trkpt lat="43.2472444698" lon="2.9564695805">
        <ele>11.19</ele>
        <time>2017-08-01T15:36:43Z</time>
      </trkpt>
      <trkpt lat="43.2472379319" lon="2.9564974084">
        <ele>11.19</ele>
        <time>2017-08-01T15:36:44Z</time>
      </trkpt>
      <trkpt lat="43.2472244371" lon="2.9565161001">
        <ele>11.19</ele>
        <time>2017-08-01T15:36:45Z</time>
      </trkpt>
      <trkpt lat="43.2472094335" lon="2.9565256555">
        <ele>11.19</ele>
        <time>2017-08-01T15:36:46Z</time>
      </trkpt>
      <trkpt lat="43.2471906580" lon="2.9565279186">
        <ele>11.19</ele>
        <time>2017-08-01T15:36:47Z</time>
      </trkpt>
      <trkpt lat="43.2471733075" lon="2.9565275833">
        <ele>10.71</ele>
        <time>2017-08-01T15:36:48Z</time>
      </trkpt>
      <trkpt lat="43.2471598126" lon="2.9565267451">
        <ele>10.71</ele>
        <time>2017-08-01T15:36:49Z</time>
      </trkpt>
      <trkpt lat="43.2471474074" lon="2.9565350432">
        <ele>10.71</ele>
        <time>2017-08-01T15:36:57Z</time>
      </trkpt>
      <trkpt lat="43.2471598964" lon="2.9565425031">
        <ele>10.71</ele>
        <time>2017-08-01T15:37:01Z</time>
      </trkpt>
      <trkpt lat="43.2471934240" lon="2.9565407429">
        <ele>11.19</ele>
        <time>2017-08-01T15:37:04Z</time>
      </trkpt>
      <trkpt lat="43.2472070027" lon="2.9565340374">
        <ele>11.19</ele>
        <time>2017-08-01T15:37:05Z</time>
      </trkpt>
      <trkpt lat="43.2472419553" lon="2.9565376416">
        <ele>12.15</ele>
        <time>2017-08-01T15:37:13Z</time>
      </trkpt>
      <trkpt lat="43.2472584676" lon="2.9565516394">
        <ele>11.19</ele>
        <time>2017-08-01T15:37:14Z</time>
      </trkpt>
      <trkpt lat="43.2472738065" lon="2.9565774556">
        <ele>11.19</ele>
        <time>2017-08-01T15:37:15Z</time>
      </trkpt>
      <trkpt lat="43.2472878043" lon="2.9566124920">
        <ele>11.19</ele>
        <time>2017-08-01T15:37:16Z</time>
      </trkpt>
      <trkpt lat="43.2472971920" lon="2.9566523898">
        <ele>10.71</ele>
        <time>2017-08-01T15:37:17Z</time>
      </trkpt>
      <trkpt lat="43.2472994551" lon="2.9566948861">
        <ele>10.71</ele>
        <time>2017-08-01T15:37:18Z</time>
      </trkpt>
      <trkpt lat="43.2472949289" lon="2.9567361251">
        <ele>10.71</ele>
        <time>2017-08-01T15:37:19Z</time>
      </trkpt>
      <trkpt lat="43.2472844515" lon="2.9567757715">
        <ele>10.71</ele>
        <time>2017-08-01T15:37:20Z</time>
      </trkpt>
      <trkpt lat="43.2472634967" lon="2.9568103887">
        <ele>10.71</ele>
        <time>2017-08-01T15:37:21Z</time>
      </trkpt>
      <trkpt lat="43.2472321484" lon="2.9568386357">
        <ele>10.71</ele>
        <time>2017-08-01T15:37:22Z</time>
      </trkpt>
      <trkpt lat="43.2471933402" lon="2.9568625242">
        <ele>10.23</ele>
        <time>2017-08-01T15:37:23Z</time>
      </trkpt>
      <trkpt lat="43.2471505087" lon="2.9568792041">
        <ele>10.23</ele>
        <time>2017-08-01T15:37:24Z</time>
      </trkpt>
      <trkpt lat="43.2471087668" lon="2.9568870831">
        <ele>10.23</ele>
        <time>2017-08-01T15:37:25Z</time>
      </trkpt>
      <trkpt lat="43.2470702939" lon="2.9568921961">
        <ele>10.23</ele>
        <time>2017-08-01T15:37:26Z</time>
      </trkpt>
      <trkpt lat="43.2470330782" lon="2.9569006618">
        <ele>10.23</ele>
        <time>2017-08-01T15:37:27Z</time>
      </trkpt>
      <trkpt lat="43.2469956949" lon="2.9569174256">
        <ele>10.23</ele>
        <time>2017-08-01T15:37:28Z</time>
      </trkpt>
      <trkpt lat="43.2469621673" lon="2.9569423199">
        <ele>10.23</ele>
        <time>2017-08-01T15:37:29Z</time>
      </trkpt>
      <trkpt lat="43.2469288073" lon="2.9569656216">
        <ele>9.75</ele>
        <time>2017-08-01T15:37:30Z</time>
      </trkpt>
      <trkpt lat="43.2468982134" lon="2.9569938686">
        <ele>10.23</ele>
        <time>2017-08-01T15:37:31Z</time>
      </trkpt>
      <trkpt lat="43.2468713075" lon="2.9570341855">
        <ele>10.23</ele>
        <time>2017-08-01T15:37:32Z</time>
      </trkpt>
      <trkpt lat="43.2468505204" lon="2.9570844769">
        <ele>10.23</ele>
        <time>2017-08-01T15:37:33Z</time>
      </trkpt>
      <trkpt lat="43.2468393724" lon="2.9571414739">
        <ele>10.23</ele>
        <time>2017-08-01T15:37:34Z</time>
      </trkpt>
      <trkpt lat="43.2468398754" lon="2.9571986385">
        <ele>10.23</ele>
        <time>2017-08-01T15:37:35Z</time>
      </trkpt>
      <trkpt lat="43.2468500175" lon="2.9572535399">
        <ele>10.23</ele>
        <time>2017-08-01T15:37:36Z</time>
      </trkpt>
      <trkpt lat="43.2468693797" lon="2.9573067650">
        <ele>10.23</ele>
        <time>2017-08-01T15:37:37Z</time>
      </trkpt>
      <trkpt lat="43.2468909211" lon="2.9573586490">
        <ele>10.23</ele>
        <time>2017-08-01T15:37:38Z</time>
      </trkpt>
      <trkpt lat="43.2469061762" lon="2.9574126285">
        <ele>9.75</ele>
        <time>2017-08-01T15:37:39Z</time>
      </trkpt>
      <trkpt lat="43.2469083555" lon="2.9574625846">
        <ele>9.75</ele>
        <time>2017-08-01T15:37:40Z</time>
      </trkpt>
      <trkpt lat="43.2468956988" lon="2.9575007223">
        <ele>9.75</ele>
        <time>2017-08-01T15:37:41Z</time>
      </trkpt>
      <trkpt lat="43.2468721457" lon="2.9575218447">
        <ele>9.75</ele>
        <time>2017-08-01T15:37:42Z</time>
      </trkpt>
      <trkpt lat="43.2468363550" lon="2.9575268738">
        <ele>9.75</ele>
        <time>2017-08-01T15:37:43Z</time>
      </trkpt>
      <trkpt lat="43.2467960380" lon="2.9575234372">
        <ele>9.75</ele>
        <time>2017-08-01T15:37:44Z</time>
      </trkpt>
      <trkpt lat="43.2467573136" lon="2.9575133789">
        <ele>9.75</ele>
        <time>2017-08-01T15:37:45Z</time>
      </trkpt>
      <trkpt lat="43.2467186730" lon="2.9575106129">
        <ele>9.75</ele>
        <time>2017-08-01T15:37:46Z</time>
      </trkpt>
      <trkpt lat="43.2466793619" lon="2.9575053323">
        <ele>10.23</ele>
        <time>2017-08-01T15:37:47Z</time>
      </trkpt>
      <trkpt lat="43.2464152481" lon="2.9574517719">
        <ele>10.23</ele>
        <time>2017-08-01T15:37:55Z</time>
      </trkpt>
      <trkpt lat="43.2461021841" lon="2.9573936015">
        <ele>10.23</ele>
        <time>2017-08-01T15:38:04Z</time>
      </trkpt>
      <trkpt lat="43.2460598554" lon="2.9573941883">
        <ele>10.23</ele>
        <time>2017-08-01T15:38:05Z</time>
      </trkpt>
      <trkpt lat="43.2460167725" lon="2.9573878180">
        <ele>10.23</ele>
        <time>2017-08-01T15:38:06Z</time>
      </trkpt>
      <trkpt lat="43.2459727675" lon="2.9573770892">
        <ele>10.23</ele>
        <time>2017-08-01T15:38:07Z</time>
      </trkpt>
      <trkpt lat="43.2458888646" lon="2.9573570564">
        <ele>10.23</ele>
        <time>2017-08-01T15:38:09Z</time>
      </trkpt>
      <trkpt lat="43.2458491344" lon="2.9573570564">
        <ele>9.75</ele>
        <time>2017-08-01T15:38:10Z</time>
      </trkpt>
      <trkpt lat="43.2456377428" lon="2.9575157259">
        <ele>9.75</ele>
        <time>2017-08-01T15:38:17Z</time>
      </trkpt>
      <trkpt lat="43.2454991061" lon="2.9576039035">
        <ele>8.79</ele>
        <time>2017-08-01T15:38:23Z</time>
      </trkpt>
      <trkpt lat="43.2454820070" lon="2.9575847089">
        <ele>8.79</ele>
        <time>2017-08-01T15:38:24Z</time>
      </trkpt>
      <trkpt lat="43.2454742119" lon="2.9575599823">
        <ele>8.31</ele>
        <time>2017-08-01T15:38:25Z</time>
      </trkpt>
      <trkpt lat="43.2454753853" lon="2.9575287178">
        <ele>8.31</ele>
        <time>2017-08-01T15:38:26Z</time>
      </trkpt>
      <trkpt lat="43.2454856113" lon="2.9575006384">
        <ele>8.31</ele>
        <time>2017-08-01T15:38:27Z</time>
      </trkpt>
      <trkpt lat="43.2455021236" lon="2.9574794322">
        <ele>8.79</ele>
        <time>2017-08-01T15:38:28Z</time>
      </trkpt>
      <trkpt lat="43.2455238327" lon="2.9574699607">
        <ele>8.79</ele>
        <time>2017-08-01T15:38:29Z</time>
      </trkpt>
      <trkpt lat="43.2455508225" lon="2.9574699607">
        <ele>8.79</ele>
        <time>2017-08-01T15:38:30Z</time>
      </trkpt>
      <trkpt lat="43.2455783989" lon="2.9574770853">
        <ele>8.79</ele>
        <time>2017-08-01T15:38:31Z</time>
      </trkpt>
      <trkpt lat="43.2456646487" lon="2.9574598186">
        <ele>9.27</ele>
        <time>2017-08-01T15:38:34Z</time>
      </trkpt>
      <trkpt lat="43.2457398344" lon="2.9573982954">
        <ele>9.27</ele>
        <time>2017-08-01T15:38:37Z</time>
      </trkpt>
      <trkpt lat="43.2457625493" lon="2.9573899135">
        <ele>9.27</ele>
        <time>2017-08-01T15:38:38Z</time>
      </trkpt>
      <trkpt lat="43.2458677422" lon="2.9573373590">
        <ele>9.75</ele>
        <time>2017-08-01T15:38:45Z</time>
      </trkpt>
      <trkpt lat="43.2459322829" lon="2.9573265463">
        <ele>10.23</ele>
        <time>2017-08-01T15:38:48Z</time>
      </trkpt>
      <trkpt lat="43.2459697500" lon="2.9573401250">
        <ele>10.23</ele>
        <time>2017-08-01T15:38:49Z</time>
      </trkpt>
      <trkpt lat="43.2460108213" lon="2.9573487584">
        <ele>10.23</ele>
        <time>2017-08-01T15:38:50Z</time>
      </trkpt>
      <trkpt lat="43.2460631244" lon="2.9573615827">
        <ele>10.23</ele>
        <time>2017-08-01T15:38:51Z</time>
      </trkpt>
      <trkpt lat="43.2461099792" lon="2.9573734012">
        <ele>10.23</ele>
        <time>2017-08-01T15:38:52Z</time>
      </trkpt>
      <trkpt lat="43.2461580075" lon="2.9573877342">
        <ele>10.23</ele>
        <time>2017-08-01T15:38:53Z</time>
      </trkpt>
      <trkpt lat="43.2462070417" lon="2.9574025702">
        <ele>10.23</ele>
        <time>2017-08-01T15:38:54Z</time>
      </trkpt>
      <trkpt lat="43.2462532260" lon="2.9574146401">
        <ele>10.23</ele>
        <time>2017-08-01T15:38:55Z</time>
      </trkpt>
      <trkpt lat="43.2466576528" lon="2.9574943520">
        <ele>9.75</ele>
        <time>2017-08-01T15:39:05Z</time>
      </trkpt>
      <trkpt lat="43.2469029911" lon="2.9575244430">
        <ele>10.23</ele>
        <time>2017-08-01T15:39:13Z</time>
      </trkpt>
      <trkpt lat="43.2469225209" lon="2.9575481638">
        <ele>9.75</ele>
        <time>2017-08-01T15:39:14Z</time>
      </trkpt>
      <trkpt lat="43.2469428889" lon="2.9575880617">
        <ele>9.27</ele>
        <time>2017-08-01T15:39:15Z</time>
      </trkpt>
      <trkpt lat="43.2471370138" lon="2.9579328932">
        <ele>9.75</ele>
        <time>2017-08-01T15:39:24Z</time>
      </trkpt>
      <trkpt lat="43.2474836893" lon="2.9579476453">
        <ele>10.23</ele>
        <time>2017-08-01T15:39:33Z</time>
      </trkpt>
      <trkpt lat="43.2475650776" lon="2.9579400178">
        <ele>10.23</ele>
        <time>2017-08-01T15:39:35Z</time>
      </trkpt>
      <trkpt lat="43.2476830948" lon="2.9579623975">
        <ele>10.23</ele>
        <time>2017-08-01T15:39:38Z</time>
      </trkpt>
      <trkpt lat="43.2477201428" lon="2.9579878785">
        <ele>10.23</ele>
        <time>2017-08-01T15:39:39Z</time>
      </trkpt>
      <trkpt lat="43.2477533352" lon="2.9580202326">
        <ele>10.23</ele>
        <time>2017-08-01T15:39:40Z</time>
      </trkpt>
      <trkpt lat="43.2477809954" lon="2.9580637347">
        <ele>10.23</ele>
        <time>2017-08-01T15:39:41Z</time>
      </trkpt>
      <trkpt lat="43.2478010282" lon="2.9581095837">
        <ele>10.23</ele>
        <time>2017-08-01T15:39:42Z</time>
      </trkpt>
      <trkpt lat="43.2479101606" lon="2.9584317002">
        <ele>9.75</ele>
        <time>2017-08-01T15:39:51Z</time>
      </trkpt>
      <trkpt lat="43.2479100768" lon="2.9584192112">
        <ele>9.75</ele>
        <time>2017-08-01T15:40:00Z</time>
      </trkpt>
      <trkpt lat="43.2478965819" lon="2.9583783913">
        <ele>9.27</ele>
        <time>2017-08-01T15:40:04Z</time>
      </trkpt>
      <trkpt lat="43.2478944026" lon="2.9583578557">
        <ele>9.27</ele>
        <time>2017-08-01T15:40:05Z</time>
      </trkpt>
      <trkpt lat="43.2478887029" lon="2.9583341349">
        <ele>9.27</ele>
        <time>2017-08-01T15:40:06Z</time>
      </trkpt>
      <trkpt lat="43.2478773873" lon="2.9583089054">
        <ele>9.75</ele>
        <time>2017-08-01T15:40:07Z</time>
      </trkpt>
      <trkpt lat="43.2478668261" lon="2.9582816642">
        <ele>9.27</ele>
        <time>2017-08-01T15:40:08Z</time>
      </trkpt>
      <trkpt lat="43.2478356455" lon="2.9581977613">
        <ele>9.75</ele>
        <time>2017-08-01T15:40:11Z</time>
      </trkpt>
      <trkpt lat="43.2478247490" lon="2.9581622221">
        <ele>9.27</ele>
        <time>2017-08-01T15:40:12Z</time>
      </trkpt>
      <trkpt lat="43.2478070632" lon="2.9581304546">
        <ele>9.75</ele>
        <time>2017-08-01T15:40:13Z</time>
      </trkpt>
      <trkpt lat="43.2477882877" lon="2.9580985196">
        <ele>9.75</ele>
        <time>2017-08-01T15:40:14Z</time>
      </trkpt>
      <trkpt lat="43.2477712724" lon="2.9580667522">
        <ele>9.75</ele>
        <time>2017-08-01T15:40:15Z</time>
      </trkpt>
      <trkpt lat="43.2475300413" lon="2.9579292051">
        <ele>9.27</ele>
        <time>2017-08-01T15:40:24Z</time>
      </trkpt>
      <trkpt lat="43.2472509239" lon="2.9579257686">
        <ele>9.27</ele>
        <time>2017-08-01T15:40:32Z</time>
      </trkpt>
      <trkpt lat="43.2471125387" lon="2.9578925762">
        <ele>8.79</ele>
        <time>2017-08-01T15:40:36Z</time>
      </trkpt>
      <trkpt lat="43.2470659353" lon="2.9578372557">
        <ele>9.27</ele>
        <time>2017-08-01T15:40:38Z</time>
      </trkpt>
      <trkpt lat="43.2470474113" lon="2.9578023031">
        <ele>8.79</ele>
        <time>2017-08-01T15:40:39Z</time>
      </trkpt>
      <trkpt lat="43.2470288873" lon="2.9577671830">
        <ele>8.79</ele>
        <time>2017-08-01T15:40:40Z</time>
      </trkpt>
      <trkpt lat="43.2469178271" lon="2.9575270414">
        <ele>8.79</ele>
        <time>2017-08-01T15:40:47Z</time>
      </trkpt>
      <trkpt lat="43.2469065115" lon="2.9573951941">
        <ele>8.79</ele>
        <time>2017-08-01T15:40:54Z</time>
      </trkpt>
      <trkpt lat="43.2469084393" lon="2.9574576393">
        <ele>8.31</ele>
        <time>2017-08-01T15:41:03Z</time>
      </trkpt>
      <trkpt lat="43.2468920946" lon="2.9575046618">
        <ele>8.31</ele>
        <time>2017-08-01T15:41:12Z</time>
      </trkpt>
      <trkpt lat="43.2468920108" lon="2.9574882332">
        <ele>8.31</ele>
        <time>2017-08-01T15:41:23Z</time>
      </trkpt>
      <trkpt lat="43.2468929328" lon="2.9574640933">
        <ele>8.31</ele>
        <time>2017-08-01T15:41:24Z</time>
      </trkpt>
      <trkpt lat="43.2468899991" lon="2.9574388638">
        <ele>8.31</ele>
        <time>2017-08-01T15:41:25Z</time>
      </trkpt>
      <trkpt lat="43.2468858920" lon="2.9574066773">
        <ele>8.31</ele>
        <time>2017-08-01T15:41:26Z</time>
      </trkpt>
      <trkpt lat="43.2468778454" lon="2.9573753290">
        <ele>8.31</ele>
        <time>2017-08-01T15:41:27Z</time>
      </trkpt>
      <trkpt lat="43.2468683738" lon="2.9573412146">
        <ele>8.31</ele>
        <time>2017-08-01T15:41:28Z</time>
      </trkpt>
      <trkpt lat="43.2468573097" lon="2.9573006462">
        <ele>8.31</ele>
        <time>2017-08-01T15:41:29Z</time>
      </trkpt>
      <trkpt lat="43.2468443178" lon="2.9572606646">
        <ele>8.31</ele>
        <time>2017-08-01T15:41:30Z</time>
      </trkpt>
      <trkpt lat="43.2468993030" lon="2.9570057709">
        <ele>8.31</ele>
        <time>2017-08-01T15:41:36Z</time>
      </trkpt>
      <trkpt lat="43.2469343394" lon="2.9569780268">
        <ele>8.31</ele>
        <time>2017-08-01T15:41:37Z</time>
      </trkpt>
      <trkpt lat="43.2469729800" lon="2.9569615982">
        <ele>8.31</ele>
        <time>2017-08-01T15:41:38Z</time>
      </trkpt>
      <trkpt lat="43.2472738065" lon="2.9568296671">
        <ele>8.79</ele>
        <time>2017-08-01T15:41:46Z</time>
      </trkpt>
      <trkpt lat="43.2473185658" lon="2.9567509610">
        <ele>8.79</ele>
        <time>2017-08-01T15:41:48Z</time>
      </trkpt>
      <trkpt lat="43.2473249361" lon="2.9567041062">
        <ele>8.79</ele>
        <time>2017-08-01T15:41:49Z</time>
      </trkpt>
      <trkpt lat="43.2473227568" lon="2.9566619452">
        <ele>8.79</ele>
        <time>2017-08-01T15:41:50Z</time>
      </trkpt>
      <trkpt lat="43.2473136205" lon="2.9566205386">
        <ele>9.27</ele>
        <time>2017-08-01T15:41:51Z</time>
      </trkpt>
      <trkpt lat="43.2473016344" lon="2.9565808084">
        <ele>9.27</ele>
        <time>2017-08-01T15:41:52Z</time>
      </trkpt>
      <trkpt lat="43.2472887263" lon="2.9565467779">
        <ele>9.27</ele>
        <time>2017-08-01T15:41:53Z</time>
      </trkpt>
      <trkpt lat="43.2472608145" lon="2.9564685747">
        <ele>9.75</ele>
        <time>2017-08-01T15:41:56Z</time>
      </trkpt>
      <trkpt lat="43.2472577970" lon="2.9564447701">
        <ele>9.75</ele>
        <time>2017-08-01T15:41:57Z</time>
      </trkpt>
      <trkpt lat="43.2472566236" lon="2.9564202111">
        <ele>9.75</ele>
        <time>2017-08-01T15:41:58Z</time>
      </trkpt>
      <trkpt lat="43.2472572103" lon="2.9563983344">
        <ele>10.23</ele>
        <time>2017-08-01T15:41:59Z</time>
      </trkpt>
      <trkpt lat="43.2472619042" lon="2.9563777987">
        <ele>10.23</ele>
        <time>2017-08-01T15:42:00Z</time>
      </trkpt>
      <trkpt lat="43.2472743932" lon="2.9563585203">
        <ele>10.23</ele>
        <time>2017-08-01T15:42:01Z</time>
      </trkpt>
      <trkpt lat="43.2472871337" lon="2.9563424271">
        <ele>10.23</ele>
        <time>2017-08-01T15:42:02Z</time>
      </trkpt>
      <trkpt lat="43.2472997066" lon="2.9563247412">
        <ele>10.23</ele>
        <time>2017-08-01T15:42:03Z</time>
      </trkpt>
      <trkpt lat="43.2473126147" lon="2.9563026968">
        <ele>10.71</ele>
        <time>2017-08-01T15:42:04Z</time>
      </trkpt>
      <trkpt lat="43.2474968489" lon="2.9561939836">
        <ele>11.19</ele>
        <time>2017-08-01T15:42:12Z</time>
      </trkpt>
      <trkpt lat="43.2477022056" lon="2.9560115933">
        <ele>11.19</ele>
        <time>2017-08-01T15:42:21Z</time>
      </trkpt>
      <trkpt lat="43.2477041334" lon="2.9559856933">
        <ele>11.19</ele>
        <time>2017-08-01T15:42:22Z</time>
      </trkpt>
      <trkpt lat="43.2477021217" lon="2.9559611343">
        <ele>11.19</ele>
        <time>2017-08-01T15:42:23Z</time>
      </trkpt>
      <trkpt lat="43.2476934884" lon="2.9559390899">
        <ele>11.19</ele>
        <time>2017-08-01T15:42:24Z</time>
      </trkpt>
      <trkpt lat="43.2476821728" lon="2.9559157882">
        <ele>11.19</ele>
        <time>2017-08-01T15:42:25Z</time>
      </trkpt>
      <trkpt lat="43.2476737909" lon="2.9558897205">
        <ele>11.19</ele>
        <time>2017-08-01T15:42:26Z</time>
      </trkpt>
      <trkpt lat="43.2475756388" lon="2.9556651693">
        <ele>11.19</ele>
        <time>2017-08-01T15:42:37Z</time>
      </trkpt>
      <trkpt lat="43.2475601323" lon="2.9556568712">
        <ele>10.71</ele>
        <time>2017-08-01T15:42:47Z</time>
      </trkpt>
      <trkpt lat="43.2475634851" lon="2.9556454718">
        <ele>10.71</ele>
        <time>2017-08-01T15:42:59Z</time>
      </trkpt>
      <trkpt lat="43.2476020418" lon="2.9555904865">
        <ele>10.71</ele>
        <time>2017-08-01T15:43:07Z</time>
      </trkpt>
      <trkpt lat="43.2478801534" lon="2.9553991277">
        <ele>11.19</ele>
        <time>2017-08-01T15:43:18Z</time>
      </trkpt>
      <trkpt lat="43.2479897887" lon="2.9553209245">
        <ele>11.19</ele>
        <time>2017-08-01T15:43:26Z</time>
      </trkpt>
      <trkpt lat="43.2479864359" lon="2.9552998859">
        <ele>11.67</ele>
        <time>2017-08-01T15:43:48Z</time>
      </trkpt>
      <trkpt lat="43.2479874417" lon="2.9553024843">
        <ele>11.67</ele>
        <time>2017-08-01T15:44:09Z</time>
      </trkpt>
      <trkpt lat="43.2481246535" lon="2.9552179109">
        <ele>12.15</ele>
        <time>2017-08-01T15:44:16Z</time>
      </trkpt>
      <trkpt lat="43.2482388150" lon="2.9551481735">
        <ele>12.15</ele>
        <time>2017-08-01T15:44:19Z</time>
      </trkpt>
      <trkpt lat="43.2482809760" lon="2.9551280569">
        <ele>12.15</ele>
        <time>2017-08-01T15:44:20Z</time>
      </trkpt>
      <trkpt lat="43.2483215444" lon="2.9551079404">
        <ele>12.15</ele>
        <time>2017-08-01T15:44:21Z</time>
      </trkpt>
      <trkpt lat="43.2488019112" lon="2.9548139870">
        <ele>12.15</ele>
        <time>2017-08-01T15:44:33Z</time>
      </trkpt>
      <trkpt lat="43.2489927672" lon="2.9546787031">
        <ele>11.67</ele>
        <time>2017-08-01T15:44:38Z</time>
      </trkpt>
      <trkpt lat="43.2490444835" lon="2.9546474386">
        <ele>11.19</ele>
        <time>2017-08-01T15:44:39Z</time>
      </trkpt>
      <trkpt lat="43.2490990497" lon="2.9546136595">
        <ele>11.19</ele>
        <time>2017-08-01T15:44:40Z</time>
      </trkpt>
      <trkpt lat="43.2493717130" lon="2.9544541519">
        <ele>10.71</ele>
        <time>2017-08-01T15:44:45Z</time>
      </trkpt>
      <trkpt lat="43.2494169753" lon="2.9544180259">
        <ele>10.71</ele>
        <time>2017-08-01T15:44:46Z</time>
      </trkpt>
      <trkpt lat="43.2496520039" lon="2.9542549979">
        <ele>10.71</ele>
        <time>2017-08-01T15:44:51Z</time>
      </trkpt>
      <trkpt lat="43.2502670679" lon="2.9538820032">
        <ele>10.71</ele>
        <time>2017-08-01T15:45:04Z</time>
      </trkpt>
      <trkpt lat="43.2508327626" lon="2.9535331484">
        <ele>11.19</ele>
        <time>2017-08-01T15:45:16Z</time>
      </trkpt>
      <trkpt lat="43.2516002934" lon="2.9530369397">
        <ele>11.19</ele>
        <time>2017-08-01T15:45:32Z</time>
      </trkpt>
      <trkpt lat="43.2522243261" lon="2.9526362009">
        <ele>11.19</ele>
        <time>2017-08-01T15:45:45Z</time>
      </trkpt>
      <trkpt lat="43.2529028412" lon="2.9522129986">
        <ele>11.67</ele>
        <time>2017-08-01T15:45:59Z</time>
      </trkpt>
      <trkpt lat="43.2534746546" lon="2.9518592823">
        <ele>11.19</ele>
        <time>2017-08-01T15:46:11Z</time>
      </trkpt>
      <trkpt lat="43.2538769860" lon="2.9516243376">
        <ele>11.19</ele>
        <time>2017-08-01T15:46:21Z</time>
      </trkpt>
      <trkpt lat="43.2543309499" lon="2.9513463937">
        <ele>10.71</ele>
        <time>2017-08-01T15:46:31Z</time>
      </trkpt>
      <trkpt lat="43.2548395637" lon="2.9510329943">
        <ele>11.67</ele>
        <time>2017-08-01T15:46:43Z</time>
      </trkpt>
      <trkpt lat="43.2551268954" lon="2.9508505203">
        <ele>13.12</ele>
        <time>2017-08-01T15:46:55Z</time>
      </trkpt>
      <trkpt lat="43.2554541249" lon="2.9506392963">
        <ele>13.60</ele>
        <time>2017-08-01T15:47:05Z</time>
      </trkpt>
      <trkpt lat="43.2558102719" lon="2.9504039325">
        <ele>13.60</ele>
        <time>2017-08-01T15:47:15Z</time>
      </trkpt>
      <trkpt lat="43.2558880560" lon="2.9503649566">
        <ele>13.12</ele>
        <time>2017-08-01T15:47:17Z</time>
      </trkpt>
      <trkpt lat="43.2559302170" lon="2.9503436666">
        <ele>13.12</ele>
        <time>2017-08-01T15:47:18Z</time>
      </trkpt>
      <trkpt lat="43.2562944107" lon="2.9500989988">
        <ele>13.60</ele>
        <time>2017-08-01T15:47:27Z</time>
      </trkpt>
      <trkpt lat="43.2563389186" lon="2.9500729311">
        <ele>13.60</ele>
        <time>2017-08-01T15:47:28Z</time>
      </trkpt>
      <trkpt lat="43.2566834148" lon="2.9498231504">
        <ele>13.60</ele>
        <time>2017-08-01T15:47:38Z</time>
      </trkpt>
      <trkpt lat="43.2568514720" lon="2.9497700930">
        <ele>13.60</ele>
        <time>2017-08-01T15:47:47Z</time>
      </trkpt>
      <trkpt lat="43.2568536513" lon="2.9497646447">
        <ele>14.08</ele>
        <time>2017-08-01T15:48:04Z</time>
      </trkpt>
      <trkpt lat="43.2568533160" lon="2.9497646447">
        <ele>14.08</ele>
        <time>2017-08-01T15:48:25Z</time>
      </trkpt>
      <trkpt lat="43.2568496279" lon="2.9497661535">
        <ele>14.56</ele>
        <time>2017-08-01T15:48:45Z</time>
      </trkpt>
      <trkpt lat="43.2568514720" lon="2.9497657344">
        <ele>14.56</ele>
        <time>2017-08-01T15:49:07Z</time>
      </trkpt>
      <trkpt lat="43.2569037750" lon="2.9497892875">
        <ele>15.04</ele>
        <time>2017-08-01T15:49:22Z</time>
      </trkpt>
      <trkpt lat="43.2569272444" lon="2.9498191271">
        <ele>15.04</ele>
        <time>2017-08-01T15:49:23Z</time>
      </trkpt>
      <trkpt lat="43.2569435053" lon="2.9498532414">
        <ele>15.04</ele>
        <time>2017-08-01T15:49:24Z</time>
      </trkpt>
      <trkpt lat="43.2569573354" lon="2.9498897865">
        <ele>15.04</ele>
        <time>2017-08-01T15:49:25Z</time>
      </trkpt>
      <trkpt lat="43.2569709141" lon="2.9499269184">
        <ele>15.52</ele>
        <time>2017-08-01T15:49:26Z</time>
      </trkpt>
      <trkpt lat="43.2569846604" lon="2.9499685764">
        <ele>15.04</ele>
        <time>2017-08-01T15:49:27Z</time>
      </trkpt>
      <trkpt lat="43.2570259832" lon="2.9501113202">
        <ele>15.04</ele>
        <time>2017-08-01T15:49:30Z</time>
      </trkpt>
      <trkpt lat="43.2570268214" lon="2.9501646291">
        <ele>15.04</ele>
        <time>2017-08-01T15:49:31Z</time>
      </trkpt>
      <trkpt lat="43.2570204511" lon="2.9502186086">
        <ele>15.04</ele>
        <time>2017-08-01T15:49:32Z</time>
      </trkpt>
      <trkpt lat="43.2570096385" lon="2.9502725042">
        <ele>15.04</ele>
        <time>2017-08-01T15:49:33Z</time>
      </trkpt>
      <trkpt lat="43.2569939643" lon="2.9503302556">
        <ele>14.56</ele>
        <time>2017-08-01T15:49:34Z</time>
      </trkpt>
      <trkpt lat="43.2569368836" lon="2.9505230393">
        <ele>14.08</ele>
        <time>2017-08-01T15:49:37Z</time>
      </trkpt>
      <trkpt lat="43.2569069602" lon="2.9505885858">
        <ele>13.60</ele>
        <time>2017-08-01T15:49:38Z</time>
      </trkpt>
      <trkpt lat="43.2568677329" lon="2.9506499413">
        <ele>13.60</ele>
        <time>2017-08-01T15:49:39Z</time>
      </trkpt>
      <trkpt lat="43.2568216324" lon="2.9507035017">
        <ele>13.60</ele>
        <time>2017-08-01T15:49:40Z</time>
      </trkpt>
      <trkpt lat="43.2567706704" lon="2.9507514462">
        <ele>13.60</ele>
        <time>2017-08-01T15:49:41Z</time>
      </trkpt>
      <trkpt lat="43.2567143440" lon="2.9507938586">
        <ele>13.12</ele>
        <time>2017-08-01T15:49:42Z</time>
      </trkpt>
      <trkpt lat="43.2559724618" lon="2.9512159713">
        <ele>12.15</ele>
        <time>2017-08-01T15:49:54Z</time>
      </trkpt>
      <trkpt lat="43.2552134804" lon="2.9516623076">
        <ele>11.67</ele>
        <time>2017-08-01T15:50:07Z</time>
      </trkpt>
      <trkpt lat="43.2549984846" lon="2.9518216476">
        <ele>11.19</ele>
        <time>2017-08-01T15:50:11Z</time>
      </trkpt>
      <trkpt lat="43.2549485285" lon="2.9518756270">
        <ele>10.71</ele>
        <time>2017-08-01T15:50:12Z</time>
      </trkpt>
      <trkpt lat="43.2549003325" lon="2.9519337136">
        <ele>11.19</ele>
        <time>2017-08-01T15:50:13Z</time>
      </trkpt>
      <trkpt lat="43.2548572496" lon="2.9519984219">
        <ele>11.67</ele>
        <time>2017-08-01T15:50:14Z</time>
      </trkpt>
      <trkpt lat="43.2548199501" lon="2.9520684108">
        <ele>11.67</ele>
        <time>2017-08-01T15:50:15Z</time>
      </trkpt>
      <trkpt lat="43.2547898591" lon="2.9521452729">
        <ele>11.67</ele>
        <time>2017-08-01T15:50:16Z</time>
      </trkpt>
      <trkpt lat="43.2547671441" lon="2.9522272479">
        <ele>11.67</ele>
        <time>2017-08-01T15:50:17Z</time>
      </trkpt>
      <trkpt lat="43.2547492906" lon="2.9523129109">
        <ele>11.19</ele>
        <time>2017-08-01T15:50:18Z</time>
      </trkpt>
      <trkpt lat="43.2547357958" lon="2.9523998313">
        <ele>11.19</ele>
        <time>2017-08-01T15:50:19Z</time>
      </trkpt>
      <trkpt lat="43.2546354644" lon="2.9534944240">
        <ele>11.19</ele>
        <time>2017-08-01T15:50:31Z</time>
      </trkpt>
      <trkpt lat="43.2545140944" lon="2.9548375402">
        <ele>10.71</ele>
        <time>2017-08-01T15:50:45Z</time>
      </trkpt>
      <trkpt lat="43.2545128372" lon="2.9549316689">
        <ele>10.71</ele>
        <time>2017-08-01T15:50:46Z</time>
      </trkpt>
      <trkpt lat="43.2546469476" lon="2.9559579492">
        <ele>10.71</ele>
        <time>2017-08-01T15:50:57Z</time>
      </trkpt>
      <trkpt lat="43.2547926251" lon="2.9570268933">
        <ele>10.71</ele>
        <time>2017-08-01T15:51:09Z</time>
      </trkpt>
      <trkpt lat="43.2548001688" lon="2.9579691030">
        <ele>10.71</ele>
        <time>2017-08-01T15:51:19Z</time>
      </trkpt>
      <trkpt lat="43.2547847461" lon="2.9580594599">
        <ele>10.71</ele>
        <time>2017-08-01T15:51:20Z</time>
      </trkpt>
      <trkpt lat="43.2547637913" lon="2.9581479728">
        <ele>10.23</ele>
        <time>2017-08-01T15:51:21Z</time>
      </trkpt>
      <trkpt lat="43.2545165252" lon="2.9592122231">
        <ele>10.71</ele>
        <time>2017-08-01T15:51:33Z</time>
      </trkpt>
      <trkpt lat="43.2544813212" lon="2.9603780620">
        <ele>10.23</ele>
        <time>2017-08-01T15:51:46Z</time>
      </trkpt>
      <trkpt lat="43.2544190437" lon="2.9607028607">
        <ele>10.23</ele>
        <time>2017-08-01T15:51:50Z</time>
      </trkpt>
      <trkpt lat="43.2543921378" lon="2.9607824888">
        <ele>10.23</ele>
        <time>2017-08-01T15:51:51Z</time>
      </trkpt>
      <trkpt lat="43.2540007029" lon="2.9616590682">
        <ele>9.75</ele>
        <time>2017-08-01T15:52:04Z</time>
      </trkpt>
      <trkpt lat="43.2536059991" lon="2.9624707717">
        <ele>10.23</ele>
        <time>2017-08-01T15:52:20Z</time>
      </trkpt>
      <trkpt lat="43.2535246108" lon="2.9625809938">
        <ele>9.75</ele>
        <time>2017-08-01T15:52:27Z</time>
      </trkpt>
      <trkpt lat="43.2535253651" lon="2.9625783116">
        <ele>9.75</ele>
        <time>2017-08-01T15:52:48Z</time>
      </trkpt>
      <trkpt lat="43.2535236888" lon="2.9625777248">
        <ele>9.75</ele>
        <time>2017-08-01T15:53:12Z</time>
      </trkpt>
      <trkpt lat="43.2535262033" lon="2.9625743721">
        <ele>9.75</ele>
        <time>2017-08-01T15:53:20Z</time>
      </trkpt>
      <trkpt lat="43.2535230182" lon="2.9625588655">
        <ele>7.83</ele>
        <time>2017-08-01T15:53:27Z</time>
      </trkpt>
      <trkpt lat="43.2535093557" lon="2.9626407567">
        <ele>12.15</ele>
        <time>2017-08-01T16:00:49Z</time>
      </trkpt>
      <trkpt lat="43.2534955256" lon="2.9628162738">
        <ele>11.67</ele>
        <time>2017-08-01T16:00:56Z</time>
      </trkpt>
      <trkpt lat="43.2533616666" lon="2.9632886779">
        <ele>11.67</ele>
        <time>2017-08-01T16:01:07Z</time>
      </trkpt>
      <trkpt lat="43.2531571481" lon="2.9640422110">
        <ele>12.15</ele>
        <time>2017-08-01T16:01:19Z</time>
      </trkpt>
      <trkpt lat="43.2529054396" lon="2.9649382364">
        <ele>12.63</ele>
        <time>2017-08-01T16:01:31Z</time>
      </trkpt>
      <trkpt lat="43.2525542378" lon="2.9655330162">
        <ele>12.63</ele>
        <time>2017-08-01T16:01:40Z</time>
      </trkpt>
      <trkpt lat="43.2519448735" lon="2.9660594836">
        <ele>14.08</ele>
        <time>2017-08-01T16:01:54Z</time>
      </trkpt>
      <trkpt lat="43.2518209890" lon="2.9661908280">
        <ele>14.56</ele>
        <time>2017-08-01T16:01:57Z</time>
      </trkpt>
      <trkpt lat="43.2517846953" lon="2.9662489984">
        <ele>15.04</ele>
        <time>2017-08-01T16:01:58Z</time>
      </trkpt>
      <trkpt lat="43.2516661752" lon="2.9665378388">
        <ele>13.12</ele>
        <time>2017-08-01T16:02:02Z</time>
      </trkpt>
      <trkpt lat="43.2516457234" lon="2.9666302074">
        <ele>13.12</ele>
        <time>2017-08-01T16:02:03Z</time>
      </trkpt>
      <trkpt lat="43.2516299654" lon="2.9667268507">
        <ele>13.12</ele>
        <time>2017-08-01T16:02:04Z</time>
      </trkpt>
      <trkpt lat="43.2516225055" lon="2.9668294452">
        <ele>12.63</ele>
        <time>2017-08-01T16:02:05Z</time>
      </trkpt>
      <trkpt lat="43.2516209967" lon="2.9669360630">
        <ele>12.63</ele>
        <time>2017-08-01T16:02:06Z</time>
      </trkpt>
      <trkpt lat="43.2516236790" lon="2.9670451116">
        <ele>12.15</ele>
        <time>2017-08-01T16:02:07Z</time>
      </trkpt>
      <trkpt lat="43.2515836973" lon="2.9680997226">
        <ele>11.67</ele>
        <time>2017-08-01T16:02:17Z</time>
      </trkpt>
      <trkpt lat="43.2514089346" lon="2.9691933095">
        <ele>11.67</ele>
        <time>2017-08-01T16:02:29Z</time>
      </trkpt>
      <trkpt lat="43.2511543762" lon="2.9705190752">
        <ele>11.67</ele>
        <time>2017-08-01T16:02:44Z</time>
      </trkpt>
      <trkpt lat="43.2508967165" lon="2.9718018416">
        <ele>12.15</ele>
        <time>2017-08-01T16:02:59Z</time>
      </trkpt>
      <trkpt lat="43.2505317684" lon="2.9731163755">
        <ele>12.15</ele>
        <time>2017-08-01T16:03:14Z</time>
      </trkpt>
      <trkpt lat="43.2501059677" lon="2.9746010620">
        <ele>11.67</ele>
        <time>2017-08-01T16:03:31Z</time>
      </trkpt>
      <trkpt lat="43.2500708476" lon="2.9746830370">
        <ele>11.67</ele>
        <time>2017-08-01T16:03:32Z</time>
      </trkpt>
      <trkpt lat="43.2495769858" lon="2.9754542559">
        <ele>12.15</ele>
        <time>2017-08-01T16:03:43Z</time>
      </trkpt>
      <trkpt lat="43.2492842060" lon="2.9761797097">
        <ele>12.15</ele>
        <time>2017-08-01T16:03:52Z</time>
      </trkpt>
      <trkpt lat="43.2490389515" lon="2.9769246094">
        <ele>12.15</ele>
        <time>2017-08-01T16:04:01Z</time>
      </trkpt>
      <trkpt lat="43.2486595865" lon="2.9780784622">
        <ele>12.15</ele>
        <time>2017-08-01T16:04:15Z</time>
      </trkpt>
      <trkpt lat="43.2485857420" lon="2.9782250617">
        <ele>12.15</ele>
        <time>2017-08-01T16:04:17Z</time>
      </trkpt>
      <trkpt lat="43.2485408988" lon="2.9782867525">
        <ele>12.15</ele>
        <time>2017-08-01T16:04:18Z</time>
      </trkpt>
      <trkpt lat="43.2482680678" lon="2.9786351882">
        <ele>12.63</ele>
        <time>2017-08-01T16:04:24Z</time>
      </trkpt>
      <trkpt lat="43.2482321933" lon="2.9787074402">
        <ele>12.63</ele>
        <time>2017-08-01T16:04:25Z</time>
      </trkpt>
      <trkpt lat="43.2482017670" lon="2.9787817039">
        <ele>12.63</ele>
        <time>2017-08-01T16:04:26Z</time>
      </trkpt>
      <trkpt lat="43.2481765375" lon="2.9788604937">
        <ele>12.63</ele>
        <time>2017-08-01T16:04:27Z</time>
      </trkpt>
      <trkpt lat="43.2481531519" lon="2.9789413791">
        <ele>12.63</ele>
        <time>2017-08-01T16:04:28Z</time>
      </trkpt>
      <trkpt lat="43.2479564287" lon="2.9800487123">
        <ele>14.56</ele>
        <time>2017-08-01T16:04:41Z</time>
      </trkpt>
      <trkpt lat="43.2479179557" lon="2.9802107345">
        <ele>9.75</ele>
        <time>2017-08-01T16:04:43Z</time>
      </trkpt>
      <trkpt lat="43.2478949893" lon="2.9802910332">
        <ele>12.63</ele>
        <time>2017-08-01T16:04:44Z</time>
      </trkpt>
      <trkpt lat="43.2478492241" lon="2.9804482777">
        <ele>14.08</ele>
        <time>2017-08-01T16:04:46Z</time>
      </trkpt>
      <trkpt lat="43.2477716077" lon="2.9806759302">
        <ele>10.23</ele>
        <time>2017-08-01T16:04:49Z</time>
      </trkpt>
      <trkpt lat="43.2477426901" lon="2.9807530437">
        <ele>14.56</ele>
        <time>2017-08-01T16:04:50Z</time>
      </trkpt>
      <trkpt lat="43.2475954201" lon="2.9811442271">
        <ele>11.19</ele>
        <time>2017-08-01T16:04:55Z</time>
      </trkpt>
      <trkpt lat="43.2473127823" lon="2.9820442759">
        <ele>12.63</ele>
        <time>2017-08-01T16:05:06Z</time>
      </trkpt>
      <trkpt lat="43.2472769078" lon="2.9824075475">
        <ele>12.63</ele>
        <time>2017-08-01T16:05:10Z</time>
      </trkpt>
      <trkpt lat="43.2472770754" lon="2.9836939182">
        <ele>13.12</ele>
        <time>2017-08-01T16:05:24Z</time>
      </trkpt>
      <trkpt lat="43.2472122833" lon="2.9846824799">
        <ele>11.67</ele>
        <time>2017-08-01T16:05:34Z</time>
      </trkpt>
      <trkpt lat="43.2471867185" lon="2.9847735912">
        <ele>11.67</ele>
        <time>2017-08-01T16:05:35Z</time>
      </trkpt>
      <trkpt lat="43.2471554540" lon="2.9848621041">
        <ele>11.67</ele>
        <time>2017-08-01T16:05:36Z</time>
      </trkpt>
      <trkpt lat="43.2471194118" lon="2.9849460907">
        <ele>11.67</ele>
        <time>2017-08-01T16:05:37Z</time>
      </trkpt>
      <trkpt lat="43.2470788434" lon="2.9850263894">
        <ele>11.67</ele>
        <time>2017-08-01T16:05:38Z</time>
      </trkpt>
      <trkpt lat="43.2468131371" lon="2.9854597338">
        <ele>11.67</ele>
        <time>2017-08-01T16:05:44Z</time>
      </trkpt>
      <trkpt lat="43.2465660386" lon="2.9858217482">
        <ele>11.19</ele>
        <time>2017-08-01T16:05:49Z</time>
      </trkpt>
      <trkpt lat="43.2460218854" lon="2.9865332041">
        <ele>7.35</ele>
        <time>2017-08-01T16:06:00Z</time>
      </trkpt>
      <trkpt lat="43.2459767070" lon="2.9865925480">
        <ele>15.04</ele>
        <time>2017-08-01T16:06:01Z</time>
      </trkpt>
      <trkpt lat="43.2459313609" lon="2.9866508860">
        <ele>9.27</ele>
        <time>2017-08-01T16:06:02Z</time>
      </trkpt>
      <trkpt lat="43.2458864339" lon="2.9867101461">
        <ele>12.63</ele>
        <time>2017-08-01T16:06:03Z</time>
      </trkpt>
      <trkpt lat="43.2456328813" lon="2.9870703164">
        <ele>10.71</ele>
        <time>2017-08-01T16:06:09Z</time>
      </trkpt>
      <trkpt lat="43.2455903012" lon="2.9871304147">
        <ele>10.71</ele>
        <time>2017-08-01T16:06:10Z</time>
      </trkpt>
      <trkpt lat="43.2451040670" lon="2.9877413716">
        <ele>10.23</ele>
        <time>2017-08-01T16:06:21Z</time>
      </trkpt>
      <trkpt lat="43.2445452455" lon="2.9885907099">
        <ele>9.75</ele>
        <time>2017-08-01T16:06:35Z</time>
      </trkpt>
      <trkpt lat="43.2443772722" lon="2.9890246410">
        <ele>9.75</ele>
        <time>2017-08-01T16:06:41Z</time>
      </trkpt>
      <trkpt lat="43.2442075387" lon="2.9901029728">
        <ele>9.27</ele>
        <time>2017-08-01T16:06:54Z</time>
      </trkpt>
      <trkpt lat="43.2441300061" lon="2.9906908795">
        <ele>9.27</ele>
        <time>2017-08-01T16:07:01Z</time>
      </trkpt>
      <trkpt lat="43.2439042814" lon="2.9916838836">
        <ele>8.79</ele>
        <time>2017-08-01T16:07:13Z</time>
      </trkpt>
      <trkpt lat="43.2438368909" lon="2.9919879790">
        <ele>3.98</ele>
        <time>2017-08-01T16:07:17Z</time>
      </trkpt>
      <trkpt lat="43.2438243181" lon="2.9920589738">
        <ele>13.60</ele>
        <time>2017-08-01T16:07:18Z</time>
      </trkpt>
      <trkpt lat="43.2438125834" lon="2.9921308905">
        <ele>8.79</ele>
        <time>2017-08-01T16:07:19Z</time>
      </trkpt>
      <trkpt lat="43.2437880244" lon="2.9922810104">
        <ele>8.31</ele>
        <time>2017-08-01T16:07:21Z</time>
      </trkpt>
      <trkpt lat="43.2437731046" lon="2.9929933045">
        <ele>4.94</ele>
        <time>2017-08-01T16:07:30Z</time>
      </trkpt>
      <trkpt lat="43.2437745295" lon="2.9930718429">
        <ele>12.63</ele>
        <time>2017-08-01T16:07:31Z</time>
      </trkpt>
      <trkpt lat="43.2437703386" lon="2.9931505490">
        <ele>8.79</ele>
        <time>2017-08-01T16:07:32Z</time>
      </trkpt>
      <trkpt lat="43.2437463664" lon="2.9940134659">
        <ele>7.83</ele>
        <time>2017-08-01T16:07:43Z</time>
      </trkpt>
      <trkpt lat="43.2437504735" lon="2.9944061581">
        <ele>8.31</ele>
        <time>2017-08-01T16:07:48Z</time>
      </trkpt>
      <trkpt lat="43.2437609509" lon="2.9944841098">
        <ele>8.31</ele>
        <time>2017-08-01T16:07:49Z</time>
      </trkpt>
      <trkpt lat="43.2437750325" lon="2.9945588764">
        <ele>8.31</ele>
        <time>2017-08-01T16:07:50Z</time>
      </trkpt>
      <trkpt lat="43.2437930536" lon="2.9946318828">
        <ele>8.31</ele>
        <time>2017-08-01T16:07:51Z</time>
      </trkpt>
      <trkpt lat="43.2438129187" lon="2.9947019555">
        <ele>8.31</ele>
        <time>2017-08-01T16:07:52Z</time>
      </trkpt>
      <trkpt lat="43.2439150102" lon="2.9952267464">
        <ele>7.83</ele>
        <time>2017-08-01T16:08:00Z</time>
      </trkpt>
      <trkpt lat="43.2439211290" lon="2.9953635391">
        <ele>8.31</ele>
        <time>2017-08-01T16:08:02Z</time>
      </trkpt>
      <trkpt lat="43.2439694926" lon="2.9957752582">
        <ele>8.31</ele>
        <time>2017-08-01T16:08:08Z</time>
      </trkpt>
      <trkpt lat="43.2439692412" lon="2.9958444089">
        <ele>8.31</ele>
        <time>2017-08-01T16:08:09Z</time>
      </trkpt>
      <trkpt lat="43.2439697441" lon="2.9959148169">
        <ele>8.31</ele>
        <time>2017-08-01T16:08:10Z</time>
      </trkpt>
      <trkpt lat="43.2439698279" lon="2.9959830455">
        <ele>8.31</ele>
        <time>2017-08-01T16:08:11Z</time>
      </trkpt>
      <trkpt lat="43.2439680677" lon="2.9960505199">
        <ele>8.31</ele>
        <time>2017-08-01T16:08:12Z</time>
      </trkpt>
      <trkpt lat="43.2439635415" lon="2.9961906653">
        <ele>8.31</ele>
        <time>2017-08-01T16:08:14Z</time>
      </trkpt>
      <trkpt lat="43.2439589314" lon="2.9962635878">
        <ele>8.31</ele>
        <time>2017-08-01T16:08:15Z</time>
      </trkpt>
      <trkpt lat="43.2439679001" lon="2.9968101718">
        <ele>8.79</ele>
        <time>2017-08-01T16:08:23Z</time>
      </trkpt>
      <trkpt lat="43.2439686544" lon="2.9968716111">
        <ele>8.31</ele>
        <time>2017-08-01T16:08:24Z</time>
      </trkpt>
      <trkpt lat="43.2439681515" lon="2.9969313741">
        <ele>8.79</ele>
        <time>2017-08-01T16:08:25Z</time>
      </trkpt>
      <trkpt lat="43.2439621165" lon="2.9969897959">
        <ele>8.79</ele>
        <time>2017-08-01T16:08:26Z</time>
      </trkpt>
      <trkpt lat="43.2439521421" lon="2.9970488045">
        <ele>8.79</ele>
        <time>2017-08-01T16:08:27Z</time>
      </trkpt>
      <trkpt lat="43.2439425867" lon="2.9971083999">
        <ele>8.79</ele>
        <time>2017-08-01T16:08:28Z</time>
      </trkpt>
      <trkpt lat="43.2439366356" lon="2.9971685819">
        <ele>8.79</ele>
        <time>2017-08-01T16:08:29Z</time>
      </trkpt>
      <trkpt lat="43.2439360488" lon="2.9972275905">
        <ele>8.79</ele>
        <time>2017-08-01T16:08:30Z</time>
      </trkpt>
      <trkpt lat="43.2439392339" lon="2.9972815700">
        <ele>8.79</ele>
        <time>2017-08-01T16:08:31Z</time>
      </trkpt>
      <trkpt lat="43.2439484540" lon="2.9973238148">
        <ele>8.31</ele>
        <time>2017-08-01T16:08:32Z</time>
      </trkpt>
      <trkpt lat="43.2439680677" lon="2.9973496310">
        <ele>8.79</ele>
        <time>2017-08-01T16:08:33Z</time>
      </trkpt>
      <trkpt lat="43.2439992484" lon="2.9973617010">
        <ele>8.31</ele>
        <time>2017-08-01T16:08:34Z</time>
      </trkpt>
      <trkpt lat="43.2440346200" lon="2.9973660596">
        <ele>8.79</ele>
        <time>2017-08-01T16:08:35Z</time>
      </trkpt>
      <trkpt lat="43.2440697402" lon="2.9973674007">
        <ele>8.79</ele>
        <time>2017-08-01T16:08:36Z</time>
      </trkpt>
      <trkpt lat="43.2441075426" lon="2.9973705858">
        <ele>8.79</ele>
        <time>2017-08-01T16:08:37Z</time>
      </trkpt>
      <trkpt lat="43.2443486899" lon="2.9975779541">
        <ele>8.31</ele>
        <time>2017-08-01T16:08:45Z</time>
      </trkpt>
      <trkpt lat="43.2443531323" lon="2.9976908583">
        <ele>8.31</ele>
        <time>2017-08-01T16:08:47Z</time>
      </trkpt>
      <trkpt lat="43.2443525456" lon="2.9977510404">
        <ele>8.31</ele>
        <time>2017-08-01T16:08:48Z</time>
      </trkpt>
      <trkpt lat="43.2443496119" lon="2.9978126474">
        <ele>8.79</ele>
        <time>2017-08-01T16:08:49Z</time>
      </trkpt>
      <trkpt lat="43.2443166710" lon="2.9984158929">
        <ele>7.83</ele>
        <time>2017-08-01T16:08:58Z</time>
      </trkpt>
      <trkpt lat="43.2443111390" lon="2.9984843731">
        <ele>7.83</ele>
        <time>2017-08-01T16:08:59Z</time>
      </trkpt>
      <trkpt lat="43.2442525495" lon="2.9991498962">
        <ele>7.83</ele>
        <time>2017-08-01T16:09:09Z</time>
      </trkpt>
      <trkpt lat="43.2441676408" lon="2.9994239006">
        <ele>7.83</ele>
        <time>2017-08-01T16:09:17Z</time>
      </trkpt>
      <trkpt lat="43.2441082131" lon="2.9994533211">
        <ele>7.83</ele>
        <time>2017-08-01T16:09:19Z</time>
      </trkpt>
      <trkpt lat="43.2440663874" lon="2.9994501360">
        <ele>7.83</ele>
        <time>2017-08-01T16:09:20Z</time>
      </trkpt>
      <trkpt lat="43.2440176047" lon="2.9994347971">
        <ele>7.83</ele>
        <time>2017-08-01T16:09:21Z</time>
      </trkpt>
      <trkpt lat="43.2436054666" lon="2.9993974976">
        <ele>8.31</ele>
        <time>2017-08-01T16:09:29Z</time>
      </trkpt>
      <trkpt lat="43.2433176320" lon="2.9994047061">
        <ele>7.83</ele>
        <time>2017-08-01T16:09:35Z</time>
      </trkpt>
      <trkpt lat="43.2432737108" lon="2.9994027782">
        <ele>8.31</ele>
        <time>2017-08-01T16:09:36Z</time>
      </trkpt>
      <trkpt lat="43.2427139673" lon="2.9993722681">
        <ele>8.79</ele>
        <time>2017-08-01T16:09:48Z</time>
      </trkpt>
      <trkpt lat="43.2421430759" lon="2.9993348848">
        <ele>9.27</ele>
        <time>2017-08-01T16:10:00Z</time>
      </trkpt>
      <trkpt lat="43.2419167645" lon="2.9993220605">
        <ele>10.23</ele>
        <time>2017-08-01T16:10:05Z</time>
      </trkpt>
      <trkpt lat="43.2418725919" lon="2.9993178695">
        <ele>10.23</ele>
        <time>2017-08-01T16:10:06Z</time>
      </trkpt>
      <trkpt lat="43.2413956616" lon="2.9992864374">
        <ele>11.19</ele>
        <time>2017-08-01T16:10:17Z</time>
      </trkpt>
      <trkpt lat="43.2409122773" lon="2.9992313683">
        <ele>13.60</ele>
        <time>2017-08-01T16:10:29Z</time>
      </trkpt>
      <trkpt lat="43.2403902523" lon="2.9991983436">
        <ele>13.12</ele>
        <time>2017-08-01T16:10:40Z</time>
      </trkpt>
      <trkpt lat="43.2401526254" lon="2.9991949070">
        <ele>12.63</ele>
        <time>2017-08-01T16:10:44Z</time>
      </trkpt>
      <trkpt lat="43.2400857378" lon="2.9992083181">
        <ele>12.15</ele>
        <time>2017-08-01T16:10:45Z</time>
      </trkpt>
      <trkpt lat="43.2400195207" lon="2.9992290214">
        <ele>12.15</ele>
        <time>2017-08-01T16:10:46Z</time>
      </trkpt>
      <trkpt lat="43.2399517950" lon="2.9992594477">
        <ele>11.67</ele>
        <time>2017-08-01T16:10:47Z</time>
      </trkpt>
      <trkpt lat="43.2398821414" lon="2.9992986750">
        <ele>11.67</ele>
        <time>2017-08-01T16:10:48Z</time>
      </trkpt>
      <trkpt lat="43.2398130745" lon="2.9993447755">
        <ele>12.15</ele>
        <time>2017-08-01T16:10:49Z</time>
      </trkpt>
      <trkpt lat="43.2397441752" lon="2.9993945640">
        <ele>10.71</ele>
        <time>2017-08-01T16:10:50Z</time>
      </trkpt>
      <trkpt lat="43.2390250918" lon="2.9998107255">
        <ele>9.75</ele>
        <time>2017-08-01T16:11:00Z</time>
      </trkpt>
      <trkpt lat="43.2383011468" lon="3.0001344346">
        <ele>9.75</ele>
        <time>2017-08-01T16:11:10Z</time>
      </trkpt>
      <trkpt lat="43.2370395865" lon="3.0007022247">
        <ele>9.27</ele>
        <time>2017-08-01T16:11:27Z</time>
      </trkpt>
      <trkpt lat="43.2360580657" lon="3.0011531711">
        <ele>9.27</ele>
        <time>2017-08-01T16:11:41Z</time>
      </trkpt>
      <trkpt lat="43.2352440991" lon="3.0015022773">
        <ele>9.27</ele>
        <time>2017-08-01T16:11:53Z</time>
      </trkpt>
      <trkpt lat="43.2342335768" lon="3.0019448418">
        <ele>9.27</ele>
        <time>2017-08-01T16:12:09Z</time>
      </trkpt>
      <trkpt lat="43.2335920259" lon="3.0022380408">
        <ele>8.79</ele>
        <time>2017-08-01T16:12:20Z</time>
      </trkpt>
      <trkpt lat="43.2326936536" lon="3.0026671942">
        <ele>9.27</ele>
        <time>2017-08-01T16:12:35Z</time>
      </trkpt>
      <trkpt lat="43.2318490092" lon="3.0030701123">
        <ele>10.71</ele>
        <time>2017-08-01T16:12:49Z</time>
      </trkpt>
      <trkpt lat="43.2309947256" lon="3.0034422688">
        <ele>10.23</ele>
        <time>2017-08-01T16:13:03Z</time>
      </trkpt>
      <trkpt lat="43.2300621551" lon="3.0038593523">
        <ele>10.23</ele>
        <time>2017-08-01T16:13:18Z</time>
      </trkpt>
      <trkpt lat="43.2292309217" lon="3.0042306706">
        <ele>11.19</ele>
        <time>2017-08-01T16:13:31Z</time>
      </trkpt>
      <trkpt lat="43.2282544300" lon="3.0046583153">
        <ele>10.71</ele>
        <time>2017-08-01T16:13:46Z</time>
      </trkpt>
      <trkpt lat="43.2273444906" lon="3.0051129498">
        <ele>11.19</ele>
        <time>2017-08-01T16:14:00Z</time>
      </trkpt>
      <trkpt lat="43.2266260777" lon="3.0055737030">
        <ele>11.67</ele>
        <time>2017-08-01T16:14:12Z</time>
      </trkpt>
      <trkpt lat="43.2263904624" lon="3.0057155248">
        <ele>11.67</ele>
        <time>2017-08-01T16:14:16Z</time>
      </trkpt>
      <trkpt lat="43.2257158868" lon="3.0061436724">
        <ele>12.15</ele>
        <time>2017-08-01T16:14:27Z</time>
      </trkpt>
      <trkpt lat="43.2251630165" lon="3.0065002386">
        <ele>11.67</ele>
        <time>2017-08-01T16:14:36Z</time>
      </trkpt>
      <trkpt lat="43.2247205358" lon="3.0068107042">
        <ele>11.67</ele>
        <time>2017-08-01T16:14:43Z</time>
      </trkpt>
      <trkpt lat="43.2241901290" lon="3.0071774125">
        <ele>11.19</ele>
        <time>2017-08-01T16:14:53Z</time>
      </trkpt>
      <trkpt lat="43.2235933375" lon="3.0077228229">
        <ele>11.19</ele>
        <time>2017-08-01T16:15:05Z</time>
      </trkpt>
      <trkpt lat="43.2229846437" lon="3.0082772858">
        <ele>10.71</ele>
        <time>2017-08-01T16:15:16Z</time>
      </trkpt>
      <trkpt lat="43.2221306954" lon="3.0087767635">
        <ele>10.23</ele>
        <time>2017-08-01T16:15:29Z</time>
      </trkpt>
      <trkpt lat="43.2211769186" lon="3.0092799291">
        <ele>10.23</ele>
        <time>2017-08-01T16:15:43Z</time>
      </trkpt>
      <trkpt lat="43.2204848249" lon="3.0099436082">
        <ele>10.23</ele>
        <time>2017-08-01T16:15:55Z</time>
      </trkpt>
      <trkpt lat="43.2199381571" lon="3.0105823930">
        <ele>9.75</ele>
        <time>2017-08-01T16:16:05Z</time>
      </trkpt>
      <trkpt lat="43.2196867839" lon="3.0107724108">
        <ele>9.75</ele>
        <time>2017-08-01T16:16:09Z</time>
      </trkpt>
      <trkpt lat="43.2196202315" lon="3.0108134821">
        <ele>9.75</ele>
        <time>2017-08-01T16:16:10Z</time>
      </trkpt>
      <trkpt lat="43.2189916726" lon="3.0110894982">
        <ele>9.27</ele>
        <time>2017-08-01T16:16:19Z</time>
      </trkpt>
      <trkpt lat="43.2182099763" lon="3.0112513527">
        <ele>9.27</ele>
        <time>2017-08-01T16:16:30Z</time>
      </trkpt>
      <trkpt lat="43.2181378920" lon="3.0112590641">
        <ele>8.79</ele>
        <time>2017-08-01T16:16:31Z</time>
      </trkpt>
      <trkpt lat="43.2173526753" lon="3.0113146361">
        <ele>9.27</ele>
        <time>2017-08-01T16:16:42Z</time>
      </trkpt>
      <trkpt lat="43.2166339271" lon="3.0112237763">
        <ele>8.79</ele>
        <time>2017-08-01T16:16:52Z</time>
      </trkpt>
      <trkpt lat="43.2157636341" lon="3.0111051723">
        <ele>8.31</ele>
        <time>2017-08-01T16:17:04Z</time>
      </trkpt>
      <trkpt lat="43.2150427066" lon="3.0112523586">
        <ele>8.31</ele>
        <time>2017-08-01T16:17:14Z</time>
      </trkpt>
      <trkpt lat="43.2141600922" lon="3.0116081703">
        <ele>7.83</ele>
        <time>2017-08-01T16:17:27Z</time>
      </trkpt>
      <trkpt lat="43.2132701855" lon="3.0120508187">
        <ele>7.83</ele>
        <time>2017-08-01T16:17:41Z</time>
      </trkpt>
      <trkpt lat="43.2124429755" lon="3.0124801397">
        <ele>7.35</ele>
        <time>2017-08-01T16:17:54Z</time>
      </trkpt>
      <trkpt lat="43.2116456050" lon="3.0127296690">
        <ele>7.35</ele>
        <time>2017-08-01T16:18:06Z</time>
      </trkpt>
      <trkpt lat="43.2106809318" lon="3.0127956346">
        <ele>7.35</ele>
        <time>2017-08-01T16:18:20Z</time>
      </trkpt>
      <trkpt lat="43.2097954676" lon="3.0126718339">
        <ele>7.83</ele>
        <time>2017-08-01T16:18:33Z</time>
      </trkpt>
      <trkpt lat="43.2090821676" lon="3.0125662219">
        <ele>8.31</ele>
        <time>2017-08-01T16:18:43Z</time>
      </trkpt>
      <trkpt lat="43.2090131845" lon="3.0125431716">
        <ele>7.83</ele>
        <time>2017-08-01T16:18:44Z</time>
      </trkpt>
      <trkpt lat="43.2088180538" lon="3.0124457739">
        <ele>7.83</ele>
        <time>2017-08-01T16:18:47Z</time>
      </trkpt>
      <trkpt lat="43.2083541155" lon="3.0120271817">
        <ele>7.83</ele>
        <time>2017-08-01T16:18:55Z</time>
      </trkpt>
      <trkpt lat="43.2082884014" lon="3.0119941570">
        <ele>7.83</ele>
        <time>2017-08-01T16:18:56Z</time>
      </trkpt>
      <trkpt lat="43.2082199212" lon="3.0119683407">
        <ele>7.83</ele>
        <time>2017-08-01T16:18:57Z</time>
      </trkpt>
      <trkpt lat="43.2074342016" lon="3.0118216574">
        <ele>7.83</ele>
        <time>2017-08-01T16:19:08Z</time>
      </trkpt>
      <trkpt lat="43.2064993680" lon="3.0116095953">
        <ele>7.83</ele>
        <time>2017-08-01T16:19:22Z</time>
      </trkpt>
      <trkpt lat="43.2056988124" lon="3.0114928354">
        <ele>8.31</ele>
        <time>2017-08-01T16:19:35Z</time>
      </trkpt>
      <trkpt lat="43.2049521524" lon="3.0115060788">
        <ele>7.83</ele>
        <time>2017-08-01T16:19:47Z</time>
      </trkpt>
      <trkpt lat="43.2042719610" lon="3.0115592200">
        <ele>8.31</ele>
        <time>2017-08-01T16:19:58Z</time>
      </trkpt>
      <trkpt lat="43.2035322580" lon="3.0117040593">
        <ele>8.31</ele>
        <time>2017-08-01T16:20:10Z</time>
      </trkpt>
      <trkpt lat="43.2027405035" lon="3.0118829291">
        <ele>8.31</ele>
        <time>2017-08-01T16:20:23Z</time>
      </trkpt>
      <trkpt lat="43.2019819412" lon="3.0120816641">
        <ele>7.83</ele>
        <time>2017-08-01T16:20:36Z</time>
      </trkpt>
      <trkpt lat="43.2016458269" lon="3.0122100748">
        <ele>7.83</ele>
        <time>2017-08-01T16:20:42Z</time>
      </trkpt>
      <trkpt lat="43.2012641989" lon="3.0123095680">
        <ele>8.31</ele>
        <time>2017-08-01T16:20:49Z</time>
      </trkpt>
      <trkpt lat="43.2011160068" lon="3.0122695025">
        <ele>8.31</ele>
        <time>2017-08-01T16:20:56Z</time>
      </trkpt>
      <trkpt lat="43.2010909449" lon="3.0122586899">
        <ele>8.31</ele>
        <time>2017-08-01T16:21:04Z</time>
      </trkpt>
      <trkpt lat="43.2010896876" lon="3.0122517329">
        <ele>8.31</ele>
        <time>2017-08-01T16:21:17Z</time>
      </trkpt>
      <trkpt lat="43.2010839041" lon="3.0122585222">
        <ele>8.31</ele>
        <time>2017-08-01T16:21:38Z</time>
      </trkpt>
      <trkpt lat="43.2010939624" lon="3.0122501403">
        <ele>8.79</ele>
        <time>2017-08-01T16:21:57Z</time>
      </trkpt>
      <trkpt lat="43.2010943815" lon="3.0122491345">
        <ele>9.75</ele>
        <time>2017-08-01T16:22:15Z</time>
      </trkpt>
      <trkpt lat="43.2010800485" lon="3.0122491345">
        <ele>8.79</ele>
        <time>2017-08-01T16:22:24Z</time>
      </trkpt>
      <trkpt lat="43.2010720856" lon="3.0122499727">
        <ele>8.79</ele>
        <time>2017-08-01T16:22:35Z</time>
      </trkpt>
      <trkpt lat="43.2010735944" lon="3.0122557562">
        <ele>8.79</ele>
        <time>2017-08-01T16:22:48Z</time>
      </trkpt>
      <trkpt lat="43.2010730915" lon="3.0122529063">
        <ele>8.79</ele>
        <time>2017-08-01T16:23:07Z</time>
      </trkpt>
      <trkpt lat="43.2008695789" lon="3.0122082308">
        <ele>9.27</ele>
        <time>2017-08-01T16:23:16Z</time>
      </trkpt>
      <trkpt lat="43.2006876078" lon="3.0120716896">
        <ele>9.75</ele>
        <time>2017-08-01T16:23:26Z</time>
      </trkpt>
      <trkpt lat="43.2005737815" lon="3.0118808337">
        <ele>9.75</ele>
        <time>2017-08-01T16:23:32Z</time>
      </trkpt>
      <trkpt lat="43.2005332969" lon="3.0118509941">
        <ele>10.23</ele>
        <time>2017-08-01T16:23:33Z</time>
      </trkpt>
      <trkpt lat="43.2004864421" lon="3.0118327215">
        <ele>10.23</ele>
        <time>2017-08-01T16:23:34Z</time>
      </trkpt>
      <trkpt lat="43.2003340591" lon="3.0117953382">
        <ele>10.71</ele>
        <time>2017-08-01T16:23:37Z</time>
      </trkpt>
      <trkpt lat="43.2002824266" lon="3.0118052289">
        <ele>10.71</ele>
        <time>2017-08-01T16:23:38Z</time>
      </trkpt>
      <trkpt lat="43.2002319675" lon="3.0118324701">
        <ele>10.71</ele>
        <time>2017-08-01T16:23:39Z</time>
      </trkpt>
      <trkpt lat="43.2001817599" lon="3.0118711106">
        <ele>11.19</ele>
        <time>2017-08-01T16:23:40Z</time>
      </trkpt>
      <trkpt lat="43.2001364138" lon="3.0119194742">
        <ele>10.71</ele>
        <time>2017-08-01T16:23:41Z</time>
      </trkpt>
      <trkpt lat="43.2000993658" lon="3.0119781476">
        <ele>10.71</ele>
        <time>2017-08-01T16:23:42Z</time>
      </trkpt>
      <trkpt lat="43.2000686042" lon="3.0120455381">
        <ele>10.71</ele>
        <time>2017-08-01T16:23:43Z</time>
      </trkpt>
      <trkpt lat="43.2000459731" lon="3.0121197179">
        <ele>10.71</ele>
        <time>2017-08-01T16:23:44Z</time>
      </trkpt>
      <trkpt lat="43.2000297960" lon="3.0121990945">
        <ele>10.71</ele>
        <time>2017-08-01T16:23:45Z</time>
      </trkpt>
      <trkpt lat="43.2000154629" lon="3.0122768786">
        <ele>10.71</ele>
        <time>2017-08-01T16:23:46Z</time>
      </trkpt>
      <trkpt lat="43.1999919936" lon="3.0123518966">
        <ele>10.71</ele>
        <time>2017-08-01T16:23:47Z</time>
      </trkpt>
      <trkpt lat="43.1999579631" lon="3.0124225561">
        <ele>10.23</ele>
        <time>2017-08-01T16:23:48Z</time>
      </trkpt>
      <trkpt lat="43.1999168079" lon="3.0124873482">
        <ele>10.23</ele>
        <time>2017-08-01T16:23:49Z</time>
      </trkpt>
      <trkpt lat="43.1998697016" lon="3.0125458539">
        <ele>10.23</ele>
        <time>2017-08-01T16:23:50Z</time>
      </trkpt>
      <trkpt lat="43.1998199970" lon="3.0126027670">
        <ele>10.23</ele>
        <time>2017-08-01T16:23:51Z</time>
      </trkpt>
      <trkpt lat="43.1993080303" lon="3.0131165776">
        <ele>9.27</ele>
        <time>2017-08-01T16:24:01Z</time>
      </trkpt>
      <trkpt lat="43.1992470939" lon="3.0131392926">
        <ele>9.27</ele>
        <time>2017-08-01T16:24:02Z</time>
      </trkpt>
      <trkpt lat="43.1991846487" lon="3.0131558888">
        <ele>9.27</ele>
        <time>2017-08-01T16:24:03Z</time>
      </trkpt>
      <trkpt lat="43.1984237395" lon="3.0133250356">
        <ele>9.75</ele>
        <time>2017-08-01T16:24:16Z</time>
      </trkpt>
      <trkpt lat="43.1982044689" lon="3.0133144744">
        <ele>9.75</ele>
        <time>2017-08-01T16:24:20Z</time>
      </trkpt>
      <trkpt lat="43.1976337451" lon="3.0130741652">
        <ele>10.23</ele>
        <time>2017-08-01T16:24:31Z</time>
      </trkpt>
      <trkpt lat="43.1971420627" lon="3.0128201935">
        <ele>11.19</ele>
        <time>2017-08-01T16:24:42Z</time>
      </trkpt>
      <trkpt lat="43.1971048471" lon="3.0127870012">
        <ele>11.67</ele>
        <time>2017-08-01T16:24:43Z</time>
      </trkpt>
      <trkpt lat="43.1966078002" lon="3.0122211389">
        <ele>11.67</ele>
        <time>2017-08-01T16:24:56Z</time>
      </trkpt>
      <trkpt lat="43.1960638147" lon="3.0116004590">
        <ele>11.67</ele>
        <time>2017-08-01T16:25:10Z</time>
      </trkpt>
      <trkpt lat="43.1955402810" lon="3.0109911785">
        <ele>12.63</ele>
        <time>2017-08-01T16:25:24Z</time>
      </trkpt>
      <trkpt lat="43.1950781867" lon="3.0104324408">
        <ele>13.60</ele>
        <time>2017-08-01T16:25:37Z</time>
      </trkpt>
      <trkpt lat="43.1949569844" lon="3.0102749448">
        <ele>13.60</ele>
        <time>2017-08-01T16:25:41Z</time>
      </trkpt>
      <trkpt lat="43.1949284859" lon="3.0102314427">
        <ele>13.60</ele>
        <time>2017-08-01T16:25:42Z</time>
      </trkpt>
      <trkpt lat="43.1948987301" lon="3.0101845879">
        <ele>13.60</ele>
        <time>2017-08-01T16:25:43Z</time>
      </trkpt>
      <trkpt lat="43.1948056910" lon="3.0100481305">
        <ele>13.60</ele>
        <time>2017-08-01T16:25:46Z</time>
      </trkpt>
      <trkpt lat="43.1944835745" lon="3.0094915722">
        <ele>13.60</ele>
        <time>2017-08-01T16:25:57Z</time>
      </trkpt>
      <trkpt lat="43.1944544893" lon="3.0094435439">
        <ele>13.60</ele>
        <time>2017-08-01T16:25:58Z</time>
      </trkpt>
      <trkpt lat="43.1942389905" lon="3.0091100279">
        <ele>13.60</ele>
        <time>2017-08-01T16:26:05Z</time>
      </trkpt>
      <trkpt lat="43.1939101685" lon="3.0085182656">
        <ele>14.08</ele>
        <time>2017-08-01T16:26:17Z</time>
      </trkpt>
      <trkpt lat="43.1938833464" lon="3.0084697343">
        <ele>14.08</ele>
        <time>2017-08-01T16:26:18Z</time>
      </trkpt>
      <trkpt lat="43.1938586198" lon="3.0084196106">
        <ele>14.08</ele>
        <time>2017-08-01T16:26:19Z</time>
      </trkpt>
      <trkpt lat="43.1938037183" lon="3.0083156750">
        <ele>14.08</ele>
        <time>2017-08-01T16:26:21Z</time>
      </trkpt>
      <trkpt lat="43.1934797578" lon="3.0075218249">
        <ele>14.08</ele>
        <time>2017-08-01T16:26:34Z</time>
      </trkpt>
      <trkpt lat="43.1932350062" lon="3.0066906754">
        <ele>14.08</ele>
        <time>2017-08-01T16:26:47Z</time>
      </trkpt>
      <trkpt lat="43.1931304000" lon="3.0062326044">
        <ele>14.56</ele>
        <time>2017-08-01T16:26:54Z</time>
      </trkpt>
      <trkpt lat="43.1931211799" lon="3.0061630346">
        <ele>14.56</ele>
        <time>2017-08-01T16:26:55Z</time>
      </trkpt>
      <trkpt lat="43.1931070983" lon="3.0060948059">
        <ele>14.56</ele>
        <time>2017-08-01T16:26:56Z</time>
      </trkpt>
      <trkpt lat="43.1928503606" lon="3.0052830186">
        <ele>13.60</ele>
        <time>2017-08-01T16:27:08Z</time>
      </trkpt>
      <trkpt lat="43.1927419826" lon="3.0049924180">
        <ele>13.12</ele>
        <time>2017-08-01T16:27:12Z</time>
      </trkpt>
      <trkpt lat="43.1922859233" lon="3.0042837281">
        <ele>11.67</ele>
        <time>2017-08-01T16:27:23Z</time>
      </trkpt>
      <trkpt lat="43.1918356474" lon="3.0037688278">
        <ele>11.19</ele>
        <time>2017-08-01T16:27:33Z</time>
      </trkpt>
      <trkpt lat="43.1913541909" lon="3.0032304581">
        <ele>11.19</ele>
        <time>2017-08-01T16:27:44Z</time>
      </trkpt>
      <trkpt lat="43.1913187355" lon="3.0031837709">
        <ele>11.19</ele>
        <time>2017-08-01T16:27:45Z</time>
      </trkpt>
      <trkpt lat="43.1912592240" lon="3.0030870438">
        <ele>10.71</ele>
        <time>2017-08-01T16:27:47Z</time>
      </trkpt>
      <trkpt lat="43.1912235171" lon="3.0030463077">
        <ele>10.71</ele>
        <time>2017-08-01T16:27:48Z</time>
      </trkpt>
      <trkpt lat="43.1911853794" lon="3.0030063260">
        <ele>11.19</ele>
        <time>2017-08-01T16:27:49Z</time>
      </trkpt>
      <trkpt lat="43.1911493372" lon="3.0029629916">
        <ele>11.19</ele>
        <time>2017-08-01T16:27:50Z</time>
      </trkpt>
      <trkpt lat="43.1911139656" lon="3.0029139575">
        <ele>11.19</ele>
        <time>2017-08-01T16:27:51Z</time>
      </trkpt>
      <trkpt lat="43.1910377741" lon="3.0028225109">
        <ele>11.19</ele>
        <time>2017-08-01T16:27:53Z</time>
      </trkpt>
      <trkpt lat="43.1909579784" lon="3.0027360097">
        <ele>11.19</ele>
        <time>2017-08-01T16:27:55Z</time>
      </trkpt>
      <trkpt lat="43.1907278951" lon="3.0024511926">
        <ele>10.71</ele>
        <time>2017-08-01T16:28:01Z</time>
      </trkpt>
      <trkpt lat="43.1904880889" lon="3.0021611787">
        <ele>10.71</ele>
        <time>2017-08-01T16:28:07Z</time>
      </trkpt>
      <trkpt lat="43.1904447544" lon="3.0021228734">
        <ele>10.71</ele>
        <time>2017-08-01T16:28:08Z</time>
      </trkpt>
      <trkpt lat="43.1903533079" lon="3.0020548124">
        <ele>10.71</ele>
        <time>2017-08-01T16:28:10Z</time>
      </trkpt>
      <trkpt lat="43.1903037708" lon="3.0020318460">
        <ele>11.19</ele>
        <time>2017-08-01T16:28:11Z</time>
      </trkpt>
      <trkpt lat="43.1902069598" lon="3.0019922834">
        <ele>11.19</ele>
        <time>2017-08-01T16:28:13Z</time>
      </trkpt>
      <trkpt lat="43.1901610270" lon="3.0019816384">
        <ele>11.19</ele>
        <time>2017-08-01T16:28:14Z</time>
      </trkpt>
      <trkpt lat="43.1901139207" lon="3.0019700713">
        <ele>11.19</ele>
        <time>2017-08-01T16:28:15Z</time>
      </trkpt>
      <trkpt lat="43.1899400800" lon="3.0019189417">
        <ele>11.67</ele>
        <time>2017-08-01T16:28:19Z</time>
      </trkpt>
      <trkpt lat="43.1898150221" lon="3.0018749367">
        <ele>11.67</ele>
        <time>2017-08-01T16:28:22Z</time>
      </trkpt>
      <trkpt lat="43.1896942388" lon="3.0018120725">
        <ele>11.67</ele>
        <time>2017-08-01T16:28:25Z</time>
      </trkpt>
      <trkpt lat="43.1896135211" lon="3.0017506331">
        <ele>11.67</ele>
        <time>2017-08-01T16:28:27Z</time>
      </trkpt>
      <trkpt lat="43.1891723815" lon="3.0012892932">
        <ele>13.60</ele>
        <time>2017-08-01T16:28:41Z</time>
      </trkpt>
      <trkpt lat="43.1889135484" lon="3.0009780731">
        <ele>14.56</ele>
        <time>2017-08-01T16:28:51Z</time>
      </trkpt>
      <trkpt lat="43.1888849661" lon="3.0009385105">
        <ele>13.60</ele>
        <time>2017-08-01T16:28:52Z</time>
      </trkpt>
      <trkpt lat="43.1888529472" lon="3.0009003729">
        <ele>13.60</ele>
        <time>2017-08-01T16:28:53Z</time>
      </trkpt>
      <trkpt lat="43.1888212636" lon="3.0008622352">
        <ele>13.60</ele>
        <time>2017-08-01T16:28:54Z</time>
      </trkpt>
      <trkpt lat="43.1883974746" lon="3.0004265439">
        <ele>12.15</ele>
        <time>2017-08-01T16:29:06Z</time>
      </trkpt>
      <trkpt lat="43.1882201973" lon="3.0003759172">
        <ele>11.67</ele>
        <time>2017-08-01T16:29:14Z</time>
      </trkpt>
      <trkpt lat="43.1882222928" lon="3.0003824551">
        <ele>11.67</ele>
        <time>2017-08-01T16:29:25Z</time>
      </trkpt>
      <trkpt lat="43.1882269867" lon="3.0003762525">
        <ele>9.75</ele>
        <time>2017-08-01T16:29:40Z</time>
      </trkpt>
      <trkpt lat="43.1882246397" lon="3.0003733188">
        <ele>10.23</ele>
        <time>2017-08-01T16:30:06Z</time>
      </trkpt>
      <trkpt lat="43.1882248074" lon="3.0003735702">
        <ele>10.23</ele>
        <time>2017-08-01T16:30:07Z</time>
      </trkpt>
      <trkpt lat="43.1882256456" lon="3.0003666133">
        <ele>7.83</ele>
        <time>2017-08-01T16:30:34Z</time>
      </trkpt>
      <trkpt lat="43.1882260647" lon="3.0003662780">
        <ele>11.19</ele>
        <time>2017-08-01T16:30:35Z</time>
      </trkpt>
      <trkpt lat="43.1882268190" lon="3.0003664456">
        <ele>6.87</ele>
        <time>2017-08-01T16:30:37Z</time>
      </trkpt>
      <trkpt lat="43.1882273220" lon="3.0003670324">
        <ele>11.67</ele>
        <time>2017-08-01T16:30:38Z</time>
      </trkpt>
      <trkpt lat="43.1882299203" lon="3.0003716424">
        <ele>8.31</ele>
        <time>2017-08-01T16:30:56Z</time>
      </trkpt>
      <trkpt lat="43.1882379670" lon="3.0003678706">
        <ele>11.19</ele>
        <time>2017-08-01T16:31:13Z</time>
      </trkpt>
      <trkpt lat="43.1882383861" lon="3.0003675353">
        <ele>7.35</ele>
        <time>2017-08-01T16:31:14Z</time>
      </trkpt>
      <trkpt lat="43.1882385537" lon="3.0003674515">
        <ele>11.67</ele>
        <time>2017-08-01T16:31:15Z</time>
      </trkpt>
      <trkpt lat="43.1882405654" lon="3.0003667809">
        <ele>8.31</ele>
        <time>2017-08-01T16:31:23Z</time>
      </trkpt>
      <trkpt lat="43.1882440019" lon="3.0003589857">
        <ele>8.31</ele>
        <time>2017-08-01T16:31:49Z</time>
      </trkpt>
      <trkpt lat="43.1882455945" lon="3.0003585666">
        <ele>7.83</ele>
        <time>2017-08-01T16:32:05Z</time>
      </trkpt>
      <trkpt lat="43.1882452592" lon="3.0003597401">
        <ele>7.35</ele>
        <time>2017-08-01T16:32:28Z</time>
      </trkpt>
      <trkpt lat="43.1882460136" lon="3.0003579799">
        <ele>7.35</ele>
        <time>2017-08-01T16:32:42Z</time>
      </trkpt>
      <trkpt lat="43.1882324349" lon="3.0003580637">
        <ele>6.87</ele>
        <time>2017-08-01T16:33:09Z</time>
      </trkpt>
      <trkpt lat="43.1882306747" lon="3.0003398750">
        <ele>6.87</ele>
        <time>2017-08-01T16:33:35Z</time>
      </trkpt>
      <trkpt lat="43.1882293336" lon="3.0003366899">
        <ele>6.39</ele>
        <time>2017-08-01T16:33:53Z</time>
      </trkpt>
      <trkpt lat="43.1882317644" lon="3.0003436469">
        <ele>6.39</ele>
        <time>2017-08-01T16:34:14Z</time>
      </trkpt>
      <trkpt lat="43.1882346980" lon="3.0003470834">
        <ele>6.39</ele>
        <time>2017-08-01T16:34:32Z</time>
      </trkpt>
      <trkpt lat="43.1882341113" lon="3.0003471673">
        <ele>6.39</ele>
        <time>2017-08-01T16:34:51Z</time>
      </trkpt>
      <trkpt lat="43.1881932076" lon="3.0003411323">
        <ele>6.39</ele>
        <time>2017-08-01T16:34:59Z</time>
      </trkpt>
      <trkpt lat="43.1879764516" lon="3.0001932755">
        <ele>6.39</ele>
        <time>2017-08-01T16:35:09Z</time>
      </trkpt>
      <trkpt lat="43.1876149401" lon="2.9999048542">
        <ele>6.39</ele>
        <time>2017-08-01T16:35:20Z</time>
      </trkpt>
      <trkpt lat="43.1872407719" lon="2.9994176980">
        <ele>5.91</ele>
        <time>2017-08-01T16:35:31Z</time>
      </trkpt>
      <trkpt lat="43.1872034725" lon="2.9993778002">
        <ele>5.91</ele>
        <time>2017-08-01T16:35:32Z</time>
      </trkpt>
      <trkpt lat="43.1870652549" lon="2.9992120061">
        <ele>5.42</ele>
        <time>2017-08-01T16:35:36Z</time>
      </trkpt>
      <trkpt lat="43.1870383490" lon="2.9991628882">
        <ele>5.42</ele>
        <time>2017-08-01T16:35:37Z</time>
      </trkpt>
      <trkpt lat="43.1868106965" lon="2.9988942482">
        <ele>4.94</ele>
        <time>2017-08-01T16:35:43Z</time>
      </trkpt>
      <trkpt lat="43.1867128797" lon="2.9987504985">
        <ele>4.46</ele>
        <time>2017-08-01T16:35:46Z</time>
      </trkpt>
      <trkpt lat="43.1866766699" lon="2.9987017997">
        <ele>4.46</ele>
        <time>2017-08-01T16:35:47Z</time>
      </trkpt>
      <trkpt lat="43.1865232810" lon="2.9985620733">
        <ele>3.98</ele>
        <time>2017-08-01T16:35:51Z</time>
      </trkpt>
      <trkpt lat="43.1864807848" lon="2.9985508416">
        <ele>4.46</ele>
        <time>2017-08-01T16:35:52Z</time>
      </trkpt>
      <trkpt lat="43.1864356063" lon="2.9985586368">
        <ele>4.46</ele>
        <time>2017-08-01T16:35:53Z</time>
      </trkpt>
      <trkpt lat="43.1863916013" lon="2.9985769931">
        <ele>3.98</ele>
        <time>2017-08-01T16:35:54Z</time>
      </trkpt>
      <trkpt lat="43.1863521226" lon="2.9986039829">
        <ele>3.98</ele>
        <time>2017-08-01T16:35:55Z</time>
      </trkpt>
      <trkpt lat="43.1863160804" lon="2.9986409470">
        <ele>3.98</ele>
        <time>2017-08-01T16:35:56Z</time>
      </trkpt>
      <trkpt lat="43.1862816308" lon="2.9986814316">
        <ele>3.98</ele>
        <time>2017-08-01T16:35:57Z</time>
      </trkpt>
      <trkpt lat="43.1859219633" lon="2.9990381654">
        <ele>3.98</ele>
        <time>2017-08-01T16:36:06Z</time>
      </trkpt>
      <trkpt lat="43.1854676642" lon="2.9994317796">
        <ele>5.42</ele>
        <time>2017-08-01T16:36:18Z</time>
      </trkpt>
      <trkpt lat="43.1852571946" lon="2.9997639544">
        <ele>7.35</ele>
        <time>2017-08-01T16:36:28Z</time>
      </trkpt>
      <trkpt lat="43.1852375809" lon="2.9997606855">
        <ele>7.35</ele>
        <time>2017-08-01T16:36:29Z</time>
      </trkpt>
      <trkpt lat="43.1850683503" lon="2.9996701609">
        <ele>8.31</ele>
        <time>2017-08-01T16:36:37Z</time>
      </trkpt>
      <trkpt lat="43.1849745568" lon="2.9995842464">
        <ele>7.83</ele>
        <time>2017-08-01T16:36:40Z</time>
      </trkpt>
      <trkpt lat="43.1849369220" lon="2.9995768704">
        <ele>7.83</ele>
        <time>2017-08-01T16:36:41Z</time>
      </trkpt>
      <trkpt lat="43.1848953478" lon="2.9995849170">
        <ele>7.83</ele>
        <time>2017-08-01T16:36:42Z</time>
      </trkpt>
      <trkpt lat="43.1848530192" lon="2.9996052012">
        <ele>7.83</ele>
        <time>2017-08-01T16:36:43Z</time>
      </trkpt>
      <trkpt lat="43.1848145463" lon="2.9996373877">
        <ele>7.83</ele>
        <time>2017-08-01T16:36:44Z</time>
      </trkpt>
      <trkpt lat="43.1847795099" lon="2.9996768665">
        <ele>7.83</ele>
        <time>2017-08-01T16:36:45Z</time>
      </trkpt>
      <trkpt lat="43.1847508438" lon="2.9997201171">
        <ele>7.83</ele>
        <time>2017-08-01T16:36:46Z</time>
      </trkpt>
      <trkpt lat="43.1847309787" lon="2.9997676425">
        <ele>7.83</ele>
        <time>2017-08-01T16:36:47Z</time>
      </trkpt>
      <trkpt lat="43.1847132090" lon="2.9998182692">
        <ele>7.83</ele>
        <time>2017-08-01T16:36:48Z</time>
      </trkpt>
      <trkpt lat="43.1846909132" lon="2.9999180976">
        <ele>7.83</ele>
        <time>2017-08-01T16:36:50Z</time>
      </trkpt>
      <trkpt lat="43.1846949365" lon="2.9999748431">
        <ele>7.83</ele>
        <time>2017-08-01T16:36:51Z</time>
      </trkpt>
      <trkpt lat="43.1847091019" lon="3.0000301637">
        <ele>7.83</ele>
        <time>2017-08-01T16:36:52Z</time>
      </trkpt>
      <trkpt lat="43.1847441383" lon="3.0001349375">
        <ele>7.83</ele>
        <time>2017-08-01T16:36:54Z</time>
      </trkpt>
      <trkpt lat="43.1849059090" lon="3.0004042480">
        <ele>7.35</ele>
        <time>2017-08-01T16:37:02Z</time>
      </trkpt>
      <trkpt lat="43.1849358324" lon="3.0004592333">
        <ele>7.83</ele>
        <time>2017-08-01T16:37:08Z</time>
      </trkpt>
      <trkpt lat="43.1849473156" lon="3.0004899949">
        <ele>7.83</ele>
        <time>2017-08-01T16:37:09Z</time>
      </trkpt>
      <trkpt lat="43.1849572901" lon="3.0005269591">
        <ele>7.83</ele>
        <time>2017-08-01T16:37:10Z</time>
      </trkpt>
      <trkpt lat="43.1849551946" lon="3.0005664378">
        <ele>7.83</ele>
        <time>2017-08-01T16:37:11Z</time>
      </trkpt>
      <trkpt lat="43.1849436276" lon="3.0006065872">
        <ele>7.83</ele>
        <time>2017-08-01T16:37:12Z</time>
      </trkpt>
      <trkpt lat="43.1849299651" lon="3.0006470717">
        <ele>7.83</ele>
        <time>2017-08-01T16:37:13Z</time>
      </trkpt>
      <trkpt lat="43.1849151291" lon="3.0006868020">
        <ele>7.83</ele>
        <time>2017-08-01T16:37:14Z</time>
      </trkpt>
      <trkpt lat="43.1848996226" lon="3.0007255264">
        <ele>7.83</ele>
        <time>2017-08-01T16:37:15Z</time>
      </trkpt>
      <trkpt lat="43.1847375166" lon="3.0011871178">
        <ele>6.87</ele>
        <time>2017-08-01T16:37:26Z</time>
      </trkpt>
      <trkpt lat="43.1845689565" lon="3.0015803128">
        <ele>6.39</ele>
        <time>2017-08-01T16:37:35Z</time>
      </trkpt>
      <trkpt lat="43.1844865624" lon="3.0017533991">
        <ele>6.39</ele>
        <time>2017-08-01T16:37:39Z</time>
      </trkpt>
      <trkpt lat="43.1843686290" lon="3.0019769445">
        <ele>5.91</ele>
        <time>2017-08-01T16:37:45Z</time>
      </trkpt>
      <trkpt lat="43.1843171641" lon="3.0021543894">
        <ele>5.91</ele>
        <time>2017-08-01T16:37:52Z</time>
      </trkpt>
      <trkpt lat="43.1842560600" lon="3.0022734124">
        <ele>6.39</ele>
        <time>2017-08-01T16:37:59Z</time>
      </trkpt>
      <trkpt lat="43.1842503604" lon="3.0023006536">
        <ele>6.39</ele>
        <time>2017-08-01T16:38:00Z</time>
      </trkpt>
      <trkpt lat="43.1842422299" lon="3.0023337621">
        <ele>6.39</ele>
        <time>2017-08-01T16:38:01Z</time>
      </trkpt>
      <trkpt lat="43.1842335965" lon="3.0023672059">
        <ele>6.39</ele>
        <time>2017-08-01T16:38:02Z</time>
      </trkpt>
      <trkpt lat="43.1842173357" lon="3.0024045054">
        <ele>6.39</ele>
        <time>2017-08-01T16:38:03Z</time>
      </trkpt>
      <trkpt lat="43.1841294933" lon="3.0026150588">
        <ele>6.39</ele>
        <time>2017-08-01T16:38:09Z</time>
      </trkpt>
      <trkpt lat="43.1841315888" lon="3.0026590638">
        <ele>6.39</ele>
        <time>2017-08-01T16:38:10Z</time>
      </trkpt>
      <trkpt lat="43.1840565708" lon="3.0029844493">
        <ele>6.39</ele>
        <time>2017-08-01T16:38:18Z</time>
      </trkpt>
      <trkpt lat="43.1838714983" lon="3.0033667479">
        <ele>5.91</ele>
        <time>2017-08-01T16:38:28Z</time>
      </trkpt>
      <trkpt lat="43.1836659741" lon="3.0037353840">
        <ele>5.91</ele>
        <time>2017-08-01T16:38:37Z</time>
      </trkpt>
      <trkpt lat="43.1835285109" lon="3.0041056126">
        <ele>5.91</ele>
        <time>2017-08-01T16:38:45Z</time>
      </trkpt>
      <trkpt lat="43.1832965836" lon="3.0043269787">
        <ele>5.42</ele>
        <time>2017-08-01T16:38:54Z</time>
      </trkpt>
      <trkpt lat="43.1832769699" lon="3.0043515377">
        <ele>5.42</ele>
        <time>2017-08-01T16:38:55Z</time>
      </trkpt>
      <trkpt lat="43.1832525786" lon="3.0043690559">
        <ele>5.42</ele>
        <time>2017-08-01T16:38:56Z</time>
      </trkpt>
      <trkpt lat="43.1832258403" lon="3.0043874122">
        <ele>5.42</ele>
        <time>2017-08-01T16:38:57Z</time>
      </trkpt>
      <trkpt lat="43.1832017843" lon="3.0044217780">
        <ele>5.91</ele>
        <time>2017-08-01T16:38:58Z</time>
      </trkpt>
      <trkpt lat="43.1831818353" lon="3.0044574011">
        <ele>5.91</ele>
        <time>2017-08-01T16:38:59Z</time>
      </trkpt>
      <trkpt lat="43.1831574440" lon="3.0044848099">
        <ele>5.91</ele>
        <time>2017-08-01T16:39:00Z</time>
      </trkpt>
      <trkpt lat="43.1831375789" lon="3.0045126379">
        <ele>5.91</ele>
        <time>2017-08-01T16:39:01Z</time>
      </trkpt>
      <trkpt lat="43.1831149478" lon="3.0045344308">
        <ele>5.91</ele>
        <time>2017-08-01T16:39:02Z</time>
      </trkpt>
      <trkpt lat="43.1830892153" lon="3.0045514461">
        <ele>5.91</ele>
        <time>2017-08-01T16:39:03Z</time>
      </trkpt>
      <trkpt lat="43.1830633152" lon="3.0045832973">
        <ele>5.91</ele>
        <time>2017-08-01T16:39:04Z</time>
      </trkpt>
      <trkpt lat="43.1830457132" lon="3.0046330858">
        <ele>5.91</ele>
        <time>2017-08-01T16:39:05Z</time>
      </trkpt>
      <trkpt lat="43.1830250937" lon="3.0046739895">
        <ele>5.91</ele>
        <time>2017-08-01T16:39:06Z</time>
      </trkpt>
      <trkpt lat="43.1829249300" lon="3.0048574694">
        <ele>6.39</ele>
        <time>2017-08-01T16:39:13Z</time>
      </trkpt>
      <trkpt lat="43.1829221640" lon="3.0048787594">
        <ele>6.39</ele>
        <time>2017-08-01T16:39:14Z</time>
      </trkpt>
      <trkpt lat="43.1829152908" lon="3.0048964452">
        <ele>6.39</ele>
        <time>2017-08-01T16:39:15Z</time>
      </trkpt>
      <trkpt lat="43.1829046458" lon="3.0049190763">
        <ele>6.39</ele>
        <time>2017-08-01T16:39:16Z</time>
      </trkpt>
      <trkpt lat="43.1828958448" lon="3.0049445573">
        <ele>6.39</ele>
        <time>2017-08-01T16:39:17Z</time>
      </trkpt>
      <trkpt lat="43.1828823499" lon="3.0049725529">
        <ele>6.87</ele>
        <time>2017-08-01T16:39:18Z</time>
      </trkpt>
      <trkpt lat="43.1827166397" lon="3.0053100921">
        <ele>7.35</ele>
        <time>2017-08-01T16:39:27Z</time>
      </trkpt>
      <trkpt lat="43.1826788373" lon="3.0053613894">
        <ele>7.35</ele>
        <time>2017-08-01T16:39:28Z</time>
      </trkpt>
      <trkpt lat="43.1826111954" lon="3.0054908060">
        <ele>7.83</ele>
        <time>2017-08-01T16:39:30Z</time>
      </trkpt>
      <trkpt lat="43.1825775001" lon="3.0055590346">
        <ele>7.83</ele>
        <time>2017-08-01T16:39:31Z</time>
      </trkpt>
      <trkpt lat="43.1824797671" lon="3.0057436880">
        <ele>7.83</ele>
        <time>2017-08-01T16:39:34Z</time>
      </trkpt>
      <trkpt lat="43.1824471615" lon="3.0058017746">
        <ele>7.83</ele>
        <time>2017-08-01T16:39:35Z</time>
      </trkpt>
      <trkpt lat="43.1824139692" lon="3.0058626272">
        <ele>7.83</ele>
        <time>2017-08-01T16:39:36Z</time>
      </trkpt>
      <trkpt lat="43.1823843811" lon="3.0059140921">
        <ele>7.83</ele>
        <time>2017-08-01T16:39:37Z</time>
      </trkpt>
      <trkpt lat="43.1823507696" lon="3.0059683230">
        <ele>7.83</ele>
        <time>2017-08-01T16:39:38Z</time>
      </trkpt>
      <trkpt lat="43.1821195967" lon="3.0064455885">
        <ele>8.79</ele>
        <time>2017-08-01T16:39:47Z</time>
      </trkpt>
      <trkpt lat="43.1819921918" lon="3.0066556390">
        <ele>8.79</ele>
        <time>2017-08-01T16:39:52Z</time>
      </trkpt>
      <trkpt lat="43.1819702312" lon="3.0066732410">
        <ele>9.27</ele>
        <time>2017-08-01T16:39:53Z</time>
      </trkpt>
      <trkpt lat="43.1819512043" lon="3.0067017395">
        <ele>8.79</ele>
        <time>2017-08-01T16:39:54Z</time>
      </trkpt>
      <trkpt lat="43.1819422357" lon="3.0067392066">
        <ele>8.79</ele>
        <time>2017-08-01T16:39:55Z</time>
      </trkpt>
      <trkpt lat="43.1819468457" lon="3.0067815352">
        <ele>9.27</ele>
        <time>2017-08-01T16:39:56Z</time>
      </trkpt>
      <trkpt lat="43.1819578260" lon="3.0068139732">
        <ele>8.79</ele>
        <time>2017-08-01T16:39:57Z</time>
      </trkpt>
      <trkpt lat="43.1819706503" lon="3.0068420526">
        <ele>8.79</ele>
        <time>2017-08-01T16:39:58Z</time>
      </trkpt>
      <trkpt lat="43.1820496079" lon="3.0069614947">
        <ele>9.27</ele>
        <time>2017-08-01T16:40:07Z</time>
      </trkpt>
      <trkpt lat="43.1820216123" lon="3.0069806892">
        <ele>9.27</ele>
        <time>2017-08-01T16:40:14Z</time>
      </trkpt>
      <trkpt lat="43.1819807924" lon="3.0070251971">
        <ele>9.27</ele>
        <time>2017-08-01T16:40:17Z</time>
      </trkpt>
      <trkpt lat="43.1819517072" lon="3.0070284661">
        <ele>9.27</ele>
        <time>2017-08-01T16:40:18Z</time>
      </trkpt>
      <trkpt lat="43.1819186825" lon="3.0070219282">
        <ele>9.27</ele>
        <time>2017-08-01T16:40:19Z</time>
      </trkpt>
      <trkpt lat="43.1818886753" lon="3.0070283823">
        <ele>9.27</ele>
        <time>2017-08-01T16:40:20Z</time>
      </trkpt>
      <trkpt lat="43.1818640325" lon="3.0070588086">
        <ele>9.27</ele>
        <time>2017-08-01T16:40:21Z</time>
      </trkpt>
      <trkpt lat="43.1818471011" lon="3.0071041547">
        <ele>9.27</ele>
        <time>2017-08-01T16:40:22Z</time>
      </trkpt>
      <trkpt lat="43.1818267331" lon="3.0071535241">
        <ele>9.27</ele>
        <time>2017-08-01T16:40:23Z</time>
      </trkpt>
      <trkpt lat="43.1817996595" lon="3.0072031450">
        <ele>9.27</ele>
        <time>2017-08-01T16:40:24Z</time>
      </trkpt>
      <trkpt lat="43.1817736756" lon="3.0072603934">
        <ele>9.27</ele>
        <time>2017-08-01T16:40:25Z</time>
      </trkpt>
      <trkpt lat="43.1816196162" lon="3.0075597111">
        <ele>8.79</ele>
        <time>2017-08-01T16:40:30Z</time>
      </trkpt>
      <trkpt lat="43.1815149263" lon="3.0077239964">
        <ele>8.31</ele>
        <time>2017-08-01T16:40:33Z</time>
      </trkpt>
      <trkpt lat="43.1814161036" lon="3.0079310294">
        <ele>8.31</ele>
        <time>2017-08-01T16:40:36Z</time>
      </trkpt>
      <trkpt lat="43.1811198033" lon="3.0085196905">
        <ele>7.83</ele>
        <time>2017-08-01T16:40:45Z</time>
      </trkpt>
      <trkpt lat="43.1810028758" lon="3.0090045836">
        <ele>7.35</ele>
        <time>2017-08-01T16:40:52Z</time>
      </trkpt>
      <trkpt lat="43.1808020454" lon="3.0098086596">
        <ele>7.35</ele>
        <time>2017-08-01T16:41:03Z</time>
      </trkpt>
      <trkpt lat="43.1806608941" lon="3.0105248932">
        <ele>6.87</ele>
        <time>2017-08-01T16:41:13Z</time>
      </trkpt>
      <trkpt lat="43.1805411167" lon="3.0113182403">
        <ele>6.87</ele>
        <time>2017-08-01T16:41:23Z</time>
      </trkpt>
      <trkpt lat="43.1804762408" lon="3.0120894592">
        <ele>6.87</ele>
        <time>2017-08-01T16:41:33Z</time>
      </trkpt>
      <trkpt lat="43.1804729719" lon="3.0121675786">
        <ele>6.87</ele>
        <time>2017-08-01T16:41:34Z</time>
      </trkpt>
      <trkpt lat="43.1804288831" lon="3.0129557289">
        <ele>7.35</ele>
        <time>2017-08-01T16:41:46Z</time>
      </trkpt>
      <trkpt lat="43.1804111972" lon="3.0133537017">
        <ele>7.35</ele>
        <time>2017-08-01T16:41:53Z</time>
      </trkpt>
      <trkpt lat="43.1803599000" lon="3.0136745609">
        <ele>7.35</ele>
        <time>2017-08-01T16:42:00Z</time>
      </trkpt>
      <trkpt lat="43.1803299766" lon="3.0137006287">
        <ele>7.83</ele>
        <time>2017-08-01T16:42:01Z</time>
      </trkpt>
      <trkpt lat="43.1802971195" lon="3.0137304682">
        <ele>7.83</ele>
        <time>2017-08-01T16:42:02Z</time>
      </trkpt>
      <trkpt lat="43.1802645978" lon="3.0137701984">
        <ele>7.83</ele>
        <time>2017-08-01T16:42:03Z</time>
      </trkpt>
      <trkpt lat="43.1802366022" lon="3.0138205737">
        <ele>7.83</ele>
        <time>2017-08-01T16:42:04Z</time>
      </trkpt>
      <trkpt lat="43.1802231073" lon="3.0138820130">
        <ele>8.31</ele>
        <time>2017-08-01T16:42:05Z</time>
      </trkpt>
      <trkpt lat="43.1802247837" lon="3.0139525887">
        <ele>8.31</ele>
        <time>2017-08-01T16:42:06Z</time>
      </trkpt>
      <trkpt lat="43.1802347582" lon="3.0140240863">
        <ele>7.83</ele>
        <time>2017-08-01T16:42:07Z</time>
      </trkpt>
      <trkpt lat="43.1802485045" lon="3.0140944105">
        <ele>7.83</ele>
        <time>2017-08-01T16:42:08Z</time>
      </trkpt>
      <trkpt lat="43.1802577246" lon="3.0141682550">
        <ele>7.83</ele>
        <time>2017-08-01T16:42:09Z</time>
      </trkpt>
      <trkpt lat="43.1802605744" lon="3.0142464582">
        <ele>7.35</ele>
        <time>2017-08-01T16:42:10Z</time>
      </trkpt>
      <trkpt lat="43.1802573055" lon="3.0143236555">
        <ele>7.35</ele>
        <time>2017-08-01T16:42:11Z</time>
      </trkpt>
      <trkpt lat="43.1802315731" lon="3.0147703271">
        <ele>7.35</ele>
        <time>2017-08-01T16:42:17Z</time>
      </trkpt>
      <trkpt lat="43.1802213471" lon="3.0148452614">
        <ele>7.35</ele>
        <time>2017-08-01T16:42:18Z</time>
      </trkpt>
      <trkpt lat="43.1801464129" lon="3.0159001239">
        <ele>7.35</ele>
        <time>2017-08-01T16:42:31Z</time>
      </trkpt>
      <trkpt lat="43.1800915953" lon="3.0167438462">
        <ele>7.35</ele>
        <time>2017-08-01T16:42:40Z</time>
      </trkpt>
      <trkpt lat="43.1799659505" lon="3.0175931845">
        <ele>7.35</ele>
        <time>2017-08-01T16:42:51Z</time>
      </trkpt>
      <trkpt lat="43.1798961293" lon="3.0179506727">
        <ele>7.35</ele>
        <time>2017-08-01T16:42:56Z</time>
      </trkpt>
      <trkpt lat="43.1798832212" lon="3.0180209130">
        <ele>6.87</ele>
        <time>2017-08-01T16:42:57Z</time>
      </trkpt>
      <trkpt lat="43.1798384618" lon="3.0184152815">
        <ele>7.35</ele>
        <time>2017-08-01T16:43:05Z</time>
      </trkpt>
      <trkpt lat="43.1797777768" lon="3.0185085721">
        <ele>7.35</ele>
        <time>2017-08-01T16:43:08Z</time>
      </trkpt>
      <trkpt lat="43.1797442492" lon="3.0185446143">
        <ele>6.87</ele>
        <time>2017-08-01T16:43:09Z</time>
      </trkpt>
      <trkpt lat="43.1797123142" lon="3.0185867753">
        <ele>6.87</ele>
        <time>2017-08-01T16:43:10Z</time>
      </trkpt>
      <trkpt lat="43.1796844024" lon="3.0186364800">
        <ele>6.87</ele>
        <time>2017-08-01T16:43:11Z</time>
      </trkpt>
      <trkpt lat="43.1796605978" lon="3.0186904594">
        <ele>6.87</ele>
        <time>2017-08-01T16:43:12Z</time>
      </trkpt>
      <trkpt lat="43.1796432473" lon="3.0187446065">
        <ele>7.35</ele>
        <time>2017-08-01T16:43:13Z</time>
      </trkpt>
      <trkpt lat="43.1796328537" lon="3.0188005138">
        <ele>6.87</ele>
        <time>2017-08-01T16:43:14Z</time>
      </trkpt>
      <trkpt lat="43.1796289980" lon="3.0188575108">
        <ele>6.87</ele>
        <time>2017-08-01T16:43:15Z</time>
      </trkpt>
      <trkpt lat="43.1796308421" lon="3.0189159326">
        <ele>6.87</ele>
        <time>2017-08-01T16:43:16Z</time>
      </trkpt>
      <trkpt lat="43.1796341948" lon="3.0189745221">
        <ele>6.87</ele>
        <time>2017-08-01T16:43:17Z</time>
      </trkpt>
      <trkpt lat="43.1796348654" lon="3.0190346204">
        <ele>6.87</ele>
        <time>2017-08-01T16:43:18Z</time>
      </trkpt>
      <trkpt lat="43.1795599312" lon="3.0193056073">
        <ele>6.87</ele>
        <time>2017-08-01T16:43:24Z</time>
      </trkpt>
      <trkpt lat="43.1792409159" lon="3.0199700408">
        <ele>6.87</ele>
        <time>2017-08-01T16:43:36Z</time>
      </trkpt>
      <trkpt lat="43.1788627245" lon="3.0206257571">
        <ele>6.87</ele>
        <time>2017-08-01T16:43:48Z</time>
      </trkpt>
      <trkpt lat="43.1784967706" lon="3.0212774500">
        <ele>6.87</ele>
        <time>2017-08-01T16:43:59Z</time>
      </trkpt>
      <trkpt lat="43.1779942755" lon="3.0221158080">
        <ele>6.87</ele>
        <time>2017-08-01T16:44:14Z</time>
      </trkpt>
      <trkpt lat="43.1775334384" lon="3.0228814110">
        <ele>6.39</ele>
        <time>2017-08-01T16:44:28Z</time>
      </trkpt>
      <trkpt lat="43.1772754434" lon="3.0233177729">
        <ele>6.87</ele>
        <time>2017-08-01T16:44:37Z</time>
      </trkpt>
      <trkpt lat="43.1772503816" lon="3.0233640410">
        <ele>6.87</ele>
        <time>2017-08-01T16:44:38Z</time>
      </trkpt>
      <trkpt lat="43.1771002617" lon="3.0236051045">
        <ele>6.87</ele>
        <time>2017-08-01T16:44:43Z</time>
      </trkpt>
      <trkpt lat="43.1770708412" lon="3.0236593354">
        <ele>6.87</ele>
        <time>2017-08-01T16:44:44Z</time>
      </trkpt>
      <trkpt lat="43.1769111659" lon="3.0239119660">
        <ele>6.87</ele>
        <time>2017-08-01T16:44:49Z</time>
      </trkpt>
      <trkpt lat="43.1768845115" lon="3.0239585694">
        <ele>6.87</ele>
        <time>2017-08-01T16:44:50Z</time>
      </trkpt>
      <trkpt lat="43.1768535823" lon="3.0240019877">
        <ele>6.87</ele>
        <time>2017-08-01T16:44:51Z</time>
      </trkpt>
      <trkpt lat="43.1768213119" lon="3.0240460765">
        <ele>6.87</ele>
        <time>2017-08-01T16:44:52Z</time>
      </trkpt>
      <trkpt lat="43.1767946575" lon="3.0240909196">
        <ele>6.87</ele>
        <time>2017-08-01T16:44:53Z</time>
      </trkpt>
      <trkpt lat="43.1765462179" lon="3.0244958494">
        <ele>6.87</ele>
        <time>2017-08-01T16:45:02Z</time>
      </trkpt>
      <trkpt lat="43.1762407813" lon="3.0250488874">
        <ele>7.35</ele>
        <time>2017-08-01T16:45:13Z</time>
      </trkpt>
      <trkpt lat="43.1760829501" lon="3.0252926331">
        <ele>7.35</ele>
        <time>2017-08-01T16:45:18Z</time>
      </trkpt>
      <trkpt lat="43.1757102907" lon="3.0257639475">
        <ele>8.79</ele>
        <time>2017-08-01T16:45:30Z</time>
      </trkpt>
      <trkpt lat="43.1756635197" lon="3.0257659592">
        <ele>8.79</ele>
        <time>2017-08-01T16:45:31Z</time>
      </trkpt>
      <trkpt lat="43.1756122224" lon="3.0257655401">
        <ele>8.79</ele>
        <time>2017-08-01T16:45:32Z</time>
      </trkpt>
      <trkpt lat="43.1755605061" lon="3.0257767718">
        <ele>8.79</ele>
        <time>2017-08-01T16:45:33Z</time>
      </trkpt>
      <trkpt lat="43.1755134836" lon="3.0257997382">
        <ele>8.79</ele>
        <time>2017-08-01T16:45:34Z</time>
      </trkpt>
      <trkpt lat="43.1754714064" lon="3.0258308351">
        <ele>8.79</ele>
        <time>2017-08-01T16:45:35Z</time>
      </trkpt>
      <trkpt lat="43.1754372921" lon="3.0258714035">
        <ele>8.79</ele>
        <time>2017-08-01T16:45:36Z</time>
      </trkpt>
      <trkpt lat="43.1754109729" lon="3.0259204376">
        <ele>9.27</ele>
        <time>2017-08-01T16:45:37Z</time>
      </trkpt>
      <trkpt lat="43.1753906887" lon="3.0259757582">
        <ele>8.79</ele>
        <time>2017-08-01T16:45:38Z</time>
      </trkpt>
      <trkpt lat="43.1753764395" lon="3.0260365270">
        <ele>8.79</ele>
        <time>2017-08-01T16:45:39Z</time>
      </trkpt>
      <trkpt lat="43.1753709074" lon="3.0261052586">
        <ele>8.79</ele>
        <time>2017-08-01T16:45:40Z</time>
      </trkpt>
      <trkpt lat="43.1753685605" lon="3.0261792708">
        <ele>8.79</ele>
        <time>2017-08-01T16:45:41Z</time>
      </trkpt>
      <trkpt lat="43.1753554847" lon="3.0262557138">
        <ele>8.79</ele>
        <time>2017-08-01T16:45:42Z</time>
      </trkpt>
      <trkpt lat="43.1753286626" lon="3.0263348389">
        <ele>8.79</ele>
        <time>2017-08-01T16:45:43Z</time>
      </trkpt>
      <trkpt lat="43.1752870046" lon="3.0264125392">
        <ele>8.79</ele>
        <time>2017-08-01T16:45:44Z</time>
      </trkpt>
      <trkpt lat="43.1752369646" lon="3.0264861323">
        <ele>8.79</ele>
        <time>2017-08-01T16:45:45Z</time>
      </trkpt>
      <trkpt lat="43.1751839072" lon="3.0265581328">
        <ele>8.79</ele>
        <time>2017-08-01T16:45:46Z</time>
      </trkpt>
      <trkpt lat="43.1744825933" lon="3.0275546573">
        <ele>7.35</ele>
        <time>2017-08-01T16:46:00Z</time>
      </trkpt>
      <trkpt lat="43.1738873105" lon="3.0286272895">
        <ele>7.35</ele>
        <time>2017-08-01T16:46:14Z</time>
      </trkpt>
      <trkpt lat="43.1735034194" lon="3.0296336208">
        <ele>7.35</ele>
        <time>2017-08-01T16:46:27Z</time>
      </trkpt>
      <trkpt lat="43.1732363719" lon="3.0305795185">
        <ele>7.35</ele>
        <time>2017-08-01T16:46:37Z</time>
      </trkpt>
      <trkpt lat="43.1729874294" lon="3.0314747058">
        <ele>7.83</ele>
        <time>2017-08-01T16:46:48Z</time>
      </trkpt>
      <trkpt lat="43.1727580167" lon="3.0321945436">
        <ele>7.83</ele>
        <time>2017-08-01T16:46:58Z</time>
      </trkpt>
      <trkpt lat="43.1727313623" lon="3.0322691426">
        <ele>7.83</ele>
        <time>2017-08-01T16:46:59Z</time>
      </trkpt>
      <trkpt lat="43.1727058813" lon="3.0323420651">
        <ele>7.83</ele>
        <time>2017-08-01T16:47:00Z</time>
      </trkpt>
      <trkpt lat="43.1723641511" lon="3.0331318919">
        <ele>7.83</ele>
        <time>2017-08-01T16:47:11Z</time>
      </trkpt>
      <trkpt lat="43.1718574651" lon="3.0338312779">
        <ele>8.79</ele>
        <time>2017-08-01T16:47:23Z</time>
      </trkpt>
      <trkpt lat="43.1711191032" lon="3.0346040055">
        <ele>8.31</ele>
        <time>2017-08-01T16:47:38Z</time>
      </trkpt>
      <trkpt lat="43.1706325337" lon="3.0352076702">
        <ele>8.31</ele>
        <time>2017-08-01T16:47:49Z</time>
      </trkpt>
      <trkpt lat="43.1700447109" lon="3.0359702557">
        <ele>8.79</ele>
        <time>2017-08-01T16:48:02Z</time>
      </trkpt>
      <trkpt lat="43.1694979593" lon="3.0366373714">
        <ele>8.79</ele>
        <time>2017-08-01T16:48:15Z</time>
      </trkpt>
      <trkpt lat="43.1694506016" lon="3.0366721563">
        <ele>8.31</ele>
        <time>2017-08-01T16:48:16Z</time>
      </trkpt>
      <trkpt lat="43.1694010645" lon="3.0366983078">
        <ele>8.79</ele>
        <time>2017-08-01T16:48:17Z</time>
      </trkpt>
      <trkpt lat="43.1693008170" lon="3.0367496889">
        <ele>8.79</ele>
        <time>2017-08-01T16:48:19Z</time>
      </trkpt>
      <trkpt lat="43.1692037545" lon="3.0368046742">
        <ele>8.79</ele>
        <time>2017-08-01T16:48:21Z</time>
      </trkpt>
      <trkpt lat="43.1688383035" lon="3.0369981285">
        <ele>8.79</ele>
        <time>2017-08-01T16:48:28Z</time>
      </trkpt>
      <trkpt lat="43.1685964856" lon="3.0371115357">
        <ele>8.79</ele>
        <time>2017-08-01T16:48:33Z</time>
      </trkpt>
      <trkpt lat="43.1685532350" lon="3.0371381901">
        <ele>8.79</ele>
        <time>2017-08-01T16:48:34Z</time>
      </trkpt>
      <trkpt lat="43.1685070507" lon="3.0371625815">
        <ele>8.79</ele>
        <time>2017-08-01T16:48:35Z</time>
      </trkpt>
      <trkpt lat="43.1680271029" lon="3.0374220014">
        <ele>8.79</ele>
        <time>2017-08-01T16:48:45Z</time>
      </trkpt>
      <trkpt lat="43.1679797452" lon="3.0374478176">
        <ele>8.79</ele>
        <time>2017-08-01T16:48:46Z</time>
      </trkpt>
      <trkpt lat="43.1679331418" lon="3.0374739692">
        <ele>8.79</ele>
        <time>2017-08-01T16:48:47Z</time>
      </trkpt>
      <trkpt lat="43.1678852811" lon="3.0375003722">
        <ele>8.79</ele>
        <time>2017-08-01T16:48:48Z</time>
      </trkpt>
      <trkpt lat="43.1678364147" lon="3.0375291221">
        <ele>8.79</ele>
        <time>2017-08-01T16:48:49Z</time>
      </trkpt>
      <trkpt lat="43.1677838601" lon="3.0375568662">
        <ele>8.79</ele>
        <time>2017-08-01T16:48:50Z</time>
      </trkpt>
      <trkpt lat="43.1677257735" lon="3.0375800002">
        <ele>8.79</ele>
        <time>2017-08-01T16:48:51Z</time>
      </trkpt>
      <trkpt lat="43.1676688604" lon="3.0376066547">
        <ele>8.79</ele>
        <time>2017-08-01T16:48:52Z</time>
      </trkpt>
      <trkpt lat="43.1674187444" lon="3.0377490632">
        <ele>9.27</ele>
        <time>2017-08-01T16:48:57Z</time>
      </trkpt>
      <trkpt lat="43.1672588177" lon="3.0378708523">
        <ele>8.79</ele>
        <time>2017-08-01T16:49:01Z</time>
      </trkpt>
      <trkpt lat="43.1672118790" lon="3.0378940701">
        <ele>8.79</ele>
        <time>2017-08-01T16:49:02Z</time>
      </trkpt>
      <trkpt lat="43.1668408960" lon="3.0380882788">
        <ele>8.79</ele>
        <time>2017-08-01T16:49:10Z</time>
      </trkpt>
      <trkpt lat="43.1667989865" lon="3.0381055456">
        <ele>8.79</ele>
        <time>2017-08-01T16:49:11Z</time>
      </trkpt>
      <trkpt lat="43.1664573401" lon="3.0382520612">
        <ele>8.31</ele>
        <time>2017-08-01T16:49:20Z</time>
      </trkpt>
      <trkpt lat="43.1664315239" lon="3.0382298492">
        <ele>8.31</ele>
        <time>2017-08-01T16:49:21Z</time>
      </trkpt>
      <trkpt lat="43.1664143410" lon="3.0381965730">
        <ele>8.79</ele>
        <time>2017-08-01T16:49:22Z</time>
      </trkpt>
      <trkpt lat="43.1664038636" lon="3.0381629616">
        <ele>8.79</ele>
        <time>2017-08-01T16:49:23Z</time>
      </trkpt>
      <trkpt lat="43.1663998403" lon="3.0381231476">
        <ele>8.79</ele>
        <time>2017-08-01T16:49:24Z</time>
      </trkpt>
      <trkpt lat="43.1663997564" lon="3.0380790588">
        <ele>8.79</ele>
        <time>2017-08-01T16:49:25Z</time>
      </trkpt>
      <trkpt lat="43.1664103176" lon="3.0376789067">
        <ele>8.79</ele>
        <time>2017-08-01T16:49:34Z</time>
      </trkpt>
      <trkpt lat="43.1664012652" lon="3.0376498215">
        <ele>8.79</ele>
        <time>2017-08-01T16:49:35Z</time>
      </trkpt>
      <trkpt lat="43.1663874350" lon="3.0376307946">
        <ele>8.79</ele>
        <time>2017-08-01T16:49:36Z</time>
      </trkpt>
      <trkpt lat="43.1663609482" lon="3.0375943333">
        <ele>8.31</ele>
        <time>2017-08-01T16:49:39Z</time>
      </trkpt>
      <trkpt lat="43.1663672347" lon="3.0375878792">
        <ele>8.31</ele>
        <time>2017-08-01T16:49:40Z</time>
      </trkpt>
      <trkpt lat="43.1663912907" lon="3.0375677627">
        <ele>8.31</ele>
        <time>2017-08-01T16:49:43Z</time>
      </trkpt>
      <trkpt lat="43.1663917098" lon="3.0375515018">
        <ele>8.31</ele>
        <time>2017-08-01T16:49:44Z</time>
      </trkpt>
      <trkpt lat="43.1663927156" lon="3.0375323072">
        <ele>8.31</ele>
        <time>2017-08-01T16:49:45Z</time>
      </trkpt>
      <trkpt lat="43.1663936377" lon="3.0375110172">
        <ele>8.31</ele>
        <time>2017-08-01T16:49:46Z</time>
      </trkpt>
      <trkpt lat="43.1663901173" lon="3.0374836922">
        <ele>8.31</ele>
        <time>2017-08-01T16:49:47Z</time>
      </trkpt>
      <trkpt lat="43.1663881894" lon="3.0374567024">
        <ele>8.31</ele>
        <time>2017-08-01T16:49:48Z</time>
      </trkpt>
      <trkpt lat="43.1663876027" lon="3.0374312215">
        <ele>8.31</ele>
        <time>2017-08-01T16:49:49Z</time>
      </trkpt>
      <trkpt lat="43.1663863454" lon="3.0374064110">
        <ele>8.31</ele>
        <time>2017-08-01T16:49:50Z</time>
      </trkpt>
      <trkpt lat="43.1663826574" lon="3.0373086780">
        <ele>8.79</ele>
        <time>2017-08-01T16:49:54Z</time>
      </trkpt>
      <trkpt lat="43.1663771253" lon="3.0372879747">
        <ele>8.79</ele>
        <time>2017-08-01T16:49:55Z</time>
      </trkpt>
      <trkpt lat="43.1663781311" lon="3.0371562950">
        <ele>8.31</ele>
        <time>2017-08-01T16:50:05Z</time>
      </trkpt>
      <trkpt lat="43.1663622893" lon="3.0371397827">
        <ele>8.31</ele>
        <time>2017-08-01T16:50:08Z</time>
      </trkpt>
      <trkpt lat="43.1663432624" lon="3.0371688679">
        <ele>8.31</ele>
        <time>2017-08-01T16:50:15Z</time>
      </trkpt>
      <trkpt lat="43.1663443521" lon="3.0371624138">
        <ele>7.83</ele>
        <time>2017-08-01T16:50:39Z</time>
      </trkpt>
      <trkpt lat="43.1663476210" lon="3.0371632520">
        <ele>7.83</ele>
        <time>2017-08-01T16:51:02Z</time>
      </trkpt>
      <trkpt lat="43.1663534883" lon="3.0371526070">
        <ele>7.83</ele>
        <time>2017-08-01T16:51:19Z</time>
      </trkpt>
      <trkpt lat="43.1663581822" lon="3.0371436384">
        <ele>7.83</ele>
        <time>2017-08-01T16:51:36Z</time>
      </trkpt>
      <trkpt lat="43.1663527340" lon="3.0371403694">
        <ele>8.31</ele>
        <time>2017-08-01T16:51:57Z</time>
      </trkpt>
      <trkpt lat="43.1663509738" lon="3.0371386930">
        <ele>8.31</ele>
        <time>2017-08-01T16:52:22Z</time>
      </trkpt>
      <trkpt lat="43.1663565058" lon="3.0371355917">
        <ele>8.79</ele>
        <time>2017-08-01T16:52:44Z</time>
      </trkpt>
      <trkpt lat="43.1663612835" lon="3.0371402018">
        <ele>8.79</ele>
        <time>2017-08-01T16:53:11Z</time>
      </trkpt>
      <trkpt lat="43.1663623732" lon="3.0371449795">
        <ele>8.79</ele>
        <time>2017-08-01T16:53:35Z</time>
      </trkpt>
      <trkpt lat="43.1663503032" lon="3.0371365137">
        <ele>8.31</ele>
        <time>2017-08-01T16:53:55Z</time>
      </trkpt>
      <trkpt lat="43.1663492136" lon="3.0371270422">
        <ele>8.31</ele>
        <time>2017-08-01T16:54:15Z</time>
      </trkpt>
      <trkpt lat="43.1663472019" lon="3.0371338315">
        <ele>7.83</ele>
        <time>2017-08-01T16:54:32Z</time>
      </trkpt>
      <trkpt lat="43.1663412508" lon="3.0371427163">
        <ele>7.83</ele>
        <time>2017-08-01T16:54:50Z</time>
      </trkpt>
      <trkpt lat="43.1663428433" lon="3.0371479969">
        <ele>7.35</ele>
        <time>2017-08-01T16:55:10Z</time>
      </trkpt>
      <trkpt lat="43.1849800888" lon="3.0032805819">
        <ele>-5.63</ele>
        <time>2017-08-02T07:33:27Z</time>
      </trkpt>
      <trkpt lat="43.1849870458" lon="3.0032711942">
        <ele>0.14</ele>
        <time>2017-08-02T07:33:29Z</time>
      </trkpt>
      <trkpt lat="43.1849885546" lon="3.0032608844">
        <ele>3.98</ele>
        <time>2017-08-02T07:33:31Z</time>
      </trkpt>
      <trkpt lat="43.1849889737" lon="3.0032550171">
        <ele>7.83</ele>
        <time>2017-08-02T07:33:34Z</time>
      </trkpt>
      <trkpt lat="43.1849898119" lon="3.0032494012">
        <ele>6.39</ele>
        <time>2017-08-02T07:33:35Z</time>
      </trkpt>
      <trkpt lat="43.1849940028" lon="3.0032404326">
        <ele>9.75</ele>
        <time>2017-08-02T07:33:37Z</time>
      </trkpt>
      <trkpt lat="43.1849964336" lon="3.0032338947">
        <ele>10.23</ele>
        <time>2017-08-02T07:33:38Z</time>
      </trkpt>
      <trkpt lat="43.1849997863" lon="3.0032193940">
        <ele>16.96</ele>
        <time>2017-08-02T07:33:40Z</time>
      </trkpt>
      <trkpt lat="43.1849994510" lon="3.0032083299">
        <ele>16.96</ele>
        <time>2017-08-02T07:33:41Z</time>
      </trkpt>
      <trkpt lat="43.1850074138" lon="3.0031881295">
        <ele>19.84</ele>
        <time>2017-08-02T07:33:43Z</time>
      </trkpt>
      <trkpt lat="43.1850100961" lon="3.0031846091">
        <ele>23.21</ele>
        <time>2017-08-02T07:33:46Z</time>
      </trkpt>
      <trkpt lat="43.1850119401" lon="3.0031899735">
        <ele>26.57</ele>
        <time>2017-08-02T07:33:49Z</time>
      </trkpt>
      <trkpt lat="43.1850043125" lon="3.0032095034">
        <ele>29.46</ele>
        <time>2017-08-02T07:33:53Z</time>
      </trkpt>
      <trkpt lat="43.1849847827" lon="3.0031976011">
        <ele>31.86</ele>
        <time>2017-08-02T07:34:03Z</time>
      </trkpt>
      <trkpt lat="43.1849764008" lon="3.0031978525">
        <ele>34.74</ele>
        <time>2017-08-02T07:34:08Z</time>
      </trkpt>
      <trkpt lat="43.1849800888" lon="3.0032014567">
        <ele>38.11</ele>
        <time>2017-08-02T07:34:14Z</time>
      </trkpt>
      <trkpt lat="43.1849700306" lon="3.0031979363">
        <ele>39.07</ele>
        <time>2017-08-02T07:34:16Z</time>
      </trkpt>
      <trkpt lat="43.1847457308" lon="3.0031248461">
        <ele>42.44</ele>
        <time>2017-08-02T07:34:26Z</time>
      </trkpt>
      <trkpt lat="43.1847098563" lon="3.0031143688">
        <ele>44.36</ele>
        <time>2017-08-02T07:34:34Z</time>
      </trkpt>
      <trkpt lat="43.1846936792" lon="3.0031119380">
        <ele>45.80</ele>
        <time>2017-08-02T07:34:42Z</time>
      </trkpt>
      <trkpt lat="43.1846940145" lon="3.0031137820">
        <ele>46.76</ele>
        <time>2017-08-02T07:34:54Z</time>
      </trkpt>
      <trkpt lat="43.1846927572" lon="3.0031175539">
        <ele>46.76</ele>
        <time>2017-08-02T07:34:55Z</time>
      </trkpt>
      <trkpt lat="43.1844849698" lon="3.0031234212">
        <ele>46.76</ele>
        <time>2017-08-02T07:35:04Z</time>
      </trkpt>
      <trkpt lat="43.1843654439" lon="3.0030855350">
        <ele>46.28</ele>
        <time>2017-08-02T07:35:13Z</time>
      </trkpt>
      <trkpt lat="43.1841826346" lon="3.0030145403">
        <ele>45.32</ele>
        <time>2017-08-02T07:35:22Z</time>
      </trkpt>
      <trkpt lat="43.1841417309" lon="3.0029165559">
        <ele>44.84</ele>
        <time>2017-08-02T07:35:31Z</time>
      </trkpt>
      <trkpt lat="43.1841453351" lon="3.0028185714">
        <ele>44.84</ele>
        <time>2017-08-02T07:35:34Z</time>
      </trkpt>
      <trkpt lat="43.1842764281" lon="3.0024754163">
        <ele>44.84</ele>
        <time>2017-08-02T07:35:44Z</time>
      </trkpt>
      <trkpt lat="43.1843846384" lon="3.0021601729">
        <ele>44.84</ele>
        <time>2017-08-02T07:35:50Z</time>
      </trkpt>
      <trkpt lat="43.1844190042" lon="3.0020472687">
        <ele>44.84</ele>
        <time>2017-08-02T07:35:52Z</time>
      </trkpt>
      <trkpt lat="43.1845962815" lon="3.0015573464">
        <ele>45.32</ele>
        <time>2017-08-02T07:36:02Z</time>
      </trkpt>
      <trkpt lat="43.1847141311" lon="3.0012291111">
        <ele>45.80</ele>
        <time>2017-08-02T07:36:09Z</time>
      </trkpt>
      <trkpt lat="43.1847370975" lon="3.0011865310">
        <ele>45.80</ele>
        <time>2017-08-02T07:36:10Z</time>
      </trkpt>
      <trkpt lat="43.1848923303" lon="3.0008049030">
        <ele>46.28</ele>
        <time>2017-08-02T07:36:21Z</time>
      </trkpt>
      <trkpt lat="43.1850045640" lon="3.0006048270">
        <ele>46.76</ele>
        <time>2017-08-02T07:36:31Z</time>
      </trkpt>
      <trkpt lat="43.1851415243" lon="3.0004725605">
        <ele>46.76</ele>
        <time>2017-08-02T07:36:41Z</time>
      </trkpt>
      <trkpt lat="43.1851408537" lon="3.0004069302">
        <ele>46.76</ele>
        <time>2017-08-02T07:36:44Z</time>
      </trkpt>
      <trkpt lat="43.1851356570" lon="3.0003929324">
        <ele>46.28</ele>
        <time>2017-08-02T07:36:45Z</time>
      </trkpt>
      <trkpt lat="43.1851261016" lon="3.0003753304">
        <ele>46.76</ele>
        <time>2017-08-02T07:36:46Z</time>
      </trkpt>
      <trkpt lat="43.1851212401" lon="3.0003485084">
        <ele>46.28</ele>
        <time>2017-08-02T07:36:47Z</time>
      </trkpt>
      <trkpt lat="43.1851236708" lon="3.0003164057">
        <ele>46.76</ele>
        <time>2017-08-02T07:36:48Z</time>
      </trkpt>
      <trkpt lat="43.1851314660" lon="3.0002858117">
        <ele>46.28</ele>
        <time>2017-08-02T07:36:49Z</time>
      </trkpt>
      <trkpt lat="43.1851467211" lon="3.0002494343">
        <ele>46.28</ele>
        <time>2017-08-02T07:36:50Z</time>
      </trkpt>
      <trkpt lat="43.1851626467" lon="3.0002206005">
        <ele>46.28</ele>
        <time>2017-08-02T07:36:51Z</time>
      </trkpt>
      <trkpt lat="43.1851770636" lon="3.0001926888">
        <ele>46.76</ele>
        <time>2017-08-02T07:36:52Z</time>
      </trkpt>
      <trkpt lat="43.1851915643" lon="3.0001624301">
        <ele>46.76</ele>
        <time>2017-08-02T07:36:53Z</time>
      </trkpt>
      <trkpt lat="43.1852994394" lon="2.9998792056">
        <ele>46.28</ele>
        <time>2017-08-02T07:37:03Z</time>
      </trkpt>
      <trkpt lat="43.1853184663" lon="2.9998367932">
        <ele>45.80</ele>
        <time>2017-08-02T07:37:06Z</time>
      </trkpt>
      <trkpt lat="43.1853294466" lon="2.9998253938">
        <ele>45.80</ele>
        <time>2017-08-02T07:37:07Z</time>
      </trkpt>
      <trkpt lat="43.1854291912" lon="2.9996678978">
        <ele>44.84</ele>
        <time>2017-08-02T07:37:12Z</time>
      </trkpt>
      <trkpt lat="43.1854728609" lon="2.9995570052">
        <ele>44.36</ele>
        <time>2017-08-02T07:37:14Z</time>
      </trkpt>
      <trkpt lat="43.1855021976" lon="2.9995008465">
        <ele>44.36</ele>
        <time>2017-08-02T07:37:15Z</time>
      </trkpt>
      <trkpt lat="43.1855378207" lon="2.9994476214">
        <ele>44.36</ele>
        <time>2017-08-02T07:37:16Z</time>
      </trkpt>
      <trkpt lat="43.1855738629" lon="2.9993932229">
        <ele>43.88</ele>
        <time>2017-08-02T07:37:17Z</time>
      </trkpt>
      <trkpt lat="43.1856070552" lon="2.9993352201">
        <ele>43.40</ele>
        <time>2017-08-02T07:37:18Z</time>
      </trkpt>
      <trkpt lat="43.1856424268" lon="2.9992798995">
        <ele>43.40</ele>
        <time>2017-08-02T07:37:19Z</time>
      </trkpt>
      <trkpt lat="43.1856862642" lon="2.9992342182">
        <ele>43.40</ele>
        <time>2017-08-02T07:37:20Z</time>
      </trkpt>
      <trkpt lat="43.1858875975" lon="2.9991071485">
        <ele>42.92</ele>
        <time>2017-08-02T07:37:24Z</time>
      </trkpt>
      <trkpt lat="43.1859332789" lon="2.9990695976">
        <ele>42.92</ele>
        <time>2017-08-02T07:37:25Z</time>
      </trkpt>
      <trkpt lat="43.1861400604" lon="2.9988637380">
        <ele>42.44</ele>
        <time>2017-08-02T07:37:30Z</time>
      </trkpt>
      <trkpt lat="43.1861792877" lon="2.9988260195">
        <ele>41.95</ele>
        <time>2017-08-02T07:37:31Z</time>
      </trkpt>
      <trkpt lat="43.1863574870" lon="2.9986758996">
        <ele>42.44</ele>
        <time>2017-08-02T07:37:36Z</time>
      </trkpt>
      <trkpt lat="43.1863955408" lon="2.9986790009">
        <ele>42.44</ele>
        <time>2017-08-02T07:37:37Z</time>
      </trkpt>
      <trkpt lat="43.1864322536" lon="2.9986996204">
        <ele>42.44</ele>
        <time>2017-08-02T07:37:38Z</time>
      </trkpt>
      <trkpt lat="43.1867888197" lon="2.9989289492">
        <ele>42.92</ele>
        <time>2017-08-02T07:37:49Z</time>
      </trkpt>
      <trkpt lat="43.1869459804" lon="2.9991380777">
        <ele>43.40</ele>
        <time>2017-08-02T07:37:56Z</time>
      </trkpt>
      <trkpt lat="43.1871012133" lon="2.9993619584">
        <ele>43.40</ele>
        <time>2017-08-02T07:38:03Z</time>
      </trkpt>
      <trkpt lat="43.1873655785" lon="2.9997251462">
        <ele>43.88</ele>
        <time>2017-08-02T07:38:13Z</time>
      </trkpt>
      <trkpt lat="43.1876215618" lon="3.0000470951">
        <ele>43.88</ele>
        <time>2017-08-02T07:38:22Z</time>
      </trkpt>
      <trkpt lat="43.1879870128" lon="3.0003503524">
        <ele>43.88</ele>
        <time>2017-08-02T07:38:34Z</time>
      </trkpt>
      <trkpt lat="43.1881730072" lon="3.0005140509">
        <ele>43.88</ele>
        <time>2017-08-02T07:38:44Z</time>
      </trkpt>
      <trkpt lat="43.1881712470" lon="3.0005081836">
        <ele>43.40</ele>
        <time>2017-08-02T07:38:54Z</time>
      </trkpt>
      <trkpt lat="43.1881701574" lon="3.0005125422">
        <ele>42.92</ele>
        <time>2017-08-02T07:39:20Z</time>
      </trkpt>
      <trkpt lat="43.1881711632" lon="3.0005121231">
        <ele>42.92</ele>
        <time>2017-08-02T07:39:38Z</time>
      </trkpt>
      <trkpt lat="43.1881803833" lon="3.0005083513">
        <ele>42.44</ele>
        <time>2017-08-02T07:40:04Z</time>
      </trkpt>
      <trkpt lat="43.1881858315" lon="3.0004924256">
        <ele>41.47</ele>
        <time>2017-08-02T07:40:38Z</time>
      </trkpt>
      <trkpt lat="43.1881802157" lon="3.0005026516">
        <ele>40.99</ele>
        <time>2017-08-02T07:41:10Z</time>
      </trkpt>
      <trkpt lat="43.1881704088" lon="3.0005001370">
        <ele>40.51</ele>
        <time>2017-08-02T07:41:30Z</time>
      </trkpt>
      <trkpt lat="43.1881865021" lon="3.0005116202">
        <ele>40.03</ele>
        <time>2017-08-02T07:41:53Z</time>
      </trkpt>
      <trkpt lat="43.1882018410" lon="3.0005166493">
        <ele>40.03</ele>
        <time>2017-08-02T07:41:54Z</time>
      </trkpt>
      <trkpt lat="43.1882227957" lon="3.0005212594">
        <ele>40.03</ele>
        <time>2017-08-02T07:41:55Z</time>
      </trkpt>
      <trkpt lat="43.1882547308" lon="3.0005224328">
        <ele>40.03</ele>
        <time>2017-08-02T07:41:56Z</time>
      </trkpt>
      <trkpt lat="43.1882899348" lon="3.0005253665">
        <ele>40.03</ele>
        <time>2017-08-02T07:41:57Z</time>
      </trkpt>
      <trkpt lat="43.1883620191" lon="3.0005469080">
        <ele>39.55</ele>
        <time>2017-08-02T07:41:59Z</time>
      </trkpt>
      <trkpt lat="43.1884041801" lon="3.0005688686">
        <ele>40.03</ele>
        <time>2017-08-02T07:42:00Z</time>
      </trkpt>
      <trkpt lat="43.1886646058" lon="3.0007503368">
        <ele>40.51</ele>
        <time>2017-08-02T07:42:06Z</time>
      </trkpt>
      <trkpt lat="43.1887724809" lon="3.0008660909">
        <ele>40.99</ele>
        <time>2017-08-02T07:42:09Z</time>
      </trkpt>
      <trkpt lat="43.1888027396" lon="3.0009140354">
        <ele>40.99</ele>
        <time>2017-08-02T07:42:10Z</time>
      </trkpt>
      <trkpt lat="43.1888609100" lon="3.0010056496">
        <ele>40.99</ele>
        <time>2017-08-02T07:42:12Z</time>
      </trkpt>
      <trkpt lat="43.1888952758" lon="3.0010465533">
        <ele>40.99</ele>
        <time>2017-08-02T07:42:13Z</time>
      </trkpt>
      <trkpt lat="43.1893566158" lon="3.0015271716">
        <ele>40.03</ele>
        <time>2017-08-02T07:42:25Z</time>
      </trkpt>
      <trkpt lat="43.1898740306" lon="3.0019580852">
        <ele>38.11</ele>
        <time>2017-08-02T07:42:36Z</time>
      </trkpt>
      <trkpt lat="43.1901950575" lon="3.0020309240">
        <ele>37.15</ele>
        <time>2017-08-02T07:42:42Z</time>
      </trkpt>
      <trkpt lat="43.1902495399" lon="3.0020531360">
        <ele>37.15</ele>
        <time>2017-08-02T07:42:43Z</time>
      </trkpt>
      <trkpt lat="43.1903995760" lon="3.0021375418">
        <ele>36.67</ele>
        <time>2017-08-02T07:42:46Z</time>
      </trkpt>
      <trkpt lat="43.1904443353" lon="3.0021667946">
        <ele>36.67</ele>
        <time>2017-08-02T07:42:47Z</time>
      </trkpt>
      <trkpt lat="43.1905966345" lon="3.0022583250">
        <ele>36.19</ele>
        <time>2017-08-02T07:42:52Z</time>
      </trkpt>
      <trkpt lat="43.1906213611" lon="3.0022403039">
        <ele>36.19</ele>
        <time>2017-08-02T07:42:54Z</time>
      </trkpt>
      <trkpt lat="43.1906463392" lon="3.0022335984">
        <ele>35.71</ele>
        <time>2017-08-02T07:43:02Z</time>
      </trkpt>
      <trkpt lat="43.1906366162" lon="3.0022237916">
        <ele>35.71</ele>
        <time>2017-08-02T07:43:18Z</time>
      </trkpt>
      <trkpt lat="43.1906403042" lon="3.0022188462">
        <ele>35.23</ele>
        <time>2017-08-02T07:43:41Z</time>
      </trkpt>
      <trkpt lat="43.1906347722" lon="3.0022170022">
        <ele>34.74</ele>
        <time>2017-08-02T07:44:14Z</time>
      </trkpt>
      <trkpt lat="43.1906246301" lon="3.0022093747">
        <ele>33.78</ele>
        <time>2017-08-02T07:44:50Z</time>
      </trkpt>
      <trkpt lat="43.1906222831" lon="3.0022146553">
        <ele>33.30</ele>
        <time>2017-08-02T07:45:23Z</time>
      </trkpt>
      <trkpt lat="43.1906360295" lon="3.0022215284">
        <ele>32.34</ele>
        <time>2017-08-02T07:45:52Z</time>
      </trkpt>
      <trkpt lat="43.1906445790" lon="3.0022095423">
        <ele>31.86</ele>
        <time>2017-08-02T07:46:23Z</time>
      </trkpt>
      <trkpt lat="43.1906544697" lon="3.0022204388">
        <ele>31.38</ele>
        <time>2017-08-02T07:46:50Z</time>
      </trkpt>
      <trkpt lat="43.1906610914" lon="3.0022163317">
        <ele>31.38</ele>
        <time>2017-08-02T07:47:19Z</time>
      </trkpt>
      <trkpt lat="43.1906180922" lon="3.0022276472">
        <ele>30.90</ele>
        <time>2017-08-02T07:47:38Z</time>
      </trkpt>
      <trkpt lat="43.1906184275" lon="3.0022461712">
        <ele>30.90</ele>
        <time>2017-08-02T07:47:51Z</time>
      </trkpt>
      <trkpt lat="43.1906193495" lon="3.0022690538">
        <ele>30.90</ele>
        <time>2017-08-02T07:47:52Z</time>
      </trkpt>
      <trkpt lat="43.1906214450" lon="3.0022963788">
        <ele>30.90</ele>
        <time>2017-08-02T07:47:53Z</time>
      </trkpt>
      <trkpt lat="43.1906289048" lon="3.0023299903">
        <ele>30.90</ele>
        <time>2017-08-02T07:47:54Z</time>
      </trkpt>
      <trkpt lat="43.1906401366" lon="3.0023681279">
        <ele>30.90</ele>
        <time>2017-08-02T07:47:55Z</time>
      </trkpt>
      <trkpt lat="43.1906584091" lon="3.0024040863">
        <ele>30.90</ele>
        <time>2017-08-02T07:47:56Z</time>
      </trkpt>
      <trkpt lat="43.1910060067" lon="3.0028367601">
        <ele>30.90</ele>
        <time>2017-08-02T07:48:09Z</time>
      </trkpt>
      <trkpt lat="43.1912740599" lon="3.0031540152">
        <ele>30.42</ele>
        <time>2017-08-02T07:48:19Z</time>
      </trkpt>
      <trkpt lat="43.1915979367" lon="3.0035534129">
        <ele>30.42</ele>
        <time>2017-08-02T07:48:31Z</time>
      </trkpt>
      <trkpt lat="43.1918793172" lon="3.0039104819">
        <ele>30.90</ele>
        <time>2017-08-02T07:48:41Z</time>
      </trkpt>
      <trkpt lat="43.1922508869" lon="3.0043547228">
        <ele>30.90</ele>
        <time>2017-08-02T07:48:53Z</time>
      </trkpt>
      <trkpt lat="43.1923420820" lon="3.0044708122">
        <ele>30.90</ele>
        <time>2017-08-02T07:48:56Z</time>
      </trkpt>
      <trkpt lat="43.1923726760" lon="3.0045057647">
        <ele>30.90</ele>
        <time>2017-08-02T07:48:57Z</time>
      </trkpt>
      <trkpt lat="43.1926268153" lon="3.0049262848">
        <ele>31.38</ele>
        <time>2017-08-02T07:49:08Z</time>
      </trkpt>
      <trkpt lat="43.1928559765" lon="3.0055545084">
        <ele>32.82</ele>
        <time>2017-08-02T07:49:23Z</time>
      </trkpt>
      <trkpt lat="43.1930493470" lon="3.0060676485">
        <ele>33.30</ele>
        <time>2017-08-02T07:49:35Z</time>
      </trkpt>
      <trkpt lat="43.1932402868" lon="3.0068479199">
        <ele>33.30</ele>
        <time>2017-08-02T07:49:50Z</time>
      </trkpt>
      <trkpt lat="43.1932816096" lon="3.0069973692">
        <ele>33.30</ele>
        <time>2017-08-02T07:49:53Z</time>
      </trkpt>
      <trkpt lat="43.1933100242" lon="3.0071045738">
        <ele>33.30</ele>
        <time>2017-08-02T07:49:55Z</time>
      </trkpt>
      <trkpt lat="43.1934127025" lon="3.0074360780">
        <ele>32.82</ele>
        <time>2017-08-02T07:50:01Z</time>
      </trkpt>
      <trkpt lat="43.1934300531" lon="3.0074893869">
        <ele>33.30</ele>
        <time>2017-08-02T07:50:02Z</time>
      </trkpt>
      <trkpt lat="43.1935055740" lon="3.0077047180">
        <ele>32.82</ele>
        <time>2017-08-02T07:50:06Z</time>
      </trkpt>
      <trkpt lat="43.1935268641" lon="3.0077599548">
        <ele>33.30</ele>
        <time>2017-08-02T07:50:07Z</time>
      </trkpt>
      <trkpt lat="43.1937661674" lon="3.0082895234">
        <ele>32.82</ele>
        <time>2017-08-02T07:50:17Z</time>
      </trkpt>
      <trkpt lat="43.1942337938" lon="3.0091477465">
        <ele>32.34</ele>
        <time>2017-08-02T07:50:34Z</time>
      </trkpt>
      <trkpt lat="43.1946227979" lon="3.0097921472">
        <ele>32.34</ele>
        <time>2017-08-02T07:50:47Z</time>
      </trkpt>
      <trkpt lat="43.1948851515" lon="3.0102311913">
        <ele>32.34</ele>
        <time>2017-08-02T07:50:56Z</time>
      </trkpt>
      <trkpt lat="43.1953695416" lon="3.0108438246">
        <ele>32.34</ele>
        <time>2017-08-02T07:51:10Z</time>
      </trkpt>
      <trkpt lat="43.1959271897" lon="3.0114968587">
        <ele>30.90</ele>
        <time>2017-08-02T07:51:25Z</time>
      </trkpt>
      <trkpt lat="43.1964510586" lon="3.0121094920">
        <ele>30.42</ele>
        <time>2017-08-02T07:51:39Z</time>
      </trkpt>
      <trkpt lat="43.1969397236" lon="3.0126853287">
        <ele>29.94</ele>
        <time>2017-08-02T07:51:52Z</time>
      </trkpt>
      <trkpt lat="43.1971459184" lon="3.0128906015">
        <ele>30.42</ele>
        <time>2017-08-02T07:51:58Z</time>
      </trkpt>
      <trkpt lat="43.1971852295" lon="3.0129159149">
        <ele>30.42</ele>
        <time>2017-08-02T07:51:59Z</time>
      </trkpt>
      <trkpt lat="43.1974732317" lon="3.0130662862">
        <ele>29.46</ele>
        <time>2017-08-02T07:52:05Z</time>
      </trkpt>
      <trkpt lat="43.1975246128" lon="3.0130939465">
        <ele>29.46</ele>
        <time>2017-08-02T07:52:06Z</time>
      </trkpt>
      <trkpt lat="43.1979041453" lon="3.0132501852">
        <ele>28.50</ele>
        <time>2017-08-02T07:52:13Z</time>
      </trkpt>
      <trkpt lat="43.1984462868" lon="3.0133640952">
        <ele>28.50</ele>
        <time>2017-08-02T07:52:23Z</time>
      </trkpt>
      <trkpt lat="43.1985034514" lon="3.0133511033">
        <ele>28.50</ele>
        <time>2017-08-02T07:52:24Z</time>
      </trkpt>
      <trkpt lat="43.1990206987" lon="3.0132239498">
        <ele>28.02</ele>
        <time>2017-08-02T07:52:34Z</time>
      </trkpt>
      <trkpt lat="43.1990676373" lon="3.0132117122">
        <ele>28.50</ele>
        <time>2017-08-02T07:52:35Z</time>
      </trkpt>
      <trkpt lat="43.1991119776" lon="3.0132008158">
        <ele>28.02</ele>
        <time>2017-08-02T07:52:36Z</time>
      </trkpt>
      <trkpt lat="43.1994525343" lon="3.0130999815">
        <ele>27.53</ele>
        <time>2017-08-02T07:52:44Z</time>
      </trkpt>
      <trkpt lat="43.1994931027" lon="3.0130688846">
        <ele>27.53</ele>
        <time>2017-08-02T07:52:45Z</time>
      </trkpt>
      <trkpt lat="43.1996526942" lon="3.0129297450">
        <ele>27.53</ele>
        <time>2017-08-02T07:52:49Z</time>
      </trkpt>
      <trkpt lat="43.1996892393" lon="3.0128873326">
        <ele>27.53</ele>
        <time>2017-08-02T07:52:50Z</time>
      </trkpt>
      <trkpt lat="43.1999639980" lon="3.0126037728">
        <ele>28.02</ele>
        <time>2017-08-02T07:52:58Z</time>
      </trkpt>
      <trkpt lat="43.2000024710" lon="3.0125844944">
        <ele>28.50</ele>
        <time>2017-08-02T07:52:59Z</time>
      </trkpt>
      <trkpt lat="43.2000420336" lon="3.0125731789">
        <ele>28.50</ele>
        <time>2017-08-02T07:53:00Z</time>
      </trkpt>
      <trkpt lat="43.2000823505" lon="3.0125703290">
        <ele>28.50</ele>
        <time>2017-08-02T07:53:01Z</time>
      </trkpt>
      <trkpt lat="43.2001236733" lon="3.0125785433">
        <ele>28.50</ele>
        <time>2017-08-02T07:53:02Z</time>
      </trkpt>
      <trkpt lat="43.2001642417" lon="3.0125984922">
        <ele>28.50</ele>
        <time>2017-08-02T07:53:03Z</time>
      </trkpt>
      <trkpt lat="43.2002033014" lon="3.0126233865">
        <ele>28.98</ele>
        <time>2017-08-02T07:53:04Z</time>
      </trkpt>
      <trkpt lat="43.2002841868" lon="3.0126622785">
        <ele>28.98</ele>
        <time>2017-08-02T07:53:06Z</time>
      </trkpt>
      <trkpt lat="43.2003262639" lon="3.0126715824">
        <ele>28.98</ele>
        <time>2017-08-02T07:53:07Z</time>
      </trkpt>
      <trkpt lat="43.2003690116" lon="3.0126758572">
        <ele>28.98</ele>
        <time>2017-08-02T07:53:08Z</time>
      </trkpt>
      <trkpt lat="43.2004545908" lon="3.0126698222">
        <ele>28.98</ele>
        <time>2017-08-02T07:53:10Z</time>
      </trkpt>
      <trkpt lat="43.2004968356" lon="3.0126492027">
        <ele>28.98</ele>
        <time>2017-08-02T07:53:11Z</time>
      </trkpt>
      <trkpt lat="43.2005389128" lon="3.0126218777">
        <ele>29.46</ele>
        <time>2017-08-02T07:53:12Z</time>
      </trkpt>
      <trkpt lat="43.2005793974" lon="3.0125865899">
        <ele>29.46</ele>
        <time>2017-08-02T07:53:13Z</time>
      </trkpt>
      <trkpt lat="43.2006158587" lon="3.0125414953">
        <ele>28.98</ele>
        <time>2017-08-02T07:53:14Z</time>
      </trkpt>
      <trkpt lat="43.2006540801" lon="3.0124914553">
        <ele>28.98</ele>
        <time>2017-08-02T07:53:15Z</time>
      </trkpt>
      <trkpt lat="43.2006928045" lon="3.0124435946">
        <ele>28.98</ele>
        <time>2017-08-02T07:53:16Z</time>
      </trkpt>
      <trkpt lat="43.2007359713" lon="3.0124018528">
        <ele>28.50</ele>
        <time>2017-08-02T07:53:17Z</time>
      </trkpt>
      <trkpt lat="43.2007870171" lon="3.0123701692">
        <ele>28.50</ele>
        <time>2017-08-02T07:53:18Z</time>
      </trkpt>
      <trkpt lat="43.2008430921" lon="3.0123515613">
        <ele>28.50</ele>
        <time>2017-08-02T07:53:19Z</time>
      </trkpt>
      <trkpt lat="43.2009047829" lon="3.0123455264">
        <ele>28.50</ele>
        <time>2017-08-02T07:53:20Z</time>
      </trkpt>
      <trkpt lat="43.2009658869" lon="3.0123480409">
        <ele>28.50</ele>
        <time>2017-08-02T07:53:21Z</time>
      </trkpt>
      <trkpt lat="43.2010259014" lon="3.0123565067">
        <ele>28.02</ele>
        <time>2017-08-02T07:53:22Z</time>
      </trkpt>
      <trkpt lat="43.2010854967" lon="3.0123687442">
        <ele>28.02</ele>
        <time>2017-08-02T07:53:23Z</time>
      </trkpt>
      <trkpt lat="43.2014299929" lon="3.0123600271">
        <ele>27.53</ele>
        <time>2017-08-02T07:53:29Z</time>
      </trkpt>
      <trkpt lat="43.2021282054" lon="3.0120903812">
        <ele>27.05</ele>
        <time>2017-08-02T07:53:42Z</time>
      </trkpt>
      <trkpt lat="43.2029078901" lon="3.0118896347">
        <ele>27.53</ele>
        <time>2017-08-02T07:53:57Z</time>
      </trkpt>
      <trkpt lat="43.2036505267" lon="3.0117175542">
        <ele>27.53</ele>
        <time>2017-08-02T07:54:11Z</time>
      </trkpt>
      <trkpt lat="43.2044799160" lon="3.0115836114">
        <ele>27.05</ele>
        <time>2017-08-02T07:54:26Z</time>
      </trkpt>
      <trkpt lat="43.2051510550" lon="3.0115538556">
        <ele>27.53</ele>
        <time>2017-08-02T07:54:38Z</time>
      </trkpt>
      <trkpt lat="43.2057946175" lon="3.0115522631">
        <ele>27.05</ele>
        <time>2017-08-02T07:54:50Z</time>
      </trkpt>
      <trkpt lat="43.2067014556" lon="3.0117131118">
        <ele>26.57</ele>
        <time>2017-08-02T07:55:07Z</time>
      </trkpt>
      <trkpt lat="43.2072374783" lon="3.0118379183">
        <ele>26.57</ele>
        <time>2017-08-02T07:55:18Z</time>
      </trkpt>
      <trkpt lat="43.2079164125" lon="3.0119592883">
        <ele>26.57</ele>
        <time>2017-08-02T07:55:32Z</time>
      </trkpt>
      <trkpt lat="43.2085014693" lon="3.0122200493">
        <ele>26.09</ele>
        <time>2017-08-02T07:55:44Z</time>
      </trkpt>
      <trkpt lat="43.2089366578" lon="3.0125720054">
        <ele>26.57</ele>
        <time>2017-08-02T07:55:54Z</time>
      </trkpt>
      <trkpt lat="43.2095374726" lon="3.0126855802">
        <ele>26.09</ele>
        <time>2017-08-02T07:56:06Z</time>
      </trkpt>
      <trkpt lat="43.2102694642" lon="3.0127952993">
        <ele>26.09</ele>
        <time>2017-08-02T07:56:20Z</time>
      </trkpt>
      <trkpt lat="43.2110582013" lon="3.0128616001">
        <ele>26.09</ele>
        <time>2017-08-02T07:56:35Z</time>
      </trkpt>
      <trkpt lat="43.2117347047" lon="3.0127834808">
        <ele>25.61</ele>
        <time>2017-08-02T07:56:48Z</time>
      </trkpt>
      <trkpt lat="43.2123852242" lon="3.0125840753">
        <ele>25.61</ele>
        <time>2017-08-02T07:57:01Z</time>
      </trkpt>
      <trkpt lat="43.2129415311" lon="3.0123049580">
        <ele>25.61</ele>
        <time>2017-08-02T07:57:12Z</time>
      </trkpt>
      <trkpt lat="43.2135892008" lon="3.0119672511">
        <ele>25.61</ele>
        <time>2017-08-02T07:57:25Z</time>
      </trkpt>
      <trkpt lat="43.2144047599" lon="3.0115919095">
        <ele>25.61</ele>
        <time>2017-08-02T07:57:41Z</time>
      </trkpt>
      <trkpt lat="43.2150795870" lon="3.0113332439">
        <ele>25.61</ele>
        <time>2017-08-02T07:57:54Z</time>
      </trkpt>
      <trkpt lat="43.2154530007" lon="3.0112203397">
        <ele>25.13</ele>
        <time>2017-08-02T07:58:01Z</time>
      </trkpt>
      <trkpt lat="43.2162438333" lon="3.0112169031">
        <ele>25.61</ele>
        <time>2017-08-02T07:58:16Z</time>
      </trkpt>
      <trkpt lat="43.2169873081" lon="3.0113715492">
        <ele>25.61</ele>
        <time>2017-08-02T07:58:31Z</time>
      </trkpt>
      <trkpt lat="43.2170824427" lon="3.0113836192">
        <ele>26.09</ele>
        <time>2017-08-02T07:58:33Z</time>
      </trkpt>
      <trkpt lat="43.2171306387" lon="3.0113866366">
        <ele>26.09</ele>
        <time>2017-08-02T07:58:34Z</time>
      </trkpt>
      <trkpt lat="43.2177623827" lon="3.0113951862">
        <ele>26.09</ele>
        <time>2017-08-02T07:58:47Z</time>
      </trkpt>
      <trkpt lat="43.2183011714" lon="3.0113305617">
        <ele>25.61</ele>
        <time>2017-08-02T07:58:57Z</time>
      </trkpt>
      <trkpt lat="43.2188996393" lon="3.0111885723">
        <ele>25.61</ele>
        <time>2017-08-02T07:59:08Z</time>
      </trkpt>
      <trkpt lat="43.2189563848" lon="3.0111774243">
        <ele>25.61</ele>
        <time>2017-08-02T07:59:09Z</time>
      </trkpt>
      <trkpt lat="43.2196304575" lon="3.0109155737">
        <ele>26.09</ele>
        <time>2017-08-02T07:59:22Z</time>
      </trkpt>
      <trkpt lat="43.2196785696" lon="3.0108862370">
        <ele>26.09</ele>
        <time>2017-08-02T07:59:23Z</time>
      </trkpt>
      <trkpt lat="43.2202316076" lon="3.0103622843">
        <ele>26.57</ele>
        <time>2017-08-02T07:59:36Z</time>
      </trkpt>
      <trkpt lat="43.2208719850" lon="3.0096029676">
        <ele>26.09</ele>
        <time>2017-08-02T07:59:51Z</time>
      </trkpt>
      <trkpt lat="43.2214329857" lon="3.0091967806">
        <ele>26.09</ele>
        <time>2017-08-02T08:00:02Z</time>
      </trkpt>
      <trkpt lat="43.2221488841" lon="3.0088527035">
        <ele>26.09</ele>
        <time>2017-08-02T08:00:16Z</time>
      </trkpt>
      <trkpt lat="43.2228278182" lon="3.0084727518">
        <ele>26.09</ele>
        <time>2017-08-02T08:00:30Z</time>
      </trkpt>
      <trkpt lat="43.2234060019" lon="3.0079873558">
        <ele>26.57</ele>
        <time>2017-08-02T08:00:44Z</time>
      </trkpt>
      <trkpt lat="43.2239918970" lon="3.0074386764">
        <ele>27.05</ele>
        <time>2017-08-02T08:00:59Z</time>
      </trkpt>
      <trkpt lat="43.2245874312" lon="3.0069622491">
        <ele>27.05</ele>
        <time>2017-08-02T08:01:13Z</time>
      </trkpt>
      <trkpt lat="43.2249791175" lon="3.0067035835">
        <ele>27.05</ele>
        <time>2017-08-02T08:01:22Z</time>
      </trkpt>
      <trkpt lat="43.2253669482" lon="3.0064402241">
        <ele>27.05</ele>
        <time>2017-08-02T08:01:31Z</time>
      </trkpt>
      <trkpt lat="43.2258042321" lon="3.0061630346">
        <ele>27.05</ele>
        <time>2017-08-02T08:01:41Z</time>
      </trkpt>
      <trkpt lat="43.2263143547" lon="3.0058493000">
        <ele>27.53</ele>
        <time>2017-08-02T08:01:52Z</time>
      </trkpt>
      <trkpt lat="43.2267302647" lon="3.0055845156">
        <ele>27.05</ele>
        <time>2017-08-02T08:02:01Z</time>
      </trkpt>
      <trkpt lat="43.2274472527" lon="3.0051337369">
        <ele>27.05</ele>
        <time>2017-08-02T08:02:17Z</time>
      </trkpt>
      <trkpt lat="43.2275451533" lon="3.0050848704">
        <ele>26.57</ele>
        <time>2017-08-02T08:02:19Z</time>
      </trkpt>
      <trkpt lat="43.2281642407" lon="3.0047799367">
        <ele>26.57</ele>
        <time>2017-08-02T08:02:30Z</time>
      </trkpt>
      <trkpt lat="43.2290067058" lon="3.0043982249">
        <ele>26.09</ele>
        <time>2017-08-02T08:02:47Z</time>
      </trkpt>
      <trkpt lat="43.2296214346" lon="3.0041266512">
        <ele>26.09</ele>
        <time>2017-08-02T08:03:00Z</time>
      </trkpt>
      <trkpt lat="43.2303518336" lon="3.0038083065">
        <ele>26.09</ele>
        <time>2017-08-02T08:03:16Z</time>
      </trkpt>
      <trkpt lat="43.2310597692" lon="3.0034825020">
        <ele>26.09</ele>
        <time>2017-08-02T08:03:32Z</time>
      </trkpt>
      <trkpt lat="43.2318158168" lon="3.0031427834">
        <ele>25.61</ele>
        <time>2017-08-02T08:03:49Z</time>
      </trkpt>
      <trkpt lat="43.2326021232" lon="3.0027852114">
        <ele>25.61</ele>
        <time>2017-08-02T08:04:06Z</time>
      </trkpt>
      <trkpt lat="43.2332396507" lon="3.0025166553">
        <ele>25.13</ele>
        <time>2017-08-02T08:04:19Z</time>
      </trkpt>
      <trkpt lat="43.2341003884" lon="3.0021315906">
        <ele>25.13</ele>
        <time>2017-08-02T08:04:36Z</time>
      </trkpt>
      <trkpt lat="43.2348835934" lon="3.0017606914">
        <ele>25.13</ele>
        <time>2017-08-02T08:04:52Z</time>
      </trkpt>
      <trkpt lat="43.2357153296" lon="3.0013703462">
        <ele>24.65</ele>
        <time>2017-08-02T08:05:09Z</time>
      </trkpt>
      <trkpt lat="43.2365688588" lon="3.0009828508">
        <ele>24.65</ele>
        <time>2017-08-02T08:05:26Z</time>
      </trkpt>
      <trkpt lat="43.2373729348" lon="3.0006209202">
        <ele>24.65</ele>
        <time>2017-08-02T08:05:43Z</time>
      </trkpt>
      <trkpt lat="43.2381452434" lon="3.0002729874">
        <ele>25.13</ele>
        <time>2017-08-02T08:05:59Z</time>
      </trkpt>
      <trkpt lat="43.2387126982" lon="3.0000236258">
        <ele>24.65</ele>
        <time>2017-08-02T08:06:11Z</time>
      </trkpt>
      <trkpt lat="43.2394061331" lon="2.9997096397">
        <ele>24.65</ele>
        <time>2017-08-02T08:06:25Z</time>
      </trkpt>
      <trkpt lat="43.2399283256" lon="2.9993365612">
        <ele>25.61</ele>
        <time>2017-08-02T08:06:36Z</time>
      </trkpt>
      <trkpt lat="43.2400180958" lon="2.9992875271">
        <ele>26.09</ele>
        <time>2017-08-02T08:06:38Z</time>
      </trkpt>
      <trkpt lat="43.2400618494" lon="2.9992709309">
        <ele>26.09</ele>
        <time>2017-08-02T08:06:39Z</time>
      </trkpt>
      <trkpt lat="43.2404690422" lon="2.9992516525">
        <ele>28.02</ele>
        <time>2017-08-02T08:06:49Z</time>
      </trkpt>
      <trkpt lat="43.2410636544" lon="2.9992859345">
        <ele>28.02</ele>
        <time>2017-08-02T08:07:03Z</time>
      </trkpt>
      <trkpt lat="43.2416287623" lon="2.9993239883">
        <ele>25.61</ele>
        <time>2017-08-02T08:07:12Z</time>
      </trkpt>
      <trkpt lat="43.2424811181" lon="2.9993638862">
        <ele>23.69</ele>
        <time>2017-08-02T08:07:25Z</time>
      </trkpt>
      <trkpt lat="43.2430742215" lon="2.9994071368">
        <ele>22.73</ele>
        <time>2017-08-02T08:07:35Z</time>
      </trkpt>
      <trkpt lat="43.2435574383" lon="2.9993996769">
        <ele>22.73</ele>
        <time>2017-08-02T08:07:46Z</time>
      </trkpt>
      <trkpt lat="43.2438636292" lon="2.9994241521">
        <ele>22.25</ele>
        <time>2017-08-02T08:07:57Z</time>
      </trkpt>
      <trkpt lat="43.2441679761" lon="2.9994452745">
        <ele>22.73</ele>
        <time>2017-08-02T08:08:07Z</time>
      </trkpt>
      <trkpt lat="43.2442426588" lon="2.9994295165">
        <ele>22.73</ele>
        <time>2017-08-02T08:08:09Z</time>
      </trkpt>
      <trkpt lat="43.2442776952" lon="2.9994002637">
        <ele>22.25</ele>
        <time>2017-08-02T08:08:10Z</time>
      </trkpt>
      <trkpt lat="43.2443017513" lon="2.9993601982">
        <ele>22.25</ele>
        <time>2017-08-02T08:08:11Z</time>
      </trkpt>
      <trkpt lat="43.2443159167" lon="2.9993116669">
        <ele>22.25</ele>
        <time>2017-08-02T08:08:12Z</time>
      </trkpt>
      <trkpt lat="43.2443223707" lon="2.9992596153">
        <ele>22.25</ele>
        <time>2017-08-02T08:08:13Z</time>
      </trkpt>
      <trkpt lat="43.2443284057" lon="2.9992021993">
        <ele>22.25</ele>
        <time>2017-08-02T08:08:14Z</time>
      </trkpt>
      <trkpt lat="43.2443665434" lon="2.9985220078">
        <ele>22.73</ele>
        <time>2017-08-02T08:08:25Z</time>
      </trkpt>
      <trkpt lat="43.2444178406" lon="2.9976118170">
        <ele>22.73</ele>
        <time>2017-08-02T08:08:40Z</time>
      </trkpt>
      <trkpt lat="43.2444164157" lon="2.9974948056">
        <ele>22.73</ele>
        <time>2017-08-02T08:08:43Z</time>
      </trkpt>
      <trkpt lat="43.2443958800" lon="2.9974711686">
        <ele>22.73</ele>
        <time>2017-08-02T08:08:44Z</time>
      </trkpt>
      <trkpt lat="43.2443665434" lon="2.9974565003">
        <ele>22.73</ele>
        <time>2017-08-02T08:08:45Z</time>
      </trkpt>
      <trkpt lat="43.2440703269" lon="2.9973873496">
        <ele>22.73</ele>
        <time>2017-08-02T08:08:53Z</time>
      </trkpt>
      <trkpt lat="43.2439198717" lon="2.9973726813">
        <ele>23.21</ele>
        <time>2017-08-02T08:08:57Z</time>
      </trkpt>
      <trkpt lat="43.2438770402" lon="2.9973649699">
        <ele>22.73</ele>
        <time>2017-08-02T08:08:58Z</time>
      </trkpt>
      <trkpt lat="43.2438888587" lon="2.9973022733">
        <ele>23.21</ele>
        <time>2017-08-02T08:08:59Z</time>
      </trkpt>
      <trkpt lat="43.2439091429" lon="2.9972336255">
        <ele>23.21</ele>
        <time>2017-08-02T08:09:00Z</time>
      </trkpt>
      <trkpt lat="43.2439209614" lon="2.9971787240">
        <ele>22.73</ele>
        <time>2017-08-02T08:09:01Z</time>
      </trkpt>
      <trkpt lat="43.2439337019" lon="2.9971245769">
        <ele>23.21</ele>
        <time>2017-08-02T08:09:02Z</time>
      </trkpt>
      <trkpt lat="43.2439607754" lon="2.9966094252">
        <ele>22.73</ele>
        <time>2017-08-02T08:09:12Z</time>
      </trkpt>
      <trkpt lat="43.2439542376" lon="2.9963391926">
        <ele>22.73</ele>
        <time>2017-08-02T08:09:17Z</time>
      </trkpt>
      <trkpt lat="43.2439594343" lon="2.9962831177">
        <ele>22.73</ele>
        <time>2017-08-02T08:09:18Z</time>
      </trkpt>
      <trkpt lat="43.2439566683" lon="2.9956754297">
        <ele>22.25</ele>
        <time>2017-08-02T08:09:29Z</time>
      </trkpt>
      <trkpt lat="43.2438950613" lon="2.9949709307">
        <ele>21.77</ele>
        <time>2017-08-02T08:09:42Z</time>
      </trkpt>
      <trkpt lat="43.2437798940" lon="2.9944665078">
        <ele>21.77</ele>
        <time>2017-08-02T08:09:52Z</time>
      </trkpt>
      <trkpt lat="43.2437714282" lon="2.9937417246">
        <ele>21.77</ele>
        <time>2017-08-02T08:10:04Z</time>
      </trkpt>
      <trkpt lat="43.2437876053" lon="2.9931394011">
        <ele>21.77</ele>
        <time>2017-08-02T08:10:14Z</time>
      </trkpt>
      <trkpt lat="43.2437897846" lon="2.9927697591">
        <ele>21.77</ele>
        <time>2017-08-02T08:10:20Z</time>
      </trkpt>
      <trkpt lat="43.2437868509" lon="2.9925310425">
        <ele>21.77</ele>
        <time>2017-08-02T08:10:24Z</time>
      </trkpt>
      <trkpt lat="43.2438964862" lon="2.9918363504">
        <ele>21.77</ele>
        <time>2017-08-02T08:10:36Z</time>
      </trkpt>
      <trkpt lat="43.2441167627" lon="2.9909054562">
        <ele>21.77</ele>
        <time>2017-08-02T08:10:52Z</time>
      </trkpt>
      <trkpt lat="43.2442606799" lon="2.9899303056">
        <ele>21.77</ele>
        <time>2017-08-02T08:11:08Z</time>
      </trkpt>
      <trkpt lat="43.2443310879" lon="2.9894289840">
        <ele>21.77</ele>
        <time>2017-08-02T08:11:16Z</time>
      </trkpt>
      <trkpt lat="43.2444952056" lon="2.9887640476">
        <ele>21.77</ele>
        <time>2017-08-02T08:11:27Z</time>
      </trkpt>
      <trkpt lat="43.2448061742" lon="2.9882027116">
        <ele>21.77</ele>
        <time>2017-08-02T08:11:38Z</time>
      </trkpt>
      <trkpt lat="43.2448676974" lon="2.9881115165">
        <ele>23.21</ele>
        <time>2017-08-02T08:11:40Z</time>
      </trkpt>
      <trkpt lat="43.2449938450" lon="2.9879410286">
        <ele>22.73</ele>
        <time>2017-08-02T08:11:44Z</time>
      </trkpt>
      <trkpt lat="43.2453642413" lon="2.9874317441">
        <ele>21.77</ele>
        <time>2017-08-02T08:11:57Z</time>
      </trkpt>
      <trkpt lat="43.2456033770" lon="2.9871031735">
        <ele>21.77</ele>
        <time>2017-08-02T08:12:04Z</time>
      </trkpt>
      <trkpt lat="43.2456405926" lon="2.9870602582">
        <ele>21.77</ele>
        <time>2017-08-02T08:12:05Z</time>
      </trkpt>
      <trkpt lat="43.2460850850" lon="2.9864922166">
        <ele>22.25</ele>
        <time>2017-08-02T08:12:18Z</time>
      </trkpt>
      <trkpt lat="43.2465627696" lon="2.9858768173">
        <ele>22.25</ele>
        <time>2017-08-02T08:12:32Z</time>
      </trkpt>
      <trkpt lat="43.2470149733" lon="2.9852396250">
        <ele>22.25</ele>
        <time>2017-08-02T08:12:46Z</time>
      </trkpt>
      <trkpt lat="43.2472594734" lon="2.9846996628">
        <ele>22.25</ele>
        <time>2017-08-02T08:12:56Z</time>
      </trkpt>
      <trkpt lat="43.2473074179" lon="2.9842627980">
        <ele>22.25</ele>
        <time>2017-08-02T08:13:03Z</time>
      </trkpt>
      <trkpt lat="43.2473051548" lon="2.9833673593">
        <ele>22.73</ele>
        <time>2017-08-02T08:13:17Z</time>
      </trkpt>
      <trkpt lat="43.2473125309" lon="2.9823129997">
        <ele>23.21</ele>
        <time>2017-08-02T08:13:33Z</time>
      </trkpt>
      <trkpt lat="43.2473929971" lon="2.9817622248">
        <ele>22.73</ele>
        <time>2017-08-02T08:13:42Z</time>
      </trkpt>
      <trkpt lat="43.2474142872" lon="2.9817082454">
        <ele>23.21</ele>
        <time>2017-08-02T08:13:43Z</time>
      </trkpt>
      <trkpt lat="43.2476774789" lon="2.9809962865">
        <ele>22.73</ele>
        <time>2017-08-02T08:13:56Z</time>
      </trkpt>
      <trkpt lat="43.2478688378" lon="2.9804339446">
        <ele>22.73</ele>
        <time>2017-08-02T08:14:06Z</time>
      </trkpt>
      <trkpt lat="43.2478892058" lon="2.9803787917">
        <ele>23.21</ele>
        <time>2017-08-02T08:14:07Z</time>
      </trkpt>
      <trkpt lat="43.2479061373" lon="2.9803208727">
        <ele>23.21</ele>
        <time>2017-08-02T08:14:08Z</time>
      </trkpt>
      <trkpt lat="43.2480702549" lon="2.9795077443">
        <ele>22.73</ele>
        <time>2017-08-02T08:14:21Z</time>
      </trkpt>
      <trkpt lat="43.2480942272" lon="2.9793800041">
        <ele>22.73</ele>
        <time>2017-08-02T08:14:23Z</time>
      </trkpt>
      <trkpt lat="43.2481072191" lon="2.9793171398">
        <ele>23.21</ele>
        <time>2017-08-02T08:14:24Z</time>
      </trkpt>
      <trkpt lat="43.2483359613" lon="2.9785894230">
        <ele>22.73</ele>
        <time>2017-08-02T08:14:36Z</time>
      </trkpt>
      <trkpt lat="43.2483683154" lon="2.9785434064">
        <ele>22.73</ele>
        <time>2017-08-02T08:14:37Z</time>
      </trkpt>
      <trkpt lat="43.2484070398" lon="2.9785040952">
        <ele>22.25</ele>
        <time>2017-08-02T08:14:38Z</time>
      </trkpt>
      <trkpt lat="43.2484475244" lon="2.9784655385">
        <ele>22.73</ele>
        <time>2017-08-02T08:14:39Z</time>
      </trkpt>
      <trkpt lat="43.2484870031" lon="2.9784224555">
        <ele>22.25</ele>
        <time>2017-08-02T08:14:40Z</time>
      </trkpt>
      <trkpt lat="43.2485237997" lon="2.9783774447">
        <ele>22.25</ele>
        <time>2017-08-02T08:14:41Z</time>
      </trkpt>
      <trkpt lat="43.2485942915" lon="2.9782895185">
        <ele>22.25</ele>
        <time>2017-08-02T08:14:43Z</time>
      </trkpt>
      <trkpt lat="43.2486265618" lon="2.9782388080">
        <ele>22.73</ele>
        <time>2017-08-02T08:14:44Z</time>
      </trkpt>
      <trkpt lat="43.2487352751" lon="2.9780188669">
        <ele>22.25</ele>
        <time>2017-08-02T08:14:48Z</time>
      </trkpt>
      <trkpt lat="43.2487558946" lon="2.9779617023">
        <ele>22.73</ele>
        <time>2017-08-02T08:14:49Z</time>
      </trkpt>
      <trkpt lat="43.2488066051" lon="2.9778314475">
        <ele>22.25</ele>
        <time>2017-08-02T08:14:51Z</time>
      </trkpt>
      <trkpt lat="43.2488958724" lon="2.9775819182">
        <ele>22.25</ele>
        <time>2017-08-02T08:14:55Z</time>
      </trkpt>
      <trkpt lat="43.2489055116" lon="2.9775224067">
        <ele>22.25</ele>
        <time>2017-08-02T08:14:56Z</time>
      </trkpt>
      <trkpt lat="43.2489096187" lon="2.9774642363">
        <ele>22.25</ele>
        <time>2017-08-02T08:14:57Z</time>
      </trkpt>
      <trkpt lat="43.2489181682" lon="2.9774035513">
        <ele>22.25</ele>
        <time>2017-08-02T08:14:58Z</time>
      </trkpt>
      <trkpt lat="43.2489295676" lon="2.9773432855">
        <ele>22.25</ele>
        <time>2017-08-02T08:14:59Z</time>
      </trkpt>
      <trkpt lat="43.2489427272" lon="2.9772837739">
        <ele>22.25</ele>
        <time>2017-08-02T08:15:00Z</time>
      </trkpt>
      <trkpt lat="43.2489637658" lon="2.9772255197">
        <ele>22.25</ele>
        <time>2017-08-02T08:15:01Z</time>
      </trkpt>
      <trkpt lat="43.2490074355" lon="2.9771158844">
        <ele>22.25</ele>
        <time>2017-08-02T08:15:03Z</time>
      </trkpt>
      <trkpt lat="43.2490251213" lon="2.9770620726">
        <ele>22.25</ele>
        <time>2017-08-02T08:15:04Z</time>
      </trkpt>
      <trkpt lat="43.2490486745" lon="2.9770097695">
        <ele>22.25</ele>
        <time>2017-08-02T08:15:05Z</time>
      </trkpt>
      <trkpt lat="43.2490851358" lon="2.9769163113">
        <ele>22.25</ele>
        <time>2017-08-02T08:15:07Z</time>
      </trkpt>
      <trkpt lat="43.2490967866" lon="2.9768661037">
        <ele>22.25</ele>
        <time>2017-08-02T08:15:08Z</time>
      </trkpt>
      <trkpt lat="43.2491974533" lon="2.9765423946">
        <ele>22.25</ele>
        <time>2017-08-02T08:15:14Z</time>
      </trkpt>
      <trkpt lat="43.2492208388" lon="2.9764841404">
        <ele>22.25</ele>
        <time>2017-08-02T08:15:15Z</time>
      </trkpt>
      <trkpt lat="43.2492993772" lon="2.9763269797">
        <ele>22.25</ele>
        <time>2017-08-02T08:15:18Z</time>
      </trkpt>
      <trkpt lat="43.2493256126" lon="2.9762718268">
        <ele>22.25</ele>
        <time>2017-08-02T08:15:19Z</time>
      </trkpt>
      <trkpt lat="43.2493458129" lon="2.9762093816">
        <ele>22.25</ele>
        <time>2017-08-02T08:15:20Z</time>
      </trkpt>
      <trkpt lat="43.2494945917" lon="2.9756444413">
        <ele>21.77</ele>
        <time>2017-08-02T08:15:28Z</time>
      </trkpt>
      <trkpt lat="43.2498590369" lon="2.9750568699">
        <ele>22.73</ele>
        <time>2017-08-02T08:15:40Z</time>
      </trkpt>
      <trkpt lat="43.2501714304" lon="2.9744926002">
        <ele>21.77</ele>
        <time>2017-08-02T08:15:51Z</time>
      </trkpt>
      <trkpt lat="43.2502627932" lon="2.9741870798">
        <ele>21.29</ele>
        <time>2017-08-02T08:15:56Z</time>
      </trkpt>
      <trkpt lat="43.2504385617" lon="2.9735135101">
        <ele>21.77</ele>
        <time>2017-08-02T08:16:07Z</time>
      </trkpt>
      <trkpt lat="43.2506641187" lon="2.9727558699">
        <ele>21.77</ele>
        <time>2017-08-02T08:16:19Z</time>
      </trkpt>
      <trkpt lat="43.2507131528" lon="2.9725795984">
        <ele>21.77</ele>
        <time>2017-08-02T08:16:22Z</time>
      </trkpt>
      <trkpt lat="43.2507293299" lon="2.9725210927">
        <ele>21.77</ele>
        <time>2017-08-02T08:16:23Z</time>
      </trkpt>
      <trkpt lat="43.2507434953" lon="2.9724638443">
        <ele>21.77</ele>
        <time>2017-08-02T08:16:24Z</time>
      </trkpt>
      <trkpt lat="43.2508414797" lon="2.9721224494">
        <ele>21.77</ele>
        <time>2017-08-02T08:16:30Z</time>
      </trkpt>
      <trkpt lat="43.2510623429" lon="2.9711774737">
        <ele>21.29</ele>
        <time>2017-08-02T08:16:45Z</time>
      </trkpt>
      <trkpt lat="43.2512045000" lon="2.9704605695">
        <ele>21.29</ele>
        <time>2017-08-02T08:16:56Z</time>
      </trkpt>
      <trkpt lat="43.2513631694" lon="2.9696440883">
        <ele>21.29</ele>
        <time>2017-08-02T08:17:09Z</time>
      </trkpt>
      <trkpt lat="43.2515210845" lon="2.9687662516">
        <ele>21.29</ele>
        <time>2017-08-02T08:17:23Z</time>
      </trkpt>
      <trkpt lat="43.2516597211" lon="2.9677947052">
        <ele>21.29</ele>
        <time>2017-08-02T08:17:38Z</time>
      </trkpt>
      <trkpt lat="43.2516852859" lon="2.9672936350">
        <ele>21.77</ele>
        <time>2017-08-02T08:17:46Z</time>
      </trkpt>
      <trkpt lat="43.2517013792" lon="2.9666052293">
        <ele>22.25</ele>
        <time>2017-08-02T08:17:58Z</time>
      </trkpt>
      <trkpt lat="43.2518697716" lon="2.9662126210">
        <ele>23.21</ele>
        <time>2017-08-02T08:18:08Z</time>
      </trkpt>
      <trkpt lat="43.2522162795" lon="2.9658769257">
        <ele>23.69</ele>
        <time>2017-08-02T08:18:20Z</time>
      </trkpt>
      <trkpt lat="43.2522530761" lon="2.9658491816">
        <ele>23.69</ele>
        <time>2017-08-02T08:18:21Z</time>
      </trkpt>
      <trkpt lat="43.2523291837" lon="2.9657845572">
        <ele>23.21</ele>
        <time>2017-08-02T08:18:23Z</time>
      </trkpt>
      <trkpt lat="43.2526202034" lon="2.9655137379">
        <ele>22.25</ele>
        <time>2017-08-02T08:18:30Z</time>
      </trkpt>
      <trkpt lat="43.2527621929" lon="2.9653221276">
        <ele>22.25</ele>
        <time>2017-08-02T08:18:34Z</time>
      </trkpt>
      <trkpt lat="43.2527945470" lon="2.9652668908">
        <ele>22.73</ele>
        <time>2017-08-02T08:18:35Z</time>
      </trkpt>
      <trkpt lat="43.2530225348" lon="2.9646835942">
        <ele>22.25</ele>
        <time>2017-08-02T08:18:45Z</time>
      </trkpt>
      <trkpt lat="43.2532350160" lon="2.9638554621">
        <ele>21.77</ele>
        <time>2017-08-02T08:18:58Z</time>
      </trkpt>
      <trkpt lat="43.2534531131" lon="2.9630233068">
        <ele>21.29</ele>
        <time>2017-08-02T08:19:11Z</time>
      </trkpt>
      <trkpt lat="43.2537395228" lon="2.9622647446">
        <ele>21.29</ele>
        <time>2017-08-02T08:19:24Z</time>
      </trkpt>
      <trkpt lat="43.2541594561" lon="2.9613929428">
        <ele>21.29</ele>
        <time>2017-08-02T08:19:40Z</time>
      </trkpt>
      <trkpt lat="43.2541848533" lon="2.9613402206">
        <ele>22.25</ele>
        <time>2017-08-02T08:19:41Z</time>
      </trkpt>
      <trkpt lat="43.2544415072" lon="2.9607311077">
        <ele>21.77</ele>
        <time>2017-08-02T08:19:52Z</time>
      </trkpt>
      <trkpt lat="43.2544591092" lon="2.9606733564">
        <ele>21.77</ele>
        <time>2017-08-02T08:19:53Z</time>
      </trkpt>
      <trkpt lat="43.2544724364" lon="2.9606134258">
        <ele>21.77</ele>
        <time>2017-08-02T08:19:54Z</time>
      </trkpt>
      <trkpt lat="43.2545366418" lon="2.9601810034">
        <ele>21.77</ele>
        <time>2017-08-02T08:20:01Z</time>
      </trkpt>
      <trkpt lat="43.2545344625" lon="2.9601179715">
        <ele>21.77</ele>
        <time>2017-08-02T08:20:02Z</time>
      </trkpt>
      <trkpt lat="43.2545335405" lon="2.9600550234">
        <ele>21.77</ele>
        <time>2017-08-02T08:20:03Z</time>
      </trkpt>
      <trkpt lat="43.2545362227" lon="2.9599919077">
        <ele>21.77</ele>
        <time>2017-08-02T08:20:04Z</time>
      </trkpt>
      <trkpt lat="43.2545384858" lon="2.9599291272">
        <ele>21.77</ele>
        <time>2017-08-02T08:20:05Z</time>
      </trkpt>
      <trkpt lat="43.2545367256" lon="2.9598650895">
        <ele>21.77</ele>
        <time>2017-08-02T08:20:06Z</time>
      </trkpt>
      <trkpt lat="43.2545350492" lon="2.9598027281">
        <ele>21.29</ele>
        <time>2017-08-02T08:20:07Z</time>
      </trkpt>
      <trkpt lat="43.2545349654" lon="2.9597424623">
        <ele>21.29</ele>
        <time>2017-08-02T08:20:08Z</time>
      </trkpt>
      <trkpt lat="43.2545352168" lon="2.9596836213">
        <ele>21.77</ele>
        <time>2017-08-02T08:20:09Z</time>
      </trkpt>
      <trkpt lat="43.2545755338" lon="2.9590047710">
        <ele>21.29</ele>
        <time>2017-08-02T08:20:20Z</time>
      </trkpt>
      <trkpt lat="43.2546053734" lon="2.9588185251">
        <ele>21.29</ele>
        <time>2017-08-02T08:20:23Z</time>
      </trkpt>
      <trkpt lat="43.2547827344" lon="2.9581797402">
        <ele>21.29</ele>
        <time>2017-08-02T08:20:34Z</time>
      </trkpt>
      <trkpt lat="43.2548128255" lon="2.9580598790">
        <ele>21.29</ele>
        <time>2017-08-02T08:20:36Z</time>
      </trkpt>
      <trkpt lat="43.2548393123" lon="2.9578710347">
        <ele>21.29</ele>
        <time>2017-08-02T08:20:39Z</time>
      </trkpt>
      <trkpt lat="43.2548409887" lon="2.9578049853">
        <ele>20.81</ele>
        <time>2017-08-02T08:20:40Z</time>
      </trkpt>
      <trkpt lat="43.2548339479" lon="2.9576132912">
        <ele>21.29</ele>
        <time>2017-08-02T08:20:43Z</time>
      </trkpt>
      <trkpt lat="43.2548321877" lon="2.9574207589">
        <ele>21.29</ele>
        <time>2017-08-02T08:20:46Z</time>
      </trkpt>
      <trkpt lat="43.2548277453" lon="2.9573562182">
        <ele>20.81</ele>
        <time>2017-08-02T08:20:47Z</time>
      </trkpt>
      <trkpt lat="43.2548257336" lon="2.9572906718">
        <ele>20.81</ele>
        <time>2017-08-02T08:20:48Z</time>
      </trkpt>
      <trkpt lat="43.2547909487" lon="2.9566445947">
        <ele>20.81</ele>
        <time>2017-08-02T08:20:58Z</time>
      </trkpt>
      <trkpt lat="43.2547837403" lon="2.9565805569">
        <ele>20.81</ele>
        <time>2017-08-02T08:20:59Z</time>
      </trkpt>
      <trkpt lat="43.2547746040" lon="2.9564534035">
        <ele>21.29</ele>
        <time>2017-08-02T08:21:01Z</time>
      </trkpt>
      <trkpt lat="43.2546663936" lon="2.9558769800">
        <ele>20.81</ele>
        <time>2017-08-02T08:21:10Z</time>
      </trkpt>
      <trkpt lat="43.2546528149" lon="2.9558152892">
        <ele>21.29</ele>
        <time>2017-08-02T08:21:11Z</time>
      </trkpt>
      <trkpt lat="43.2546408288" lon="2.9557535984">
        <ele>20.81</ele>
        <time>2017-08-02T08:21:12Z</time>
      </trkpt>
      <trkpt lat="43.2545519806" lon="2.9549950361">
        <ele>20.81</ele>
        <time>2017-08-02T08:21:24Z</time>
      </trkpt>
      <trkpt lat="43.2546142582" lon="2.9541089013">
        <ele>20.81</ele>
        <time>2017-08-02T08:21:38Z</time>
      </trkpt>
      <trkpt lat="43.2546814810" lon="2.9532837868">
        <ele>20.81</ele>
        <time>2017-08-02T08:21:51Z</time>
      </trkpt>
      <trkpt lat="43.2547659706" lon="2.9523880966">
        <ele>20.32</ele>
        <time>2017-08-02T08:22:05Z</time>
      </trkpt>
      <trkpt lat="43.2547884341" lon="2.9522643797">
        <ele>20.81</ele>
        <time>2017-08-02T08:22:07Z</time>
      </trkpt>
      <trkpt lat="43.2548055332" lon="2.9522063769">
        <ele>20.32</ele>
        <time>2017-08-02T08:22:08Z</time>
      </trkpt>
      <trkpt lat="43.2548253145" lon="2.9521490447">
        <ele>20.81</ele>
        <time>2017-08-02T08:22:09Z</time>
      </trkpt>
      <trkpt lat="43.2548490353" lon="2.9520937242">
        <ele>20.81</ele>
        <time>2017-08-02T08:22:10Z</time>
      </trkpt>
      <trkpt lat="43.2548767794" lon="2.9520415887">
        <ele>20.81</ele>
        <time>2017-08-02T08:22:11Z</time>
      </trkpt>
      <trkpt lat="43.2549075410" lon="2.9519893695">
        <ele>20.81</ele>
        <time>2017-08-02T08:22:12Z</time>
      </trkpt>
      <trkpt lat="43.2549372129" lon="2.9519396648">
        <ele>20.81</ele>
        <time>2017-08-02T08:22:13Z</time>
      </trkpt>
      <trkpt lat="43.2550021727" lon="2.9518540017">
        <ele>20.81</ele>
        <time>2017-08-02T08:22:15Z</time>
      </trkpt>
      <trkpt lat="43.2550386339" lon="2.9518198036">
        <ele>20.81</ele>
        <time>2017-08-02T08:22:16Z</time>
      </trkpt>
      <trkpt lat="43.2555038296" lon="2.9515144508">
        <ele>21.29</ele>
        <time>2017-08-02T08:22:28Z</time>
      </trkpt>
      <trkpt lat="43.2555420510" lon="2.9514903948">
        <ele>21.29</ele>
        <time>2017-08-02T08:22:29Z</time>
      </trkpt>
      <trkpt lat="43.2560235076" lon="2.9512134567">
        <ele>21.77</ele>
        <time>2017-08-02T08:22:42Z</time>
      </trkpt>
      <trkpt lat="43.2564049680" lon="2.9509938508">
        <ele>21.77</ele>
        <time>2017-08-02T08:22:53Z</time>
      </trkpt>
      <trkpt lat="43.2567638811" lon="2.9507461656">
        <ele>22.73</ele>
        <time>2017-08-02T08:23:05Z</time>
      </trkpt>
      <trkpt lat="43.2569773681" lon="2.9504119791">
        <ele>23.69</ele>
        <time>2017-08-02T08:23:16Z</time>
      </trkpt>
      <trkpt lat="43.2571020909" lon="2.9501694068">
        <ele>24.65</ele>
        <time>2017-08-02T08:23:26Z</time>
      </trkpt>
      <trkpt lat="43.2571329363" lon="2.9501658026">
        <ele>24.65</ele>
        <time>2017-08-02T08:23:28Z</time>
      </trkpt>
      <trkpt lat="43.2571519632" lon="2.9501672275">
        <ele>24.65</ele>
        <time>2017-08-02T08:23:29Z</time>
      </trkpt>
      <trkpt lat="43.2571955491" lon="2.9501565825">
        <ele>25.13</ele>
        <time>2017-08-02T08:23:31Z</time>
      </trkpt>
      <trkpt lat="43.2572188508" lon="2.9501404054">
        <ele>25.13</ele>
        <time>2017-08-02T08:23:32Z</time>
      </trkpt>
      <trkpt lat="43.2573976368" lon="2.9500247352">
        <ele>25.61</ele>
        <time>2017-08-02T08:23:40Z</time>
      </trkpt>
      <trkpt lat="43.2576631755" lon="2.9498898704">
        <ele>26.09</ele>
        <time>2017-08-02T08:23:48Z</time>
      </trkpt>
      <trkpt lat="43.2578973658" lon="2.9496974219">
        <ele>26.09</ele>
        <time>2017-08-02T08:23:56Z</time>
      </trkpt>
      <trkpt lat="43.2581132837" lon="2.9495290294">
        <ele>26.09</ele>
        <time>2017-08-02T08:24:03Z</time>
      </trkpt>
      <trkpt lat="43.2584198937" lon="2.9492273647">
        <ele>26.09</ele>
        <time>2017-08-02T08:24:13Z</time>
      </trkpt>
      <trkpt lat="43.2586348895" lon="2.9489925038">
        <ele>26.09</ele>
        <time>2017-08-02T08:24:20Z</time>
      </trkpt>
      <trkpt lat="43.2587424293" lon="2.9488961957">
        <ele>26.09</ele>
        <time>2017-08-02T08:24:23Z</time>
      </trkpt>
      <trkpt lat="43.2587798964" lon="2.9488665238">
        <ele>26.09</ele>
        <time>2017-08-02T08:24:24Z</time>
      </trkpt>
      <trkpt lat="43.2591010910" lon="2.9485151544">
        <ele>26.09</ele>
        <time>2017-08-02T08:24:34Z</time>
      </trkpt>
      <trkpt lat="43.2593860757" lon="2.9482264817">
        <ele>26.09</ele>
        <time>2017-08-02T08:24:43Z</time>
      </trkpt>
      <trkpt lat="43.2594255544" lon="2.9482099693">
        <ele>26.09</ele>
        <time>2017-08-02T08:24:44Z</time>
      </trkpt>
      <trkpt lat="43.2594656199" lon="2.9481972288">
        <ele>26.09</ele>
        <time>2017-08-02T08:24:45Z</time>
      </trkpt>
      <trkpt lat="43.2596731558" lon="2.9481893498">
        <ele>25.61</ele>
        <time>2017-08-02T08:24:52Z</time>
      </trkpt>
      <trkpt lat="43.2596878242" lon="2.9481839854">
        <ele>25.61</ele>
        <time>2017-08-02T08:24:53Z</time>
      </trkpt>
      <trkpt lat="43.2597540412" lon="2.9481708258">
        <ele>25.13</ele>
        <time>2017-08-02T08:25:04Z</time>
      </trkpt>
      <trkpt lat="43.2597353496" lon="2.9481528047">
        <ele>25.13</ele>
        <time>2017-08-02T08:25:06Z</time>
      </trkpt>
      <trkpt lat="43.2597198430" lon="2.9481495358">
        <ele>25.13</ele>
        <time>2017-08-02T08:25:07Z</time>
      </trkpt>
      <trkpt lat="43.2597059291" lon="2.9481504578">
        <ele>25.13</ele>
        <time>2017-08-02T08:25:08Z</time>
      </trkpt>
      <trkpt lat="43.2596185897" lon="2.9481391422">
        <ele>25.61</ele>
        <time>2017-08-02T08:25:12Z</time>
      </trkpt>
      <trkpt lat="43.2596019935" lon="2.9481129907">
        <ele>25.61</ele>
        <time>2017-08-02T08:25:13Z</time>
      </trkpt>
      <trkpt lat="43.2595945336" lon="2.9480766971">
        <ele>25.61</ele>
        <time>2017-08-02T08:25:14Z</time>
      </trkpt>
      <trkpt lat="43.2596039213" lon="2.9480450135">
        <ele>25.61</ele>
        <time>2017-08-02T08:25:15Z</time>
      </trkpt>
      <trkpt lat="43.2596256305" lon="2.9480206221">
        <ele>26.09</ele>
        <time>2017-08-02T08:25:16Z</time>
      </trkpt>
      <trkpt lat="43.2596516982" lon="2.9479984101">
        <ele>26.09</ele>
        <time>2017-08-02T08:25:17Z</time>
      </trkpt>
      <trkpt lat="43.2598903310" lon="2.9476590268">
        <ele>26.09</ele>
        <time>2017-08-02T08:25:27Z</time>
      </trkpt>
      <trkpt lat="43.2600911614" lon="2.9473798256">
        <ele>26.09</ele>
        <time>2017-08-02T08:25:36Z</time>
      </trkpt>
      <trkpt lat="43.2603639085" lon="2.9471199866">
        <ele>26.57</ele>
        <time>2017-08-02T08:25:45Z</time>
      </trkpt>
      <trkpt lat="43.2604840212" lon="2.9469583835">
        <ele>26.57</ele>
        <time>2017-08-02T08:25:51Z</time>
      </trkpt>
      <trkpt lat="43.2605006173" lon="2.9469337407">
        <ele>26.57</ele>
        <time>2017-08-02T08:25:52Z</time>
      </trkpt>
      <trkpt lat="43.2605260145" lon="2.9469130374">
        <ele>26.57</ele>
        <time>2017-08-02T08:25:53Z</time>
      </trkpt>
      <trkpt lat="43.2605475560" lon="2.9468927532">
        <ele>27.05</ele>
        <time>2017-08-02T08:25:54Z</time>
      </trkpt>
      <trkpt lat="43.2605645712" lon="2.9468754027">
        <ele>27.05</ele>
        <time>2017-08-02T08:25:55Z</time>
      </trkpt>
      <trkpt lat="43.2605856936" lon="2.9468517657">
        <ele>27.05</ele>
        <time>2017-08-02T08:25:56Z</time>
      </trkpt>
      <trkpt lat="43.2606085762" lon="2.9468225129">
        <ele>26.57</ele>
        <time>2017-08-02T08:25:57Z</time>
      </trkpt>
      <trkpt lat="43.2606295310" lon="2.9467938468">
        <ele>27.05</ele>
        <time>2017-08-02T08:25:58Z</time>
      </trkpt>
      <trkpt lat="43.2606528327" lon="2.9467581399">
        <ele>26.57</ele>
        <time>2017-08-02T08:25:59Z</time>
      </trkpt>
      <trkpt lat="43.2606799062" lon="2.9467232712">
        <ele>26.57</ele>
        <time>2017-08-02T08:26:00Z</time>
      </trkpt>
      <trkpt lat="43.2607151102" lon="2.9466925934">
        <ele>26.57</ele>
        <time>2017-08-02T08:26:01Z</time>
      </trkpt>
      <trkpt lat="43.2607409265" lon="2.9466635082">
        <ele>26.57</ele>
        <time>2017-08-02T08:26:02Z</time>
      </trkpt>
      <trkpt lat="43.2607716881" lon="2.9466293100">
        <ele>26.57</ele>
        <time>2017-08-02T08:26:03Z</time>
      </trkpt>
      <trkpt lat="43.2610067166" lon="2.9463864025">
        <ele>26.57</ele>
        <time>2017-08-02T08:26:11Z</time>
      </trkpt>
      <trkpt lat="43.2613522187" lon="2.9460446723">
        <ele>26.57</ele>
        <time>2017-08-02T08:26:20Z</time>
      </trkpt>
      <trkpt lat="43.2614744268" lon="2.9458488710">
        <ele>25.61</ele>
        <time>2017-08-02T08:26:25Z</time>
      </trkpt>
      <trkpt lat="43.2617882453" lon="2.9454818275">
        <ele>26.09</ele>
        <time>2017-08-02T08:26:35Z</time>
      </trkpt>
      <trkpt lat="43.2619185001" lon="2.9453450348">
        <ele>26.09</ele>
        <time>2017-08-02T08:26:39Z</time>
      </trkpt>
      <trkpt lat="43.2619525306" lon="2.9453162011">
        <ele>25.61</ele>
        <time>2017-08-02T08:26:40Z</time>
      </trkpt>
      <trkpt lat="43.2622885611" lon="2.9449396860">
        <ele>26.09</ele>
        <time>2017-08-02T08:26:51Z</time>
      </trkpt>
      <trkpt lat="43.2625430357" lon="2.9446733929">
        <ele>26.09</ele>
        <time>2017-08-02T08:27:00Z</time>
      </trkpt>
      <trkpt lat="43.2627234980" lon="2.9445330799">
        <ele>27.05</ele>
        <time>2017-08-02T08:27:08Z</time>
      </trkpt>
      <trkpt lat="43.2629415952" lon="2.9442520346">
        <ele>27.53</ele>
        <time>2017-08-02T08:27:18Z</time>
      </trkpt>
      <trkpt lat="43.2632008474" lon="2.9440607596">
        <ele>28.02</ele>
        <time>2017-08-02T08:27:27Z</time>
      </trkpt>
      <trkpt lat="43.2634721696" lon="2.9437740985">
        <ele>28.02</ele>
        <time>2017-08-02T08:27:37Z</time>
      </trkpt>
      <trkpt lat="43.2637055218" lon="2.9435447697">
        <ele>28.02</ele>
        <time>2017-08-02T08:27:45Z</time>
      </trkpt>
      <trkpt lat="43.2639252115" lon="2.9433131777">
        <ele>28.02</ele>
        <time>2017-08-02T08:27:54Z</time>
      </trkpt>
      <trkpt lat="43.2641766686" lon="2.9430714436">
        <ele>27.53</ele>
        <time>2017-08-02T08:28:02Z</time>
      </trkpt>
      <trkpt lat="43.2644452248" lon="2.9427918233">
        <ele>27.05</ele>
        <time>2017-08-02T08:28:11Z</time>
      </trkpt>
      <trkpt lat="43.2646436244" lon="2.9425631650">
        <ele>27.53</ele>
        <time>2017-08-02T08:28:18Z</time>
      </trkpt>
      <trkpt lat="43.2648929022" lon="2.9422999732">
        <ele>28.02</ele>
        <time>2017-08-02T08:28:27Z</time>
      </trkpt>
      <trkpt lat="43.2651781384" lon="2.9419978894">
        <ele>28.02</ele>
        <time>2017-08-02T08:28:36Z</time>
      </trkpt>
      <trkpt lat="43.2654046174" lon="2.9417547304">
        <ele>28.50</ele>
        <time>2017-08-02T08:28:44Z</time>
      </trkpt>
      <trkpt lat="43.2657552324" lon="2.9413803946">
        <ele>28.98</ele>
        <time>2017-08-02T08:28:55Z</time>
      </trkpt>
      <trkpt lat="43.2661281433" lon="2.9409691785">
        <ele>29.46</ele>
        <time>2017-08-02T08:29:07Z</time>
      </trkpt>
      <trkpt lat="43.2665645890" lon="2.9404832795">
        <ele>28.98</ele>
        <time>2017-08-02T08:29:21Z</time>
      </trkpt>
      <trkpt lat="43.2668245956" lon="2.9401971214">
        <ele>29.46</ele>
        <time>2017-08-02T08:29:30Z</time>
      </trkpt>
      <trkpt lat="43.2671242487" lon="2.9399018269">
        <ele>29.94</ele>
        <time>2017-08-02T08:29:40Z</time>
      </trkpt>
      <trkpt lat="43.2673603669" lon="2.9396067001">
        <ele>30.90</ele>
        <time>2017-08-02T08:29:51Z</time>
      </trkpt>
      <trkpt lat="43.2675635442" lon="2.9394271597">
        <ele>30.90</ele>
        <time>2017-08-02T08:30:00Z</time>
      </trkpt>
      <trkpt lat="43.2677949686" lon="2.9391669855">
        <ele>30.42</ele>
        <time>2017-08-02T08:30:09Z</time>
      </trkpt>
      <trkpt lat="43.2680703979" lon="2.9388468806">
        <ele>30.90</ele>
        <time>2017-08-02T08:30:19Z</time>
      </trkpt>
      <trkpt lat="43.2683784328" lon="2.9385173880">
        <ele>30.90</ele>
        <time>2017-08-02T08:30:30Z</time>
      </trkpt>
      <trkpt lat="43.2685511839" lon="2.9383380152">
        <ele>30.90</ele>
        <time>2017-08-02T08:30:38Z</time>
      </trkpt>
      <trkpt lat="43.2687708735" lon="2.9381018970">
        <ele>30.90</ele>
        <time>2017-08-02T08:30:47Z</time>
      </trkpt>
      <trkpt lat="43.2689809240" lon="2.9379008152">
        <ele>31.38</ele>
        <time>2017-08-02T08:30:53Z</time>
      </trkpt>
      <trkpt lat="43.2692310400" lon="2.9376470950">
        <ele>30.90</ele>
        <time>2017-08-02T08:31:00Z</time>
      </trkpt>
      <trkpt lat="43.2694780547" lon="2.9373792093">
        <ele>31.38</ele>
        <time>2017-08-02T08:31:07Z</time>
      </trkpt>
      <trkpt lat="43.2695499714" lon="2.9373149201">
        <ele>31.38</ele>
        <time>2017-08-02T08:31:09Z</time>
      </trkpt>
      <trkpt lat="43.2697622012" lon="2.9370580986">
        <ele>30.90</ele>
        <time>2017-08-02T08:31:16Z</time>
      </trkpt>
      <trkpt lat="43.2701030932" lon="2.9367057234">
        <ele>30.90</ele>
        <time>2017-08-02T08:31:27Z</time>
      </trkpt>
      <trkpt lat="43.2703667041" lon="2.9364091717">
        <ele>31.38</ele>
        <time>2017-08-02T08:31:36Z</time>
      </trkpt>
      <trkpt lat="43.2706383616" lon="2.9361187387">
        <ele>31.38</ele>
        <time>2017-08-02T08:31:46Z</time>
      </trkpt>
      <trkpt lat="43.2709188201" lon="2.9358301498">
        <ele>31.38</ele>
        <time>2017-08-02T08:31:55Z</time>
      </trkpt>
      <trkpt lat="43.2712588739" lon="2.9354295786">
        <ele>31.38</ele>
        <time>2017-08-02T08:32:06Z</time>
      </trkpt>
      <trkpt lat="43.2717206329" lon="2.9349479545">
        <ele>31.38</ele>
        <time>2017-08-02T08:32:20Z</time>
      </trkpt>
      <trkpt lat="43.2721339446" lon="2.9344717786">
        <ele>31.86</ele>
        <time>2017-08-02T08:32:33Z</time>
      </trkpt>
      <trkpt lat="43.2723289914" lon="2.9343498219">
        <ele>33.30</ele>
        <time>2017-08-02T08:32:42Z</time>
      </trkpt>
      <trkpt lat="43.2723429054" lon="2.9343329743">
        <ele>33.30</ele>
        <time>2017-08-02T08:32:43Z</time>
      </trkpt>
      <trkpt lat="43.2723566517" lon="2.9343111813">
        <ele>33.30</ele>
        <time>2017-08-02T08:32:44Z</time>
      </trkpt>
      <trkpt lat="43.2723734993" lon="2.9342933279">
        <ele>33.30</ele>
        <time>2017-08-02T08:32:45Z</time>
      </trkpt>
      <trkpt lat="43.2723916043" lon="2.9342734627">
        <ele>33.30</ele>
        <time>2017-08-02T08:32:46Z</time>
      </trkpt>
      <trkpt lat="43.2724096254" lon="2.9342520051">
        <ele>33.30</ele>
        <time>2017-08-02T08:32:47Z</time>
      </trkpt>
      <trkpt lat="43.2724294066" lon="2.9342292063">
        <ele>33.30</ele>
        <time>2017-08-02T08:32:48Z</time>
      </trkpt>
      <trkpt lat="43.2727019861" lon="2.9339521844">
        <ele>33.30</ele>
        <time>2017-08-02T08:32:58Z</time>
      </trkpt>
      <trkpt lat="43.2729154732" lon="2.9337060917">
        <ele>33.78</ele>
        <time>2017-08-02T08:33:06Z</time>
      </trkpt>
      <trkpt lat="43.2730715442" lon="2.9335224442">
        <ele>33.30</ele>
        <time>2017-08-02T08:33:11Z</time>
      </trkpt>
      <trkpt lat="43.2731056586" lon="2.9334884137">
        <ele>33.30</ele>
        <time>2017-08-02T08:33:12Z</time>
      </trkpt>
      <trkpt lat="43.2731394377" lon="2.9334548023">
        <ele>33.30</ele>
        <time>2017-08-02T08:33:13Z</time>
      </trkpt>
      <trkpt lat="43.2735353149" lon="2.9330367967">
        <ele>33.30</ele>
        <time>2017-08-02T08:33:25Z</time>
      </trkpt>
      <trkpt lat="43.2736366522" lon="2.9329424165">
        <ele>33.30</ele>
        <time>2017-08-02T08:33:28Z</time>
      </trkpt>
      <trkpt lat="43.2736685872" lon="2.9329034407">
        <ele>33.30</ele>
        <time>2017-08-02T08:33:29Z</time>
      </trkpt>
      <trkpt lat="43.2736984268" lon="2.9328696616">
        <ele>33.30</ele>
        <time>2017-08-02T08:33:30Z</time>
      </trkpt>
      <trkpt lat="43.2740242314" lon="2.9325049650">
        <ele>33.78</ele>
        <time>2017-08-02T08:33:41Z</time>
      </trkpt>
      <trkpt lat="43.2742898539" lon="2.9322250094">
        <ele>33.78</ele>
        <time>2017-08-02T08:33:50Z</time>
      </trkpt>
      <trkpt lat="43.2745374553" lon="2.9319614824">
        <ele>33.30</ele>
        <time>2017-08-02T08:33:58Z</time>
      </trkpt>
      <trkpt lat="43.2748273015" lon="2.9316495080">
        <ele>33.78</ele>
        <time>2017-08-02T08:34:07Z</time>
      </trkpt>
      <trkpt lat="43.2750573009" lon="2.9313744977">
        <ele>33.78</ele>
        <time>2017-08-02T08:34:15Z</time>
      </trkpt>
      <trkpt lat="43.2750905771" lon="2.9313357733">
        <ele>33.78</ele>
        <time>2017-08-02T08:34:16Z</time>
      </trkpt>
      <trkpt lat="43.2753447164" lon="2.9310627747">
        <ele>33.78</ele>
        <time>2017-08-02T08:34:24Z</time>
      </trkpt>
      <trkpt lat="43.2756441180" lon="2.9307535663">
        <ele>33.78</ele>
        <time>2017-08-02T08:34:33Z</time>
      </trkpt>
      <trkpt lat="43.2759411726" lon="2.9304828309">
        <ele>33.78</ele>
        <time>2017-08-02T08:34:42Z</time>
      </trkpt>
      <trkpt lat="43.2761839125" lon="2.9302312061">
        <ele>34.26</ele>
        <time>2017-08-02T08:34:51Z</time>
      </trkpt>
      <trkpt lat="43.2764100563" lon="2.9299821798">
        <ele>34.74</ele>
        <time>2017-08-02T08:35:00Z</time>
      </trkpt>
      <trkpt lat="43.2766063605" lon="2.9297347460">
        <ele>34.74</ele>
        <time>2017-08-02T08:35:07Z</time>
      </trkpt>
      <trkpt lat="43.2768458314" lon="2.9294572212">
        <ele>34.74</ele>
        <time>2017-08-02T08:35:16Z</time>
      </trkpt>
      <trkpt lat="43.2770775072" lon="2.9292027466">
        <ele>35.23</ele>
        <time>2017-08-02T08:35:25Z</time>
      </trkpt>
      <trkpt lat="43.2773277070" lon="2.9289058596">
        <ele>35.23</ele>
        <time>2017-08-02T08:35:34Z</time>
      </trkpt>
      <trkpt lat="43.2774488255" lon="2.9287830647">
        <ele>35.23</ele>
        <time>2017-08-02T08:35:39Z</time>
      </trkpt>
      <trkpt lat="43.2774834428" lon="2.9287667200">
        <ele>35.23</ele>
        <time>2017-08-02T08:35:40Z</time>
      </trkpt>
      <trkpt lat="43.2775141206" lon="2.9287450947">
        <ele>35.23</ele>
        <time>2017-08-02T08:35:41Z</time>
      </trkpt>
      <trkpt lat="43.2775439601" lon="2.9287176020">
        <ele>36.19</ele>
        <time>2017-08-02T08:35:42Z</time>
      </trkpt>
      <trkpt lat="43.2775715366" lon="2.9286907800">
        <ele>35.23</ele>
        <time>2017-08-02T08:35:43Z</time>
      </trkpt>
      <trkpt lat="43.2777715288" lon="2.9284764547">
        <ele>35.23</ele>
        <time>2017-08-02T08:35:51Z</time>
      </trkpt>
      <trkpt lat="43.2780128438" lon="2.9281799030">
        <ele>35.23</ele>
        <time>2017-08-02T08:35:59Z</time>
      </trkpt>
      <trkpt lat="43.2783440966" lon="2.9278489854">
        <ele>35.71</ele>
        <time>2017-08-02T08:36:10Z</time>
      </trkpt>
      <trkpt lat="43.2786015887" lon="2.9275669344">
        <ele>35.71</ele>
        <time>2017-08-02T08:36:19Z</time>
      </trkpt>
      <trkpt lat="43.2789242920" lon="2.9272190016">
        <ele>36.19</ele>
        <time>2017-08-02T08:36:30Z</time>
      </trkpt>
      <trkpt lat="43.2791656069" lon="2.9269827157">
        <ele>36.19</ele>
        <time>2017-08-02T08:36:38Z</time>
      </trkpt>
      <trkpt lat="43.2794697862" lon="2.9266549833">
        <ele>36.67</ele>
        <time>2017-08-02T08:36:48Z</time>
      </trkpt>
      <trkpt lat="43.2797658350" lon="2.9263247363">
        <ele>36.67</ele>
        <time>2017-08-02T08:36:58Z</time>
      </trkpt>
      <trkpt lat="43.2801151928" lon="2.9259500653">
        <ele>36.67</ele>
        <time>2017-08-02T08:37:09Z</time>
      </trkpt>
      <trkpt lat="43.2803037018" lon="2.9257659148">
        <ele>36.67</ele>
        <time>2017-08-02T08:37:15Z</time>
      </trkpt>
      <trkpt lat="43.2805675641" lon="2.9254681058">
        <ele>37.15</ele>
        <time>2017-08-02T08:37:24Z</time>
      </trkpt>
      <trkpt lat="43.2808255590" lon="2.9251715541">
        <ele>37.15</ele>
        <time>2017-08-02T08:37:33Z</time>
      </trkpt>
      <trkpt lat="43.2810793631" lon="2.9249125533">
        <ele>37.63</ele>
        <time>2017-08-02T08:37:41Z</time>
      </trkpt>
      <trkpt lat="43.2813479193" lon="2.9246401414">
        <ele>37.63</ele>
        <time>2017-08-02T08:37:50Z</time>
      </trkpt>
      <trkpt lat="43.2815884799" lon="2.9244113155">
        <ele>37.63</ele>
        <time>2017-08-02T08:37:58Z</time>
      </trkpt>
      <trkpt lat="43.2816997916" lon="2.9242827371">
        <ele>37.63</ele>
        <time>2017-08-02T08:38:03Z</time>
      </trkpt>
      <trkpt lat="43.2817106042" lon="2.9242565855">
        <ele>37.15</ele>
        <time>2017-08-02T08:38:04Z</time>
      </trkpt>
      <trkpt lat="43.2817300502" lon="2.9242249858">
        <ele>37.63</ele>
        <time>2017-08-02T08:38:05Z</time>
      </trkpt>
      <trkpt lat="43.2817531005" lon="2.9241984989">
        <ele>37.63</ele>
        <time>2017-08-02T08:38:06Z</time>
      </trkpt>
      <trkpt lat="43.2817802578" lon="2.9241713416">
        <ele>37.63</ele>
        <time>2017-08-02T08:38:07Z</time>
      </trkpt>
      <trkpt lat="43.2818069123" lon="2.9241380654">
        <ele>36.67</ele>
        <time>2017-08-02T08:38:08Z</time>
      </trkpt>
      <trkpt lat="43.2818334829" lon="2.9241076391">
        <ele>38.59</ele>
        <time>2017-08-02T08:38:09Z</time>
      </trkpt>
      <trkpt lat="43.2818633225" lon="2.9240774643">
        <ele>32.82</ele>
        <time>2017-08-02T08:38:10Z</time>
      </trkpt>
      <trkpt lat="43.2818889711" lon="2.9240467027">
        <ele>40.99</ele>
        <time>2017-08-02T08:38:11Z</time>
      </trkpt>
      <trkpt lat="43.2819132786" lon="2.9240172822">
        <ele>38.11</ele>
        <time>2017-08-02T08:38:12Z</time>
      </trkpt>
      <trkpt lat="43.2819586247" lon="2.9239634704">
        <ele>37.63</ele>
        <time>2017-08-02T08:38:18Z</time>
      </trkpt>
      <trkpt lat="43.2819642406" lon="2.9239545856">
        <ele>37.63</ele>
        <time>2017-08-02T08:38:36Z</time>
      </trkpt>
      <trkpt lat="43.2820659131" lon="2.9238616303">
        <ele>37.63</ele>
        <time>2017-08-02T08:38:47Z</time>
      </trkpt>
      <trkpt lat="43.2820263505" lon="2.9238787293">
        <ele>37.63</ele>
        <time>2017-08-02T08:38:59Z</time>
      </trkpt>
      <trkpt lat="43.2820125204" lon="2.9238865245">
        <ele>37.63</ele>
        <time>2017-08-02T08:39:00Z</time>
      </trkpt>
      <trkpt lat="43.2819972653" lon="2.9238990974">
        <ele>37.63</ele>
        <time>2017-08-02T08:39:01Z</time>
      </trkpt>
      <trkpt lat="43.2818187308" lon="2.9241119139">
        <ele>37.63</ele>
        <time>2017-08-02T08:39:09Z</time>
      </trkpt>
      <trkpt lat="43.2816303894" lon="2.9243702441">
        <ele>37.63</ele>
        <time>2017-08-02T08:39:17Z</time>
      </trkpt>
      <trkpt lat="43.2814433053" lon="2.9245305900">
        <ele>37.63</ele>
        <time>2017-08-02T08:39:24Z</time>
      </trkpt>
      <trkpt lat="43.2812812831" lon="2.9247227870">
        <ele>37.63</ele>
        <time>2017-08-02T08:39:34Z</time>
      </trkpt>
      <trkpt lat="43.2812599931" lon="2.9247646127">
        <ele>36.67</ele>
        <time>2017-08-02T08:39:44Z</time>
      </trkpt>
      <trkpt lat="43.2812599093" lon="2.9247764312">
        <ele>37.15</ele>
        <time>2017-08-02T08:39:53Z</time>
      </trkpt>
      <trkpt lat="43.2812418882" lon="2.9247916024">
        <ele>37.15</ele>
        <time>2017-08-02T08:40:14Z</time>
      </trkpt>
      <trkpt lat="43.2812408824" lon="2.9247961286">
        <ele>37.63</ele>
        <time>2017-08-02T08:40:31Z</time>
      </trkpt>
      <trkpt lat="43.2812137250" lon="2.9248388764">
        <ele>37.63</ele>
        <time>2017-08-02T08:40:45Z</time>
      </trkpt>
      <trkpt lat="43.2811892498" lon="2.9248596635">
        <ele>37.15</ele>
        <time>2017-08-02T08:40:46Z</time>
      </trkpt>
      <trkpt lat="43.2811585721" lon="2.9248848092">
        <ele>38.59</ele>
        <time>2017-08-02T08:40:47Z</time>
      </trkpt>
      <trkpt lat="43.2811278943" lon="2.9249112960">
        <ele>37.63</ele>
        <time>2017-08-02T08:40:48Z</time>
      </trkpt>
      <trkpt lat="43.2810994796" lon="2.9249308258">
        <ele>37.63</ele>
        <time>2017-08-02T08:40:49Z</time>
      </trkpt>
      <trkpt lat="43.2810817938" lon="2.9249475058">
        <ele>37.63</ele>
        <time>2017-08-02T08:40:50Z</time>
      </trkpt>
      <trkpt lat="43.2810653653" lon="2.9249727353">
        <ele>37.15</ele>
        <time>2017-08-02T08:40:51Z</time>
      </trkpt>
      <trkpt lat="43.2810404710" lon="2.9250050895">
        <ele>37.15</ele>
        <time>2017-08-02T08:40:52Z</time>
      </trkpt>
      <trkpt lat="43.2810097933" lon="2.9250377789">
        <ele>37.63</ele>
        <time>2017-08-02T08:40:53Z</time>
      </trkpt>
      <trkpt lat="43.2809720747" lon="2.9250728153">
        <ele>37.15</ele>
        <time>2017-08-02T08:40:54Z</time>
      </trkpt>
      <trkpt lat="43.2809391338" lon="2.9251020681">
        <ele>37.63</ele>
        <time>2017-08-02T08:40:55Z</time>
      </trkpt>
      <trkpt lat="43.2808434963" lon="2.9252045788">
        <ele>37.15</ele>
        <time>2017-08-02T08:40:58Z</time>
      </trkpt>
      <trkpt lat="43.2807462662" lon="2.9252920859">
        <ele>37.15</ele>
        <time>2017-08-02T08:41:01Z</time>
      </trkpt>
      <trkpt lat="43.2807109784" lon="2.9253384378">
        <ele>37.15</ele>
        <time>2017-08-02T08:41:02Z</time>
      </trkpt>
      <trkpt lat="43.2805715874" lon="2.9255359154">
        <ele>37.15</ele>
        <time>2017-08-02T08:41:06Z</time>
      </trkpt>
      <trkpt lat="43.2805377245" lon="2.9255711194">
        <ele>37.15</ele>
        <time>2017-08-02T08:41:07Z</time>
      </trkpt>
      <trkpt lat="43.2804997545" lon="2.9256059881">
        <ele>37.15</ele>
        <time>2017-08-02T08:41:08Z</time>
      </trkpt>
      <trkpt lat="43.2803373970" lon="2.9257729556">
        <ele>37.15</ele>
        <time>2017-08-02T08:41:12Z</time>
      </trkpt>
      <trkpt lat="43.2802959066" lon="2.9258014541">
        <ele>37.15</ele>
        <time>2017-08-02T08:41:13Z</time>
      </trkpt>
      <trkpt lat="43.2802567631" lon="2.9258353170">
        <ele>36.67</ele>
        <time>2017-08-02T08:41:14Z</time>
      </trkpt>
      <trkpt lat="43.2802198827" lon="2.9258751310">
        <ele>36.67</ele>
        <time>2017-08-02T08:41:15Z</time>
      </trkpt>
      <trkpt lat="43.2801834214" lon="2.9259082396">
        <ele>36.67</ele>
        <time>2017-08-02T08:41:16Z</time>
      </trkpt>
      <trkpt lat="43.2801549230" lon="2.9259322118">
        <ele>36.67</ele>
        <time>2017-08-02T08:41:17Z</time>
      </trkpt>
      <trkpt lat="43.2800535858" lon="2.9260229040">
        <ele>36.67</ele>
        <time>2017-08-02T08:41:25Z</time>
      </trkpt>
      <trkpt lat="43.2800200582" lon="2.9260424338">
        <ele>37.15</ele>
        <time>2017-08-02T08:41:43Z</time>
      </trkpt>
      <trkpt lat="43.2800202258" lon="2.9260439426">
        <ele>36.19</ele>
        <time>2017-08-02T08:41:51Z</time>
      </trkpt>
      <trkpt lat="43.2800312899" lon="2.9260321241">
        <ele>36.19</ele>
        <time>2017-08-02T08:41:52Z</time>
      </trkpt>
      <trkpt lat="43.2801942341" lon="2.9258679226">
        <ele>36.19</ele>
        <time>2017-08-02T08:42:00Z</time>
      </trkpt>
      <trkpt lat="43.2804972399" lon="2.9255589657">
        <ele>36.67</ele>
        <time>2017-08-02T08:42:10Z</time>
      </trkpt>
      <trkpt lat="43.2807676401" lon="2.9252329934">
        <ele>36.67</ele>
        <time>2017-08-02T08:42:19Z</time>
      </trkpt>
      <trkpt lat="43.2810290717" lon="2.9249767587">
        <ele>36.67</ele>
        <time>2017-08-02T08:42:27Z</time>
      </trkpt>
      <trkpt lat="43.2811698876" lon="2.9248432349">
        <ele>36.67</ele>
        <time>2017-08-02T08:42:31Z</time>
      </trkpt>
      <trkpt lat="43.2814179920" lon="2.9246104695">
        <ele>37.15</ele>
        <time>2017-08-02T08:42:39Z</time>
      </trkpt>
      <trkpt lat="43.2816854585" lon="2.9243585095">
        <ele>36.67</ele>
        <time>2017-08-02T08:42:47Z</time>
      </trkpt>
      <trkpt lat="43.2819442078" lon="2.9240067210">
        <ele>37.15</ele>
        <time>2017-08-02T08:42:56Z</time>
      </trkpt>
      <trkpt lat="43.2819786575" lon="2.9239726905">
        <ele>37.15</ele>
        <time>2017-08-02T08:42:57Z</time>
      </trkpt>
      <trkpt lat="43.2820142806" lon="2.9239434376">
        <ele>37.15</ele>
        <time>2017-08-02T08:42:58Z</time>
      </trkpt>
      <trkpt lat="43.2820507418" lon="2.9239118379">
        <ele>37.15</ele>
        <time>2017-08-02T08:42:59Z</time>
      </trkpt>
      <trkpt lat="43.2820867002" lon="2.9238757119">
        <ele>37.15</ele>
        <time>2017-08-02T08:43:00Z</time>
      </trkpt>
      <trkpt lat="43.2821212336" lon="2.9238383286">
        <ele>37.15</ele>
        <time>2017-08-02T08:43:01Z</time>
      </trkpt>
      <trkpt lat="43.2822189666" lon="2.9237133544">
        <ele>37.15</ele>
        <time>2017-08-02T08:43:04Z</time>
      </trkpt>
      <trkpt lat="43.2824949827" lon="2.9233888071">
        <ele>37.15</ele>
        <time>2017-08-02T08:43:13Z</time>
      </trkpt>
      <trkpt lat="43.2827097271" lon="2.9231483303">
        <ele>37.15</ele>
        <time>2017-08-02T08:43:19Z</time>
      </trkpt>
      <trkpt lat="43.2829872519" lon="2.9228713922">
        <ele>37.15</ele>
        <time>2017-08-02T08:43:27Z</time>
      </trkpt>
      <trkpt lat="43.2832284831" lon="2.9225850664">
        <ele>38.11</ele>
        <time>2017-08-02T08:43:35Z</time>
      </trkpt>
      <trkpt lat="43.2833425608" lon="2.9224521294">
        <ele>38.11</ele>
        <time>2017-08-02T08:43:40Z</time>
      </trkpt>
      <trkpt lat="43.2834609132" lon="2.9222938791">
        <ele>38.11</ele>
        <time>2017-08-02T08:43:43Z</time>
      </trkpt>
      <trkpt lat="43.2835012302" lon="2.9222407378">
        <ele>37.15</ele>
        <time>2017-08-02T08:43:44Z</time>
      </trkpt>
      <trkpt lat="43.2835417986" lon="2.9221916199">
        <ele>37.15</ele>
        <time>2017-08-02T08:43:45Z</time>
      </trkpt>
      <trkpt lat="43.2835851330" lon="2.9221526440">
        <ele>36.67</ele>
        <time>2017-08-02T08:43:46Z</time>
      </trkpt>
      <trkpt lat="43.2836231031" lon="2.9221201222">
        <ele>36.67</ele>
        <time>2017-08-02T08:43:47Z</time>
      </trkpt>
      <trkpt lat="43.2836572174" lon="2.9220829904">
        <ele>36.67</ele>
        <time>2017-08-02T08:43:48Z</time>
      </trkpt>
      <trkpt lat="43.2836926728" lon="2.9220528994">
        <ele>36.67</ele>
        <time>2017-08-02T08:43:49Z</time>
      </trkpt>
      <trkpt lat="43.2837325707" lon="2.9220285080">
        <ele>36.67</ele>
        <time>2017-08-02T08:43:50Z</time>
      </trkpt>
      <trkpt lat="43.2838169765" lon="2.9219850060">
        <ele>36.67</ele>
        <time>2017-08-02T08:43:52Z</time>
      </trkpt>
      <trkpt lat="43.2838614844" lon="2.9219751991">
        <ele>36.67</ele>
        <time>2017-08-02T08:43:53Z</time>
      </trkpt>
      <trkpt lat="43.2839048188" lon="2.9219701700">
        <ele>36.67</ele>
        <time>2017-08-02T08:43:54Z</time>
      </trkpt>
      <trkpt lat="43.2839474827" lon="2.9219737742">
        <ele>36.67</ele>
        <time>2017-08-02T08:43:55Z</time>
      </trkpt>
      <trkpt lat="43.2839910686" lon="2.9219883587">
        <ele>36.67</ele>
        <time>2017-08-02T08:43:56Z</time>
      </trkpt>
      <trkpt lat="43.2840341516" lon="2.9220196232">
        <ele>36.67</ele>
        <time>2017-08-02T08:43:57Z</time>
      </trkpt>
      <trkpt lat="43.2840756420" lon="2.9220477026">
        <ele>36.67</ele>
        <time>2017-08-02T08:43:58Z</time>
      </trkpt>
      <trkpt lat="43.2842040528" lon="2.9221111536">
        <ele>36.67</ele>
        <time>2017-08-02T08:44:01Z</time>
      </trkpt>
      <trkpt lat="43.2847404946" lon="2.9222605191">
        <ele>36.19</ele>
        <time>2017-08-02T08:44:13Z</time>
      </trkpt>
      <trkpt lat="43.2850121520" lon="2.9223352019">
        <ele>36.19</ele>
        <time>2017-08-02T08:44:19Z</time>
      </trkpt>
      <trkpt lat="43.2850624435" lon="2.9223498702">
        <ele>36.19</ele>
        <time>2017-08-02T08:44:20Z</time>
      </trkpt>
      <trkpt lat="43.2853834704" lon="2.9224424902">
        <ele>36.19</ele>
        <time>2017-08-02T08:44:28Z</time>
      </trkpt>
      <trkpt lat="43.2855101209" lon="2.9224770237">
        <ele>36.67</ele>
        <time>2017-08-02T08:44:31Z</time>
      </trkpt>
      <trkpt lat="43.2855542935" lon="2.9224884231">
        <ele>36.67</ele>
        <time>2017-08-02T08:44:32Z</time>
      </trkpt>
      <trkpt lat="43.2860720437" lon="2.9226266406">
        <ele>36.19</ele>
        <time>2017-08-02T08:44:43Z</time>
      </trkpt>
      <trkpt lat="43.2865339704" lon="2.9227605835">
        <ele>36.19</ele>
        <time>2017-08-02T08:44:53Z</time>
      </trkpt>
      <trkpt lat="43.2865743712" lon="2.9227728210">
        <ele>36.19</ele>
        <time>2017-08-02T08:44:54Z</time>
      </trkpt>
      <trkpt lat="43.2866166998" lon="2.9227857292">
        <ele>36.19</ele>
        <time>2017-08-02T08:44:55Z</time>
      </trkpt>
      <trkpt lat="43.2866600342" lon="2.9227985535">
        <ele>36.19</ele>
        <time>2017-08-02T08:44:56Z</time>
      </trkpt>
      <trkpt lat="43.2867041230" lon="2.9228120483">
        <ele>36.19</ele>
        <time>2017-08-02T08:44:57Z</time>
      </trkpt>
      <trkpt lat="43.2870984077" lon="2.9229191691">
        <ele>36.19</ele>
        <time>2017-08-02T08:45:06Z</time>
      </trkpt>
      <trkpt lat="43.2875521202" lon="2.9230440594">
        <ele>36.19</ele>
        <time>2017-08-02T08:45:16Z</time>
      </trkpt>
      <trkpt lat="43.2880821917" lon="2.9231961910">
        <ele>36.19</ele>
        <time>2017-08-02T08:45:28Z</time>
      </trkpt>
      <trkpt lat="43.2881675195" lon="2.9232173972">
        <ele>36.19</ele>
        <time>2017-08-02T08:45:30Z</time>
      </trkpt>
      <trkpt lat="43.2882106025" lon="2.9232312273">
        <ele>36.19</ele>
        <time>2017-08-02T08:45:31Z</time>
      </trkpt>
      <trkpt lat="43.2882515900" lon="2.9232447222">
        <ele>36.19</ele>
        <time>2017-08-02T08:45:32Z</time>
      </trkpt>
      <trkpt lat="43.2884509116" lon="2.9233129509">
        <ele>36.19</ele>
        <time>2017-08-02T08:45:39Z</time>
      </trkpt>
      <trkpt lat="43.2886361517" lon="2.9234180599">
        <ele>36.19</ele>
        <time>2017-08-02T08:45:48Z</time>
      </trkpt>
      <trkpt lat="43.2886821683" lon="2.9234225862">
        <ele>36.19</ele>
        <time>2017-08-02T08:45:49Z</time>
      </trkpt>
      <trkpt lat="43.2887194678" lon="2.9234284535">
        <ele>36.19</ele>
        <time>2017-08-02T08:45:50Z</time>
      </trkpt>
      <trkpt lat="43.2891258225" lon="2.9235222470">
        <ele>36.19</ele>
        <time>2017-08-02T08:46:00Z</time>
      </trkpt>
      <trkpt lat="43.2893463504" lon="2.9235680122">
        <ele>36.19</ele>
        <time>2017-08-02T08:46:05Z</time>
      </trkpt>
      <trkpt lat="43.2894190215" lon="2.9235835187">
        <ele>36.19</ele>
        <time>2017-08-02T08:46:06Z</time>
      </trkpt>
      <trkpt lat="43.2894728333" lon="2.9236019589">
        <ele>36.19</ele>
        <time>2017-08-02T08:46:07Z</time>
      </trkpt>
      <trkpt lat="43.2895293273" lon="2.9236161243">
        <ele>36.19</ele>
        <time>2017-08-02T08:46:08Z</time>
      </trkpt>
      <trkpt lat="43.2895959634" lon="2.9236308765">
        <ele>36.19</ele>
        <time>2017-08-02T08:46:09Z</time>
      </trkpt>
      <trkpt lat="43.2896509487" lon="2.9236476403">
        <ele>36.19</ele>
        <time>2017-08-02T08:46:10Z</time>
      </trkpt>
      <trkpt lat="43.2896986417" lon="2.9236638173">
        <ele>36.19</ele>
        <time>2017-08-02T08:46:11Z</time>
      </trkpt>
      <trkpt lat="43.2898359373" lon="2.9237292800">
        <ele>36.19</ele>
        <time>2017-08-02T08:46:15Z</time>
      </trkpt>
      <trkpt lat="43.2899990492" lon="2.9237863608">
        <ele>36.19</ele>
        <time>2017-08-02T08:46:19Z</time>
      </trkpt>
      <trkpt lat="43.2900471613" lon="2.9237971734">
        <ele>36.19</ele>
        <time>2017-08-02T08:46:20Z</time>
      </trkpt>
      <trkpt lat="43.2904539350" lon="2.9239103291">
        <ele>36.19</ele>
        <time>2017-08-02T08:46:29Z</time>
      </trkpt>
      <trkpt lat="43.2905509975" lon="2.9239463713">
        <ele>36.19</ele>
        <time>2017-08-02T08:46:31Z</time>
      </trkpt>
      <trkpt lat="43.2907383330" lon="2.9239779711">
        <ele>36.19</ele>
        <time>2017-08-02T08:46:35Z</time>
      </trkpt>
      <trkpt lat="43.2910251617" lon="2.9240670707">
        <ele>36.19</ele>
        <time>2017-08-02T08:46:43Z</time>
      </trkpt>
      <trkpt lat="43.2913932111" lon="2.9241615348">
        <ele>36.19</ele>
        <time>2017-08-02T08:46:53Z</time>
      </trkpt>
      <trkpt lat="43.2916386332" lon="2.9242285062">
        <ele>36.19</ele>
        <time>2017-08-02T08:46:59Z</time>
      </trkpt>
      <trkpt lat="43.2916837279" lon="2.9242378939">
        <ele>36.19</ele>
        <time>2017-08-02T08:47:00Z</time>
      </trkpt>
      <trkpt lat="43.2921275496" lon="2.9243636224">
        <ele>35.71</ele>
        <time>2017-08-02T08:47:10Z</time>
      </trkpt>
      <trkpt lat="43.2922091056" lon="2.9243924562">
        <ele>35.71</ele>
        <time>2017-08-02T08:47:12Z</time>
      </trkpt>
      <trkpt lat="43.2922513504" lon="2.9244049452">
        <ele>36.19</ele>
        <time>2017-08-02T08:47:13Z</time>
      </trkpt>
      <trkpt lat="43.2922948524" lon="2.9244191106">
        <ele>35.71</ele>
        <time>2017-08-02T08:47:14Z</time>
      </trkpt>
      <trkpt lat="43.2926874608" lon="2.9245273210">
        <ele>35.71</ele>
        <time>2017-08-02T08:47:23Z</time>
      </trkpt>
      <trkpt lat="43.2928867824" lon="2.9245844856">
        <ele>36.19</ele>
        <time>2017-08-02T08:47:28Z</time>
      </trkpt>
      <trkpt lat="43.2929278538" lon="2.9245928675">
        <ele>36.19</ele>
        <time>2017-08-02T08:47:29Z</time>
      </trkpt>
      <trkpt lat="43.2929685060" lon="2.9246056080">
        <ele>36.19</ele>
        <time>2017-08-02T08:47:30Z</time>
      </trkpt>
      <trkpt lat="43.2930100802" lon="2.9246169236">
        <ele>36.19</ele>
        <time>2017-08-02T08:47:31Z</time>
      </trkpt>
      <trkpt lat="43.2930527441" lon="2.9246278200">
        <ele>35.71</ele>
        <time>2017-08-02T08:47:32Z</time>
      </trkpt>
      <trkpt lat="43.2930952404" lon="2.9246351961">
        <ele>36.19</ele>
        <time>2017-08-02T08:47:33Z</time>
      </trkpt>
      <trkpt lat="43.2931389939" lon="2.9246455897">
        <ele>35.71</ele>
        <time>2017-08-02T08:47:34Z</time>
      </trkpt>
      <trkpt lat="43.2931808196" lon="2.9246589169">
        <ele>36.19</ele>
        <time>2017-08-02T08:47:35Z</time>
      </trkpt>
      <trkpt lat="43.2932234835" lon="2.9246711545">
        <ele>36.19</ele>
        <time>2017-08-02T08:47:36Z</time>
      </trkpt>
      <trkpt lat="43.2933049556" lon="2.9246957973">
        <ele>36.19</ele>
        <time>2017-08-02T08:47:38Z</time>
      </trkpt>
      <trkpt lat="43.2933492120" lon="2.9247062746">
        <ele>36.19</ele>
        <time>2017-08-02T08:47:39Z</time>
      </trkpt>
      <trkpt lat="43.2933944743" lon="2.9247228708">
        <ele>36.19</ele>
        <time>2017-08-02T08:47:40Z</time>
      </trkpt>
      <trkpt lat="43.2934357133" lon="2.9247374553">
        <ele>36.19</ele>
        <time>2017-08-02T08:47:41Z</time>
      </trkpt>
      <trkpt lat="43.2934772875" lon="2.9247495253">
        <ele>36.19</ele>
        <time>2017-08-02T08:47:42Z</time>
      </trkpt>
      <trkpt lat="43.2936080452" lon="2.9247985594">
        <ele>36.19</ele>
        <time>2017-08-02T08:47:45Z</time>
      </trkpt>
      <trkpt lat="43.2937329356" lon="2.9248420615">
        <ele>36.19</ele>
        <time>2017-08-02T08:47:48Z</time>
      </trkpt>
      <trkpt lat="43.2940966263" lon="2.9249313287">
        <ele>36.19</ele>
        <time>2017-08-02T08:47:56Z</time>
      </trkpt>
      <trkpt lat="43.2946601417" lon="2.9250823706">
        <ele>35.71</ele>
        <time>2017-08-02T08:48:09Z</time>
      </trkpt>
      <trkpt lat="43.2951315399" lon="2.9252271261">
        <ele>35.71</ele>
        <time>2017-08-02T08:48:19Z</time>
      </trkpt>
      <trkpt lat="43.2951794006" lon="2.9252422974">
        <ele>36.19</ele>
        <time>2017-08-02T08:48:20Z</time>
      </trkpt>
      <trkpt lat="43.2952241600" lon="2.9252583906">
        <ele>36.19</ele>
        <time>2017-08-02T08:48:21Z</time>
      </trkpt>
      <trkpt lat="43.2956238091" lon="2.9253666010">
        <ele>36.19</ele>
        <time>2017-08-02T08:48:31Z</time>
      </trkpt>
      <trkpt lat="43.2957946323" lon="2.9254215024">
        <ele>36.19</ele>
        <time>2017-08-02T08:48:35Z</time>
      </trkpt>
      <trkpt lat="43.2959812135" lon="2.9254648369">
        <ele>36.19</ele>
        <time>2017-08-02T08:48:39Z</time>
      </trkpt>
      <trkpt lat="43.2960225362" lon="2.9254790861">
        <ele>36.19</ele>
        <time>2017-08-02T08:48:40Z</time>
      </trkpt>
      <trkpt lat="43.2960625179" lon="2.9254954308">
        <ele>36.19</ele>
        <time>2017-08-02T08:48:41Z</time>
      </trkpt>
      <trkpt lat="43.2966082636" lon="2.9256505799">
        <ele>36.19</ele>
        <time>2017-08-02T08:48:53Z</time>
      </trkpt>
      <trkpt lat="43.2967984490" lon="2.9256942496">
        <ele>35.71</ele>
        <time>2017-08-02T08:48:57Z</time>
      </trkpt>
      <trkpt lat="43.2968505006" lon="2.9257028829">
        <ele>35.71</ele>
        <time>2017-08-02T08:48:58Z</time>
      </trkpt>
      <trkpt lat="43.2969036419" lon="2.9257161263">
        <ele>36.19</ele>
        <time>2017-08-02T08:48:59Z</time>
      </trkpt>
      <trkpt lat="43.2969504129" lon="2.9257326387">
        <ele>35.71</ele>
        <time>2017-08-02T08:49:00Z</time>
      </trkpt>
      <trkpt lat="43.2969963457" lon="2.9257480614">
        <ele>35.71</ele>
        <time>2017-08-02T08:49:01Z</time>
      </trkpt>
      <trkpt lat="43.2970407698" lon="2.9257566109">
        <ele>36.19</ele>
        <time>2017-08-02T08:49:02Z</time>
      </trkpt>
      <trkpt lat="43.2970841881" lon="2.9257677589">
        <ele>36.19</ele>
        <time>2017-08-02T08:49:03Z</time>
      </trkpt>
      <trkpt lat="43.2971276902" lon="2.9257812537">
        <ele>36.19</ele>
        <time>2017-08-02T08:49:04Z</time>
      </trkpt>
      <trkpt lat="43.2974475436" lon="2.9258724488">
        <ele>35.71</ele>
        <time>2017-08-02T08:49:12Z</time>
      </trkpt>
      <trkpt lat="43.2976238988" lon="2.9259261768">
        <ele>36.19</ele>
        <time>2017-08-02T08:49:16Z</time>
      </trkpt>
      <trkpt lat="43.2976655569" lon="2.9259383306">
        <ele>35.71</ele>
        <time>2017-08-02T08:49:17Z</time>
      </trkpt>
      <trkpt lat="43.2977169380" lon="2.9259510711">
        <ele>35.71</ele>
        <time>2017-08-02T08:49:18Z</time>
      </trkpt>
      <trkpt lat="43.2977680676" lon="2.9259661585">
        <ele>35.71</ele>
        <time>2017-08-02T08:49:19Z</time>
      </trkpt>
      <trkpt lat="43.2978106476" lon="2.9259798210">
        <ele>36.19</ele>
        <time>2017-08-02T08:49:20Z</time>
      </trkpt>
      <trkpt lat="43.2978519704" lon="2.9259939026">
        <ele>35.71</ele>
        <time>2017-08-02T08:49:21Z</time>
      </trkpt>
      <trkpt lat="43.2980180997" lon="2.9260376561">
        <ele>36.19</ele>
        <time>2017-08-02T08:49:25Z</time>
      </trkpt>
      <trkpt lat="43.2984190062" lon="2.9261393286">
        <ele>36.19</ele>
        <time>2017-08-02T08:49:35Z</time>
      </trkpt>
      <trkpt lat="43.2987619098" lon="2.9262078926">
        <ele>36.67</ele>
        <time>2017-08-02T08:49:44Z</time>
      </trkpt>
      <trkpt lat="43.2991297077" lon="2.9262367263">
        <ele>36.19</ele>
        <time>2017-08-02T08:49:52Z</time>
      </trkpt>
      <trkpt lat="43.2991777360" lon="2.9262397438">
        <ele>36.19</ele>
        <time>2017-08-02T08:49:53Z</time>
      </trkpt>
      <trkpt lat="43.2992685959" lon="2.9262436833">
        <ele>36.19</ele>
        <time>2017-08-02T08:49:55Z</time>
      </trkpt>
      <trkpt lat="43.2993142772" lon="2.9262448568">
        <ele>35.71</ele>
        <time>2017-08-02T08:49:56Z</time>
      </trkpt>
      <trkpt lat="43.2993598748" lon="2.9262469523">
        <ele>36.19</ele>
        <time>2017-08-02T08:49:57Z</time>
      </trkpt>
      <trkpt lat="43.2997575961" lon="2.9262702540">
        <ele>36.19</ele>
        <time>2017-08-02T08:50:06Z</time>
      </trkpt>
      <trkpt lat="43.3000384737" lon="2.9262940586">
        <ele>35.71</ele>
        <time>2017-08-02T08:50:14Z</time>
      </trkpt>
      <trkpt lat="43.3003829699" lon="2.9263214674">
        <ele>35.71</ele>
        <time>2017-08-02T08:50:24Z</time>
      </trkpt>
      <trkpt lat="43.3006231114" lon="2.9263557494">
        <ele>35.71</ele>
        <time>2017-08-02T08:50:30Z</time>
      </trkpt>
      <trkpt lat="43.3006643504" lon="2.9263594374">
        <ele>35.71</ele>
        <time>2017-08-02T08:50:31Z</time>
      </trkpt>
      <trkpt lat="43.3007078525" lon="2.9263643827">
        <ele>35.71</ele>
        <time>2017-08-02T08:50:32Z</time>
      </trkpt>
      <trkpt lat="43.3010854572" lon="2.9264240619">
        <ele>35.71</ele>
        <time>2017-08-02T08:50:41Z</time>
      </trkpt>
      <trkpt lat="43.3013648260" lon="2.9264898598">
        <ele>35.71</ele>
        <time>2017-08-02T08:50:50Z</time>
      </trkpt>
      <trkpt lat="43.3016285207" lon="2.9265132453">
        <ele>35.23</ele>
        <time>2017-08-02T08:50:58Z</time>
      </trkpt>
      <trkpt lat="43.3017046284" lon="2.9265052825">
        <ele>35.23</ele>
        <time>2017-08-02T08:51:01Z</time>
      </trkpt>
      <trkpt lat="43.3017291036" lon="2.9265209567">
        <ele>35.23</ele>
        <time>2017-08-02T08:51:02Z</time>
      </trkpt>
      <trkpt lat="43.3017545007" lon="2.9265366308">
        <ele>35.23</ele>
        <time>2017-08-02T08:51:03Z</time>
      </trkpt>
      <trkpt lat="43.3020211291" lon="2.9266610183">
        <ele>35.71</ele>
        <time>2017-08-02T08:51:12Z</time>
      </trkpt>
      <trkpt lat="43.3023620211" lon="2.9267104715">
        <ele>36.19</ele>
        <time>2017-08-02T08:51:22Z</time>
      </trkpt>
      <trkpt lat="43.3026369475" lon="2.9267586675">
        <ele>36.19</ele>
        <time>2017-08-02T08:51:31Z</time>
      </trkpt>
      <trkpt lat="43.3030160610" lon="2.9268097132">
        <ele>36.67</ele>
        <time>2017-08-02T08:51:41Z</time>
      </trkpt>
      <trkpt lat="43.3032707032" lon="2.9268379603">
        <ele>36.67</ele>
        <time>2017-08-02T08:51:49Z</time>
      </trkpt>
      <trkpt lat="43.3035070729" lon="2.9268755950">
        <ele>36.67</ele>
        <time>2017-08-02T08:51:57Z</time>
      </trkpt>
      <trkpt lat="43.3038695063" lon="2.9269299097">
        <ele>36.67</ele>
        <time>2017-08-02T08:52:07Z</time>
      </trkpt>
      <trkpt lat="43.3041845821" lon="2.9269650299">
        <ele>36.67</ele>
        <time>2017-08-02T08:52:16Z</time>
      </trkpt>
      <trkpt lat="43.3045410644" lon="2.9270081967">
        <ele>36.19</ele>
        <time>2017-08-02T08:52:26Z</time>
      </trkpt>
      <trkpt lat="43.3049046714" lon="2.9270563088">
        <ele>36.19</ele>
        <time>2017-08-02T08:52:36Z</time>
      </trkpt>
      <trkpt lat="43.3053276222" lon="2.9271205980">
        <ele>36.19</ele>
        <time>2017-08-02T08:52:48Z</time>
      </trkpt>
      <trkpt lat="43.3056410216" lon="2.9271692969">
        <ele>36.67</ele>
        <time>2017-08-02T08:52:58Z</time>
      </trkpt>
      <trkpt lat="43.3056728728" lon="2.9271795228">
        <ele>36.19</ele>
        <time>2017-08-02T08:53:05Z</time>
      </trkpt>
      <trkpt lat="43.3058005292" lon="2.9271858931">
        <ele>36.67</ele>
        <time>2017-08-02T08:53:15Z</time>
      </trkpt>
      <trkpt lat="43.3060562611" lon="2.9272202589">
        <ele>36.67</ele>
        <time>2017-08-02T08:53:25Z</time>
      </trkpt>
      <trkpt lat="43.3063939679" lon="2.9271783493">
        <ele>36.67</ele>
        <time>2017-08-02T08:53:36Z</time>
      </trkpt>
      <trkpt lat="43.3066771086" lon="2.9270913452">
        <ele>37.15</ele>
        <time>2017-08-02T08:53:45Z</time>
      </trkpt>
      <trkpt lat="43.3069826290" lon="2.9269612581">
        <ele>38.11</ele>
        <time>2017-08-02T08:53:55Z</time>
      </trkpt>
      <trkpt lat="43.3071376104" lon="2.9268778581">
        <ele>39.07</ele>
        <time>2017-08-02T08:54:02Z</time>
      </trkpt>
      <trkpt lat="43.3071514405" lon="2.9268652014">
        <ele>39.55</ele>
        <time>2017-08-02T08:54:03Z</time>
      </trkpt>
      <trkpt lat="43.3071685396" lon="2.9268553946">
        <ele>39.55</ele>
        <time>2017-08-02T08:54:04Z</time>
      </trkpt>
      <trkpt lat="43.3071846329" lon="2.9268470127">
        <ele>39.55</ele>
        <time>2017-08-02T08:54:05Z</time>
      </trkpt>
      <trkpt lat="43.3071978763" lon="2.9268381279">
        <ele>39.55</ele>
        <time>2017-08-02T08:54:06Z</time>
      </trkpt>
      <trkpt lat="43.3072090242" lon="2.9268273152">
        <ele>39.55</ele>
        <time>2017-08-02T08:54:07Z</time>
      </trkpt>
      <trkpt lat="43.3072241116" lon="2.9268206935">
        <ele>39.55</ele>
        <time>2017-08-02T08:54:12Z</time>
      </trkpt>
      <trkpt lat="43.3072431386" lon="2.9268159159">
        <ele>39.55</ele>
        <time>2017-08-02T08:54:13Z</time>
      </trkpt>
      <trkpt lat="43.3072656021" lon="2.9268141557">
        <ele>39.55</ele>
        <time>2017-08-02T08:54:14Z</time>
      </trkpt>
      <trkpt lat="43.3072837070" lon="2.9268109705">
        <ele>39.55</ele>
        <time>2017-08-02T08:54:15Z</time>
      </trkpt>
      <trkpt lat="43.3073043264" lon="2.9268068634">
        <ele>39.55</ele>
        <time>2017-08-02T08:54:16Z</time>
      </trkpt>
      <trkpt lat="43.3073286340" lon="2.9268129822">
        <ele>39.55</ele>
        <time>2017-08-02T08:54:17Z</time>
      </trkpt>
      <trkpt lat="43.3073614072" lon="2.9268153291">
        <ele>39.55</ele>
        <time>2017-08-02T08:54:18Z</time>
      </trkpt>
      <trkpt lat="43.3074011374" lon="2.9268053547">
        <ele>38.59</ele>
        <time>2017-08-02T08:54:19Z</time>
      </trkpt>
      <trkpt lat="43.3074464835" lon="2.9267868306">
        <ele>38.59</ele>
        <time>2017-08-02T08:54:20Z</time>
      </trkpt>
      <trkpt lat="43.3074964397" lon="2.9267629422">
        <ele>38.11</ele>
        <time>2017-08-02T08:54:21Z</time>
      </trkpt>
      <trkpt lat="43.3076010458" lon="2.9267004970">
        <ele>37.63</ele>
        <time>2017-08-02T08:54:23Z</time>
      </trkpt>
      <trkpt lat="43.3080869447" lon="2.9262514785">
        <ele>36.67</ele>
        <time>2017-08-02T08:54:33Z</time>
      </trkpt>
      <trkpt lat="43.3081628848" lon="2.9261440225">
        <ele>36.67</ele>
        <time>2017-08-02T08:54:35Z</time>
      </trkpt>
      <trkpt lat="43.3081966639" lon="2.9260856844">
        <ele>36.67</ele>
        <time>2017-08-02T08:54:36Z</time>
      </trkpt>
      <trkpt lat="43.3082268387" lon="2.9260261729">
        <ele>36.67</ele>
        <time>2017-08-02T08:54:37Z</time>
      </trkpt>
      <trkpt lat="43.3082552534" lon="2.9259691760">
        <ele>36.67</ele>
        <time>2017-08-02T08:54:38Z</time>
      </trkpt>
      <trkpt lat="43.3082855120" lon="2.9259182140">
        <ele>36.67</ele>
        <time>2017-08-02T08:54:39Z</time>
      </trkpt>
      <trkpt lat="43.3083163574" lon="2.9258684255">
        <ele>36.67</ele>
        <time>2017-08-02T08:54:40Z</time>
      </trkpt>
      <trkpt lat="43.3086266555" lon="2.9253303073">
        <ele>36.67</ele>
        <time>2017-08-02T08:54:51Z</time>
      </trkpt>
      <trkpt lat="43.3087177668" lon="2.9251474142">
        <ele>36.67</ele>
        <time>2017-08-02T08:54:55Z</time>
      </trkpt>
      <trkpt lat="43.3088015020" lon="2.9249467514">
        <ele>36.19</ele>
        <time>2017-08-02T08:54:59Z</time>
      </trkpt>
      <trkpt lat="43.3089401387" lon="2.9246129002">
        <ele>36.19</ele>
        <time>2017-08-02T08:55:05Z</time>
      </trkpt>
      <trkpt lat="43.3090294898" lon="2.9244579189">
        <ele>36.19</ele>
        <time>2017-08-02T08:55:08Z</time>
      </trkpt>
      <trkpt lat="43.3093925100" lon="2.9239059705">
        <ele>36.19</ele>
        <time>2017-08-02T08:55:20Z</time>
      </trkpt>
      <trkpt lat="43.3095121197" lon="2.9237399250">
        <ele>36.19</ele>
        <time>2017-08-02T08:55:24Z</time>
      </trkpt>
      <trkpt lat="43.3095393609" lon="2.9236955009">
        <ele>36.19</ele>
        <time>2017-08-02T08:55:25Z</time>
      </trkpt>
      <trkpt lat="43.3098059893" lon="2.9232624080">
        <ele>37.15</ele>
        <time>2017-08-02T08:55:36Z</time>
      </trkpt>
      <trkpt lat="43.3099053986" lon="2.9230889026">
        <ele>37.15</ele>
        <time>2017-08-02T08:55:40Z</time>
      </trkpt>
      <trkpt lat="43.3099854458" lon="2.9229642637">
        <ele>37.15</ele>
        <time>2017-08-02T08:55:43Z</time>
      </trkpt>
      <trkpt lat="43.3102043811" lon="2.9223947134">
        <ele>36.67</ele>
        <time>2017-08-02T08:55:54Z</time>
      </trkpt>
      <trkpt lat="43.3102940675" lon="2.9220749438">
        <ele>36.67</ele>
        <time>2017-08-02T08:56:00Z</time>
      </trkpt>
      <trkpt lat="43.3103063889" lon="2.9220197909">
        <ele>36.67</ele>
        <time>2017-08-02T08:56:01Z</time>
      </trkpt>
      <trkpt lat="43.3105057944" lon="2.9213654995">
        <ele>37.63</ele>
        <time>2017-08-02T08:56:15Z</time>
      </trkpt>
      <trkpt lat="43.3106755279" lon="2.9209044948">
        <ele>37.15</ele>
        <time>2017-08-02T08:56:25Z</time>
      </trkpt>
      <trkpt lat="43.3107715845" lon="2.9206534568">
        <ele>37.63</ele>
        <time>2017-08-02T08:56:30Z</time>
      </trkpt>
      <trkpt lat="43.3108619414" lon="2.9204339348">
        <ele>37.63</ele>
        <time>2017-08-02T08:56:34Z</time>
      </trkpt>
      <trkpt lat="43.3108845726" lon="2.9203795362">
        <ele>37.63</ele>
        <time>2017-08-02T08:56:35Z</time>
      </trkpt>
      <trkpt lat="43.3109082934" lon="2.9203258920">
        <ele>37.63</ele>
        <time>2017-08-02T08:56:36Z</time>
      </trkpt>
      <trkpt lat="43.3109312598" lon="2.9202740919">
        <ele>37.63</ele>
        <time>2017-08-02T08:56:37Z</time>
      </trkpt>
      <trkpt lat="43.3109561540" lon="2.9202225432">
        <ele>37.63</ele>
        <time>2017-08-02T08:56:38Z</time>
      </trkpt>
      <trkpt lat="43.3110526297" lon="2.9200155940">
        <ele>37.63</ele>
        <time>2017-08-02T08:56:42Z</time>
      </trkpt>
      <trkpt lat="43.3110750932" lon="2.9199666437">
        <ele>37.63</ele>
        <time>2017-08-02T08:56:43Z</time>
      </trkpt>
      <trkpt lat="43.3113201801" lon="2.9194695130">
        <ele>38.11</ele>
        <time>2017-08-02T08:56:53Z</time>
      </trkpt>
      <trkpt lat="43.3113387879" lon="2.9194176290">
        <ele>38.11</ele>
        <time>2017-08-02T08:56:54Z</time>
      </trkpt>
      <trkpt lat="43.3113594074" lon="2.9193671700">
        <ele>37.63</ele>
        <time>2017-08-02T08:56:55Z</time>
      </trkpt>
      <trkpt lat="43.3116238564" lon="2.9188300576">
        <ele>37.63</ele>
        <time>2017-08-02T08:57:06Z</time>
      </trkpt>
      <trkpt lat="43.3117294684" lon="2.9186315741">
        <ele>37.15</ele>
        <time>2017-08-02T08:57:10Z</time>
      </trkpt>
      <trkpt lat="43.3117458969" lon="2.9185754154">
        <ele>37.15</ele>
        <time>2017-08-02T08:57:11Z</time>
      </trkpt>
      <trkpt lat="43.3117592242" lon="2.9185145628">
        <ele>36.67</ele>
        <time>2017-08-02T08:57:12Z</time>
      </trkpt>
      <trkpt lat="43.3117739763" lon="2.9184462503">
        <ele>36.67</ele>
        <time>2017-08-02T08:57:13Z</time>
      </trkpt>
      <trkpt lat="43.3117934223" lon="2.9183796979">
        <ele>36.19</ele>
        <time>2017-08-02T08:57:14Z</time>
      </trkpt>
      <trkpt lat="43.3118212502" lon="2.9183218628">
        <ele>36.19</ele>
        <time>2017-08-02T08:57:15Z</time>
      </trkpt>
      <trkpt lat="43.3118548617" lon="2.9182714876">
        <ele>36.19</ele>
        <time>2017-08-02T08:57:16Z</time>
      </trkpt>
      <trkpt lat="43.3120184764" lon="2.9179099761">
        <ele>36.67</ele>
        <time>2017-08-02T08:57:24Z</time>
      </trkpt>
      <trkpt lat="43.3122871164" lon="2.9174612928">
        <ele>36.67</ele>
        <time>2017-08-02T08:57:35Z</time>
      </trkpt>
      <trkpt lat="43.3126290981" lon="2.9172169603">
        <ele>37.63</ele>
        <time>2017-08-02T08:57:45Z</time>
      </trkpt>
      <trkpt lat="43.3127567545" lon="2.9172063991">
        <ele>37.15</ele>
        <time>2017-08-02T08:57:48Z</time>
      </trkpt>
      <trkpt lat="43.3128785435" lon="2.9172275215">
        <ele>37.15</ele>
        <time>2017-08-02T08:57:51Z</time>
      </trkpt>
      <trkpt lat="43.3129191119" lon="2.9172433633">
        <ele>37.15</ele>
        <time>2017-08-02T08:57:52Z</time>
      </trkpt>
      <trkpt lat="43.3129994944" lon="2.9172886256">
        <ele>36.67</ele>
        <time>2017-08-02T08:57:54Z</time>
      </trkpt>
      <trkpt lat="43.3130362071" lon="2.9173202254">
        <ele>37.15</ele>
        <time>2017-08-02T08:57:55Z</time>
      </trkpt>
      <trkpt lat="43.3132451680" lon="2.9176366422">
        <ele>37.15</ele>
        <time>2017-08-02T08:58:03Z</time>
      </trkpt>
      <trkpt lat="43.3132853173" lon="2.9177275859">
        <ele>37.15</ele>
        <time>2017-08-02T08:58:05Z</time>
      </trkpt>
      <trkpt lat="43.3132993989" lon="2.9177772906">
        <ele>37.63</ele>
        <time>2017-08-02T08:58:06Z</time>
      </trkpt>
      <trkpt lat="43.3133040927" lon="2.9178255703">
        <ele>37.63</ele>
        <time>2017-08-02T08:58:07Z</time>
      </trkpt>
      <trkpt lat="43.3133095410" lon="2.9178708326">
        <ele>37.15</ele>
        <time>2017-08-02T08:58:08Z</time>
      </trkpt>
      <trkpt lat="43.3133213595" lon="2.9179062881">
        <ele>37.63</ele>
        <time>2017-08-02T08:58:09Z</time>
      </trkpt>
      <trkpt lat="43.3133817092" lon="2.9183005728">
        <ele>37.15</ele>
        <time>2017-08-02T08:58:17Z</time>
      </trkpt>
      <trkpt lat="43.3133540489" lon="2.9187596496">
        <ele>37.15</ele>
        <time>2017-08-02T08:58:25Z</time>
      </trkpt>
      <trkpt lat="43.3133097086" lon="2.9189371783">
        <ele>37.15</ele>
        <time>2017-08-02T08:58:28Z</time>
      </trkpt>
      <trkpt lat="43.3132495265" lon="2.9191020504">
        <ele>37.15</ele>
        <time>2017-08-02T08:58:31Z</time>
      </trkpt>
      <trkpt lat="43.3130108938" lon="2.9195511527">
        <ele>37.15</ele>
        <time>2017-08-02T08:58:41Z</time>
      </trkpt>
      <trkpt lat="43.3129871730" lon="2.9195937328">
        <ele>37.15</ele>
        <time>2017-08-02T08:58:42Z</time>
      </trkpt>
      <trkpt lat="43.3128373045" lon="2.9198883567">
        <ele>38.11</ele>
        <time>2017-08-02T08:58:51Z</time>
      </trkpt>
      <trkpt lat="43.3126945607" lon="2.9203258082">
        <ele>36.67</ele>
        <time>2017-08-02T08:58:59Z</time>
      </trkpt>
      <trkpt lat="43.3126824908" lon="2.9203937855">
        <ele>36.67</ele>
        <time>2017-08-02T08:59:00Z</time>
      </trkpt>
      <trkpt lat="43.3126422577" lon="2.9207323305">
        <ele>36.19</ele>
        <time>2017-08-02T08:59:05Z</time>
      </trkpt>
      <trkpt lat="43.3126409166" lon="2.9208728112">
        <ele>36.19</ele>
        <time>2017-08-02T08:59:07Z</time>
      </trkpt>
      <trkpt lat="43.3127109054" lon="2.9215169605">
        <ele>35.71</ele>
        <time>2017-08-02T08:59:18Z</time>
      </trkpt>
      <trkpt lat="43.3127176948" lon="2.9215753824">
        <ele>35.71</ele>
        <time>2017-08-02T08:59:19Z</time>
      </trkpt>
      <trkpt lat="43.3127255738" lon="2.9216361511">
        <ele>35.71</ele>
        <time>2017-08-02T08:59:20Z</time>
      </trkpt>
      <trkpt lat="43.3128264081" lon="2.9221701622">
        <ele>35.71</ele>
        <time>2017-08-02T08:59:29Z</time>
      </trkpt>
      <trkpt lat="43.3128531463" lon="2.9222934600">
        <ele>35.71</ele>
        <time>2017-08-02T08:59:31Z</time>
      </trkpt>
      <trkpt lat="43.3130199462" lon="2.9230135493">
        <ele>35.71</ele>
        <time>2017-08-02T08:59:44Z</time>
      </trkpt>
      <trkpt lat="43.3131782804" lon="2.9234715365">
        <ele>35.71</ele>
        <time>2017-08-02T08:59:53Z</time>
      </trkpt>
      <trkpt lat="43.3133879118" lon="2.9239087366">
        <ele>35.71</ele>
        <time>2017-08-02T09:00:02Z</time>
      </trkpt>
      <trkpt lat="43.3134602476" lon="2.9240548331">
        <ele>35.71</ele>
        <time>2017-08-02T09:00:05Z</time>
      </trkpt>
      <trkpt lat="43.3134874888" lon="2.9241005145">
        <ele>35.71</ele>
        <time>2017-08-02T09:00:06Z</time>
      </trkpt>
      <trkpt lat="43.3136514388" lon="2.9244070407">
        <ele>35.71</ele>
        <time>2017-08-02T09:00:13Z</time>
      </trkpt>
      <trkpt lat="43.3136963658" lon="2.9244994931">
        <ele>35.71</ele>
        <time>2017-08-02T09:00:15Z</time>
      </trkpt>
      <trkpt lat="43.3137235232" lon="2.9245413188">
        <ele>35.71</ele>
        <time>2017-08-02T09:00:16Z</time>
      </trkpt>
      <trkpt lat="43.3137501776" lon="2.9245819710">
        <ele>35.23</ele>
        <time>2017-08-02T09:00:17Z</time>
      </trkpt>
      <trkpt lat="43.3137733955" lon="2.9246252216">
        <ele>35.71</ele>
        <time>2017-08-02T09:00:18Z</time>
      </trkpt>
      <trkpt lat="43.3137959428" lon="2.9246661253">
        <ele>35.71</ele>
        <time>2017-08-02T09:00:19Z</time>
      </trkpt>
      <trkpt lat="43.3138175681" lon="2.9247039277">
        <ele>35.23</ele>
        <time>2017-08-02T09:00:20Z</time>
      </trkpt>
      <trkpt lat="43.3138396125" lon="2.9247449152">
        <ele>35.23</ele>
        <time>2017-08-02T09:00:21Z</time>
      </trkpt>
      <trkpt lat="43.3140778262" lon="2.9251697939">
        <ele>35.23</ele>
        <time>2017-08-02T09:00:31Z</time>
      </trkpt>
      <trkpt lat="43.3143034671" lon="2.9256016295">
        <ele>35.23</ele>
        <time>2017-08-02T09:00:41Z</time>
      </trkpt>
      <trkpt lat="43.3143266011" lon="2.9256483167">
        <ele>35.23</ele>
        <time>2017-08-02T09:00:42Z</time>
      </trkpt>
      <trkpt lat="43.3144545089" lon="2.9258754663">
        <ele>35.23</ele>
        <time>2017-08-02T09:00:47Z</time>
      </trkpt>
      <trkpt lat="43.3144799061" lon="2.9259172920">
        <ele>36.67</ele>
        <time>2017-08-02T09:00:48Z</time>
      </trkpt>
      <trkpt lat="43.3145264257" lon="2.9260014463">
        <ele>33.78</ele>
        <time>2017-08-02T09:00:50Z</time>
      </trkpt>
      <trkpt lat="43.3145488054" lon="2.9260446131">
        <ele>38.11</ele>
        <time>2017-08-02T09:00:51Z</time>
      </trkpt>
      <trkpt lat="43.3145721070" lon="2.9260888696">
        <ele>35.23</ele>
        <time>2017-08-02T09:00:52Z</time>
      </trkpt>
      <trkpt lat="43.3146918844" lon="2.9263233114">
        <ele>35.23</ele>
        <time>2017-08-02T09:00:57Z</time>
      </trkpt>
      <trkpt lat="43.3147186227" lon="2.9263705853">
        <ele>35.23</ele>
        <time>2017-08-02T09:00:58Z</time>
      </trkpt>
      <trkpt lat="43.3147467859" lon="2.9264175240">
        <ele>35.23</ele>
        <time>2017-08-02T09:00:59Z</time>
      </trkpt>
      <trkpt lat="43.3148011845" lon="2.9265128262">
        <ele>35.71</ele>
        <time>2017-08-02T09:01:01Z</time>
      </trkpt>
      <trkpt lat="43.3149963152" lon="2.9269056860">
        <ele>35.23</ele>
        <time>2017-08-02T09:01:09Z</time>
      </trkpt>
      <trkpt lat="43.3150305133" lon="2.9269491881">
        <ele>35.23</ele>
        <time>2017-08-02T09:01:10Z</time>
      </trkpt>
      <trkpt lat="43.3150630351" lon="2.9269958753">
        <ele>35.23</ele>
        <time>2017-08-02T09:01:11Z</time>
      </trkpt>
      <trkpt lat="43.3152105566" lon="2.9272490088">
        <ele>35.23</ele>
        <time>2017-08-02T09:01:16Z</time>
      </trkpt>
      <trkpt lat="43.3152376302" lon="2.9272999708">
        <ele>35.23</ele>
        <time>2017-08-02T09:01:17Z</time>
      </trkpt>
      <trkpt lat="43.3152673859" lon="2.9273512680">
        <ele>35.23</ele>
        <time>2017-08-02T09:01:18Z</time>
      </trkpt>
      <trkpt lat="43.3154643606" lon="2.9277084209">
        <ele>35.23</ele>
        <time>2017-08-02T09:01:25Z</time>
      </trkpt>
      <trkpt lat="43.3154906798" lon="2.9277587961">
        <ele>35.23</ele>
        <time>2017-08-02T09:01:26Z</time>
      </trkpt>
      <trkpt lat="43.3155146521" lon="2.9278113507">
        <ele>35.23</ele>
        <time>2017-08-02T09:01:27Z</time>
      </trkpt>
      <trkpt lat="43.3156096190" lon="2.9280194733">
        <ele>35.23</ele>
        <time>2017-08-02T09:01:31Z</time>
      </trkpt>
      <trkpt lat="43.3156534564" lon="2.9281203914">
        <ele>35.23</ele>
        <time>2017-08-02T09:01:33Z</time>
      </trkpt>
      <trkpt lat="43.3156774286" lon="2.9281682521">
        <ele>35.23</ele>
        <time>2017-08-02T09:01:34Z</time>
      </trkpt>
      <trkpt lat="43.3157691266" lon="2.9283746146">
        <ele>35.23</ele>
        <time>2017-08-02T09:01:38Z</time>
      </trkpt>
      <trkpt lat="43.3157874830" lon="2.9284289293">
        <ele>35.23</ele>
        <time>2017-08-02T09:01:39Z</time>
      </trkpt>
      <trkpt lat="43.3158070128" lon="2.9284831602">
        <ele>35.23</ele>
        <time>2017-08-02T09:01:40Z</time>
      </trkpt>
      <trkpt lat="43.3158261236" lon="2.9285385646">
        <ele>35.23</ele>
        <time>2017-08-02T09:01:41Z</time>
      </trkpt>
      <trkpt lat="43.3158423845" lon="2.9285944719">
        <ele>35.23</ele>
        <time>2017-08-02T09:01:42Z</time>
      </trkpt>
      <trkpt lat="43.3159634192" lon="2.9291018285">
        <ele>35.23</ele>
        <time>2017-08-02T09:01:51Z</time>
      </trkpt>
      <trkpt lat="43.3159700409" lon="2.9291588254">
        <ele>35.23</ele>
        <time>2017-08-02T09:01:52Z</time>
      </trkpt>
      <trkpt lat="43.3159925044" lon="2.9298163019">
        <ele>35.23</ele>
        <time>2017-08-02T09:02:03Z</time>
      </trkpt>
      <trkpt lat="43.3158911671" lon="2.9306719266">
        <ele>35.23</ele>
        <time>2017-08-02T09:02:17Z</time>
      </trkpt>
      <trkpt lat="43.3157495968" lon="2.9313772637">
        <ele>35.71</ele>
        <time>2017-08-02T09:02:29Z</time>
      </trkpt>
      <trkpt lat="43.3155789413" lon="2.9321373347">
        <ele>35.23</ele>
        <time>2017-08-02T09:02:42Z</time>
      </trkpt>
      <trkpt lat="43.3154686354" lon="2.9326513968">
        <ele>35.23</ele>
        <time>2017-08-02T09:02:51Z</time>
      </trkpt>
      <trkpt lat="43.3154280670" lon="2.9328214657">
        <ele>34.74</ele>
        <time>2017-08-02T09:02:54Z</time>
      </trkpt>
      <trkpt lat="43.3154152427" lon="2.9328767024">
        <ele>35.23</ele>
        <time>2017-08-02T09:02:55Z</time>
      </trkpt>
      <trkpt lat="43.3154019993" lon="2.9329324421">
        <ele>35.23</ele>
        <time>2017-08-02T09:02:56Z</time>
      </trkpt>
      <trkpt lat="43.3153506182" lon="2.9331596754">
        <ele>35.23</ele>
        <time>2017-08-02T09:03:00Z</time>
      </trkpt>
      <trkpt lat="43.3153382968" lon="2.9332170077">
        <ele>35.23</ele>
        <time>2017-08-02T09:03:01Z</time>
      </trkpt>
      <trkpt lat="43.3152605128" lon="2.9335516132">
        <ele>35.23</ele>
        <time>2017-08-02T09:03:07Z</time>
      </trkpt>
      <trkpt lat="43.3152502030" lon="2.9336082749">
        <ele>35.23</ele>
        <time>2017-08-02T09:03:08Z</time>
      </trkpt>
      <trkpt lat="43.3152404800" lon="2.9336669482">
        <ele>35.23</ele>
        <time>2017-08-02T09:03:09Z</time>
      </trkpt>
      <trkpt lat="43.3152041864" lon="2.9341448843">
        <ele>35.71</ele>
        <time>2017-08-02T09:03:17Z</time>
      </trkpt>
      <trkpt lat="43.3152650390" lon="2.9345401749">
        <ele>35.23</ele>
        <time>2017-08-02T09:03:25Z</time>
      </trkpt>
      <trkpt lat="43.3153890911" lon="2.9348719306">
        <ele>34.74</ele>
        <time>2017-08-02T09:03:32Z</time>
      </trkpt>
      <trkpt lat="43.3155137300" lon="2.9351140000">
        <ele>35.23</ele>
        <time>2017-08-02T09:03:37Z</time>
      </trkpt>
      <trkpt lat="43.3155414741" lon="2.9351571668">
        <ele>35.23</ele>
        <time>2017-08-02T09:03:38Z</time>
      </trkpt>
      <trkpt lat="43.3155934419" lon="2.9352435842">
        <ele>35.23</ele>
        <time>2017-08-02T09:03:40Z</time>
      </trkpt>
      <trkpt lat="43.3158998005" lon="2.9356720671">
        <ele>35.23</ele>
        <time>2017-08-02T09:03:50Z</time>
      </trkpt>
      <trkpt lat="43.3160234336" lon="2.9358509369">
        <ele>34.74</ele>
        <time>2017-08-02T09:03:54Z</time>
      </trkpt>
      <trkpt lat="43.3161938377" lon="2.9361548647">
        <ele>35.23</ele>
        <time>2017-08-02T09:04:00Z</time>
      </trkpt>
      <trkpt lat="43.3163716178" lon="2.9365222435">
        <ele>35.23</ele>
        <time>2017-08-02T09:04:07Z</time>
      </trkpt>
      <trkpt lat="43.3163900580" lon="2.9365785699">
        <ele>35.71</ele>
        <time>2017-08-02T09:04:08Z</time>
      </trkpt>
      <trkpt lat="43.3164224960" lon="2.9366961680">
        <ele>35.71</ele>
        <time>2017-08-02T09:04:10Z</time>
      </trkpt>
      <trkpt lat="43.3164616395" lon="2.9368722718">
        <ele>34.74</ele>
        <time>2017-08-02T09:04:13Z</time>
      </trkpt>
      <trkpt lat="43.3164810855" lon="2.9370509740">
        <ele>35.23</ele>
        <time>2017-08-02T09:04:16Z</time>
      </trkpt>
      <trkpt lat="43.3164855279" lon="2.9374632798">
        <ele>35.23</ele>
        <time>2017-08-02T09:04:23Z</time>
      </trkpt>
      <trkpt lat="43.3164471388" lon="2.9376972187">
        <ele>35.71</ele>
        <time>2017-08-02T09:04:27Z</time>
      </trkpt>
      <trkpt lat="43.3164349012" lon="2.9377506115">
        <ele>35.71</ele>
        <time>2017-08-02T09:04:28Z</time>
      </trkpt>
      <trkpt lat="43.3163973503" lon="2.9379077721">
        <ele>35.71</ele>
        <time>2017-08-02T09:04:31Z</time>
      </trkpt>
      <trkpt lat="43.3163826820" lon="2.9379585665">
        <ele>35.71</ele>
        <time>2017-08-02T09:04:32Z</time>
      </trkpt>
      <trkpt lat="43.3162213303" lon="2.9384616483">
        <ele>35.71</ele>
        <time>2017-08-02T09:04:42Z</time>
      </trkpt>
      <trkpt lat="43.3160339110" lon="2.9390732758">
        <ele>35.23</ele>
        <time>2017-08-02T09:04:53Z</time>
      </trkpt>
      <trkpt lat="43.3160175662" lon="2.9391338769">
        <ele>35.23</ele>
        <time>2017-08-02T09:04:54Z</time>
      </trkpt>
      <trkpt lat="43.3158511855" lon="2.9397969693">
        <ele>35.71</ele>
        <time>2017-08-02T09:05:05Z</time>
      </trkpt>
      <trkpt lat="43.3158250339" lon="2.9400396254">
        <ele>35.71</ele>
        <time>2017-08-02T09:05:09Z</time>
      </trkpt>
      <trkpt lat="43.3158307336" lon="2.9402283859">
        <ele>35.23</ele>
        <time>2017-08-02T09:05:12Z</time>
      </trkpt>
      <trkpt lat="43.3159121219" lon="2.9407898057">
        <ele>35.23</ele>
        <time>2017-08-02T09:05:21Z</time>
      </trkpt>
      <trkpt lat="43.3159377705" lon="2.9409038834">
        <ele>35.23</ele>
        <time>2017-08-02T09:05:23Z</time>
      </trkpt>
      <trkpt lat="43.3159459010" lon="2.9409606289">
        <ele>34.74</ele>
        <time>2017-08-02T09:05:24Z</time>
      </trkpt>
      <trkpt lat="43.3159724716" lon="2.9411332123">
        <ele>34.74</ele>
        <time>2017-08-02T09:05:27Z</time>
      </trkpt>
      <trkpt lat="43.3160195779" lon="2.9414192028">
        <ele>35.23</ele>
        <time>2017-08-02T09:05:32Z</time>
      </trkpt>
      <trkpt lat="43.3160765748" lon="2.9417684767">
        <ele>34.74</ele>
        <time>2017-08-02T09:05:38Z</time>
      </trkpt>
      <trkpt lat="43.3160879742" lon="2.9418265633">
        <ele>34.74</ele>
        <time>2017-08-02T09:05:39Z</time>
      </trkpt>
      <trkpt lat="43.3162046503" lon="2.9426437989">
        <ele>34.74</ele>
        <time>2017-08-02T09:05:53Z</time>
      </trkpt>
      <trkpt lat="43.3162069973" lon="2.9426993709">
        <ele>34.74</ele>
        <time>2017-08-02T09:05:54Z</time>
      </trkpt>
      <trkpt lat="43.3162048180" lon="2.9427515902">
        <ele>34.74</ele>
        <time>2017-08-02T09:05:55Z</time>
      </trkpt>
      <trkpt lat="43.3162028901" lon="2.9427997023">
        <ele>34.74</ele>
        <time>2017-08-02T09:05:56Z</time>
      </trkpt>
      <trkpt lat="43.3161513414" lon="2.9434812348">
        <ele>34.74</ele>
        <time>2017-08-02T09:06:08Z</time>
      </trkpt>
      <trkpt lat="43.3161354158" lon="2.9435415845">
        <ele>34.74</ele>
        <time>2017-08-02T09:06:09Z</time>
      </trkpt>
      <trkpt lat="43.3160542790" lon="2.9437595140">
        <ele>35.23</ele>
        <time>2017-08-02T09:06:13Z</time>
      </trkpt>
      <trkpt lat="43.3159346692" lon="2.9439383838">
        <ele>35.23</ele>
        <time>2017-08-02T09:06:18Z</time>
      </trkpt>
      <trkpt lat="43.3159051649" lon="2.9439745098">
        <ele>35.23</ele>
        <time>2017-08-02T09:06:19Z</time>
      </trkpt>
      <trkpt lat="43.3155615069" lon="2.9442807846">
        <ele>34.74</ele>
        <time>2017-08-02T09:06:30Z</time>
      </trkpt>
      <trkpt lat="43.3151307609" lon="2.9445970338">
        <ele>34.74</ele>
        <time>2017-08-02T09:06:42Z</time>
      </trkpt>
      <trkpt lat="43.3147465345" lon="2.9447976127">
        <ele>34.74</ele>
        <time>2017-08-02T09:06:52Z</time>
      </trkpt>
      <trkpt lat="43.3143286966" lon="2.9449633230">
        <ele>34.26</ele>
        <time>2017-08-02T09:07:03Z</time>
      </trkpt>
      <trkpt lat="43.3138896525" lon="2.9451147001">
        <ele>34.74</ele>
        <time>2017-08-02T09:07:14Z</time>
      </trkpt>
      <trkpt lat="43.3135520294" lon="2.9452261794">
        <ele>34.26</ele>
        <time>2017-08-02T09:07:23Z</time>
      </trkpt>
      <trkpt lat="43.3132444974" lon="2.9453554284">
        <ele>35.23</ele>
        <time>2017-08-02T09:07:31Z</time>
      </trkpt>
      <trkpt lat="43.3128406573" lon="2.9456051253">
        <ele>34.26</ele>
        <time>2017-08-02T09:07:42Z</time>
      </trkpt>
      <trkpt lat="43.3126746956" lon="2.9457908683">
        <ele>34.26</ele>
        <time>2017-08-02T09:07:47Z</time>
      </trkpt>
      <trkpt lat="43.3126453590" lon="2.9458311852">
        <ele>34.26</ele>
        <time>2017-08-02T09:07:48Z</time>
      </trkpt>
      <trkpt lat="43.3126176987" lon="2.9458737653">
        <ele>34.26</ele>
        <time>2017-08-02T09:07:49Z</time>
      </trkpt>
      <trkpt lat="43.3125906251" lon="2.9459186923">
        <ele>34.26</ele>
        <time>2017-08-02T09:07:50Z</time>
      </trkpt>
      <trkpt lat="43.3125684131" lon="2.9459679779">
        <ele>34.26</ele>
        <time>2017-08-02T09:07:51Z</time>
      </trkpt>
      <trkpt lat="43.3125266712" lon="2.9460648727">
        <ele>34.26</ele>
        <time>2017-08-02T09:07:53Z</time>
      </trkpt>
      <trkpt lat="43.3125126734" lon="2.9461161699">
        <ele>34.26</ele>
        <time>2017-08-02T09:07:54Z</time>
      </trkpt>
      <trkpt lat="43.3124537487" lon="2.9467295576">
        <ele>34.26</ele>
        <time>2017-08-02T09:08:05Z</time>
      </trkpt>
      <trkpt lat="43.3124544192" lon="2.9470256064">
        <ele>34.26</ele>
        <time>2017-08-02T09:08:10Z</time>
      </trkpt>
      <trkpt lat="43.3124511503" lon="2.9470827710">
        <ele>34.26</ele>
        <time>2017-08-02T09:08:11Z</time>
      </trkpt>
      <trkpt lat="43.3124325424" lon="2.9480442591">
        <ele>34.26</ele>
        <time>2017-08-02T09:08:27Z</time>
      </trkpt>
      <trkpt lat="43.3124320395" lon="2.9489844572">
        <ele>34.26</ele>
        <time>2017-08-02T09:08:42Z</time>
      </trkpt>
      <trkpt lat="43.3124307822" lon="2.9499316961">
        <ele>34.26</ele>
        <time>2017-08-02T09:08:57Z</time>
      </trkpt>
      <trkpt lat="43.3124243282" lon="2.9504299164">
        <ele>34.26</ele>
        <time>2017-08-02T09:09:05Z</time>
      </trkpt>
      <trkpt lat="43.3124229033" lon="2.9504923616">
        <ele>34.26</ele>
        <time>2017-08-02T09:09:06Z</time>
      </trkpt>
      <trkpt lat="43.3124236576" lon="2.9506134801">
        <ele>33.78</ele>
        <time>2017-08-02T09:09:08Z</time>
      </trkpt>
      <trkpt lat="43.3124187961" lon="2.9510464054">
        <ele>33.78</ele>
        <time>2017-08-02T09:09:16Z</time>
      </trkpt>
      <trkpt lat="43.3124198858" lon="2.9511060007">
        <ele>34.26</ele>
        <time>2017-08-02T09:09:17Z</time>
      </trkpt>
      <trkpt lat="43.3124174550" lon="2.9512240179">
        <ele>34.26</ele>
        <time>2017-08-02T09:09:19Z</time>
      </trkpt>
      <trkpt lat="43.3124431875" lon="2.9515791591">
        <ele>34.26</ele>
        <time>2017-08-02T09:09:25Z</time>
      </trkpt>
      <trkpt lat="43.3126485441" lon="2.9523585085">
        <ele>33.78</ele>
        <time>2017-08-02T09:09:39Z</time>
      </trkpt>
      <trkpt lat="43.3127871808" lon="2.9528247099">
        <ele>34.26</ele>
        <time>2017-08-02T09:09:48Z</time>
      </trkpt>
      <trkpt lat="43.3129572496" lon="2.9533013050">
        <ele>34.26</ele>
        <time>2017-08-02T09:09:58Z</time>
      </trkpt>
      <trkpt lat="43.3131336886" lon="2.9536582902">
        <ele>34.26</ele>
        <time>2017-08-02T09:10:06Z</time>
      </trkpt>
      <trkpt lat="43.3134708088" lon="2.9542713426">
        <ele>34.26</ele>
        <time>2017-08-02T09:10:19Z</time>
      </trkpt>
      <trkpt lat="43.3135917597" lon="2.9544620309">
        <ele>34.26</ele>
        <time>2017-08-02T09:10:23Z</time>
      </trkpt>
      <trkpt lat="43.3140239306" lon="2.9549671244">
        <ele>34.26</ele>
        <time>2017-08-02T09:10:35Z</time>
      </trkpt>
      <trkpt lat="43.3142367471" lon="2.9553474952">
        <ele>33.78</ele>
        <time>2017-08-02T09:10:45Z</time>
      </trkpt>
      <trkpt lat="43.3143297024" lon="2.9558741301">
        <ele>34.26</ele>
        <time>2017-08-02T09:10:55Z</time>
      </trkpt>
      <trkpt lat="43.3142343163" lon="2.9564458597">
        <ele>33.78</ele>
        <time>2017-08-02T09:11:06Z</time>
      </trkpt>
      <trkpt lat="43.3141551912" lon="2.9568188544">
        <ele>36.19</ele>
        <time>2017-08-02T09:11:16Z</time>
      </trkpt>
      <trkpt lat="43.3140866272" lon="2.9568709061">
        <ele>37.15</ele>
        <time>2017-08-02T09:11:21Z</time>
      </trkpt>
      <trkpt lat="43.3140714560" lon="2.9568607640">
        <ele>37.15</ele>
        <time>2017-08-02T09:11:22Z</time>
      </trkpt>
      <trkpt lat="43.3140617330" lon="2.9568430781">
        <ele>37.15</ele>
        <time>2017-08-02T09:11:23Z</time>
      </trkpt>
      <trkpt lat="43.3140514232" lon="2.9568320140">
        <ele>37.15</ele>
        <time>2017-08-02T09:11:24Z</time>
      </trkpt>
      <trkpt lat="43.3140335698" lon="2.9568262305">
        <ele>36.67</ele>
        <time>2017-08-02T09:11:33Z</time>
      </trkpt>
      <trkpt lat="43.3140396047" lon="2.9568186868">
        <ele>36.67</ele>
        <time>2017-08-02T09:11:53Z</time>
      </trkpt>
      <trkpt lat="43.3140466455" lon="2.9568157531">
        <ele>36.67</ele>
        <time>2017-08-02T09:12:12Z</time>
      </trkpt>
      <trkpt lat="43.3140348271" lon="2.9568306729">
        <ele>36.67</ele>
        <time>2017-08-02T09:12:25Z</time>
      </trkpt>
      <trkpt lat="43.3140214998" lon="2.9568458442">
        <ele>36.67</ele>
        <time>2017-08-02T09:12:26Z</time>
      </trkpt>
      <trkpt lat="43.3140142076" lon="2.9568668827">
        <ele>36.67</ele>
        <time>2017-08-02T09:12:27Z</time>
      </trkpt>
      <trkpt lat="43.3140202425" lon="2.9568871669">
        <ele>36.67</ele>
        <time>2017-08-02T09:12:28Z</time>
      </trkpt>
      <trkpt lat="43.3140349947" lon="2.9569006618">
        <ele>36.67</ele>
        <time>2017-08-02T09:12:29Z</time>
      </trkpt>
      <trkpt lat="43.3140502498" lon="2.9569074512">
        <ele>36.67</ele>
        <time>2017-08-02T09:12:30Z</time>
      </trkpt>
      <trkpt lat="43.3140660077" lon="2.9569160845">
        <ele>36.67</ele>
        <time>2017-08-02T09:12:31Z</time>
      </trkpt>
      <trkpt lat="43.3140794188" lon="2.9569338541">
        <ele>37.15</ele>
        <time>2017-08-02T09:12:32Z</time>
      </trkpt>
      <trkpt lat="43.3140840288" lon="2.9569617659">
        <ele>37.15</ele>
        <time>2017-08-02T09:12:33Z</time>
      </trkpt>
      <trkpt lat="43.3140784130" lon="2.9570068605">
        <ele>36.67</ele>
        <time>2017-08-02T09:12:34Z</time>
      </trkpt>
      <trkpt lat="43.3140670974" lon="2.9570696410">
        <ele>35.71</ele>
        <time>2017-08-02T09:12:35Z</time>
      </trkpt>
      <trkpt lat="43.3139987849" lon="2.9573991336">
        <ele>33.78</ele>
        <time>2017-08-02T09:12:39Z</time>
      </trkpt>
      <trkpt lat="43.3138334937" lon="2.9579821788">
        <ele>33.30</ele>
        <time>2017-08-02T09:12:47Z</time>
      </trkpt>
      <trkpt lat="43.3138174005" lon="2.9580406006">
        <ele>33.30</ele>
        <time>2017-08-02T09:12:48Z</time>
      </trkpt>
      <trkpt lat="43.3135956153" lon="2.9588504601">
        <ele>33.30</ele>
        <time>2017-08-02T09:13:01Z</time>
      </trkpt>
      <trkpt lat="43.3135011513" lon="2.9595132172">
        <ele>33.30</ele>
        <time>2017-08-02T09:13:12Z</time>
      </trkpt>
      <trkpt lat="43.3134967089" lon="2.9595722258">
        <ele>33.30</ele>
        <time>2017-08-02T09:13:13Z</time>
      </trkpt>
      <trkpt lat="43.3134818729" lon="2.9598156363">
        <ele>33.30</ele>
        <time>2017-08-02T09:13:17Z</time>
      </trkpt>
      <trkpt lat="43.3134784363" lon="2.9598795064">
        <ele>33.30</ele>
        <time>2017-08-02T09:13:18Z</time>
      </trkpt>
      <trkpt lat="43.3133901749" lon="2.9608597700">
        <ele>33.30</ele>
        <time>2017-08-02T09:13:33Z</time>
      </trkpt>
      <trkpt lat="43.3133661188" lon="2.9618754052">
        <ele>33.78</ele>
        <time>2017-08-02T09:13:49Z</time>
      </trkpt>
      <trkpt lat="43.3133745007" lon="2.9626727756">
        <ele>33.30</ele>
        <time>2017-08-02T09:14:01Z</time>
      </trkpt>
      <trkpt lat="43.3134101238" lon="2.9629929643">
        <ele>33.30</ele>
        <time>2017-08-02T09:14:06Z</time>
      </trkpt>
      <trkpt lat="43.3134550508" lon="2.9632423259">
        <ele>33.30</ele>
        <time>2017-08-02T09:14:10Z</time>
      </trkpt>
      <trkpt lat="43.3134819567" lon="2.9633601755">
        <ele>33.78</ele>
        <time>2017-08-02T09:14:12Z</time>
      </trkpt>
      <trkpt lat="43.3134991396" lon="2.9634174239">
        <ele>33.78</ele>
        <time>2017-08-02T09:14:13Z</time>
      </trkpt>
      <trkpt lat="43.3135177474" lon="2.9634695593">
        <ele>33.78</ele>
        <time>2017-08-02T09:14:14Z</time>
      </trkpt>
      <trkpt lat="43.3135611657" lon="2.9635760095">
        <ele>33.78</ele>
        <time>2017-08-02T09:14:16Z</time>
      </trkpt>
      <trkpt lat="43.3135821205" lon="2.9636318330">
        <ele>33.78</ele>
        <time>2017-08-02T09:14:17Z</time>
      </trkpt>
      <trkpt lat="43.3136051707" lon="2.9636806995">
        <ele>33.78</ele>
        <time>2017-08-02T09:14:18Z</time>
      </trkpt>
      <trkpt lat="43.3137593139" lon="2.9640884791">
        <ele>33.78</ele>
        <time>2017-08-02T09:14:26Z</time>
      </trkpt>
      <trkpt lat="43.3139277063" lon="2.9644528404">
        <ele>33.78</ele>
        <time>2017-08-02T09:14:34Z</time>
      </trkpt>
      <trkpt lat="43.3140221704" lon="2.9646613821">
        <ele>33.78</ele>
        <time>2017-08-02T09:14:38Z</time>
      </trkpt>
      <trkpt lat="43.3140525129" lon="2.9647162836">
        <ele>33.78</ele>
        <time>2017-08-02T09:14:39Z</time>
      </trkpt>
      <trkpt lat="43.3140800055" lon="2.9647711013">
        <ele>33.78</ele>
        <time>2017-08-02T09:14:40Z</time>
      </trkpt>
      <trkpt lat="43.3142004535" lon="2.9650309402">
        <ele>33.78</ele>
        <time>2017-08-02T09:14:45Z</time>
      </trkpt>
      <trkpt lat="43.3142254315" lon="2.9650917929">
        <ele>33.78</ele>
        <time>2017-08-02T09:14:46Z</time>
      </trkpt>
      <trkpt lat="43.3142554387" lon="2.9651518911">
        <ele>33.78</ele>
        <time>2017-08-02T09:14:47Z</time>
      </trkpt>
      <trkpt lat="43.3143157884" lon="2.9652727582">
        <ele>33.78</ele>
        <time>2017-08-02T09:14:49Z</time>
      </trkpt>
      <trkpt lat="43.3143447898" lon="2.9653302580">
        <ele>33.78</ele>
        <time>2017-08-02T09:14:50Z</time>
      </trkpt>
      <trkpt lat="43.3146239910" lon="2.9658192582">
        <ele>33.78</ele>
        <time>2017-08-02T09:14:59Z</time>
      </trkpt>
      <trkpt lat="43.3147348836" lon="2.9660051689">
        <ele>33.78</ele>
        <time>2017-08-02T09:15:03Z</time>
      </trkpt>
      <trkpt lat="43.3150963951" lon="2.9666084144">
        <ele>33.78</ele>
        <time>2017-08-02T09:15:16Z</time>
      </trkpt>
      <trkpt lat="43.3153046016" lon="2.9668956622">
        <ele>33.78</ele>
        <time>2017-08-02T09:15:23Z</time>
      </trkpt>
      <trkpt lat="43.3153357822" lon="2.9669313692">
        <ele>33.78</ele>
        <time>2017-08-02T09:15:24Z</time>
      </trkpt>
      <trkpt lat="43.3153666276" lon="2.9669700097">
        <ele>33.78</ele>
        <time>2017-08-02T09:15:25Z</time>
      </trkpt>
      <trkpt lat="43.3153973892" lon="2.9670104943">
        <ele>33.78</ele>
        <time>2017-08-02T09:15:26Z</time>
      </trkpt>
      <trkpt lat="43.3154261392" lon="2.9670556728">
        <ele>33.78</ele>
        <time>2017-08-02T09:15:27Z</time>
      </trkpt>
      <trkpt lat="43.3154558949" lon="2.9670990072">
        <ele>33.78</ele>
        <time>2017-08-02T09:15:28Z</time>
      </trkpt>
      <trkpt lat="43.3158619143" lon="2.9675651249">
        <ele>33.30</ele>
        <time>2017-08-02T09:15:40Z</time>
      </trkpt>
      <trkpt lat="43.3158946875" lon="2.9676010832">
        <ele>33.78</ele>
        <time>2017-08-02T09:15:41Z</time>
      </trkpt>
      <trkpt lat="43.3163814247" lon="2.9681931809">
        <ele>33.78</ele>
        <time>2017-08-02T09:15:56Z</time>
      </trkpt>
      <trkpt lat="43.3165968396" lon="2.9684991203">
        <ele>33.78</ele>
        <time>2017-08-02T09:16:03Z</time>
      </trkpt>
      <trkpt lat="43.3166274335" lon="2.9685385153">
        <ele>33.78</ele>
        <time>2017-08-02T09:16:04Z</time>
      </trkpt>
      <trkpt lat="43.3166543394" lon="2.9685801733">
        <ele>33.78</ele>
        <time>2017-08-02T09:16:05Z</time>
      </trkpt>
      <trkpt lat="43.3167110849" lon="2.9686693568">
        <ele>33.78</ele>
        <time>2017-08-02T09:16:07Z</time>
      </trkpt>
      <trkpt lat="43.3170644660" lon="2.9692202155">
        <ele>33.78</ele>
        <time>2017-08-02T09:16:19Z</time>
      </trkpt>
      <trkpt lat="43.3171167690" lon="2.9693169426">
        <ele>33.78</ele>
        <time>2017-08-02T09:16:21Z</time>
      </trkpt>
      <trkpt lat="43.3174274024" lon="2.9699820466">
        <ele>33.78</ele>
        <time>2017-08-02T09:16:34Z</time>
      </trkpt>
      <trkpt lat="43.3175460901" lon="2.9703122936">
        <ele>33.78</ele>
        <time>2017-08-02T09:16:42Z</time>
      </trkpt>
      <trkpt lat="43.3177092858" lon="2.9708257690">
        <ele>33.78</ele>
        <time>2017-08-02T09:16:52Z</time>
      </trkpt>
      <trkpt lat="43.3177203499" lon="2.9708871245">
        <ele>34.26</ele>
        <time>2017-08-02T09:16:53Z</time>
      </trkpt>
      <trkpt lat="43.3177869022" lon="2.9716788791">
        <ele>33.78</ele>
        <time>2017-08-02T09:17:05Z</time>
      </trkpt>
      <trkpt lat="43.3176707290" lon="2.9724385310">
        <ele>34.26</ele>
        <time>2017-08-02T09:17:17Z</time>
      </trkpt>
      <trkpt lat="43.3174518775" lon="2.9730937444">
        <ele>34.26</ele>
        <time>2017-08-02T09:17:29Z</time>
      </trkpt>
      <trkpt lat="43.3174071182" lon="2.9731995240">
        <ele>34.26</ele>
        <time>2017-08-02T09:17:31Z</time>
      </trkpt>
      <trkpt lat="43.3173822239" lon="2.9732503183">
        <ele>34.26</ele>
        <time>2017-08-02T09:17:32Z</time>
      </trkpt>
      <trkpt lat="43.3172347862" lon="2.9735661484">
        <ele>34.26</ele>
        <time>2017-08-02T09:17:39Z</time>
      </trkpt>
      <trkpt lat="43.3169767912" lon="2.9741236288">
        <ele>33.78</ele>
        <time>2017-08-02T09:17:51Z</time>
      </trkpt>
      <trkpt lat="43.3168331254" lon="2.9745746590">
        <ele>34.26</ele>
        <time>2017-08-02T09:18:00Z</time>
      </trkpt>
      <trkpt lat="43.3166981768" lon="2.9753015377">
        <ele>33.78</ele>
        <time>2017-08-02T09:18:13Z</time>
      </trkpt>
      <trkpt lat="43.3166290261" lon="2.9759656359">
        <ele>34.26</ele>
        <time>2017-08-02T09:18:26Z</time>
      </trkpt>
      <trkpt lat="43.3165885415" lon="2.9764194321">
        <ele>35.23</ele>
        <time>2017-08-02T09:18:36Z</time>
      </trkpt>
      <trkpt lat="43.3165826742" lon="2.9764454160">
        <ele>35.23</ele>
        <time>2017-08-02T09:18:37Z</time>
      </trkpt>
      <trkpt lat="43.3165736217" lon="2.9764646944">
        <ele>35.71</ele>
        <time>2017-08-02T09:18:38Z</time>
      </trkpt>
      <trkpt lat="43.3165636472" lon="2.9764825478">
        <ele>35.71</ele>
        <time>2017-08-02T09:18:39Z</time>
      </trkpt>
      <trkpt lat="43.3165511582" lon="2.9764936958">
        <ele>35.71</ele>
        <time>2017-08-02T09:18:40Z</time>
      </trkpt>
      <trkpt lat="43.3165390044" lon="2.9765028320">
        <ele>35.71</ele>
        <time>2017-08-02T09:18:41Z</time>
      </trkpt>
      <trkpt lat="43.3165308740" lon="2.9765150696">
        <ele>35.71</ele>
        <time>2017-08-02T09:18:42Z</time>
      </trkpt>
      <trkpt lat="43.3165241685" lon="2.9765294865">
        <ele>36.19</ele>
        <time>2017-08-02T09:18:43Z</time>
      </trkpt>
      <trkpt lat="43.3165221568" lon="2.9765446577">
        <ele>36.19</ele>
        <time>2017-08-02T09:18:44Z</time>
      </trkpt>
      <trkpt lat="43.3165281080" lon="2.9765589070">
        <ele>36.19</ele>
        <time>2017-08-02T09:18:45Z</time>
      </trkpt>
      <trkpt lat="43.3165390044" lon="2.9765720665">
        <ele>34.26</ele>
        <time>2017-08-02T09:18:46Z</time>
      </trkpt>
      <trkpt lat="43.3165500686" lon="2.9765846394">
        <ele>37.63</ele>
        <time>2017-08-02T09:18:47Z</time>
      </trkpt>
      <trkpt lat="43.3165634796" lon="2.9766036663">
        <ele>36.19</ele>
        <time>2017-08-02T09:18:48Z</time>
      </trkpt>
      <trkpt lat="43.3167208917" lon="2.9768816102">
        <ele>34.26</ele>
        <time>2017-08-02T09:18:54Z</time>
      </trkpt>
      <trkpt lat="43.3167466242" lon="2.9769407865">
        <ele>34.26</ele>
        <time>2017-08-02T09:18:55Z</time>
      </trkpt>
      <trkpt lat="43.3167731948" lon="2.9769939277">
        <ele>34.26</ele>
        <time>2017-08-02T09:18:56Z</time>
      </trkpt>
      <trkpt lat="43.3167954069" lon="2.9770474881">
        <ele>34.26</ele>
        <time>2017-08-02T09:18:57Z</time>
      </trkpt>
      <trkpt lat="43.3168125898" lon="2.9771068320">
        <ele>34.26</ele>
        <time>2017-08-02T09:18:58Z</time>
      </trkpt>
      <trkpt lat="43.3168256655" lon="2.9771648347">
        <ele>34.26</ele>
        <time>2017-08-02T09:18:59Z</time>
      </trkpt>
      <trkpt lat="43.3168365620" lon="2.9772173893">
        <ele>34.26</ele>
        <time>2017-08-02T09:19:00Z</time>
      </trkpt>
      <trkpt lat="43.3168474585" lon="2.9772618134">
        <ele>34.26</ele>
        <time>2017-08-02T09:19:01Z</time>
      </trkpt>
      <trkpt lat="43.3169276733" lon="2.9776214808">
        <ele>34.26</ele>
        <time>2017-08-02T09:19:10Z</time>
      </trkpt>
      <trkpt lat="43.3170625381" lon="2.9779656418">
        <ele>34.26</ele>
        <time>2017-08-02T09:19:18Z</time>
      </trkpt>
      <trkpt lat="43.3171828184" lon="2.9784303345">
        <ele>34.26</ele>
        <time>2017-08-02T09:19:28Z</time>
      </trkpt>
      <trkpt lat="43.3173040207" lon="2.9789289739">
        <ele>34.26</ele>
        <time>2017-08-02T09:19:38Z</time>
      </trkpt>
      <trkpt lat="43.3174206968" lon="2.9794205725">
        <ele>34.26</ele>
        <time>2017-08-02T09:19:48Z</time>
      </trkpt>
      <trkpt lat="43.3174676355" lon="2.9796240851">
        <ele>34.26</ele>
        <time>2017-08-02T09:19:52Z</time>
      </trkpt>
      <trkpt lat="43.3174851537" lon="2.9796787351">
        <ele>34.26</ele>
        <time>2017-08-02T09:19:53Z</time>
      </trkpt>
      <trkpt lat="43.3174988162" lon="2.9797307868">
        <ele>34.26</ele>
        <time>2017-08-02T09:19:54Z</time>
      </trkpt>
      <trkpt lat="43.3176633529" lon="2.9802351259">
        <ele>34.74</ele>
        <time>2017-08-02T09:20:04Z</time>
      </trkpt>
      <trkpt lat="43.3177343477" lon="2.9805147462">
        <ele>34.74</ele>
        <time>2017-08-02T09:20:10Z</time>
      </trkpt>
      <trkpt lat="43.3177775145" lon="2.9806791991">
        <ele>34.74</ele>
        <time>2017-08-02T09:20:13Z</time>
      </trkpt>
      <trkpt lat="43.3177957870" lon="2.9807271436">
        <ele>34.26</ele>
        <time>2017-08-02T09:20:14Z</time>
      </trkpt>
      <trkpt lat="43.3178940229" lon="2.9810907505">
        <ele>34.74</ele>
        <time>2017-08-02T09:20:21Z</time>
      </trkpt>
      <trkpt lat="43.3179049194" lon="2.9811469931">
        <ele>34.74</ele>
        <time>2017-08-02T09:20:22Z</time>
      </trkpt>
      <trkpt lat="43.3179158159" lon="2.9812031519">
        <ele>34.74</ele>
        <time>2017-08-02T09:20:23Z</time>
      </trkpt>
      <trkpt lat="43.3179272991" lon="2.9812588915">
        <ele>34.74</ele>
        <time>2017-08-02T09:20:24Z</time>
      </trkpt>
      <trkpt lat="43.3179381117" lon="2.9813136254">
        <ele>34.74</ele>
        <time>2017-08-02T09:20:25Z</time>
      </trkpt>
      <trkpt lat="43.3179571386" lon="2.9814246856">
        <ele>34.74</ele>
        <time>2017-08-02T09:20:27Z</time>
      </trkpt>
      <trkpt lat="43.3181217592" lon="2.9820746183">
        <ele>34.74</ele>
        <time>2017-08-02T09:20:39Z</time>
      </trkpt>
      <trkpt lat="43.3181798458" lon="2.9824254848">
        <ele>34.26</ele>
        <time>2017-08-02T09:20:45Z</time>
      </trkpt>
      <trkpt lat="43.3181888144" lon="2.9824831523">
        <ele>34.74</ele>
        <time>2017-08-02T09:20:46Z</time>
      </trkpt>
      <trkpt lat="43.3181982022" lon="2.9825403169">
        <ele>34.74</ele>
        <time>2017-08-02T09:20:47Z</time>
      </trkpt>
      <trkpt lat="43.3182201628" lon="2.9826517124">
        <ele>34.26</ele>
        <time>2017-08-02T09:20:49Z</time>
      </trkpt>
      <trkpt lat="43.3182743099" lon="2.9833178222">
        <ele>34.26</ele>
        <time>2017-08-02T09:21:01Z</time>
      </trkpt>
      <trkpt lat="43.3183428738" lon="2.9841808230">
        <ele>34.74</ele>
        <time>2017-08-02T09:21:16Z</time>
      </trkpt>
      <trkpt lat="43.3183907345" lon="2.9852068517">
        <ele>34.74</ele>
        <time>2017-08-02T09:21:33Z</time>
      </trkpt>
      <trkpt lat="43.3184287045" lon="2.9857703671">
        <ele>34.74</ele>
        <time>2017-08-02T09:21:42Z</time>
      </trkpt>
      <trkpt lat="43.3184344880" lon="2.9858341534">
        <ele>34.74</ele>
        <time>2017-08-02T09:21:43Z</time>
      </trkpt>
      <trkpt lat="43.3184396848" lon="2.9858970176">
        <ele>34.26</ele>
        <time>2017-08-02T09:21:44Z</time>
      </trkpt>
      <trkpt lat="43.3185209893" lon="2.9866643809">
        <ele>34.74</ele>
        <time>2017-08-02T09:21:56Z</time>
      </trkpt>
      <trkpt lat="43.3186005335" lon="2.9871885013">
        <ele>34.26</ele>
        <time>2017-08-02T09:22:06Z</time>
      </trkpt>
      <trkpt lat="43.3186275233" lon="2.9873992223">
        <ele>30.42</ele>
        <time>2017-08-02T09:22:11Z</time>
      </trkpt>
      <trkpt lat="43.3186327200" lon="2.9874397069">
        <ele>33.78</ele>
        <time>2017-08-02T09:22:12Z</time>
      </trkpt>
      <trkpt lat="43.3186438680" lon="2.9875143897">
        <ele>34.74</ele>
        <time>2017-08-02T09:22:14Z</time>
      </trkpt>
      <trkpt lat="43.3187280223" lon="2.9879080877">
        <ele>34.26</ele>
        <time>2017-08-02T09:22:22Z</time>
      </trkpt>
      <trkpt lat="43.3187591191" lon="2.9880219977">
        <ele>34.74</ele>
        <time>2017-08-02T09:22:24Z</time>
      </trkpt>
      <trkpt lat="43.3187786490" lon="2.9880801681">
        <ele>34.26</ele>
        <time>2017-08-02T09:22:25Z</time>
      </trkpt>
      <trkpt lat="43.3187970053" lon="2.9881415237">
        <ele>34.26</ele>
        <time>2017-08-02T09:22:26Z</time>
      </trkpt>
      <trkpt lat="43.3188983425" lon="2.9884192161">
        <ele>34.74</ele>
        <time>2017-08-02T09:22:31Z</time>
      </trkpt>
      <trkpt lat="43.3191020228" lon="2.9888690729">
        <ele>34.74</ele>
        <time>2017-08-02T09:22:41Z</time>
      </trkpt>
      <trkpt lat="43.3191941399" lon="2.9891060293">
        <ele>35.23</ele>
        <time>2017-08-02T09:22:48Z</time>
      </trkpt>
      <trkpt lat="43.3192095626" lon="2.9891314264">
        <ele>35.23</ele>
        <time>2017-08-02T09:22:49Z</time>
      </trkpt>
      <trkpt lat="43.3192244824" lon="2.9891497828">
        <ele>35.71</ele>
        <time>2017-08-02T09:22:50Z</time>
      </trkpt>
      <trkpt lat="43.3193979040" lon="2.9893919360">
        <ele>35.71</ele>
        <time>2017-08-02T09:22:59Z</time>
      </trkpt>
      <trkpt lat="43.3194559906" lon="2.9894739110">
        <ele>35.23</ele>
        <time>2017-08-02T09:23:01Z</time>
      </trkpt>
      <trkpt lat="43.3194846567" lon="2.9895164911">
        <ele>35.23</ele>
        <time>2017-08-02T09:23:02Z</time>
      </trkpt>
      <trkpt lat="43.3195428271" lon="2.9895954486">
        <ele>35.23</ele>
        <time>2017-08-02T09:23:04Z</time>
      </trkpt>
      <trkpt lat="43.3195688110" lon="2.9896355141">
        <ele>35.23</ele>
        <time>2017-08-02T09:23:05Z</time>
      </trkpt>
      <trkpt lat="43.3197361976" lon="2.9898645077">
        <ele>34.74</ele>
        <time>2017-08-02T09:23:11Z</time>
      </trkpt>
      <trkpt lat="43.3197654504" lon="2.9899059143">
        <ele>34.74</ele>
        <time>2017-08-02T09:23:12Z</time>
      </trkpt>
      <trkpt lat="43.3198931906" lon="2.9900743067">
        <ele>34.74</ele>
        <time>2017-08-02T09:23:16Z</time>
      </trkpt>
      <trkpt lat="43.3202274609" lon="2.9904631432">
        <ele>34.74</ele>
        <time>2017-08-02T09:23:27Z</time>
      </trkpt>
      <trkpt lat="43.3206008747" lon="2.9908594396">
        <ele>34.26</ele>
        <time>2017-08-02T09:23:39Z</time>
      </trkpt>
      <trkpt lat="43.3209623024" lon="2.9911536444">
        <ele>34.26</ele>
        <time>2017-08-02T09:23:50Z</time>
      </trkpt>
      <trkpt lat="43.3213721775" lon="2.9912840668">
        <ele>34.74</ele>
        <time>2017-08-02T09:24:01Z</time>
      </trkpt>
      <trkpt lat="43.3218513709" lon="2.9911575839">
        <ele>34.74</ele>
        <time>2017-08-02T09:24:13Z</time>
      </trkpt>
      <trkpt lat="43.3219284844" lon="2.9911141656">
        <ele>34.74</ele>
        <time>2017-08-02T09:24:15Z</time>
      </trkpt>
      <trkpt lat="43.3222160675" lon="2.9908348806">
        <ele>34.26</ele>
        <time>2017-08-02T09:24:24Z</time>
      </trkpt>
      <trkpt lat="43.3222443145" lon="2.9907985032">
        <ele>34.74</ele>
        <time>2017-08-02T09:24:25Z</time>
      </trkpt>
      <trkpt lat="43.3222743217" lon="2.9907647241">
        <ele>34.74</ele>
        <time>2017-08-02T09:24:26Z</time>
      </trkpt>
      <trkpt lat="43.3223054186" lon="2.9907299392">
        <ele>34.74</ele>
        <time>2017-08-02T09:24:27Z</time>
      </trkpt>
      <trkpt lat="43.3223330788" lon="2.9906917177">
        <ele>34.74</ele>
        <time>2017-08-02T09:24:28Z</time>
      </trkpt>
      <trkpt lat="43.3223867230" lon="2.9906076472">
        <ele>34.26</ele>
        <time>2017-08-02T09:24:30Z</time>
      </trkpt>
      <trkpt lat="43.3225295506" lon="2.9902642407">
        <ele>34.26</ele>
        <time>2017-08-02T09:24:40Z</time>
      </trkpt>
      <trkpt lat="43.3226294629" lon="2.9899428785">
        <ele>34.26</ele>
        <time>2017-08-02T09:24:49Z</time>
      </trkpt>
      <trkpt lat="43.3227534313" lon="2.9894593265">
        <ele>34.26</ele>
        <time>2017-08-02T09:25:00Z</time>
      </trkpt>
      <trkpt lat="43.3228539303" lon="2.9889823124">
        <ele>34.26</ele>
        <time>2017-08-02T09:25:11Z</time>
      </trkpt>
      <trkpt lat="43.3229825925" lon="2.9884472955">
        <ele>34.74</ele>
        <time>2017-08-02T09:25:21Z</time>
      </trkpt>
      <trkpt lat="43.3230716083" lon="2.9882307909">
        <ele>34.74</ele>
        <time>2017-08-02T09:25:25Z</time>
      </trkpt>
      <trkpt lat="43.3231031243" lon="2.9881784040">
        <ele>34.74</ele>
        <time>2017-08-02T09:25:26Z</time>
      </trkpt>
      <trkpt lat="43.3231376577" lon="2.9881316330">
        <ele>34.74</ele>
        <time>2017-08-02T09:25:27Z</time>
      </trkpt>
      <trkpt lat="43.3231739514" lon="2.9880912323">
        <ele>34.26</ele>
        <time>2017-08-02T09:25:28Z</time>
      </trkpt>
      <trkpt lat="43.3232127596" lon="2.9880572855">
        <ele>34.74</ele>
        <time>2017-08-02T09:25:29Z</time>
      </trkpt>
      <trkpt lat="43.3232519869" lon="2.9880277812">
        <ele>34.74</ele>
        <time>2017-08-02T09:25:30Z</time>
      </trkpt>
      <trkpt lat="43.3233336266" lon="2.9879789148">
        <ele>34.74</ele>
        <time>2017-08-02T09:25:32Z</time>
      </trkpt>
      <trkpt lat="43.3234923799" lon="2.9879246000">
        <ele>34.74</ele>
        <time>2017-08-02T09:25:36Z</time>
      </trkpt>
      <trkpt lat="43.3235751931" lon="2.9879274499">
        <ele>34.74</ele>
        <time>2017-08-02T09:25:38Z</time>
      </trkpt>
      <trkpt lat="43.3236155100" lon="2.9879350774">
        <ele>34.74</ele>
        <time>2017-08-02T09:25:39Z</time>
      </trkpt>
      <trkpt lat="43.3236527257" lon="2.9879479017">
        <ele>34.26</ele>
        <time>2017-08-02T09:25:40Z</time>
      </trkpt>
      <trkpt lat="43.3236849122" lon="2.9879719578">
        <ele>34.74</ele>
        <time>2017-08-02T09:25:41Z</time>
      </trkpt>
      <trkpt lat="43.3237165119" lon="2.9880003724">
        <ele>34.74</ele>
        <time>2017-08-02T09:25:42Z</time>
      </trkpt>
      <trkpt lat="43.3237477764" lon="2.9880349897">
        <ele>34.74</ele>
        <time>2017-08-02T09:25:43Z</time>
      </trkpt>
      <trkpt lat="43.3237745985" lon="2.9880760610">
        <ele>34.74</ele>
        <time>2017-08-02T09:25:44Z</time>
      </trkpt>
      <trkpt lat="43.3237979840" lon="2.9881165456">
        <ele>34.74</ele>
        <time>2017-08-02T09:25:45Z</time>
      </trkpt>
      <trkpt lat="43.3239642810" lon="2.9885429330">
        <ele>34.74</ele>
        <time>2017-08-02T09:25:55Z</time>
      </trkpt>
      <trkpt lat="43.3241174184" lon="2.9890262336">
        <ele>34.26</ele>
        <time>2017-08-02T09:26:06Z</time>
      </trkpt>
      <trkpt lat="43.3242820390" lon="2.9895506054">
        <ele>34.26</ele>
        <time>2017-08-02T09:26:17Z</time>
      </trkpt>
      <trkpt lat="43.3244402893" lon="2.9900492448">
        <ele>34.26</ele>
        <time>2017-08-02T09:26:27Z</time>
      </trkpt>
      <trkpt lat="43.3246210869" lon="2.9905882850">
        <ele>34.26</ele>
        <time>2017-08-02T09:26:38Z</time>
      </trkpt>
      <trkpt lat="43.3247603942" lon="2.9910164326">
        <ele>34.26</ele>
        <time>2017-08-02T09:26:47Z</time>
      </trkpt>
      <trkpt lat="43.3249209076" lon="2.9915871564">
        <ele>34.26</ele>
        <time>2017-08-02T09:26:58Z</time>
      </trkpt>
      <trkpt lat="43.3250687644" lon="2.9923859518">
        <ele>34.26</ele>
        <time>2017-08-02T09:27:12Z</time>
      </trkpt>
      <trkpt lat="43.3251949959" lon="2.9930945579">
        <ele>34.26</ele>
        <time>2017-08-02T09:27:25Z</time>
      </trkpt>
      <trkpt lat="43.3252240811" lon="2.9932722542">
        <ele>34.26</ele>
        <time>2017-08-02T09:27:28Z</time>
      </trkpt>
      <trkpt lat="43.3253084868" lon="2.9939956963">
        <ele>34.74</ele>
        <time>2017-08-02T09:27:41Z</time>
      </trkpt>
      <trkpt lat="43.3253630530" lon="2.9944515880">
        <ele>35.71</ele>
        <time>2017-08-02T09:27:51Z</time>
      </trkpt>
      <trkpt lat="43.3253854327" lon="2.9946846049">
        <ele>37.15</ele>
        <time>2017-08-02T09:28:00Z</time>
      </trkpt>
      <trkpt lat="43.3254487161" lon="2.9950306937">
        <ele>35.71</ele>
        <time>2017-08-02T09:28:09Z</time>
      </trkpt>
      <trkpt lat="43.3254732750" lon="2.9951641336">
        <ele>34.74</ele>
        <time>2017-08-02T09:28:11Z</time>
      </trkpt>
      <trkpt lat="43.3254777174" lon="2.9952339549">
        <ele>31.38</ele>
        <time>2017-08-02T09:28:12Z</time>
      </trkpt>
      <trkpt lat="43.3254805673" lon="2.9953026026">
        <ele>35.71</ele>
        <time>2017-08-02T09:28:13Z</time>
      </trkpt>
      <trkpt lat="43.3254845068" lon="2.9953707475">
        <ele>34.74</ele>
        <time>2017-08-02T09:28:14Z</time>
      </trkpt>
      <trkpt lat="43.3255213033" lon="2.9959299881">
        <ele>34.26</ele>
        <time>2017-08-02T09:28:24Z</time>
      </trkpt>
      <trkpt lat="43.3255094849" lon="2.9965234268">
        <ele>34.26</ele>
        <time>2017-08-02T09:28:36Z</time>
      </trkpt>
      <trkpt lat="43.3254580200" lon="2.9972517304">
        <ele>31.86</ele>
        <time>2017-08-02T09:28:50Z</time>
      </trkpt>
      <trkpt lat="43.3254487161" lon="2.9973012675">
        <ele>36.67</ele>
        <time>2017-08-02T09:28:51Z</time>
      </trkpt>
      <trkpt lat="43.3254159428" lon="2.9975029361">
        <ele>30.90</ele>
        <time>2017-08-02T09:28:55Z</time>
      </trkpt>
      <trkpt lat="43.3254043758" lon="2.9975528922">
        <ele>38.59</ele>
        <time>2017-08-02T09:28:56Z</time>
      </trkpt>
      <trkpt lat="43.3253933117" lon="2.9976040218">
        <ele>34.74</ele>
        <time>2017-08-02T09:28:57Z</time>
      </trkpt>
      <trkpt lat="43.3253109176" lon="2.9979929421">
        <ele>34.26</ele>
        <time>2017-08-02T09:29:05Z</time>
      </trkpt>
      <trkpt lat="43.3252983447" lon="2.9980425630">
        <ele>30.42</ele>
        <time>2017-08-02T09:29:06Z</time>
      </trkpt>
      <trkpt lat="43.3252852689" lon="2.9980932735">
        <ele>35.23</ele>
        <time>2017-08-02T09:29:07Z</time>
      </trkpt>
      <trkpt lat="43.3252725285" lon="2.9981457442">
        <ele>38.59</ele>
        <time>2017-08-02T09:29:08Z</time>
      </trkpt>
      <trkpt lat="43.3252604585" lon="2.9981998075">
        <ele>34.74</ele>
        <time>2017-08-02T09:29:09Z</time>
      </trkpt>
      <trkpt lat="43.3252431918" lon="2.9982524458">
        <ele>34.74</ele>
        <time>2017-08-02T09:29:10Z</time>
      </trkpt>
      <trkpt lat="43.3252251707" lon="2.9983044136">
        <ele>34.26</ele>
        <time>2017-08-02T09:29:11Z</time>
      </trkpt>
      <trkpt lat="43.3251006994" lon="2.9987333156">
        <ele>34.74</ele>
        <time>2017-08-02T09:29:19Z</time>
      </trkpt>
      <trkpt lat="43.3250851929" lon="2.9987905640">
        <ele>34.74</ele>
        <time>2017-08-02T09:29:20Z</time>
      </trkpt>
      <trkpt lat="43.3248668443" lon="2.9994662292">
        <ele>34.74</ele>
        <time>2017-08-02T09:29:32Z</time>
      </trkpt>
      <trkpt lat="43.3247505035" lon="2.9998102225">
        <ele>34.74</ele>
        <time>2017-08-02T09:29:38Z</time>
      </trkpt>
      <trkpt lat="43.3246632479" lon="3.0000364501">
        <ele>34.74</ele>
        <time>2017-08-02T09:29:42Z</time>
      </trkpt>
      <trkpt lat="43.3244119585" lon="3.0005485006">
        <ele>34.26</ele>
        <time>2017-08-02T09:29:53Z</time>
      </trkpt>
      <trkpt lat="43.3243456576" lon="3.0006780848">
        <ele>34.26</ele>
        <time>2017-08-02T09:29:56Z</time>
      </trkpt>
      <trkpt lat="43.3243228588" lon="3.0007226765">
        <ele>34.26</ele>
        <time>2017-08-02T09:29:57Z</time>
      </trkpt>
      <trkpt lat="43.3242062666" lon="3.0009575374">
        <ele>34.26</ele>
        <time>2017-08-02T09:30:02Z</time>
      </trkpt>
      <trkpt lat="43.3239957970" lon="3.0013388302">
        <ele>34.74</ele>
        <time>2017-08-02T09:30:10Z</time>
      </trkpt>
      <trkpt lat="43.3239641134" lon="3.0013803206">
        <ele>34.74</ele>
        <time>2017-08-02T09:30:11Z</time>
      </trkpt>
      <trkpt lat="43.3239346091" lon="3.0014275946">
        <ele>34.26</ele>
        <time>2017-08-02T09:30:12Z</time>
      </trkpt>
      <trkpt lat="43.3239097148" lon="3.0014774669">
        <ele>34.26</ele>
        <time>2017-08-02T09:30:13Z</time>
      </trkpt>
      <trkpt lat="43.3238853235" lon="3.0015234835">
        <ele>34.74</ele>
        <time>2017-08-02T09:30:14Z</time>
      </trkpt>
      <trkpt lat="43.3238612674" lon="3.0015690811">
        <ele>34.74</ele>
        <time>2017-08-02T09:30:15Z</time>
      </trkpt>
      <trkpt lat="43.3238371275" lon="3.0016170256">
        <ele>34.26</ele>
        <time>2017-08-02T09:30:16Z</time>
      </trkpt>
      <trkpt lat="43.3238096349" lon="3.0016634613">
        <ele>34.74</ele>
        <time>2017-08-02T09:30:17Z</time>
      </trkpt>
      <trkpt lat="43.3234031126" lon="3.0024020746">
        <ele>34.74</ele>
        <time>2017-08-02T09:30:32Z</time>
      </trkpt>
      <trkpt lat="43.3230688423" lon="3.0030160490">
        <ele>34.74</ele>
        <time>2017-08-02T09:30:44Z</time>
      </trkpt>
      <trkpt lat="43.3227105159" lon="3.0037488788">
        <ele>35.23</ele>
        <time>2017-08-02T09:30:58Z</time>
      </trkpt>
      <trkpt lat="43.3223604038" lon="3.0044859834">
        <ele>35.23</ele>
        <time>2017-08-02T09:31:12Z</time>
      </trkpt>
      <trkpt lat="43.3220405504" lon="3.0051739700">
        <ele>35.23</ele>
        <time>2017-08-02T09:31:25Z</time>
      </trkpt>
      <trkpt lat="43.3218105510" lon="3.0056426860">
        <ele>35.23</ele>
        <time>2017-08-02T09:31:35Z</time>
      </trkpt>
      <trkpt lat="43.3216981497" lon="3.0059201270">
        <ele>35.23</ele>
        <time>2017-08-02T09:31:42Z</time>
      </trkpt>
      <trkpt lat="43.3215476945" lon="3.0062967259">
        <ele>35.23</ele>
        <time>2017-08-02T09:31:51Z</time>
      </trkpt>
      <trkpt lat="43.3213853370" lon="3.0066004023">
        <ele>35.23</ele>
        <time>2017-08-02T09:31:58Z</time>
      </trkpt>
      <trkpt lat="43.3211877756" lon="3.0070360936">
        <ele>35.23</ele>
        <time>2017-08-02T09:32:07Z</time>
      </trkpt>
      <trkpt lat="43.3210914675" lon="3.0072278716">
        <ele>35.23</ele>
        <time>2017-08-02T09:32:12Z</time>
      </trkpt>
      <trkpt lat="43.3209473826" lon="3.0075411033">
        <ele>35.23</ele>
        <time>2017-08-02T09:32:19Z</time>
      </trkpt>
      <trkpt lat="43.3207392599" lon="3.0080278404">
        <ele>35.23</ele>
        <time>2017-08-02T09:32:28Z</time>
      </trkpt>
      <trkpt lat="43.3206921536" lon="3.0081284232">
        <ele>38.11</ele>
        <time>2017-08-02T09:32:30Z</time>
      </trkpt>
      <trkpt lat="43.3206440415" lon="3.0082299281">
        <ele>34.26</ele>
        <time>2017-08-02T09:32:32Z</time>
      </trkpt>
      <trkpt lat="43.3204454742" lon="3.0086045992">
        <ele>35.23</ele>
        <time>2017-08-02T09:32:40Z</time>
      </trkpt>
      <trkpt lat="43.3202125411" lon="3.0089977942">
        <ele>35.23</ele>
        <time>2017-08-02T09:32:49Z</time>
      </trkpt>
      <trkpt lat="43.3200672828" lon="3.0092681944">
        <ele>35.23</ele>
        <time>2017-08-02T09:32:55Z</time>
      </trkpt>
      <trkpt lat="43.3198021632" lon="3.0097404309">
        <ele>35.23</ele>
        <time>2017-08-02T09:33:04Z</time>
      </trkpt>
      <trkpt lat="43.3194673061" lon="3.0103906151">
        <ele>35.23</ele>
        <time>2017-08-02T09:33:16Z</time>
      </trkpt>
      <trkpt lat="43.3192267455" lon="3.0107643642">
        <ele>35.23</ele>
        <time>2017-08-02T09:33:24Z</time>
      </trkpt>
      <trkpt lat="43.3191244025" lon="3.0109112151">
        <ele>35.23</ele>
        <time>2017-08-02T09:33:27Z</time>
      </trkpt>
      <trkpt lat="43.3190877736" lon="3.0109674577">
        <ele>35.71</ele>
        <time>2017-08-02T09:33:28Z</time>
      </trkpt>
      <trkpt lat="43.3187165391" lon="3.0114618223">
        <ele>35.71</ele>
        <time>2017-08-02T09:33:39Z</time>
      </trkpt>
      <trkpt lat="43.3183531836" lon="3.0119835958">
        <ele>35.71</ele>
        <time>2017-08-02T09:33:50Z</time>
      </trkpt>
      <trkpt lat="43.3182946779" lon="3.0120804068">
        <ele>30.90</ele>
        <time>2017-08-02T09:33:52Z</time>
      </trkpt>
      <trkpt lat="43.3182669338" lon="3.0121263396">
        <ele>39.07</ele>
        <time>2017-08-02T09:33:53Z</time>
      </trkpt>
      <trkpt lat="43.3182393573" lon="3.0121653154">
        <ele>36.19</ele>
        <time>2017-08-02T09:33:54Z</time>
      </trkpt>
      <trkpt lat="43.3181194961" lon="3.0124225561">
        <ele>36.19</ele>
        <time>2017-08-02T09:34:01Z</time>
      </trkpt>
      <trkpt lat="43.3180321567" lon="3.0127320159">
        <ele>36.67</ele>
        <time>2017-08-02T09:34:09Z</time>
      </trkpt>
      <trkpt lat="43.3180040773" lon="3.0131096207">
        <ele>36.19</ele>
        <time>2017-08-02T09:34:17Z</time>
      </trkpt>
      <trkpt lat="43.3180562127" lon="3.0135540292">
        <ele>36.67</ele>
        <time>2017-08-02T09:34:26Z</time>
      </trkpt>
      <trkpt lat="43.3181372657" lon="3.0138991121">
        <ele>37.15</ele>
        <time>2017-08-02T09:34:33Z</time>
      </trkpt>
      <trkpt lat="43.3181566279" lon="3.0139539298">
        <ele>36.67</ele>
        <time>2017-08-02T09:34:34Z</time>
      </trkpt>
      <trkpt lat="43.3181802649" lon="3.0140070710">
        <ele>36.67</ele>
        <time>2017-08-02T09:34:35Z</time>
      </trkpt>
      <trkpt lat="43.3182065841" lon="3.0140525848">
        <ele>36.19</ele>
        <time>2017-08-02T09:34:36Z</time>
      </trkpt>
      <trkpt lat="43.3182334062" lon="3.0140914768">
        <ele>36.19</ele>
        <time>2017-08-02T09:34:37Z</time>
      </trkpt>
      <trkpt lat="43.3182622399" lon="3.0141276866">
        <ele>36.19</ele>
        <time>2017-08-02T09:34:38Z</time>
      </trkpt>
      <trkpt lat="43.3182939235" lon="3.0141641479">
        <ele>36.19</ele>
        <time>2017-08-02T09:34:39Z</time>
      </trkpt>
      <trkpt lat="43.3183280379" lon="3.0142012797">
        <ele>32.82</ele>
        <time>2017-08-02T09:34:40Z</time>
      </trkpt>
      <trkpt lat="43.3183629904" lon="3.0142365675">
        <ele>38.59</ele>
        <time>2017-08-02T09:34:41Z</time>
      </trkpt>
      <trkpt lat="43.3185175527" lon="3.0143467896">
        <ele>36.19</ele>
        <time>2017-08-02T09:34:45Z</time>
      </trkpt>
      <trkpt lat="43.3185578696" lon="3.0143627152">
        <ele>35.71</ele>
        <time>2017-08-02T09:34:46Z</time>
      </trkpt>
      <trkpt lat="43.3189565968" lon="3.0144323688">
        <ele>35.71</ele>
        <time>2017-08-02T09:34:56Z</time>
      </trkpt>
      <trkpt lat="43.3189977519" lon="3.0144337099">
        <ele>35.71</ele>
        <time>2017-08-02T09:34:57Z</time>
      </trkpt>
      <trkpt lat="43.3190809004" lon="3.0144472048">
        <ele>36.19</ele>
        <time>2017-08-02T09:34:59Z</time>
      </trkpt>
      <trkpt lat="43.3191227261" lon="3.0144559219">
        <ele>36.19</ele>
        <time>2017-08-02T09:35:00Z</time>
      </trkpt>
      <trkpt lat="43.3191644680" lon="3.0144581851">
        <ele>36.19</ele>
        <time>2017-08-02T09:35:01Z</time>
      </trkpt>
      <trkpt lat="43.3192075510" lon="3.0144582689">
        <ele>36.19</ele>
        <time>2017-08-02T09:35:02Z</time>
      </trkpt>
      <trkpt lat="43.3192517236" lon="3.0144627113">
        <ele>35.71</ele>
        <time>2017-08-02T09:35:03Z</time>
      </trkpt>
      <trkpt lat="43.3197475970" lon="3.0144916289">
        <ele>36.19</ele>
        <time>2017-08-02T09:35:15Z</time>
      </trkpt>
      <trkpt lat="43.3201096952" lon="3.0144078936">
        <ele>36.19</ele>
        <time>2017-08-02T09:35:24Z</time>
      </trkpt>
      <trkpt lat="43.3204733860" lon="3.0142325442">
        <ele>36.67</ele>
        <time>2017-08-02T09:35:33Z</time>
      </trkpt>
      <trkpt lat="43.3205147088" lon="3.0142140202">
        <ele>36.67</ele>
        <time>2017-08-02T09:35:34Z</time>
      </trkpt>
      <trkpt lat="43.3207204845" lon="3.0141272675">
        <ele>36.19</ele>
        <time>2017-08-02T09:35:39Z</time>
      </trkpt>
      <trkpt lat="43.3207569458" lon="3.0141143594">
        <ele>36.19</ele>
        <time>2017-08-02T09:35:40Z</time>
      </trkpt>
      <trkpt lat="43.3207884617" lon="3.0141021218">
        <ele>36.67</ele>
        <time>2017-08-02T09:35:41Z</time>
      </trkpt>
      <trkpt lat="43.3211421780" lon="3.0140012875">
        <ele>38.11</ele>
        <time>2017-08-02T09:35:53Z</time>
      </trkpt>
      <trkpt lat="43.3216144983" lon="3.0138686858">
        <ele>37.15</ele>
        <time>2017-08-02T09:36:05Z</time>
      </trkpt>
      <trkpt lat="43.3216960542" lon="3.0138546042">
        <ele>36.67</ele>
        <time>2017-08-02T09:36:07Z</time>
      </trkpt>
      <trkpt lat="43.3221776783" lon="3.0136616528">
        <ele>36.19</ele>
        <time>2017-08-02T09:36:18Z</time>
      </trkpt>
      <trkpt lat="43.3227524254" lon="3.0134060886">
        <ele>35.71</ele>
        <time>2017-08-02T09:36:31Z</time>
      </trkpt>
      <trkpt lat="43.3232488018" lon="3.0132174119">
        <ele>35.71</ele>
        <time>2017-08-02T09:36:42Z</time>
      </trkpt>
      <trkpt lat="43.3237497881" lon="3.0130298249">
        <ele>36.19</ele>
        <time>2017-08-02T09:36:54Z</time>
      </trkpt>
      <trkpt lat="43.3238663804" lon="3.0129914358">
        <ele>36.19</ele>
        <time>2017-08-02T09:36:57Z</time>
      </trkpt>
      <trkpt lat="43.3239042666" lon="3.0129858200">
        <ele>36.19</ele>
        <time>2017-08-02T09:36:58Z</time>
      </trkpt>
      <trkpt lat="43.3243274689" lon="3.0129077844">
        <ele>36.19</ele>
        <time>2017-08-02T09:37:08Z</time>
      </trkpt>
      <trkpt lat="43.3243724797" lon="3.0128975585">
        <ele>36.19</ele>
        <time>2017-08-02T09:37:09Z</time>
      </trkpt>
      <trkpt lat="43.3244164009" lon="3.0128868297">
        <ele>36.19</ele>
        <time>2017-08-02T09:37:10Z</time>
      </trkpt>
      <trkpt lat="43.3244588133" lon="3.0128766876">
        <ele>36.19</ele>
        <time>2017-08-02T09:37:11Z</time>
      </trkpt>
      <trkpt lat="43.3248505834" lon="3.0127478577">
        <ele>36.19</ele>
        <time>2017-08-02T09:37:21Z</time>
      </trkpt>
      <trkpt lat="43.3251112606" lon="3.0126471911">
        <ele>35.71</ele>
        <time>2017-08-02T09:37:27Z</time>
      </trkpt>
      <trkpt lat="43.3251535892" lon="3.0126209557">
        <ele>35.71</ele>
        <time>2017-08-02T09:37:28Z</time>
      </trkpt>
      <trkpt lat="43.3255450241" lon="3.0122174509">
        <ele>36.19</ele>
        <time>2017-08-02T09:37:39Z</time>
      </trkpt>
      <trkpt lat="43.3258268237" lon="3.0117318034">
        <ele>36.67</ele>
        <time>2017-08-02T09:37:50Z</time>
      </trkpt>
      <trkpt lat="43.3258452639" lon="3.0116781592">
        <ele>35.71</ele>
        <time>2017-08-02T09:37:51Z</time>
      </trkpt>
      <trkpt lat="43.3258718345" lon="3.0116311368">
        <ele>35.23</ele>
        <time>2017-08-02T09:37:52Z</time>
      </trkpt>
      <trkpt lat="43.3260429930" lon="3.0113810208">
        <ele>35.23</ele>
        <time>2017-08-02T09:37:58Z</time>
      </trkpt>
      <trkpt lat="43.3261485212" lon="3.0112007260">
        <ele>35.23</ele>
        <time>2017-08-02T09:38:02Z</time>
      </trkpt>
      <trkpt lat="43.3262355253" lon="3.0110769253">
        <ele>35.23</ele>
        <time>2017-08-02T09:38:05Z</time>
      </trkpt>
      <trkpt lat="43.3262657002" lon="3.0110356025">
        <ele>35.23</ele>
        <time>2017-08-02T09:38:06Z</time>
      </trkpt>
      <trkpt lat="43.3262973838" lon="3.0109929387">
        <ele>35.23</ele>
        <time>2017-08-02T09:38:07Z</time>
      </trkpt>
      <trkpt lat="43.3265412971" lon="3.0107022543">
        <ele>35.23</ele>
        <time>2017-08-02T09:38:16Z</time>
      </trkpt>
      <trkpt lat="43.3267730568" lon="3.0103931297">
        <ele>35.71</ele>
        <time>2017-08-02T09:38:24Z</time>
      </trkpt>
      <trkpt lat="43.3268044889" lon="3.0103542376">
        <ele>35.71</ele>
        <time>2017-08-02T09:38:25Z</time>
      </trkpt>
      <trkpt lat="43.3270970173" lon="3.0099423509">
        <ele>35.71</ele>
        <time>2017-08-02T09:38:35Z</time>
      </trkpt>
      <trkpt lat="43.3272389229" lon="3.0097413529">
        <ele>35.71</ele>
        <time>2017-08-02T09:38:40Z</time>
      </trkpt>
      <trkpt lat="43.3274353947" lon="3.0094634090">
        <ele>35.71</ele>
        <time>2017-08-02T09:38:47Z</time>
      </trkpt>
      <trkpt lat="43.3274609596" lon="3.0094196554">
        <ele>35.71</ele>
        <time>2017-08-02T09:38:48Z</time>
      </trkpt>
      <trkpt lat="43.3276808169" lon="3.0090298969">
        <ele>35.71</ele>
        <time>2017-08-02T09:38:57Z</time>
      </trkpt>
      <trkpt lat="43.3278001752" lon="3.0088449921">
        <ele>35.71</ele>
        <time>2017-08-02T09:39:01Z</time>
      </trkpt>
      <trkpt lat="43.3279730938" lon="3.0085642822">
        <ele>35.71</ele>
        <time>2017-08-02T09:39:08Z</time>
      </trkpt>
      <trkpt lat="43.3281754330" lon="3.0080959853">
        <ele>35.71</ele>
        <time>2017-08-02T09:39:17Z</time>
      </trkpt>
      <trkpt lat="43.3284326736" lon="3.0074421130">
        <ele>36.19</ele>
        <time>2017-08-02T09:39:30Z</time>
      </trkpt>
      <trkpt lat="43.3286410477" lon="3.0069889035">
        <ele>36.19</ele>
        <time>2017-08-02T09:39:39Z</time>
      </trkpt>
      <trkpt lat="43.3286746591" lon="3.0069536157">
        <ele>36.19</ele>
        <time>2017-08-02T09:39:40Z</time>
      </trkpt>
      <trkpt lat="43.3287117071" lon="3.0069303140">
        <ele>36.19</ele>
        <time>2017-08-02T09:39:41Z</time>
      </trkpt>
      <trkpt lat="43.3287520241" lon="3.0069187470">
        <ele>36.19</ele>
        <time>2017-08-02T09:39:42Z</time>
      </trkpt>
      <trkpt lat="43.3287902456" lon="3.0069086887">
        <ele>36.19</ele>
        <time>2017-08-02T09:39:43Z</time>
      </trkpt>
      <trkpt lat="43.3288298082" lon="3.0069112033">
        <ele>36.19</ele>
        <time>2017-08-02T09:39:44Z</time>
      </trkpt>
      <trkpt lat="43.3288657665" lon="3.0069265421">
        <ele>36.19</ele>
        <time>2017-08-02T09:39:45Z</time>
      </trkpt>
      <trkpt lat="43.3289023954" lon="3.0069505144">
        <ele>36.19</ele>
        <time>2017-08-02T09:39:46Z</time>
      </trkpt>
      <trkpt lat="43.3289402816" lon="3.0069766659">
        <ele>36.19</ele>
        <time>2017-08-02T09:39:47Z</time>
      </trkpt>
      <trkpt lat="43.3289773297" lon="3.0070091877">
        <ele>36.19</ele>
        <time>2017-08-02T09:39:48Z</time>
      </trkpt>
      <trkpt lat="43.3293830976" lon="3.0075314641">
        <ele>35.71</ele>
        <time>2017-08-02T09:40:00Z</time>
      </trkpt>
      <trkpt lat="43.3297465369" lon="3.0080456939">
        <ele>36.19</ele>
        <time>2017-08-02T09:40:12Z</time>
      </trkpt>
      <trkpt lat="43.3297674917" lon="3.0080913752">
        <ele>36.67</ele>
        <time>2017-08-02T09:40:13Z</time>
      </trkpt>
      <trkpt lat="43.3299066313" lon="3.0084572453">
        <ele>36.19</ele>
        <time>2017-08-02T09:40:21Z</time>
      </trkpt>
      <trkpt lat="43.3299128339" lon="3.0085118953">
        <ele>36.19</ele>
        <time>2017-08-02T09:40:22Z</time>
      </trkpt>
      <trkpt lat="43.3299126662" lon="3.0086250510">
        <ele>36.19</ele>
        <time>2017-08-02T09:40:24Z</time>
      </trkpt>
      <trkpt lat="43.3297804836" lon="3.0091883987">
        <ele>36.67</ele>
        <time>2017-08-02T09:40:35Z</time>
      </trkpt>
      <trkpt lat="43.3297159430" lon="3.0094937515">
        <ele>36.67</ele>
        <time>2017-08-02T09:40:41Z</time>
      </trkpt>
      <trkpt lat="43.3297054656" lon="3.0095482338">
        <ele>36.67</ele>
        <time>2017-08-02T09:40:42Z</time>
      </trkpt>
      <trkpt lat="43.3296767157" lon="3.0097159557">
        <ele>36.67</ele>
        <time>2017-08-02T09:40:45Z</time>
      </trkpt>
      <trkpt lat="43.3296308666" lon="3.0102119129">
        <ele>36.67</ele>
        <time>2017-08-02T09:40:55Z</time>
      </trkpt>
      <trkpt lat="43.3295990154" lon="3.0106922798">
        <ele>36.67</ele>
        <time>2017-08-02T09:41:05Z</time>
      </trkpt>
      <trkpt lat="43.3295696788" lon="3.0112640094">
        <ele>37.15</ele>
        <time>2017-08-02T09:41:16Z</time>
      </trkpt>
      <trkpt lat="43.3295073174" lon="3.0118386727">
        <ele>37.63</ele>
        <time>2017-08-02T09:41:27Z</time>
      </trkpt>
      <trkpt lat="43.3293133602" lon="3.0125681497">
        <ele>37.63</ele>
        <time>2017-08-02T09:41:42Z</time>
      </trkpt>
      <trkpt lat="43.3290717099" lon="3.0131123029">
        <ele>37.63</ele>
        <time>2017-08-02T09:41:54Z</time>
      </trkpt>
      <trkpt lat="43.3290125336" lon="3.0132514425">
        <ele>37.63</ele>
        <time>2017-08-02T09:41:57Z</time>
      </trkpt>
      <trkpt lat="43.3289588057" lon="3.0134053342">
        <ele>37.63</ele>
        <time>2017-08-02T09:42:00Z</time>
      </trkpt>
      <trkpt lat="43.3289407007" lon="3.0134577211">
        <ele>37.63</ele>
        <time>2017-08-02T09:42:01Z</time>
      </trkpt>
      <trkpt lat="43.3288627490" lon="3.0138046481">
        <ele>37.15</ele>
        <time>2017-08-02T09:42:07Z</time>
      </trkpt>
      <trkpt lat="43.3288119547" lon="3.0141578615">
        <ele>36.67</ele>
        <time>2017-08-02T09:42:13Z</time>
      </trkpt>
      <trkpt lat="43.3288055845" lon="3.0142124277">
        <ele>36.67</ele>
        <time>2017-08-02T09:42:14Z</time>
      </trkpt>
      <trkpt lat="43.3288186602" lon="3.0144340452">
        <ele>36.67</ele>
        <time>2017-08-02T09:42:18Z</time>
      </trkpt>
      <trkpt lat="43.3288308978" lon="3.0144869350">
        <ele>36.67</ele>
        <time>2017-08-02T09:42:19Z</time>
      </trkpt>
      <trkpt lat="43.3288466558" lon="3.0145351309">
        <ele>36.67</ele>
        <time>2017-08-02T09:42:20Z</time>
      </trkpt>
      <trkpt lat="43.3288591448" lon="3.0145774595">
        <ele>37.15</ele>
        <time>2017-08-02T09:42:21Z</time>
      </trkpt>
      <trkpt lat="43.3288704604" lon="3.0146202073">
        <ele>36.67</ele>
        <time>2017-08-02T09:42:22Z</time>
      </trkpt>
      <trkpt lat="43.3288873080" lon="3.0146646313">
        <ele>37.15</ele>
        <time>2017-08-02T09:42:23Z</time>
      </trkpt>
      <trkpt lat="43.3289051615" lon="3.0147119891">
        <ele>37.63</ele>
        <time>2017-08-02T09:42:24Z</time>
      </trkpt>
      <trkpt lat="43.3289181534" lon="3.0147615261">
        <ele>37.15</ele>
        <time>2017-08-02T09:42:25Z</time>
      </trkpt>
      <trkpt lat="43.3289320674" lon="3.0148080457">
        <ele>37.15</ele>
        <time>2017-08-02T09:42:26Z</time>
      </trkpt>
      <trkpt lat="43.3289497532" lon="3.0148505419">
        <ele>37.15</ele>
        <time>2017-08-02T09:42:27Z</time>
      </trkpt>
      <trkpt lat="43.3291062433" lon="3.0152018275">
        <ele>37.63</ele>
        <time>2017-08-02T09:42:36Z</time>
      </trkpt>
      <trkpt lat="43.3291893080" lon="3.0153089482">
        <ele>37.63</ele>
        <time>2017-08-02T09:42:39Z</time>
      </trkpt>
      <trkpt lat="43.3292248473" lon="3.0153406318">
        <ele>37.15</ele>
        <time>2017-08-02T09:42:40Z</time>
      </trkpt>
      <trkpt lat="43.3292629849" lon="3.0153687112">
        <ele>37.15</ele>
        <time>2017-08-02T09:42:41Z</time>
      </trkpt>
      <trkpt lat="43.3295664098" lon="3.0155950226">
        <ele>37.15</ele>
        <time>2017-08-02T09:42:50Z</time>
      </trkpt>
      <trkpt lat="43.3296074811" lon="3.0156034883">
        <ele>35.23</ele>
        <time>2017-08-02T09:42:51Z</time>
      </trkpt>
      <trkpt lat="43.3296462055" lon="3.0156107806">
        <ele>37.15</ele>
        <time>2017-08-02T09:42:52Z</time>
      </trkpt>
      <trkpt lat="43.3300258219" lon="3.0157943442">
        <ele>36.67</ele>
        <time>2017-08-02T09:43:02Z</time>
      </trkpt>
      <trkpt lat="43.3300540689" lon="3.0158295482">
        <ele>36.67</ele>
        <time>2017-08-02T09:43:03Z</time>
      </trkpt>
      <trkpt lat="43.3300742693" lon="3.0158694461">
        <ele>36.19</ele>
        <time>2017-08-02T09:43:04Z</time>
      </trkpt>
      <trkpt lat="43.3300916199" lon="3.0159131996">
        <ele>36.67</ele>
        <time>2017-08-02T09:43:05Z</time>
      </trkpt>
      <trkpt lat="43.3301041089" lon="3.0159606412">
        <ele>36.67</ele>
        <time>2017-08-02T09:43:06Z</time>
      </trkpt>
      <trkpt lat="43.3301081322" lon="3.0160078313">
        <ele>36.67</ele>
        <time>2017-08-02T09:43:07Z</time>
      </trkpt>
      <trkpt lat="43.3301050309" lon="3.0160558596">
        <ele>36.67</ele>
        <time>2017-08-02T09:43:08Z</time>
      </trkpt>
      <trkpt lat="43.3300962299" lon="3.0161031336">
        <ele>37.15</ele>
        <time>2017-08-02T09:43:09Z</time>
      </trkpt>
      <trkpt lat="43.3300830703" lon="3.0161464680">
        <ele>37.15</ele>
        <time>2017-08-02T09:43:10Z</time>
      </trkpt>
      <trkpt lat="43.3300664742" lon="3.0161901377">
        <ele>37.15</ele>
        <time>2017-08-02T09:43:11Z</time>
      </trkpt>
      <trkpt lat="43.3300508838" lon="3.0162357353">
        <ele>37.15</ele>
        <time>2017-08-02T09:43:12Z</time>
      </trkpt>
      <trkpt lat="43.3300348744" lon="3.0162790697">
        <ele>37.63</ele>
        <time>2017-08-02T09:43:13Z</time>
      </trkpt>
      <trkpt lat="43.3298317809" lon="3.0165913794">
        <ele>37.63</ele>
        <time>2017-08-02T09:43:21Z</time>
      </trkpt>
      <trkpt lat="43.3297927212" lon="3.0166223925">
        <ele>37.63</ele>
        <time>2017-08-02T09:43:22Z</time>
      </trkpt>
      <trkpt lat="43.3297488000" lon="3.0166442692">
        <ele>37.63</ele>
        <time>2017-08-02T09:43:23Z</time>
      </trkpt>
      <trkpt lat="43.3296555933" lon="3.0166709237">
        <ele>37.15</ele>
        <time>2017-08-02T09:43:25Z</time>
      </trkpt>
      <trkpt lat="43.3296167850" lon="3.0166763719">
        <ele>37.63</ele>
        <time>2017-08-02T09:43:26Z</time>
      </trkpt>
      <trkpt lat="43.3295773063" lon="3.0166764557">
        <ele>37.63</ele>
        <time>2017-08-02T09:43:27Z</time>
      </trkpt>
      <trkpt lat="43.3295321278" lon="3.0166725162">
        <ele>37.63</ele>
        <time>2017-08-02T09:43:28Z</time>
      </trkpt>
      <trkpt lat="43.3294829261" lon="3.0166674871">
        <ele>37.63</ele>
        <time>2017-08-02T09:43:29Z</time>
      </trkpt>
      <trkpt lat="43.3294321317" lon="3.0166658945">
        <ele>37.63</ele>
        <time>2017-08-02T09:43:30Z</time>
      </trkpt>
      <trkpt lat="43.3289032336" lon="3.0165881105">
        <ele>37.63</ele>
        <time>2017-08-02T09:43:41Z</time>
      </trkpt>
      <trkpt lat="43.3284615073" lon="3.0165542476">
        <ele>37.63</ele>
        <time>2017-08-02T09:43:51Z</time>
      </trkpt>
      <trkpt lat="43.3284247946" lon="3.0165746156">
        <ele>37.15</ele>
        <time>2017-08-02T09:43:52Z</time>
      </trkpt>
      <trkpt lat="43.3283908479" lon="3.0166119151">
        <ele>36.67</ele>
        <time>2017-08-02T09:43:53Z</time>
      </trkpt>
      <trkpt lat="43.3283561468" lon="3.0166534055">
        <ele>36.19</ele>
        <time>2017-08-02T09:43:54Z</time>
      </trkpt>
      <trkpt lat="43.3283187635" lon="3.0166834127">
        <ele>36.19</ele>
        <time>2017-08-02T09:43:55Z</time>
      </trkpt>
      <trkpt lat="43.3282757644" lon="3.0167032778">
        <ele>36.19</ele>
        <time>2017-08-02T09:43:56Z</time>
      </trkpt>
      <trkpt lat="43.3282318432" lon="3.0167176109">
        <ele>36.19</ele>
        <time>2017-08-02T09:43:57Z</time>
      </trkpt>
      <trkpt lat="43.3281439170" lon="3.0167451035">
        <ele>36.19</ele>
        <time>2017-08-02T09:43:59Z</time>
      </trkpt>
      <trkpt lat="43.3281010855" lon="3.0167472828">
        <ele>36.19</ele>
        <time>2017-08-02T09:44:00Z</time>
      </trkpt>
      <trkpt lat="43.3280621096" lon="3.0167324468">
        <ele>36.19</ele>
        <time>2017-08-02T09:44:01Z</time>
      </trkpt>
      <trkpt lat="43.3280303422" lon="3.0167170241">
        <ele>36.19</ele>
        <time>2017-08-02T09:44:02Z</time>
      </trkpt>
      <trkpt lat="43.3279999997" lon="3.0167165212">
        <ele>36.67</ele>
        <time>2017-08-02T09:44:03Z</time>
      </trkpt>
      <trkpt lat="43.3279684838" lon="3.0167278368">
        <ele>36.19</ele>
        <time>2017-08-02T09:44:04Z</time>
      </trkpt>
      <trkpt lat="43.3279369678" lon="3.0167450197">
        <ele>36.67</ele>
        <time>2017-08-02T09:44:05Z</time>
      </trkpt>
      <trkpt lat="43.3276986703" lon="3.0169858318">
        <ele>37.15</ele>
        <time>2017-08-02T09:44:14Z</time>
      </trkpt>
      <trkpt lat="43.3276112471" lon="3.0170968082">
        <ele>37.63</ele>
        <time>2017-08-02T09:44:17Z</time>
      </trkpt>
      <trkpt lat="43.3272944950" lon="3.0176521093">
        <ele>38.11</ele>
        <time>2017-08-02T09:44:29Z</time>
      </trkpt>
      <trkpt lat="43.3272623084" lon="3.0176941026">
        <ele>38.11</ele>
        <time>2017-08-02T09:44:30Z</time>
      </trkpt>
      <trkpt lat="43.3272272721" lon="3.0177316535">
        <ele>38.11</ele>
        <time>2017-08-02T09:44:31Z</time>
      </trkpt>
      <trkpt lat="43.3271903079" lon="3.0177652650">
        <ele>38.11</ele>
        <time>2017-08-02T09:44:32Z</time>
      </trkpt>
      <trkpt lat="43.3271511644" lon="3.0177960265">
        <ele>38.11</ele>
        <time>2017-08-02T09:44:33Z</time>
      </trkpt>
      <trkpt lat="43.3271127753" lon="3.0178236030">
        <ele>38.11</ele>
        <time>2017-08-02T09:44:34Z</time>
      </trkpt>
      <trkpt lat="43.3267186582" lon="3.0179820210">
        <ele>38.11</ele>
        <time>2017-08-02T09:44:43Z</time>
      </trkpt>
      <trkpt lat="43.3266728930" lon="3.0179885589">
        <ele>37.63</ele>
        <time>2017-08-02T09:44:44Z</time>
      </trkpt>
      <trkpt lat="43.3260814659" lon="3.0179864634">
        <ele>37.15</ele>
        <time>2017-08-02T09:44:56Z</time>
      </trkpt>
      <trkpt lat="43.3254437707" lon="3.0179712083">
        <ele>37.63</ele>
        <time>2017-08-02T09:45:09Z</time>
      </trkpt>
      <trkpt lat="43.3249100950" lon="3.0180015508">
        <ele>37.15</ele>
        <time>2017-08-02T09:45:20Z</time>
      </trkpt>
      <trkpt lat="43.3246018924" lon="3.0181181431">
        <ele>37.63</ele>
        <time>2017-08-02T09:45:27Z</time>
      </trkpt>
      <trkpt lat="43.3244069293" lon="3.0183651578">
        <ele>38.59</ele>
        <time>2017-08-02T09:45:35Z</time>
      </trkpt>
      <trkpt lat="43.3243095316" lon="3.0186862685">
        <ele>39.07</ele>
        <time>2017-08-02T09:45:44Z</time>
      </trkpt>
      <trkpt lat="43.3243034128" lon="3.0189854186">
        <ele>40.03</ele>
        <time>2017-08-02T09:45:53Z</time>
      </trkpt>
      <trkpt lat="43.3244434744" lon="3.0193337705">
        <ele>39.55</ele>
        <time>2017-08-02T09:46:01Z</time>
      </trkpt>
      <trkpt lat="43.3244742360" lon="3.0193719920">
        <ele>39.55</ele>
        <time>2017-08-02T09:46:02Z</time>
      </trkpt>
      <trkpt lat="43.3246917464" lon="3.0195724871">
        <ele>38.59</ele>
        <time>2017-08-02T09:46:08Z</time>
      </trkpt>
      <trkpt lat="43.3247382659" lon="3.0195948668">
        <ele>38.59</ele>
        <time>2017-08-02T09:46:09Z</time>
      </trkpt>
      <trkpt lat="43.3253249153" lon="3.0197566375">
        <ele>37.15</ele>
        <time>2017-08-02T09:46:20Z</time>
      </trkpt>
      <trkpt lat="43.3254207205" lon="3.0197920091">
        <ele>37.15</ele>
        <time>2017-08-02T09:46:22Z</time>
      </trkpt>
      <trkpt lat="43.3256882709" lon="3.0198942684">
        <ele>37.15</ele>
        <time>2017-08-02T09:46:28Z</time>
      </trkpt>
      <trkpt lat="43.3258677274" lon="3.0199827813">
        <ele>37.15</ele>
        <time>2017-08-02T09:46:32Z</time>
      </trkpt>
      <trkpt lat="43.3259981498" lon="3.0201027263">
        <ele>36.67</ele>
        <time>2017-08-02T09:46:35Z</time>
      </trkpt>
      <trkpt lat="43.3261082042" lon="3.0202650838">
        <ele>36.67</ele>
        <time>2017-08-02T09:46:38Z</time>
      </trkpt>
      <trkpt lat="43.3262080327" lon="3.0204387568">
        <ele>36.19</ele>
        <time>2017-08-02T09:46:41Z</time>
      </trkpt>
      <trkpt lat="43.3262333460" lon="3.0204986874">
        <ele>36.19</ele>
        <time>2017-08-02T09:46:42Z</time>
      </trkpt>
      <trkpt lat="43.3262792788" lon="3.0206160340">
        <ele>36.67</ele>
        <time>2017-08-02T09:46:44Z</time>
      </trkpt>
      <trkpt lat="43.3262967132" lon="3.0206753779">
        <ele>36.67</ele>
        <time>2017-08-02T09:46:45Z</time>
      </trkpt>
      <trkpt lat="43.3263108786" lon="3.0207332969">
        <ele>36.67</ele>
        <time>2017-08-02T09:46:46Z</time>
      </trkpt>
      <trkpt lat="43.3263211884" lon="3.0207928084">
        <ele>36.67</ele>
        <time>2017-08-02T09:46:47Z</time>
      </trkpt>
      <trkpt lat="43.3263314981" lon="3.0208551697">
        <ele>36.67</ele>
        <time>2017-08-02T09:46:48Z</time>
      </trkpt>
      <trkpt lat="43.3263802808" lon="3.0216062721">
        <ele>36.67</ele>
        <time>2017-08-02T09:46:59Z</time>
      </trkpt>
      <trkpt lat="43.3264169097" lon="3.0221018102">
        <ele>36.67</ele>
        <time>2017-08-02T09:47:07Z</time>
      </trkpt>
      <trkpt lat="43.3264266327" lon="3.0221625790">
        <ele>36.67</ele>
        <time>2017-08-02T09:47:08Z</time>
      </trkpt>
      <trkpt lat="43.3264127187" lon="3.0227802414">
        <ele>36.67</ele>
        <time>2017-08-02T09:47:18Z</time>
      </trkpt>
      <trkpt lat="43.3262974676" lon="3.0232568365">
        <ele>36.67</ele>
        <time>2017-08-02T09:47:26Z</time>
      </trkpt>
      <trkpt lat="43.3262890019" lon="3.0233163480">
        <ele>37.15</ele>
        <time>2017-08-02T09:47:27Z</time>
      </trkpt>
      <trkpt lat="43.3262792788" lon="3.0234342813">
        <ele>36.67</ele>
        <time>2017-08-02T09:47:29Z</time>
      </trkpt>
      <trkpt lat="43.3262535464" lon="3.0240073521">
        <ele>36.67</ele>
        <time>2017-08-02T09:47:39Z</time>
      </trkpt>
      <trkpt lat="43.3261769358" lon="3.0247670040">
        <ele>37.15</ele>
        <time>2017-08-02T09:47:52Z</time>
      </trkpt>
      <trkpt lat="43.3261738345" lon="3.0248849373">
        <ele>37.15</ele>
        <time>2017-08-02T09:47:54Z</time>
      </trkpt>
      <trkpt lat="43.3261740860" lon="3.0249461252">
        <ele>37.15</ele>
        <time>2017-08-02T09:47:55Z</time>
      </trkpt>
      <trkpt lat="43.3262192644" lon="3.0256896839">
        <ele>36.67</ele>
        <time>2017-08-02T09:48:06Z</time>
      </trkpt>
      <trkpt lat="43.3263380360" lon="3.0264078453">
        <ele>36.67</ele>
        <time>2017-08-02T09:48:17Z</time>
      </trkpt>
      <trkpt lat="43.3265105356" lon="3.0270599574">
        <ele>36.67</ele>
        <time>2017-08-02T09:48:28Z</time>
      </trkpt>
      <trkpt lat="43.3266818617" lon="3.0274805613">
        <ele>37.15</ele>
        <time>2017-08-02T09:48:36Z</time>
      </trkpt>
      <trkpt lat="43.3267364278" lon="3.0275756121">
        <ele>36.67</ele>
        <time>2017-08-02T09:48:38Z</time>
      </trkpt>
      <trkpt lat="43.3267578017" lon="3.0276265740">
        <ele>37.15</ele>
        <time>2017-08-02T09:48:39Z</time>
      </trkpt>
      <trkpt lat="43.3267804328" lon="3.0276767816">
        <ele>37.15</ele>
        <time>2017-08-02T09:48:40Z</time>
      </trkpt>
      <trkpt lat="43.3268018067" lon="3.0277256481">
        <ele>37.15</ele>
        <time>2017-08-02T09:48:41Z</time>
      </trkpt>
      <trkpt lat="43.3268197440" lon="3.0277752690">
        <ele>37.15</ele>
        <time>2017-08-02T09:48:42Z</time>
      </trkpt>
      <trkpt lat="43.3269507531" lon="3.0281475093">
        <ele>37.15</ele>
        <time>2017-08-02T09:48:49Z</time>
      </trkpt>
      <trkpt lat="43.3271245938" lon="3.0290664174">
        <ele>37.15</ele>
        <time>2017-08-02T09:49:04Z</time>
      </trkpt>
      <trkpt lat="43.3271892183" lon="3.0295247398">
        <ele>37.15</ele>
        <time>2017-08-02T09:49:11Z</time>
      </trkpt>
      <trkpt lat="43.3272068202" lon="3.0296698306">
        <ele>36.67</ele>
        <time>2017-08-02T09:49:13Z</time>
      </trkpt>
      <trkpt lat="43.3272167947" lon="3.0297384784">
        <ele>36.67</ele>
        <time>2017-08-02T09:49:14Z</time>
      </trkpt>
      <trkpt lat="43.3272251766" lon="3.0298044439">
        <ele>36.67</ele>
        <time>2017-08-02T09:49:15Z</time>
      </trkpt>
      <trkpt lat="43.3272358216" lon="3.0298696551">
        <ele>36.67</ele>
        <time>2017-08-02T09:49:16Z</time>
      </trkpt>
      <trkpt lat="43.3272445388" lon="3.0299353693">
        <ele>36.67</ele>
        <time>2017-08-02T09:49:17Z</time>
      </trkpt>
      <trkpt lat="43.3272470534" lon="3.0300012510">
        <ele>37.15</ele>
        <time>2017-08-02T09:49:18Z</time>
      </trkpt>
      <trkpt lat="43.3272516634" lon="3.0300663784">
        <ele>36.67</ele>
        <time>2017-08-02T09:49:19Z</time>
      </trkpt>
      <trkpt lat="43.3272644877" lon="3.0301299132">
        <ele>36.67</ele>
        <time>2017-08-02T09:49:20Z</time>
      </trkpt>
      <trkpt lat="43.3272798266" lon="3.0301943701">
        <ele>36.67</ele>
        <time>2017-08-02T09:49:21Z</time>
      </trkpt>
      <trkpt lat="43.3272949141" lon="3.0302591622">
        <ele>36.67</ele>
        <time>2017-08-02T09:49:22Z</time>
      </trkpt>
      <trkpt lat="43.3274515718" lon="3.0308352504">
        <ele>36.67</ele>
        <time>2017-08-02T09:49:31Z</time>
      </trkpt>
      <trkpt lat="43.3274719398" lon="3.0308932532">
        <ele>36.67</ele>
        <time>2017-08-02T09:49:32Z</time>
      </trkpt>
      <trkpt lat="43.3275333792" lon="3.0310723744">
        <ele>36.67</ele>
        <time>2017-08-02T09:49:35Z</time>
      </trkpt>
      <trkpt lat="43.3276373148" lon="3.0312964227">
        <ele>37.15</ele>
        <time>2017-08-02T09:49:39Z</time>
      </trkpt>
      <trkpt lat="43.3276678249" lon="3.0313479714">
        <ele>37.15</ele>
        <time>2017-08-02T09:49:40Z</time>
      </trkpt>
      <trkpt lat="43.3277015202" lon="3.0313949101">
        <ele>37.15</ele>
        <time>2017-08-02T09:49:41Z</time>
      </trkpt>
      <trkpt lat="43.3278504666" lon="3.0315574352">
        <ele>37.15</ele>
        <time>2017-08-02T09:49:45Z</time>
      </trkpt>
      <trkpt lat="43.3278941363" lon="3.0315866042">
        <ele>37.15</ele>
        <time>2017-08-02T09:49:46Z</time>
      </trkpt>
      <trkpt lat="43.3279396500" lon="3.0316089839">
        <ele>37.15</ele>
        <time>2017-08-02T09:49:47Z</time>
      </trkpt>
      <trkpt lat="43.3279858343" lon="3.0316254962">
        <ele>37.15</ele>
        <time>2017-08-02T09:49:48Z</time>
      </trkpt>
      <trkpt lat="43.3280356228" lon="3.0316364765">
        <ele>37.15</ele>
        <time>2017-08-02T09:49:49Z</time>
      </trkpt>
      <trkpt lat="43.3280881774" lon="3.0316422600">
        <ele>36.67</ele>
        <time>2017-08-02T09:49:50Z</time>
      </trkpt>
      <trkpt lat="43.3281404804" lon="3.0316391587">
        <ele>37.15</ele>
        <time>2017-08-02T09:49:51Z</time>
      </trkpt>
      <trkpt lat="43.3281932026" lon="3.0316306092">
        <ele>36.67</ele>
        <time>2017-08-02T09:49:52Z</time>
      </trkpt>
      <trkpt lat="43.3283524588" lon="3.0315854307">
        <ele>36.67</ele>
        <time>2017-08-02T09:49:55Z</time>
      </trkpt>
      <trkpt lat="43.3285354357" lon="3.0314900447">
        <ele>34.26</ele>
        <time>2017-08-02T09:49:59Z</time>
      </trkpt>
      <trkpt lat="43.3285725676" lon="3.0314560980">
        <ele>40.51</ele>
        <time>2017-08-02T09:50:00Z</time>
      </trkpt>
      <trkpt lat="43.3286113758" lon="3.0314236600">
        <ele>37.15</ele>
        <time>2017-08-02T09:50:01Z</time>
      </trkpt>
      <trkpt lat="43.3286946919" lon="3.0313582812">
        <ele>36.67</ele>
        <time>2017-08-02T09:50:03Z</time>
      </trkpt>
      <trkpt lat="43.3287753258" lon="3.0312746298">
        <ele>36.67</ele>
        <time>2017-08-02T09:50:05Z</time>
      </trkpt>
      <trkpt lat="43.3288162295" lon="3.0312341452">
        <ele>36.67</ele>
        <time>2017-08-02T09:50:06Z</time>
      </trkpt>
      <trkpt lat="43.3288553730" lon="3.0311905593">
        <ele>36.67</ele>
        <time>2017-08-02T09:50:07Z</time>
      </trkpt>
      <trkpt lat="43.3290883899" lon="3.0309242662">
        <ele>37.15</ele>
        <time>2017-08-02T09:50:13Z</time>
      </trkpt>
      <trkpt lat="43.3292223327" lon="3.0307286326">
        <ele>37.15</ele>
        <time>2017-08-02T09:50:17Z</time>
      </trkpt>
      <trkpt lat="43.3292515017" lon="3.0306704622">
        <ele>36.67</ele>
        <time>2017-08-02T09:50:18Z</time>
      </trkpt>
      <trkpt lat="43.3292807546" lon="3.0306129623">
        <ele>36.67</ele>
        <time>2017-08-02T09:50:19Z</time>
      </trkpt>
      <trkpt lat="43.3293124381" lon="3.0305568036">
        <ele>36.67</ele>
        <time>2017-08-02T09:50:20Z</time>
      </trkpt>
      <trkpt lat="43.3293405175" lon="3.0304964539">
        <ele>37.15</ele>
        <time>2017-08-02T09:50:21Z</time>
      </trkpt>
      <trkpt lat="43.3293659985" lon="3.0304371938">
        <ele>37.15</ele>
        <time>2017-08-02T09:50:22Z</time>
      </trkpt>
      <trkpt lat="43.3293918986" lon="3.0303791910">
        <ele>37.15</ele>
        <time>2017-08-02T09:50:23Z</time>
      </trkpt>
      <trkpt lat="43.3297186252" lon="3.0296844151">
        <ele>37.63</ele>
        <time>2017-08-02T09:50:35Z</time>
      </trkpt>
      <trkpt lat="43.3300254028" lon="3.0292166211">
        <ele>37.63</ele>
        <time>2017-08-02T09:50:44Z</time>
      </trkpt>
      <trkpt lat="43.3300582599" lon="3.0291679222">
        <ele>37.63</ele>
        <time>2017-08-02T09:50:45Z</time>
      </trkpt>
      <trkpt lat="43.3305149060" lon="3.0286587216">
        <ele>36.67</ele>
        <time>2017-08-02T09:50:57Z</time>
      </trkpt>
      <trkpt lat="43.3310018107" lon="3.0283827055">
        <ele>37.15</ele>
        <time>2017-08-02T09:51:08Z</time>
      </trkpt>
      <trkpt lat="43.3310490847" lon="3.0283753294">
        <ele>37.63</ele>
        <time>2017-08-02T09:51:09Z</time>
      </trkpt>
      <trkpt lat="43.3310972806" lon="3.0283731502">
        <ele>37.63</ele>
        <time>2017-08-02T09:51:10Z</time>
      </trkpt>
      <trkpt lat="43.3311447222" lon="3.0283785146">
        <ele>37.63</ele>
        <time>2017-08-02T09:51:11Z</time>
      </trkpt>
      <trkpt lat="43.3311920799" lon="3.0283929314">
        <ele>37.63</ele>
        <time>2017-08-02T09:51:12Z</time>
      </trkpt>
      <trkpt lat="43.3312383480" lon="3.0284143053">
        <ele>37.63</ele>
        <time>2017-08-02T09:51:13Z</time>
      </trkpt>
      <trkpt lat="43.3312826045" lon="3.0284403730">
        <ele>37.63</ele>
        <time>2017-08-02T09:51:14Z</time>
      </trkpt>
      <trkpt lat="43.3313247655" lon="3.0284652673">
        <ele>37.63</ele>
        <time>2017-08-02T09:51:15Z</time>
      </trkpt>
      <trkpt lat="43.3316291962" lon="3.0287019722">
        <ele>38.11</ele>
        <time>2017-08-02T09:51:23Z</time>
      </trkpt>
      <trkpt lat="43.3316639811" lon="3.0287479889">
        <ele>37.63</ele>
        <time>2017-08-02T09:51:24Z</time>
      </trkpt>
      <trkpt lat="43.3318458684" lon="3.0290517490">
        <ele>37.63</ele>
        <time>2017-08-02T09:51:30Z</time>
      </trkpt>
      <trkpt lat="43.3318915498" lon="3.0291717779">
        <ele>37.63</ele>
        <time>2017-08-02T09:51:32Z</time>
      </trkpt>
      <trkpt lat="43.3319068048" lon="3.0292376596">
        <ele>37.15</ele>
        <time>2017-08-02T09:51:33Z</time>
      </trkpt>
      <trkpt lat="43.3319131751" lon="3.0293095764">
        <ele>37.63</ele>
        <time>2017-08-02T09:51:34Z</time>
      </trkpt>
      <trkpt lat="43.3319140971" lon="3.0293814931">
        <ele>37.15</ele>
        <time>2017-08-02T09:51:35Z</time>
      </trkpt>
      <trkpt lat="43.3319156896" lon="3.0294440221">
        <ele>37.15</ele>
        <time>2017-08-02T09:51:36Z</time>
      </trkpt>
      <trkpt lat="43.3319167793" lon="3.0295055453">
        <ele>37.63</ele>
        <time>2017-08-02T09:51:37Z</time>
      </trkpt>
      <trkpt lat="43.3319176175" lon="3.0295687448">
        <ele>37.63</ele>
        <time>2017-08-02T09:51:38Z</time>
      </trkpt>
      <trkpt lat="43.3319153544" lon="3.0296335369">
        <ele>37.63</ele>
        <time>2017-08-02T09:51:39Z</time>
      </trkpt>
      <trkpt lat="43.3319098223" lon="3.0296959821">
        <ele>37.63</ele>
        <time>2017-08-02T09:51:40Z</time>
      </trkpt>
      <trkpt lat="43.3319026139" lon="3.0297593493">
        <ele>37.63</ele>
        <time>2017-08-02T09:51:41Z</time>
      </trkpt>
      <trkpt lat="43.3318895381" lon="3.0298896041">
        <ele>37.15</ele>
        <time>2017-08-02T09:51:43Z</time>
      </trkpt>
      <trkpt lat="43.3317492250" lon="3.0307458155">
        <ele>37.63</ele>
        <time>2017-08-02T09:51:56Z</time>
      </trkpt>
      <trkpt lat="43.3317438606" lon="3.0308107752">
        <ele>37.63</ele>
        <time>2017-08-02T09:51:57Z</time>
      </trkpt>
      <trkpt lat="43.3317320421" lon="3.0309350789">
        <ele>37.63</ele>
        <time>2017-08-02T09:51:59Z</time>
      </trkpt>
      <trkpt lat="43.3317234926" lon="3.0309925787">
        <ele>37.63</ele>
        <time>2017-08-02T09:52:00Z</time>
      </trkpt>
      <trkpt lat="43.3316274360" lon="3.0314661562">
        <ele>37.63</ele>
        <time>2017-08-02T09:52:09Z</time>
      </trkpt>
      <trkpt lat="43.3315543458" lon="3.0318952259">
        <ele>37.63</ele>
        <time>2017-08-02T09:52:17Z</time>
      </trkpt>
      <trkpt lat="43.3314602170" lon="3.0325112119">
        <ele>37.63</ele>
        <time>2017-08-02T09:52:28Z</time>
      </trkpt>
      <trkpt lat="43.3313320577" lon="3.0331350770">
        <ele>37.63</ele>
        <time>2017-08-02T09:52:39Z</time>
      </trkpt>
      <trkpt lat="43.3312312234" lon="3.0335676670">
        <ele>37.15</ele>
        <time>2017-08-02T09:52:46Z</time>
      </trkpt>
      <trkpt lat="43.3312171418" lon="3.0336319562">
        <ele>37.15</ele>
        <time>2017-08-02T09:52:47Z</time>
      </trkpt>
      <trkpt lat="43.3310479950" lon="3.0342652090">
        <ele>36.67</ele>
        <time>2017-08-02T09:52:57Z</time>
      </trkpt>
      <trkpt lat="43.3310228493" lon="3.0344019178">
        <ele>37.15</ele>
        <time>2017-08-02T09:52:59Z</time>
      </trkpt>
      <trkpt lat="43.3310118690" lon="3.0344696436">
        <ele>34.74</ele>
        <time>2017-08-02T09:53:00Z</time>
      </trkpt>
      <trkpt lat="43.3309779223" lon="3.0346673727">
        <ele>37.15</ele>
        <time>2017-08-02T09:53:03Z</time>
      </trkpt>
      <trkpt lat="43.3309666906" lon="3.0355054792">
        <ele>37.15</ele>
        <time>2017-08-02T09:53:16Z</time>
      </trkpt>
      <trkpt lat="43.3309185784" lon="3.0360003468">
        <ele>37.15</ele>
        <time>2017-08-02T09:53:25Z</time>
      </trkpt>
      <trkpt lat="43.3308346756" lon="3.0363976490">
        <ele>37.63</ele>
        <time>2017-08-02T09:53:33Z</time>
      </trkpt>
      <trkpt lat="43.3307116292" lon="3.0372041557">
        <ele>37.15</ele>
        <time>2017-08-02T09:53:47Z</time>
      </trkpt>
      <trkpt lat="43.3306980506" lon="3.0373179819">
        <ele>37.15</ele>
        <time>2017-08-02T09:53:49Z</time>
      </trkpt>
      <trkpt lat="43.3306938596" lon="3.0373738054">
        <ele>37.15</ele>
        <time>2017-08-02T09:53:50Z</time>
      </trkpt>
      <trkpt lat="43.3306889981" lon="3.0374297127">
        <ele>37.63</ele>
        <time>2017-08-02T09:53:51Z</time>
      </trkpt>
      <trkpt lat="43.3306866512" lon="3.0374896433">
        <ele>37.15</ele>
        <time>2017-08-02T09:53:52Z</time>
      </trkpt>
      <trkpt lat="43.3306858130" lon="3.0375526752">
        <ele>37.15</ele>
        <time>2017-08-02T09:53:53Z</time>
      </trkpt>
      <trkpt lat="43.3307186700" lon="3.0381213035">
        <ele>37.15</ele>
        <time>2017-08-02T09:54:02Z</time>
      </trkpt>
      <trkpt lat="43.3307112940" lon="3.0381816532">
        <ele>37.15</ele>
        <time>2017-08-02T09:54:03Z</time>
      </trkpt>
      <trkpt lat="43.3306988887" lon="3.0382401589">
        <ele>37.15</ele>
        <time>2017-08-02T09:54:04Z</time>
      </trkpt>
      <trkpt lat="43.3306863159" lon="3.0382938869">
        <ele>37.15</ele>
        <time>2017-08-02T09:54:05Z</time>
      </trkpt>
      <trkpt lat="43.3306698874" lon="3.0383461900">
        <ele>37.63</ele>
        <time>2017-08-02T09:54:06Z</time>
      </trkpt>
      <trkpt lat="43.3306496870" lon="3.0384020973">
        <ele>37.15</ele>
        <time>2017-08-02T09:54:07Z</time>
      </trkpt>
      <trkpt lat="43.3305812906" lon="3.0385740101">
        <ele>37.15</ele>
        <time>2017-08-02T09:54:10Z</time>
      </trkpt>
      <trkpt lat="43.3305577375" lon="3.0386269838">
        <ele>37.15</ele>
        <time>2017-08-02T09:54:11Z</time>
      </trkpt>
      <trkpt lat="43.3305328432" lon="3.0386737548">
        <ele>37.15</ele>
        <time>2017-08-02T09:54:12Z</time>
      </trkpt>
      <trkpt lat="43.3304586634" lon="3.0388103798">
        <ele>37.15</ele>
        <time>2017-08-02T09:54:15Z</time>
      </trkpt>
      <trkpt lat="43.3303233795" lon="3.0392346717">
        <ele>36.67</ele>
        <time>2017-08-02T09:54:24Z</time>
      </trkpt>
      <trkpt lat="43.3302907739" lon="3.0393974483">
        <ele>37.15</ele>
        <time>2017-08-02T09:54:27Z</time>
      </trkpt>
      <trkpt lat="43.3302803803" lon="3.0394519307">
        <ele>37.15</ele>
        <time>2017-08-02T09:54:28Z</time>
      </trkpt>
      <trkpt lat="43.3302746806" lon="3.0395073351">
        <ele>37.15</ele>
        <time>2017-08-02T09:54:29Z</time>
      </trkpt>
      <trkpt lat="43.3302676398" lon="3.0396262743">
        <ele>36.67</ele>
        <time>2017-08-02T09:54:31Z</time>
      </trkpt>
      <trkpt lat="43.3302574977" lon="3.0396851152">
        <ele>37.15</ele>
        <time>2017-08-02T09:54:32Z</time>
      </trkpt>
      <trkpt lat="43.3302496187" lon="3.0397433694">
        <ele>36.67</ele>
        <time>2017-08-02T09:54:33Z</time>
      </trkpt>
      <trkpt lat="43.3302357886" lon="3.0400842614">
        <ele>37.15</ele>
        <time>2017-08-02T09:54:39Z</time>
      </trkpt>
      <trkpt lat="43.3302604314" lon="3.0403272528">
        <ele>37.15</ele>
        <time>2017-08-02T09:54:43Z</time>
      </trkpt>
      <trkpt lat="43.3302821405" lon="3.0404527299">
        <ele>37.15</ele>
        <time>2017-08-02T09:54:45Z</time>
      </trkpt>
      <trkpt lat="43.3302947972" lon="3.0405120738">
        <ele>37.15</ele>
        <time>2017-08-02T09:54:46Z</time>
      </trkpt>
      <trkpt lat="43.3304097131" lon="3.0410736613">
        <ele>37.15</ele>
        <time>2017-08-02T09:54:56Z</time>
      </trkpt>
      <trkpt lat="43.3304852340" lon="3.0413930118">
        <ele>37.15</ele>
        <time>2017-08-02T09:55:02Z</time>
      </trkpt>
      <trkpt lat="43.3305043448" lon="3.0414454825">
        <ele>37.15</ele>
        <time>2017-08-02T09:55:03Z</time>
      </trkpt>
      <trkpt lat="43.3306153212" lon="3.0418544356">
        <ele>37.15</ele>
        <time>2017-08-02T09:55:13Z</time>
      </trkpt>
      <trkpt lat="43.3306113817" lon="3.0418751389">
        <ele>37.15</ele>
        <time>2017-08-02T09:55:14Z</time>
      </trkpt>
      <trkpt lat="43.3306052629" lon="3.0418952554">
        <ele>37.63</ele>
        <time>2017-08-02T09:55:15Z</time>
      </trkpt>
      <trkpt lat="43.3305967133" lon="3.0419147853">
        <ele>37.63</ele>
        <time>2017-08-02T09:55:16Z</time>
      </trkpt>
      <trkpt lat="43.3305848949" lon="3.0419338960">
        <ele>37.63</ele>
        <time>2017-08-02T09:55:17Z</time>
      </trkpt>
      <trkpt lat="43.3305688016" lon="3.0419586226">
        <ele>37.15</ele>
        <time>2017-08-02T09:55:18Z</time>
      </trkpt>
      <trkpt lat="43.3305479307" lon="3.0419808347">
        <ele>37.15</ele>
        <time>2017-08-02T09:55:19Z</time>
      </trkpt>
      <trkpt lat="43.3305213600" lon="3.0420028791">
        <ele>37.15</ele>
        <time>2017-08-02T09:55:20Z</time>
      </trkpt>
      <trkpt lat="43.3304196037" lon="3.0420809984">
        <ele>36.19</ele>
        <time>2017-08-02T09:55:23Z</time>
      </trkpt>
      <trkpt lat="43.3303798735" lon="3.0421161186">
        <ele>36.19</ele>
        <time>2017-08-02T09:55:24Z</time>
      </trkpt>
      <trkpt lat="43.3301732596" lon="3.0422707647">
        <ele>34.74</ele>
        <time>2017-08-02T09:55:29Z</time>
      </trkpt>
      <trkpt lat="43.3301222138" lon="3.0422753748">
        <ele>34.26</ele>
        <time>2017-08-02T09:55:30Z</time>
      </trkpt>
      <trkpt lat="43.3300705813" lon="3.0422681663">
        <ele>33.78</ele>
        <time>2017-08-02T09:55:31Z</time>
      </trkpt>
      <trkpt lat="43.3300209604" lon="3.0422456190">
        <ele>33.78</ele>
        <time>2017-08-02T09:55:32Z</time>
      </trkpt>
      <trkpt lat="43.3299767878" lon="3.0422077328">
        <ele>33.78</ele>
        <time>2017-08-02T09:55:33Z</time>
      </trkpt>
      <trkpt lat="43.3299387340" lon="3.0421662424">
        <ele>33.30</ele>
        <time>2017-08-02T09:55:34Z</time>
      </trkpt>
      <trkpt lat="43.3299037814" lon="3.0421237461">
        <ele>33.30</ele>
        <time>2017-08-02T09:55:35Z</time>
      </trkpt>
      <trkpt lat="43.3297973312" lon="3.0420021247">
        <ele>31.86</ele>
        <time>2017-08-02T09:55:38Z</time>
      </trkpt>
      <trkpt lat="43.3295716066" lon="3.0417705327">
        <ele>31.38</ele>
        <time>2017-08-02T09:55:43Z</time>
      </trkpt>
      <trkpt lat="43.3293027990" lon="3.0414705444">
        <ele>29.46</ele>
        <time>2017-08-02T09:55:49Z</time>
      </trkpt>
      <trkpt lat="43.3292655833" lon="3.0414435547">
        <ele>28.98</ele>
        <time>2017-08-02T09:55:50Z</time>
      </trkpt>
      <trkpt lat="43.3292267751" lon="3.0414324068">
        <ele>28.50</ele>
        <time>2017-08-02T09:55:51Z</time>
      </trkpt>
      <trkpt lat="43.3291858714" lon="3.0414481647">
        <ele>28.98</ele>
        <time>2017-08-02T09:55:52Z</time>
      </trkpt>
      <trkpt lat="43.3291574568" lon="3.0414971150">
        <ele>28.02</ele>
        <time>2017-08-02T09:55:53Z</time>
      </trkpt>
      <trkpt lat="43.3291466441" lon="3.0415574647">
        <ele>28.02</ele>
        <time>2017-08-02T09:55:54Z</time>
      </trkpt>
      <trkpt lat="43.3291443810" lon="3.0416196585">
        <ele>28.02</ele>
        <time>2017-08-02T09:55:55Z</time>
      </trkpt>
      <trkpt lat="43.3290919941" lon="3.0419877917">
        <ele>28.98</ele>
        <time>2017-08-02T09:56:04Z</time>
      </trkpt>
      <trkpt lat="43.3290313929" lon="3.0423875246">
        <ele>29.46</ele>
        <time>2017-08-02T09:56:14Z</time>
      </trkpt>
      <trkpt lat="43.3289494179" lon="3.0427860841">
        <ele>29.94</ele>
        <time>2017-08-02T09:56:23Z</time>
      </trkpt>
      <trkpt lat="43.3289312292" lon="3.0430968851">
        <ele>29.94</ele>
        <time>2017-08-02T09:56:30Z</time>
      </trkpt>
      <trkpt lat="43.3289233502" lon="3.0432250444">
        <ele>29.94</ele>
        <time>2017-08-02T09:56:34Z</time>
      </trkpt>
      <trkpt lat="43.3289360069" lon="3.0436513480">
        <ele>29.46</ele>
        <time>2017-08-02T09:56:43Z</time>
      </trkpt>
      <trkpt lat="43.3289142977" lon="3.0437601451">
        <ele>29.46</ele>
        <time>2017-08-02T09:56:45Z</time>
      </trkpt>
      <trkpt lat="43.3288939297" lon="3.0438025575">
        <ele>28.98</ele>
        <time>2017-08-02T09:56:46Z</time>
      </trkpt>
      <trkpt lat="43.3288713824" lon="3.0438448023">
        <ele>28.98</ele>
        <time>2017-08-02T09:56:47Z</time>
      </trkpt>
      <trkpt lat="43.3288525231" lon="3.0438791681">
        <ele>28.98</ele>
        <time>2017-08-02T09:56:48Z</time>
      </trkpt>
      <trkpt lat="43.3288291376" lon="3.0439242627">
        <ele>28.98</ele>
        <time>2017-08-02T09:56:49Z</time>
      </trkpt>
      <trkpt lat="43.3288059197" lon="3.0439598858">
        <ele>28.98</ele>
        <time>2017-08-02T09:56:50Z</time>
      </trkpt>
      <trkpt lat="43.3287809417" lon="3.0439779907">
        <ele>28.50</ele>
        <time>2017-08-02T09:56:51Z</time>
      </trkpt>
      <trkpt lat="43.3287606575" lon="3.0439815950">
        <ele>28.50</ele>
        <time>2017-08-02T09:56:52Z</time>
      </trkpt>
      <trkpt lat="43.3287169877" lon="3.0439971853">
        <ele>28.98</ele>
        <time>2017-08-02T09:56:54Z</time>
      </trkpt>
      <trkpt lat="43.3287119586" lon="3.0440167151">
        <ele>28.98</ele>
        <time>2017-08-02T09:56:55Z</time>
      </trkpt>
      <trkpt lat="43.3287115395" lon="3.0440499075">
        <ele>28.50</ele>
        <time>2017-08-02T09:56:56Z</time>
      </trkpt>
      <trkpt lat="43.3287178259" lon="3.0440692697">
        <ele>28.98</ele>
        <time>2017-08-02T09:56:57Z</time>
      </trkpt>
      <trkpt lat="43.3287271298" lon="3.0440799985">
        <ele>28.98</ele>
        <time>2017-08-02T09:56:58Z</time>
      </trkpt>
      <trkpt lat="43.3287397865" lon="3.0440726224">
        <ele>28.50</ele>
        <time>2017-08-02T09:56:59Z</time>
      </trkpt>
      <trkpt lat="43.3287464920" lon="3.0440570321">
        <ele>28.50</ele>
        <time>2017-08-02T09:57:00Z</time>
      </trkpt>
      <trkpt lat="43.3287546225" lon="3.0440415256">
        <ele>28.98</ele>
        <time>2017-08-02T09:57:01Z</time>
      </trkpt>
      <trkpt lat="43.3287704643" lon="3.0440375023">
        <ele>28.98</ele>
        <time>2017-08-02T09:57:02Z</time>
      </trkpt>
      <trkpt lat="43.3287894912" lon="3.0440491531">
        <ele>28.98</ele>
        <time>2017-08-02T09:57:03Z</time>
      </trkpt>
      <trkpt lat="43.3288068417" lon="3.0440648273">
        <ele>28.98</ele>
        <time>2017-08-02T09:57:04Z</time>
      </trkpt>
      <trkpt lat="43.3288183250" lon="3.0440852791">
        <ele>28.98</ele>
        <time>2017-08-02T09:57:05Z</time>
      </trkpt>
      <trkpt lat="43.3288264554" lon="3.0441063177">
        <ele>28.98</ele>
        <time>2017-08-02T09:57:06Z</time>
      </trkpt>
      <trkpt lat="43.3288283832" lon="3.0442739557">
        <ele>28.02</ele>
        <time>2017-08-02T09:57:11Z</time>
      </trkpt>
      <trkpt lat="43.3288157266" lon="3.0443099979">
        <ele>28.02</ele>
        <time>2017-08-02T09:57:12Z</time>
      </trkpt>
      <trkpt lat="43.3288018126" lon="3.0443441961">
        <ele>28.02</ele>
        <time>2017-08-02T09:57:13Z</time>
      </trkpt>
      <trkpt lat="43.3287909161" lon="3.0443713535">
        <ele>28.02</ele>
        <time>2017-08-02T09:57:14Z</time>
      </trkpt>
      <trkpt lat="43.3287841268" lon="3.0443898775">
        <ele>27.53</ele>
        <time>2017-08-02T09:57:15Z</time>
      </trkpt>
      <trkpt lat="43.3287746552" lon="3.0444043782">
        <ele>27.53</ele>
        <time>2017-08-02T09:57:23Z</time>
      </trkpt>
      <trkpt lat="43.3287716378" lon="3.0444057193">
        <ele>27.53</ele>
        <time>2017-08-02T09:57:29Z</time>
      </trkpt>
      <trkpt lat="43.3281653747" lon="3.0446347129">
        <ele>27.05</ele>
        <time>2017-08-02T10:18:50Z</time>
      </trkpt>
      <trkpt lat="43.3282028418" lon="3.0445815716">
        <ele>27.53</ele>
        <time>2017-08-02T10:18:52Z</time>
      </trkpt>
      <trkpt lat="43.3282574080" lon="3.0443737004">
        <ele>30.90</ele>
        <time>2017-08-02T10:19:04Z</time>
      </trkpt>
      <trkpt lat="43.3282629400" lon="3.0443856027">
        <ele>34.26</ele>
        <time>2017-08-02T10:19:08Z</time>
      </trkpt>
      <trkpt lat="43.3282657061" lon="3.0443882011">
        <ele>37.63</ele>
        <time>2017-08-02T10:19:13Z</time>
      </trkpt>
      <trkpt lat="43.3282771055" lon="3.0444007739">
        <ele>41.47</ele>
        <time>2017-08-02T10:19:18Z</time>
      </trkpt>
      <trkpt lat="43.3282772731" lon="3.0444154423">
        <ele>44.36</ele>
        <time>2017-08-02T10:19:23Z</time>
      </trkpt>
      <trkpt lat="43.3282793686" lon="3.0444209743">
        <ele>27.05</ele>
        <time>2017-08-02T10:19:28Z</time>
      </trkpt>
      <trkpt lat="43.3282803744" lon="3.0444228183">
        <ele>27.05</ele>
        <time>2017-08-02T10:19:29Z</time>
      </trkpt>
      <trkpt lat="43.3282702323" lon="3.0444802344">
        <ele>29.94</ele>
        <time>2017-08-02T11:18:04Z</time>
      </trkpt>
      <trkpt lat="43.3280946314" lon="3.0443940684">
        <ele>29.94</ele>
        <time>2017-08-02T11:18:05Z</time>
      </trkpt>
      <trkpt lat="43.3280965593" lon="3.0444320384">
        <ele>33.30</ele>
        <time>2017-08-02T11:18:18Z</time>
      </trkpt>
      <trkpt lat="43.3281306736" lon="3.0443398375">
        <ele>34.26</ele>
        <time>2017-08-02T11:18:39Z</time>
      </trkpt>
      <trkpt lat="43.3280872554" lon="3.0442803260">
        <ele>34.74</ele>
        <time>2017-08-02T11:19:00Z</time>
      </trkpt>
      <trkpt lat="43.3280308452" lon="3.0442922283">
        <ele>34.74</ele>
        <time>2017-08-02T11:19:27Z</time>
      </trkpt>
      <trkpt lat="43.3279890195" lon="3.0442317110">
        <ele>34.74</ele>
        <time>2017-08-02T11:19:44Z</time>
      </trkpt>
      <trkpt lat="43.3279870916" lon="3.0441915616">
        <ele>34.74</ele>
        <time>2017-08-02T11:20:11Z</time>
      </trkpt>
      <trkpt lat="43.3279927913" lon="3.0441995244">
        <ele>34.74</ele>
        <time>2017-08-02T11:20:32Z</time>
      </trkpt>
      <trkpt lat="43.3280003350" lon="3.0442175455">
        <ele>34.74</ele>
        <time>2017-08-02T11:20:55Z</time>
      </trkpt>
      <trkpt lat="43.3280005027" lon="3.0442370754">
        <ele>34.74</ele>
        <time>2017-08-02T11:21:13Z</time>
      </trkpt>
      <trkpt lat="43.3280082978" lon="3.0442462116">
        <ele>34.74</ele>
        <time>2017-08-02T11:21:34Z</time>
      </trkpt>
      <trkpt lat="43.3280147519" lon="3.0442498159">
        <ele>34.26</ele>
        <time>2017-08-02T11:21:53Z</time>
      </trkpt>
      <trkpt lat="43.3280164283" lon="3.0442656577">
        <ele>34.74</ele>
        <time>2017-08-02T11:22:17Z</time>
      </trkpt>
      <trkpt lat="43.3280266542" lon="3.0442876182">
        <ele>34.74</ele>
        <time>2017-08-02T11:22:38Z</time>
      </trkpt>
      <trkpt lat="43.3280297555" lon="3.0443081539">
        <ele>35.23</ele>
        <time>2017-08-02T11:22:59Z</time>
      </trkpt>
      <trkpt lat="43.3280242234" lon="3.0443099141">
        <ele>35.23</ele>
        <time>2017-08-02T11:23:19Z</time>
      </trkpt>
      <trkpt lat="43.3280265704" lon="3.0443165358">
        <ele>35.71</ele>
        <time>2017-08-02T11:23:37Z</time>
      </trkpt>
      <trkpt lat="43.3279233053" lon="3.0442971736">
        <ele>33.78</ele>
        <time>2017-08-02T11:25:09Z</time>
      </trkpt>
      <trkpt lat="43.3279379737" lon="3.0442633945">
        <ele>33.78</ele>
        <time>2017-08-02T11:25:10Z</time>
      </trkpt>
      <trkpt lat="43.3279453497" lon="3.0443067290">
        <ele>37.15</ele>
        <time>2017-08-02T11:25:18Z</time>
      </trkpt>
      <trkpt lat="43.3279511333" lon="3.0443120934">
        <ele>36.67</ele>
        <time>2017-08-02T11:25:19Z</time>
      </trkpt>
      <trkpt lat="43.3279726747" lon="3.0443436094">
        <ele>40.51</ele>
        <time>2017-08-02T11:25:21Z</time>
      </trkpt>
      <trkpt lat="43.3279777877" lon="3.0443537515">
        <ele>40.03</ele>
        <time>2017-08-02T11:25:22Z</time>
      </trkpt>
      <trkpt lat="43.3279829007" lon="3.0443744548">
        <ele>43.40</ele>
        <time>2017-08-02T11:25:27Z</time>
      </trkpt>
      <trkpt lat="43.3279835712" lon="3.0443759635">
        <ele>42.92</ele>
        <time>2017-08-02T11:25:28Z</time>
      </trkpt>
      <trkpt lat="43.3279885165" lon="3.0443696771">
        <ele>44.84</ele>
        <time>2017-08-02T11:25:43Z</time>
      </trkpt>
      <trkpt lat="43.3280113991" lon="3.0443674140">
        <ele>44.36</ele>
        <time>2017-08-02T11:26:02Z</time>
      </trkpt>
      <trkpt lat="43.3280292526" lon="3.0443744548">
        <ele>44.36</ele>
        <time>2017-08-02T11:26:04Z</time>
      </trkpt>
      <trkpt lat="43.3281969745" lon="3.0442868639">
        <ele>44.84</ele>
        <time>2017-08-02T11:26:13Z</time>
      </trkpt>
      <trkpt lat="43.3282657899" lon="3.0442988500">
        <ele>44.84</ele>
        <time>2017-08-02T11:26:16Z</time>
      </trkpt>
      <trkpt lat="43.3284634352" lon="3.0443774723">
        <ele>44.36</ele>
        <time>2017-08-02T11:26:24Z</time>
      </trkpt>
      <trkpt lat="43.3286951110" lon="3.0445064697">
        <ele>44.84</ele>
        <time>2017-08-02T11:26:34Z</time>
      </trkpt>
      <trkpt lat="43.3287113719" lon="3.0445188750">
        <ele>43.40</ele>
        <time>2017-08-02T11:26:36Z</time>
      </trkpt>
      <trkpt lat="43.3287476655" lon="3.0445436016">
        <ele>43.40</ele>
        <time>2017-08-02T11:26:45Z</time>
      </trkpt>
      <trkpt lat="43.3287466597" lon="3.0445606168">
        <ele>43.40</ele>
        <time>2017-08-02T11:26:57Z</time>
      </trkpt>
      <trkpt lat="43.3287528623" lon="3.0445938930">
        <ele>43.40</ele>
        <time>2017-08-02T11:26:59Z</time>
      </trkpt>
      <trkpt lat="43.3286154829" lon="3.0448620301">
        <ele>42.44</ele>
        <time>2017-08-02T11:27:07Z</time>
      </trkpt>
      <trkpt lat="43.3285646047" lon="3.0449453462">
        <ele>42.44</ele>
        <time>2017-08-02T11:27:09Z</time>
      </trkpt>
      <trkpt lat="43.3284866530" lon="3.0450817198">
        <ele>41.95</ele>
        <time>2017-08-02T11:27:12Z</time>
      </trkpt>
      <trkpt lat="43.3283738326" lon="3.0452612601">
        <ele>41.47</ele>
        <time>2017-08-02T11:27:16Z</time>
      </trkpt>
      <trkpt lat="43.3283572365" lon="3.0453090370">
        <ele>41.47</ele>
        <time>2017-08-02T11:27:17Z</time>
      </trkpt>
      <trkpt lat="43.3283367008" lon="3.0454621743">
        <ele>40.99</ele>
        <time>2017-08-02T11:27:20Z</time>
      </trkpt>
      <trkpt lat="43.3283346891" lon="3.0455178302">
        <ele>40.99</ele>
        <time>2017-08-02T11:27:21Z</time>
      </trkpt>
      <trkpt lat="43.3283064421" lon="3.0460081715">
        <ele>40.03</ele>
        <time>2017-08-02T11:27:29Z</time>
      </trkpt>
      <trkpt lat="43.3283004910" lon="3.0460675154">
        <ele>39.55</ele>
        <time>2017-08-02T11:27:30Z</time>
      </trkpt>
      <trkpt lat="43.3282958809" lon="3.0461265240">
        <ele>39.55</ele>
        <time>2017-08-02T11:27:31Z</time>
      </trkpt>
      <trkpt lat="43.3282840624" lon="3.0461826827">
        <ele>39.07</ele>
        <time>2017-08-02T11:27:32Z</time>
      </trkpt>
      <trkpt lat="43.3282728307" lon="3.0462400150">
        <ele>39.07</ele>
        <time>2017-08-02T11:27:33Z</time>
      </trkpt>
      <trkpt lat="43.3282072004" lon="3.0463934038">
        <ele>39.07</ele>
        <time>2017-08-02T11:27:36Z</time>
      </trkpt>
      <trkpt lat="43.3281607646" lon="3.0464234110">
        <ele>38.59</ele>
        <time>2017-08-02T11:27:37Z</time>
      </trkpt>
      <trkpt lat="43.3278967347" lon="3.0465326272">
        <ele>38.11</ele>
        <time>2017-08-02T11:27:42Z</time>
      </trkpt>
      <trkpt lat="43.3277922962" lon="3.0465592816">
        <ele>38.11</ele>
        <time>2017-08-02T11:27:44Z</time>
      </trkpt>
      <trkpt lat="43.3277463634" lon="3.0465892050">
        <ele>37.63</ele>
        <time>2017-08-02T11:27:45Z</time>
      </trkpt>
      <trkpt lat="43.3277021907" lon="3.0466322042">
        <ele>37.63</ele>
        <time>2017-08-02T11:27:46Z</time>
      </trkpt>
      <trkpt lat="43.3276261669" lon="3.0467266683">
        <ele>37.63</ele>
        <time>2017-08-02T11:27:48Z</time>
      </trkpt>
      <trkpt lat="43.3275997639" lon="3.0467808992">
        <ele>37.63</ele>
        <time>2017-08-02T11:27:49Z</time>
      </trkpt>
      <trkpt lat="43.3275799826" lon="3.0468365550">
        <ele>37.63</ele>
        <time>2017-08-02T11:27:50Z</time>
      </trkpt>
      <trkpt lat="43.3275623806" lon="3.0468908697">
        <ele>37.15</ele>
        <time>2017-08-02T11:27:51Z</time>
      </trkpt>
      <trkpt lat="43.3275447786" lon="3.0469442625">
        <ele>37.63</ele>
        <time>2017-08-02T11:27:52Z</time>
      </trkpt>
      <trkpt lat="43.3273914736" lon="3.0475221109">
        <ele>37.15</ele>
        <time>2017-08-02T11:28:04Z</time>
      </trkpt>
      <trkpt lat="43.3273716923" lon="3.0476221908">
        <ele>36.67</ele>
        <time>2017-08-02T11:28:08Z</time>
      </trkpt>
      <trkpt lat="43.3273656573" lon="3.0476454087">
        <ele>36.67</ele>
        <time>2017-08-02T11:28:09Z</time>
      </trkpt>
      <trkpt lat="43.3273602091" lon="3.0476794392">
        <ele>36.67</ele>
        <time>2017-08-02T11:28:10Z</time>
      </trkpt>
      <trkpt lat="43.3273614664" lon="3.0477217678">
        <ele>36.67</ele>
        <time>2017-08-02T11:28:11Z</time>
      </trkpt>
      <trkpt lat="43.3273649868" lon="3.0477654375">
        <ele>36.19</ele>
        <time>2017-08-02T11:28:12Z</time>
      </trkpt>
      <trkpt lat="43.3274232410" lon="3.0481717084">
        <ele>36.67</ele>
        <time>2017-08-02T11:28:22Z</time>
      </trkpt>
      <trkpt lat="43.3274396695" lon="3.0486129317">
        <ele>36.67</ele>
        <time>2017-08-02T11:28:33Z</time>
      </trkpt>
      <trkpt lat="43.3273505699" lon="3.0490592681">
        <ele>36.19</ele>
        <time>2017-08-02T11:28:43Z</time>
      </trkpt>
      <trkpt lat="43.3271353226" lon="3.0496630166">
        <ele>36.19</ele>
        <time>2017-08-02T11:28:56Z</time>
      </trkpt>
      <trkpt lat="43.3269524295" lon="3.0503989477">
        <ele>35.71</ele>
        <time>2017-08-02T11:29:10Z</time>
      </trkpt>
      <trkpt lat="43.3269423712" lon="3.0504542682">
        <ele>35.71</ele>
        <time>2017-08-02T11:29:11Z</time>
      </trkpt>
      <trkpt lat="43.3269256912" lon="3.0505065713">
        <ele>35.71</ele>
        <time>2017-08-02T11:29:12Z</time>
      </trkpt>
      <trkpt lat="43.3268126193" lon="3.0510477908">
        <ele>35.23</ele>
        <time>2017-08-02T11:29:22Z</time>
      </trkpt>
      <trkpt lat="43.3267685305" lon="3.0515980627">
        <ele>35.71</ele>
        <time>2017-08-02T11:29:32Z</time>
      </trkpt>
      <trkpt lat="43.3266570512" lon="3.0523370113">
        <ele>35.71</ele>
        <time>2017-08-02T11:29:45Z</time>
      </trkpt>
      <trkpt lat="43.3266455680" lon="3.0523954332">
        <ele>35.71</ele>
        <time>2017-08-02T11:29:46Z</time>
      </trkpt>
      <trkpt lat="43.3266363479" lon="3.0524493288">
        <ele>35.23</ele>
        <time>2017-08-02T11:29:47Z</time>
      </trkpt>
      <trkpt lat="43.3265459910" lon="3.0530051328">
        <ele>35.23</ele>
        <time>2017-08-02T11:29:58Z</time>
      </trkpt>
      <trkpt lat="43.3264086954" lon="3.0534948036">
        <ele>34.74</ele>
        <time>2017-08-02T11:30:08Z</time>
      </trkpt>
      <trkpt lat="43.3263561409" lon="3.0538341869">
        <ele>35.23</ele>
        <time>2017-08-02T11:30:16Z</time>
      </trkpt>
      <trkpt lat="43.3263750840" lon="3.0538614281">
        <ele>35.23</ele>
        <time>2017-08-02T11:30:17Z</time>
      </trkpt>
      <trkpt lat="43.3263993077" lon="3.0538848974">
        <ele>35.23</ele>
        <time>2017-08-02T11:30:18Z</time>
      </trkpt>
      <trkpt lat="43.3264275547" lon="3.0538997333">
        <ele>35.23</ele>
        <time>2017-08-02T11:30:19Z</time>
      </trkpt>
      <trkpt lat="43.3264547121" lon="3.0539139826">
        <ele>35.23</ele>
        <time>2017-08-02T11:30:20Z</time>
      </trkpt>
      <trkpt lat="43.3264800254" lon="3.0539312493">
        <ele>35.23</ele>
        <time>2017-08-02T11:30:21Z</time>
      </trkpt>
      <trkpt lat="43.3265044168" lon="3.0539515335">
        <ele>35.23</ele>
        <time>2017-08-02T11:30:22Z</time>
      </trkpt>
      <trkpt lat="43.3265247010" lon="3.0539779365">
        <ele>35.23</ele>
        <time>2017-08-02T11:30:23Z</time>
      </trkpt>
      <trkpt lat="43.3265439793" lon="3.0540037528">
        <ele>35.71</ele>
        <time>2017-08-02T11:30:24Z</time>
      </trkpt>
      <trkpt lat="43.3265666105" lon="3.0540255457">
        <ele>35.23</ele>
        <time>2017-08-02T11:30:25Z</time>
      </trkpt>
      <trkpt lat="43.3268132061" lon="3.0543362629">
        <ele>35.71</ele>
        <time>2017-08-02T11:30:36Z</time>
      </trkpt>
      <trkpt lat="43.3270864561" lon="3.0546753109">
        <ele>36.67</ele>
        <time>2017-08-02T11:30:48Z</time>
      </trkpt>
      <trkpt lat="43.3273201436" lon="3.0548864510">
        <ele>37.15</ele>
        <time>2017-08-02T11:30:58Z</time>
      </trkpt>
      <trkpt lat="43.3275358938" lon="3.0551488046">
        <ele>38.11</ele>
        <time>2017-08-02T11:31:09Z</time>
      </trkpt>
      <trkpt lat="43.3277485427" lon="3.0553203821">
        <ele>39.55</ele>
        <time>2017-08-02T11:31:21Z</time>
      </trkpt>
      <trkpt lat="43.3278958965" lon="3.0554617010">
        <ele>40.99</ele>
        <time>2017-08-02T11:31:31Z</time>
      </trkpt>
      <trkpt lat="43.3280527219" lon="3.0556103121">
        <ele>42.92</ele>
        <time>2017-08-02T11:31:42Z</time>
      </trkpt>
      <trkpt lat="43.3281386364" lon="3.0556817260">
        <ele>43.88</ele>
        <time>2017-08-02T11:31:48Z</time>
      </trkpt>
      <trkpt lat="43.3281828091" lon="3.0557466019">
        <ele>44.84</ele>
        <time>2017-08-02T11:31:52Z</time>
      </trkpt>
      <trkpt lat="43.3283121418" lon="3.0558835622">
        <ele>46.76</ele>
        <time>2017-08-02T11:32:03Z</time>
      </trkpt>
      <trkpt lat="43.3283688873" lon="3.0559264775">
        <ele>47.24</ele>
        <time>2017-08-02T11:32:07Z</time>
      </trkpt>
      <trkpt lat="43.3285009023" lon="3.0560463388">
        <ele>48.68</ele>
        <time>2017-08-02T11:32:17Z</time>
      </trkpt>
      <trkpt lat="43.3287025709" lon="3.0562115461">
        <ele>49.16</ele>
        <time>2017-08-02T11:32:30Z</time>
      </trkpt>
      <trkpt lat="43.3288708795" lon="3.0563583132">
        <ele>50.61</ele>
        <time>2017-08-02T11:32:42Z</time>
      </trkpt>
      <trkpt lat="43.3289132919" lon="3.0563923437">
        <ele>51.09</ele>
        <time>2017-08-02T11:32:45Z</time>
      </trkpt>
      <trkpt lat="43.3290247712" lon="3.0564876460">
        <ele>51.09</ele>
        <time>2017-08-02T11:32:52Z</time>
      </trkpt>
      <trkpt lat="43.3291477337" lon="3.0565836187">
        <ele>51.57</ele>
        <time>2017-08-02T11:32:59Z</time>
      </trkpt>
      <trkpt lat="43.3294512425" lon="3.0568614788">
        <ele>51.57</ele>
        <time>2017-08-02T11:33:13Z</time>
      </trkpt>
      <trkpt lat="43.3297650609" lon="3.0571698491">
        <ele>50.61</ele>
        <time>2017-08-02T11:33:24Z</time>
      </trkpt>
      <trkpt lat="43.3300625347" lon="3.0574399978">
        <ele>50.13</ele>
        <time>2017-08-02T11:33:34Z</time>
      </trkpt>
      <trkpt lat="43.3303082921" lon="3.0576280039">
        <ele>49.65</ele>
        <time>2017-08-02T11:33:42Z</time>
      </trkpt>
      <trkpt lat="43.3304483537" lon="3.0574392434">
        <ele>49.65</ele>
        <time>2017-08-02T11:33:49Z</time>
      </trkpt>
      <trkpt lat="43.3305955399" lon="3.0569408555">
        <ele>50.13</ele>
        <time>2017-08-02T11:34:00Z</time>
      </trkpt>
      <trkpt lat="43.3307952806" lon="3.0564217642">
        <ele>50.13</ele>
        <time>2017-08-02T11:34:12Z</time>
      </trkpt>
      <trkpt lat="43.3310158923" lon="3.0562075227">
        <ele>50.61</ele>
        <time>2017-08-02T11:34:21Z</time>
      </trkpt>
      <trkpt lat="43.3310776670" lon="3.0561682116">
        <ele>50.13</ele>
        <time>2017-08-02T11:34:25Z</time>
      </trkpt>
      <trkpt lat="43.3311504219" lon="3.0563654378">
        <ele>49.16</ele>
        <time>2017-08-02T11:34:32Z</time>
      </trkpt>
      <trkpt lat="43.3311965223" lon="3.0568638258">
        <ele>48.68</ele>
        <time>2017-08-02T11:34:42Z</time>
      </trkpt>
      <trkpt lat="43.3312379289" lon="3.0575708393">
        <ele>48.20</ele>
        <time>2017-08-02T11:34:55Z</time>
      </trkpt>
      <trkpt lat="43.3312860411" lon="3.0582836363">
        <ele>48.20</ele>
        <time>2017-08-02T11:35:08Z</time>
      </trkpt>
      <trkpt lat="43.3313266933" lon="3.0592453759">
        <ele>48.20</ele>
        <time>2017-08-02T11:35:25Z</time>
      </trkpt>
      <trkpt lat="43.3313162159" lon="3.0600990728">
        <ele>48.20</ele>
        <time>2017-08-02T11:35:40Z</time>
      </trkpt>
      <trkpt lat="43.3312981110" lon="3.0608945992">
        <ele>47.72</ele>
        <time>2017-08-02T11:35:55Z</time>
      </trkpt>
      <trkpt lat="43.3312862087" lon="3.0614514928">
        <ele>48.20</ele>
        <time>2017-08-02T11:36:06Z</time>
      </trkpt>
      <trkpt lat="43.3312750608" lon="3.0620523915">
        <ele>47.72</ele>
        <time>2017-08-02T11:36:18Z</time>
      </trkpt>
      <trkpt lat="43.3312556148" lon="3.0627423059">
        <ele>47.72</ele>
        <time>2017-08-02T11:36:31Z</time>
      </trkpt>
      <trkpt lat="43.3312551957" lon="3.0632876325">
        <ele>47.24</ele>
        <time>2017-08-02T11:36:42Z</time>
      </trkpt>
      <trkpt lat="43.3312401921" lon="3.0638497230">
        <ele>47.24</ele>
        <time>2017-08-02T11:36:53Z</time>
      </trkpt>
      <trkpt lat="43.3312391024" lon="3.0644891784">
        <ele>47.24</ele>
        <time>2017-08-02T11:37:05Z</time>
      </trkpt>
      <trkpt lat="43.3311866317" lon="3.0650374386">
        <ele>47.24</ele>
        <time>2017-08-02T11:37:15Z</time>
      </trkpt>
      <trkpt lat="43.3311466500" lon="3.0653044023">
        <ele>47.24</ele>
        <time>2017-08-02T11:37:20Z</time>
      </trkpt>
      <trkpt lat="43.3311356697" lon="3.0653585494">
        <ele>47.24</ele>
        <time>2017-08-02T11:37:21Z</time>
      </trkpt>
      <trkpt lat="43.3310144674" lon="3.0658472143">
        <ele>47.24</ele>
        <time>2017-08-02T11:37:30Z</time>
      </trkpt>
      <trkpt lat="43.3309956081" lon="3.0658975895">
        <ele>47.24</ele>
        <time>2017-08-02T11:37:31Z</time>
      </trkpt>
      <trkpt lat="43.3307355177" lon="3.0664251465">
        <ele>47.24</ele>
        <time>2017-08-02T11:37:43Z</time>
      </trkpt>
      <trkpt lat="43.3304139040" lon="3.0667828862">
        <ele>46.76</ele>
        <time>2017-08-02T11:37:54Z</time>
      </trkpt>
      <trkpt lat="43.3300010953" lon="3.0670532025">
        <ele>46.76</ele>
        <time>2017-08-02T11:38:06Z</time>
      </trkpt>
      <trkpt lat="43.3297576010" lon="3.0671423022">
        <ele>46.76</ele>
        <time>2017-08-02T11:38:13Z</time>
      </trkpt>
      <trkpt lat="43.3293742966" lon="3.0672054179">
        <ele>46.28</ele>
        <time>2017-08-02T11:38:24Z</time>
      </trkpt>
      <trkpt lat="43.3290063310" lon="3.0672893208">
        <ele>46.28</ele>
        <time>2017-08-02T11:38:34Z</time>
      </trkpt>
      <trkpt lat="43.3286801074" lon="3.0674890615">
        <ele>46.28</ele>
        <time>2017-08-02T11:38:43Z</time>
      </trkpt>
      <trkpt lat="43.3283454180" lon="3.0678935722">
        <ele>46.28</ele>
        <time>2017-08-02T11:38:55Z</time>
      </trkpt>
      <trkpt lat="43.3281165082" lon="3.0682856776">
        <ele>46.28</ele>
        <time>2017-08-02T11:39:05Z</time>
      </trkpt>
      <trkpt lat="43.3279212099" lon="3.0686691497">
        <ele>45.80</ele>
        <time>2017-08-02T11:39:14Z</time>
      </trkpt>
      <trkpt lat="43.3276798949" lon="3.0690914299">
        <ele>45.80</ele>
        <time>2017-08-02T11:39:25Z</time>
      </trkpt>
      <trkpt lat="43.3274415135" lon="3.0695282109">
        <ele>45.80</ele>
        <time>2017-08-02T11:39:35Z</time>
      </trkpt>
      <trkpt lat="43.3272014558" lon="3.0699514970">
        <ele>45.80</ele>
        <time>2017-08-02T11:39:45Z</time>
      </trkpt>
      <trkpt lat="43.3268072549" lon="3.0706037767">
        <ele>45.80</ele>
        <time>2017-08-02T11:40:00Z</time>
      </trkpt>
      <trkpt lat="43.3265854698" lon="3.0710481014">
        <ele>45.80</ele>
        <time>2017-08-02T11:40:10Z</time>
      </trkpt>
      <trkpt lat="43.3264259622" lon="3.0714533664">
        <ele>45.80</ele>
        <time>2017-08-02T11:40:19Z</time>
      </trkpt>
      <trkpt lat="43.3262461703" lon="3.0719332304">
        <ele>45.80</ele>
        <time>2017-08-02T11:40:29Z</time>
      </trkpt>
      <trkpt lat="43.3260355331" lon="3.0724426825">
        <ele>45.80</ele>
        <time>2017-08-02T11:40:40Z</time>
      </trkpt>
      <trkpt lat="43.3257626183" lon="3.0730401445">
        <ele>45.80</ele>
        <time>2017-08-02T11:40:53Z</time>
      </trkpt>
      <trkpt lat="43.3254786395" lon="3.0735604931">
        <ele>45.80</ele>
        <time>2017-08-02T11:41:05Z</time>
      </trkpt>
      <trkpt lat="43.3251417708" lon="3.0740865413">
        <ele>45.80</ele>
        <time>2017-08-02T11:41:18Z</time>
      </trkpt>
      <trkpt lat="43.3248681854" lon="3.0745155271">
        <ele>45.80</ele>
        <time>2017-08-02T11:41:28Z</time>
      </trkpt>
      <trkpt lat="43.3245472424" lon="3.0749476142">
        <ele>45.80</ele>
        <time>2017-08-02T11:41:39Z</time>
      </trkpt>
      <trkpt lat="43.3241673745" lon="3.0753354449">
        <ele>45.80</ele>
        <time>2017-08-02T11:41:51Z</time>
      </trkpt>
      <trkpt lat="43.3237455972" lon="3.0755948648">
        <ele>45.32</ele>
        <time>2017-08-02T11:42:03Z</time>
      </trkpt>
      <trkpt lat="43.3234492131" lon="3.0756433960">
        <ele>45.32</ele>
        <time>2017-08-02T11:42:11Z</time>
      </trkpt>
      <trkpt lat="43.3231052198" lon="3.0755797774">
        <ele>45.80</ele>
        <time>2017-08-02T11:42:20Z</time>
      </trkpt>
      <trkpt lat="43.3227613103" lon="3.0755698029">
        <ele>45.80</ele>
        <time>2017-08-02T11:42:29Z</time>
      </trkpt>
      <trkpt lat="43.3224189933" lon="3.0754839722">
        <ele>45.32</ele>
        <time>2017-08-02T11:42:38Z</time>
      </trkpt>
      <trkpt lat="43.3221837133" lon="3.0754339322">
        <ele>46.28</ele>
        <time>2017-08-02T11:42:45Z</time>
      </trkpt>
      <trkpt lat="43.3218628541" lon="3.0754265562">
        <ele>46.76</ele>
        <time>2017-08-02T11:42:56Z</time>
      </trkpt>
      <trkpt lat="43.3215340320" lon="3.0754126422">
        <ele>45.32</ele>
        <time>2017-08-02T11:43:05Z</time>
      </trkpt>
      <trkpt lat="43.3212294336" lon="3.0753814615">
        <ele>45.32</ele>
        <time>2017-08-02T11:43:14Z</time>
      </trkpt>
      <trkpt lat="43.3209242485" lon="3.0752853211">
        <ele>45.32</ele>
        <time>2017-08-02T11:43:24Z</time>
      </trkpt>
      <trkpt lat="43.3205613121" lon="3.0750666372">
        <ele>45.32</ele>
        <time>2017-08-02T11:43:36Z</time>
      </trkpt>
      <trkpt lat="43.3201787621" lon="3.0747923814">
        <ele>45.32</ele>
        <time>2017-08-02T11:43:47Z</time>
      </trkpt>
      <trkpt lat="43.3199147321" lon="3.0745620467">
        <ele>45.32</ele>
        <time>2017-08-02T11:43:56Z</time>
      </trkpt>
      <trkpt lat="43.3197174221" lon="3.0744103342">
        <ele>46.28</ele>
        <time>2017-08-02T11:44:04Z</time>
      </trkpt>
      <trkpt lat="43.3194106445" lon="3.0741013773">
        <ele>46.28</ele>
        <time>2017-08-02T11:44:16Z</time>
      </trkpt>
      <trkpt lat="43.3191645518" lon="3.0738407001">
        <ele>45.80</ele>
        <time>2017-08-02T11:44:24Z</time>
      </trkpt>
      <trkpt lat="43.3189385757" lon="3.0733555555">
        <ele>45.32</ele>
        <time>2017-08-02T11:44:34Z</time>
      </trkpt>
      <trkpt lat="43.3189106639" lon="3.0733014923">
        <ele>45.32</ele>
        <time>2017-08-02T11:44:35Z</time>
      </trkpt>
      <trkpt lat="43.3188878652" lon="3.0732435733">
        <ele>45.32</ele>
        <time>2017-08-02T11:44:36Z</time>
      </trkpt>
      <trkpt lat="43.3188250009" lon="3.0730794556">
        <ele>45.32</ele>
        <time>2017-08-02T11:44:39Z</time>
      </trkpt>
      <trkpt lat="43.3188111708" lon="3.0730223749">
        <ele>45.32</ele>
        <time>2017-08-02T11:44:40Z</time>
      </trkpt>
      <trkpt lat="43.3186530042" lon="3.0723929778">
        <ele>44.84</ele>
        <time>2017-08-02T11:44:51Z</time>
      </trkpt>
      <trkpt lat="43.3185318019" lon="3.0717797577">
        <ele>45.32</ele>
        <time>2017-08-02T11:45:02Z</time>
      </trkpt>
      <trkpt lat="43.3183068316" lon="3.0713470001">
        <ele>44.84</ele>
        <time>2017-08-02T11:45:12Z</time>
      </trkpt>
      <trkpt lat="43.3181583043" lon="3.0712151527">
        <ele>45.32</ele>
        <time>2017-08-02T11:45:20Z</time>
      </trkpt>
      <trkpt lat="43.3181049116" lon="3.0712288991">
        <ele>45.32</ele>
        <time>2017-08-02T11:45:23Z</time>
      </trkpt>
      <trkpt lat="43.3180862200" lon="3.0712413881">
        <ele>45.32</ele>
        <time>2017-08-02T11:45:24Z</time>
      </trkpt>
      <trkpt lat="43.3180565480" lon="3.0712391250">
        <ele>44.84</ele>
        <time>2017-08-02T11:45:25Z</time>
      </trkpt>
      <trkpt lat="43.3177413885" lon="3.0711778533">
        <ele>44.84</ele>
        <time>2017-08-02T11:45:35Z</time>
      </trkpt>
      <trkpt lat="43.3173867501" lon="3.0711178388">
        <ele>44.36</ele>
        <time>2017-08-02T11:45:45Z</time>
      </trkpt>
      <trkpt lat="43.3171167690" lon="3.0708442535">
        <ele>44.36</ele>
        <time>2017-08-02T11:45:54Z</time>
      </trkpt>
      <trkpt lat="43.3169538248" lon="3.0705794692">
        <ele>44.36</ele>
        <time>2017-08-02T11:46:02Z</time>
      </trkpt>
      <trkpt lat="43.3167698421" lon="3.0702927243">
        <ele>44.36</ele>
        <time>2017-08-02T11:46:11Z</time>
      </trkpt>
      <trkpt lat="43.3165613003" lon="3.0699616391">
        <ele>43.88</ele>
        <time>2017-08-02T11:46:21Z</time>
      </trkpt>
      <trkpt lat="43.3163714502" lon="3.0696318112">
        <ele>44.36</ele>
        <time>2017-08-02T11:46:30Z</time>
      </trkpt>
      <trkpt lat="43.3162110206" lon="3.0691275559">
        <ele>43.88</ele>
        <time>2017-08-02T11:46:40Z</time>
      </trkpt>
      <trkpt lat="43.3158836234" lon="3.0686139129">
        <ele>43.88</ele>
        <time>2017-08-02T11:46:52Z</time>
      </trkpt>
      <trkpt lat="43.3155031689" lon="3.0684752762">
        <ele>44.36</ele>
        <time>2017-08-02T11:47:02Z</time>
      </trkpt>
      <trkpt lat="43.3154606726" lon="3.0684816465">
        <ele>44.36</ele>
        <time>2017-08-02T11:47:03Z</time>
      </trkpt>
      <trkpt lat="43.3150428347" lon="3.0686505418">
        <ele>43.88</ele>
        <time>2017-08-02T11:47:14Z</time>
      </trkpt>
      <trkpt lat="43.3147240710" lon="3.0688698962">
        <ele>43.88</ele>
        <time>2017-08-02T11:47:23Z</time>
      </trkpt>
      <trkpt lat="43.3144789841" lon="3.0691581499">
        <ele>43.88</ele>
        <time>2017-08-02T11:47:31Z</time>
      </trkpt>
      <trkpt lat="43.3143011201" lon="3.0694043264">
        <ele>43.88</ele>
        <time>2017-08-02T11:47:37Z</time>
      </trkpt>
      <trkpt lat="43.3138928376" lon="3.0699933227">
        <ele>44.36</ele>
        <time>2017-08-02T11:47:51Z</time>
      </trkpt>
      <trkpt lat="43.3137443941" lon="3.0702151079">
        <ele>44.36</ele>
        <time>2017-08-02T11:47:56Z</time>
      </trkpt>
      <trkpt lat="43.3136865590" lon="3.0703080632">
        <ele>43.88</ele>
        <time>2017-08-02T11:47:58Z</time>
      </trkpt>
      <trkpt lat="43.3136105351" lon="3.0704547465">
        <ele>43.88</ele>
        <time>2017-08-02T11:48:01Z</time>
      </trkpt>
      <trkpt lat="43.3135363553" lon="3.0706719216">
        <ele>43.88</ele>
        <time>2017-08-02T11:48:05Z</time>
      </trkpt>
      <trkpt lat="43.3134358563" lon="3.0712522008">
        <ele>43.88</ele>
        <time>2017-08-02T11:48:16Z</time>
      </trkpt>
      <trkpt lat="43.3133152407" lon="3.0716260336">
        <ele>43.88</ele>
        <time>2017-08-02T11:48:24Z</time>
      </trkpt>
      <trkpt lat="43.3132243808" lon="3.0718183145">
        <ele>44.36</ele>
        <time>2017-08-02T11:48:28Z</time>
      </trkpt>
      <trkpt lat="43.3131299168" lon="3.0720389262">
        <ele>43.88</ele>
        <time>2017-08-02T11:48:32Z</time>
      </trkpt>
      <trkpt lat="43.3128885180" lon="3.0726392381">
        <ele>43.88</ele>
        <time>2017-08-02T11:48:43Z</time>
      </trkpt>
      <trkpt lat="43.3126028627" lon="3.0733272247">
        <ele>43.88</ele>
        <time>2017-08-02T11:48:56Z</time>
      </trkpt>
      <trkpt lat="43.3124161977" lon="3.0738104414">
        <ele>43.40</ele>
        <time>2017-08-02T11:49:06Z</time>
      </trkpt>
      <trkpt lat="43.3122281078" lon="3.0742478929">
        <ele>43.88</ele>
        <time>2017-08-02T11:49:15Z</time>
      </trkpt>
      <trkpt lat="43.3120717853" lon="3.0746293534">
        <ele>43.88</ele>
        <time>2017-08-02T11:49:23Z</time>
      </trkpt>
      <trkpt lat="43.3118102700" lon="3.0750840716">
        <ele>43.88</ele>
        <time>2017-08-02T11:49:33Z</time>
      </trkpt>
      <trkpt lat="43.3117810171" lon="3.0751264840">
        <ele>43.88</ele>
        <time>2017-08-02T11:49:34Z</time>
      </trkpt>
      <trkpt lat="43.3114399575" lon="3.0754960421">
        <ele>43.88</ele>
        <time>2017-08-02T11:49:44Z</time>
      </trkpt>
      <trkpt lat="43.3111774363" lon="3.0756972916">
        <ele>43.88</ele>
        <time>2017-08-02T11:49:51Z</time>
      </trkpt>
      <trkpt lat="43.3110595029" lon="3.0757775065">
        <ele>43.88</ele>
        <time>2017-08-02T11:49:54Z</time>
      </trkpt>
      <trkpt lat="43.3110217843" lon="3.0758073460">
        <ele>43.40</ele>
        <time>2017-08-02T11:49:55Z</time>
      </trkpt>
      <trkpt lat="43.3108270727" lon="3.0759430490">
        <ele>43.88</ele>
        <time>2017-08-02T11:50:00Z</time>
      </trkpt>
      <trkpt lat="43.3107878454" lon="3.0759650096">
        <ele>43.88</ele>
        <time>2017-08-02T11:50:01Z</time>
      </trkpt>
      <trkpt lat="43.3105235640" lon="3.0761193205">
        <ele>43.88</ele>
        <time>2017-08-02T11:50:08Z</time>
      </trkpt>
      <trkpt lat="43.3101725299" lon="3.0764366593">
        <ele>43.40</ele>
        <time>2017-08-02T11:50:19Z</time>
      </trkpt>
      <trkpt lat="43.3100076579" lon="3.0767328758">
        <ele>43.40</ele>
        <time>2017-08-02T11:50:28Z</time>
      </trkpt>
      <trkpt lat="43.3099080808" lon="3.0771521386">
        <ele>43.40</ele>
        <time>2017-08-02T11:50:37Z</time>
      </trkpt>
      <trkpt lat="43.3099094220" lon="3.0772061180">
        <ele>42.92</ele>
        <time>2017-08-02T11:50:38Z</time>
      </trkpt>
      <trkpt lat="43.3099156246" lon="3.0772593431">
        <ele>42.92</ele>
        <time>2017-08-02T11:50:39Z</time>
      </trkpt>
      <trkpt lat="43.3099810872" lon="3.0777441524">
        <ele>42.92</ele>
        <time>2017-08-02T11:50:49Z</time>
      </trkpt>
      <trkpt lat="43.3099623956" lon="3.0781990383">
        <ele>43.40</ele>
        <time>2017-08-02T11:50:59Z</time>
      </trkpt>
      <trkpt lat="43.3097217511" lon="3.0784207396">
        <ele>43.88</ele>
        <time>2017-08-02T11:51:07Z</time>
      </trkpt>
      <trkpt lat="43.3093060087" lon="3.0786177982">
        <ele>43.40</ele>
        <time>2017-08-02T11:51:19Z</time>
      </trkpt>
      <trkpt lat="43.3090215269" lon="3.0786647368">
        <ele>44.36</ele>
        <time>2017-08-02T11:51:29Z</time>
      </trkpt>
      <trkpt lat="43.3087644540" lon="3.0787139386">
        <ele>44.84</ele>
        <time>2017-08-02T11:51:39Z</time>
      </trkpt>
      <trkpt lat="43.3085404895" lon="3.0787688401">
        <ele>44.84</ele>
        <time>2017-08-02T11:51:49Z</time>
      </trkpt>
      <trkpt lat="43.3083057962" lon="3.0787193868">
        <ele>46.28</ele>
        <time>2017-08-02T11:51:58Z</time>
      </trkpt>
      <trkpt lat="43.3080074005" lon="3.0786532536">
        <ele>45.32</ele>
        <time>2017-08-02T11:52:09Z</time>
      </trkpt>
      <trkpt lat="43.3077207394" lon="3.0785534251">
        <ele>45.32</ele>
        <time>2017-08-02T11:52:18Z</time>
      </trkpt>
      <trkpt lat="43.3075236809" lon="3.0784429517">
        <ele>45.32</ele>
        <time>2017-08-02T11:52:26Z</time>
      </trkpt>
      <trkpt lat="43.3072851319" lon="3.0782227591">
        <ele>45.32</ele>
        <time>2017-08-02T11:52:36Z</time>
      </trkpt>
      <trkpt lat="43.3071202599" lon="3.0780153908">
        <ele>45.32</ele>
        <time>2017-08-02T11:52:44Z</time>
      </trkpt>
      <trkpt lat="43.3069293201" lon="3.0777656939">
        <ele>45.80</ele>
        <time>2017-08-02T11:52:55Z</time>
      </trkpt>
      <trkpt lat="43.3068714850" lon="3.0777131394">
        <ele>45.80</ele>
        <time>2017-08-02T11:52:58Z</time>
      </trkpt>
      <trkpt lat="43.3068617620" lon="3.0776975490">
        <ele>45.80</ele>
        <time>2017-08-02T11:52:59Z</time>
      </trkpt>
      <trkpt lat="43.3068562299" lon="3.0776874907">
        <ele>44.84</ele>
        <time>2017-08-02T11:53:09Z</time>
      </trkpt>
      <trkpt lat="43.3068455849" lon="3.0776743311">
        <ele>45.32</ele>
        <time>2017-08-02T11:53:19Z</time>
      </trkpt>
      <trkpt lat="43.3068310004" lon="3.0776631832">
        <ele>45.32</ele>
        <time>2017-08-02T11:53:20Z</time>
      </trkpt>
      <trkpt lat="43.3068148233" lon="3.0776493531">
        <ele>45.32</ele>
        <time>2017-08-02T11:53:21Z</time>
      </trkpt>
      <trkpt lat="43.3067983110" lon="3.0776309129">
        <ele>44.84</ele>
        <time>2017-08-02T11:53:22Z</time>
      </trkpt>
      <trkpt lat="43.3067787811" lon="3.0776074436">
        <ele>44.84</ele>
        <time>2017-08-02T11:53:23Z</time>
      </trkpt>
      <trkpt lat="43.3067530487" lon="3.0775864050">
        <ele>44.84</ele>
        <time>2017-08-02T11:53:24Z</time>
      </trkpt>
      <trkpt lat="43.3067268133" lon="3.0775627680">
        <ele>44.84</ele>
        <time>2017-08-02T11:53:25Z</time>
      </trkpt>
      <trkpt lat="43.3066999074" lon="3.0775377899">
        <ele>44.84</ele>
        <time>2017-08-02T11:53:26Z</time>
      </trkpt>
      <trkpt lat="43.3066732530" lon="3.0775112193">
        <ele>44.36</ele>
        <time>2017-08-02T11:53:27Z</time>
      </trkpt>
      <trkpt lat="43.3066474367" lon="3.0774786137">
        <ele>44.36</ele>
        <time>2017-08-02T11:53:28Z</time>
      </trkpt>
      <trkpt lat="43.3064363804" lon="3.0771692377">
        <ele>42.92</ele>
        <time>2017-08-02T11:53:37Z</time>
      </trkpt>
      <trkpt lat="43.3064204548" lon="3.0771020148">
        <ele>42.44</ele>
        <time>2017-08-02T11:53:45Z</time>
      </trkpt>
      <trkpt lat="43.3064158447" lon="3.0770899449">
        <ele>42.44</ele>
        <time>2017-08-02T11:53:48Z</time>
      </trkpt>
      <trkpt lat="43.3064165991" lon="3.0770700797">
        <ele>42.44</ele>
        <time>2017-08-02T11:53:49Z</time>
      </trkpt>
      <trkpt lat="43.3064164314" lon="3.0770489573">
        <ele>42.44</ele>
        <time>2017-08-02T11:53:50Z</time>
      </trkpt>
      <trkpt lat="43.3064081334" lon="3.0770285055">
        <ele>41.95</ele>
        <time>2017-08-02T11:53:51Z</time>
      </trkpt>
      <trkpt lat="43.3063854184" lon="3.0770138372">
        <ele>41.95</ele>
        <time>2017-08-02T11:53:52Z</time>
      </trkpt>
      <trkpt lat="43.3063601889" lon="3.0770115741">
        <ele>42.44</ele>
        <time>2017-08-02T11:53:53Z</time>
      </trkpt>
      <trkpt lat="43.3063406590" lon="3.0770119093">
        <ele>42.44</ele>
        <time>2017-08-02T11:53:54Z</time>
      </trkpt>
      <trkpt lat="43.3063241467" lon="3.0770090595">
        <ele>42.44</ele>
        <time>2017-08-02T11:53:55Z</time>
      </trkpt>
      <trkpt lat="43.3063092269" lon="3.0770026054">
        <ele>42.44</ele>
        <time>2017-08-02T11:53:56Z</time>
      </trkpt>
      <trkpt lat="43.3062938880" lon="3.0769933015">
        <ele>42.44</ele>
        <time>2017-08-02T11:53:57Z</time>
      </trkpt>
      <trkpt lat="43.3062756155" lon="3.0769829080">
        <ele>42.44</ele>
        <time>2017-08-02T11:53:58Z</time>
      </trkpt>
      <trkpt lat="43.3062552474" lon="3.0769748613">
        <ele>42.44</ele>
        <time>2017-08-02T11:53:59Z</time>
      </trkpt>
      <trkpt lat="43.3062363043" lon="3.0769714247">
        <ele>42.44</ele>
        <time>2017-08-02T11:54:00Z</time>
      </trkpt>
      <trkpt lat="43.3060070593" lon="3.0770193692">
        <ele>39.55</ele>
        <time>2017-08-02T11:54:11Z</time>
      </trkpt>
      <trkpt lat="43.3059865236" lon="3.0770280864">
        <ele>44.84</ele>
        <time>2017-08-02T11:54:12Z</time>
      </trkpt>
      <trkpt lat="43.3057147823" lon="3.0772849917">
        <ele>42.44</ele>
        <time>2017-08-02T11:54:24Z</time>
      </trkpt>
      <trkpt lat="43.3056372497" lon="3.0774671305">
        <ele>39.55</ele>
        <time>2017-08-02T11:54:30Z</time>
      </trkpt>
      <trkpt lat="43.3056308795" lon="3.0774975568">
        <ele>45.32</ele>
        <time>2017-08-02T11:54:31Z</time>
      </trkpt>
      <trkpt lat="43.3055207413" lon="3.0778171588">
        <ele>42.44</ele>
        <time>2017-08-02T11:54:42Z</time>
      </trkpt>
      <trkpt lat="43.3055234235" lon="3.0778260436">
        <ele>42.92</ele>
        <time>2017-08-02T11:54:53Z</time>
      </trkpt>
      <trkpt lat="43.3055194002" lon="3.0778280552">
        <ele>40.03</ele>
        <time>2017-08-02T11:55:01Z</time>
      </trkpt>
      <trkpt lat="43.3055187296" lon="3.0778282229">
        <ele>43.88</ele>
        <time>2017-08-02T11:55:02Z</time>
      </trkpt>
      <trkpt lat="43.3055174723" lon="3.0778327491">
        <ele>40.51</ele>
        <time>2017-08-02T11:55:08Z</time>
      </trkpt>
      <trkpt lat="43.3055207413" lon="3.0778353475">
        <ele>43.88</ele>
        <time>2017-08-02T11:55:21Z</time>
      </trkpt>
      <trkpt lat="43.3055205736" lon="3.0778357666">
        <ele>40.99</ele>
        <time>2017-08-02T11:55:23Z</time>
      </trkpt>
      <trkpt lat="43.3055002056" lon="3.0778969545">
        <ele>42.44</ele>
        <time>2017-08-02T11:55:40Z</time>
      </trkpt>
      <trkpt lat="43.3054880518" lon="3.0779383611">
        <ele>41.95</ele>
        <time>2017-08-02T11:55:50Z</time>
      </trkpt>
      <trkpt lat="43.3055116888" lon="3.0779157300">
        <ele>41.95</ele>
        <time>2017-08-02T11:56:14Z</time>
      </trkpt>
      <trkpt lat="43.3055039775" lon="3.0779467430">
        <ele>41.95</ele>
        <time>2017-08-02T11:56:40Z</time>
      </trkpt>
      <trkpt lat="43.3055204060" lon="3.0779478326">
        <ele>41.47</ele>
        <time>2017-08-02T11:57:06Z</time>
      </trkpt>
      <trkpt lat="43.3055168856" lon="3.0779470783">
        <ele>41.47</ele>
        <time>2017-08-02T11:57:19Z</time>
      </trkpt>
      <trkpt lat="43.3055149578" lon="3.0779711343">
        <ele>41.95</ele>
        <time>2017-08-02T11:57:26Z</time>
      </trkpt>
      <trkpt lat="43.3055173047" lon="3.0779868085">
        <ele>41.47</ele>
        <time>2017-08-02T11:57:27Z</time>
      </trkpt>
      <trkpt lat="43.3055214118" lon="3.0780062545">
        <ele>41.95</ele>
        <time>2017-08-02T11:57:28Z</time>
      </trkpt>
      <trkpt lat="43.3055265248" lon="3.0780308973">
        <ele>41.95</ele>
        <time>2017-08-02T11:57:29Z</time>
      </trkpt>
      <trkpt lat="43.3055270277" lon="3.0780590605">
        <ele>41.95</ele>
        <time>2017-08-02T11:57:30Z</time>
      </trkpt>
      <trkpt lat="43.3055240940" lon="3.0780901574">
        <ele>41.95</ele>
        <time>2017-08-02T11:57:31Z</time>
      </trkpt>
      <trkpt lat="43.3055180591" lon="3.0781215057">
        <ele>41.95</ele>
        <time>2017-08-02T11:57:32Z</time>
      </trkpt>
      <trkpt lat="43.3055088390" lon="3.0781517643">
        <ele>41.95</ele>
        <time>2017-08-02T11:57:33Z</time>
      </trkpt>
      <trkpt lat="43.3055052347" lon="3.0781860463">
        <ele>41.95</ele>
        <time>2017-08-02T11:57:34Z</time>
      </trkpt>
      <trkpt lat="43.3055020496" lon="3.0782233458">
        <ele>41.95</ele>
        <time>2017-08-02T11:57:35Z</time>
      </trkpt>
      <trkpt lat="43.3054928295" lon="3.0782605615">
        <ele>41.95</ele>
        <time>2017-08-02T11:57:36Z</time>
      </trkpt>
      <trkpt lat="43.3054800890" lon="3.0782973580">
        <ele>42.44</ele>
        <time>2017-08-02T11:57:37Z</time>
      </trkpt>
      <trkpt lat="43.3053461462" lon="3.0788485520">
        <ele>41.95</ele>
        <time>2017-08-02T11:57:50Z</time>
      </trkpt>
      <trkpt lat="43.3051166497" lon="3.0794557370">
        <ele>41.95</ele>
        <time>2017-08-02T11:58:05Z</time>
      </trkpt>
      <trkpt lat="43.3048386220" lon="3.0799554661">
        <ele>41.95</ele>
        <time>2017-08-02T11:58:18Z</time>
      </trkpt>
      <trkpt lat="43.3046227880" lon="3.0805100128">
        <ele>41.95</ele>
        <time>2017-08-02T11:58:30Z</time>
      </trkpt>
      <trkpt lat="43.3045465127" lon="3.0811367277">
        <ele>41.95</ele>
        <time>2017-08-02T11:58:42Z</time>
      </trkpt>
      <trkpt lat="43.3046498615" lon="3.0816731695">
        <ele>41.95</ele>
        <time>2017-08-02T11:58:53Z</time>
      </trkpt>
      <trkpt lat="43.3046757616" lon="3.0817105528">
        <ele>41.47</ele>
        <time>2017-08-02T11:58:54Z</time>
      </trkpt>
      <trkpt lat="43.3050263766" lon="3.0821259599">
        <ele>41.47</ele>
        <time>2017-08-02T11:59:06Z</time>
      </trkpt>
      <trkpt lat="43.3051764127" lon="3.0823220126">
        <ele>41.47</ele>
        <time>2017-08-02T11:59:11Z</time>
      </trkpt>
      <trkpt lat="43.3052078448" lon="3.0823665205">
        <ele>41.47</ele>
        <time>2017-08-02T11:59:12Z</time>
      </trkpt>
      <trkpt lat="43.3052397799" lon="3.0824119505">
        <ele>41.47</ele>
        <time>2017-08-02T11:59:13Z</time>
      </trkpt>
      <trkpt lat="43.3052671887" lon="3.0824573804">
        <ele>41.47</ele>
        <time>2017-08-02T11:59:14Z</time>
      </trkpt>
      <trkpt lat="43.3052946813" lon="3.0824994575">
        <ele>41.47</ele>
        <time>2017-08-02T11:59:15Z</time>
      </trkpt>
      <trkpt lat="43.3053234313" lon="3.0825396907">
        <ele>41.47</ele>
        <time>2017-08-02T11:59:16Z</time>
      </trkpt>
      <trkpt lat="43.3053498343" lon="3.0825817678">
        <ele>41.47</ele>
        <time>2017-08-02T11:59:17Z</time>
      </trkpt>
      <trkpt lat="43.3055462223" lon="3.0830248352">
        <ele>41.95</ele>
        <time>2017-08-02T11:59:26Z</time>
      </trkpt>
      <trkpt lat="43.3055888023" lon="3.0832467880">
        <ele>41.47</ele>
        <time>2017-08-02T11:59:30Z</time>
      </trkpt>
      <trkpt lat="43.3056102600" lon="3.0838009994">
        <ele>41.47</ele>
        <time>2017-08-02T11:59:41Z</time>
      </trkpt>
      <trkpt lat="43.3055749722" lon="3.0843904149">
        <ele>41.47</ele>
        <time>2017-08-02T11:59:54Z</time>
      </trkpt>
      <trkpt lat="43.3054840285" lon="3.0849944148">
        <ele>40.99</ele>
        <time>2017-08-02T12:00:08Z</time>
      </trkpt>
      <trkpt lat="43.3054560330" lon="3.0851608794">
        <ele>35.23</ele>
        <time>2017-08-02T12:00:12Z</time>
      </trkpt>
      <trkpt lat="43.3054489084" lon="3.0852035433">
        <ele>44.84</ele>
        <time>2017-08-02T12:00:13Z</time>
      </trkpt>
      <trkpt lat="43.3054424543" lon="3.0852474645">
        <ele>41.95</ele>
        <time>2017-08-02T12:00:14Z</time>
      </trkpt>
      <trkpt lat="43.3053499181" lon="3.0858388077">
        <ele>40.99</ele>
        <time>2017-08-02T12:00:26Z</time>
      </trkpt>
      <trkpt lat="43.3052510116" lon="3.0864818674">
        <ele>40.99</ele>
        <time>2017-08-02T12:00:38Z</time>
      </trkpt>
      <trkpt lat="43.3051612414" lon="3.0869591329">
        <ele>41.47</ele>
        <time>2017-08-02T12:00:47Z</time>
      </trkpt>
      <trkpt lat="43.3051453996" lon="3.0870126095">
        <ele>40.99</ele>
        <time>2017-08-02T12:00:48Z</time>
      </trkpt>
      <trkpt lat="43.3050245326" lon="3.0873181298">
        <ele>40.99</ele>
        <time>2017-08-02T12:00:54Z</time>
      </trkpt>
      <trkpt lat="43.3050004765" lon="3.0873649847">
        <ele>40.99</ele>
        <time>2017-08-02T12:00:55Z</time>
      </trkpt>
      <trkpt lat="43.3049768396" lon="3.0874122586">
        <ele>40.99</ele>
        <time>2017-08-02T12:00:56Z</time>
      </trkpt>
      <trkpt lat="43.3049016539" lon="3.0875524879">
        <ele>40.99</ele>
        <time>2017-08-02T12:00:59Z</time>
      </trkpt>
      <trkpt lat="43.3046636917" lon="3.0880311783">
        <ele>41.95</ele>
        <time>2017-08-02T12:01:09Z</time>
      </trkpt>
      <trkpt lat="43.3046016656" lon="3.0881869979">
        <ele>40.99</ele>
        <time>2017-08-02T12:01:12Z</time>
      </trkpt>
      <trkpt lat="43.3045075368" lon="3.0885153171">
        <ele>40.99</ele>
        <time>2017-08-02T12:01:18Z</time>
      </trkpt>
      <trkpt lat="43.3045008313" lon="3.0885736551">
        <ele>40.99</ele>
        <time>2017-08-02T12:01:19Z</time>
      </trkpt>
      <trkpt lat="43.3044957183" lon="3.0886314064">
        <ele>40.99</ele>
        <time>2017-08-02T12:01:20Z</time>
      </trkpt>
      <trkpt lat="43.3044838998" lon="3.0887451489">
        <ele>40.99</ele>
        <time>2017-08-02T12:01:22Z</time>
      </trkpt>
      <trkpt lat="43.3044753503" lon="3.0888013076">
        <ele>40.51</ele>
        <time>2017-08-02T12:01:23Z</time>
      </trkpt>
      <trkpt lat="43.3044705726" lon="3.0888597295">
        <ele>40.99</ele>
        <time>2017-08-02T12:01:24Z</time>
      </trkpt>
      <trkpt lat="43.3044095524" lon="3.0898057111">
        <ele>40.51</ele>
        <time>2017-08-02T12:01:40Z</time>
      </trkpt>
      <trkpt lat="43.3043839876" lon="3.0901047774">
        <ele>40.99</ele>
        <time>2017-08-02T12:01:45Z</time>
      </trkpt>
      <trkpt lat="43.3042760286" lon="3.0908221006">
        <ele>40.51</ele>
        <time>2017-08-02T12:01:57Z</time>
      </trkpt>
      <trkpt lat="43.3042426687" lon="3.0914397631">
        <ele>40.51</ele>
        <time>2017-08-02T12:02:07Z</time>
      </trkpt>
      <trkpt lat="43.3042597678" lon="3.0916257575">
        <ele>40.51</ele>
        <time>2017-08-02T12:02:10Z</time>
      </trkpt>
      <trkpt lat="43.3042834885" lon="3.0917434394">
        <ele>40.51</ele>
        <time>2017-08-02T12:02:12Z</time>
      </trkpt>
      <trkpt lat="43.3045596723" lon="3.0922896042">
        <ele>40.51</ele>
        <time>2017-08-02T12:02:23Z</time>
      </trkpt>
      <trkpt lat="43.3048576489" lon="3.0925993994">
        <ele>40.51</ele>
        <time>2017-08-02T12:02:33Z</time>
      </trkpt>
      <trkpt lat="43.3049553819" lon="3.0926882476">
        <ele>40.51</ele>
        <time>2017-08-02T12:02:36Z</time>
      </trkpt>
      <trkpt lat="43.3052174840" lon="3.0929997191">
        <ele>40.51</ele>
        <time>2017-08-02T12:02:45Z</time>
      </trkpt>
      <trkpt lat="43.3052415401" lon="3.0930442270">
        <ele>40.51</ele>
        <time>2017-08-02T12:02:46Z</time>
      </trkpt>
      <trkpt lat="43.3052614890" lon="3.0930895731">
        <ele>40.51</ele>
        <time>2017-08-02T12:02:47Z</time>
      </trkpt>
      <trkpt lat="43.3052755706" lon="3.0931405351">
        <ele>40.51</ele>
        <time>2017-08-02T12:02:48Z</time>
      </trkpt>
      <trkpt lat="43.3052849583" lon="3.0931953527">
        <ele>40.51</ele>
        <time>2017-08-02T12:02:49Z</time>
      </trkpt>
      <trkpt lat="43.3052908257" lon="3.0932495836">
        <ele>40.51</ele>
        <time>2017-08-02T12:02:50Z</time>
      </trkpt>
      <trkpt lat="43.3052928373" lon="3.0933047365">
        <ele>40.51</ele>
        <time>2017-08-02T12:02:51Z</time>
      </trkpt>
      <trkpt lat="43.3053028956" lon="3.0941663124">
        <ele>40.03</ele>
        <time>2017-08-02T12:03:05Z</time>
      </trkpt>
      <trkpt lat="43.3053620718" lon="3.0950026587">
        <ele>40.03</ele>
        <time>2017-08-02T12:03:18Z</time>
      </trkpt>
      <trkpt lat="43.3053483255" lon="3.0956847779">
        <ele>40.03</ele>
        <time>2017-08-02T12:03:30Z</time>
      </trkpt>
      <trkpt lat="43.3052529395" lon="3.0964417476">
        <ele>38.59</ele>
        <time>2017-08-02T12:03:44Z</time>
      </trkpt>
      <trkpt lat="43.3052339964" lon="3.0965465214">
        <ele>43.88</ele>
        <time>2017-08-02T12:03:46Z</time>
      </trkpt>
      <trkpt lat="43.3052241057" lon="3.0965991598">
        <ele>40.51</ele>
        <time>2017-08-02T12:03:47Z</time>
      </trkpt>
      <trkpt lat="43.3051774185" lon="3.0968183465">
        <ele>40.03</ele>
        <time>2017-08-02T12:03:51Z</time>
      </trkpt>
      <trkpt lat="43.3051672764" lon="3.0968741700">
        <ele>40.03</ele>
        <time>2017-08-02T12:03:52Z</time>
      </trkpt>
      <trkpt lat="43.3051583078" lon="3.0969272275">
        <ele>40.03</ele>
        <time>2017-08-02T12:03:53Z</time>
      </trkpt>
      <trkpt lat="43.3051355928" lon="3.0971522816">
        <ele>40.03</ele>
        <time>2017-08-02T12:03:57Z</time>
      </trkpt>
      <trkpt lat="43.3051079325" lon="3.0974959396">
        <ele>40.03</ele>
        <time>2017-08-02T12:04:03Z</time>
      </trkpt>
      <trkpt lat="43.3051053341" lon="3.0975562055">
        <ele>40.03</ele>
        <time>2017-08-02T12:04:04Z</time>
      </trkpt>
      <trkpt lat="43.3050355129" lon="3.0983676575">
        <ele>40.51</ele>
        <time>2017-08-02T12:04:18Z</time>
      </trkpt>
      <trkpt lat="43.3050297294" lon="3.0984275881">
        <ele>40.51</ele>
        <time>2017-08-02T12:04:19Z</time>
      </trkpt>
      <trkpt lat="43.3050243650" lon="3.0984855071">
        <ele>40.03</ele>
        <time>2017-08-02T12:04:20Z</time>
      </trkpt>
      <trkpt lat="43.3049951959" lon="3.0988983996">
        <ele>40.03</ele>
        <time>2017-08-02T12:04:27Z</time>
      </trkpt>
      <trkpt lat="43.3049993869" lon="3.0989572406">
        <ele>40.03</ele>
        <time>2017-08-02T12:04:28Z</time>
      </trkpt>
      <trkpt lat="43.3050630055" lon="3.0997659266">
        <ele>40.03</ele>
        <time>2017-08-02T12:04:42Z</time>
      </trkpt>
      <trkpt lat="43.3050568867" lon="3.1002959143">
        <ele>40.03</ele>
        <time>2017-08-02T12:04:52Z</time>
      </trkpt>
      <trkpt lat="43.3050416317" lon="3.1004472077">
        <ele>41.47</ele>
        <time>2017-08-02T12:04:57Z</time>
      </trkpt>
      <trkpt lat="43.3050492592" lon="3.1004724372">
        <ele>40.99</ele>
        <time>2017-08-02T12:04:58Z</time>
      </trkpt>
      <trkpt lat="43.3050649334" lon="3.1004936434">
        <ele>40.99</ele>
        <time>2017-08-02T12:04:59Z</time>
      </trkpt>
      <trkpt lat="43.3050832059" lon="3.1005195435">
        <ele>40.99</ele>
        <time>2017-08-02T12:05:00Z</time>
      </trkpt>
      <trkpt lat="43.3050990477" lon="3.1005596090">
        <ele>40.99</ele>
        <time>2017-08-02T12:05:01Z</time>
      </trkpt>
      <trkpt lat="43.3051109500" lon="3.1006078050">
        <ele>40.51</ele>
        <time>2017-08-02T12:05:02Z</time>
      </trkpt>
      <trkpt lat="43.3051216789" lon="3.1006598566">
        <ele>40.51</ele>
        <time>2017-08-02T12:05:03Z</time>
      </trkpt>
      <trkpt lat="43.3051319048" lon="3.1007145066">
        <ele>40.03</ele>
        <time>2017-08-02T12:05:04Z</time>
      </trkpt>
      <trkpt lat="43.3051379398" lon="3.1007743534">
        <ele>40.03</ele>
        <time>2017-08-02T12:05:05Z</time>
      </trkpt>
      <trkpt lat="43.3051687013" lon="3.1017149705">
        <ele>40.03</ele>
        <time>2017-08-02T12:05:20Z</time>
      </trkpt>
      <trkpt lat="43.3051883988" lon="3.1020901445">
        <ele>40.03</ele>
        <time>2017-08-02T12:05:26Z</time>
      </trkpt>
      <trkpt lat="43.3052097727" lon="3.1028558314">
        <ele>40.03</ele>
        <time>2017-08-02T12:05:40Z</time>
      </trkpt>
      <trkpt lat="43.3052371815" lon="3.1034065224">
        <ele>40.03</ele>
        <time>2017-08-02T12:05:50Z</time>
      </trkpt>
      <trkpt lat="43.3052399475" lon="3.1034631003">
        <ele>40.03</ele>
        <time>2017-08-02T12:05:51Z</time>
      </trkpt>
      <trkpt lat="43.3053598087" lon="3.1042271107">
        <ele>40.03</ele>
        <time>2017-08-02T12:06:04Z</time>
      </trkpt>
      <trkpt lat="43.3055266086" lon="3.1050869264">
        <ele>40.03</ele>
        <time>2017-08-02T12:06:18Z</time>
      </trkpt>
      <trkpt lat="43.3055328112" lon="3.1060090195">
        <ele>40.03</ele>
        <time>2017-08-02T12:06:32Z</time>
      </trkpt>
      <trkpt lat="43.3054784965" lon="3.1065242551">
        <ele>40.03</ele>
        <time>2017-08-02T12:06:40Z</time>
      </trkpt>
      <trkpt lat="43.3054696117" lon="3.1065875385">
        <ele>40.03</ele>
        <time>2017-08-02T12:06:41Z</time>
      </trkpt>
      <trkpt lat="43.3054626547" lon="3.1066505704">
        <ele>40.03</ele>
        <time>2017-08-02T12:06:42Z</time>
      </trkpt>
      <trkpt lat="43.3054510038" lon="3.1067762990">
        <ele>40.03</ele>
        <time>2017-08-02T12:06:44Z</time>
      </trkpt>
      <trkpt lat="43.3054452203" lon="3.1068393309">
        <ele>40.03</ele>
        <time>2017-08-02T12:06:45Z</time>
      </trkpt>
      <trkpt lat="43.3054406103" lon="3.1072787102">
        <ele>40.03</ele>
        <time>2017-08-02T12:06:52Z</time>
      </trkpt>
      <trkpt lat="43.3054434601" lon="3.1073402334">
        <ele>40.03</ele>
        <time>2017-08-02T12:06:53Z</time>
      </trkpt>
      <trkpt lat="43.3054540213" lon="3.1079536211">
        <ele>40.03</ele>
        <time>2017-08-02T12:07:03Z</time>
      </trkpt>
      <trkpt lat="43.3054564521" lon="3.1080153119">
        <ele>40.03</ele>
        <time>2017-08-02T12:07:04Z</time>
      </trkpt>
      <trkpt lat="43.3054585475" lon="3.1081391126">
        <ele>40.03</ele>
        <time>2017-08-02T12:07:06Z</time>
      </trkpt>
      <trkpt lat="43.3054611459" lon="3.1082039047">
        <ele>40.03</ele>
        <time>2017-08-02T12:07:07Z</time>
      </trkpt>
      <trkpt lat="43.3054669295" lon="3.1092836615">
        <ele>40.03</ele>
        <time>2017-08-02T12:07:24Z</time>
      </trkpt>
      <trkpt lat="43.3054614812" lon="3.1096028443">
        <ele>40.03</ele>
        <time>2017-08-02T12:07:29Z</time>
      </trkpt>
      <trkpt lat="43.3053390216" lon="3.1103070918">
        <ele>40.03</ele>
        <time>2017-08-02T12:07:41Z</time>
      </trkpt>
      <trkpt lat="43.3052055817" lon="3.1110346410">
        <ele>40.03</ele>
        <time>2017-08-02T12:07:53Z</time>
      </trkpt>
      <trkpt lat="43.3051836211" lon="3.1112215575">
        <ele>40.03</ele>
        <time>2017-08-02T12:07:56Z</time>
      </trkpt>
      <trkpt lat="43.3051428013" lon="3.1120625138">
        <ele>40.03</ele>
        <time>2017-08-02T12:08:09Z</time>
      </trkpt>
      <trkpt lat="43.3050988801" lon="3.1123087741">
        <ele>40.03</ele>
        <time>2017-08-02T12:08:13Z</time>
      </trkpt>
      <trkpt lat="43.3048476744" lon="3.1129547674">
        <ele>39.55</ele>
        <time>2017-08-02T12:08:26Z</time>
      </trkpt>
      <trkpt lat="43.3045764361" lon="3.1135585997">
        <ele>40.03</ele>
        <time>2017-08-02T12:08:39Z</time>
      </trkpt>
      <trkpt lat="43.3043972310" lon="3.1137961429">
        <ele>40.03</ele>
        <time>2017-08-02T12:08:45Z</time>
      </trkpt>
      <trkpt lat="43.3043642063" lon="3.1138317659">
        <ele>40.03</ele>
        <time>2017-08-02T12:08:46Z</time>
      </trkpt>
      <trkpt lat="43.3041753620" lon="3.1139946263">
        <ele>40.03</ele>
        <time>2017-08-02T12:08:51Z</time>
      </trkpt>
      <trkpt lat="43.3041409124" lon="3.1140329316">
        <ele>40.51</ele>
        <time>2017-08-02T12:08:52Z</time>
      </trkpt>
      <trkpt lat="43.3041054569" lon="3.1140713207">
        <ele>40.03</ele>
        <time>2017-08-02T12:08:53Z</time>
      </trkpt>
      <trkpt lat="43.3040654752" lon="3.1141032558">
        <ele>40.03</ele>
        <time>2017-08-02T12:08:54Z</time>
      </trkpt>
      <trkpt lat="43.3040274214" lon="3.1141339336">
        <ele>40.03</ele>
        <time>2017-08-02T12:08:55Z</time>
      </trkpt>
      <trkpt lat="43.3039919659" lon="3.1141712330">
        <ele>40.03</ele>
        <time>2017-08-02T12:08:56Z</time>
      </trkpt>
      <trkpt lat="43.3039564267" lon="3.1142072752">
        <ele>40.51</ele>
        <time>2017-08-02T12:08:57Z</time>
      </trkpt>
      <trkpt lat="43.3039186243" lon="3.1142409705">
        <ele>40.03</ele>
        <time>2017-08-02T12:08:58Z</time>
      </trkpt>
      <trkpt lat="43.3037003595" lon="3.1145654339">
        <ele>40.03</ele>
        <time>2017-08-02T12:09:05Z</time>
      </trkpt>
      <trkpt lat="43.3036835119" lon="3.1146257836">
        <ele>40.03</ele>
        <time>2017-08-02T12:09:06Z</time>
      </trkpt>
      <trkpt lat="43.3036333043" lon="3.1148571242">
        <ele>40.03</ele>
        <time>2017-08-02T12:09:10Z</time>
      </trkpt>
      <trkpt lat="43.3036297001" lon="3.1149123609">
        <ele>40.03</ele>
        <time>2017-08-02T12:09:11Z</time>
      </trkpt>
      <trkpt lat="43.3036260959" lon="3.1149667595">
        <ele>40.03</ele>
        <time>2017-08-02T12:09:12Z</time>
      </trkpt>
      <trkpt lat="43.3036231622" lon="3.1150220800">
        <ele>40.03</ele>
        <time>2017-08-02T12:09:13Z</time>
      </trkpt>
      <trkpt lat="43.3036192227" lon="3.1150771491">
        <ele>40.03</ele>
        <time>2017-08-02T12:09:14Z</time>
      </trkpt>
      <trkpt lat="43.3036234137" lon="3.1158035249">
        <ele>40.03</ele>
        <time>2017-08-02T12:09:26Z</time>
      </trkpt>
      <trkpt lat="43.3036359027" lon="3.1159892678">
        <ele>40.03</ele>
        <time>2017-08-02T12:09:29Z</time>
      </trkpt>
      <trkpt lat="43.3036390040" lon="3.1160480250">
        <ele>40.03</ele>
        <time>2017-08-02T12:09:30Z</time>
      </trkpt>
      <trkpt lat="43.3036556002" lon="3.1161619350">
        <ele>40.03</ele>
        <time>2017-08-02T12:09:32Z</time>
      </trkpt>
      <trkpt lat="43.3036741242" lon="3.1163464207">
        <ele>40.03</ele>
        <time>2017-08-02T12:09:35Z</time>
      </trkpt>
      <trkpt lat="43.3036837634" lon="3.1164070219">
        <ele>40.03</ele>
        <time>2017-08-02T12:09:36Z</time>
      </trkpt>
      <trkpt lat="43.3038006909" lon="3.1171054859">
        <ele>40.03</ele>
        <time>2017-08-02T12:09:47Z</time>
      </trkpt>
      <trkpt lat="43.3038078155" lon="3.1171674281">
        <ele>40.03</ele>
        <time>2017-08-02T12:09:48Z</time>
      </trkpt>
      <trkpt lat="43.3038626332" lon="3.1175384112">
        <ele>40.03</ele>
        <time>2017-08-02T12:09:54Z</time>
      </trkpt>
      <trkpt lat="43.3038697578" lon="3.1175977550">
        <ele>40.03</ele>
        <time>2017-08-02T12:09:55Z</time>
      </trkpt>
      <trkpt lat="43.3039560914" lon="3.1183078699">
        <ele>40.03</ele>
        <time>2017-08-02T12:10:07Z</time>
      </trkpt>
      <trkpt lat="43.3040354680" lon="3.1191702001">
        <ele>40.03</ele>
        <time>2017-08-02T12:10:21Z</time>
      </trkpt>
      <trkpt lat="43.3040402457" lon="3.1193681806">
        <ele>40.03</ele>
        <time>2017-08-02T12:10:24Z</time>
      </trkpt>
      <trkpt lat="43.3040729351" lon="3.1199933868">
        <ele>39.55</ele>
        <time>2017-08-02T12:10:34Z</time>
      </trkpt>
      <trkpt lat="43.3041000925" lon="3.1210024841">
        <ele>40.03</ele>
        <time>2017-08-02T12:10:49Z</time>
      </trkpt>
      <trkpt lat="43.3042161819" lon="3.1218470447">
        <ele>40.03</ele>
        <time>2017-08-02T12:11:02Z</time>
      </trkpt>
      <trkpt lat="43.3044294175" lon="3.1224417407">
        <ele>40.03</ele>
        <time>2017-08-02T12:11:13Z</time>
      </trkpt>
      <trkpt lat="43.3047638554" lon="3.1229882408">
        <ele>40.51</ele>
        <time>2017-08-02T12:11:26Z</time>
      </trkpt>
      <trkpt lat="43.3050112892" lon="3.1233355869">
        <ele>40.51</ele>
        <time>2017-08-02T12:11:36Z</time>
      </trkpt>
      <trkpt lat="43.3052478265" lon="3.1236910634">
        <ele>41.47</ele>
        <time>2017-08-02T12:11:48Z</time>
      </trkpt>
      <trkpt lat="43.3054142911" lon="3.1239650678">
        <ele>42.92</ele>
        <time>2017-08-02T12:11:59Z</time>
      </trkpt>
      <trkpt lat="43.3055494912" lon="3.1241443567">
        <ele>44.36</ele>
        <time>2017-08-02T12:12:08Z</time>
      </trkpt>
      <trkpt lat="43.3056928217" lon="3.1243570056">
        <ele>45.32</ele>
        <time>2017-08-02T12:12:17Z</time>
      </trkpt>
      <trkpt lat="43.3058814984" lon="3.1246206164">
        <ele>46.76</ele>
        <time>2017-08-02T12:12:29Z</time>
      </trkpt>
      <trkpt lat="43.3061083965" lon="3.1249580719">
        <ele>47.72</ele>
        <time>2017-08-02T12:12:43Z</time>
      </trkpt>
      <trkpt lat="43.3063327800" lon="3.1252455711">
        <ele>49.65</ele>
        <time>2017-08-02T12:12:56Z</time>
      </trkpt>
      <trkpt lat="43.3064149227" lon="3.1253293063">
        <ele>50.61</ele>
        <time>2017-08-02T12:13:01Z</time>
      </trkpt>
      <trkpt lat="43.3064344525" lon="3.1253402028">
        <ele>50.61</ele>
        <time>2017-08-02T12:13:02Z</time>
      </trkpt>
      <trkpt lat="43.3064513840" lon="3.1253596488">
        <ele>50.61</ele>
        <time>2017-08-02T12:13:03Z</time>
      </trkpt>
      <trkpt lat="43.3065118175" lon="3.1254584715">
        <ele>51.09</ele>
        <time>2017-08-02T12:13:08Z</time>
      </trkpt>
      <trkpt lat="43.3065058663" lon="3.1254835334">
        <ele>51.57</ele>
        <time>2017-08-02T12:13:09Z</time>
      </trkpt>
      <trkpt lat="43.3064974844" lon="3.1255212519">
        <ele>52.05</ele>
        <time>2017-08-02T12:13:11Z</time>
      </trkpt>
      <trkpt lat="43.3065055311" lon="3.1255393568">
        <ele>52.05</ele>
        <time>2017-08-02T12:13:12Z</time>
      </trkpt>
      <trkpt lat="43.3065204509" lon="3.1255519297">
        <ele>52.05</ele>
        <time>2017-08-02T12:13:13Z</time>
      </trkpt>
      <trkpt lat="43.3065394778" lon="3.1255575456">
        <ele>52.05</ele>
        <time>2017-08-02T12:13:14Z</time>
      </trkpt>
      <trkpt lat="43.3065587562" lon="3.1255644187">
        <ele>52.05</ele>
        <time>2017-08-02T12:13:15Z</time>
      </trkpt>
      <trkpt lat="43.3065760229" lon="3.1255777460">
        <ele>52.53</ele>
        <time>2017-08-02T12:13:16Z</time>
      </trkpt>
      <trkpt lat="43.3065901883" lon="3.1255962700">
        <ele>52.53</ele>
        <time>2017-08-02T12:13:17Z</time>
      </trkpt>
      <trkpt lat="43.3066046052" lon="3.1256171409">
        <ele>52.53</ele>
        <time>2017-08-02T12:13:18Z</time>
      </trkpt>
      <trkpt lat="43.3066196088" lon="3.1256374251">
        <ele>52.53</ele>
        <time>2017-08-02T12:13:19Z</time>
      </trkpt>
      <trkpt lat="43.3066328522" lon="3.1256605592">
        <ele>52.53</ele>
        <time>2017-08-02T12:13:20Z</time>
      </trkpt>
      <trkpt lat="43.3066460118" lon="3.1256814301">
        <ele>53.01</ele>
        <time>2017-08-02T12:13:21Z</time>
      </trkpt>
      <trkpt lat="43.3066598419" lon="3.1257012114">
        <ele>53.01</ele>
        <time>2017-08-02T12:13:22Z</time>
      </trkpt>
      <trkpt lat="43.3068449143" lon="3.1260328833">
        <ele>54.45</ele>
        <time>2017-08-02T12:13:37Z</time>
      </trkpt>
      <trkpt lat="43.3069972135" lon="3.1262863521">
        <ele>55.89</ele>
        <time>2017-08-02T12:13:48Z</time>
      </trkpt>
      <trkpt lat="43.3071346767" lon="3.1265272480">
        <ele>56.37</ele>
        <time>2017-08-02T12:13:59Z</time>
      </trkpt>
      <trkpt lat="43.3071633428" lon="3.1265435088">
        <ele>56.37</ele>
        <time>2017-08-02T12:14:01Z</time>
      </trkpt>
      <trkpt lat="43.3071808610" lon="3.1265385635">
        <ele>56.37</ele>
        <time>2017-08-02T12:14:02Z</time>
      </trkpt>
      <trkpt lat="43.3071989659" lon="3.1265273318">
        <ele>56.37</ele>
        <time>2017-08-02T12:14:03Z</time>
      </trkpt>
      <trkpt lat="43.3072345890" lon="3.1265081372">
        <ele>56.37</ele>
        <time>2017-08-02T12:14:05Z</time>
      </trkpt>
      <trkpt lat="43.3072500955" lon="3.1265017670">
        <ele>56.37</ele>
        <time>2017-08-02T12:14:06Z</time>
      </trkpt>
      <trkpt lat="43.3072647639" lon="3.1264901161">
        <ele>56.86</ele>
        <time>2017-08-02T12:14:14Z</time>
      </trkpt>
      <trkpt lat="43.3072671946" lon="3.1264880206">
        <ele>54.93</ele>
        <time>2017-08-02T12:14:22Z</time>
      </trkpt>
      <trkpt lat="43.3072672784" lon="3.1264882721">
        <ele>59.26</ele>
        <time>2017-08-02T12:14:23Z</time>
      </trkpt>
      <trkpt lat="43.3072670270" lon="3.1264878530">
        <ele>56.37</ele>
        <time>2017-08-02T12:14:24Z</time>
      </trkpt>
      <trkpt lat="43.3072617464" lon="3.1264903676">
        <ele>56.37</ele>
        <time>2017-08-02T12:14:40Z</time>
      </trkpt>
      <trkpt lat="43.3073111158" lon="3.1264311075">
        <ele>56.37</ele>
        <time>2017-08-02T12:14:44Z</time>
      </trkpt>
      <trkpt lat="43.3073324058" lon="3.1264407467">
        <ele>55.89</ele>
        <time>2017-08-02T12:14:45Z</time>
      </trkpt>
      <trkpt lat="43.3073540311" lon="3.1264599413">
        <ele>55.89</ele>
        <time>2017-08-02T12:14:46Z</time>
      </trkpt>
      <trkpt lat="43.3075475693" lon="3.1266602688">
        <ele>53.49</ele>
        <time>2017-08-02T12:14:54Z</time>
      </trkpt>
      <trkpt lat="43.3076427039" lon="3.1267464347">
        <ele>47.72</ele>
        <time>2017-08-02T12:14:57Z</time>
      </trkpt>
      <trkpt lat="43.3076798357" lon="3.1267763581">
        <ele>55.89</ele>
        <time>2017-08-02T12:14:58Z</time>
      </trkpt>
      <trkpt lat="43.3077187277" lon="3.1268048566">
        <ele>52.05</ele>
        <time>2017-08-02T12:14:59Z</time>
      </trkpt>
      <trkpt lat="43.3077610563" lon="3.1268347800">
        <ele>52.05</ele>
        <time>2017-08-02T12:15:00Z</time>
      </trkpt>
      <trkpt lat="43.3080301993" lon="3.1270370353">
        <ele>49.16</ele>
        <time>2017-08-02T12:15:06Z</time>
      </trkpt>
      <trkpt lat="43.3082008548" lon="3.1272060983">
        <ele>46.28</ele>
        <time>2017-08-02T12:15:13Z</time>
      </trkpt>
      <trkpt lat="43.3082007710" lon="3.1272359379">
        <ele>46.28</ele>
        <time>2017-08-02T12:15:14Z</time>
      </trkpt>
      <trkpt lat="43.3081856836" lon="3.1272640172">
        <ele>45.80</ele>
        <time>2017-08-02T12:15:15Z</time>
      </trkpt>
      <trkpt lat="43.3081167005" lon="3.1273278873">
        <ele>45.32</ele>
        <time>2017-08-02T12:15:18Z</time>
      </trkpt>
      <trkpt lat="43.3080915548" lon="3.1273263786">
        <ele>44.84</ele>
        <time>2017-08-02T12:15:19Z</time>
      </trkpt>
      <trkpt lat="43.3080641460" lon="3.1273184158">
        <ele>44.36</ele>
        <time>2017-08-02T12:15:20Z</time>
      </trkpt>
      <trkpt lat="43.3080346417" lon="3.1273210980">
        <ele>44.36</ele>
        <time>2017-08-02T12:15:21Z</time>
      </trkpt>
      <trkpt lat="43.3080083225" lon="3.1273297314">
        <ele>43.88</ele>
        <time>2017-08-02T12:15:22Z</time>
      </trkpt>
      <trkpt lat="43.3079859428" lon="3.1273325812">
        <ele>44.36</ele>
        <time>2017-08-02T12:15:23Z</time>
      </trkpt>
      <trkpt lat="43.3079649042" lon="3.1273357663">
        <ele>44.36</ele>
        <time>2017-08-02T12:15:24Z</time>
      </trkpt>
      <trkpt lat="43.3079131041" lon="3.1273721438">
        <ele>44.84</ele>
        <time>2017-08-02T12:15:27Z</time>
      </trkpt>
      <trkpt lat="43.3079075720" lon="3.1273955293">
        <ele>45.32</ele>
        <time>2017-08-02T12:15:28Z</time>
      </trkpt>
      <trkpt lat="43.3079063985" lon="3.1274198368">
        <ele>45.32</ele>
        <time>2017-08-02T12:15:29Z</time>
      </trkpt>
      <trkpt lat="43.3079104219" lon="3.1274462398">
        <ele>45.32</ele>
        <time>2017-08-02T12:15:30Z</time>
      </trkpt>
      <trkpt lat="43.3079162054" lon="3.1274705473">
        <ele>45.32</ele>
        <time>2017-08-02T12:15:31Z</time>
      </trkpt>
      <trkpt lat="43.3079267666" lon="3.1274964474">
        <ele>45.32</ele>
        <time>2017-08-02T12:15:32Z</time>
      </trkpt>
      <trkpt lat="43.3079416864" lon="3.1275227666">
        <ele>45.32</ele>
        <time>2017-08-02T12:15:33Z</time>
      </trkpt>
      <trkpt lat="43.3079571091" lon="3.1275476608">
        <ele>45.32</ele>
        <time>2017-08-02T12:15:34Z</time>
      </trkpt>
      <trkpt lat="43.3079719450" lon="3.1275691185">
        <ele>45.80</ele>
        <time>2017-08-02T12:15:35Z</time>
      </trkpt>
      <trkpt lat="43.3079888765" lon="3.1275864691">
        <ele>45.32</ele>
        <time>2017-08-02T12:15:36Z</time>
      </trkpt>
      <trkpt lat="43.3080117591" lon="3.1276000477">
        <ele>45.32</ele>
        <time>2017-08-02T12:15:37Z</time>
      </trkpt>
      <trkpt lat="43.3080352284" lon="3.1276160572">
        <ele>45.32</ele>
        <time>2017-08-02T12:15:38Z</time>
      </trkpt>
      <trkpt lat="43.3080599550" lon="3.1276284624">
        <ele>45.80</ele>
        <time>2017-08-02T12:15:39Z</time>
      </trkpt>
      <trkpt lat="43.3080903813" lon="3.1276418734">
        <ele>45.80</ele>
        <time>2017-08-02T12:15:40Z</time>
      </trkpt>
      <trkpt lat="43.3081445284" lon="3.1276739761">
        <ele>45.80</ele>
        <time>2017-08-02T12:15:42Z</time>
      </trkpt>
      <trkpt lat="43.3081553411" lon="3.1277029775">
        <ele>45.32</ele>
        <time>2017-08-02T12:15:43Z</time>
      </trkpt>
      <trkpt lat="43.3082030341" lon="3.1280224118">
        <ele>43.88</ele>
        <time>2017-08-02T12:15:51Z</time>
      </trkpt>
      <trkpt lat="43.3082806505" lon="3.1282556802">
        <ele>42.92</ele>
        <time>2017-08-02T12:15:56Z</time>
      </trkpt>
      <trkpt lat="43.3082923852" lon="3.1283141021">
        <ele>42.92</ele>
        <time>2017-08-02T12:15:57Z</time>
      </trkpt>
      <trkpt lat="43.3083061315" lon="3.1283672433">
        <ele>42.92</ele>
        <time>2017-08-02T12:15:58Z</time>
      </trkpt>
      <trkpt lat="43.3083239011" lon="3.1284141820">
        <ele>42.44</ele>
        <time>2017-08-02T12:15:59Z</time>
      </trkpt>
      <trkpt lat="43.3083448559" lon="3.1284526549">
        <ele>42.44</ele>
        <time>2017-08-02T12:16:00Z</time>
      </trkpt>
      <trkpt lat="43.3083645534" lon="3.1284793932">
        <ele>42.44</ele>
        <time>2017-08-02T12:16:01Z</time>
      </trkpt>
      <trkpt lat="43.3083864301" lon="3.1284951512">
        <ele>42.44</ele>
        <time>2017-08-02T12:16:02Z</time>
      </trkpt>
      <trkpt lat="43.3084104024" lon="3.1285207998">
        <ele>41.95</ele>
        <time>2017-08-02T12:16:03Z</time>
      </trkpt>
      <trkpt lat="43.3084291779" lon="3.1285600271">
        <ele>41.47</ele>
        <time>2017-08-02T12:16:04Z</time>
      </trkpt>
      <trkpt lat="43.3084389847" lon="3.1286034454">
        <ele>41.95</ele>
        <time>2017-08-02T12:16:05Z</time>
      </trkpt>
      <trkpt lat="43.3084452711" lon="3.1286508031">
        <ele>41.95</ele>
        <time>2017-08-02T12:16:06Z</time>
      </trkpt>
      <trkpt lat="43.3084492944" lon="3.1287001725">
        <ele>41.95</ele>
        <time>2017-08-02T12:16:07Z</time>
      </trkpt>
      <trkpt lat="43.3085138351" lon="3.1290855724">
        <ele>40.99</ele>
        <time>2017-08-02T12:16:15Z</time>
      </trkpt>
      <trkpt lat="43.3086176030" lon="3.1297206692">
        <ele>40.51</ele>
        <time>2017-08-02T12:16:27Z</time>
      </trkpt>
      <trkpt lat="43.3088485245" lon="3.1302425265">
        <ele>40.51</ele>
        <time>2017-08-02T12:16:39Z</time>
      </trkpt>
      <trkpt lat="43.3091618400" lon="3.1306342967">
        <ele>40.03</ele>
        <time>2017-08-02T12:16:51Z</time>
      </trkpt>
      <trkpt lat="43.3094621636" lon="3.1309216283">
        <ele>40.03</ele>
        <time>2017-08-02T12:17:01Z</time>
      </trkpt>
      <trkpt lat="43.3097759821" lon="3.1312013324">
        <ele>40.99</ele>
        <time>2017-08-02T12:17:11Z</time>
      </trkpt>
      <trkpt lat="43.3100141119" lon="3.1314149033">
        <ele>40.03</ele>
        <time>2017-08-02T12:17:19Z</time>
      </trkpt>
      <trkpt lat="43.3102425188" lon="3.1316397898">
        <ele>40.03</ele>
        <time>2017-08-02T12:17:28Z</time>
      </trkpt>
      <trkpt lat="43.3104653098" lon="3.1318327412">
        <ele>40.03</ele>
        <time>2017-08-02T12:17:35Z</time>
      </trkpt>
      <trkpt lat="43.3107564133" lon="3.1321044825">
        <ele>40.03</ele>
        <time>2017-08-02T12:17:44Z</time>
      </trkpt>
      <trkpt lat="43.3109628595" lon="3.1323447917">
        <ele>40.03</ele>
        <time>2017-08-02T12:17:52Z</time>
      </trkpt>
      <trkpt lat="43.3109958004" lon="3.1323804986">
        <ele>40.03</ele>
        <time>2017-08-02T12:17:53Z</time>
      </trkpt>
      <trkpt lat="43.3110237122" lon="3.1324103381">
        <ele>40.03</ele>
        <time>2017-08-02T12:17:54Z</time>
      </trkpt>
      <trkpt lat="43.3113033324" lon="3.1327311974">
        <ele>40.03</ele>
        <time>2017-08-02T12:18:03Z</time>
      </trkpt>
      <trkpt lat="43.3115938492" lon="3.1330927927">
        <ele>40.03</ele>
        <time>2017-08-02T12:18:12Z</time>
      </trkpt>
      <trkpt lat="43.3118298836" lon="3.1335403025">
        <ele>40.03</ele>
        <time>2017-08-02T12:18:21Z</time>
      </trkpt>
      <trkpt lat="43.3119950071" lon="3.1340350863">
        <ele>40.03</ele>
        <time>2017-08-02T12:18:31Z</time>
      </trkpt>
      <trkpt lat="43.3121593762" lon="3.1343909819">
        <ele>40.51</ele>
        <time>2017-08-02T12:18:40Z</time>
      </trkpt>
      <trkpt lat="43.3124362305" lon="3.1344857812">
        <ele>40.51</ele>
        <time>2017-08-02T12:18:48Z</time>
      </trkpt>
      <trkpt lat="43.3129381388" lon="3.1344271917">
        <ele>40.51</ele>
        <time>2017-08-02T12:19:00Z</time>
      </trkpt>
      <trkpt lat="43.3132262249" lon="3.1345537584">
        <ele>40.51</ele>
        <time>2017-08-02T12:19:08Z</time>
      </trkpt>
      <trkpt lat="43.3135074377" lon="3.1347977556">
        <ele>40.51</ele>
        <time>2017-08-02T12:19:17Z</time>
      </trkpt>
      <trkpt lat="43.3137852978" lon="3.1350666471">
        <ele>40.51</ele>
        <time>2017-08-02T12:19:26Z</time>
      </trkpt>
      <trkpt lat="43.3140046522" lon="3.1352678966">
        <ele>40.51</ele>
        <time>2017-08-02T12:19:33Z</time>
      </trkpt>
      <trkpt lat="43.3141968492" lon="3.1353970617">
        <ele>40.51</ele>
        <time>2017-08-02T12:19:38Z</time>
      </trkpt>
      <trkpt lat="43.3142390940" lon="3.1354201958">
        <ele>40.51</ele>
        <time>2017-08-02T12:19:39Z</time>
      </trkpt>
      <trkpt lat="43.3147480432" lon="3.1356663723">
        <ele>40.51</ele>
        <time>2017-08-02T12:19:51Z</time>
      </trkpt>
      <trkpt lat="43.3150121570" lon="3.1357928552">
        <ele>40.51</ele>
        <time>2017-08-02T12:19:57Z</time>
      </trkpt>
      <trkpt lat="43.3152711578" lon="3.1360170711">
        <ele>40.51</ele>
        <time>2017-08-02T12:20:04Z</time>
      </trkpt>
      <trkpt lat="43.3154006582" lon="3.1362350844">
        <ele>40.51</ele>
        <time>2017-08-02T12:20:09Z</time>
      </trkpt>
      <trkpt lat="43.3156386204" lon="3.1368937343">
        <ele>40.51</ele>
        <time>2017-08-02T12:20:22Z</time>
      </trkpt>
      <trkpt lat="43.3157666959" lon="3.1375341117">
        <ele>40.99</ele>
        <time>2017-08-02T12:20:35Z</time>
      </trkpt>
      <trkpt lat="43.3157759160" lon="3.1377370376">
        <ele>44.36</ele>
        <time>2017-08-02T12:20:39Z</time>
      </trkpt>
      <trkpt lat="43.3157726470" lon="3.1377864070">
        <ele>40.99</ele>
        <time>2017-08-02T12:20:40Z</time>
      </trkpt>
      <trkpt lat="43.3157039154" lon="3.1384014711">
        <ele>43.40</ele>
        <time>2017-08-02T12:20:52Z</time>
      </trkpt>
      <trkpt lat="43.3156989701" lon="3.1384526007">
        <ele>42.92</ele>
        <time>2017-08-02T12:20:53Z</time>
      </trkpt>
      <trkpt lat="43.3156874869" lon="3.1385488249">
        <ele>40.99</ele>
        <time>2017-08-02T12:20:55Z</time>
      </trkpt>
      <trkpt lat="43.3156464156" lon="3.1391376536">
        <ele>40.99</ele>
        <time>2017-08-02T12:21:06Z</time>
      </trkpt>
      <trkpt lat="43.3156289812" lon="3.1397028454">
        <ele>40.99</ele>
        <time>2017-08-02T12:21:18Z</time>
      </trkpt>
      <trkpt lat="43.3156319987" lon="3.1400214415">
        <ele>41.95</ele>
        <time>2017-08-02T12:21:28Z</time>
      </trkpt>
      <trkpt lat="43.3156242874" lon="3.1400413066">
        <ele>42.44</ele>
        <time>2017-08-02T12:21:29Z</time>
      </trkpt>
      <trkpt lat="43.3155650273" lon="3.1402355991">
        <ele>41.95</ele>
        <time>2017-08-02T12:21:37Z</time>
      </trkpt>
      <trkpt lat="43.3155133110" lon="3.1405515131">
        <ele>41.95</ele>
        <time>2017-08-02T12:21:47Z</time>
      </trkpt>
      <trkpt lat="43.3154610917" lon="3.1408468913">
        <ele>41.47</ele>
        <time>2017-08-02T12:21:57Z</time>
      </trkpt>
      <trkpt lat="43.3154153265" lon="3.1411081553">
        <ele>41.47</ele>
        <time>2017-08-02T12:22:06Z</time>
      </trkpt>
      <trkpt lat="43.3154031727" lon="3.1411149446">
        <ele>41.47</ele>
        <time>2017-08-02T12:22:07Z</time>
      </trkpt>
      <trkpt lat="43.3153939527" lon="3.1411110889">
        <ele>41.47</ele>
        <time>2017-08-02T12:22:08Z</time>
      </trkpt>
      <trkpt lat="43.3153884206" lon="3.1410935707">
        <ele>41.47</ele>
        <time>2017-08-02T12:22:09Z</time>
      </trkpt>
      <trkpt lat="43.3153900132" lon="3.1410694309">
        <ele>41.47</ele>
        <time>2017-08-02T12:22:10Z</time>
      </trkpt>
      <trkpt lat="43.3153962158" lon="3.1410522480">
        <ele>41.47</ele>
        <time>2017-08-02T12:22:11Z</time>
      </trkpt>
      <trkpt lat="43.3154064417" lon="3.1410376634">
        <ele>41.47</ele>
        <time>2017-08-02T12:22:12Z</time>
      </trkpt>
      <trkpt lat="43.3154187631" lon="3.1410224922">
        <ele>41.47</ele>
        <time>2017-08-02T12:22:13Z</time>
      </trkpt>
      <trkpt lat="43.3154263906" lon="3.1410005316">
        <ele>41.47</ele>
        <time>2017-08-02T12:22:14Z</time>
      </trkpt>
      <trkpt lat="43.3154285699" lon="3.1409738772">
        <ele>41.47</ele>
        <time>2017-08-02T12:22:15Z</time>
      </trkpt>
      <trkpt lat="43.3154311683" lon="3.1409446243">
        <ele>41.47</ele>
        <time>2017-08-02T12:22:16Z</time>
      </trkpt>
      <trkpt lat="43.3154384606" lon="3.1409178022">
        <ele>41.47</ele>
        <time>2017-08-02T12:22:17Z</time>
      </trkpt>
      <trkpt lat="43.3154486865" lon="3.1408856157">
        <ele>41.47</ele>
        <time>2017-08-02T12:22:18Z</time>
      </trkpt>
      <trkpt lat="43.3154575713" lon="3.1408481486">
        <ele>41.47</ele>
        <time>2017-08-02T12:22:19Z</time>
      </trkpt>
      <trkpt lat="43.3154642768" lon="3.1408086699">
        <ele>41.95</ele>
        <time>2017-08-02T12:22:20Z</time>
      </trkpt>
      <trkpt lat="43.3154731616" lon="3.1407702807">
        <ele>41.47</ele>
        <time>2017-08-02T12:22:21Z</time>
      </trkpt>
      <trkpt lat="43.3154831361" lon="3.1407293770">
        <ele>41.47</ele>
        <time>2017-08-02T12:22:22Z</time>
      </trkpt>
      <trkpt lat="43.3154899254" lon="3.1406838633">
        <ele>41.47</ele>
        <time>2017-08-02T12:22:23Z</time>
      </trkpt>
      <trkpt lat="43.3154962957" lon="3.1406356674">
        <ele>41.95</ele>
        <time>2017-08-02T12:22:24Z</time>
      </trkpt>
      <trkpt lat="43.3155208547" lon="3.1404798478">
        <ele>41.95</ele>
        <time>2017-08-02T12:22:27Z</time>
      </trkpt>
      <trkpt lat="43.3155251294" lon="3.1404224318">
        <ele>41.47</ele>
        <time>2017-08-02T12:22:28Z</time>
      </trkpt>
      <trkpt lat="43.3155815396" lon="3.1402078550">
        <ele>41.47</ele>
        <time>2017-08-02T12:22:35Z</time>
      </trkpt>
      <trkpt lat="43.3155964594" lon="3.1401618384">
        <ele>41.95</ele>
        <time>2017-08-02T12:22:44Z</time>
      </trkpt>
      <trkpt lat="43.3155945316" lon="3.1401366927">
        <ele>42.44</ele>
        <time>2017-08-02T12:22:47Z</time>
      </trkpt>
      <trkpt lat="43.3155781869" lon="3.1401088648">
        <ele>42.44</ele>
        <time>2017-08-02T12:22:48Z</time>
      </trkpt>
      <trkpt lat="43.3155486826" lon="3.1400859822">
        <ele>42.44</ele>
        <time>2017-08-02T12:22:49Z</time>
      </trkpt>
      <trkpt lat="43.3155081980" lon="3.1400745828">
        <ele>42.92</ele>
        <time>2017-08-02T12:22:50Z</time>
      </trkpt>
      <trkpt lat="43.3154666238" lon="3.1400660332">
        <ele>42.92</ele>
        <time>2017-08-02T12:22:51Z</time>
      </trkpt>
      <trkpt lat="43.3154241275" lon="3.1400522031">
        <ele>43.40</ele>
        <time>2017-08-02T12:22:52Z</time>
      </trkpt>
      <trkpt lat="43.3153443318" lon="3.1400155742">
        <ele>43.88</ele>
        <time>2017-08-02T12:22:54Z</time>
      </trkpt>
      <trkpt lat="43.3153067809" lon="3.1399937812">
        <ele>43.88</ele>
        <time>2017-08-02T12:22:55Z</time>
      </trkpt>
      <trkpt lat="43.3152685594" lon="3.1399958767">
        <ele>43.40</ele>
        <time>2017-08-02T12:22:56Z</time>
      </trkpt>
      <trkpt lat="43.3152340259" lon="3.1400258001">
        <ele>43.40</ele>
        <time>2017-08-02T12:22:57Z</time>
      </trkpt>
      <trkpt lat="43.3152159210" lon="3.1400705595">
        <ele>43.40</ele>
        <time>2017-08-02T12:22:58Z</time>
      </trkpt>
      <trkpt lat="43.3152181841" lon="3.1401179172">
        <ele>43.40</ele>
        <time>2017-08-02T12:22:59Z</time>
      </trkpt>
      <trkpt lat="43.3152257279" lon="3.1401611678">
        <ele>43.40</ele>
        <time>2017-08-02T12:23:00Z</time>
      </trkpt>
      <trkpt lat="43.3152259793" lon="3.1402029935">
        <ele>43.40</ele>
        <time>2017-08-02T12:23:01Z</time>
      </trkpt>
      <trkpt lat="43.3152175136" lon="3.1402440649">
        <ele>43.40</ele>
        <time>2017-08-02T12:23:02Z</time>
      </trkpt>
      <trkpt lat="43.3152063657" lon="3.1402857229">
        <ele>43.88</ele>
        <time>2017-08-02T12:23:03Z</time>
      </trkpt>
      <trkpt lat="43.3151945472" lon="3.1403274648">
        <ele>43.88</ele>
        <time>2017-08-02T12:23:04Z</time>
      </trkpt>
      <trkpt lat="43.3151823934" lon="3.1403674465">
        <ele>43.88</ele>
        <time>2017-08-02T12:23:05Z</time>
      </trkpt>
      <trkpt lat="43.3151738439" lon="3.1404091045">
        <ele>43.40</ele>
        <time>2017-08-02T12:23:06Z</time>
      </trkpt>
      <trkpt lat="43.3150383085" lon="3.1408369169">
        <ele>43.40</ele>
        <time>2017-08-02T12:23:17Z</time>
      </trkpt>
      <trkpt lat="43.3149211295" lon="3.1412399188">
        <ele>42.44</ele>
        <time>2017-08-02T12:23:27Z</time>
      </trkpt>
      <trkpt lat="43.3147902042" lon="3.1415372249">
        <ele>41.95</ele>
        <time>2017-08-02T12:23:35Z</time>
      </trkpt>
      <trkpt lat="43.3145499788" lon="3.1418785360">
        <ele>41.47</ele>
        <time>2017-08-02T12:23:44Z</time>
      </trkpt>
      <trkpt lat="43.3145068958" lon="3.1419098005">
        <ele>40.99</ele>
        <time>2017-08-02T12:23:45Z</time>
      </trkpt>
      <trkpt lat="43.3144597057" lon="3.1419353653">
        <ele>40.99</ele>
        <time>2017-08-02T12:23:46Z</time>
      </trkpt>
      <trkpt lat="43.3144105878" lon="3.1419496983">
        <ele>40.51</ele>
        <time>2017-08-02T12:23:47Z</time>
      </trkpt>
      <trkpt lat="43.3143585362" lon="3.1419469323">
        <ele>40.03</ele>
        <time>2017-08-02T12:23:48Z</time>
      </trkpt>
      <trkpt lat="43.3143100888" lon="3.1419325154">
        <ele>40.51</ele>
        <time>2017-08-02T12:23:49Z</time>
      </trkpt>
      <trkpt lat="43.3142642397" lon="3.1419152487">
        <ele>40.51</ele>
        <time>2017-08-02T12:23:50Z</time>
      </trkpt>
      <trkpt lat="43.3141732123" lon="3.1418937910">
        <ele>40.51</ele>
        <time>2017-08-02T12:23:52Z</time>
      </trkpt>
      <trkpt lat="43.3141273633" lon="3.1418956351">
        <ele>40.51</ele>
        <time>2017-08-02T12:23:53Z</time>
      </trkpt>
      <trkpt lat="43.3140831068" lon="3.1419106387">
        <ele>40.51</ele>
        <time>2017-08-02T12:23:54Z</time>
      </trkpt>
      <trkpt lat="43.3140437957" lon="3.1419327669">
        <ele>40.03</ele>
        <time>2017-08-02T12:23:55Z</time>
      </trkpt>
      <trkpt lat="43.3140068315" lon="3.1419589184">
        <ele>40.51</ele>
        <time>2017-08-02T12:23:56Z</time>
      </trkpt>
      <trkpt lat="43.3139695320" lon="3.1419849023">
        <ele>40.51</ele>
        <time>2017-08-02T12:23:57Z</time>
      </trkpt>
      <trkpt lat="43.3139345795" lon="3.1420092937">
        <ele>40.51</ele>
        <time>2017-08-02T12:23:58Z</time>
      </trkpt>
      <trkpt lat="43.3139010519" lon="3.1420290750">
        <ele>40.51</ele>
        <time>2017-08-02T12:23:59Z</time>
      </trkpt>
      <trkpt lat="43.3137366828" lon="3.1422837172">
        <ele>40.03</ele>
        <time>2017-08-02T12:24:08Z</time>
      </trkpt>
      <trkpt lat="43.3136639278" lon="3.1423981301">
        <ele>40.03</ele>
        <time>2017-08-02T12:24:14Z</time>
      </trkpt>
      <trkpt lat="43.3135849703" lon="3.1425969489">
        <ele>40.03</ele>
        <time>2017-08-02T12:24:23Z</time>
      </trkpt>
      <trkpt lat="43.3135878202" lon="3.1426231004">
        <ele>39.55</ele>
        <time>2017-08-02T12:24:24Z</time>
      </trkpt>
      <trkpt lat="43.3136050031" lon="3.1427351665">
        <ele>39.55</ele>
        <time>2017-08-02T12:24:34Z</time>
      </trkpt>
      <trkpt lat="43.3136135526" lon="3.1427620724">
        <ele>37.63</ele>
        <time>2017-08-02T12:24:39Z</time>
      </trkpt>
      <trkpt lat="43.3136704657" lon="3.1423569750">
        <ele>40.99</ele>
        <time>2017-08-02T12:51:18Z</time>
      </trkpt>
      <trkpt lat="43.3137875609" lon="3.1421831343">
        <ele>40.03</ele>
        <time>2017-08-02T12:51:27Z</time>
      </trkpt>
      <trkpt lat="43.3138746489" lon="3.1420762651">
        <ele>36.67</ele>
        <time>2017-08-02T12:51:33Z</time>
      </trkpt>
      <trkpt lat="43.3138878085" lon="3.1420600042">
        <ele>40.99</ele>
        <time>2017-08-02T12:51:34Z</time>
      </trkpt>
      <trkpt lat="43.3140144590" lon="3.1419652887">
        <ele>37.63</ele>
        <time>2017-08-02T12:51:42Z</time>
      </trkpt>
      <trkpt lat="43.3141753078" lon="3.1419056095">
        <ele>38.59</ele>
        <time>2017-08-02T12:51:51Z</time>
      </trkpt>
      <trkpt lat="43.3142454643" lon="3.1419698149">
        <ele>38.59</ele>
        <time>2017-08-02T12:51:56Z</time>
      </trkpt>
      <trkpt lat="43.3144793194" lon="3.1419377122">
        <ele>39.55</ele>
        <time>2017-08-02T12:52:08Z</time>
      </trkpt>
      <trkpt lat="43.3145154454" lon="3.1419121474">
        <ele>41.47</ele>
        <time>2017-08-02T12:52:10Z</time>
      </trkpt>
      <trkpt lat="43.3146476280" lon="3.1416419987">
        <ele>40.03</ele>
        <time>2017-08-02T12:52:22Z</time>
      </trkpt>
      <trkpt lat="43.3147368114" lon="3.1414574292">
        <ele>40.99</ele>
        <time>2017-08-02T12:52:33Z</time>
      </trkpt>
      <trkpt lat="43.3148756996" lon="3.1412736140">
        <ele>41.47</ele>
        <time>2017-08-02T12:52:44Z</time>
      </trkpt>
      <trkpt lat="43.3149768692" lon="3.1411115918">
        <ele>41.47</ele>
        <time>2017-08-02T12:52:52Z</time>
      </trkpt>
      <trkpt lat="43.3150652982" lon="3.1407828536">
        <ele>41.95</ele>
        <time>2017-08-02T12:53:03Z</time>
      </trkpt>
      <trkpt lat="43.3151673060" lon="3.1404478289">
        <ele>42.44</ele>
        <time>2017-08-02T12:53:15Z</time>
      </trkpt>
      <trkpt lat="43.3152021747" lon="3.1402825378">
        <ele>42.44</ele>
        <time>2017-08-02T12:53:20Z</time>
      </trkpt>
      <trkpt lat="43.3152697328" lon="3.1399853155">
        <ele>41.95</ele>
        <time>2017-08-02T12:53:30Z</time>
      </trkpt>
      <trkpt lat="43.3153298311" lon="3.1399811246">
        <ele>41.95</ele>
        <time>2017-08-02T12:53:32Z</time>
      </trkpt>
      <trkpt lat="43.3155869041" lon="3.1400969625">
        <ele>41.95</ele>
        <time>2017-08-02T12:53:40Z</time>
      </trkpt>
      <trkpt lat="43.3155547176" lon="3.1402910873">
        <ele>40.03</ele>
        <time>2017-08-02T12:53:45Z</time>
      </trkpt>
      <trkpt lat="43.3154796995" lon="3.1407292932">
        <ele>40.03</ele>
        <time>2017-08-02T12:53:54Z</time>
      </trkpt>
      <trkpt lat="43.3153638616" lon="3.1412194669">
        <ele>40.03</ele>
        <time>2017-08-02T12:54:04Z</time>
      </trkpt>
      <trkpt lat="43.3151372988" lon="3.1417037733">
        <ele>40.03</ele>
        <time>2017-08-02T12:54:16Z</time>
      </trkpt>
      <trkpt lat="43.3149662241" lon="3.1419624388">
        <ele>39.55</ele>
        <time>2017-08-02T12:54:26Z</time>
      </trkpt>
      <trkpt lat="43.3147521503" lon="3.1422410533">
        <ele>39.55</ele>
        <time>2017-08-02T12:54:33Z</time>
      </trkpt>
      <trkpt lat="43.3145592827" lon="3.1425340008">
        <ele>39.55</ele>
        <time>2017-08-02T12:54:43Z</time>
      </trkpt>
      <trkpt lat="43.3144586999" lon="3.1427821890">
        <ele>40.03</ele>
        <time>2017-08-02T12:54:52Z</time>
      </trkpt>
      <trkpt lat="43.3143940754" lon="3.1431736238">
        <ele>40.03</ele>
        <time>2017-08-02T12:55:04Z</time>
      </trkpt>
      <trkpt lat="43.3143828437" lon="3.1435839180">
        <ele>40.03</ele>
        <time>2017-08-02T12:55:16Z</time>
      </trkpt>
      <trkpt lat="43.3144200593" lon="3.1441750098">
        <ele>40.03</ele>
        <time>2017-08-02T12:55:31Z</time>
      </trkpt>
      <trkpt lat="43.3144790679" lon="3.1446148921">
        <ele>40.51</ele>
        <time>2017-08-02T12:55:43Z</time>
      </trkpt>
      <trkpt lat="43.3145458717" lon="3.1449733023">
        <ele>40.51</ele>
        <time>2017-08-02T12:55:53Z</time>
      </trkpt>
      <trkpt lat="43.3146431018" lon="3.1454483885">
        <ele>40.51</ele>
        <time>2017-08-02T12:56:05Z</time>
      </trkpt>
      <trkpt lat="43.3148140926" lon="3.1459772028">
        <ele>40.51</ele>
        <time>2017-08-02T12:56:16Z</time>
      </trkpt>
      <trkpt lat="43.3150354587" lon="3.1464849785">
        <ele>40.51</ele>
        <time>2017-08-02T12:56:29Z</time>
      </trkpt>
      <trkpt lat="43.3151755203" lon="3.1467839610">
        <ele>44.36</ele>
        <time>2017-08-02T12:56:37Z</time>
      </trkpt>
      <trkpt lat="43.3151911106" lon="3.1468186621">
        <ele>37.15</ele>
        <time>2017-08-02T12:56:38Z</time>
      </trkpt>
      <trkpt lat="43.3152056951" lon="3.1468550395">
        <ele>41.47</ele>
        <time>2017-08-02T12:56:39Z</time>
      </trkpt>
      <trkpt lat="43.3152383845" lon="3.1469186582">
        <ele>38.59</ele>
        <time>2017-08-02T12:56:41Z</time>
      </trkpt>
      <trkpt lat="43.3152533043" lon="3.1469490007">
        <ele>44.36</ele>
        <time>2017-08-02T12:56:42Z</time>
      </trkpt>
      <trkpt lat="43.3152691461" lon="3.1469786726">
        <ele>41.47</ele>
        <time>2017-08-02T12:56:43Z</time>
      </trkpt>
      <trkpt lat="43.3154367842" lon="3.1473259348">
        <ele>40.99</ele>
        <time>2017-08-02T12:56:53Z</time>
      </trkpt>
      <trkpt lat="43.3154849801" lon="3.1474294513">
        <ele>36.67</ele>
        <time>2017-08-02T12:56:57Z</time>
      </trkpt>
      <trkpt lat="43.3154941164" lon="3.1474540103">
        <ele>49.65</ele>
        <time>2017-08-02T12:56:58Z</time>
      </trkpt>
      <trkpt lat="43.3155050967" lon="3.1474770606">
        <ele>33.78</ele>
        <time>2017-08-02T12:56:59Z</time>
      </trkpt>
      <trkpt lat="43.3155134786" lon="3.1475054752">
        <ele>47.24</ele>
        <time>2017-08-02T12:57:00Z</time>
      </trkpt>
      <trkpt lat="43.3155253809" lon="3.1475374941">
        <ele>41.47</ele>
        <time>2017-08-02T12:57:01Z</time>
      </trkpt>
      <trkpt lat="43.3156901691" lon="3.1478516478">
        <ele>40.99</ele>
        <time>2017-08-02T12:57:09Z</time>
      </trkpt>
      <trkpt lat="43.3159179054" lon="3.1482440047">
        <ele>41.95</ele>
        <time>2017-08-02T12:57:21Z</time>
      </trkpt>
      <trkpt lat="43.3161702845" lon="3.1486220285">
        <ele>40.51</ele>
        <time>2017-08-02T12:57:32Z</time>
      </trkpt>
      <trkpt lat="43.3165074885" lon="3.1490992103">
        <ele>40.03</ele>
        <time>2017-08-02T12:57:45Z</time>
      </trkpt>
      <trkpt lat="43.3169176150" lon="3.1494500767">
        <ele>40.99</ele>
        <time>2017-08-02T12:57:58Z</time>
      </trkpt>
      <trkpt lat="43.3173940424" lon="3.1495474745">
        <ele>40.51</ele>
        <time>2017-08-02T12:58:11Z</time>
      </trkpt>
      <trkpt lat="43.3178131375" lon="3.1495810021">
        <ele>40.99</ele>
        <time>2017-08-02T12:58:23Z</time>
      </trkpt>
      <trkpt lat="43.3183045685" lon="3.1496512424">
        <ele>40.51</ele>
        <time>2017-08-02T12:58:36Z</time>
      </trkpt>
      <trkpt lat="43.3188343886" lon="3.1498260051">
        <ele>40.99</ele>
        <time>2017-08-02T12:58:49Z</time>
      </trkpt>
      <trkpt lat="43.3192855865" lon="3.1500516459">
        <ele>40.51</ele>
        <time>2017-08-02T12:59:01Z</time>
      </trkpt>
      <trkpt lat="43.3196421526" lon="3.1503899395">
        <ele>40.99</ele>
        <time>2017-08-02T12:59:13Z</time>
      </trkpt>
      <trkpt lat="43.3199323341" lon="3.1509147305">
        <ele>41.47</ele>
        <time>2017-08-02T12:59:26Z</time>
      </trkpt>
      <trkpt lat="43.3200501837" lon="3.1514802575">
        <ele>40.99</ele>
        <time>2017-08-02T12:59:38Z</time>
      </trkpt>
      <trkpt lat="43.3201015648" lon="3.1520934775">
        <ele>40.99</ele>
        <time>2017-08-02T12:59:51Z</time>
      </trkpt>
      <trkpt lat="43.3201742359" lon="3.1526260637">
        <ele>40.99</ele>
        <time>2017-08-02T13:00:03Z</time>
      </trkpt>
      <trkpt lat="43.3202414587" lon="3.1528250501">
        <ele>40.03</ele>
        <time>2017-08-02T13:00:07Z</time>
      </trkpt>
      <trkpt lat="43.3205252700" lon="3.1532785110">
        <ele>40.51</ele>
        <time>2017-08-02T13:00:18Z</time>
      </trkpt>
      <trkpt lat="43.3209291101" lon="3.1536889728">
        <ele>40.99</ele>
        <time>2017-08-02T13:00:30Z</time>
      </trkpt>
      <trkpt lat="43.3213521447" lon="3.1540584471">
        <ele>40.99</ele>
        <time>2017-08-02T13:00:42Z</time>
      </trkpt>
      <trkpt lat="43.3217205293" lon="3.1544670649">
        <ele>41.47</ele>
        <time>2017-08-02T13:00:54Z</time>
      </trkpt>
      <trkpt lat="43.3222235274" lon="3.1550218631">
        <ele>41.47</ele>
        <time>2017-08-02T13:01:10Z</time>
      </trkpt>
      <trkpt lat="43.3226413652" lon="3.1554605719">
        <ele>41.95</ele>
        <time>2017-08-02T13:01:23Z</time>
      </trkpt>
      <trkpt lat="43.3229071554" lon="3.1558080018">
        <ele>42.92</ele>
        <time>2017-08-02T13:01:33Z</time>
      </trkpt>
      <trkpt lat="43.3230836783" lon="3.1562214810">
        <ele>42.92</ele>
        <time>2017-08-02T13:01:43Z</time>
      </trkpt>
      <trkpt lat="43.3231681678" lon="3.1567742676">
        <ele>42.44</ele>
        <time>2017-08-02T13:01:55Z</time>
      </trkpt>
      <trkpt lat="43.3231674973" lon="3.1572552212">
        <ele>42.92</ele>
        <time>2017-08-02T13:02:05Z</time>
      </trkpt>
      <trkpt lat="43.3230545931" lon="3.1577980332">
        <ele>42.44</ele>
        <time>2017-08-02T13:02:17Z</time>
      </trkpt>
      <trkpt lat="43.3229355700" lon="3.1582349818">
        <ele>42.44</ele>
        <time>2017-08-02T13:02:28Z</time>
      </trkpt>
      <trkpt lat="43.3228136133" lon="3.1586536579">
        <ele>42.44</ele>
        <time>2017-08-02T13:02:38Z</time>
      </trkpt>
      <trkpt lat="43.3226030599" lon="3.1591952126">
        <ele>41.95</ele>
        <time>2017-08-02T13:02:50Z</time>
      </trkpt>
      <trkpt lat="43.3223562967" lon="3.1598506775">
        <ele>40.99</ele>
        <time>2017-08-02T13:03:04Z</time>
      </trkpt>
      <trkpt lat="43.3221556339" lon="3.1603752170">
        <ele>40.99</ele>
        <time>2017-08-02T13:03:16Z</time>
      </trkpt>
      <trkpt lat="43.3219879959" lon="3.1609911192">
        <ele>40.99</ele>
        <time>2017-08-02T13:03:29Z</time>
      </trkpt>
      <trkpt lat="43.3218819648" lon="3.1615857314">
        <ele>40.03</ele>
        <time>2017-08-02T13:03:41Z</time>
      </trkpt>
      <trkpt lat="43.3218920231" lon="3.1621487439">
        <ele>40.99</ele>
        <time>2017-08-02T13:03:53Z</time>
      </trkpt>
      <trkpt lat="43.3219790272" lon="3.1625436991">
        <ele>41.47</ele>
        <time>2017-08-02T13:04:03Z</time>
      </trkpt>
      <trkpt lat="43.3221319970" lon="3.1629458629">
        <ele>41.95</ele>
        <time>2017-08-02T13:04:13Z</time>
      </trkpt>
      <trkpt lat="43.3223332465" lon="3.1634442508">
        <ele>41.95</ele>
        <time>2017-08-02T13:04:25Z</time>
      </trkpt>
      <trkpt lat="43.3225325681" lon="3.1638145633">
        <ele>41.95</ele>
        <time>2017-08-02T13:04:35Z</time>
      </trkpt>
      <trkpt lat="43.3227583766" lon="3.1641326565">
        <ele>41.95</ele>
        <time>2017-08-02T13:04:44Z</time>
      </trkpt>
      <trkpt lat="43.3231032919" lon="3.1646543462">
        <ele>43.40</ele>
        <time>2017-08-02T13:04:58Z</time>
      </trkpt>
      <trkpt lat="43.3233509772" lon="3.1651122496">
        <ele>42.92</ele>
        <time>2017-08-02T13:05:09Z</time>
      </trkpt>
      <trkpt lat="43.3234073035" lon="3.1652702484">
        <ele>42.44</ele>
        <time>2017-08-02T13:05:12Z</time>
      </trkpt>
      <trkpt lat="43.3234249894" lon="3.1653238088">
        <ele>42.92</ele>
        <time>2017-08-02T13:05:13Z</time>
      </trkpt>
      <trkpt lat="43.3234410826" lon="3.1653772015">
        <ele>42.92</ele>
        <time>2017-08-02T13:05:14Z</time>
      </trkpt>
      <trkpt lat="43.3235510532" lon="3.1659335922">
        <ele>40.51</ele>
        <time>2017-08-02T13:05:23Z</time>
      </trkpt>
      <trkpt lat="43.3235551603" lon="3.1660225242">
        <ele>39.55</ele>
        <time>2017-08-02T13:05:24Z</time>
      </trkpt>
      <trkpt lat="43.3235517237" lon="3.1661095284">
        <ele>39.07</ele>
        <time>2017-08-02T13:05:25Z</time>
      </trkpt>
      <trkpt lat="43.3234559186" lon="3.1667072419">
        <ele>38.59</ele>
        <time>2017-08-02T13:05:34Z</time>
      </trkpt>
      <trkpt lat="43.3233971614" lon="3.1673741061">
        <ele>39.07</ele>
        <time>2017-08-02T13:05:46Z</time>
      </trkpt>
      <trkpt lat="43.3234990854" lon="3.1679574028">
        <ele>39.07</ele>
        <time>2017-08-02T13:05:57Z</time>
      </trkpt>
      <trkpt lat="43.3236474451" lon="3.1684667710">
        <ele>40.99</ele>
        <time>2017-08-02T13:06:08Z</time>
      </trkpt>
      <trkpt lat="43.3237868361" lon="3.1688169669">
        <ele>40.51</ele>
        <time>2017-08-02T13:06:18Z</time>
      </trkpt>
      <trkpt lat="43.3239569049" lon="3.1692901254">
        <ele>40.99</ele>
        <time>2017-08-02T13:06:30Z</time>
      </trkpt>
      <trkpt lat="43.3241530415" lon="3.1698072050">
        <ele>40.51</ele>
        <time>2017-08-02T13:06:42Z</time>
      </trkpt>
      <trkpt lat="43.3243213501" lon="3.1702695508">
        <ele>40.51</ele>
        <time>2017-08-02T13:06:53Z</time>
      </trkpt>
      <trkpt lat="43.3244526945" lon="3.1705791783">
        <ele>38.59</ele>
        <time>2017-08-02T13:06:59Z</time>
      </trkpt>
      <trkpt lat="43.3244929276" lon="3.1706405338">
        <ele>38.59</ele>
        <time>2017-08-02T13:07:00Z</time>
      </trkpt>
      <trkpt lat="43.3246294688" lon="3.1707823556">
        <ele>38.59</ele>
        <time>2017-08-02T13:07:03Z</time>
      </trkpt>
      <trkpt lat="43.3246774971" lon="3.1708096806">
        <ele>38.59</ele>
        <time>2017-08-02T13:07:04Z</time>
      </trkpt>
      <trkpt lat="43.3247277886" lon="3.1708283722">
        <ele>38.59</ele>
        <time>2017-08-02T13:07:05Z</time>
      </trkpt>
      <trkpt lat="43.3248341549" lon="3.1708494108">
        <ele>39.07</ele>
        <time>2017-08-02T13:07:07Z</time>
      </trkpt>
      <trkpt lat="43.3249420300" lon="3.1708541885">
        <ele>39.07</ele>
        <time>2017-08-02T13:07:09Z</time>
      </trkpt>
      <trkpt lat="43.3253955748" lon="3.1707858760">
        <ele>39.07</ele>
        <time>2017-08-02T13:07:18Z</time>
      </trkpt>
      <trkpt lat="43.3254955709" lon="3.1707440503">
        <ele>38.59</ele>
        <time>2017-08-02T13:07:20Z</time>
      </trkpt>
      <trkpt lat="43.3255425934" lon="3.1707250234">
        <ele>38.59</ele>
        <time>2017-08-02T13:07:21Z</time>
      </trkpt>
      <trkpt lat="43.3261698112" lon="3.1703754142">
        <ele>38.59</ele>
        <time>2017-08-02T13:07:35Z</time>
      </trkpt>
      <trkpt lat="43.3263532910" lon="3.1702847220">
        <ele>38.59</ele>
        <time>2017-08-02T13:07:39Z</time>
      </trkpt>
      <trkpt lat="43.3267609030" lon="3.1702242885">
        <ele>38.59</ele>
        <time>2017-08-02T13:07:48Z</time>
      </trkpt>
      <trkpt lat="43.3268030640" lon="3.1702416390">
        <ele>38.59</ele>
        <time>2017-08-02T13:07:49Z</time>
      </trkpt>
      <trkpt lat="43.3270528447" lon="3.1704129651">
        <ele>38.11</ele>
        <time>2017-08-02T13:07:58Z</time>
      </trkpt>
      <trkpt lat="43.3270711172" lon="3.1704479177">
        <ele>38.11</ele>
        <time>2017-08-02T13:07:59Z</time>
      </trkpt>
      <trkpt lat="43.3270879649" lon="3.1704910845">
        <ele>38.11</ele>
        <time>2017-08-02T13:08:00Z</time>
      </trkpt>
      <trkpt lat="43.3271095902" lon="3.1705338322">
        <ele>38.11</ele>
        <time>2017-08-02T13:08:01Z</time>
      </trkpt>
      <trkpt lat="43.3271342330" lon="3.1705763284">
        <ele>38.11</ele>
        <time>2017-08-02T13:08:02Z</time>
      </trkpt>
      <trkpt lat="43.3271600492" lon="3.1706173159">
        <ele>38.11</ele>
        <time>2017-08-02T13:08:03Z</time>
      </trkpt>
      <trkpt lat="43.3272122685" lon="3.1707098521">
        <ele>38.11</ele>
        <time>2017-08-02T13:08:05Z</time>
      </trkpt>
      <trkpt lat="43.3273892105" lon="3.1712931488">
        <ele>38.11</ele>
        <time>2017-08-02T13:08:16Z</time>
      </trkpt>
      <trkpt lat="43.3274316229" lon="3.1715575978">
        <ele>38.11</ele>
        <time>2017-08-02T13:08:21Z</time>
      </trkpt>
      <trkpt lat="43.3274783939" lon="3.1720901839">
        <ele>38.11</ele>
        <time>2017-08-02T13:08:30Z</time>
      </trkpt>
      <trkpt lat="43.3274817467" lon="3.1721493602">
        <ele>38.11</ele>
        <time>2017-08-02T13:08:31Z</time>
      </trkpt>
      <trkpt lat="43.3274847642" lon="3.1722085364">
        <ele>38.11</ele>
        <time>2017-08-02T13:08:32Z</time>
      </trkpt>
      <trkpt lat="43.3274840098" lon="3.1722662039">
        <ele>37.63</ele>
        <time>2017-08-02T13:08:33Z</time>
      </trkpt>
      <trkpt lat="43.3274846803" lon="3.1723242905">
        <ele>37.63</ele>
        <time>2017-08-02T13:08:34Z</time>
      </trkpt>
      <trkpt lat="43.3274872787" lon="3.1723801140">
        <ele>38.11</ele>
        <time>2017-08-02T13:08:35Z</time>
      </trkpt>
      <trkpt lat="43.3274996001" lon="3.1729145441">
        <ele>38.11</ele>
        <time>2017-08-02T13:08:45Z</time>
      </trkpt>
      <trkpt lat="43.3275099099" lon="3.1733084936">
        <ele>38.11</ele>
        <time>2017-08-02T13:08:51Z</time>
      </trkpt>
      <trkpt lat="43.3275431022" lon="3.1736535765">
        <ele>38.11</ele>
        <time>2017-08-02T13:08:57Z</time>
      </trkpt>
      <trkpt lat="43.3275525738" lon="3.1737083104">
        <ele>38.11</ele>
        <time>2017-08-02T13:08:58Z</time>
      </trkpt>
      <trkpt lat="43.3276689984" lon="3.1741934549">
        <ele>37.63</ele>
        <time>2017-08-02T13:09:08Z</time>
      </trkpt>
      <trkpt lat="43.3277197089" lon="3.1744378712">
        <ele>38.11</ele>
        <time>2017-08-02T13:09:13Z</time>
      </trkpt>
      <trkpt lat="43.3277502190" lon="3.1745411362">
        <ele>38.11</ele>
        <time>2017-08-02T13:09:15Z</time>
      </trkpt>
      <trkpt lat="43.3279544860" lon="3.1752283685">
        <ele>37.63</ele>
        <time>2017-08-02T13:09:28Z</time>
      </trkpt>
      <trkpt lat="43.3280316833" lon="3.1754556019">
        <ele>37.63</ele>
        <time>2017-08-02T13:09:33Z</time>
      </trkpt>
      <trkpt lat="43.3282077871" lon="3.1760302652">
        <ele>39.55</ele>
        <time>2017-08-02T13:09:46Z</time>
      </trkpt>
      <trkpt lat="43.3282502834" lon="3.1762483623">
        <ele>40.03</ele>
        <time>2017-08-02T13:09:54Z</time>
      </trkpt>
      <trkpt lat="43.3283216972" lon="3.1766949501">
        <ele>40.03</ele>
        <time>2017-08-02T13:10:04Z</time>
      </trkpt>
      <trkpt lat="43.3283715695" lon="3.1771226786">
        <ele>40.03</ele>
        <time>2017-08-02T13:10:13Z</time>
      </trkpt>
      <trkpt lat="43.3283328451" lon="3.1776303705">
        <ele>41.47</ele>
        <time>2017-08-02T13:10:24Z</time>
      </trkpt>
      <trkpt lat="43.3282821346" lon="3.1783163454">
        <ele>40.99</ele>
        <time>2017-08-02T13:10:38Z</time>
      </trkpt>
      <trkpt lat="43.3281709906" lon="3.1788415555">
        <ele>40.99</ele>
        <time>2017-08-02T13:10:49Z</time>
      </trkpt>
      <trkpt lat="43.3281309251" lon="3.1789858080">
        <ele>36.67</ele>
        <time>2017-08-02T13:10:52Z</time>
      </trkpt>
      <trkpt lat="43.3281175140" lon="3.1790343393">
        <ele>45.32</ele>
        <time>2017-08-02T13:10:53Z</time>
      </trkpt>
      <trkpt lat="43.3281030133" lon="3.1790823676">
        <ele>41.47</ele>
        <time>2017-08-02T13:10:54Z</time>
      </trkpt>
      <trkpt lat="43.3278875146" lon="3.1797012035">
        <ele>41.95</ele>
        <time>2017-08-02T13:11:07Z</time>
      </trkpt>
      <trkpt lat="43.3276832476" lon="3.1802440993">
        <ele>42.92</ele>
        <time>2017-08-02T13:11:19Z</time>
      </trkpt>
      <trkpt lat="43.3276734408" lon="3.1803049520">
        <ele>41.95</ele>
        <time>2017-08-02T13:11:20Z</time>
      </trkpt>
      <trkpt lat="43.3276704233" lon="3.1803634576">
        <ele>41.95</ele>
        <time>2017-08-02T13:11:21Z</time>
      </trkpt>
      <trkpt lat="43.3276700880" lon="3.1804194488">
        <ele>41.95</ele>
        <time>2017-08-02T13:11:22Z</time>
      </trkpt>
      <trkpt lat="43.3276774641" lon="3.1804699078">
        <ele>41.47</ele>
        <time>2017-08-02T13:11:23Z</time>
      </trkpt>
      <trkpt lat="43.3276923001" lon="3.1805241387">
        <ele>41.47</ele>
        <time>2017-08-02T13:11:24Z</time>
      </trkpt>
      <trkpt lat="43.3277129196" lon="3.1805823091">
        <ele>41.47</ele>
        <time>2017-08-02T13:11:25Z</time>
      </trkpt>
      <trkpt lat="43.3277791366" lon="3.1807488576">
        <ele>40.99</ele>
        <time>2017-08-02T13:11:28Z</time>
      </trkpt>
      <trkpt lat="43.3278047014" lon="3.1808017474">
        <ele>40.99</ele>
        <time>2017-08-02T13:11:29Z</time>
      </trkpt>
      <trkpt lat="43.3278268296" lon="3.1808574032">
        <ele>40.99</ele>
        <time>2017-08-02T13:11:30Z</time>
      </trkpt>
      <trkpt lat="43.3280300908" lon="3.1814398617">
        <ele>40.99</ele>
        <time>2017-08-02T13:11:41Z</time>
      </trkpt>
      <trkpt lat="43.3280501235" lon="3.1814908236">
        <ele>40.99</ele>
        <time>2017-08-02T13:11:42Z</time>
      </trkpt>
      <trkpt lat="43.3281284943" lon="3.1817943323">
        <ele>40.51</ele>
        <time>2017-08-02T13:11:49Z</time>
      </trkpt>
      <trkpt lat="43.3281100541" lon="3.1818186399">
        <ele>40.03</ele>
        <time>2017-08-02T13:11:50Z</time>
      </trkpt>
      <trkpt lat="43.3280885126" lon="3.1818281114">
        <ele>40.51</ele>
        <time>2017-08-02T13:11:51Z</time>
      </trkpt>
      <trkpt lat="43.3280676417" lon="3.1818290334">
        <ele>40.99</ele>
        <time>2017-08-02T13:11:52Z</time>
      </trkpt>
      <trkpt lat="43.3280466869" lon="3.1818297878">
        <ele>40.99</ele>
        <time>2017-08-02T13:11:53Z</time>
      </trkpt>
      <trkpt lat="43.3280265704" lon="3.1818338949">
        <ele>40.99</ele>
        <time>2017-08-02T13:11:54Z</time>
      </trkpt>
      <trkpt lat="43.3280069567" lon="3.1818443723">
        <ele>40.99</ele>
        <time>2017-08-02T13:11:55Z</time>
      </trkpt>
      <trkpt lat="43.3279902767" lon="3.1818632316">
        <ele>41.47</ele>
        <time>2017-08-02T13:11:56Z</time>
      </trkpt>
      <trkpt lat="43.3279808890" lon="3.1818916462">
        <ele>40.99</ele>
        <time>2017-08-02T13:11:57Z</time>
      </trkpt>
      <trkpt lat="43.3279755246" lon="3.1819256768">
        <ele>40.51</ele>
        <time>2017-08-02T13:11:58Z</time>
      </trkpt>
      <trkpt lat="43.3279709145" lon="3.1819631439">
        <ele>40.51</ele>
        <time>2017-08-02T13:11:59Z</time>
      </trkpt>
      <trkpt lat="43.3279682323" lon="3.1820049696">
        <ele>40.51</ele>
        <time>2017-08-02T13:12:00Z</time>
      </trkpt>
      <trkpt lat="43.3279685676" lon="3.1820493098">
        <ele>40.51</ele>
        <time>2017-08-02T13:12:01Z</time>
      </trkpt>
      <trkpt lat="43.3279673941" lon="3.1820916384">
        <ele>40.51</ele>
        <time>2017-08-02T13:12:02Z</time>
      </trkpt>
      <trkpt lat="43.3279641252" lon="3.1821301114">
        <ele>40.51</ele>
        <time>2017-08-02T13:12:03Z</time>
      </trkpt>
      <trkpt lat="43.3279602695" lon="3.1821670756">
        <ele>40.51</ele>
        <time>2017-08-02T13:12:04Z</time>
      </trkpt>
      <trkpt lat="43.3279596828" lon="3.1822065543">
        <ele>40.51</ele>
        <time>2017-08-02T13:12:05Z</time>
      </trkpt>
      <trkpt lat="43.3279582579" lon="3.1822477095">
        <ele>40.51</ele>
        <time>2017-08-02T13:12:06Z</time>
      </trkpt>
      <trkpt lat="43.3279550727" lon="3.1822903734">
        <ele>40.51</ele>
        <time>2017-08-02T13:12:07Z</time>
      </trkpt>
      <trkpt lat="43.3279104810" lon="3.1828533858">
        <ele>40.51</ele>
        <time>2017-08-02T13:12:19Z</time>
      </trkpt>
      <trkpt lat="43.3278932143" lon="3.1831422262">
        <ele>40.03</ele>
        <time>2017-08-02T13:12:26Z</time>
      </trkpt>
      <trkpt lat="43.3277769573" lon="3.1831861474">
        <ele>40.03</ele>
        <time>2017-08-02T13:12:32Z</time>
      </trkpt>
      <trkpt lat="43.3275855146" lon="3.1831822917">
        <ele>39.55</ele>
        <time>2017-08-02T13:12:38Z</time>
      </trkpt>
      <trkpt lat="43.3275077306" lon="3.1833834574">
        <ele>40.03</ele>
        <time>2017-08-02T13:12:44Z</time>
      </trkpt>
      <trkpt lat="43.3274414297" lon="3.1838698592">
        <ele>39.55</ele>
        <time>2017-08-02T13:12:54Z</time>
      </trkpt>
      <trkpt lat="43.3274175413" lon="3.1840312947">
        <ele>39.55</ele>
        <time>2017-08-02T13:12:58Z</time>
      </trkpt>
      <trkpt lat="43.3274070639" lon="3.1843141839">
        <ele>39.07</ele>
        <time>2017-08-02T13:13:05Z</time>
      </trkpt>
      <trkpt lat="43.3272209018" lon="3.1844752003">
        <ele>37.63</ele>
        <time>2017-08-02T13:13:12Z</time>
      </trkpt>
      <trkpt lat="43.3272085804" lon="3.1845156010">
        <ele>37.63</ele>
        <time>2017-08-02T13:13:13Z</time>
      </trkpt>
      <trkpt lat="43.3271738794" lon="3.1848653778">
        <ele>37.63</ele>
        <time>2017-08-02T13:13:21Z</time>
      </trkpt>
      <trkpt lat="43.3271005377" lon="3.1852806173">
        <ele>37.63</ele>
        <time>2017-08-02T13:13:30Z</time>
      </trkpt>
      <trkpt lat="43.3270058222" lon="3.1855215970">
        <ele>36.19</ele>
        <time>2017-08-02T13:13:37Z</time>
      </trkpt>
      <trkpt lat="43.3269323967" lon="3.1859653350">
        <ele>36.19</ele>
        <time>2017-08-02T13:13:48Z</time>
      </trkpt>
      <trkpt lat="43.3268764056" lon="3.1863598712">
        <ele>36.67</ele>
        <time>2017-08-02T13:13:57Z</time>
      </trkpt>
      <trkpt lat="43.3268154692" lon="3.1868111528">
        <ele>36.67</ele>
        <time>2017-08-02T13:14:07Z</time>
      </trkpt>
      <trkpt lat="43.3267330751" lon="3.1873468403">
        <ele>36.67</ele>
        <time>2017-08-02T13:14:18Z</time>
      </trkpt>
      <trkpt lat="43.3267453127" lon="3.1877398677">
        <ele>36.67</ele>
        <time>2017-08-02T13:14:26Z</time>
      </trkpt>
      <trkpt lat="43.3268489130" lon="3.1882362440">
        <ele>36.67</ele>
        <time>2017-08-02T13:14:36Z</time>
      </trkpt>
      <trkpt lat="43.3270706981" lon="3.1886724383">
        <ele>36.67</ele>
        <time>2017-08-02T13:14:46Z</time>
      </trkpt>
      <trkpt lat="43.3271002024" lon="3.1887123361">
        <ele>36.67</ele>
        <time>2017-08-02T13:14:47Z</time>
      </trkpt>
      <trkpt lat="43.3273452055" lon="3.1890435051">
        <ele>36.67</ele>
        <time>2017-08-02T13:14:55Z</time>
      </trkpt>
      <trkpt lat="43.3276441041" lon="3.1894204393">
        <ele>36.67</ele>
        <time>2017-08-02T13:15:06Z</time>
      </trkpt>
      <trkpt lat="43.3278362174" lon="3.1897270493">
        <ele>36.67</ele>
        <time>2017-08-02T13:15:14Z</time>
      </trkpt>
      <trkpt lat="43.3280217927" lon="3.1899501756">
        <ele>36.67</ele>
        <time>2017-08-02T13:15:20Z</time>
      </trkpt>
      <trkpt lat="43.3283273131" lon="3.1903142855">
        <ele>36.67</ele>
        <time>2017-08-02T13:15:29Z</time>
      </trkpt>
      <trkpt lat="43.3284482639" lon="3.1904839352">
        <ele>36.67</ele>
        <time>2017-08-02T13:15:33Z</time>
      </trkpt>
      <trkpt lat="43.3284761757" lon="3.1905309577">
        <ele>36.67</ele>
        <time>2017-08-02T13:15:34Z</time>
      </trkpt>
      <trkpt lat="43.3285345975" lon="3.1906185485">
        <ele>36.67</ele>
        <time>2017-08-02T13:15:36Z</time>
      </trkpt>
      <trkpt lat="43.3285616711" lon="3.1906637270">
        <ele>36.67</ele>
        <time>2017-08-02T13:15:37Z</time>
      </trkpt>
      <trkpt lat="43.3285920136" lon="3.1907066423">
        <ele>37.15</ele>
        <time>2017-08-02T13:15:38Z</time>
      </trkpt>
      <trkpt lat="43.3287685364" lon="3.1909658946">
        <ele>36.67</ele>
        <time>2017-08-02T13:15:44Z</time>
      </trkpt>
      <trkpt lat="43.3289707918" lon="3.1912803836">
        <ele>36.67</ele>
        <time>2017-08-02T13:15:51Z</time>
      </trkpt>
      <trkpt lat="43.3290028945" lon="3.1913181022">
        <ele>36.67</ele>
        <time>2017-08-02T13:15:52Z</time>
      </trkpt>
      <trkpt lat="43.3290347457" lon="3.1913546473">
        <ele>36.67</ele>
        <time>2017-08-02T13:15:53Z</time>
      </trkpt>
      <trkpt lat="43.3291012980" lon="3.1914272346">
        <ele>36.67</ele>
        <time>2017-08-02T13:15:55Z</time>
      </trkpt>
      <trkpt lat="43.3292516693" lon="3.1915505324">
        <ele>36.67</ele>
        <time>2017-08-02T13:15:59Z</time>
      </trkpt>
      <trkpt lat="43.3295787312" lon="3.1917058490">
        <ele>36.67</ele>
        <time>2017-08-02T13:16:07Z</time>
      </trkpt>
      <trkpt lat="43.3296212275" lon="3.1917194277">
        <ele>36.67</ele>
        <time>2017-08-02T13:16:08Z</time>
      </trkpt>
      <trkpt lat="43.3298266679" lon="3.1917991396">
        <ele>36.67</ele>
        <time>2017-08-02T13:16:13Z</time>
      </trkpt>
      <trkpt lat="43.3298617881" lon="3.1918126345">
        <ele>36.67</ele>
        <time>2017-08-02T13:16:14Z</time>
      </trkpt>
      <trkpt lat="43.3299394883" lon="3.1918405462">
        <ele>36.67</ele>
        <time>2017-08-02T13:16:16Z</time>
      </trkpt>
      <trkpt lat="43.3299797215" lon="3.1918582320">
        <ele>36.67</ele>
        <time>2017-08-02T13:16:17Z</time>
      </trkpt>
      <trkpt lat="43.3303898480" lon="3.1920528598">
        <ele>37.15</ele>
        <time>2017-08-02T13:16:28Z</time>
      </trkpt>
      <trkpt lat="43.3305897564" lon="3.1922971085">
        <ele>37.15</ele>
        <time>2017-08-02T13:16:35Z</time>
      </trkpt>
      <trkpt lat="43.3305998147" lon="3.1923488248">
        <ele>37.15</ele>
        <time>2017-08-02T13:16:36Z</time>
      </trkpt>
      <trkpt lat="43.3306127228" lon="3.1923971884">
        <ele>37.15</ele>
        <time>2017-08-02T13:16:37Z</time>
      </trkpt>
      <trkpt lat="43.3306338452" lon="3.1924371701">
        <ele>36.67</ele>
        <time>2017-08-02T13:16:38Z</time>
      </trkpt>
      <trkpt lat="43.3306529559" lon="3.1924784090">
        <ele>36.67</ele>
        <time>2017-08-02T13:16:39Z</time>
      </trkpt>
      <trkpt lat="43.3306628466" lon="3.1925234199">
        <ele>36.67</ele>
        <time>2017-08-02T13:16:40Z</time>
      </trkpt>
      <trkpt lat="43.3306672890" lon="3.1925727054">
        <ele>36.67</ele>
        <time>2017-08-02T13:16:41Z</time>
      </trkpt>
      <trkpt lat="43.3306838851" lon="3.1930563413">
        <ele>37.15</ele>
        <time>2017-08-02T13:16:50Z</time>
      </trkpt>
      <trkpt lat="43.3306836337" lon="3.1931132544">
        <ele>36.67</ele>
        <time>2017-08-02T13:16:51Z</time>
      </trkpt>
      <trkpt lat="43.3306741621" lon="3.1933805533">
        <ele>36.67</ele>
        <time>2017-08-02T13:16:56Z</time>
      </trkpt>
      <trkpt lat="43.3306706417" lon="3.1934958044">
        <ele>36.67</ele>
        <time>2017-08-02T13:16:58Z</time>
      </trkpt>
      <trkpt lat="43.3306506928" lon="3.1936611794">
        <ele>36.67</ele>
        <time>2017-08-02T13:17:01Z</time>
      </trkpt>
      <trkpt lat="43.3306421433" lon="3.1937160809">
        <ele>36.67</ele>
        <time>2017-08-02T13:17:02Z</time>
      </trkpt>
      <trkpt lat="43.3306313306" lon="3.1937677972">
        <ele>36.67</ele>
        <time>2017-08-02T13:17:03Z</time>
      </trkpt>
      <trkpt lat="43.3306128066" lon="3.1938165799">
        <ele>36.67</ele>
        <time>2017-08-02T13:17:04Z</time>
      </trkpt>
      <trkpt lat="43.3305902593" lon="3.1938670389">
        <ele>37.15</ele>
        <time>2017-08-02T13:17:05Z</time>
      </trkpt>
      <trkpt lat="43.3305598330" lon="3.1939699687">
        <ele>37.15</ele>
        <time>2017-08-02T13:17:07Z</time>
      </trkpt>
      <trkpt lat="43.3305632696" lon="3.1940251216">
        <ele>36.67</ele>
        <time>2017-08-02T13:17:08Z</time>
      </trkpt>
      <trkpt lat="43.3305633534" lon="3.1940759160">
        <ele>36.67</ele>
        <time>2017-08-02T13:17:09Z</time>
      </trkpt>
      <trkpt lat="43.3305558097" lon="3.1941281352">
        <ele>37.15</ele>
        <time>2017-08-02T13:17:10Z</time>
      </trkpt>
      <trkpt lat="43.3305493556" lon="3.1941827852">
        <ele>36.67</ele>
        <time>2017-08-02T13:17:11Z</time>
      </trkpt>
      <trkpt lat="43.3305457514" lon="3.1942379382">
        <ele>36.67</ele>
        <time>2017-08-02T13:17:12Z</time>
      </trkpt>
      <trkpt lat="43.3304588310" lon="3.1948747113">
        <ele>36.67</ele>
        <time>2017-08-02T13:17:24Z</time>
      </trkpt>
      <trkpt lat="43.3304867428" lon="3.1955758575">
        <ele>37.15</ele>
        <time>2017-08-02T13:17:37Z</time>
      </trkpt>
      <trkpt lat="43.3305306640" lon="3.1960926019">
        <ele>36.67</ele>
        <time>2017-08-02T13:17:49Z</time>
      </trkpt>
      <trkpt lat="43.3305099607" lon="3.1964289676">
        <ele>37.15</ele>
        <time>2017-08-02T13:17:58Z</time>
      </trkpt>
      <trkpt lat="43.3303845674" lon="3.1968198158">
        <ele>37.15</ele>
        <time>2017-08-02T13:18:07Z</time>
      </trkpt>
      <trkpt lat="43.3301966451" lon="3.1973091513">
        <ele>37.15</ele>
        <time>2017-08-02T13:18:18Z</time>
      </trkpt>
      <trkpt lat="43.3301362116" lon="3.1976732612">
        <ele>37.63</ele>
        <time>2017-08-02T13:18:28Z</time>
      </trkpt>
      <trkpt lat="43.3301386423" lon="3.1979517918">
        <ele>37.63</ele>
        <time>2017-08-02T13:18:36Z</time>
      </trkpt>
      <trkpt lat="43.3301478624" lon="3.1979844812">
        <ele>38.11</ele>
        <time>2017-08-02T13:18:37Z</time>
      </trkpt>
      <trkpt lat="43.3302693162" lon="3.1983205117">
        <ele>36.67</ele>
        <time>2017-08-02T13:18:48Z</time>
      </trkpt>
      <trkpt lat="43.3303483576" lon="3.1986122020">
        <ele>36.19</ele>
        <time>2017-08-02T13:19:00Z</time>
      </trkpt>
      <trkpt lat="43.3304353617" lon="3.1988319755">
        <ele>35.23</ele>
        <time>2017-08-02T13:19:11Z</time>
      </trkpt>
      <trkpt lat="43.3304780256" lon="3.1990035530">
        <ele>34.26</ele>
        <time>2017-08-02T13:19:21Z</time>
      </trkpt>
      <trkpt lat="43.3305177558" lon="3.1991437823">
        <ele>33.78</ele>
        <time>2017-08-02T13:19:31Z</time>
      </trkpt>
      <trkpt lat="43.3305848949" lon="3.1993050501">
        <ele>32.34</ele>
        <time>2017-08-02T13:19:40Z</time>
      </trkpt>
      <trkpt lat="43.3306841366" lon="3.1995487958">
        <ele>30.90</ele>
        <time>2017-08-02T13:19:53Z</time>
      </trkpt>
      <trkpt lat="43.3306984697" lon="3.1995604467">
        <ele>30.90</ele>
        <time>2017-08-02T13:19:54Z</time>
      </trkpt>
      <trkpt lat="43.3307141438" lon="3.1995695829">
        <ele>30.90</ele>
        <time>2017-08-02T13:19:55Z</time>
      </trkpt>
      <trkpt lat="43.3307278901" lon="3.1995842513">
        <ele>30.42</ele>
        <time>2017-08-02T13:19:56Z</time>
      </trkpt>
      <trkpt lat="43.3307374455" lon="3.1996039487">
        <ele>30.42</ele>
        <time>2017-08-02T13:19:57Z</time>
      </trkpt>
      <trkpt lat="43.3307439834" lon="3.1996260770">
        <ele>30.42</ele>
        <time>2017-08-02T13:19:58Z</time>
      </trkpt>
      <trkpt lat="43.3307514433" lon="3.1996488757">
        <ele>29.94</ele>
        <time>2017-08-02T13:19:59Z</time>
      </trkpt>
      <trkpt lat="43.3307596575" lon="3.1996692438">
        <ele>29.94</ele>
        <time>2017-08-02T13:20:00Z</time>
      </trkpt>
      <trkpt lat="43.3307685424" lon="3.1996870134">
        <ele>29.46</ele>
        <time>2017-08-02T13:20:01Z</time>
      </trkpt>
      <trkpt lat="43.3308588993" lon="3.1999357883">
        <ele>28.50</ele>
        <time>2017-08-02T13:20:13Z</time>
      </trkpt>
      <trkpt lat="43.3309539501" lon="3.2001928613">
        <ele>25.13</ele>
        <time>2017-08-02T13:20:23Z</time>
      </trkpt>
      <trkpt lat="43.3311125357" lon="3.2005874813">
        <ele>23.69</ele>
        <time>2017-08-02T13:20:35Z</time>
      </trkpt>
      <trkpt lat="43.3312432095" lon="3.2008905709">
        <ele>22.73</ele>
        <time>2017-08-02T13:20:46Z</time>
      </trkpt>
      <trkpt lat="43.3312832750" lon="3.2009210810">
        <ele>22.25</ele>
        <time>2017-08-02T13:20:48Z</time>
      </trkpt>
      <trkpt lat="43.3313069120" lon="3.2009049878">
        <ele>22.73</ele>
        <time>2017-08-02T13:20:49Z</time>
      </trkpt>
      <trkpt lat="43.3313187305" lon="3.2008697838">
        <ele>22.25</ele>
        <time>2017-08-02T13:20:50Z</time>
      </trkpt>
      <trkpt lat="43.3313176408" lon="3.2008303888">
        <ele>22.25</ele>
        <time>2017-08-02T13:20:51Z</time>
      </trkpt>
      <trkpt lat="43.3313096780" lon="3.2007933408">
        <ele>22.73</ele>
        <time>2017-08-02T13:20:52Z</time>
      </trkpt>
      <trkpt lat="43.3312992007" lon="3.2007583044">
        <ele>22.73</ele>
        <time>2017-08-02T13:20:53Z</time>
      </trkpt>
      <trkpt lat="43.3312871307" lon="3.2007268723">
        <ele>22.73</ele>
        <time>2017-08-02T13:20:54Z</time>
      </trkpt>
      <trkpt lat="43.3312375098" lon="3.2005901635">
        <ele>22.73</ele>
        <time>2017-08-02T13:21:02Z</time>
      </trkpt>
      <trkpt lat="43.3312409464" lon="3.2005846314">
        <ele>22.73</ele>
        <time>2017-08-02T13:21:18Z</time>
      </trkpt>
      <trkpt lat="43.3312399406" lon="3.2005853858">
        <ele>22.25</ele>
        <time>2017-08-02T13:21:36Z</time>
      </trkpt>
      <trkpt lat="43.3312420361" lon="3.2005809434">
        <ele>22.73</ele>
        <time>2017-08-02T13:22:01Z</time>
      </trkpt>
      <trkpt lat="43.3312494121" lon="3.2005701307">
        <ele>23.21</ele>
        <time>2017-08-02T13:22:24Z</time>
      </trkpt>
      <trkpt lat="43.3312468976" lon="3.2005704660">
        <ele>23.21</ele>
        <time>2017-08-02T13:22:51Z</time>
      </trkpt>
      <trkpt lat="43.3312467299" lon="3.2005919237">
        <ele>22.73</ele>
        <time>2017-08-02T13:23:15Z</time>
      </trkpt>
      <trkpt lat="43.3312514238" lon="3.2005983777">
        <ele>23.21</ele>
        <time>2017-08-02T13:23:34Z</time>
      </trkpt>
      <trkpt lat="43.3312656730" lon="3.2005858887">
        <ele>22.73</ele>
        <time>2017-08-02T13:23:57Z</time>
      </trkpt>
      <trkpt lat="43.3312825207" lon="3.2005881518">
        <ele>23.21</ele>
        <time>2017-08-02T13:24:23Z</time>
      </trkpt>
      <trkpt lat="43.3312858734" lon="3.2005899120">
        <ele>22.73</ele>
        <time>2017-08-02T13:24:39Z</time>
      </trkpt>
      <trkpt lat="43.3312862087" lon="3.2005894091">
        <ele>22.73</ele>
        <time>2017-08-02T13:24:58Z</time>
      </trkpt>
      <trkpt lat="43.3312793355" lon="3.2005902473">
        <ele>23.21</ele>
        <time>2017-08-02T13:25:16Z</time>
      </trkpt>
      <trkpt lat="43.3312699478" lon="3.2005960308">
        <ele>22.73</ele>
        <time>2017-08-02T13:25:30Z</time>
      </trkpt>
      <trkpt lat="43.3312569559" lon="3.2005977072">
        <ele>22.73</ele>
        <time>2017-08-02T13:25:57Z</time>
      </trkpt>
      <trkpt lat="43.3312638290" lon="3.2005997188">
        <ele>22.73</ele>
        <time>2017-08-02T13:26:20Z</time>
      </trkpt>
      <trkpt lat="43.3312670980" lon="3.2006073464">
        <ele>22.73</ele>
        <time>2017-08-02T13:26:47Z</time>
      </trkpt>
      <trkpt lat="43.3312606439" lon="3.2006069273">
        <ele>22.73</ele>
        <time>2017-08-02T13:27:12Z</time>
      </trkpt>
      <trkpt lat="43.3312582131" lon="3.2006220147">
        <ele>22.73</ele>
        <time>2017-08-02T13:27:34Z</time>
      </trkpt>
      <trkpt lat="43.3312621526" lon="3.2006351743">
        <ele>22.73</ele>
        <time>2017-08-02T13:27:35Z</time>
      </trkpt>
      <trkpt lat="43.3312659245" lon="3.2006551232">
        <ele>22.73</ele>
        <time>2017-08-02T13:27:36Z</time>
      </trkpt>
      <trkpt lat="43.3312711213" lon="3.2006818615">
        <ele>22.73</ele>
        <time>2017-08-02T13:27:37Z</time>
      </trkpt>
      <trkpt lat="43.3312786650" lon="3.2007068396">
        <ele>22.73</ele>
        <time>2017-08-02T13:27:38Z</time>
      </trkpt>
      <trkpt lat="43.3312862925" lon="3.2007655967">
        <ele>22.73</ele>
        <time>2017-08-02T13:27:40Z</time>
      </trkpt>
      <trkpt lat="43.3312930819" lon="3.2007855456">
        <ele>22.73</ele>
        <time>2017-08-02T13:27:41Z</time>
      </trkpt>
      <trkpt lat="43.3313869592" lon="3.2009985298">
        <ele>20.32</ele>
        <time>2017-08-02T13:27:49Z</time>
      </trkpt>
      <trkpt lat="43.3313960116" lon="3.2010365836">
        <ele>22.73</ele>
        <time>2017-08-02T13:27:50Z</time>
      </trkpt>
      <trkpt lat="43.3314359095" lon="3.2011793274">
        <ele>21.29</ele>
        <time>2017-08-02T13:27:53Z</time>
      </trkpt>
      <trkpt lat="43.3314514160" lon="3.2014783937">
        <ele>19.84</ele>
        <time>2017-08-02T13:28:01Z</time>
      </trkpt>
      <trkpt lat="43.3314639051" lon="3.2015016954">
        <ele>20.32</ele>
        <time>2017-08-02T13:28:02Z</time>
      </trkpt>
      <trkpt lat="43.3314752206" lon="3.2015265897">
        <ele>19.84</ele>
        <time>2017-08-02T13:28:03Z</time>
      </trkpt>
      <trkpt lat="43.3316447865" lon="3.2019785419">
        <ele>18.88</ele>
        <time>2017-08-02T13:28:13Z</time>
      </trkpt>
      <trkpt lat="43.3316867799" lon="3.2020912785">
        <ele>18.40</ele>
        <time>2017-08-02T13:28:15Z</time>
      </trkpt>
      <trkpt lat="43.3319545817" lon="3.2027890719">
        <ele>16.96</ele>
        <time>2017-08-02T13:28:26Z</time>
      </trkpt>
      <trkpt lat="43.3322723396" lon="3.2035150286">
        <ele>16.48</ele>
        <time>2017-08-02T13:28:39Z</time>
      </trkpt>
      <trkpt lat="43.3326128963" lon="3.2041605189">
        <ele>16.00</ele>
        <time>2017-08-02T13:28:53Z</time>
      </trkpt>
      <trkpt lat="43.3328414708" lon="3.2044894248">
        <ele>15.52</ele>
        <time>2017-08-02T13:29:03Z</time>
      </trkpt>
      <trkpt lat="43.3331376035" lon="3.2049201708">
        <ele>16.00</ele>
        <time>2017-08-02T13:29:15Z</time>
      </trkpt>
      <trkpt lat="43.3334867097" lon="3.2054028846">
        <ele>15.52</ele>
        <time>2017-08-02T13:29:28Z</time>
      </trkpt>
      <trkpt lat="43.3338364027" lon="3.2058656495">
        <ele>16.00</ele>
        <time>2017-08-02T13:29:41Z</time>
      </trkpt>
      <trkpt lat="43.3341264166" lon="3.2062384766">
        <ele>15.52</ele>
        <time>2017-08-02T13:29:52Z</time>
      </trkpt>
      <trkpt lat="43.3344490360" lon="3.2066701446">
        <ele>16.00</ele>
        <time>2017-08-02T13:30:04Z</time>
      </trkpt>
      <trkpt lat="43.3346697316" lon="3.2069411315">
        <ele>16.00</ele>
        <time>2017-08-02T13:30:13Z</time>
      </trkpt>
      <trkpt lat="43.3347180951" lon="3.2070101984">
        <ele>16.00</ele>
        <time>2017-08-02T13:30:16Z</time>
      </trkpt>
      <trkpt lat="43.3347201068" lon="3.2070333324">
        <ele>16.00</ele>
        <time>2017-08-02T13:30:17Z</time>
      </trkpt>
      <trkpt lat="43.3347165864" lon="3.2070545387">
        <ele>16.00</ele>
        <time>2017-08-02T13:30:26Z</time>
      </trkpt>
      <trkpt lat="43.3347087074" lon="3.2070767507">
        <ele>16.00</ele>
        <time>2017-08-02T13:30:38Z</time>
      </trkpt>
      <trkpt lat="43.3347020019" lon="3.2070938498">
        <ele>16.00</ele>
        <time>2017-08-02T13:30:39Z</time>
      </trkpt>
      <trkpt lat="43.3346885908" lon="3.2071088534">
        <ele>16.00</ele>
        <time>2017-08-02T13:30:40Z</time>
      </trkpt>
      <trkpt lat="43.3344852459" lon="3.2072652597">
        <ele>16.00</ele>
        <time>2017-08-02T13:30:47Z</time>
      </trkpt>
      <trkpt lat="43.3344396483" lon="3.2073817682">
        <ele>16.00</ele>
        <time>2017-08-02T13:30:50Z</time>
      </trkpt>
      <trkpt lat="43.3344474435" lon="3.2074168883">
        <ele>15.52</ele>
        <time>2017-08-02T13:30:51Z</time>
      </trkpt>
      <trkpt lat="43.3344591781" lon="3.2074433751">
        <ele>16.00</ele>
        <time>2017-08-02T13:30:52Z</time>
      </trkpt>
      <trkpt lat="43.3344751876" lon="3.2074621506">
        <ele>15.52</ele>
        <time>2017-08-02T13:30:53Z</time>
      </trkpt>
      <trkpt lat="43.3344943821" lon="3.2074829377">
        <ele>15.52</ele>
        <time>2017-08-02T13:30:54Z</time>
      </trkpt>
      <trkpt lat="43.3345175162" lon="3.2075105142">
        <ele>15.52</ele>
        <time>2017-08-02T13:30:55Z</time>
      </trkpt>
      <trkpt lat="43.3347878326" lon="3.2078255061">
        <ele>15.52</ele>
        <time>2017-08-02T13:31:06Z</time>
      </trkpt>
      <trkpt lat="43.3350952808" lon="3.2081456110">
        <ele>15.52</ele>
        <time>2017-08-02T13:31:17Z</time>
      </trkpt>
      <trkpt lat="43.3353652619" lon="3.2084837370">
        <ele>15.52</ele>
        <time>2017-08-02T13:31:28Z</time>
      </trkpt>
      <trkpt lat="43.3355163038" lon="3.2087638602">
        <ele>15.52</ele>
        <time>2017-08-02T13:31:37Z</time>
      </trkpt>
      <trkpt lat="43.3355717920" lon="3.2088781893">
        <ele>16.00</ele>
        <time>2017-08-02T13:31:43Z</time>
      </trkpt>
      <trkpt lat="43.3355624881" lon="3.2089033350">
        <ele>16.00</ele>
        <time>2017-08-02T13:31:44Z</time>
      </trkpt>
      <trkpt lat="43.3355458919" lon="3.2089287322">
        <ele>16.00</ele>
        <time>2017-08-02T13:31:45Z</time>
      </trkpt>
      <trkpt lat="43.3355261106" lon="3.2089547999">
        <ele>16.48</ele>
        <time>2017-08-02T13:31:46Z</time>
      </trkpt>
      <trkpt lat="43.3355051558" lon="3.2089837175">
        <ele>16.48</ele>
        <time>2017-08-02T13:31:47Z</time>
      </trkpt>
      <trkpt lat="43.3354839496" lon="3.2090174966">
        <ele>16.00</ele>
        <time>2017-08-02T13:31:48Z</time>
      </trkpt>
      <trkpt lat="43.3354621567" lon="3.2090536226">
        <ele>16.00</ele>
        <time>2017-08-02T13:31:49Z</time>
      </trkpt>
      <trkpt lat="43.3351874817" lon="3.2094607316">
        <ele>15.52</ele>
        <time>2017-08-02T13:32:00Z</time>
      </trkpt>
      <trkpt lat="43.3350825403" lon="3.2096232567">
        <ele>18.88</ele>
        <time>2017-08-02T13:32:04Z</time>
      </trkpt>
      <trkpt lat="43.3350238670" lon="3.2097003702">
        <ele>15.52</ele>
        <time>2017-08-02T13:32:06Z</time>
      </trkpt>
      <trkpt lat="43.3348239586" lon="3.2100084890">
        <ele>14.56</ele>
        <time>2017-08-02T13:32:14Z</time>
      </trkpt>
      <trkpt lat="43.3347674645" lon="3.2100964151">
        <ele>15.04</ele>
        <time>2017-08-02T13:32:16Z</time>
      </trkpt>
      <trkpt lat="43.3346999064" lon="3.2101739477">
        <ele>14.56</ele>
        <time>2017-08-02T13:32:18Z</time>
      </trkpt>
      <trkpt lat="43.3346618526" lon="3.2102059666">
        <ele>15.04</ele>
        <time>2017-08-02T13:32:19Z</time>
      </trkpt>
      <trkpt lat="43.3342641313" lon="3.2104080543">
        <ele>15.04</ele>
        <time>2017-08-02T13:32:30Z</time>
      </trkpt>
      <trkpt lat="43.3342254907" lon="3.2104195375">
        <ele>15.04</ele>
        <time>2017-08-02T13:32:31Z</time>
      </trkpt>
      <trkpt lat="43.3341883589" lon="3.2104361337">
        <ele>15.04</ele>
        <time>2017-08-02T13:32:32Z</time>
      </trkpt>
      <trkpt lat="43.3341522329" lon="3.2104616985">
        <ele>15.04</ele>
        <time>2017-08-02T13:32:33Z</time>
      </trkpt>
      <trkpt lat="43.3341200463" lon="3.2104956452">
        <ele>15.04</ele>
        <time>2017-08-02T13:32:34Z</time>
      </trkpt>
      <trkpt lat="43.3340923861" lon="3.2105364650">
        <ele>15.04</ele>
        <time>2017-08-02T13:32:35Z</time>
      </trkpt>
      <trkpt lat="43.3340706769" lon="3.2105825655">
        <ele>14.56</ele>
        <time>2017-08-02T13:32:36Z</time>
      </trkpt>
      <trkpt lat="43.3340539970" lon="3.2106309291">
        <ele>14.56</ele>
        <time>2017-08-02T13:32:37Z</time>
      </trkpt>
      <trkpt lat="43.3340433519" lon="3.2106818911">
        <ele>15.04</ele>
        <time>2017-08-02T13:32:38Z</time>
      </trkpt>
      <trkpt lat="43.3340383228" lon="3.2107355352">
        <ele>15.04</ele>
        <time>2017-08-02T13:32:39Z</time>
      </trkpt>
      <trkpt lat="43.3340402506" lon="3.2107886765">
        <ele>15.04</ele>
        <time>2017-08-02T13:32:40Z</time>
      </trkpt>
      <trkpt lat="43.3340471238" lon="3.2108382974">
        <ele>15.52</ele>
        <time>2017-08-02T13:32:41Z</time>
      </trkpt>
      <trkpt lat="43.3340603672" lon="3.2108869124">
        <ele>15.52</ele>
        <time>2017-08-02T13:32:42Z</time>
      </trkpt>
      <trkpt lat="43.3340791427" lon="3.2109316718">
        <ele>15.52</ele>
        <time>2017-08-02T13:32:43Z</time>
      </trkpt>
      <trkpt lat="43.3341033664" lon="3.2109693903">
        <ele>15.52</ele>
        <time>2017-08-02T13:32:44Z</time>
      </trkpt>
      <trkpt lat="43.3341316972" lon="3.2110011578">
        <ele>16.00</ele>
        <time>2017-08-02T13:32:45Z</time>
      </trkpt>
      <trkpt lat="43.3341608662" lon="3.2110273093">
        <ele>15.52</ele>
        <time>2017-08-02T13:32:46Z</time>
      </trkpt>
      <trkpt lat="43.3341911249" lon="3.2110462524">
        <ele>15.52</ele>
        <time>2017-08-02T13:32:47Z</time>
      </trkpt>
      <trkpt lat="43.3342244010" lon="3.2110563945">
        <ele>16.00</ele>
        <time>2017-08-02T13:32:48Z</time>
      </trkpt>
      <trkpt lat="43.3342593536" lon="3.2110601664">
        <ele>16.00</ele>
        <time>2017-08-02T13:32:49Z</time>
      </trkpt>
      <trkpt lat="43.3345483616" lon="3.2112445682">
        <ele>16.00</ele>
        <time>2017-08-02T13:32:58Z</time>
      </trkpt>
      <trkpt lat="43.3347464260" lon="3.2115505915">
        <ele>17.92</ele>
        <time>2017-08-02T13:33:10Z</time>
      </trkpt>
      <trkpt lat="43.3349516150" lon="3.2118793298">
        <ele>20.32</ele>
        <time>2017-08-02T13:33:22Z</time>
      </trkpt>
      <trkpt lat="43.3352048323" lon="3.2122926414">
        <ele>21.29</ele>
        <time>2017-08-02T13:33:36Z</time>
      </trkpt>
      <trkpt lat="43.3355595544" lon="3.2128445059">
        <ele>20.81</ele>
        <time>2017-08-02T13:33:50Z</time>
      </trkpt>
      <trkpt lat="43.3359336387" lon="3.2134575583">
        <ele>20.32</ele>
        <time>2017-08-02T13:34:03Z</time>
      </trkpt>
      <trkpt lat="43.3361373190" lon="3.2138758153">
        <ele>19.84</ele>
        <time>2017-08-02T13:34:12Z</time>
      </trkpt>
      <trkpt lat="43.3361429349" lon="3.2139325608">
        <ele>19.84</ele>
        <time>2017-08-02T13:34:13Z</time>
      </trkpt>
      <trkpt lat="43.3361385763" lon="3.2139909826">
        <ele>19.84</ele>
        <time>2017-08-02T13:34:14Z</time>
      </trkpt>
      <trkpt lat="43.3361370675" lon="3.2140490692">
        <ele>19.84</ele>
        <time>2017-08-02T13:34:15Z</time>
      </trkpt>
      <trkpt lat="43.3361415938" lon="3.2141069043">
        <ele>19.84</ele>
        <time>2017-08-02T13:34:16Z</time>
      </trkpt>
      <trkpt lat="43.3361534122" lon="3.2141649909">
        <ele>19.36</ele>
        <time>2017-08-02T13:34:17Z</time>
      </trkpt>
      <trkpt lat="43.3361725230" lon="3.2142203115">
        <ele>19.36</ele>
        <time>2017-08-02T13:34:18Z</time>
      </trkpt>
      <trkpt lat="43.3362008538" lon="3.2142683398">
        <ele>19.36</ele>
        <time>2017-08-02T13:34:19Z</time>
      </trkpt>
      <trkpt lat="43.3362330403" lon="3.2143114228">
        <ele>19.36</ele>
        <time>2017-08-02T13:34:20Z</time>
      </trkpt>
      <trkpt lat="43.3362594433" lon="3.2143596187">
        <ele>19.36</ele>
        <time>2017-08-02T13:34:21Z</time>
      </trkpt>
      <trkpt lat="43.3362751175" lon="3.2144178730">
        <ele>19.36</ele>
        <time>2017-08-02T13:34:22Z</time>
      </trkpt>
      <trkpt lat="43.3362769615" lon="3.2144811563">
        <ele>19.36</ele>
        <time>2017-08-02T13:34:23Z</time>
      </trkpt>
      <trkpt lat="43.3362669032" lon="3.2145418413">
        <ele>18.88</ele>
        <time>2017-08-02T13:34:24Z</time>
      </trkpt>
      <trkpt lat="43.3362513129" lon="3.2146014366">
        <ele>18.88</ele>
        <time>2017-08-02T13:34:25Z</time>
      </trkpt>
      <trkpt lat="43.3362380695" lon="3.2146626245">
        <ele>18.88</ele>
        <time>2017-08-02T13:34:26Z</time>
      </trkpt>
      <trkpt lat="43.3362301905" lon="3.2147267461">
        <ele>18.88</ele>
        <time>2017-08-02T13:34:27Z</time>
      </trkpt>
      <trkpt lat="43.3362233173" lon="3.2147899456">
        <ele>18.40</ele>
        <time>2017-08-02T13:34:28Z</time>
      </trkpt>
      <trkpt lat="43.3361234050" lon="3.2152108848">
        <ele>18.40</ele>
        <time>2017-08-02T13:34:35Z</time>
      </trkpt>
      <trkpt lat="43.3361018635" lon="3.2152633555">
        <ele>18.40</ele>
        <time>2017-08-02T13:34:36Z</time>
      </trkpt>
      <trkpt lat="43.3360519074" lon="3.2153669558">
        <ele>18.40</ele>
        <time>2017-08-02T13:34:38Z</time>
      </trkpt>
      <trkpt lat="43.3360326290" lon="3.2154215220">
        <ele>18.40</ele>
        <time>2017-08-02T13:34:39Z</time>
      </trkpt>
      <trkpt lat="43.3360111713" lon="3.2154766750">
        <ele>18.40</ele>
        <time>2017-08-02T13:34:40Z</time>
      </trkpt>
      <trkpt lat="43.3359889593" lon="3.2155321632">
        <ele>18.40</ele>
        <time>2017-08-02T13:34:41Z</time>
      </trkpt>
      <trkpt lat="43.3359638974" lon="3.2155866455">
        <ele>18.40</ele>
        <time>2017-08-02T13:34:42Z</time>
      </trkpt>
      <trkpt lat="43.3359372430" lon="3.2156395353">
        <ele>18.40</ele>
        <time>2017-08-02T13:34:43Z</time>
      </trkpt>
      <trkpt lat="43.3358301222" lon="3.2158987876">
        <ele>18.40</ele>
        <time>2017-08-02T13:34:48Z</time>
      </trkpt>
      <trkpt lat="43.3358024620" lon="3.2159474026">
        <ele>18.40</ele>
        <time>2017-08-02T13:34:49Z</time>
      </trkpt>
      <trkpt lat="43.3357791603" lon="3.2159992028">
        <ele>18.40</ele>
        <time>2017-08-02T13:34:50Z</time>
      </trkpt>
      <trkpt lat="43.3355472330" lon="3.2167767081">
        <ele>18.88</ele>
        <time>2017-08-02T13:35:04Z</time>
      </trkpt>
      <trkpt lat="43.3353697881" lon="3.2177124638">
        <ele>17.92</ele>
        <time>2017-08-02T13:35:19Z</time>
      </trkpt>
      <trkpt lat="43.3351976238" lon="3.2185826730">
        <ele>16.96</ele>
        <time>2017-08-02T13:35:32Z</time>
      </trkpt>
      <trkpt lat="43.3351904992" lon="3.2186533324">
        <ele>16.96</ele>
        <time>2017-08-02T13:35:33Z</time>
      </trkpt>
      <trkpt lat="43.3351836260" lon="3.2187218964">
        <ele>16.96</ele>
        <time>2017-08-02T13:35:34Z</time>
      </trkpt>
      <trkpt lat="43.3350577299" lon="3.2196067739">
        <ele>16.48</ele>
        <time>2017-08-02T13:35:48Z</time>
      </trkpt>
      <trkpt lat="43.3350045048" lon="3.2201451436">
        <ele>16.96</ele>
        <time>2017-08-02T13:35:57Z</time>
      </trkpt>
      <trkpt lat="43.3349608351" lon="3.2205301244">
        <ele>17.44</ele>
        <time>2017-08-02T13:36:03Z</time>
      </trkpt>
      <trkpt lat="43.3348779380" lon="3.2211641315">
        <ele>16.96</ele>
        <time>2017-08-02T13:36:13Z</time>
      </trkpt>
      <trkpt lat="43.3347737510" lon="3.2217572350">
        <ele>16.96</ele>
        <time>2017-08-02T13:36:24Z</time>
      </trkpt>
      <trkpt lat="43.3347440790" lon="3.2218045089">
        <ele>16.96</ele>
        <time>2017-08-02T13:36:25Z</time>
      </trkpt>
      <trkpt lat="43.3347070310" lon="3.2218466699">
        <ele>16.96</ele>
        <time>2017-08-02T13:36:26Z</time>
      </trkpt>
      <trkpt lat="43.3346706536" lon="3.2218927704">
        <ele>16.96</ele>
        <time>2017-08-02T13:36:27Z</time>
      </trkpt>
      <trkpt lat="43.3346419036" lon="3.2219492644">
        <ele>16.48</ele>
        <time>2017-08-02T13:36:28Z</time>
      </trkpt>
      <trkpt lat="43.3346289955" lon="3.2220133021">
        <ele>16.48</ele>
        <time>2017-08-02T13:36:29Z</time>
      </trkpt>
      <trkpt lat="43.3346327674" lon="3.2220824528">
        <ele>16.48</ele>
        <time>2017-08-02T13:36:30Z</time>
      </trkpt>
      <trkpt lat="43.3346499503" lon="3.2221482508">
        <ele>16.48</ele>
        <time>2017-08-02T13:36:31Z</time>
      </trkpt>
      <trkpt lat="43.3346792031" lon="3.2222038228">
        <ele>16.00</ele>
        <time>2017-08-02T13:36:32Z</time>
      </trkpt>
      <trkpt lat="43.3347215317" lon="3.2222427987">
        <ele>16.00</ele>
        <time>2017-08-02T13:36:33Z</time>
      </trkpt>
      <trkpt lat="43.3347688895" lon="3.2222676929">
        <ele>16.00</ele>
        <time>2017-08-02T13:36:34Z</time>
      </trkpt>
      <trkpt lat="43.3348192647" lon="3.2222838700">
        <ele>16.00</ele>
        <time>2017-08-02T13:36:35Z</time>
      </trkpt>
      <trkpt lat="43.3351722267" lon="3.2223634142">
        <ele>15.52</ele>
        <time>2017-08-02T13:36:42Z</time>
      </trkpt>
      <trkpt lat="43.3355450537" lon="3.2223880570">
        <ele>16.00</ele>
        <time>2017-08-02T13:36:51Z</time>
      </trkpt>
      <trkpt lat="43.3357125241" lon="3.2224955969">
        <ele>16.00</ele>
        <time>2017-08-02T13:36:55Z</time>
      </trkpt>
      <trkpt lat="43.3357696887" lon="3.2225512527">
        <ele>16.00</ele>
        <time>2017-08-02T13:36:56Z</time>
      </trkpt>
      <trkpt lat="43.3358290326" lon="3.2226069923">
        <ele>16.00</ele>
        <time>2017-08-02T13:36:57Z</time>
      </trkpt>
      <trkpt lat="43.3358796593" lon="3.2226586249">
        <ele>16.48</ele>
        <time>2017-08-02T13:36:58Z</time>
      </trkpt>
      <trkpt lat="43.3358981833" lon="3.2227103412">
        <ele>16.00</ele>
        <time>2017-08-02T13:36:59Z</time>
      </trkpt>
      <trkpt lat="43.3359073196" lon="3.2227551006">
        <ele>16.48</ele>
        <time>2017-08-02T13:37:00Z</time>
      </trkpt>
      <trkpt lat="43.3359144442" lon="3.2227981836">
        <ele>16.48</ele>
        <time>2017-08-02T13:37:01Z</time>
      </trkpt>
      <trkpt lat="43.3359275199" lon="3.2228351478">
        <ele>16.96</ele>
        <time>2017-08-02T13:37:02Z</time>
      </trkpt>
      <trkpt lat="43.3359374106" lon="3.2228707708">
        <ele>16.96</ele>
        <time>2017-08-02T13:37:03Z</time>
      </trkpt>
      <trkpt lat="43.3359526657" lon="3.2229039632">
        <ele>16.96</ele>
        <time>2017-08-02T13:37:04Z</time>
      </trkpt>
      <trkpt lat="43.3361507300" lon="3.2231474575">
        <ele>17.92</ele>
        <time>2017-08-02T13:37:12Z</time>
      </trkpt>
      <trkpt lat="43.3361624647" lon="3.2235183567">
        <ele>18.88</ele>
        <time>2017-08-02T13:37:20Z</time>
      </trkpt>
      <trkpt lat="43.3361468744" lon="3.2235537283">
        <ele>18.88</ele>
        <time>2017-08-02T13:37:21Z</time>
      </trkpt>
      <trkpt lat="43.3361384086" lon="3.2235872559">
        <ele>19.84</ele>
        <time>2017-08-02T13:37:22Z</time>
      </trkpt>
      <trkpt lat="43.3361389115" lon="3.2236208674">
        <ele>19.36</ele>
        <time>2017-08-02T13:37:23Z</time>
      </trkpt>
      <trkpt lat="43.3361446951" lon="3.2236541435">
        <ele>19.36</ele>
        <time>2017-08-02T13:37:24Z</time>
      </trkpt>
      <trkpt lat="43.3361831680" lon="3.2240076084">
        <ele>20.81</ele>
        <time>2017-08-02T13:37:35Z</time>
      </trkpt>
      <trkpt lat="43.3362019435" lon="3.2243138831">
        <ele>22.25</ele>
        <time>2017-08-02T13:37:45Z</time>
      </trkpt>
      <trkpt lat="43.3362040389" lon="3.2244955190">
        <ele>23.21</ele>
        <time>2017-08-02T13:37:52Z</time>
      </trkpt>
      <trkpt lat="43.3362089843" lon="3.2245177310">
        <ele>23.21</ele>
        <time>2017-08-02T13:37:53Z</time>
      </trkpt>
      <trkpt lat="43.3362065535" lon="3.2245396078">
        <ele>23.21</ele>
        <time>2017-08-02T13:37:54Z</time>
      </trkpt>
      <trkpt lat="43.3361972496" lon="3.2246396039">
        <ele>23.69</ele>
        <time>2017-08-02T13:38:02Z</time>
      </trkpt>
      <trkpt lat="43.3362048771" lon="3.2246451359">
        <ele>23.69</ele>
        <time>2017-08-02T13:38:03Z</time>
      </trkpt>
      <trkpt lat="43.3362094872" lon="3.2246618159">
        <ele>23.21</ele>
        <time>2017-08-02T13:38:04Z</time>
      </trkpt>
      <trkpt lat="43.3362082299" lon="3.2246807590">
        <ele>23.21</ele>
        <time>2017-08-02T13:38:05Z</time>
      </trkpt>
      <trkpt lat="43.3362181205" lon="3.2247069944">
        <ele>23.69</ele>
        <time>2017-08-02T13:38:06Z</time>
      </trkpt>
      <trkpt lat="43.3362227306" lon="3.2247381750">
        <ele>23.69</ele>
        <time>2017-08-02T13:38:07Z</time>
      </trkpt>
      <trkpt lat="43.3362275921" lon="3.2247736305">
        <ele>23.69</ele>
        <time>2017-08-02T13:38:08Z</time>
      </trkpt>
      <trkpt lat="43.3362317830" lon="3.2248089183">
        <ele>23.69</ele>
        <time>2017-08-02T13:38:09Z</time>
      </trkpt>
      <trkpt lat="43.3362342976" lon="3.2248435356">
        <ele>24.17</ele>
        <time>2017-08-02T13:38:10Z</time>
      </trkpt>
      <trkpt lat="43.3362458646" lon="3.2251885347">
        <ele>24.65</ele>
        <time>2017-08-02T13:38:20Z</time>
      </trkpt>
      <trkpt lat="43.3364082221" lon="3.2253710926">
        <ele>25.13</ele>
        <time>2017-08-02T13:38:27Z</time>
      </trkpt>
      <trkpt lat="43.3364623692" lon="3.2253788039">
        <ele>25.13</ele>
        <time>2017-08-02T13:38:29Z</time>
      </trkpt>
      <trkpt lat="43.3364948072" lon="3.2253636327">
        <ele>25.13</ele>
        <time>2017-08-02T13:38:30Z</time>
      </trkpt>
      <trkpt lat="43.3365252335" lon="3.2253375649">
        <ele>24.65</ele>
        <time>2017-08-02T13:38:31Z</time>
      </trkpt>
      <trkpt lat="43.3365487028" lon="3.2253015228">
        <ele>24.65</ele>
        <time>2017-08-02T13:38:32Z</time>
      </trkpt>
      <trkpt lat="43.3365644608" lon="3.2252570149">
        <ele>24.65</ele>
        <time>2017-08-02T13:38:33Z</time>
      </trkpt>
      <trkpt lat="43.3365731779" lon="3.2252090704">
        <ele>25.13</ele>
        <time>2017-08-02T13:38:34Z</time>
      </trkpt>
      <trkpt lat="43.3365785424" lon="3.2251613773">
        <ele>25.13</ele>
        <time>2017-08-02T13:38:35Z</time>
      </trkpt>
      <trkpt lat="43.3365890197" lon="3.2251177914">
        <ele>24.65</ele>
        <time>2017-08-02T13:38:36Z</time>
      </trkpt>
      <trkpt lat="43.3366099745" lon="3.2250844315">
        <ele>24.65</ele>
        <time>2017-08-02T13:38:37Z</time>
      </trkpt>
      <trkpt lat="43.3366407361" lon="3.2250649016">
        <ele>24.65</ele>
        <time>2017-08-02T13:38:38Z</time>
      </trkpt>
      <trkpt lat="43.3366686478" lon="3.2250504009">
        <ele>25.13</ele>
        <time>2017-08-02T13:38:39Z</time>
      </trkpt>
      <trkpt lat="43.3366880100" lon="3.2250333019">
        <ele>25.13</ele>
        <time>2017-08-02T13:38:40Z</time>
      </trkpt>
      <trkpt lat="43.3367037680" lon="3.2250156999">
        <ele>25.61</ele>
        <time>2017-08-02T13:38:41Z</time>
      </trkpt>
      <trkpt lat="43.3367218729" lon="3.2249933202">
        <ele>26.09</ele>
        <time>2017-08-02T13:38:42Z</time>
      </trkpt>
      <trkpt lat="43.3367461804" lon="3.2249701023">
        <ele>26.09</ele>
        <time>2017-08-02T13:38:43Z</time>
      </trkpt>
      <trkpt lat="43.3367706556" lon="3.2249468006">
        <ele>26.09</ele>
        <time>2017-08-02T13:38:44Z</time>
      </trkpt>
      <trkpt lat="43.3369482681" lon="3.2246670965">
        <ele>27.53</ele>
        <time>2017-08-02T13:38:54Z</time>
      </trkpt>
      <trkpt lat="43.3371109609" lon="3.2243329939">
        <ele>28.98</ele>
        <time>2017-08-02T13:39:07Z</time>
      </trkpt>
      <trkpt lat="43.3372233622" lon="3.2241295651">
        <ele>29.94</ele>
        <time>2017-08-02T13:39:16Z</time>
      </trkpt>
      <trkpt lat="43.3373712189" lon="3.2238499448">
        <ele>31.38</ele>
        <time>2017-08-02T13:39:28Z</time>
      </trkpt>
      <trkpt lat="43.3375113644" lon="3.2235758565">
        <ele>33.30</ele>
        <time>2017-08-02T13:39:40Z</time>
      </trkpt>
      <trkpt lat="43.3376829419" lon="3.2233431749">
        <ele>34.26</ele>
        <time>2017-08-02T13:39:51Z</time>
      </trkpt>
      <trkpt lat="43.3377275337" lon="3.2232866809">
        <ele>34.74</ele>
        <time>2017-08-02T13:39:54Z</time>
      </trkpt>
      <trkpt lat="43.3377375081" lon="3.2232616190">
        <ele>34.74</ele>
        <time>2017-08-02T13:39:55Z</time>
      </trkpt>
      <trkpt lat="43.3377497457" lon="3.2232371438">
        <ele>34.74</ele>
        <time>2017-08-02T13:39:56Z</time>
      </trkpt>
      <trkpt lat="43.3377632406" lon="3.2232148480">
        <ele>35.23</ele>
        <time>2017-08-02T13:39:57Z</time>
      </trkpt>
      <trkpt lat="43.3377780765" lon="3.2231924683">
        <ele>35.23</ele>
        <time>2017-08-02T13:39:58Z</time>
      </trkpt>
      <trkpt lat="43.3379021287" lon="3.2229751255">
        <ele>36.67</ele>
        <time>2017-08-02T13:40:07Z</time>
      </trkpt>
      <trkpt lat="43.3379281126" lon="3.2229328807">
        <ele>36.67</ele>
        <time>2017-08-02T13:40:09Z</time>
      </trkpt>
      <trkpt lat="43.3379439544" lon="3.2229182962">
        <ele>37.15</ele>
        <time>2017-08-02T13:40:10Z</time>
      </trkpt>
      <trkpt lat="43.3379590418" lon="3.2229058072">
        <ele>37.15</ele>
        <time>2017-08-02T13:40:11Z</time>
      </trkpt>
      <trkpt lat="43.3379711956" lon="3.2228926476">
        <ele>37.63</ele>
        <time>2017-08-02T13:40:12Z</time>
      </trkpt>
      <trkpt lat="43.3379771467" lon="3.2228771411">
        <ele>38.11</ele>
        <time>2017-08-02T13:40:13Z</time>
      </trkpt>
      <trkpt lat="43.3379887138" lon="3.2228618860">
        <ele>38.11</ele>
        <time>2017-08-02T13:40:14Z</time>
      </trkpt>
      <trkpt lat="43.3379973471" lon="3.2228425238">
        <ele>38.11</ele>
        <time>2017-08-02T13:40:15Z</time>
      </trkpt>
      <trkpt lat="43.3381212316" lon="3.2226296235">
        <ele>38.11</ele>
        <time>2017-08-02T13:40:25Z</time>
      </trkpt>
      <trkpt lat="43.3382881153" lon="3.2223386876">
        <ele>39.55</ele>
        <time>2017-08-02T13:40:37Z</time>
      </trkpt>
      <trkpt lat="43.3384591900" lon="3.2220566366">
        <ele>41.47</ele>
        <time>2017-08-02T13:40:48Z</time>
      </trkpt>
      <trkpt lat="43.3386015985" lon="3.2218443230">
        <ele>42.92</ele>
        <time>2017-08-02T13:40:57Z</time>
      </trkpt>
      <trkpt lat="43.3387419954" lon="3.2216394693">
        <ele>43.88</ele>
        <time>2017-08-02T13:41:06Z</time>
      </trkpt>
      <trkpt lat="43.3389220387" lon="3.2214642037">
        <ele>45.32</ele>
        <time>2017-08-02T13:41:15Z</time>
      </trkpt>
      <trkpt lat="43.3391018305" lon="3.2211505529">
        <ele>46.76</ele>
        <time>2017-08-02T13:41:28Z</time>
      </trkpt>
      <trkpt lat="43.3391556423" lon="3.2210836653">
        <ele>47.24</ele>
        <time>2017-08-02T13:41:32Z</time>
      </trkpt>
      <trkpt lat="43.3391677961" lon="3.2210621238">
        <ele>47.24</ele>
        <time>2017-08-02T13:41:33Z</time>
      </trkpt>
      <trkpt lat="43.3391805366" lon="3.2210424263">
        <ele>47.24</ele>
        <time>2017-08-02T13:41:34Z</time>
      </trkpt>
      <trkpt lat="43.3391918521" lon="3.2210199628">
        <ele>47.24</ele>
        <time>2017-08-02T13:41:35Z</time>
      </trkpt>
      <trkpt lat="43.3392045088" lon="3.2209962420">
        <ele>47.24</ele>
        <time>2017-08-02T13:41:36Z</time>
      </trkpt>
      <trkpt lat="43.3392137289" lon="3.2209704258">
        <ele>47.24</ele>
        <time>2017-08-02T13:41:37Z</time>
      </trkpt>
      <trkpt lat="43.3393657766" lon="3.2206934039">
        <ele>48.20</ele>
        <time>2017-08-02T13:41:49Z</time>
      </trkpt>
      <trkpt lat="43.3395036589" lon="3.2204058208">
        <ele>49.65</ele>
        <time>2017-08-02T13:42:00Z</time>
      </trkpt>
      <trkpt lat="43.3396256994" lon="3.2201547828">
        <ele>50.61</ele>
        <time>2017-08-02T13:42:10Z</time>
      </trkpt>
      <trkpt lat="43.3397428785" lon="3.2199511863">
        <ele>51.09</ele>
        <time>2017-08-02T13:42:18Z</time>
      </trkpt>
      <trkpt lat="43.3397494163" lon="3.2199122943">
        <ele>50.61</ele>
        <time>2017-08-02T13:42:19Z</time>
      </trkpt>
      <trkpt lat="43.3398616500" lon="3.2196365297">
        <ele>51.57</ele>
        <time>2017-08-02T13:42:28Z</time>
      </trkpt>
      <trkpt lat="43.3400338143" lon="3.2193906046">
        <ele>52.53</ele>
        <time>2017-08-02T13:42:38Z</time>
      </trkpt>
      <trkpt lat="43.3400802501" lon="3.2193287462">
        <ele>53.01</ele>
        <time>2017-08-02T13:42:44Z</time>
      </trkpt>
      <trkpt lat="43.3400856145" lon="3.2193128206">
        <ele>53.01</ele>
        <time>2017-08-02T13:42:45Z</time>
      </trkpt>
      <trkpt lat="43.3400914818" lon="3.2192939613">
        <ele>53.01</ele>
        <time>2017-08-02T13:42:46Z</time>
      </trkpt>
      <trkpt lat="43.3401051443" lon="3.2192702405">
        <ele>52.53</ele>
        <time>2017-08-02T13:42:47Z</time>
      </trkpt>
      <trkpt lat="43.3401206508" lon="3.2192438375">
        <ele>53.01</ele>
        <time>2017-08-02T13:42:48Z</time>
      </trkpt>
      <trkpt lat="43.3402338903" lon="3.2190848328">
        <ele>53.49</ele>
        <time>2017-08-02T13:42:56Z</time>
      </trkpt>
      <trkpt lat="43.3402412664" lon="3.2190554123">
        <ele>53.97</ele>
        <time>2017-08-02T13:43:06Z</time>
      </trkpt>
      <trkpt lat="43.3402412664" lon="3.2190519758">
        <ele>50.61</ele>
        <time>2017-08-02T13:43:12Z</time>
      </trkpt>
      <trkpt lat="43.3402407635" lon="3.2190505508">
        <ele>56.86</ele>
        <time>2017-08-02T13:43:13Z</time>
      </trkpt>
      <trkpt lat="43.3402405120" lon="3.2190490421">
        <ele>53.01</ele>
        <time>2017-08-02T13:43:14Z</time>
      </trkpt>
      <trkpt lat="43.3402405120" lon="3.2190487068">
        <ele>57.34</ele>
        <time>2017-08-02T13:43:15Z</time>
      </trkpt>
      <trkpt lat="43.3402401768" lon="3.2190478686">
        <ele>53.49</ele>
        <time>2017-08-02T13:43:16Z</time>
      </trkpt>
      <trkpt lat="43.3402396739" lon="3.2190565020">
        <ele>53.97</ele>
        <time>2017-08-02T13:43:36Z</time>
      </trkpt>
      <trkpt lat="43.3402692620" lon="3.2189887762">
        <ele>53.49</ele>
        <time>2017-08-02T13:43:40Z</time>
      </trkpt>
      <trkpt lat="43.3402815834" lon="3.2189595234">
        <ele>53.49</ele>
        <time>2017-08-02T13:43:41Z</time>
      </trkpt>
      <trkpt lat="43.3402968384" lon="3.2189342938">
        <ele>53.49</ele>
        <time>2017-08-02T13:43:42Z</time>
      </trkpt>
      <trkpt lat="43.3403125964" lon="3.2189105731">
        <ele>53.97</ele>
        <time>2017-08-02T13:43:43Z</time>
      </trkpt>
      <trkpt lat="43.3403276838" lon="3.2188860141">
        <ele>53.97</ele>
        <time>2017-08-02T13:43:44Z</time>
      </trkpt>
      <trkpt lat="43.3404693380" lon="3.2187043782">
        <ele>54.93</ele>
        <time>2017-08-02T13:43:53Z</time>
      </trkpt>
      <trkpt lat="43.3406481240" lon="3.2185803261">
        <ele>55.89</ele>
        <time>2017-08-02T13:44:05Z</time>
      </trkpt>
      <trkpt lat="43.3406615350" lon="3.2185747940">
        <ele>55.89</ele>
        <time>2017-08-02T13:44:06Z</time>
      </trkpt>
      <trkpt lat="43.3406736050" lon="3.2185709383">
        <ele>53.49</ele>
        <time>2017-08-02T13:44:07Z</time>
      </trkpt>
      <trkpt lat="43.3406853396" lon="3.2185638975">
        <ele>55.89</ele>
        <time>2017-08-02T13:44:08Z</time>
      </trkpt>
    </trkseg>
  </trk>
</gpx>
